<?xml version="1.0" encoding="UTF-8" standalone="no" ?>
<gpx xmlns="http://www.topografix.com/GPX/1/1" xmlns:xsi="http://www.w3.org/2001/XMLSchema-instance" xsi:schemaLocation="http://www.topografix.com/GPX/1/1 http://www.topografix.com/GPX/1/1/gpx.xsd" version="1.1" creator="VisuGPX - https://www.visugpx.com">
  <metadata>
    <name>Trio en boucle</name>
  </metadata>
  <trk>
    <name><![CDATA[2023 08 27 Trio en boucle]]></name>
    <trkseg>
      <trkpt lat="45.78255" lon="5.00936">
        <ele>247.17267</ele>
        <time>2023-08-27T12:27:40.000Z</time>
      </trkpt>
      <trkpt lat="45.78254" lon="5.00931">
        <ele>247.22238</ele>
        <time>2023-08-27T12:27:41.000Z</time>
      </trkpt>
      <trkpt lat="45.78254" lon="5.00925">
        <ele>247.35869</ele>
        <time>2023-08-27T12:27:42.000Z</time>
      </trkpt>
      <trkpt lat="45.78255" lon="5.0092">
        <ele>247.5412</ele>
        <time>2023-08-27T12:27:43.000Z</time>
      </trkpt>
      <trkpt lat="45.78259" lon="5.00918">
        <ele>247.53647</ele>
        <time>2023-08-27T12:27:44.000Z</time>
      </trkpt>
      <trkpt lat="45.78263" lon="5.00917">
        <ele>247.65773</ele>
        <time>2023-08-27T12:27:45.000Z</time>
      </trkpt>
      <trkpt lat="45.78268" lon="5.00919">
        <ele>247.76347</ele>
        <time>2023-08-27T12:27:46.000Z</time>
      </trkpt>
      <trkpt lat="45.78273" lon="5.00922">
        <ele>247.92654</ele>
        <time>2023-08-27T12:27:47.000Z</time>
      </trkpt>
      <trkpt lat="45.78277" lon="5.00925">
        <ele>248.09752</ele>
        <time>2023-08-27T12:27:48.000Z</time>
      </trkpt>
      <trkpt lat="45.78283" lon="5.00928">
        <ele>248.22092</ele>
        <time>2023-08-27T12:27:49.000Z</time>
      </trkpt>
      <trkpt lat="45.78287" lon="5.00929">
        <ele>248.34512</ele>
        <time>2023-08-27T12:27:50.000Z</time>
      </trkpt>
      <trkpt lat="45.78293" lon="5.00932">
        <ele>248.40804</ele>
        <time>2023-08-27T12:27:51.000Z</time>
      </trkpt>
      <trkpt lat="45.78297" lon="5.00934">
        <ele>248.47057</ele>
        <time>2023-08-27T12:27:52.000Z</time>
      </trkpt>
      <trkpt lat="45.78302" lon="5.00936">
        <ele>248.51538</ele>
        <time>2023-08-27T12:27:53.000Z</time>
      </trkpt>
      <trkpt lat="45.78308" lon="5.00937">
        <ele>248.54422</ele>
        <time>2023-08-27T12:27:54.000Z</time>
      </trkpt>
      <trkpt lat="45.78313" lon="5.00939">
        <ele>248.55664</ele>
        <time>2023-08-27T12:27:55.000Z</time>
      </trkpt>
      <trkpt lat="45.78317" lon="5.00942">
        <ele>248.55092</ele>
        <time>2023-08-27T12:27:56.000Z</time>
      </trkpt>
      <trkpt lat="45.78322" lon="5.00945">
        <ele>248.52689</ele>
        <time>2023-08-27T12:27:57.000Z</time>
      </trkpt>
      <trkpt lat="45.78327" lon="5.00946">
        <ele>248.52112</ele>
        <time>2023-08-27T12:27:58.000Z</time>
      </trkpt>
      <trkpt lat="45.78332" lon="5.0095">
        <ele>248.51431</ele>
        <time>2023-08-27T12:27:59.000Z</time>
      </trkpt>
      <trkpt lat="45.78336" lon="5.00953">
        <ele>248.58638</ele>
        <time>2023-08-27T12:28:00.000Z</time>
      </trkpt>
      <trkpt lat="45.78341" lon="5.00956">
        <ele>248.65059</ele>
        <time>2023-08-27T12:28:01.000Z</time>
      </trkpt>
      <trkpt lat="45.78346" lon="5.00959">
        <ele>248.68814</ele>
        <time>2023-08-27T12:28:02.000Z</time>
      </trkpt>
      <trkpt lat="45.78351" lon="5.00961">
        <ele>248.69646</ele>
        <time>2023-08-27T12:28:03.000Z</time>
      </trkpt>
      <trkpt lat="45.78355" lon="5.00963">
        <ele>248.726</ele>
        <time>2023-08-27T12:28:04.000Z</time>
      </trkpt>
      <trkpt lat="45.7836" lon="5.00965">
        <ele>248.69878</ele>
        <time>2023-08-27T12:28:05.000Z</time>
      </trkpt>
      <trkpt lat="45.78364" lon="5.00967">
        <ele>248.67915</ele>
        <time>2023-08-27T12:28:06.000Z</time>
      </trkpt>
      <trkpt lat="45.78368" lon="5.00969">
        <ele>248.5759</ele>
        <time>2023-08-27T12:28:07.000Z</time>
      </trkpt>
      <trkpt lat="45.78372" lon="5.00971">
        <ele>248.45393</ele>
        <time>2023-08-27T12:28:08.000Z</time>
      </trkpt>
      <trkpt lat="45.78376" lon="5.00973">
        <ele>248.35086</ele>
        <time>2023-08-27T12:28:09.000Z</time>
      </trkpt>
      <trkpt lat="45.78379" lon="5.00976">
        <ele>248.22739</ele>
        <time>2023-08-27T12:28:10.000Z</time>
      </trkpt>
      <trkpt lat="45.78383" lon="5.00978">
        <ele>248.13559</ele>
        <time>2023-08-27T12:28:11.000Z</time>
      </trkpt>
      <trkpt lat="45.78387" lon="5.00981">
        <ele>248.03696</ele>
        <time>2023-08-27T12:28:12.000Z</time>
      </trkpt>
      <trkpt lat="45.78391" lon="5.00984">
        <ele>247.94467</ele>
        <time>2023-08-27T12:28:13.000Z</time>
      </trkpt>
      <trkpt lat="45.78395" lon="5.00986">
        <ele>247.85461</ele>
        <time>2023-08-27T12:28:14.000Z</time>
      </trkpt>
      <trkpt lat="45.78398" lon="5.00988">
        <ele>247.78386</ele>
        <time>2023-08-27T12:28:15.000Z</time>
      </trkpt>
      <trkpt lat="45.78402" lon="5.0099">
        <ele>247.73022</ele>
        <time>2023-08-27T12:28:16.000Z</time>
      </trkpt>
      <trkpt lat="45.78406" lon="5.00993">
        <ele>247.69478</ele>
        <time>2023-08-27T12:28:17.000Z</time>
      </trkpt>
      <trkpt lat="45.7841" lon="5.00995">
        <ele>247.6553</ele>
        <time>2023-08-27T12:28:18.000Z</time>
      </trkpt>
      <trkpt lat="45.78414" lon="5.00998">
        <ele>247.6106</ele>
        <time>2023-08-27T12:28:19.000Z</time>
      </trkpt>
      <trkpt lat="45.78418" lon="5.00999">
        <ele>247.54561</ele>
        <time>2023-08-27T12:28:20.000Z</time>
      </trkpt>
      <trkpt lat="45.78422" lon="5.01001">
        <ele>247.43098</ele>
        <time>2023-08-27T12:28:21.000Z</time>
      </trkpt>
      <trkpt lat="45.78426" lon="5.01002">
        <ele>247.30342</ele>
        <time>2023-08-27T12:28:22.000Z</time>
      </trkpt>
      <trkpt lat="45.78429" lon="5.01003">
        <ele>247.18686</ele>
        <time>2023-08-27T12:28:23.000Z</time>
      </trkpt>
      <trkpt lat="45.78433" lon="5.01005">
        <ele>247.08688</ele>
        <time>2023-08-27T12:28:24.000Z</time>
      </trkpt>
      <trkpt lat="45.78436" lon="5.01006">
        <ele>247.01541</ele>
        <time>2023-08-27T12:28:25.000Z</time>
      </trkpt>
      <trkpt lat="45.78439" lon="5.01008">
        <ele>246.90927</ele>
        <time>2023-08-27T12:28:26.000Z</time>
      </trkpt>
      <trkpt lat="45.78443" lon="5.01011">
        <ele>246.84891</ele>
        <time>2023-08-27T12:28:27.000Z</time>
      </trkpt>
      <trkpt lat="45.78446" lon="5.01012">
        <ele>246.77988</ele>
        <time>2023-08-27T12:28:28.000Z</time>
      </trkpt>
      <trkpt lat="45.78449" lon="5.01015">
        <ele>246.70882</ele>
        <time>2023-08-27T12:28:29.000Z</time>
      </trkpt>
      <trkpt lat="45.78453" lon="5.01017">
        <ele>246.66292</ele>
        <time>2023-08-27T12:28:30.000Z</time>
      </trkpt>
      <trkpt lat="45.78456" lon="5.01019">
        <ele>246.64091</ele>
        <time>2023-08-27T12:28:31.000Z</time>
      </trkpt>
      <trkpt lat="45.7846" lon="5.01021">
        <ele>246.64938</ele>
        <time>2023-08-27T12:28:32.000Z</time>
      </trkpt>
      <trkpt lat="45.78464" lon="5.01022">
        <ele>246.65479</ele>
        <time>2023-08-27T12:28:33.000Z</time>
      </trkpt>
      <trkpt lat="45.78468" lon="5.01024">
        <ele>246.62231</ele>
        <time>2023-08-27T12:28:34.000Z</time>
      </trkpt>
      <trkpt lat="45.78472" lon="5.01026">
        <ele>246.58415</ele>
        <time>2023-08-27T12:28:35.000Z</time>
      </trkpt>
      <trkpt lat="45.78475" lon="5.01028">
        <ele>246.55766</ele>
        <time>2023-08-27T12:28:36.000Z</time>
      </trkpt>
      <trkpt lat="45.78479" lon="5.01029">
        <ele>246.52255</ele>
        <time>2023-08-27T12:28:37.000Z</time>
      </trkpt>
      <trkpt lat="45.78482" lon="5.01031">
        <ele>246.47209</ele>
        <time>2023-08-27T12:28:38.000Z</time>
      </trkpt>
      <trkpt lat="45.78486" lon="5.01033">
        <ele>246.43738</ele>
        <time>2023-08-27T12:28:39.000Z</time>
      </trkpt>
      <trkpt lat="45.78489" lon="5.01035">
        <ele>246.42636</ele>
        <time>2023-08-27T12:28:40.000Z</time>
      </trkpt>
      <trkpt lat="45.78492" lon="5.01037">
        <ele>246.47075</ele>
        <time>2023-08-27T12:28:41.000Z</time>
      </trkpt>
      <trkpt lat="45.78495" lon="5.01038">
        <ele>246.54199</ele>
        <time>2023-08-27T12:28:42.000Z</time>
      </trkpt>
      <trkpt lat="45.78497" lon="5.0104">
        <ele>246.59065</ele>
        <time>2023-08-27T12:28:43.000Z</time>
      </trkpt>
      <trkpt lat="45.785" lon="5.01042">
        <ele>246.58623</ele>
        <time>2023-08-27T12:28:44.000Z</time>
      </trkpt>
      <trkpt lat="45.78503" lon="5.01044">
        <ele>246.58452</ele>
        <time>2023-08-27T12:28:45.000Z</time>
      </trkpt>
      <trkpt lat="45.78507" lon="5.01046">
        <ele>246.60864</ele>
        <time>2023-08-27T12:28:46.000Z</time>
      </trkpt>
      <trkpt lat="45.78511" lon="5.01048">
        <ele>246.62781</ele>
        <time>2023-08-27T12:28:47.000Z</time>
      </trkpt>
      <trkpt lat="45.78515" lon="5.01049">
        <ele>246.67363</ele>
        <time>2023-08-27T12:28:48.000Z</time>
      </trkpt>
      <trkpt lat="45.7852" lon="5.0105">
        <ele>246.69568</ele>
        <time>2023-08-27T12:28:49.000Z</time>
      </trkpt>
      <trkpt lat="45.78524" lon="5.01052">
        <ele>246.69931</ele>
        <time>2023-08-27T12:28:50.000Z</time>
      </trkpt>
      <trkpt lat="45.78529" lon="5.01055">
        <ele>246.67256</ele>
        <time>2023-08-27T12:28:51.000Z</time>
      </trkpt>
      <trkpt lat="45.78534" lon="5.01056">
        <ele>246.64229</ele>
        <time>2023-08-27T12:28:52.000Z</time>
      </trkpt>
      <trkpt lat="45.78539" lon="5.01058">
        <ele>246.60493</ele>
        <time>2023-08-27T12:28:53.000Z</time>
      </trkpt>
      <trkpt lat="45.78544" lon="5.01061">
        <ele>246.60905</ele>
        <time>2023-08-27T12:28:54.000Z</time>
      </trkpt>
      <trkpt lat="45.78549" lon="5.01063">
        <ele>246.60312</ele>
        <time>2023-08-27T12:28:55.000Z</time>
      </trkpt>
      <trkpt lat="45.78553" lon="5.01065">
        <ele>246.59872</ele>
        <time>2023-08-27T12:28:56.000Z</time>
      </trkpt>
      <trkpt lat="45.78558" lon="5.01068">
        <ele>246.60503</ele>
        <time>2023-08-27T12:28:57.000Z</time>
      </trkpt>
      <trkpt lat="45.78562" lon="5.0107">
        <ele>246.61885</ele>
        <time>2023-08-27T12:28:58.000Z</time>
      </trkpt>
      <trkpt lat="45.78565" lon="5.01073">
        <ele>246.64998</ele>
        <time>2023-08-27T12:28:59.000Z</time>
      </trkpt>
      <trkpt lat="45.78569" lon="5.01074">
        <ele>246.70493</ele>
        <time>2023-08-27T12:29:00.000Z</time>
      </trkpt>
      <trkpt lat="45.78572" lon="5.01075">
        <ele>246.73091</ele>
        <time>2023-08-27T12:29:01.000Z</time>
      </trkpt>
      <trkpt lat="45.78576" lon="5.01079">
        <ele>246.71426</ele>
        <time>2023-08-27T12:29:02.000Z</time>
      </trkpt>
      <trkpt lat="45.78579" lon="5.01083">
        <ele>246.65874</ele>
        <time>2023-08-27T12:29:03.000Z</time>
      </trkpt>
      <trkpt lat="45.78584" lon="5.01086">
        <ele>246.66629</ele>
        <time>2023-08-27T12:29:04.000Z</time>
      </trkpt>
      <trkpt lat="45.78589" lon="5.0109">
        <ele>246.62021</ele>
        <time>2023-08-27T12:29:05.000Z</time>
      </trkpt>
      <trkpt lat="45.78594" lon="5.01093">
        <ele>246.47974</ele>
        <time>2023-08-27T12:29:06.000Z</time>
      </trkpt>
      <trkpt lat="45.78597" lon="5.01098">
        <ele>246.32573</ele>
        <time>2023-08-27T12:29:07.000Z</time>
      </trkpt>
      <trkpt lat="45.78601" lon="5.01101">
        <ele>246.13452</ele>
        <time>2023-08-27T12:29:08.000Z</time>
      </trkpt>
      <trkpt lat="45.78605" lon="5.01104">
        <ele>245.9552</ele>
        <time>2023-08-27T12:29:09.000Z</time>
      </trkpt>
      <trkpt lat="45.78609" lon="5.01105">
        <ele>245.77158</ele>
        <time>2023-08-27T12:29:10.000Z</time>
      </trkpt>
      <trkpt lat="45.78613" lon="5.01107">
        <ele>245.59937</ele>
        <time>2023-08-27T12:29:11.000Z</time>
      </trkpt>
      <trkpt lat="45.78618" lon="5.01106">
        <ele>245.3418</ele>
        <time>2023-08-27T12:29:12.000Z</time>
      </trkpt>
      <trkpt lat="45.78622" lon="5.01107">
        <ele>245.021</ele>
        <time>2023-08-27T12:29:13.000Z</time>
      </trkpt>
      <trkpt lat="45.78625" lon="5.01107">
        <ele>244.82491</ele>
        <time>2023-08-27T12:29:14.000Z</time>
      </trkpt>
      <trkpt lat="45.78629" lon="5.01107">
        <ele>244.67461</ele>
        <time>2023-08-27T12:29:15.000Z</time>
      </trkpt>
      <trkpt lat="45.78632" lon="5.01108">
        <ele>244.48112</ele>
        <time>2023-08-27T12:29:16.000Z</time>
      </trkpt>
      <trkpt lat="45.78634" lon="5.01109">
        <ele>244.25786</ele>
        <time>2023-08-27T12:29:17.000Z</time>
      </trkpt>
      <trkpt lat="45.78636" lon="5.01109">
        <ele>243.84756</ele>
        <time>2023-08-27T12:29:21.000Z</time>
      </trkpt>
      <trkpt lat="45.78639" lon="5.01108">
        <ele>243.38083</ele>
        <time>2023-08-27T12:30:17.000Z</time>
      </trkpt>
      <trkpt lat="45.78642" lon="5.01107">
        <ele>242.88472</ele>
        <time>2023-08-27T12:30:18.000Z</time>
      </trkpt>
      <trkpt lat="45.78644" lon="5.01107">
        <ele>242.4093</ele>
        <time>2023-08-27T12:30:19.000Z</time>
      </trkpt>
      <trkpt lat="45.78647" lon="5.01107">
        <ele>242.22124</ele>
        <time>2023-08-27T12:30:20.000Z</time>
      </trkpt>
      <trkpt lat="45.78649" lon="5.01108">
        <ele>242.10869</ele>
        <time>2023-08-27T12:30:21.000Z</time>
      </trkpt>
      <trkpt lat="45.78651" lon="5.01107">
        <ele>242.00436</ele>
        <time>2023-08-27T12:30:22.000Z</time>
      </trkpt>
      <trkpt lat="45.78654" lon="5.01106">
        <ele>241.83768</ele>
        <time>2023-08-27T12:30:24.000Z</time>
      </trkpt>
      <trkpt lat="45.78657" lon="5.01106">
        <ele>241.7598</ele>
        <time>2023-08-27T12:30:26.000Z</time>
      </trkpt>
      <trkpt lat="45.78659" lon="5.01107">
        <ele>241.74332</ele>
        <time>2023-08-27T12:30:27.000Z</time>
      </trkpt>
      <trkpt lat="45.78661" lon="5.01107">
        <ele>241.7482</ele>
        <time>2023-08-27T12:30:28.000Z</time>
      </trkpt>
      <trkpt lat="45.78663" lon="5.01107">
        <ele>241.75574</ele>
        <time>2023-08-27T12:30:29.000Z</time>
      </trkpt>
      <trkpt lat="45.78666" lon="5.01107">
        <ele>241.77518</ele>
        <time>2023-08-27T12:30:30.000Z</time>
      </trkpt>
      <trkpt lat="45.78669" lon="5.01108">
        <ele>241.77219</ele>
        <time>2023-08-27T12:30:31.000Z</time>
      </trkpt>
      <trkpt lat="45.78672" lon="5.01108">
        <ele>241.82779</ele>
        <time>2023-08-27T12:30:32.000Z</time>
      </trkpt>
      <trkpt lat="45.78676" lon="5.01108">
        <ele>241.95761</ele>
        <time>2023-08-27T12:30:33.000Z</time>
      </trkpt>
      <trkpt lat="45.7868" lon="5.01108">
        <ele>241.95761</ele>
        <time>2023-08-27T12:30:34.000Z</time>
      </trkpt>
      <trkpt lat="45.78684" lon="5.01109">
        <ele>241.91293</ele>
        <time>2023-08-27T12:30:35.000Z</time>
      </trkpt>
      <trkpt lat="45.78688" lon="5.01109">
        <ele>241.88708</ele>
        <time>2023-08-27T12:30:36.000Z</time>
      </trkpt>
      <trkpt lat="45.78691" lon="5.01109">
        <ele>241.89226</ele>
        <time>2023-08-27T12:30:37.000Z</time>
      </trkpt>
      <trkpt lat="45.78694" lon="5.01109">
        <ele>242.07974</ele>
        <time>2023-08-27T12:30:38.000Z</time>
      </trkpt>
      <trkpt lat="45.78698" lon="5.01109">
        <ele>242.31174</ele>
        <time>2023-08-27T12:30:39.000Z</time>
      </trkpt>
      <trkpt lat="45.78702" lon="5.01109">
        <ele>242.52283</ele>
        <time>2023-08-27T12:30:40.000Z</time>
      </trkpt>
      <trkpt lat="45.78705" lon="5.01109">
        <ele>242.73624</ele>
        <time>2023-08-27T12:30:41.000Z</time>
      </trkpt>
      <trkpt lat="45.78708" lon="5.01109">
        <ele>242.75298</ele>
        <time>2023-08-27T12:30:42.000Z</time>
      </trkpt>
      <trkpt lat="45.78712" lon="5.01109">
        <ele>242.78137</ele>
        <time>2023-08-27T12:30:43.000Z</time>
      </trkpt>
      <trkpt lat="45.78715" lon="5.01109">
        <ele>242.68437</ele>
        <time>2023-08-27T12:30:44.000Z</time>
      </trkpt>
      <trkpt lat="45.78718" lon="5.01109">
        <ele>242.69888</ele>
        <time>2023-08-27T12:30:45.000Z</time>
      </trkpt>
      <trkpt lat="45.78721" lon="5.01109">
        <ele>242.7131</ele>
        <time>2023-08-27T12:30:46.000Z</time>
      </trkpt>
      <trkpt lat="45.78725" lon="5.01109">
        <ele>242.67403</ele>
        <time>2023-08-27T12:30:47.000Z</time>
      </trkpt>
      <trkpt lat="45.78728" lon="5.01109">
        <ele>242.64066</ele>
        <time>2023-08-27T12:30:48.000Z</time>
      </trkpt>
      <trkpt lat="45.78731" lon="5.01109">
        <ele>242.62093</ele>
        <time>2023-08-27T12:30:49.000Z</time>
      </trkpt>
      <trkpt lat="45.78734" lon="5.01109">
        <ele>242.58292</ele>
        <time>2023-08-27T12:30:50.000Z</time>
      </trkpt>
      <trkpt lat="45.78738" lon="5.01109">
        <ele>242.54199</ele>
        <time>2023-08-27T12:30:51.000Z</time>
      </trkpt>
      <trkpt lat="45.78741" lon="5.01109">
        <ele>242.56804</ele>
        <time>2023-08-27T12:30:52.000Z</time>
      </trkpt>
      <trkpt lat="45.78744" lon="5.01109">
        <ele>242.62788</ele>
        <time>2023-08-27T12:30:53.000Z</time>
      </trkpt>
      <trkpt lat="45.78747" lon="5.01109">
        <ele>242.60014</ele>
        <time>2023-08-27T12:30:54.000Z</time>
      </trkpt>
      <trkpt lat="45.7875" lon="5.01108">
        <ele>242.58823</ele>
        <time>2023-08-27T12:30:55.000Z</time>
      </trkpt>
      <trkpt lat="45.78753" lon="5.01107">
        <ele>242.58981</ele>
        <time>2023-08-27T12:30:56.000Z</time>
      </trkpt>
      <trkpt lat="45.78755" lon="5.01104">
        <ele>242.56699</ele>
        <time>2023-08-27T12:30:57.000Z</time>
      </trkpt>
      <trkpt lat="45.78755" lon="5.01101">
        <ele>242.56204</ele>
        <time>2023-08-27T12:30:58.000Z</time>
      </trkpt>
      <trkpt lat="45.78755" lon="5.01098">
        <ele>242.5511</ele>
        <time>2023-08-27T12:30:59.000Z</time>
      </trkpt>
      <trkpt lat="45.78755" lon="5.01095">
        <ele>242.53043</ele>
        <time>2023-08-27T12:31:00.000Z</time>
      </trkpt>
      <trkpt lat="45.78755" lon="5.01092">
        <ele>242.50668</ele>
        <time>2023-08-27T12:31:01.000Z</time>
      </trkpt>
      <trkpt lat="45.78755" lon="5.01089">
        <ele>242.42668</ele>
        <time>2023-08-27T12:31:02.000Z</time>
      </trkpt>
      <trkpt lat="45.78756" lon="5.01086">
        <ele>242.28882</ele>
        <time>2023-08-27T12:31:03.000Z</time>
      </trkpt>
      <trkpt lat="45.78755" lon="5.01082">
        <ele>242.24216</ele>
        <time>2023-08-27T12:31:04.000Z</time>
      </trkpt>
      <trkpt lat="45.78755" lon="5.01078">
        <ele>242.17407</ele>
        <time>2023-08-27T12:31:05.000Z</time>
      </trkpt>
      <trkpt lat="45.78754" lon="5.01073">
        <ele>242.11311</ele>
        <time>2023-08-27T12:31:06.000Z</time>
      </trkpt>
      <trkpt lat="45.78753" lon="5.01068">
        <ele>242.05319</ele>
        <time>2023-08-27T12:31:07.000Z</time>
      </trkpt>
      <trkpt lat="45.78753" lon="5.01062">
        <ele>241.9805</ele>
        <time>2023-08-27T12:31:08.000Z</time>
      </trkpt>
      <trkpt lat="45.78753" lon="5.01056">
        <ele>241.88358</ele>
        <time>2023-08-27T12:31:09.000Z</time>
      </trkpt>
      <trkpt lat="45.78754" lon="5.0105">
        <ele>241.77979</ele>
        <time>2023-08-27T12:31:10.000Z</time>
      </trkpt>
      <trkpt lat="45.78754" lon="5.01043">
        <ele>241.67795</ele>
        <time>2023-08-27T12:31:11.000Z</time>
      </trkpt>
      <trkpt lat="45.78753" lon="5.01036">
        <ele>241.49825</ele>
        <time>2023-08-27T12:31:12.000Z</time>
      </trkpt>
      <trkpt lat="45.78752" lon="5.01029">
        <ele>241.25175</ele>
        <time>2023-08-27T12:31:13.000Z</time>
      </trkpt>
      <trkpt lat="45.78752" lon="5.01022">
        <ele>241.09702</ele>
        <time>2023-08-27T12:31:14.000Z</time>
      </trkpt>
      <trkpt lat="45.78751" lon="5.01015">
        <ele>240.92525</ele>
        <time>2023-08-27T12:31:15.000Z</time>
      </trkpt>
      <trkpt lat="45.7875" lon="5.01009">
        <ele>240.75078</ele>
        <time>2023-08-27T12:31:16.000Z</time>
      </trkpt>
      <trkpt lat="45.78749" lon="5.01003">
        <ele>240.58215</ele>
        <time>2023-08-27T12:31:17.000Z</time>
      </trkpt>
      <trkpt lat="45.78748" lon="5.00997">
        <ele>240.3837</ele>
        <time>2023-08-27T12:31:18.000Z</time>
      </trkpt>
      <trkpt lat="45.78747" lon="5.00991">
        <ele>240.00371</ele>
        <time>2023-08-27T12:31:19.000Z</time>
      </trkpt>
      <trkpt lat="45.78746" lon="5.00984">
        <ele>239.62666</ele>
        <time>2023-08-27T12:31:20.000Z</time>
      </trkpt>
      <trkpt lat="45.78745" lon="5.00978">
        <ele>239.26688</ele>
        <time>2023-08-27T12:31:21.000Z</time>
      </trkpt>
      <trkpt lat="45.78745" lon="5.00972">
        <ele>238.90152</ele>
        <time>2023-08-27T12:31:22.000Z</time>
      </trkpt>
      <trkpt lat="45.78744" lon="5.00966">
        <ele>238.58975</ele>
        <time>2023-08-27T12:31:23.000Z</time>
      </trkpt>
      <trkpt lat="45.78743" lon="5.00961">
        <ele>238.29636</ele>
        <time>2023-08-27T12:31:24.000Z</time>
      </trkpt>
      <trkpt lat="45.78742" lon="5.00955">
        <ele>238.00684</ele>
        <time>2023-08-27T12:31:25.000Z</time>
      </trkpt>
      <trkpt lat="45.78741" lon="5.00948">
        <ele>237.70505</ele>
        <time>2023-08-27T12:31:26.000Z</time>
      </trkpt>
      <trkpt lat="45.7874" lon="5.00943">
        <ele>237.54749</ele>
        <time>2023-08-27T12:31:27.000Z</time>
      </trkpt>
      <trkpt lat="45.78739" lon="5.00937">
        <ele>237.38997</ele>
        <time>2023-08-27T12:31:28.000Z</time>
      </trkpt>
      <trkpt lat="45.78738" lon="5.00931">
        <ele>237.24089</ele>
        <time>2023-08-27T12:31:29.000Z</time>
      </trkpt>
      <trkpt lat="45.78737" lon="5.00926">
        <ele>237.12227</ele>
        <time>2023-08-27T12:31:30.000Z</time>
      </trkpt>
      <trkpt lat="45.78736" lon="5.0092">
        <ele>237.02087</ele>
        <time>2023-08-27T12:31:31.000Z</time>
      </trkpt>
      <trkpt lat="45.78735" lon="5.00915">
        <ele>236.92294</ele>
        <time>2023-08-27T12:31:32.000Z</time>
      </trkpt>
      <trkpt lat="45.78734" lon="5.0091">
        <ele>236.86052</ele>
        <time>2023-08-27T12:31:33.000Z</time>
      </trkpt>
      <trkpt lat="45.78733" lon="5.00904">
        <ele>236.80276</ele>
        <time>2023-08-27T12:31:34.000Z</time>
      </trkpt>
      <trkpt lat="45.78732" lon="5.00899">
        <ele>236.74606</ele>
        <time>2023-08-27T12:31:35.000Z</time>
      </trkpt>
      <trkpt lat="45.78731" lon="5.00893">
        <ele>236.69363</ele>
        <time>2023-08-27T12:31:36.000Z</time>
      </trkpt>
      <trkpt lat="45.78729" lon="5.00888">
        <ele>236.66606</ele>
        <time>2023-08-27T12:31:37.000Z</time>
      </trkpt>
      <trkpt lat="45.78728" lon="5.00882">
        <ele>236.70757</ele>
        <time>2023-08-27T12:31:38.000Z</time>
      </trkpt>
      <trkpt lat="45.78727" lon="5.00876">
        <ele>236.92424</ele>
        <time>2023-08-27T12:31:39.000Z</time>
      </trkpt>
      <trkpt lat="45.78726" lon="5.00871">
        <ele>237.20853</ele>
        <time>2023-08-27T12:31:40.000Z</time>
      </trkpt>
      <trkpt lat="45.78725" lon="5.00865">
        <ele>237.34944</ele>
        <time>2023-08-27T12:31:41.000Z</time>
      </trkpt>
      <trkpt lat="45.78724" lon="5.0086">
        <ele>237.51469</ele>
        <time>2023-08-27T12:31:42.000Z</time>
      </trkpt>
      <trkpt lat="45.78723" lon="5.00855">
        <ele>237.64331</ele>
        <time>2023-08-27T12:31:43.000Z</time>
      </trkpt>
      <trkpt lat="45.78722" lon="5.0085">
        <ele>237.75906</ele>
        <time>2023-08-27T12:31:44.000Z</time>
      </trkpt>
      <trkpt lat="45.78721" lon="5.00845">
        <ele>237.89731</ele>
        <time>2023-08-27T12:31:45.000Z</time>
      </trkpt>
      <trkpt lat="45.7872" lon="5.0084">
        <ele>238.04256</ele>
        <time>2023-08-27T12:31:46.000Z</time>
      </trkpt>
      <trkpt lat="45.78719" lon="5.00835">
        <ele>238.07504</ele>
        <time>2023-08-27T12:31:47.000Z</time>
      </trkpt>
      <trkpt lat="45.78718" lon="5.0083">
        <ele>238.1187</ele>
        <time>2023-08-27T12:31:48.000Z</time>
      </trkpt>
      <trkpt lat="45.78717" lon="5.00826">
        <ele>238.15263</ele>
        <time>2023-08-27T12:31:49.000Z</time>
      </trkpt>
      <trkpt lat="45.78716" lon="5.00821">
        <ele>238.17142</ele>
        <time>2023-08-27T12:31:50.000Z</time>
      </trkpt>
      <trkpt lat="45.78715" lon="5.00816">
        <ele>238.2646</ele>
        <time>2023-08-27T12:31:51.000Z</time>
      </trkpt>
      <trkpt lat="45.78714" lon="5.00811">
        <ele>238.3671</ele>
        <time>2023-08-27T12:31:52.000Z</time>
      </trkpt>
      <trkpt lat="45.78713" lon="5.00806">
        <ele>238.521</ele>
        <time>2023-08-27T12:31:53.000Z</time>
      </trkpt>
      <trkpt lat="45.78713" lon="5.008">
        <ele>238.54619</ele>
        <time>2023-08-27T12:31:54.000Z</time>
      </trkpt>
      <trkpt lat="45.78712" lon="5.00795">
        <ele>238.59712</ele>
        <time>2023-08-27T12:31:55.000Z</time>
      </trkpt>
      <trkpt lat="45.78711" lon="5.00789">
        <ele>238.65047</ele>
        <time>2023-08-27T12:31:56.000Z</time>
      </trkpt>
      <trkpt lat="45.78711" lon="5.00783">
        <ele>238.7037</ele>
        <time>2023-08-27T12:31:57.000Z</time>
      </trkpt>
      <trkpt lat="45.7871" lon="5.00777">
        <ele>238.7037</ele>
        <time>2023-08-27T12:31:58.000Z</time>
      </trkpt>
      <trkpt lat="45.7871" lon="5.00771">
        <ele>238.71053</ele>
        <time>2023-08-27T12:31:59.000Z</time>
      </trkpt>
      <trkpt lat="45.78709" lon="5.00766">
        <ele>238.66682</ele>
        <time>2023-08-27T12:32:00.000Z</time>
      </trkpt>
      <trkpt lat="45.78708" lon="5.0076">
        <ele>238.7692</ele>
        <time>2023-08-27T12:32:01.000Z</time>
      </trkpt>
      <trkpt lat="45.78708" lon="5.00754">
        <ele>238.86894</ele>
        <time>2023-08-27T12:32:02.000Z</time>
      </trkpt>
      <trkpt lat="45.78707" lon="5.00748">
        <ele>238.96497</ele>
        <time>2023-08-27T12:32:03.000Z</time>
      </trkpt>
      <trkpt lat="45.78707" lon="5.00742">
        <ele>239.06377</ele>
        <time>2023-08-27T12:32:04.000Z</time>
      </trkpt>
      <trkpt lat="45.78706" lon="5.00736">
        <ele>239.14651</ele>
        <time>2023-08-27T12:32:05.000Z</time>
      </trkpt>
      <trkpt lat="45.78706" lon="5.0073">
        <ele>239.21646</ele>
        <time>2023-08-27T12:32:06.000Z</time>
      </trkpt>
      <trkpt lat="45.78706" lon="5.00724">
        <ele>239.29697</ele>
        <time>2023-08-27T12:32:07.000Z</time>
      </trkpt>
      <trkpt lat="45.78706" lon="5.00718">
        <ele>239.36267</ele>
        <time>2023-08-27T12:32:08.000Z</time>
      </trkpt>
      <trkpt lat="45.78707" lon="5.00712">
        <ele>239.4231</ele>
        <time>2023-08-27T12:32:09.000Z</time>
      </trkpt>
      <trkpt lat="45.78707" lon="5.00706">
        <ele>239.47867</ele>
        <time>2023-08-27T12:32:10.000Z</time>
      </trkpt>
      <trkpt lat="45.78707" lon="5.007">
        <ele>239.4355</ele>
        <time>2023-08-27T12:32:11.000Z</time>
      </trkpt>
      <trkpt lat="45.78707" lon="5.00694">
        <ele>239.38443</ele>
        <time>2023-08-27T12:32:12.000Z</time>
      </trkpt>
      <trkpt lat="45.78706" lon="5.00688">
        <ele>239.28145</ele>
        <time>2023-08-27T12:32:13.000Z</time>
      </trkpt>
      <trkpt lat="45.78706" lon="5.00682">
        <ele>239.30766</ele>
        <time>2023-08-27T12:32:14.000Z</time>
      </trkpt>
      <trkpt lat="45.78706" lon="5.00675">
        <ele>239.31445</ele>
        <time>2023-08-27T12:32:15.000Z</time>
      </trkpt>
      <trkpt lat="45.78706" lon="5.00669">
        <ele>239.3848</ele>
        <time>2023-08-27T12:32:16.000Z</time>
      </trkpt>
      <trkpt lat="45.78706" lon="5.00663">
        <ele>239.47168</ele>
        <time>2023-08-27T12:32:17.000Z</time>
      </trkpt>
      <trkpt lat="45.78706" lon="5.00657">
        <ele>239.55334</ele>
        <time>2023-08-27T12:32:18.000Z</time>
      </trkpt>
      <trkpt lat="45.78706" lon="5.00651">
        <ele>239.50076</ele>
        <time>2023-08-27T12:32:19.000Z</time>
      </trkpt>
      <trkpt lat="45.78706" lon="5.00644">
        <ele>239.47427</ele>
        <time>2023-08-27T12:32:20.000Z</time>
      </trkpt>
      <trkpt lat="45.78706" lon="5.00638">
        <ele>239.43274</ele>
        <time>2023-08-27T12:32:21.000Z</time>
      </trkpt>
      <trkpt lat="45.78707" lon="5.00632">
        <ele>239.37537</ele>
        <time>2023-08-27T12:32:22.000Z</time>
      </trkpt>
      <trkpt lat="45.78707" lon="5.00626">
        <ele>239.33452</ele>
        <time>2023-08-27T12:32:23.000Z</time>
      </trkpt>
      <trkpt lat="45.78707" lon="5.00619">
        <ele>239.28886</ele>
        <time>2023-08-27T12:32:24.000Z</time>
      </trkpt>
      <trkpt lat="45.78708" lon="5.00613">
        <ele>239.3166</ele>
        <time>2023-08-27T12:32:25.000Z</time>
      </trkpt>
      <trkpt lat="45.78709" lon="5.00607">
        <ele>239.37321</ele>
        <time>2023-08-27T12:32:26.000Z</time>
      </trkpt>
      <trkpt lat="45.7871" lon="5.00601">
        <ele>239.40166</ele>
        <time>2023-08-27T12:32:27.000Z</time>
      </trkpt>
      <trkpt lat="45.7871" lon="5.00594">
        <ele>239.29269</ele>
        <time>2023-08-27T12:32:28.000Z</time>
      </trkpt>
      <trkpt lat="45.78711" lon="5.00587">
        <ele>239.23157</ele>
        <time>2023-08-27T12:32:29.000Z</time>
      </trkpt>
      <trkpt lat="45.78712" lon="5.00581">
        <ele>239.17435</ele>
        <time>2023-08-27T12:32:30.000Z</time>
      </trkpt>
      <trkpt lat="45.78712" lon="5.00575">
        <ele>239.1346</ele>
        <time>2023-08-27T12:32:31.000Z</time>
      </trkpt>
      <trkpt lat="45.78713" lon="5.00568">
        <ele>239.11465</ele>
        <time>2023-08-27T12:32:32.000Z</time>
      </trkpt>
      <trkpt lat="45.78714" lon="5.00562">
        <ele>239.10327</ele>
        <time>2023-08-27T12:32:33.000Z</time>
      </trkpt>
      <trkpt lat="45.78715" lon="5.00556">
        <ele>239.08968</ele>
        <time>2023-08-27T12:32:34.000Z</time>
      </trkpt>
      <trkpt lat="45.78716" lon="5.0055">
        <ele>239.13272</ele>
        <time>2023-08-27T12:32:35.000Z</time>
      </trkpt>
      <trkpt lat="45.78716" lon="5.00544">
        <ele>239.1545</ele>
        <time>2023-08-27T12:32:36.000Z</time>
      </trkpt>
      <trkpt lat="45.78717" lon="5.00538">
        <ele>239.14774</ele>
        <time>2023-08-27T12:32:37.000Z</time>
      </trkpt>
      <trkpt lat="45.78718" lon="5.00532">
        <ele>239.13713</ele>
        <time>2023-08-27T12:32:38.000Z</time>
      </trkpt>
      <trkpt lat="45.78719" lon="5.00527">
        <ele>239.11694</ele>
        <time>2023-08-27T12:32:39.000Z</time>
      </trkpt>
      <trkpt lat="45.7872" lon="5.00521">
        <ele>239.09952</ele>
        <time>2023-08-27T12:32:40.000Z</time>
      </trkpt>
      <trkpt lat="45.78721" lon="5.00514">
        <ele>239.08955</ele>
        <time>2023-08-27T12:32:41.000Z</time>
      </trkpt>
      <trkpt lat="45.78721" lon="5.00508">
        <ele>239.0793</ele>
        <time>2023-08-27T12:32:42.000Z</time>
      </trkpt>
      <trkpt lat="45.78722" lon="5.00502">
        <ele>239.06279</ele>
        <time>2023-08-27T12:32:43.000Z</time>
      </trkpt>
      <trkpt lat="45.78723" lon="5.00495">
        <ele>239.04887</ele>
        <time>2023-08-27T12:32:44.000Z</time>
      </trkpt>
      <trkpt lat="45.78724" lon="5.00489">
        <ele>239.0452</ele>
        <time>2023-08-27T12:32:45.000Z</time>
      </trkpt>
      <trkpt lat="45.78724" lon="5.00482">
        <ele>239.06787</ele>
        <time>2023-08-27T12:32:46.000Z</time>
      </trkpt>
      <trkpt lat="45.78726" lon="5.00477">
        <ele>239.0835</ele>
        <time>2023-08-27T12:32:47.000Z</time>
      </trkpt>
      <trkpt lat="45.78727" lon="5.00471">
        <ele>239.23801</ele>
        <time>2023-08-27T12:32:48.000Z</time>
      </trkpt>
      <trkpt lat="45.78728" lon="5.00464">
        <ele>239.22261</ele>
        <time>2023-08-27T12:32:49.000Z</time>
      </trkpt>
      <trkpt lat="45.78729" lon="5.00459">
        <ele>239.22742</ele>
        <time>2023-08-27T12:32:50.000Z</time>
      </trkpt>
      <trkpt lat="45.7873" lon="5.00453">
        <ele>239.24026</ele>
        <time>2023-08-27T12:32:51.000Z</time>
      </trkpt>
      <trkpt lat="45.78731" lon="5.00447">
        <ele>239.23877</ele>
        <time>2023-08-27T12:32:52.000Z</time>
      </trkpt>
      <trkpt lat="45.78733" lon="5.00441">
        <ele>239.21294</ele>
        <time>2023-08-27T12:32:53.000Z</time>
      </trkpt>
      <trkpt lat="45.78735" lon="5.00435">
        <ele>239.18396</ele>
        <time>2023-08-27T12:32:54.000Z</time>
      </trkpt>
      <trkpt lat="45.78736" lon="5.00429">
        <ele>239.09024</ele>
        <time>2023-08-27T12:32:55.000Z</time>
      </trkpt>
      <trkpt lat="45.78737" lon="5.00423">
        <ele>238.95769</ele>
        <time>2023-08-27T12:32:56.000Z</time>
      </trkpt>
      <trkpt lat="45.78738" lon="5.00417">
        <ele>238.89705</ele>
        <time>2023-08-27T12:32:57.000Z</time>
      </trkpt>
      <trkpt lat="45.7874" lon="5.00412">
        <ele>238.89017</ele>
        <time>2023-08-27T12:32:58.000Z</time>
      </trkpt>
      <trkpt lat="45.78741" lon="5.00406">
        <ele>238.88335</ele>
        <time>2023-08-27T12:32:59.000Z</time>
      </trkpt>
      <trkpt lat="45.78743" lon="5.00401">
        <ele>238.87029</ele>
        <time>2023-08-27T12:33:00.000Z</time>
      </trkpt>
      <trkpt lat="45.78744" lon="5.00395">
        <ele>238.86967</ele>
        <time>2023-08-27T12:33:01.000Z</time>
      </trkpt>
      <trkpt lat="45.78746" lon="5.00389">
        <ele>238.87898</ele>
        <time>2023-08-27T12:33:02.000Z</time>
      </trkpt>
      <trkpt lat="45.78748" lon="5.00383">
        <ele>238.89743</ele>
        <time>2023-08-27T12:33:03.000Z</time>
      </trkpt>
      <trkpt lat="45.7875" lon="5.00378">
        <ele>238.89938</ele>
        <time>2023-08-27T12:33:04.000Z</time>
      </trkpt>
      <trkpt lat="45.78751" lon="5.00373">
        <ele>238.81808</ele>
        <time>2023-08-27T12:33:05.000Z</time>
      </trkpt>
      <trkpt lat="45.78753" lon="5.00368">
        <ele>238.68608</ele>
        <time>2023-08-27T12:33:06.000Z</time>
      </trkpt>
      <trkpt lat="45.78754" lon="5.00362">
        <ele>238.56763</ele>
        <time>2023-08-27T12:33:07.000Z</time>
      </trkpt>
      <trkpt lat="45.78756" lon="5.00357">
        <ele>238.46065</ele>
        <time>2023-08-27T12:33:08.000Z</time>
      </trkpt>
      <trkpt lat="45.78758" lon="5.00352">
        <ele>238.50098</ele>
        <time>2023-08-27T12:33:09.000Z</time>
      </trkpt>
      <trkpt lat="45.7876" lon="5.00347">
        <ele>238.5118</ele>
        <time>2023-08-27T12:33:10.000Z</time>
      </trkpt>
      <trkpt lat="45.78763" lon="5.00341">
        <ele>238.57573</ele>
        <time>2023-08-27T12:33:11.000Z</time>
      </trkpt>
      <trkpt lat="45.78765" lon="5.00336">
        <ele>238.67509</ele>
        <time>2023-08-27T12:33:12.000Z</time>
      </trkpt>
      <trkpt lat="45.78767" lon="5.00331">
        <ele>238.78635</ele>
        <time>2023-08-27T12:33:13.000Z</time>
      </trkpt>
      <trkpt lat="45.78769" lon="5.00325">
        <ele>238.76016</ele>
        <time>2023-08-27T12:33:14.000Z</time>
      </trkpt>
      <trkpt lat="45.78771" lon="5.0032">
        <ele>238.75745</ele>
        <time>2023-08-27T12:33:15.000Z</time>
      </trkpt>
      <trkpt lat="45.78773" lon="5.00314">
        <ele>238.74406</ele>
        <time>2023-08-27T12:33:16.000Z</time>
      </trkpt>
      <trkpt lat="45.78775" lon="5.00308">
        <ele>238.65544</ele>
        <time>2023-08-27T12:33:17.000Z</time>
      </trkpt>
      <trkpt lat="45.78777" lon="5.00303">
        <ele>238.51157</ele>
        <time>2023-08-27T12:33:18.000Z</time>
      </trkpt>
      <trkpt lat="45.7878" lon="5.00298">
        <ele>238.49222</ele>
        <time>2023-08-27T12:33:19.000Z</time>
      </trkpt>
      <trkpt lat="45.78782" lon="5.00292">
        <ele>238.45622</ele>
        <time>2023-08-27T12:33:20.000Z</time>
      </trkpt>
      <trkpt lat="45.78784" lon="5.00288">
        <ele>238.39822</ele>
        <time>2023-08-27T12:33:21.000Z</time>
      </trkpt>
      <trkpt lat="45.78787" lon="5.00283">
        <ele>238.17586</ele>
        <time>2023-08-27T12:33:22.000Z</time>
      </trkpt>
      <trkpt lat="45.78789" lon="5.00277">
        <ele>237.95602</ele>
        <time>2023-08-27T12:33:23.000Z</time>
      </trkpt>
      <trkpt lat="45.78791" lon="5.00272">
        <ele>237.75296</ele>
        <time>2023-08-27T12:33:24.000Z</time>
      </trkpt>
      <trkpt lat="45.78793" lon="5.00267">
        <ele>237.54202</ele>
        <time>2023-08-27T12:33:25.000Z</time>
      </trkpt>
      <trkpt lat="45.78796" lon="5.00262">
        <ele>237.34099</ele>
        <time>2023-08-27T12:33:26.000Z</time>
      </trkpt>
      <trkpt lat="45.78798" lon="5.00257">
        <ele>237.13045</ele>
        <time>2023-08-27T12:33:27.000Z</time>
      </trkpt>
      <trkpt lat="45.78801" lon="5.00252">
        <ele>236.92172</ele>
        <time>2023-08-27T12:33:28.000Z</time>
      </trkpt>
      <trkpt lat="45.78803" lon="5.00247">
        <ele>236.69565</ele>
        <time>2023-08-27T12:33:29.000Z</time>
      </trkpt>
      <trkpt lat="45.78806" lon="5.00243">
        <ele>236.47322</ele>
        <time>2023-08-27T12:33:30.000Z</time>
      </trkpt>
      <trkpt lat="45.78808" lon="5.00237">
        <ele>236.19287</ele>
        <time>2023-08-27T12:33:31.000Z</time>
      </trkpt>
      <trkpt lat="45.78811" lon="5.00232">
        <ele>235.87346</ele>
        <time>2023-08-27T12:33:32.000Z</time>
      </trkpt>
      <trkpt lat="45.78813" lon="5.00228">
        <ele>235.53951</ele>
        <time>2023-08-27T12:33:33.000Z</time>
      </trkpt>
      <trkpt lat="45.78816" lon="5.00224">
        <ele>235.33914</ele>
        <time>2023-08-27T12:33:34.000Z</time>
      </trkpt>
      <trkpt lat="45.78818" lon="5.00219">
        <ele>235.1207</ele>
        <time>2023-08-27T12:33:35.000Z</time>
      </trkpt>
      <trkpt lat="45.78821" lon="5.00214">
        <ele>234.90483</ele>
        <time>2023-08-27T12:33:36.000Z</time>
      </trkpt>
      <trkpt lat="45.78824" lon="5.0021">
        <ele>234.69589</ele>
        <time>2023-08-27T12:33:37.000Z</time>
      </trkpt>
      <trkpt lat="45.78826" lon="5.00205">
        <ele>234.50284</ele>
        <time>2023-08-27T12:33:38.000Z</time>
      </trkpt>
      <trkpt lat="45.78829" lon="5.002">
        <ele>234.32222</ele>
        <time>2023-08-27T12:33:39.000Z</time>
      </trkpt>
      <trkpt lat="45.78832" lon="5.00196">
        <ele>234.13095</ele>
        <time>2023-08-27T12:33:40.000Z</time>
      </trkpt>
      <trkpt lat="45.78835" lon="5.00192">
        <ele>233.9335</ele>
        <time>2023-08-27T12:33:41.000Z</time>
      </trkpt>
      <trkpt lat="45.78838" lon="5.00187">
        <ele>233.88614</ele>
        <time>2023-08-27T12:33:42.000Z</time>
      </trkpt>
      <trkpt lat="45.78841" lon="5.00183">
        <ele>233.82268</ele>
        <time>2023-08-27T12:33:43.000Z</time>
      </trkpt>
      <trkpt lat="45.78844" lon="5.00178">
        <ele>233.75407</ele>
        <time>2023-08-27T12:33:44.000Z</time>
      </trkpt>
      <trkpt lat="45.78848" lon="5.00174">
        <ele>233.6958</ele>
        <time>2023-08-27T12:33:45.000Z</time>
      </trkpt>
      <trkpt lat="45.78851" lon="5.00169">
        <ele>233.64975</ele>
        <time>2023-08-27T12:33:46.000Z</time>
      </trkpt>
      <trkpt lat="45.78854" lon="5.00164">
        <ele>233.61832</ele>
        <time>2023-08-27T12:33:47.000Z</time>
      </trkpt>
      <trkpt lat="45.78857" lon="5.0016">
        <ele>233.59061</ele>
        <time>2023-08-27T12:33:48.000Z</time>
      </trkpt>
      <trkpt lat="45.78861" lon="5.00156">
        <ele>233.57207</ele>
        <time>2023-08-27T12:33:49.000Z</time>
      </trkpt>
      <trkpt lat="45.78864" lon="5.00151">
        <ele>233.57434</ele>
        <time>2023-08-27T12:33:50.000Z</time>
      </trkpt>
      <trkpt lat="45.78867" lon="5.00148">
        <ele>233.55917</ele>
        <time>2023-08-27T12:33:51.000Z</time>
      </trkpt>
      <trkpt lat="45.78871" lon="5.00144">
        <ele>233.56267</ele>
        <time>2023-08-27T12:33:52.000Z</time>
      </trkpt>
      <trkpt lat="45.78874" lon="5.0014">
        <ele>233.54243</ele>
        <time>2023-08-27T12:33:53.000Z</time>
      </trkpt>
      <trkpt lat="45.78878" lon="5.00137">
        <ele>233.53059</ele>
        <time>2023-08-27T12:33:54.000Z</time>
      </trkpt>
      <trkpt lat="45.78881" lon="5.00133">
        <ele>233.52539</ele>
        <time>2023-08-27T12:33:55.000Z</time>
      </trkpt>
      <trkpt lat="45.78884" lon="5.00129">
        <ele>233.52914</ele>
        <time>2023-08-27T12:33:56.000Z</time>
      </trkpt>
      <trkpt lat="45.78887" lon="5.00125">
        <ele>233.52499</ele>
        <time>2023-08-27T12:33:57.000Z</time>
      </trkpt>
      <trkpt lat="45.78889" lon="5.00122">
        <ele>233.51395</ele>
        <time>2023-08-27T12:33:58.000Z</time>
      </trkpt>
      <trkpt lat="45.78892" lon="5.00119">
        <ele>233.49976</ele>
        <time>2023-08-27T12:33:59.000Z</time>
      </trkpt>
      <trkpt lat="45.78895" lon="5.00116">
        <ele>233.49898</ele>
        <time>2023-08-27T12:34:00.000Z</time>
      </trkpt>
      <trkpt lat="45.78898" lon="5.00112">
        <ele>233.51285</ele>
        <time>2023-08-27T12:34:01.000Z</time>
      </trkpt>
      <trkpt lat="45.78901" lon="5.00109">
        <ele>233.54526</ele>
        <time>2023-08-27T12:34:02.000Z</time>
      </trkpt>
      <trkpt lat="45.78905" lon="5.00106">
        <ele>233.58728</ele>
        <time>2023-08-27T12:34:03.000Z</time>
      </trkpt>
      <trkpt lat="45.78908" lon="5.00102">
        <ele>233.63953</ele>
        <time>2023-08-27T12:34:04.000Z</time>
      </trkpt>
      <trkpt lat="45.78911" lon="5.00099">
        <ele>233.68477</ele>
        <time>2023-08-27T12:34:05.000Z</time>
      </trkpt>
      <trkpt lat="45.78914" lon="5.00096">
        <ele>233.7157</ele>
        <time>2023-08-27T12:34:06.000Z</time>
      </trkpt>
      <trkpt lat="45.78917" lon="5.00092">
        <ele>233.73433</ele>
        <time>2023-08-27T12:34:07.000Z</time>
      </trkpt>
      <trkpt lat="45.78921" lon="5.00088">
        <ele>233.7563</ele>
        <time>2023-08-27T12:34:08.000Z</time>
      </trkpt>
      <trkpt lat="45.78924" lon="5.00085">
        <ele>233.76706</ele>
        <time>2023-08-27T12:34:09.000Z</time>
      </trkpt>
      <trkpt lat="45.78927" lon="5.00082">
        <ele>233.78413</ele>
        <time>2023-08-27T12:34:10.000Z</time>
      </trkpt>
      <trkpt lat="45.78931" lon="5.00079">
        <ele>233.8364</ele>
        <time>2023-08-27T12:34:11.000Z</time>
      </trkpt>
      <trkpt lat="45.78934" lon="5.00075">
        <ele>233.88464</ele>
        <time>2023-08-27T12:34:12.000Z</time>
      </trkpt>
      <trkpt lat="45.78937" lon="5.00072">
        <ele>233.96753</ele>
        <time>2023-08-27T12:34:13.000Z</time>
      </trkpt>
      <trkpt lat="45.7894" lon="5.00068">
        <ele>234.01225</ele>
        <time>2023-08-27T12:34:14.000Z</time>
      </trkpt>
      <trkpt lat="45.78944" lon="5.00065">
        <ele>234.06958</ele>
        <time>2023-08-27T12:34:15.000Z</time>
      </trkpt>
      <trkpt lat="45.78947" lon="5.00061">
        <ele>234.11075</ele>
        <time>2023-08-27T12:34:16.000Z</time>
      </trkpt>
      <trkpt lat="45.7895" lon="5.00058">
        <ele>234.16269</ele>
        <time>2023-08-27T12:34:17.000Z</time>
      </trkpt>
      <trkpt lat="45.78953" lon="5.00055">
        <ele>234.21518</ele>
        <time>2023-08-27T12:34:18.000Z</time>
      </trkpt>
      <trkpt lat="45.78957" lon="5.00052">
        <ele>234.26099</ele>
        <time>2023-08-27T12:34:19.000Z</time>
      </trkpt>
      <trkpt lat="45.7896" lon="5.00049">
        <ele>234.29948</ele>
        <time>2023-08-27T12:34:20.000Z</time>
      </trkpt>
      <trkpt lat="45.78963" lon="5.00045">
        <ele>234.33174</ele>
        <time>2023-08-27T12:34:21.000Z</time>
      </trkpt>
      <trkpt lat="45.78966" lon="5.00042">
        <ele>234.35396</ele>
        <time>2023-08-27T12:34:22.000Z</time>
      </trkpt>
      <trkpt lat="45.78969" lon="5.00039">
        <ele>234.37418</ele>
        <time>2023-08-27T12:34:23.000Z</time>
      </trkpt>
      <trkpt lat="45.78972" lon="5.00035">
        <ele>234.38289</ele>
        <time>2023-08-27T12:34:24.000Z</time>
      </trkpt>
      <trkpt lat="45.78975" lon="5.00032">
        <ele>234.40288</ele>
        <time>2023-08-27T12:34:25.000Z</time>
      </trkpt>
      <trkpt lat="45.78978" lon="5.00029">
        <ele>234.41513</ele>
        <time>2023-08-27T12:34:26.000Z</time>
      </trkpt>
      <trkpt lat="45.78981" lon="5.00025">
        <ele>234.43405</ele>
        <time>2023-08-27T12:34:27.000Z</time>
      </trkpt>
      <trkpt lat="45.78984" lon="5.00022">
        <ele>234.43912</ele>
        <time>2023-08-27T12:34:28.000Z</time>
      </trkpt>
      <trkpt lat="45.78987" lon="5.00019">
        <ele>234.45364</ele>
        <time>2023-08-27T12:34:29.000Z</time>
      </trkpt>
      <trkpt lat="45.7899" lon="5.00016">
        <ele>234.44173</ele>
        <time>2023-08-27T12:34:30.000Z</time>
      </trkpt>
      <trkpt lat="45.78994" lon="5.00013">
        <ele>234.41824</ele>
        <time>2023-08-27T12:34:31.000Z</time>
      </trkpt>
      <trkpt lat="45.78997" lon="5.0001">
        <ele>234.39328</ele>
        <time>2023-08-27T12:34:32.000Z</time>
      </trkpt>
      <trkpt lat="45.79" lon="5.00006">
        <ele>234.37263</ele>
        <time>2023-08-27T12:34:33.000Z</time>
      </trkpt>
      <trkpt lat="45.79003" lon="5.00003">
        <ele>234.37776</ele>
        <time>2023-08-27T12:34:34.000Z</time>
      </trkpt>
      <trkpt lat="45.79007" lon="5">
        <ele>234.38208</ele>
        <time>2023-08-27T12:34:35.000Z</time>
      </trkpt>
      <trkpt lat="45.7901" lon="4.99997">
        <ele>234.3988</ele>
        <time>2023-08-27T12:34:36.000Z</time>
      </trkpt>
      <trkpt lat="45.79014" lon="4.99994">
        <ele>234.40833</ele>
        <time>2023-08-27T12:34:37.000Z</time>
      </trkpt>
      <trkpt lat="45.79017" lon="4.9999">
        <ele>234.3909</ele>
        <time>2023-08-27T12:34:38.000Z</time>
      </trkpt>
      <trkpt lat="45.79021" lon="4.99987">
        <ele>234.38248</ele>
        <time>2023-08-27T12:34:39.000Z</time>
      </trkpt>
      <trkpt lat="45.79024" lon="4.99984">
        <ele>234.37061</ele>
        <time>2023-08-27T12:34:40.000Z</time>
      </trkpt>
      <trkpt lat="45.79027" lon="4.99981">
        <ele>234.35742</ele>
        <time>2023-08-27T12:34:41.000Z</time>
      </trkpt>
      <trkpt lat="45.7903" lon="4.99977">
        <ele>234.33894</ele>
        <time>2023-08-27T12:34:42.000Z</time>
      </trkpt>
      <trkpt lat="45.79033" lon="4.99975">
        <ele>234.31352</ele>
        <time>2023-08-27T12:34:43.000Z</time>
      </trkpt>
      <trkpt lat="45.79036" lon="4.99972">
        <ele>234.28824</ele>
        <time>2023-08-27T12:34:44.000Z</time>
      </trkpt>
      <trkpt lat="45.79039" lon="4.99969">
        <ele>234.26424</ele>
        <time>2023-08-27T12:34:45.000Z</time>
      </trkpt>
      <trkpt lat="45.79042" lon="4.99966">
        <ele>234.24397</ele>
        <time>2023-08-27T12:34:46.000Z</time>
      </trkpt>
      <trkpt lat="45.79045" lon="4.99963">
        <ele>234.20602</ele>
        <time>2023-08-27T12:34:47.000Z</time>
      </trkpt>
      <trkpt lat="45.79048" lon="4.99959">
        <ele>234.17924</ele>
        <time>2023-08-27T12:34:48.000Z</time>
      </trkpt>
      <trkpt lat="45.79052" lon="4.99956">
        <ele>234.1387</ele>
        <time>2023-08-27T12:34:49.000Z</time>
      </trkpt>
      <trkpt lat="45.79055" lon="4.99953">
        <ele>234.11154</ele>
        <time>2023-08-27T12:34:50.000Z</time>
      </trkpt>
      <trkpt lat="45.79058" lon="4.99951">
        <ele>234.07735</ele>
        <time>2023-08-27T12:34:51.000Z</time>
      </trkpt>
      <trkpt lat="45.79061" lon="4.99948">
        <ele>234.03369</ele>
        <time>2023-08-27T12:34:52.000Z</time>
      </trkpt>
      <trkpt lat="45.79064" lon="4.99945">
        <ele>233.99089</ele>
        <time>2023-08-27T12:34:53.000Z</time>
      </trkpt>
      <trkpt lat="45.79067" lon="4.99942">
        <ele>233.9686</ele>
        <time>2023-08-27T12:34:54.000Z</time>
      </trkpt>
      <trkpt lat="45.7907" lon="4.99938">
        <ele>233.92432</ele>
        <time>2023-08-27T12:34:55.000Z</time>
      </trkpt>
      <trkpt lat="45.79073" lon="4.99935">
        <ele>233.85913</ele>
        <time>2023-08-27T12:34:56.000Z</time>
      </trkpt>
      <trkpt lat="45.79077" lon="4.99932">
        <ele>233.79448</ele>
        <time>2023-08-27T12:34:57.000Z</time>
      </trkpt>
      <trkpt lat="45.7908" lon="4.99929">
        <ele>233.76108</ele>
        <time>2023-08-27T12:34:58.000Z</time>
      </trkpt>
      <trkpt lat="45.79083" lon="4.99926">
        <ele>233.72969</ele>
        <time>2023-08-27T12:34:59.000Z</time>
      </trkpt>
      <trkpt lat="45.79087" lon="4.99923">
        <ele>233.70605</ele>
        <time>2023-08-27T12:35:00.000Z</time>
      </trkpt>
      <trkpt lat="45.7909" lon="4.9992">
        <ele>233.66873</ele>
        <time>2023-08-27T12:35:01.000Z</time>
      </trkpt>
      <trkpt lat="45.79093" lon="4.99917">
        <ele>233.62668</ele>
        <time>2023-08-27T12:35:02.000Z</time>
      </trkpt>
      <trkpt lat="45.79096" lon="4.99913">
        <ele>233.59932</ele>
        <time>2023-08-27T12:35:03.000Z</time>
      </trkpt>
      <trkpt lat="45.79099" lon="4.9991">
        <ele>233.58301</ele>
        <time>2023-08-27T12:35:04.000Z</time>
      </trkpt>
      <trkpt lat="45.79102" lon="4.99906">
        <ele>233.55949</ele>
        <time>2023-08-27T12:35:05.000Z</time>
      </trkpt>
      <trkpt lat="45.79106" lon="4.99903">
        <ele>233.54807</ele>
        <time>2023-08-27T12:35:06.000Z</time>
      </trkpt>
      <trkpt lat="45.79109" lon="4.99899">
        <ele>233.55649</ele>
        <time>2023-08-27T12:35:07.000Z</time>
      </trkpt>
      <trkpt lat="45.79112" lon="4.99896">
        <ele>233.54977</ele>
        <time>2023-08-27T12:35:08.000Z</time>
      </trkpt>
      <trkpt lat="45.79115" lon="4.99893">
        <ele>233.56499</ele>
        <time>2023-08-27T12:35:09.000Z</time>
      </trkpt>
      <trkpt lat="45.79118" lon="4.99891">
        <ele>233.56369</ele>
        <time>2023-08-27T12:35:10.000Z</time>
      </trkpt>
      <trkpt lat="45.79121" lon="4.99888">
        <ele>233.54048</ele>
        <time>2023-08-27T12:35:11.000Z</time>
      </trkpt>
      <trkpt lat="45.79124" lon="4.99885">
        <ele>233.52499</ele>
        <time>2023-08-27T12:35:12.000Z</time>
      </trkpt>
      <trkpt lat="45.79127" lon="4.99882">
        <ele>233.50943</ele>
        <time>2023-08-27T12:35:13.000Z</time>
      </trkpt>
      <trkpt lat="45.79131" lon="4.99879">
        <ele>233.49158</ele>
        <time>2023-08-27T12:35:14.000Z</time>
      </trkpt>
      <trkpt lat="45.79134" lon="4.99876">
        <ele>233.4814</ele>
        <time>2023-08-27T12:35:15.000Z</time>
      </trkpt>
      <trkpt lat="45.79137" lon="4.99873">
        <ele>233.47849</ele>
        <time>2023-08-27T12:35:16.000Z</time>
      </trkpt>
      <trkpt lat="45.79141" lon="4.99869">
        <ele>233.48315</ele>
        <time>2023-08-27T12:35:17.000Z</time>
      </trkpt>
      <trkpt lat="45.79144" lon="4.99866">
        <ele>233.47844</ele>
        <time>2023-08-27T12:35:18.000Z</time>
      </trkpt>
      <trkpt lat="45.79147" lon="4.99863">
        <ele>233.46968</ele>
        <time>2023-08-27T12:35:19.000Z</time>
      </trkpt>
      <trkpt lat="45.7915" lon="4.9986">
        <ele>233.45117</ele>
        <time>2023-08-27T12:35:20.000Z</time>
      </trkpt>
      <trkpt lat="45.79154" lon="4.99856">
        <ele>233.43925</ele>
        <time>2023-08-27T12:35:21.000Z</time>
      </trkpt>
      <trkpt lat="45.79157" lon="4.99853">
        <ele>233.45804</ele>
        <time>2023-08-27T12:35:22.000Z</time>
      </trkpt>
      <trkpt lat="45.79161" lon="4.99849">
        <ele>233.45755</ele>
        <time>2023-08-27T12:35:23.000Z</time>
      </trkpt>
      <trkpt lat="45.79164" lon="4.99846">
        <ele>233.44815</ele>
        <time>2023-08-27T12:35:24.000Z</time>
      </trkpt>
      <trkpt lat="45.79167" lon="4.99842">
        <ele>233.45793</ele>
        <time>2023-08-27T12:35:25.000Z</time>
      </trkpt>
      <trkpt lat="45.79171" lon="4.99839">
        <ele>233.45639</ele>
        <time>2023-08-27T12:35:26.000Z</time>
      </trkpt>
      <trkpt lat="45.79174" lon="4.99835">
        <ele>233.44949</ele>
        <time>2023-08-27T12:35:27.000Z</time>
      </trkpt>
      <trkpt lat="45.79178" lon="4.99832">
        <ele>233.45085</ele>
        <time>2023-08-27T12:35:28.000Z</time>
      </trkpt>
      <trkpt lat="45.79181" lon="4.99828">
        <ele>233.45584</ele>
        <time>2023-08-27T12:35:29.000Z</time>
      </trkpt>
      <trkpt lat="45.79185" lon="4.99825">
        <ele>233.4593</ele>
        <time>2023-08-27T12:35:30.000Z</time>
      </trkpt>
      <trkpt lat="45.79188" lon="4.99822">
        <ele>233.48044</ele>
        <time>2023-08-27T12:35:31.000Z</time>
      </trkpt>
      <trkpt lat="45.79192" lon="4.99818">
        <ele>233.49112</ele>
        <time>2023-08-27T12:35:32.000Z</time>
      </trkpt>
      <trkpt lat="45.79195" lon="4.99815">
        <ele>233.50679</ele>
        <time>2023-08-27T12:35:33.000Z</time>
      </trkpt>
      <trkpt lat="45.79199" lon="4.99812">
        <ele>233.50595</ele>
        <time>2023-08-27T12:35:34.000Z</time>
      </trkpt>
      <trkpt lat="45.79202" lon="4.99808">
        <ele>233.49638</ele>
        <time>2023-08-27T12:35:35.000Z</time>
      </trkpt>
      <trkpt lat="45.79205" lon="4.99805">
        <ele>233.49309</ele>
        <time>2023-08-27T12:35:36.000Z</time>
      </trkpt>
      <trkpt lat="45.79209" lon="4.99802">
        <ele>233.49931</ele>
        <time>2023-08-27T12:35:37.000Z</time>
      </trkpt>
      <trkpt lat="45.79213" lon="4.99798">
        <ele>233.51633</ele>
        <time>2023-08-27T12:35:38.000Z</time>
      </trkpt>
      <trkpt lat="45.79216" lon="4.99795">
        <ele>233.53317</ele>
        <time>2023-08-27T12:35:39.000Z</time>
      </trkpt>
      <trkpt lat="45.7922" lon="4.99792">
        <ele>233.56331</ele>
        <time>2023-08-27T12:35:40.000Z</time>
      </trkpt>
      <trkpt lat="45.79223" lon="4.99788">
        <ele>233.61148</ele>
        <time>2023-08-27T12:35:41.000Z</time>
      </trkpt>
      <trkpt lat="45.79227" lon="4.99784">
        <ele>233.63086</ele>
        <time>2023-08-27T12:35:42.000Z</time>
      </trkpt>
      <trkpt lat="45.7923" lon="4.9978">
        <ele>233.6646</ele>
        <time>2023-08-27T12:35:43.000Z</time>
      </trkpt>
      <trkpt lat="45.79233" lon="4.99777">
        <ele>233.70456</ele>
        <time>2023-08-27T12:35:44.000Z</time>
      </trkpt>
      <trkpt lat="45.79236" lon="4.99773">
        <ele>233.7197</ele>
        <time>2023-08-27T12:35:45.000Z</time>
      </trkpt>
      <trkpt lat="45.7924" lon="4.9977">
        <ele>233.73897</ele>
        <time>2023-08-27T12:35:46.000Z</time>
      </trkpt>
      <trkpt lat="45.79243" lon="4.99767">
        <ele>233.74663</ele>
        <time>2023-08-27T12:35:47.000Z</time>
      </trkpt>
      <trkpt lat="45.79247" lon="4.99764">
        <ele>233.75229</ele>
        <time>2023-08-27T12:35:48.000Z</time>
      </trkpt>
      <trkpt lat="45.7925" lon="4.99761">
        <ele>233.73691</ele>
        <time>2023-08-27T12:35:49.000Z</time>
      </trkpt>
      <trkpt lat="45.79253" lon="4.99757">
        <ele>233.73445</ele>
        <time>2023-08-27T12:35:50.000Z</time>
      </trkpt>
      <trkpt lat="45.79256" lon="4.99754">
        <ele>233.74149</ele>
        <time>2023-08-27T12:35:51.000Z</time>
      </trkpt>
      <trkpt lat="45.79259" lon="4.99751">
        <ele>233.74521</ele>
        <time>2023-08-27T12:35:52.000Z</time>
      </trkpt>
      <trkpt lat="45.79263" lon="4.99747">
        <ele>233.74458</ele>
        <time>2023-08-27T12:35:53.000Z</time>
      </trkpt>
      <trkpt lat="45.79266" lon="4.99744">
        <ele>233.76814</ele>
        <time>2023-08-27T12:35:54.000Z</time>
      </trkpt>
      <trkpt lat="45.7927" lon="4.99741">
        <ele>233.81184</ele>
        <time>2023-08-27T12:35:55.000Z</time>
      </trkpt>
      <trkpt lat="45.79273" lon="4.99737">
        <ele>233.86543</ele>
        <time>2023-08-27T12:35:56.000Z</time>
      </trkpt>
      <trkpt lat="45.79276" lon="4.99734">
        <ele>233.89722</ele>
        <time>2023-08-27T12:35:57.000Z</time>
      </trkpt>
      <trkpt lat="45.79279" lon="4.99731">
        <ele>233.91318</ele>
        <time>2023-08-27T12:35:58.000Z</time>
      </trkpt>
      <trkpt lat="45.79283" lon="4.99728">
        <ele>233.9334</ele>
        <time>2023-08-27T12:35:59.000Z</time>
      </trkpt>
      <trkpt lat="45.79286" lon="4.99724">
        <ele>233.93958</ele>
        <time>2023-08-27T12:36:00.000Z</time>
      </trkpt>
      <trkpt lat="45.79289" lon="4.99721">
        <ele>233.93405</ele>
        <time>2023-08-27T12:36:01.000Z</time>
      </trkpt>
      <trkpt lat="45.79293" lon="4.99717">
        <ele>233.92557</ele>
        <time>2023-08-27T12:36:02.000Z</time>
      </trkpt>
      <trkpt lat="45.79296" lon="4.99714">
        <ele>233.91907</ele>
        <time>2023-08-27T12:36:03.000Z</time>
      </trkpt>
      <trkpt lat="45.793" lon="4.99711">
        <ele>233.91293</ele>
        <time>2023-08-27T12:36:04.000Z</time>
      </trkpt>
      <trkpt lat="45.79303" lon="4.99707">
        <ele>233.91507</ele>
        <time>2023-08-27T12:36:05.000Z</time>
      </trkpt>
      <trkpt lat="45.79306" lon="4.99704">
        <ele>233.91544</ele>
        <time>2023-08-27T12:36:06.000Z</time>
      </trkpt>
      <trkpt lat="45.79309" lon="4.997">
        <ele>233.91704</ele>
        <time>2023-08-27T12:36:07.000Z</time>
      </trkpt>
      <trkpt lat="45.79312" lon="4.99697">
        <ele>233.90955</ele>
        <time>2023-08-27T12:36:08.000Z</time>
      </trkpt>
      <trkpt lat="45.79316" lon="4.99694">
        <ele>233.90408</ele>
        <time>2023-08-27T12:36:09.000Z</time>
      </trkpt>
      <trkpt lat="45.79319" lon="4.99691">
        <ele>233.93167</ele>
        <time>2023-08-27T12:36:10.000Z</time>
      </trkpt>
      <trkpt lat="45.79323" lon="4.99687">
        <ele>233.96255</ele>
        <time>2023-08-27T12:36:11.000Z</time>
      </trkpt>
      <trkpt lat="45.79326" lon="4.99684">
        <ele>233.96179</ele>
        <time>2023-08-27T12:36:12.000Z</time>
      </trkpt>
      <trkpt lat="45.79329" lon="4.9968">
        <ele>233.98331</ele>
        <time>2023-08-27T12:36:13.000Z</time>
      </trkpt>
      <trkpt lat="45.79333" lon="4.99677">
        <ele>233.98752</ele>
        <time>2023-08-27T12:36:14.000Z</time>
      </trkpt>
      <trkpt lat="45.79336" lon="4.99674">
        <ele>233.96823</ele>
        <time>2023-08-27T12:36:15.000Z</time>
      </trkpt>
      <trkpt lat="45.7934" lon="4.9967">
        <ele>233.91931</ele>
        <time>2023-08-27T12:36:16.000Z</time>
      </trkpt>
      <trkpt lat="45.79343" lon="4.99667">
        <ele>233.87704</ele>
        <time>2023-08-27T12:36:17.000Z</time>
      </trkpt>
      <trkpt lat="45.79346" lon="4.99663">
        <ele>233.85202</ele>
        <time>2023-08-27T12:36:18.000Z</time>
      </trkpt>
      <trkpt lat="45.79349" lon="4.9966">
        <ele>233.82861</ele>
        <time>2023-08-27T12:36:19.000Z</time>
      </trkpt>
      <trkpt lat="45.79353" lon="4.99656">
        <ele>233.8127</ele>
        <time>2023-08-27T12:36:20.000Z</time>
      </trkpt>
      <trkpt lat="45.79357" lon="4.99653">
        <ele>233.80276</ele>
        <time>2023-08-27T12:36:21.000Z</time>
      </trkpt>
      <trkpt lat="45.7936" lon="4.9965">
        <ele>233.76773</ele>
        <time>2023-08-27T12:36:22.000Z</time>
      </trkpt>
      <trkpt lat="45.79364" lon="4.99647">
        <ele>233.7294</ele>
        <time>2023-08-27T12:36:23.000Z</time>
      </trkpt>
      <trkpt lat="45.79368" lon="4.99644">
        <ele>233.68936</ele>
        <time>2023-08-27T12:36:24.000Z</time>
      </trkpt>
      <trkpt lat="45.79371" lon="4.9964">
        <ele>233.67545</ele>
        <time>2023-08-27T12:36:25.000Z</time>
      </trkpt>
      <trkpt lat="45.79375" lon="4.99637">
        <ele>233.65952</ele>
        <time>2023-08-27T12:36:26.000Z</time>
      </trkpt>
      <trkpt lat="45.79378" lon="4.99633">
        <ele>233.63773</ele>
        <time>2023-08-27T12:36:27.000Z</time>
      </trkpt>
      <trkpt lat="45.79382" lon="4.9963">
        <ele>233.62895</ele>
        <time>2023-08-27T12:36:28.000Z</time>
      </trkpt>
      <trkpt lat="45.79386" lon="4.99626">
        <ele>233.62979</ele>
        <time>2023-08-27T12:36:29.000Z</time>
      </trkpt>
      <trkpt lat="45.79389" lon="4.99623">
        <ele>233.60149</ele>
        <time>2023-08-27T12:36:30.000Z</time>
      </trkpt>
      <trkpt lat="45.79393" lon="4.99619">
        <ele>233.57793</ele>
        <time>2023-08-27T12:36:31.000Z</time>
      </trkpt>
      <trkpt lat="45.79396" lon="4.99615">
        <ele>233.52995</ele>
        <time>2023-08-27T12:36:32.000Z</time>
      </trkpt>
      <trkpt lat="45.79399" lon="4.99612">
        <ele>233.4687</ele>
        <time>2023-08-27T12:36:33.000Z</time>
      </trkpt>
      <trkpt lat="45.79403" lon="4.99609">
        <ele>233.39815</ele>
        <time>2023-08-27T12:36:34.000Z</time>
      </trkpt>
      <trkpt lat="45.79407" lon="4.99605">
        <ele>233.33939</ele>
        <time>2023-08-27T12:36:35.000Z</time>
      </trkpt>
      <trkpt lat="45.7941" lon="4.99601">
        <ele>233.29424</ele>
        <time>2023-08-27T12:36:36.000Z</time>
      </trkpt>
      <trkpt lat="45.79414" lon="4.99597">
        <ele>233.25778</ele>
        <time>2023-08-27T12:36:37.000Z</time>
      </trkpt>
      <trkpt lat="45.79417" lon="4.99593">
        <ele>233.22568</ele>
        <time>2023-08-27T12:36:38.000Z</time>
      </trkpt>
      <trkpt lat="45.79421" lon="4.99589">
        <ele>233.18315</ele>
        <time>2023-08-27T12:36:39.000Z</time>
      </trkpt>
      <trkpt lat="45.79424" lon="4.99585">
        <ele>233.15161</ele>
        <time>2023-08-27T12:36:40.000Z</time>
      </trkpt>
      <trkpt lat="45.79427" lon="4.99581">
        <ele>233.1152</ele>
        <time>2023-08-27T12:36:41.000Z</time>
      </trkpt>
      <trkpt lat="45.7943" lon="4.99577">
        <ele>233.1091</ele>
        <time>2023-08-27T12:36:42.000Z</time>
      </trkpt>
      <trkpt lat="45.79433" lon="4.99573">
        <ele>233.10567</ele>
        <time>2023-08-27T12:36:43.000Z</time>
      </trkpt>
      <trkpt lat="45.79436" lon="4.99569">
        <ele>233.09335</ele>
        <time>2023-08-27T12:36:44.000Z</time>
      </trkpt>
      <trkpt lat="45.79439" lon="4.99565">
        <ele>233.06685</ele>
        <time>2023-08-27T12:36:45.000Z</time>
      </trkpt>
      <trkpt lat="45.79441" lon="4.99561">
        <ele>233.04031</ele>
        <time>2023-08-27T12:36:46.000Z</time>
      </trkpt>
      <trkpt lat="45.79444" lon="4.99557">
        <ele>233.03499</ele>
        <time>2023-08-27T12:36:47.000Z</time>
      </trkpt>
      <trkpt lat="45.79446" lon="4.99552">
        <ele>233.02332</ele>
        <time>2023-08-27T12:36:48.000Z</time>
      </trkpt>
      <trkpt lat="45.79449" lon="4.99548">
        <ele>233.02661</ele>
        <time>2023-08-27T12:36:49.000Z</time>
      </trkpt>
      <trkpt lat="45.79452" lon="4.99544">
        <ele>233.04623</ele>
        <time>2023-08-27T12:36:50.000Z</time>
      </trkpt>
      <trkpt lat="45.79454" lon="4.9954">
        <ele>233.0428</ele>
        <time>2023-08-27T12:36:51.000Z</time>
      </trkpt>
      <trkpt lat="45.79456" lon="4.99536">
        <ele>233.10246</ele>
        <time>2023-08-27T12:36:52.000Z</time>
      </trkpt>
      <trkpt lat="45.79459" lon="4.99531">
        <ele>233.16336</ele>
        <time>2023-08-27T12:36:53.000Z</time>
      </trkpt>
      <trkpt lat="45.79461" lon="4.99527">
        <ele>233.23494</ele>
        <time>2023-08-27T12:36:54.000Z</time>
      </trkpt>
      <trkpt lat="45.79464" lon="4.99523">
        <ele>233.28857</ele>
        <time>2023-08-27T12:36:55.000Z</time>
      </trkpt>
      <trkpt lat="45.79467" lon="4.99519">
        <ele>233.34</ele>
        <time>2023-08-27T12:36:56.000Z</time>
      </trkpt>
      <trkpt lat="45.79469" lon="4.99515">
        <ele>233.37923</ele>
        <time>2023-08-27T12:36:57.000Z</time>
      </trkpt>
      <trkpt lat="45.79472" lon="4.99512">
        <ele>233.44038</ele>
        <time>2023-08-27T12:36:58.000Z</time>
      </trkpt>
      <trkpt lat="45.79475" lon="4.99509">
        <ele>233.51762</ele>
        <time>2023-08-27T12:36:59.000Z</time>
      </trkpt>
      <trkpt lat="45.79477" lon="4.99506">
        <ele>233.59465</ele>
        <time>2023-08-27T12:37:00.000Z</time>
      </trkpt>
      <trkpt lat="45.7948" lon="4.99502">
        <ele>233.6331</ele>
        <time>2023-08-27T12:37:01.000Z</time>
      </trkpt>
      <trkpt lat="45.79483" lon="4.99498">
        <ele>233.69409</ele>
        <time>2023-08-27T12:37:02.000Z</time>
      </trkpt>
      <trkpt lat="45.79485" lon="4.99493">
        <ele>233.73978</ele>
        <time>2023-08-27T12:37:03.000Z</time>
      </trkpt>
      <trkpt lat="45.79487" lon="4.99488">
        <ele>233.78113</ele>
        <time>2023-08-27T12:37:04.000Z</time>
      </trkpt>
      <trkpt lat="45.79489" lon="4.99484">
        <ele>233.81287</ele>
        <time>2023-08-27T12:37:05.000Z</time>
      </trkpt>
      <trkpt lat="45.79491" lon="4.99479">
        <ele>233.85266</ele>
        <time>2023-08-27T12:37:06.000Z</time>
      </trkpt>
      <trkpt lat="45.79493" lon="4.99475">
        <ele>233.87915</ele>
        <time>2023-08-27T12:37:07.000Z</time>
      </trkpt>
      <trkpt lat="45.79495" lon="4.9947">
        <ele>233.9062</ele>
        <time>2023-08-27T12:37:08.000Z</time>
      </trkpt>
      <trkpt lat="45.79498" lon="4.99465">
        <ele>233.9248</ele>
        <time>2023-08-27T12:37:09.000Z</time>
      </trkpt>
      <trkpt lat="45.795" lon="4.99461">
        <ele>233.95113</ele>
        <time>2023-08-27T12:37:10.000Z</time>
      </trkpt>
      <trkpt lat="45.79503" lon="4.99456">
        <ele>233.98132</ele>
        <time>2023-08-27T12:37:11.000Z</time>
      </trkpt>
      <trkpt lat="45.79505" lon="4.99451">
        <ele>233.99358</ele>
        <time>2023-08-27T12:37:12.000Z</time>
      </trkpt>
      <trkpt lat="45.79507" lon="4.99447">
        <ele>233.96851</ele>
        <time>2023-08-27T12:37:13.000Z</time>
      </trkpt>
      <trkpt lat="45.79509" lon="4.99442">
        <ele>233.94254</ele>
        <time>2023-08-27T12:37:14.000Z</time>
      </trkpt>
      <trkpt lat="45.79511" lon="4.99438">
        <ele>233.92569</ele>
        <time>2023-08-27T12:37:15.000Z</time>
      </trkpt>
      <trkpt lat="45.79514" lon="4.99433">
        <ele>233.91104</ele>
        <time>2023-08-27T12:37:16.000Z</time>
      </trkpt>
      <trkpt lat="45.79516" lon="4.99428">
        <ele>233.92545</ele>
        <time>2023-08-27T12:37:17.000Z</time>
      </trkpt>
      <trkpt lat="45.79517" lon="4.99423">
        <ele>233.90034</ele>
        <time>2023-08-27T12:37:18.000Z</time>
      </trkpt>
      <trkpt lat="45.79519" lon="4.99418">
        <ele>233.85062</ele>
        <time>2023-08-27T12:37:19.000Z</time>
      </trkpt>
      <trkpt lat="45.79521" lon="4.99412">
        <ele>233.81087</ele>
        <time>2023-08-27T12:37:20.000Z</time>
      </trkpt>
      <trkpt lat="45.79523" lon="4.99407">
        <ele>233.82178</ele>
        <time>2023-08-27T12:37:21.000Z</time>
      </trkpt>
      <trkpt lat="45.79524" lon="4.99401">
        <ele>233.80948</ele>
        <time>2023-08-27T12:37:22.000Z</time>
      </trkpt>
      <trkpt lat="45.79526" lon="4.99396">
        <ele>233.78984</ele>
        <time>2023-08-27T12:37:23.000Z</time>
      </trkpt>
      <trkpt lat="45.79528" lon="4.9939">
        <ele>233.7886</ele>
        <time>2023-08-27T12:37:24.000Z</time>
      </trkpt>
      <trkpt lat="45.79529" lon="4.99385">
        <ele>233.72832</ele>
        <time>2023-08-27T12:37:25.000Z</time>
      </trkpt>
      <trkpt lat="45.79531" lon="4.9938">
        <ele>233.65952</ele>
        <time>2023-08-27T12:37:26.000Z</time>
      </trkpt>
      <trkpt lat="45.79533" lon="4.99376">
        <ele>233.59579</ele>
        <time>2023-08-27T12:37:27.000Z</time>
      </trkpt>
      <trkpt lat="45.79535" lon="4.99371">
        <ele>233.5311</ele>
        <time>2023-08-27T12:37:28.000Z</time>
      </trkpt>
      <trkpt lat="45.79537" lon="4.99366">
        <ele>233.45346</ele>
        <time>2023-08-27T12:37:29.000Z</time>
      </trkpt>
      <trkpt lat="45.79538" lon="4.99362">
        <ele>233.3383</ele>
        <time>2023-08-27T12:37:30.000Z</time>
      </trkpt>
      <trkpt lat="45.7954" lon="4.99358">
        <ele>233.23682</ele>
        <time>2023-08-27T12:37:31.000Z</time>
      </trkpt>
      <trkpt lat="45.79541" lon="4.99353">
        <ele>233.15787</ele>
        <time>2023-08-27T12:37:32.000Z</time>
      </trkpt>
      <trkpt lat="45.79542" lon="4.99347">
        <ele>233.10576</ele>
        <time>2023-08-27T12:37:33.000Z</time>
      </trkpt>
      <trkpt lat="45.79543" lon="4.99341">
        <ele>233.05569</ele>
        <time>2023-08-27T12:37:34.000Z</time>
      </trkpt>
      <trkpt lat="45.79544" lon="4.99336">
        <ele>233.01538</ele>
        <time>2023-08-27T12:37:35.000Z</time>
      </trkpt>
      <trkpt lat="45.79545" lon="4.9933">
        <ele>232.97488</ele>
        <time>2023-08-27T12:37:36.000Z</time>
      </trkpt>
      <trkpt lat="45.79546" lon="4.99324">
        <ele>232.90451</ele>
        <time>2023-08-27T12:37:37.000Z</time>
      </trkpt>
      <trkpt lat="45.79548" lon="4.99318">
        <ele>232.83194</ele>
        <time>2023-08-27T12:37:38.000Z</time>
      </trkpt>
      <trkpt lat="45.79549" lon="4.99312">
        <ele>232.76685</ele>
        <time>2023-08-27T12:37:39.000Z</time>
      </trkpt>
      <trkpt lat="45.7955" lon="4.99306">
        <ele>232.67603</ele>
        <time>2023-08-27T12:37:40.000Z</time>
      </trkpt>
      <trkpt lat="45.79551" lon="4.993">
        <ele>232.57463</ele>
        <time>2023-08-27T12:37:41.000Z</time>
      </trkpt>
      <trkpt lat="45.79552" lon="4.99294">
        <ele>232.4801</ele>
        <time>2023-08-27T12:37:42.000Z</time>
      </trkpt>
      <trkpt lat="45.79553" lon="4.99288">
        <ele>232.42001</ele>
        <time>2023-08-27T12:37:43.000Z</time>
      </trkpt>
      <trkpt lat="45.79555" lon="4.99282">
        <ele>232.35542</ele>
        <time>2023-08-27T12:37:44.000Z</time>
      </trkpt>
      <trkpt lat="45.79555" lon="4.99276">
        <ele>232.33218</ele>
        <time>2023-08-27T12:37:45.000Z</time>
      </trkpt>
      <trkpt lat="45.79556" lon="4.9927">
        <ele>232.31873</ele>
        <time>2023-08-27T12:37:46.000Z</time>
      </trkpt>
      <trkpt lat="45.79557" lon="4.99263">
        <ele>232.30801</ele>
        <time>2023-08-27T12:37:47.000Z</time>
      </trkpt>
      <trkpt lat="45.79559" lon="4.99258">
        <ele>232.29341</ele>
        <time>2023-08-27T12:37:48.000Z</time>
      </trkpt>
      <trkpt lat="45.7956" lon="4.99252">
        <ele>232.2854</ele>
        <time>2023-08-27T12:37:49.000Z</time>
      </trkpt>
      <trkpt lat="45.79561" lon="4.99246">
        <ele>232.28232</ele>
        <time>2023-08-27T12:37:50.000Z</time>
      </trkpt>
      <trkpt lat="45.79562" lon="4.9924">
        <ele>232.28442</ele>
        <time>2023-08-27T12:37:51.000Z</time>
      </trkpt>
      <trkpt lat="45.79564" lon="4.99234">
        <ele>232.29228</ele>
        <time>2023-08-27T12:37:52.000Z</time>
      </trkpt>
      <trkpt lat="45.79565" lon="4.99229">
        <ele>232.30078</ele>
        <time>2023-08-27T12:37:53.000Z</time>
      </trkpt>
      <trkpt lat="45.79566" lon="4.99223">
        <ele>232.32092</ele>
        <time>2023-08-27T12:37:54.000Z</time>
      </trkpt>
      <trkpt lat="45.79566" lon="4.99217">
        <ele>232.34123</ele>
        <time>2023-08-27T12:37:55.000Z</time>
      </trkpt>
      <trkpt lat="45.79567" lon="4.99211">
        <ele>232.35954</ele>
        <time>2023-08-27T12:37:56.000Z</time>
      </trkpt>
      <trkpt lat="45.79569" lon="4.99205">
        <ele>232.408</ele>
        <time>2023-08-27T12:37:57.000Z</time>
      </trkpt>
      <trkpt lat="45.79569" lon="4.99199">
        <ele>232.48083</ele>
        <time>2023-08-27T12:37:58.000Z</time>
      </trkpt>
      <trkpt lat="45.7957" lon="4.99194">
        <ele>232.56912</ele>
        <time>2023-08-27T12:37:59.000Z</time>
      </trkpt>
      <trkpt lat="45.79571" lon="4.99189">
        <ele>232.681</ele>
        <time>2023-08-27T12:38:00.000Z</time>
      </trkpt>
      <trkpt lat="45.79571" lon="4.99183">
        <ele>232.8055</ele>
        <time>2023-08-27T12:38:01.000Z</time>
      </trkpt>
      <trkpt lat="45.79572" lon="4.99177">
        <ele>232.93661</ele>
        <time>2023-08-27T12:38:02.000Z</time>
      </trkpt>
      <trkpt lat="45.79573" lon="4.99173">
        <ele>233.07466</ele>
        <time>2023-08-27T12:38:03.000Z</time>
      </trkpt>
      <trkpt lat="45.79573" lon="4.99167">
        <ele>233.22989</ele>
        <time>2023-08-27T12:38:04.000Z</time>
      </trkpt>
      <trkpt lat="45.79574" lon="4.99162">
        <ele>233.41667</ele>
        <time>2023-08-27T12:38:05.000Z</time>
      </trkpt>
      <trkpt lat="45.79574" lon="4.99158">
        <ele>233.60632</ele>
        <time>2023-08-27T12:38:06.000Z</time>
      </trkpt>
      <trkpt lat="45.79574" lon="4.99153">
        <ele>233.80351</ele>
        <time>2023-08-27T12:38:07.000Z</time>
      </trkpt>
      <trkpt lat="45.79574" lon="4.99148">
        <ele>234.03995</ele>
        <time>2023-08-27T12:38:08.000Z</time>
      </trkpt>
      <trkpt lat="45.79574" lon="4.99143">
        <ele>234.27969</ele>
        <time>2023-08-27T12:38:09.000Z</time>
      </trkpt>
      <trkpt lat="45.79574" lon="4.99139">
        <ele>234.54648</ele>
        <time>2023-08-27T12:38:10.000Z</time>
      </trkpt>
      <trkpt lat="45.79573" lon="4.99135">
        <ele>234.8114</ele>
        <time>2023-08-27T12:38:11.000Z</time>
      </trkpt>
      <trkpt lat="45.79573" lon="4.99132">
        <ele>235.08725</ele>
        <time>2023-08-27T12:38:12.000Z</time>
      </trkpt>
      <trkpt lat="45.79573" lon="4.99129">
        <ele>235.39627</ele>
        <time>2023-08-27T12:38:13.000Z</time>
      </trkpt>
      <trkpt lat="45.79573" lon="4.99126">
        <ele>235.69466</ele>
        <time>2023-08-27T12:38:14.000Z</time>
      </trkpt>
      <trkpt lat="45.79573" lon="4.99122">
        <ele>236.00691</ele>
        <time>2023-08-27T12:38:15.000Z</time>
      </trkpt>
      <trkpt lat="45.79573" lon="4.99118">
        <ele>236.33289</ele>
        <time>2023-08-27T12:38:16.000Z</time>
      </trkpt>
      <trkpt lat="45.79572" lon="4.99114">
        <ele>236.63428</ele>
        <time>2023-08-27T12:38:17.000Z</time>
      </trkpt>
      <trkpt lat="45.79572" lon="4.9911">
        <ele>236.91719</ele>
        <time>2023-08-27T12:38:18.000Z</time>
      </trkpt>
      <trkpt lat="45.79571" lon="4.99107">
        <ele>237.1864</ele>
        <time>2023-08-27T12:38:19.000Z</time>
      </trkpt>
      <trkpt lat="45.79571" lon="4.99104">
        <ele>237.44254</ele>
        <time>2023-08-27T12:38:20.000Z</time>
      </trkpt>
      <trkpt lat="45.79571" lon="4.991">
        <ele>237.70174</ele>
        <time>2023-08-27T12:38:21.000Z</time>
      </trkpt>
      <trkpt lat="45.79571" lon="4.99096">
        <ele>237.97095</ele>
        <time>2023-08-27T12:38:22.000Z</time>
      </trkpt>
      <trkpt lat="45.79571" lon="4.99093">
        <ele>238.23125</ele>
        <time>2023-08-27T12:38:23.000Z</time>
      </trkpt>
      <trkpt lat="45.7957" lon="4.9909">
        <ele>238.49113</ele>
        <time>2023-08-27T12:38:24.000Z</time>
      </trkpt>
      <trkpt lat="45.79569" lon="4.99086">
        <ele>238.74637</ele>
        <time>2023-08-27T12:38:25.000Z</time>
      </trkpt>
      <trkpt lat="45.79569" lon="4.99082">
        <ele>239.0076</ele>
        <time>2023-08-27T12:38:26.000Z</time>
      </trkpt>
      <trkpt lat="45.79568" lon="4.99078">
        <ele>239.22647</ele>
        <time>2023-08-27T12:38:27.000Z</time>
      </trkpt>
      <trkpt lat="45.79568" lon="4.99072">
        <ele>239.38394</ele>
        <time>2023-08-27T12:38:28.000Z</time>
      </trkpt>
      <trkpt lat="45.79568" lon="4.99067">
        <ele>239.4884</ele>
        <time>2023-08-27T12:38:29.000Z</time>
      </trkpt>
      <trkpt lat="45.79568" lon="4.99063">
        <ele>239.59492</ele>
        <time>2023-08-27T12:38:30.000Z</time>
      </trkpt>
      <trkpt lat="45.79568" lon="4.99058">
        <ele>239.6853</ele>
        <time>2023-08-27T12:38:31.000Z</time>
      </trkpt>
      <trkpt lat="45.79567" lon="4.99049">
        <ele>239.73413</ele>
        <time>2023-08-27T12:38:32.000Z</time>
      </trkpt>
      <trkpt lat="45.79567" lon="4.99043">
        <ele>239.76762</ele>
        <time>2023-08-27T12:38:33.000Z</time>
      </trkpt>
      <trkpt lat="45.79567" lon="4.99035">
        <ele>239.79007</ele>
        <time>2023-08-27T12:38:34.000Z</time>
      </trkpt>
      <trkpt lat="45.79566" lon="4.99029">
        <ele>239.74886</ele>
        <time>2023-08-27T12:38:35.000Z</time>
      </trkpt>
      <trkpt lat="45.79565" lon="4.99021">
        <ele>239.67587</ele>
        <time>2023-08-27T12:38:36.000Z</time>
      </trkpt>
      <trkpt lat="45.79564" lon="4.99013">
        <ele>239.59033</ele>
        <time>2023-08-27T12:38:37.000Z</time>
      </trkpt>
      <trkpt lat="45.79562" lon="4.99005">
        <ele>239.47881</ele>
        <time>2023-08-27T12:38:38.000Z</time>
      </trkpt>
      <trkpt lat="45.7956" lon="4.98997">
        <ele>239.35664</ele>
        <time>2023-08-27T12:38:39.000Z</time>
      </trkpt>
      <trkpt lat="45.79558" lon="4.98989">
        <ele>239.20749</ele>
        <time>2023-08-27T12:38:40.000Z</time>
      </trkpt>
      <trkpt lat="45.79556" lon="4.98982">
        <ele>239.01315</ele>
        <time>2023-08-27T12:38:41.000Z</time>
      </trkpt>
      <trkpt lat="45.79554" lon="4.98973">
        <ele>238.80229</ele>
        <time>2023-08-27T12:38:42.000Z</time>
      </trkpt>
      <trkpt lat="45.79551" lon="4.98966">
        <ele>238.55447</ele>
        <time>2023-08-27T12:38:43.000Z</time>
      </trkpt>
      <trkpt lat="45.79548" lon="4.98958">
        <ele>238.26392</ele>
        <time>2023-08-27T12:38:44.000Z</time>
      </trkpt>
      <trkpt lat="45.79546" lon="4.98951">
        <ele>237.95284</ele>
        <time>2023-08-27T12:38:45.000Z</time>
      </trkpt>
      <trkpt lat="45.79544" lon="4.98943">
        <ele>237.61909</ele>
        <time>2023-08-27T12:38:46.000Z</time>
      </trkpt>
      <trkpt lat="45.79541" lon="4.98936">
        <ele>237.31528</ele>
        <time>2023-08-27T12:38:47.000Z</time>
      </trkpt>
      <trkpt lat="45.79539" lon="4.9893">
        <ele>237.03342</ele>
        <time>2023-08-27T12:38:48.000Z</time>
      </trkpt>
      <trkpt lat="45.79537" lon="4.98923">
        <ele>236.78337</ele>
        <time>2023-08-27T12:38:49.000Z</time>
      </trkpt>
      <trkpt lat="45.79535" lon="4.98917">
        <ele>236.51787</ele>
        <time>2023-08-27T12:38:50.000Z</time>
      </trkpt>
      <trkpt lat="45.79533" lon="4.98911">
        <ele>236.26472</ele>
        <time>2023-08-27T12:38:51.000Z</time>
      </trkpt>
      <trkpt lat="45.79531" lon="4.98905">
        <ele>236.02779</ele>
        <time>2023-08-27T12:38:52.000Z</time>
      </trkpt>
      <trkpt lat="45.79528" lon="4.989">
        <ele>235.77255</ele>
        <time>2023-08-27T12:38:53.000Z</time>
      </trkpt>
      <trkpt lat="45.79528" lon="4.98894">
        <ele>235.51102</ele>
        <time>2023-08-27T12:38:54.000Z</time>
      </trkpt>
      <trkpt lat="45.79528" lon="4.98889">
        <ele>235.30815</ele>
        <time>2023-08-27T12:38:55.000Z</time>
      </trkpt>
      <trkpt lat="45.79527" lon="4.98884">
        <ele>235.12973</ele>
        <time>2023-08-27T12:38:56.000Z</time>
      </trkpt>
      <trkpt lat="45.79526" lon="4.98881">
        <ele>234.97266</ele>
        <time>2023-08-27T12:38:57.000Z</time>
      </trkpt>
      <trkpt lat="45.79525" lon="4.98878">
        <ele>234.83603</ele>
        <time>2023-08-27T12:38:58.000Z</time>
      </trkpt>
      <trkpt lat="45.79524" lon="4.98875">
        <ele>234.7041</ele>
        <time>2023-08-27T12:38:59.000Z</time>
      </trkpt>
      <trkpt lat="45.79524" lon="4.98872">
        <ele>234.5986</ele>
        <time>2023-08-27T12:39:00.000Z</time>
      </trkpt>
      <trkpt lat="45.79525" lon="4.98867">
        <ele>234.50713</ele>
        <time>2023-08-27T12:39:02.000Z</time>
      </trkpt>
      <trkpt lat="45.79525" lon="4.98865">
        <ele>234.41389</ele>
        <time>2023-08-27T12:39:03.000Z</time>
      </trkpt>
      <trkpt lat="45.79523" lon="4.98862">
        <ele>234.34004</ele>
        <time>2023-08-27T12:39:05.000Z</time>
      </trkpt>
      <trkpt lat="45.7952" lon="4.9886">
        <ele>234.27371</ele>
        <time>2023-08-27T12:39:07.000Z</time>
      </trkpt>
      <trkpt lat="45.79518" lon="4.98861">
        <ele>234.23483</ele>
        <time>2023-08-27T12:39:08.000Z</time>
      </trkpt>
      <trkpt lat="45.79516" lon="4.98863">
        <ele>234.21782</ele>
        <time>2023-08-27T12:39:09.000Z</time>
      </trkpt>
      <trkpt lat="45.79516" lon="4.98865">
        <ele>234.22501</ele>
        <time>2023-08-27T12:39:10.000Z</time>
      </trkpt>
      <trkpt lat="45.79517" lon="4.98869">
        <ele>234.24834</ele>
        <time>2023-08-27T12:39:11.000Z</time>
      </trkpt>
      <trkpt lat="45.79519" lon="4.9887">
        <ele>234.26016</ele>
        <time>2023-08-27T12:39:12.000Z</time>
      </trkpt>
      <trkpt lat="45.79521" lon="4.98869">
        <ele>234.26993</ele>
        <time>2023-08-27T12:39:13.000Z</time>
      </trkpt>
      <trkpt lat="45.79522" lon="4.98864">
        <ele>234.25078</ele>
        <time>2023-08-27T12:39:14.000Z</time>
      </trkpt>
      <trkpt lat="45.7952" lon="4.9886">
        <ele>234.2341</ele>
        <time>2023-08-27T12:39:15.000Z</time>
      </trkpt>
      <trkpt lat="45.79518" lon="4.98857">
        <ele>234.20964</ele>
        <time>2023-08-27T12:39:16.000Z</time>
      </trkpt>
      <trkpt lat="45.79515" lon="4.98853">
        <ele>234.2085</ele>
        <time>2023-08-27T12:39:17.000Z</time>
      </trkpt>
      <trkpt lat="45.79512" lon="4.98849">
        <ele>234.18521</ele>
        <time>2023-08-27T12:39:18.000Z</time>
      </trkpt>
      <trkpt lat="45.7951" lon="4.98843">
        <ele>234.1563</ele>
        <time>2023-08-27T12:39:19.000Z</time>
      </trkpt>
      <trkpt lat="45.79508" lon="4.98839">
        <ele>234.11394</ele>
        <time>2023-08-27T12:39:20.000Z</time>
      </trkpt>
      <trkpt lat="45.79507" lon="4.98834">
        <ele>234.08125</ele>
        <time>2023-08-27T12:39:21.000Z</time>
      </trkpt>
      <trkpt lat="45.79505" lon="4.98829">
        <ele>234.07877</ele>
        <time>2023-08-27T12:39:22.000Z</time>
      </trkpt>
      <trkpt lat="45.79503" lon="4.98824">
        <ele>234.0623</ele>
        <time>2023-08-27T12:39:23.000Z</time>
      </trkpt>
      <trkpt lat="45.79501" lon="4.9882">
        <ele>234.0708</ele>
        <time>2023-08-27T12:39:24.000Z</time>
      </trkpt>
      <trkpt lat="45.79499" lon="4.98815">
        <ele>234.07425</ele>
        <time>2023-08-27T12:39:25.000Z</time>
      </trkpt>
      <trkpt lat="45.79497" lon="4.98811">
        <ele>234.08748</ele>
        <time>2023-08-27T12:39:26.000Z</time>
      </trkpt>
      <trkpt lat="45.79494" lon="4.98806">
        <ele>234.12737</ele>
        <time>2023-08-27T12:39:27.000Z</time>
      </trkpt>
      <trkpt lat="45.79492" lon="4.98802">
        <ele>234.16008</ele>
        <time>2023-08-27T12:39:28.000Z</time>
      </trkpt>
      <trkpt lat="45.7949" lon="4.98797">
        <ele>234.18066</ele>
        <time>2023-08-27T12:39:29.000Z</time>
      </trkpt>
      <trkpt lat="45.79488" lon="4.98793">
        <ele>234.18108</ele>
        <time>2023-08-27T12:39:30.000Z</time>
      </trkpt>
      <trkpt lat="45.79486" lon="4.98788">
        <ele>234.16154</ele>
        <time>2023-08-27T12:39:31.000Z</time>
      </trkpt>
      <trkpt lat="45.79484" lon="4.98784">
        <ele>234.13445</ele>
        <time>2023-08-27T12:39:32.000Z</time>
      </trkpt>
      <trkpt lat="45.79481" lon="4.98781">
        <ele>234.10629</ele>
        <time>2023-08-27T12:39:33.000Z</time>
      </trkpt>
      <trkpt lat="45.79479" lon="4.98777">
        <ele>234.09392</ele>
        <time>2023-08-27T12:39:34.000Z</time>
      </trkpt>
      <trkpt lat="45.79477" lon="4.98773">
        <ele>234.09277</ele>
        <time>2023-08-27T12:39:35.000Z</time>
      </trkpt>
      <trkpt lat="45.79475" lon="4.98769">
        <ele>234.08496</ele>
        <time>2023-08-27T12:39:36.000Z</time>
      </trkpt>
      <trkpt lat="45.79473" lon="4.98766">
        <ele>234.06625</ele>
        <time>2023-08-27T12:39:37.000Z</time>
      </trkpt>
      <trkpt lat="45.79471" lon="4.98762">
        <ele>234.05078</ele>
        <time>2023-08-27T12:39:38.000Z</time>
      </trkpt>
      <trkpt lat="45.79469" lon="4.98759">
        <ele>234.04585</ele>
        <time>2023-08-27T12:39:39.000Z</time>
      </trkpt>
      <trkpt lat="45.79467" lon="4.98756">
        <ele>234.05672</ele>
        <time>2023-08-27T12:39:40.000Z</time>
      </trkpt>
      <trkpt lat="45.79465" lon="4.98753">
        <ele>234.07065</ele>
        <time>2023-08-27T12:39:41.000Z</time>
      </trkpt>
      <trkpt lat="45.79464" lon="4.9875">
        <ele>234.06538</ele>
        <time>2023-08-27T12:39:42.000Z</time>
      </trkpt>
      <trkpt lat="45.79462" lon="4.98746">
        <ele>234.07565</ele>
        <time>2023-08-27T12:39:43.000Z</time>
      </trkpt>
      <trkpt lat="45.7946" lon="4.98743">
        <ele>234.08516</ele>
        <time>2023-08-27T12:39:44.000Z</time>
      </trkpt>
      <trkpt lat="45.79458" lon="4.9874">
        <ele>234.10368</ele>
        <time>2023-08-27T12:39:45.000Z</time>
      </trkpt>
      <trkpt lat="45.79455" lon="4.98736">
        <ele>234.10547</ele>
        <time>2023-08-27T12:39:46.000Z</time>
      </trkpt>
      <trkpt lat="45.79453" lon="4.98732">
        <ele>234.09102</ele>
        <time>2023-08-27T12:39:47.000Z</time>
      </trkpt>
      <trkpt lat="45.79451" lon="4.98729">
        <ele>234.06808</ele>
        <time>2023-08-27T12:39:48.000Z</time>
      </trkpt>
      <trkpt lat="45.79448" lon="4.98725">
        <ele>234.04053</ele>
        <time>2023-08-27T12:39:49.000Z</time>
      </trkpt>
      <trkpt lat="45.79446" lon="4.98722">
        <ele>234.00984</ele>
        <time>2023-08-27T12:39:50.000Z</time>
      </trkpt>
      <trkpt lat="45.79443" lon="4.98719">
        <ele>233.99255</ele>
        <time>2023-08-27T12:39:51.000Z</time>
      </trkpt>
      <trkpt lat="45.79441" lon="4.98715">
        <ele>234.00598</ele>
        <time>2023-08-27T12:39:52.000Z</time>
      </trkpt>
      <trkpt lat="45.79438" lon="4.98712">
        <ele>234.01981</ele>
        <time>2023-08-27T12:39:53.000Z</time>
      </trkpt>
      <trkpt lat="45.79436" lon="4.98708">
        <ele>234.02759</ele>
        <time>2023-08-27T12:39:54.000Z</time>
      </trkpt>
      <trkpt lat="45.79434" lon="4.98705">
        <ele>234.03195</ele>
        <time>2023-08-27T12:39:55.000Z</time>
      </trkpt>
      <trkpt lat="45.79432" lon="4.98701">
        <ele>234.05542</ele>
        <time>2023-08-27T12:39:56.000Z</time>
      </trkpt>
      <trkpt lat="45.79429" lon="4.98698">
        <ele>234.06425</ele>
        <time>2023-08-27T12:39:57.000Z</time>
      </trkpt>
      <trkpt lat="45.79427" lon="4.98695">
        <ele>234.08267</ele>
        <time>2023-08-27T12:39:58.000Z</time>
      </trkpt>
      <trkpt lat="45.79425" lon="4.98691">
        <ele>234.09631</ele>
        <time>2023-08-27T12:39:59.000Z</time>
      </trkpt>
      <trkpt lat="45.79423" lon="4.98687">
        <ele>234.09961</ele>
        <time>2023-08-27T12:40:00.000Z</time>
      </trkpt>
      <trkpt lat="45.79421" lon="4.98684">
        <ele>234.09734</ele>
        <time>2023-08-27T12:40:01.000Z</time>
      </trkpt>
      <trkpt lat="45.79419" lon="4.98681">
        <ele>234.10493</ele>
        <time>2023-08-27T12:40:02.000Z</time>
      </trkpt>
      <trkpt lat="45.79416" lon="4.98677">
        <ele>234.1021</ele>
        <time>2023-08-27T12:40:03.000Z</time>
      </trkpt>
      <trkpt lat="45.79414" lon="4.98674">
        <ele>234.09062</ele>
        <time>2023-08-27T12:40:04.000Z</time>
      </trkpt>
      <trkpt lat="45.79412" lon="4.9867">
        <ele>234.07324</ele>
        <time>2023-08-27T12:40:05.000Z</time>
      </trkpt>
      <trkpt lat="45.7941" lon="4.98667">
        <ele>234.08475</ele>
        <time>2023-08-27T12:40:06.000Z</time>
      </trkpt>
      <trkpt lat="45.79407" lon="4.98663">
        <ele>234.11423</ele>
        <time>2023-08-27T12:40:07.000Z</time>
      </trkpt>
      <trkpt lat="45.79405" lon="4.98659">
        <ele>234.11186</ele>
        <time>2023-08-27T12:40:08.000Z</time>
      </trkpt>
      <trkpt lat="45.79403" lon="4.98656">
        <ele>234.11826</ele>
        <time>2023-08-27T12:40:09.000Z</time>
      </trkpt>
      <trkpt lat="45.79401" lon="4.98652">
        <ele>234.13351</ele>
        <time>2023-08-27T12:40:10.000Z</time>
      </trkpt>
      <trkpt lat="45.79398" lon="4.98648">
        <ele>234.11836</ele>
        <time>2023-08-27T12:40:11.000Z</time>
      </trkpt>
      <trkpt lat="45.79396" lon="4.98645">
        <ele>234.11258</ele>
        <time>2023-08-27T12:40:12.000Z</time>
      </trkpt>
      <trkpt lat="45.79394" lon="4.98642">
        <ele>234.11124</ele>
        <time>2023-08-27T12:40:13.000Z</time>
      </trkpt>
      <trkpt lat="45.79391" lon="4.98639">
        <ele>234.12927</ele>
        <time>2023-08-27T12:40:14.000Z</time>
      </trkpt>
      <trkpt lat="45.79389" lon="4.98636">
        <ele>234.13887</ele>
        <time>2023-08-27T12:40:15.000Z</time>
      </trkpt>
      <trkpt lat="45.79386" lon="4.98632">
        <ele>234.14432</ele>
        <time>2023-08-27T12:40:16.000Z</time>
      </trkpt>
      <trkpt lat="45.79384" lon="4.98628">
        <ele>234.17188</ele>
        <time>2023-08-27T12:40:17.000Z</time>
      </trkpt>
      <trkpt lat="45.79382" lon="4.98625">
        <ele>234.18765</ele>
        <time>2023-08-27T12:40:18.000Z</time>
      </trkpt>
      <trkpt lat="45.7938" lon="4.98621">
        <ele>234.21172</ele>
        <time>2023-08-27T12:40:19.000Z</time>
      </trkpt>
      <trkpt lat="45.79378" lon="4.98618">
        <ele>234.21362</ele>
        <time>2023-08-27T12:40:20.000Z</time>
      </trkpt>
      <trkpt lat="45.79375" lon="4.98615">
        <ele>234.20564</ele>
        <time>2023-08-27T12:40:21.000Z</time>
      </trkpt>
      <trkpt lat="45.79373" lon="4.98611">
        <ele>234.19678</ele>
        <time>2023-08-27T12:40:22.000Z</time>
      </trkpt>
      <trkpt lat="45.79371" lon="4.98608">
        <ele>234.18332</ele>
        <time>2023-08-27T12:40:23.000Z</time>
      </trkpt>
      <trkpt lat="45.79369" lon="4.98604">
        <ele>234.17932</ele>
        <time>2023-08-27T12:40:24.000Z</time>
      </trkpt>
      <trkpt lat="45.79366" lon="4.986">
        <ele>234.21304</ele>
        <time>2023-08-27T12:40:25.000Z</time>
      </trkpt>
      <trkpt lat="45.79364" lon="4.98597">
        <ele>234.21855</ele>
        <time>2023-08-27T12:40:26.000Z</time>
      </trkpt>
      <trkpt lat="45.79361" lon="4.98593">
        <ele>234.22009</ele>
        <time>2023-08-27T12:40:27.000Z</time>
      </trkpt>
      <trkpt lat="45.79359" lon="4.98589">
        <ele>234.25305</ele>
        <time>2023-08-27T12:40:28.000Z</time>
      </trkpt>
      <trkpt lat="45.79357" lon="4.98586">
        <ele>234.27229</ele>
        <time>2023-08-27T12:40:29.000Z</time>
      </trkpt>
      <trkpt lat="45.79354" lon="4.98582">
        <ele>234.29048</ele>
        <time>2023-08-27T12:40:30.000Z</time>
      </trkpt>
      <trkpt lat="45.79352" lon="4.98578">
        <ele>234.32385</ele>
        <time>2023-08-27T12:40:31.000Z</time>
      </trkpt>
      <trkpt lat="45.7935" lon="4.98574">
        <ele>234.35713</ele>
        <time>2023-08-27T12:40:32.000Z</time>
      </trkpt>
      <trkpt lat="45.79348" lon="4.9857">
        <ele>234.37727</ele>
        <time>2023-08-27T12:40:33.000Z</time>
      </trkpt>
      <trkpt lat="45.79346" lon="4.98566">
        <ele>234.39363</ele>
        <time>2023-08-27T12:40:34.000Z</time>
      </trkpt>
      <trkpt lat="45.79344" lon="4.98563">
        <ele>234.41765</ele>
        <time>2023-08-27T12:40:35.000Z</time>
      </trkpt>
      <trkpt lat="45.79341" lon="4.9856">
        <ele>234.44263</ele>
        <time>2023-08-27T12:40:36.000Z</time>
      </trkpt>
      <trkpt lat="45.79339" lon="4.98557">
        <ele>234.47571</ele>
        <time>2023-08-27T12:40:37.000Z</time>
      </trkpt>
      <trkpt lat="45.79336" lon="4.98554">
        <ele>234.54268</ele>
        <time>2023-08-27T12:40:38.000Z</time>
      </trkpt>
      <trkpt lat="45.79334" lon="4.9855">
        <ele>234.61353</ele>
        <time>2023-08-27T12:40:39.000Z</time>
      </trkpt>
      <trkpt lat="45.79332" lon="4.98547">
        <ele>234.70923</ele>
        <time>2023-08-27T12:40:40.000Z</time>
      </trkpt>
      <trkpt lat="45.7933" lon="4.98543">
        <ele>234.83772</ele>
        <time>2023-08-27T12:40:41.000Z</time>
      </trkpt>
      <trkpt lat="45.79327" lon="4.98539">
        <ele>234.96475</ele>
        <time>2023-08-27T12:40:42.000Z</time>
      </trkpt>
      <trkpt lat="45.79325" lon="4.98536">
        <ele>235.08701</ele>
        <time>2023-08-27T12:40:43.000Z</time>
      </trkpt>
      <trkpt lat="45.79324" lon="4.98533">
        <ele>235.17075</ele>
        <time>2023-08-27T12:40:44.000Z</time>
      </trkpt>
      <trkpt lat="45.79322" lon="4.98529">
        <ele>235.2009</ele>
        <time>2023-08-27T12:40:45.000Z</time>
      </trkpt>
      <trkpt lat="45.79321" lon="4.98526">
        <ele>235.27066</ele>
        <time>2023-08-27T12:40:46.000Z</time>
      </trkpt>
      <trkpt lat="45.79319" lon="4.98523">
        <ele>235.33096</ele>
        <time>2023-08-27T12:40:47.000Z</time>
      </trkpt>
      <trkpt lat="45.79317" lon="4.9852">
        <ele>235.39258</ele>
        <time>2023-08-27T12:40:48.000Z</time>
      </trkpt>
      <trkpt lat="45.79314" lon="4.98517">
        <ele>235.44095</ele>
        <time>2023-08-27T12:40:49.000Z</time>
      </trkpt>
      <trkpt lat="45.79312" lon="4.98514">
        <ele>235.47885</ele>
        <time>2023-08-27T12:40:50.000Z</time>
      </trkpt>
      <trkpt lat="45.7931" lon="4.98511">
        <ele>235.51535</ele>
        <time>2023-08-27T12:40:51.000Z</time>
      </trkpt>
      <trkpt lat="45.79308" lon="4.98507">
        <ele>235.53592</ele>
        <time>2023-08-27T12:40:52.000Z</time>
      </trkpt>
      <trkpt lat="45.79306" lon="4.98503">
        <ele>235.55472</ele>
        <time>2023-08-27T12:40:53.000Z</time>
      </trkpt>
      <trkpt lat="45.79303" lon="4.985">
        <ele>235.56038</ele>
        <time>2023-08-27T12:40:54.000Z</time>
      </trkpt>
      <trkpt lat="45.79301" lon="4.98496">
        <ele>235.52499</ele>
        <time>2023-08-27T12:40:55.000Z</time>
      </trkpt>
      <trkpt lat="45.79299" lon="4.98493">
        <ele>235.49443</ele>
        <time>2023-08-27T12:40:56.000Z</time>
      </trkpt>
      <trkpt lat="45.79297" lon="4.98489">
        <ele>235.44392</ele>
        <time>2023-08-27T12:40:57.000Z</time>
      </trkpt>
      <trkpt lat="45.79295" lon="4.98486">
        <ele>235.36726</ele>
        <time>2023-08-27T12:40:58.000Z</time>
      </trkpt>
      <trkpt lat="45.79293" lon="4.98483">
        <ele>235.26547</ele>
        <time>2023-08-27T12:40:59.000Z</time>
      </trkpt>
      <trkpt lat="45.79291" lon="4.9848">
        <ele>235.17256</ele>
        <time>2023-08-27T12:41:00.000Z</time>
      </trkpt>
      <trkpt lat="45.79288" lon="4.98477">
        <ele>235.04886</ele>
        <time>2023-08-27T12:41:01.000Z</time>
      </trkpt>
      <trkpt lat="45.79286" lon="4.98474">
        <ele>234.91788</ele>
        <time>2023-08-27T12:41:02.000Z</time>
      </trkpt>
      <trkpt lat="45.79284" lon="4.98471">
        <ele>234.79395</ele>
        <time>2023-08-27T12:41:03.000Z</time>
      </trkpt>
      <trkpt lat="45.79282" lon="4.98468">
        <ele>234.71909</ele>
        <time>2023-08-27T12:41:04.000Z</time>
      </trkpt>
      <trkpt lat="45.7928" lon="4.98465">
        <ele>234.63872</ele>
        <time>2023-08-27T12:41:05.000Z</time>
      </trkpt>
      <trkpt lat="45.79278" lon="4.98462">
        <ele>234.52592</ele>
        <time>2023-08-27T12:41:06.000Z</time>
      </trkpt>
      <trkpt lat="45.79277" lon="4.98459">
        <ele>234.4185</ele>
        <time>2023-08-27T12:41:07.000Z</time>
      </trkpt>
      <trkpt lat="45.79276" lon="4.98455">
        <ele>234.29904</ele>
        <time>2023-08-27T12:41:08.000Z</time>
      </trkpt>
      <trkpt lat="45.79275" lon="4.98451">
        <ele>234.19302</ele>
        <time>2023-08-27T12:41:09.000Z</time>
      </trkpt>
      <trkpt lat="45.79273" lon="4.98448">
        <ele>234.08401</ele>
        <time>2023-08-27T12:41:10.000Z</time>
      </trkpt>
      <trkpt lat="45.79272" lon="4.98445">
        <ele>233.98653</ele>
        <time>2023-08-27T12:41:11.000Z</time>
      </trkpt>
      <trkpt lat="45.79271" lon="4.98441">
        <ele>233.89075</ele>
        <time>2023-08-27T12:41:12.000Z</time>
      </trkpt>
      <trkpt lat="45.7927" lon="4.98437">
        <ele>233.78535</ele>
        <time>2023-08-27T12:41:13.000Z</time>
      </trkpt>
      <trkpt lat="45.79269" lon="4.98433">
        <ele>233.67973</ele>
        <time>2023-08-27T12:41:14.000Z</time>
      </trkpt>
      <trkpt lat="45.79268" lon="4.98428">
        <ele>233.59641</ele>
        <time>2023-08-27T12:41:15.000Z</time>
      </trkpt>
      <trkpt lat="45.79266" lon="4.98422">
        <ele>233.48335</ele>
        <time>2023-08-27T12:41:16.000Z</time>
      </trkpt>
      <trkpt lat="45.79264" lon="4.98417">
        <ele>233.3781</ele>
        <time>2023-08-27T12:41:17.000Z</time>
      </trkpt>
      <trkpt lat="45.79262" lon="4.98411">
        <ele>233.27612</ele>
        <time>2023-08-27T12:41:18.000Z</time>
      </trkpt>
      <trkpt lat="45.79259" lon="4.98406">
        <ele>233.16377</ele>
        <time>2023-08-27T12:41:19.000Z</time>
      </trkpt>
      <trkpt lat="45.79257" lon="4.98401">
        <ele>233.03171</ele>
        <time>2023-08-27T12:41:20.000Z</time>
      </trkpt>
      <trkpt lat="45.79255" lon="4.98396">
        <ele>232.89468</ele>
        <time>2023-08-27T12:41:21.000Z</time>
      </trkpt>
      <trkpt lat="45.79252" lon="4.98392">
        <ele>232.74052</ele>
        <time>2023-08-27T12:41:22.000Z</time>
      </trkpt>
      <trkpt lat="45.7925" lon="4.98387">
        <ele>232.59334</ele>
        <time>2023-08-27T12:41:23.000Z</time>
      </trkpt>
      <trkpt lat="45.79247" lon="4.98383">
        <ele>232.42159</ele>
        <time>2023-08-27T12:41:24.000Z</time>
      </trkpt>
      <trkpt lat="45.79245" lon="4.98378">
        <ele>232.26436</ele>
        <time>2023-08-27T12:41:25.000Z</time>
      </trkpt>
      <trkpt lat="45.79242" lon="4.98373">
        <ele>232.09399</ele>
        <time>2023-08-27T12:41:26.000Z</time>
      </trkpt>
      <trkpt lat="45.79239" lon="4.98367">
        <ele>231.94295</ele>
        <time>2023-08-27T12:41:27.000Z</time>
      </trkpt>
      <trkpt lat="45.79237" lon="4.98362">
        <ele>231.80545</ele>
        <time>2023-08-27T12:41:28.000Z</time>
      </trkpt>
      <trkpt lat="45.79234" lon="4.98357">
        <ele>231.65634</ele>
        <time>2023-08-27T12:41:29.000Z</time>
      </trkpt>
      <trkpt lat="45.79231" lon="4.98352">
        <ele>231.50508</ele>
        <time>2023-08-27T12:41:30.000Z</time>
      </trkpt>
      <trkpt lat="45.79228" lon="4.98346">
        <ele>231.3584</ele>
        <time>2023-08-27T12:41:31.000Z</time>
      </trkpt>
      <trkpt lat="45.79225" lon="4.98341">
        <ele>231.21184</ele>
        <time>2023-08-27T12:41:32.000Z</time>
      </trkpt>
      <trkpt lat="45.79223" lon="4.98335">
        <ele>231.08762</ele>
        <time>2023-08-27T12:41:33.000Z</time>
      </trkpt>
      <trkpt lat="45.79221" lon="4.98331">
        <ele>230.9668</ele>
        <time>2023-08-27T12:41:34.000Z</time>
      </trkpt>
      <trkpt lat="45.79219" lon="4.98327">
        <ele>230.86856</ele>
        <time>2023-08-27T12:41:35.000Z</time>
      </trkpt>
      <trkpt lat="45.79218" lon="4.98323">
        <ele>230.79362</ele>
        <time>2023-08-27T12:41:36.000Z</time>
      </trkpt>
      <trkpt lat="45.79217" lon="4.98318">
        <ele>230.69998</ele>
        <time>2023-08-27T12:41:37.000Z</time>
      </trkpt>
      <trkpt lat="45.79217" lon="4.98314">
        <ele>230.60144</ele>
        <time>2023-08-27T12:41:38.000Z</time>
      </trkpt>
      <trkpt lat="45.79217" lon="4.9831">
        <ele>230.55347</ele>
        <time>2023-08-27T12:41:39.000Z</time>
      </trkpt>
      <trkpt lat="45.79219" lon="4.98306">
        <ele>230.49605</ele>
        <time>2023-08-27T12:41:40.000Z</time>
      </trkpt>
      <trkpt lat="45.79221" lon="4.98303">
        <ele>230.46378</ele>
        <time>2023-08-27T12:41:41.000Z</time>
      </trkpt>
      <trkpt lat="45.79225" lon="4.983">
        <ele>230.49031</ele>
        <time>2023-08-27T12:41:42.000Z</time>
      </trkpt>
      <trkpt lat="45.79229" lon="4.98299">
        <ele>230.51953</ele>
        <time>2023-08-27T12:41:43.000Z</time>
      </trkpt>
      <trkpt lat="45.79233" lon="4.98298">
        <ele>230.46538</ele>
        <time>2023-08-27T12:41:44.000Z</time>
      </trkpt>
      <trkpt lat="45.79237" lon="4.98297">
        <ele>230.44943</ele>
        <time>2023-08-27T12:41:45.000Z</time>
      </trkpt>
      <trkpt lat="45.79241" lon="4.98297">
        <ele>230.43265</ele>
        <time>2023-08-27T12:41:46.000Z</time>
      </trkpt>
      <trkpt lat="45.79244" lon="4.98296">
        <ele>230.44453</ele>
        <time>2023-08-27T12:41:47.000Z</time>
      </trkpt>
      <trkpt lat="45.79249" lon="4.98297">
        <ele>230.4227</ele>
        <time>2023-08-27T12:41:48.000Z</time>
      </trkpt>
      <trkpt lat="45.79254" lon="4.98296">
        <ele>230.41873</ele>
        <time>2023-08-27T12:41:49.000Z</time>
      </trkpt>
      <trkpt lat="45.79257" lon="4.98296">
        <ele>230.50137</ele>
        <time>2023-08-27T12:41:50.000Z</time>
      </trkpt>
      <trkpt lat="45.79262" lon="4.98294">
        <ele>230.57332</ele>
        <time>2023-08-27T12:41:51.000Z</time>
      </trkpt>
      <trkpt lat="45.79266" lon="4.98294">
        <ele>230.6525</ele>
        <time>2023-08-27T12:41:52.000Z</time>
      </trkpt>
      <trkpt lat="45.7927" lon="4.98294">
        <ele>230.71384</ele>
        <time>2023-08-27T12:41:53.000Z</time>
      </trkpt>
      <trkpt lat="45.79274" lon="4.98294">
        <ele>230.80112</ele>
        <time>2023-08-27T12:41:54.000Z</time>
      </trkpt>
      <trkpt lat="45.79278" lon="4.98293">
        <ele>230.8616</ele>
        <time>2023-08-27T12:41:55.000Z</time>
      </trkpt>
      <trkpt lat="45.79282" lon="4.98293">
        <ele>230.93123</ele>
        <time>2023-08-27T12:41:56.000Z</time>
      </trkpt>
      <trkpt lat="45.79286" lon="4.98291">
        <ele>231.02328</ele>
        <time>2023-08-27T12:41:57.000Z</time>
      </trkpt>
      <trkpt lat="45.79291" lon="4.9829">
        <ele>231.11362</ele>
        <time>2023-08-27T12:41:58.000Z</time>
      </trkpt>
      <trkpt lat="45.79296" lon="4.9829">
        <ele>231.14389</ele>
        <time>2023-08-27T12:41:59.000Z</time>
      </trkpt>
      <trkpt lat="45.793" lon="4.98289">
        <ele>231.19255</ele>
        <time>2023-08-27T12:42:00.000Z</time>
      </trkpt>
      <trkpt lat="45.79305" lon="4.98288">
        <ele>231.22998</ele>
        <time>2023-08-27T12:42:01.000Z</time>
      </trkpt>
      <trkpt lat="45.79309" lon="4.98288">
        <ele>231.21811</ele>
        <time>2023-08-27T12:42:02.000Z</time>
      </trkpt>
      <trkpt lat="45.79313" lon="4.98287">
        <ele>231.2117</ele>
        <time>2023-08-27T12:42:03.000Z</time>
      </trkpt>
      <trkpt lat="45.79317" lon="4.98286">
        <ele>231.21172</ele>
        <time>2023-08-27T12:42:04.000Z</time>
      </trkpt>
      <trkpt lat="45.79321" lon="4.98286">
        <ele>231.20975</ele>
        <time>2023-08-27T12:42:05.000Z</time>
      </trkpt>
      <trkpt lat="45.79325" lon="4.98286">
        <ele>231.21667</ele>
        <time>2023-08-27T12:42:06.000Z</time>
      </trkpt>
      <trkpt lat="45.79329" lon="4.98285">
        <ele>231.17876</ele>
        <time>2023-08-27T12:42:07.000Z</time>
      </trkpt>
      <trkpt lat="45.79334" lon="4.98285">
        <ele>231.1844</ele>
        <time>2023-08-27T12:42:08.000Z</time>
      </trkpt>
      <trkpt lat="45.79337" lon="4.98283">
        <ele>231.1875</ele>
        <time>2023-08-27T12:42:09.000Z</time>
      </trkpt>
      <trkpt lat="45.79341" lon="4.98283">
        <ele>231.11795</ele>
        <time>2023-08-27T12:42:10.000Z</time>
      </trkpt>
      <trkpt lat="45.79345" lon="4.98283">
        <ele>230.96609</ele>
        <time>2023-08-27T12:42:11.000Z</time>
      </trkpt>
      <trkpt lat="45.79348" lon="4.98282">
        <ele>230.81111</ele>
        <time>2023-08-27T12:42:12.000Z</time>
      </trkpt>
      <trkpt lat="45.79352" lon="4.98281">
        <ele>230.65825</ele>
        <time>2023-08-27T12:42:13.000Z</time>
      </trkpt>
      <trkpt lat="45.79355" lon="4.98281">
        <ele>230.47688</ele>
        <time>2023-08-27T12:42:14.000Z</time>
      </trkpt>
      <trkpt lat="45.79359" lon="4.98279">
        <ele>230.31027</ele>
        <time>2023-08-27T12:42:15.000Z</time>
      </trkpt>
      <trkpt lat="45.79362" lon="4.98276">
        <ele>230.11221</ele>
        <time>2023-08-27T12:42:16.000Z</time>
      </trkpt>
      <trkpt lat="45.79365" lon="4.98272">
        <ele>229.89844</ele>
        <time>2023-08-27T12:42:17.000Z</time>
      </trkpt>
      <trkpt lat="45.79365" lon="4.98263">
        <ele>229.68596</ele>
        <time>2023-08-27T12:42:18.000Z</time>
      </trkpt>
      <trkpt lat="45.79365" lon="4.98257">
        <ele>229.60379</ele>
        <time>2023-08-27T12:42:19.000Z</time>
      </trkpt>
      <trkpt lat="45.79365" lon="4.98251">
        <ele>229.52705</ele>
        <time>2023-08-27T12:42:20.000Z</time>
      </trkpt>
      <trkpt lat="45.79365" lon="4.98245">
        <ele>229.4604</ele>
        <time>2023-08-27T12:42:21.000Z</time>
      </trkpt>
      <trkpt lat="45.79365" lon="4.98238">
        <ele>229.39453</ele>
        <time>2023-08-27T12:42:22.000Z</time>
      </trkpt>
      <trkpt lat="45.79365" lon="4.98232">
        <ele>229.3134</ele>
        <time>2023-08-27T12:42:23.000Z</time>
      </trkpt>
      <trkpt lat="45.79365" lon="4.98226">
        <ele>229.31291</ele>
        <time>2023-08-27T12:42:24.000Z</time>
      </trkpt>
      <trkpt lat="45.79365" lon="4.98219">
        <ele>229.28311</ele>
        <time>2023-08-27T12:42:25.000Z</time>
      </trkpt>
      <trkpt lat="45.79366" lon="4.98212">
        <ele>229.26289</ele>
        <time>2023-08-27T12:42:26.000Z</time>
      </trkpt>
      <trkpt lat="45.79366" lon="4.98206">
        <ele>229.26448</ele>
        <time>2023-08-27T12:42:27.000Z</time>
      </trkpt>
      <trkpt lat="45.79367" lon="4.98199">
        <ele>229.23679</ele>
        <time>2023-08-27T12:42:28.000Z</time>
      </trkpt>
      <trkpt lat="45.79368" lon="4.98193">
        <ele>229.14969</ele>
        <time>2023-08-27T12:42:29.000Z</time>
      </trkpt>
      <trkpt lat="45.79368" lon="4.98187">
        <ele>229.02405</ele>
        <time>2023-08-27T12:42:30.000Z</time>
      </trkpt>
      <trkpt lat="45.79368" lon="4.98181">
        <ele>228.97025</ele>
        <time>2023-08-27T12:42:31.000Z</time>
      </trkpt>
      <trkpt lat="45.79369" lon="4.98175">
        <ele>228.92546</ele>
        <time>2023-08-27T12:42:32.000Z</time>
      </trkpt>
      <trkpt lat="45.79369" lon="4.98168">
        <ele>228.89209</ele>
        <time>2023-08-27T12:42:33.000Z</time>
      </trkpt>
      <trkpt lat="45.7937" lon="4.98162">
        <ele>228.86459</ele>
        <time>2023-08-27T12:42:34.000Z</time>
      </trkpt>
      <trkpt lat="45.7937" lon="4.98156">
        <ele>228.85336</ele>
        <time>2023-08-27T12:42:35.000Z</time>
      </trkpt>
      <trkpt lat="45.79371" lon="4.98151">
        <ele>228.85649</ele>
        <time>2023-08-27T12:42:36.000Z</time>
      </trkpt>
      <trkpt lat="45.79372" lon="4.98145">
        <ele>228.88074</ele>
        <time>2023-08-27T12:42:37.000Z</time>
      </trkpt>
      <trkpt lat="45.79372" lon="4.9814">
        <ele>228.89929</ele>
        <time>2023-08-27T12:42:38.000Z</time>
      </trkpt>
      <trkpt lat="45.79373" lon="4.98134">
        <ele>228.81583</ele>
        <time>2023-08-27T12:42:39.000Z</time>
      </trkpt>
      <trkpt lat="45.79373" lon="4.98128">
        <ele>228.72034</ele>
        <time>2023-08-27T12:42:40.000Z</time>
      </trkpt>
      <trkpt lat="45.79374" lon="4.98123">
        <ele>228.61328</ele>
        <time>2023-08-27T12:42:41.000Z</time>
      </trkpt>
      <trkpt lat="45.79375" lon="4.98117">
        <ele>228.5126</ele>
        <time>2023-08-27T12:42:42.000Z</time>
      </trkpt>
      <trkpt lat="45.79376" lon="4.98112">
        <ele>228.43411</ele>
        <time>2023-08-27T12:42:43.000Z</time>
      </trkpt>
      <trkpt lat="45.79376" lon="4.98107">
        <ele>228.36739</ele>
        <time>2023-08-27T12:42:44.000Z</time>
      </trkpt>
      <trkpt lat="45.79377" lon="4.98101">
        <ele>228.32059</ele>
        <time>2023-08-27T12:42:45.000Z</time>
      </trkpt>
      <trkpt lat="45.79377" lon="4.98096">
        <ele>228.30623</ele>
        <time>2023-08-27T12:42:46.000Z</time>
      </trkpt>
      <trkpt lat="45.79376" lon="4.98092">
        <ele>228.27707</ele>
        <time>2023-08-27T12:42:47.000Z</time>
      </trkpt>
      <trkpt lat="45.79375" lon="4.98087">
        <ele>228.26782</ele>
        <time>2023-08-27T12:42:48.000Z</time>
      </trkpt>
      <trkpt lat="45.79373" lon="4.98082">
        <ele>228.3055</ele>
        <time>2023-08-27T12:42:49.000Z</time>
      </trkpt>
      <trkpt lat="45.79371" lon="4.98078">
        <ele>228.38956</ele>
        <time>2023-08-27T12:42:50.000Z</time>
      </trkpt>
      <trkpt lat="45.79369" lon="4.98074">
        <ele>228.47659</ele>
        <time>2023-08-27T12:42:51.000Z</time>
      </trkpt>
      <trkpt lat="45.79367" lon="4.98069">
        <ele>228.58565</ele>
        <time>2023-08-27T12:42:52.000Z</time>
      </trkpt>
      <trkpt lat="45.79366" lon="4.98064">
        <ele>228.69531</ele>
        <time>2023-08-27T12:42:53.000Z</time>
      </trkpt>
      <trkpt lat="45.79366" lon="4.98059">
        <ele>228.81738</ele>
        <time>2023-08-27T12:42:54.000Z</time>
      </trkpt>
      <trkpt lat="45.79366" lon="4.98055">
        <ele>228.93478</ele>
        <time>2023-08-27T12:42:55.000Z</time>
      </trkpt>
      <trkpt lat="45.79366" lon="4.9805">
        <ele>229.0679</ele>
        <time>2023-08-27T12:42:56.000Z</time>
      </trkpt>
      <trkpt lat="45.79367" lon="4.98044">
        <ele>229.19844</ele>
        <time>2023-08-27T12:42:57.000Z</time>
      </trkpt>
      <trkpt lat="45.79367" lon="4.98038">
        <ele>229.30185</ele>
        <time>2023-08-27T12:42:58.000Z</time>
      </trkpt>
      <trkpt lat="45.79368" lon="4.98033">
        <ele>229.40366</ele>
        <time>2023-08-27T12:42:59.000Z</time>
      </trkpt>
      <trkpt lat="45.79368" lon="4.98028">
        <ele>229.52823</ele>
        <time>2023-08-27T12:43:00.000Z</time>
      </trkpt>
      <trkpt lat="45.79368" lon="4.98023">
        <ele>229.62802</ele>
        <time>2023-08-27T12:43:01.000Z</time>
      </trkpt>
      <trkpt lat="45.79369" lon="4.98018">
        <ele>229.71553</ele>
        <time>2023-08-27T12:43:02.000Z</time>
      </trkpt>
      <trkpt lat="45.79369" lon="4.98013">
        <ele>229.77637</ele>
        <time>2023-08-27T12:43:03.000Z</time>
      </trkpt>
      <trkpt lat="45.7937" lon="4.98008">
        <ele>229.82181</ele>
        <time>2023-08-27T12:43:04.000Z</time>
      </trkpt>
      <trkpt lat="45.7937" lon="4.98003">
        <ele>229.8331</ele>
        <time>2023-08-27T12:43:05.000Z</time>
      </trkpt>
      <trkpt lat="45.7937" lon="4.97997">
        <ele>229.80258</ele>
        <time>2023-08-27T12:43:06.000Z</time>
      </trkpt>
      <trkpt lat="45.7937" lon="4.97991">
        <ele>229.7618</ele>
        <time>2023-08-27T12:43:07.000Z</time>
      </trkpt>
      <trkpt lat="45.7937" lon="4.97986">
        <ele>229.70792</ele>
        <time>2023-08-27T12:43:08.000Z</time>
      </trkpt>
      <trkpt lat="45.79371" lon="4.9798">
        <ele>229.67783</ele>
        <time>2023-08-27T12:43:09.000Z</time>
      </trkpt>
      <trkpt lat="45.79372" lon="4.97974">
        <ele>229.63864</ele>
        <time>2023-08-27T12:43:10.000Z</time>
      </trkpt>
      <trkpt lat="45.79374" lon="4.97969">
        <ele>229.58054</ele>
        <time>2023-08-27T12:43:11.000Z</time>
      </trkpt>
      <trkpt lat="45.79377" lon="4.97964">
        <ele>229.51758</ele>
        <time>2023-08-27T12:43:12.000Z</time>
      </trkpt>
      <trkpt lat="45.79379" lon="4.97959">
        <ele>229.46927</ele>
        <time>2023-08-27T12:43:13.000Z</time>
      </trkpt>
      <trkpt lat="45.79382" lon="4.97954">
        <ele>229.42867</ele>
        <time>2023-08-27T12:43:14.000Z</time>
      </trkpt>
      <trkpt lat="45.79385" lon="4.9795">
        <ele>229.3604</ele>
        <time>2023-08-27T12:43:15.000Z</time>
      </trkpt>
      <trkpt lat="45.79388" lon="4.97945">
        <ele>229.28545</ele>
        <time>2023-08-27T12:43:16.000Z</time>
      </trkpt>
      <trkpt lat="45.79391" lon="4.97941">
        <ele>229.22253</ele>
        <time>2023-08-27T12:43:17.000Z</time>
      </trkpt>
      <trkpt lat="45.79394" lon="4.97937">
        <ele>229.17993</ele>
        <time>2023-08-27T12:43:18.000Z</time>
      </trkpt>
      <trkpt lat="45.79396" lon="4.97934">
        <ele>229.15862</ele>
        <time>2023-08-27T12:43:19.000Z</time>
      </trkpt>
      <trkpt lat="45.79399" lon="4.9793">
        <ele>229.11673</ele>
        <time>2023-08-27T12:43:20.000Z</time>
      </trkpt>
      <trkpt lat="45.79403" lon="4.97927">
        <ele>229.10266</ele>
        <time>2023-08-27T12:43:21.000Z</time>
      </trkpt>
      <trkpt lat="45.79406" lon="4.97923">
        <ele>229.09036</ele>
        <time>2023-08-27T12:43:22.000Z</time>
      </trkpt>
      <trkpt lat="45.79409" lon="4.97921">
        <ele>229.09367</ele>
        <time>2023-08-27T12:43:23.000Z</time>
      </trkpt>
      <trkpt lat="45.79413" lon="4.97918">
        <ele>229.11609</ele>
        <time>2023-08-27T12:43:24.000Z</time>
      </trkpt>
      <trkpt lat="45.79416" lon="4.97916">
        <ele>229.16777</ele>
        <time>2023-08-27T12:43:25.000Z</time>
      </trkpt>
      <trkpt lat="45.7942" lon="4.97914">
        <ele>229.23442</ele>
        <time>2023-08-27T12:43:26.000Z</time>
      </trkpt>
      <trkpt lat="45.79422" lon="4.97912">
        <ele>229.2812</ele>
        <time>2023-08-27T12:43:27.000Z</time>
      </trkpt>
      <trkpt lat="45.79425" lon="4.97909">
        <ele>229.34567</ele>
        <time>2023-08-27T12:43:28.000Z</time>
      </trkpt>
      <trkpt lat="45.79428" lon="4.97906">
        <ele>229.41743</ele>
        <time>2023-08-27T12:43:29.000Z</time>
      </trkpt>
      <trkpt lat="45.79431" lon="4.97903">
        <ele>229.4998</ele>
        <time>2023-08-27T12:43:30.000Z</time>
      </trkpt>
      <trkpt lat="45.79434" lon="4.979">
        <ele>229.59363</ele>
        <time>2023-08-27T12:43:31.000Z</time>
      </trkpt>
      <trkpt lat="45.79437" lon="4.97898">
        <ele>229.66919</ele>
        <time>2023-08-27T12:43:32.000Z</time>
      </trkpt>
      <trkpt lat="45.7944" lon="4.97895">
        <ele>229.7323</ele>
        <time>2023-08-27T12:43:33.000Z</time>
      </trkpt>
      <trkpt lat="45.79443" lon="4.97892">
        <ele>229.76794</ele>
        <time>2023-08-27T12:43:34.000Z</time>
      </trkpt>
      <trkpt lat="45.79446" lon="4.97888">
        <ele>229.82385</ele>
        <time>2023-08-27T12:43:35.000Z</time>
      </trkpt>
      <trkpt lat="45.79449" lon="4.97885">
        <ele>229.90056</ele>
        <time>2023-08-27T12:43:36.000Z</time>
      </trkpt>
      <trkpt lat="45.79451" lon="4.97882">
        <ele>229.98743</ele>
        <time>2023-08-27T12:43:37.000Z</time>
      </trkpt>
      <trkpt lat="45.79454" lon="4.9788">
        <ele>230.07434</ele>
        <time>2023-08-27T12:43:38.000Z</time>
      </trkpt>
      <trkpt lat="45.79457" lon="4.97879">
        <ele>230.15804</ele>
        <time>2023-08-27T12:43:39.000Z</time>
      </trkpt>
      <trkpt lat="45.7946" lon="4.97877">
        <ele>230.23755</ele>
        <time>2023-08-27T12:43:40.000Z</time>
      </trkpt>
      <trkpt lat="45.79465" lon="4.97875">
        <ele>230.26909</ele>
        <time>2023-08-27T12:43:41.000Z</time>
      </trkpt>
      <trkpt lat="45.79468" lon="4.97873">
        <ele>230.31192</ele>
        <time>2023-08-27T12:43:42.000Z</time>
      </trkpt>
      <trkpt lat="45.79471" lon="4.97872">
        <ele>230.31656</ele>
        <time>2023-08-27T12:43:43.000Z</time>
      </trkpt>
      <trkpt lat="45.79475" lon="4.9787">
        <ele>230.24484</ele>
        <time>2023-08-27T12:43:44.000Z</time>
      </trkpt>
      <trkpt lat="45.79479" lon="4.97869">
        <ele>230.15654</ele>
        <time>2023-08-27T12:43:45.000Z</time>
      </trkpt>
      <trkpt lat="45.79483" lon="4.97868">
        <ele>230.05469</ele>
        <time>2023-08-27T12:43:46.000Z</time>
      </trkpt>
      <trkpt lat="45.79487" lon="4.97867">
        <ele>229.97559</ele>
        <time>2023-08-27T12:43:47.000Z</time>
      </trkpt>
      <trkpt lat="45.79491" lon="4.97865">
        <ele>229.86104</ele>
        <time>2023-08-27T12:43:48.000Z</time>
      </trkpt>
      <trkpt lat="45.79496" lon="4.97864">
        <ele>229.7139</ele>
        <time>2023-08-27T12:43:49.000Z</time>
      </trkpt>
      <trkpt lat="45.795" lon="4.97863">
        <ele>229.56516</ele>
        <time>2023-08-27T12:43:50.000Z</time>
      </trkpt>
      <trkpt lat="45.79504" lon="4.97862">
        <ele>229.43596</ele>
        <time>2023-08-27T12:43:51.000Z</time>
      </trkpt>
      <trkpt lat="45.79508" lon="4.97861">
        <ele>229.3038</ele>
        <time>2023-08-27T12:43:52.000Z</time>
      </trkpt>
      <trkpt lat="45.79512" lon="4.97859">
        <ele>229.16499</ele>
        <time>2023-08-27T12:43:53.000Z</time>
      </trkpt>
      <trkpt lat="45.79517" lon="4.97858">
        <ele>229.02153</ele>
        <time>2023-08-27T12:43:54.000Z</time>
      </trkpt>
      <trkpt lat="45.79521" lon="4.97857">
        <ele>228.86296</ele>
        <time>2023-08-27T12:43:55.000Z</time>
      </trkpt>
      <trkpt lat="45.79526" lon="4.97855">
        <ele>228.64755</ele>
        <time>2023-08-27T12:43:56.000Z</time>
      </trkpt>
      <trkpt lat="45.7953" lon="4.97854">
        <ele>228.4052</ele>
        <time>2023-08-27T12:43:57.000Z</time>
      </trkpt>
      <trkpt lat="45.79535" lon="4.97852">
        <ele>228.20528</ele>
        <time>2023-08-27T12:43:58.000Z</time>
      </trkpt>
      <trkpt lat="45.79539" lon="4.97849">
        <ele>228.02737</ele>
        <time>2023-08-27T12:43:59.000Z</time>
      </trkpt>
      <trkpt lat="45.79543" lon="4.97846">
        <ele>227.87149</ele>
        <time>2023-08-27T12:44:00.000Z</time>
      </trkpt>
      <trkpt lat="45.79548" lon="4.97841">
        <ele>227.75949</ele>
        <time>2023-08-27T12:44:01.000Z</time>
      </trkpt>
      <trkpt lat="45.7955" lon="4.97835">
        <ele>227.63985</ele>
        <time>2023-08-27T12:44:02.000Z</time>
      </trkpt>
      <trkpt lat="45.79552" lon="4.97829">
        <ele>227.54819</ele>
        <time>2023-08-27T12:44:03.000Z</time>
      </trkpt>
      <trkpt lat="45.79554" lon="4.97824">
        <ele>227.53482</ele>
        <time>2023-08-27T12:44:04.000Z</time>
      </trkpt>
      <trkpt lat="45.79555" lon="4.97819">
        <ele>227.55013</ele>
        <time>2023-08-27T12:44:05.000Z</time>
      </trkpt>
      <trkpt lat="45.79556" lon="4.97814">
        <ele>227.54936</ele>
        <time>2023-08-27T12:44:06.000Z</time>
      </trkpt>
      <trkpt lat="45.79557" lon="4.97809">
        <ele>227.5228</ele>
        <time>2023-08-27T12:44:07.000Z</time>
      </trkpt>
      <trkpt lat="45.79559" lon="4.97804">
        <ele>227.52676</ele>
        <time>2023-08-27T12:44:08.000Z</time>
      </trkpt>
      <trkpt lat="45.79561" lon="4.97801">
        <ele>227.54781</ele>
        <time>2023-08-27T12:44:09.000Z</time>
      </trkpt>
      <trkpt lat="45.79563" lon="4.97797">
        <ele>227.59843</ele>
        <time>2023-08-27T12:44:10.000Z</time>
      </trkpt>
      <trkpt lat="45.79566" lon="4.97795">
        <ele>227.64209</ele>
        <time>2023-08-27T12:44:11.000Z</time>
      </trkpt>
      <trkpt lat="45.79569" lon="4.97794">
        <ele>227.68359</ele>
        <time>2023-08-27T12:44:12.000Z</time>
      </trkpt>
      <trkpt lat="45.79573" lon="4.97793">
        <ele>227.72983</ele>
        <time>2023-08-27T12:44:13.000Z</time>
      </trkpt>
      <trkpt lat="45.79576" lon="4.97791">
        <ele>227.77957</ele>
        <time>2023-08-27T12:44:14.000Z</time>
      </trkpt>
      <trkpt lat="45.79579" lon="4.9779">
        <ele>227.84457</ele>
        <time>2023-08-27T12:44:15.000Z</time>
      </trkpt>
      <trkpt lat="45.79582" lon="4.97787">
        <ele>227.97237</ele>
        <time>2023-08-27T12:44:16.000Z</time>
      </trkpt>
      <trkpt lat="45.79584" lon="4.97784">
        <ele>228.127</ele>
        <time>2023-08-27T12:44:17.000Z</time>
      </trkpt>
      <trkpt lat="45.79587" lon="4.9778">
        <ele>228.25864</ele>
        <time>2023-08-27T12:44:18.000Z</time>
      </trkpt>
      <trkpt lat="45.79589" lon="4.97775">
        <ele>228.33707</ele>
        <time>2023-08-27T12:44:19.000Z</time>
      </trkpt>
      <trkpt lat="45.79591" lon="4.9777">
        <ele>228.37415</ele>
        <time>2023-08-27T12:44:20.000Z</time>
      </trkpt>
      <trkpt lat="45.79593" lon="4.97765">
        <ele>228.40645</ele>
        <time>2023-08-27T12:44:21.000Z</time>
      </trkpt>
      <trkpt lat="45.79596" lon="4.9776">
        <ele>228.45755</ele>
        <time>2023-08-27T12:44:22.000Z</time>
      </trkpt>
      <trkpt lat="45.79598" lon="4.97756">
        <ele>228.49873</ele>
        <time>2023-08-27T12:44:23.000Z</time>
      </trkpt>
      <trkpt lat="45.79601" lon="4.97752">
        <ele>228.55127</ele>
        <time>2023-08-27T12:44:24.000Z</time>
      </trkpt>
      <trkpt lat="45.79605" lon="4.97747">
        <ele>228.58208</ele>
        <time>2023-08-27T12:44:25.000Z</time>
      </trkpt>
      <trkpt lat="45.79608" lon="4.97743">
        <ele>228.64827</ele>
        <time>2023-08-27T12:44:26.000Z</time>
      </trkpt>
      <trkpt lat="45.7961" lon="4.97739">
        <ele>228.74019</ele>
        <time>2023-08-27T12:44:27.000Z</time>
      </trkpt>
      <trkpt lat="45.79613" lon="4.97736">
        <ele>228.82779</ele>
        <time>2023-08-27T12:44:28.000Z</time>
      </trkpt>
      <trkpt lat="45.79616" lon="4.97733">
        <ele>228.92935</ele>
        <time>2023-08-27T12:44:29.000Z</time>
      </trkpt>
      <trkpt lat="45.7962" lon="4.9773">
        <ele>228.97945</ele>
        <time>2023-08-27T12:44:30.000Z</time>
      </trkpt>
      <trkpt lat="45.79624" lon="4.97726">
        <ele>229.04175</ele>
        <time>2023-08-27T12:44:31.000Z</time>
      </trkpt>
      <trkpt lat="45.79628" lon="4.97723">
        <ele>229.1283</ele>
        <time>2023-08-27T12:44:32.000Z</time>
      </trkpt>
      <trkpt lat="45.7963" lon="4.97719">
        <ele>229.19173</ele>
        <time>2023-08-27T12:44:33.000Z</time>
      </trkpt>
      <trkpt lat="45.79632" lon="4.97714">
        <ele>229.29306</ele>
        <time>2023-08-27T12:44:34.000Z</time>
      </trkpt>
      <trkpt lat="45.79634" lon="4.97709">
        <ele>229.38562</ele>
        <time>2023-08-27T12:44:35.000Z</time>
      </trkpt>
      <trkpt lat="45.79636" lon="4.97705">
        <ele>229.45898</ele>
        <time>2023-08-27T12:44:36.000Z</time>
      </trkpt>
      <trkpt lat="45.79638" lon="4.977">
        <ele>229.49069</ele>
        <time>2023-08-27T12:44:37.000Z</time>
      </trkpt>
      <trkpt lat="45.7964" lon="4.97696">
        <ele>229.48738</ele>
        <time>2023-08-27T12:44:38.000Z</time>
      </trkpt>
      <trkpt lat="45.79642" lon="4.97692">
        <ele>229.49863</ele>
        <time>2023-08-27T12:44:39.000Z</time>
      </trkpt>
      <trkpt lat="45.79643" lon="4.97688">
        <ele>229.53381</ele>
        <time>2023-08-27T12:44:40.000Z</time>
      </trkpt>
      <trkpt lat="45.79645" lon="4.97684">
        <ele>229.59</ele>
        <time>2023-08-27T12:44:41.000Z</time>
      </trkpt>
      <trkpt lat="45.79646" lon="4.97678">
        <ele>229.65186</ele>
        <time>2023-08-27T12:44:42.000Z</time>
      </trkpt>
      <trkpt lat="45.79648" lon="4.97673">
        <ele>229.717</ele>
        <time>2023-08-27T12:44:43.000Z</time>
      </trkpt>
      <trkpt lat="45.7965" lon="4.97666">
        <ele>229.75166</ele>
        <time>2023-08-27T12:44:44.000Z</time>
      </trkpt>
      <trkpt lat="45.79652" lon="4.97661">
        <ele>229.76501</ele>
        <time>2023-08-27T12:44:45.000Z</time>
      </trkpt>
      <trkpt lat="45.79654" lon="4.97656">
        <ele>229.75766</ele>
        <time>2023-08-27T12:44:46.000Z</time>
      </trkpt>
      <trkpt lat="45.79655" lon="4.9765">
        <ele>229.74495</ele>
        <time>2023-08-27T12:44:47.000Z</time>
      </trkpt>
      <trkpt lat="45.79658" lon="4.97645">
        <ele>229.7384</ele>
        <time>2023-08-27T12:44:48.000Z</time>
      </trkpt>
      <trkpt lat="45.7966" lon="4.97641">
        <ele>229.71309</ele>
        <time>2023-08-27T12:44:49.000Z</time>
      </trkpt>
      <trkpt lat="45.79662" lon="4.97637">
        <ele>229.66858</ele>
        <time>2023-08-27T12:44:50.000Z</time>
      </trkpt>
      <trkpt lat="45.79664" lon="4.97633">
        <ele>229.64331</ele>
        <time>2023-08-27T12:44:51.000Z</time>
      </trkpt>
      <trkpt lat="45.79667" lon="4.9763">
        <ele>229.61406</ele>
        <time>2023-08-27T12:44:52.000Z</time>
      </trkpt>
      <trkpt lat="45.7967" lon="4.97627">
        <ele>229.62589</ele>
        <time>2023-08-27T12:44:53.000Z</time>
      </trkpt>
      <trkpt lat="45.79672" lon="4.97625">
        <ele>229.61926</ele>
        <time>2023-08-27T12:44:54.000Z</time>
      </trkpt>
      <trkpt lat="45.79675" lon="4.97624">
        <ele>229.65146</ele>
        <time>2023-08-27T12:44:55.000Z</time>
      </trkpt>
      <trkpt lat="45.79679" lon="4.97622">
        <ele>229.66861</ele>
        <time>2023-08-27T12:44:56.000Z</time>
      </trkpt>
      <trkpt lat="45.79682" lon="4.9762">
        <ele>229.72417</ele>
        <time>2023-08-27T12:44:57.000Z</time>
      </trkpt>
      <trkpt lat="45.79685" lon="4.97619">
        <ele>229.83635</ele>
        <time>2023-08-27T12:44:58.000Z</time>
      </trkpt>
      <trkpt lat="45.79688" lon="4.97617">
        <ele>229.9556</ele>
        <time>2023-08-27T12:44:59.000Z</time>
      </trkpt>
      <trkpt lat="45.79692" lon="4.97616">
        <ele>230.09773</ele>
        <time>2023-08-27T12:45:00.000Z</time>
      </trkpt>
      <trkpt lat="45.79695" lon="4.97615">
        <ele>230.20129</ele>
        <time>2023-08-27T12:45:01.000Z</time>
      </trkpt>
      <trkpt lat="45.79699" lon="4.97614">
        <ele>230.27969</ele>
        <time>2023-08-27T12:45:02.000Z</time>
      </trkpt>
      <trkpt lat="45.79702" lon="4.97613">
        <ele>230.40401</ele>
        <time>2023-08-27T12:45:03.000Z</time>
      </trkpt>
      <trkpt lat="45.79705" lon="4.97611">
        <ele>230.54036</ele>
        <time>2023-08-27T12:45:04.000Z</time>
      </trkpt>
      <trkpt lat="45.79708" lon="4.9761">
        <ele>230.6937</ele>
        <time>2023-08-27T12:45:05.000Z</time>
      </trkpt>
      <trkpt lat="45.79712" lon="4.97608">
        <ele>230.82458</ele>
        <time>2023-08-27T12:45:06.000Z</time>
      </trkpt>
      <trkpt lat="45.79715" lon="4.97606">
        <ele>230.95786</ele>
        <time>2023-08-27T12:45:07.000Z</time>
      </trkpt>
      <trkpt lat="45.79718" lon="4.97604">
        <ele>231.06807</ele>
        <time>2023-08-27T12:45:08.000Z</time>
      </trkpt>
      <trkpt lat="45.7972" lon="4.976">
        <ele>231.18494</ele>
        <time>2023-08-27T12:45:09.000Z</time>
      </trkpt>
      <trkpt lat="45.79722" lon="4.97597">
        <ele>231.35184</ele>
        <time>2023-08-27T12:45:10.000Z</time>
      </trkpt>
      <trkpt lat="45.79724" lon="4.97593">
        <ele>231.50613</ele>
        <time>2023-08-27T12:45:11.000Z</time>
      </trkpt>
      <trkpt lat="45.79725" lon="4.97589">
        <ele>231.6543</ele>
        <time>2023-08-27T12:45:12.000Z</time>
      </trkpt>
      <trkpt lat="45.79725" lon="4.97585">
        <ele>231.78975</ele>
        <time>2023-08-27T12:45:13.000Z</time>
      </trkpt>
      <trkpt lat="45.79725" lon="4.9758">
        <ele>231.93399</ele>
        <time>2023-08-27T12:45:14.000Z</time>
      </trkpt>
      <trkpt lat="45.79726" lon="4.97575">
        <ele>232.03745</ele>
        <time>2023-08-27T12:45:15.000Z</time>
      </trkpt>
      <trkpt lat="45.79726" lon="4.9757">
        <ele>232.12444</ele>
        <time>2023-08-27T12:45:16.000Z</time>
      </trkpt>
      <trkpt lat="45.79726" lon="4.97566">
        <ele>232.18929</ele>
        <time>2023-08-27T12:45:17.000Z</time>
      </trkpt>
      <trkpt lat="45.79727" lon="4.9756">
        <ele>232.28629</ele>
        <time>2023-08-27T12:45:18.000Z</time>
      </trkpt>
      <trkpt lat="45.79727" lon="4.97555">
        <ele>232.36948</ele>
        <time>2023-08-27T12:45:19.000Z</time>
      </trkpt>
      <trkpt lat="45.79727" lon="4.97551">
        <ele>232.42801</ele>
        <time>2023-08-27T12:45:20.000Z</time>
      </trkpt>
      <trkpt lat="45.79727" lon="4.97546">
        <ele>232.51448</ele>
        <time>2023-08-27T12:45:21.000Z</time>
      </trkpt>
      <trkpt lat="45.79727" lon="4.97541">
        <ele>232.61716</ele>
        <time>2023-08-27T12:45:22.000Z</time>
      </trkpt>
      <trkpt lat="45.79727" lon="4.97537">
        <ele>232.71037</ele>
        <time>2023-08-27T12:45:23.000Z</time>
      </trkpt>
      <trkpt lat="45.79726" lon="4.97533">
        <ele>232.78435</ele>
        <time>2023-08-27T12:45:24.000Z</time>
      </trkpt>
      <trkpt lat="45.79725" lon="4.9753">
        <ele>232.83182</ele>
        <time>2023-08-27T12:45:25.000Z</time>
      </trkpt>
      <trkpt lat="45.79724" lon="4.97525">
        <ele>232.90829</ele>
        <time>2023-08-27T12:45:26.000Z</time>
      </trkpt>
      <trkpt lat="45.79724" lon="4.9752">
        <ele>233.00327</ele>
        <time>2023-08-27T12:45:27.000Z</time>
      </trkpt>
      <trkpt lat="45.79724" lon="4.97515">
        <ele>233.10469</ele>
        <time>2023-08-27T12:45:28.000Z</time>
      </trkpt>
      <trkpt lat="45.79725" lon="4.9751">
        <ele>233.15549</ele>
        <time>2023-08-27T12:45:29.000Z</time>
      </trkpt>
      <trkpt lat="45.79725" lon="4.97505">
        <ele>233.17619</ele>
        <time>2023-08-27T12:45:30.000Z</time>
      </trkpt>
      <trkpt lat="45.79725" lon="4.975">
        <ele>233.18692</ele>
        <time>2023-08-27T12:45:31.000Z</time>
      </trkpt>
      <trkpt lat="45.79726" lon="4.97495">
        <ele>233.15495</ele>
        <time>2023-08-27T12:45:32.000Z</time>
      </trkpt>
      <trkpt lat="45.79726" lon="4.9749">
        <ele>233.11377</ele>
        <time>2023-08-27T12:45:33.000Z</time>
      </trkpt>
      <trkpt lat="45.79726" lon="4.97486">
        <ele>233.05522</ele>
        <time>2023-08-27T12:45:34.000Z</time>
      </trkpt>
      <trkpt lat="45.79726" lon="4.9748">
        <ele>233.02148</ele>
        <time>2023-08-27T12:45:35.000Z</time>
      </trkpt>
      <trkpt lat="45.79725" lon="4.97475">
        <ele>233.00212</ele>
        <time>2023-08-27T12:45:36.000Z</time>
      </trkpt>
      <trkpt lat="45.79724" lon="4.97469">
        <ele>233.00977</ele>
        <time>2023-08-27T12:45:37.000Z</time>
      </trkpt>
      <trkpt lat="45.79724" lon="4.97463">
        <ele>232.97563</ele>
        <time>2023-08-27T12:45:38.000Z</time>
      </trkpt>
      <trkpt lat="45.79724" lon="4.97457">
        <ele>232.93315</ele>
        <time>2023-08-27T12:45:39.000Z</time>
      </trkpt>
      <trkpt lat="45.79724" lon="4.97451">
        <ele>232.89763</ele>
        <time>2023-08-27T12:45:40.000Z</time>
      </trkpt>
      <trkpt lat="45.79724" lon="4.97445">
        <ele>232.88567</ele>
        <time>2023-08-27T12:45:41.000Z</time>
      </trkpt>
      <trkpt lat="45.79723" lon="4.9744">
        <ele>232.87552</ele>
        <time>2023-08-27T12:45:42.000Z</time>
      </trkpt>
      <trkpt lat="45.79723" lon="4.97435">
        <ele>232.8577</ele>
        <time>2023-08-27T12:45:43.000Z</time>
      </trkpt>
      <trkpt lat="45.79722" lon="4.97428">
        <ele>232.84953</ele>
        <time>2023-08-27T12:45:44.000Z</time>
      </trkpt>
      <trkpt lat="45.79721" lon="4.97422">
        <ele>232.85909</ele>
        <time>2023-08-27T12:45:45.000Z</time>
      </trkpt>
      <trkpt lat="45.7972" lon="4.97415">
        <ele>232.87508</ele>
        <time>2023-08-27T12:45:46.000Z</time>
      </trkpt>
      <trkpt lat="45.79719" lon="4.97407">
        <ele>232.86722</ele>
        <time>2023-08-27T12:45:47.000Z</time>
      </trkpt>
      <trkpt lat="45.79719" lon="4.97399">
        <ele>232.88254</ele>
        <time>2023-08-27T12:45:48.000Z</time>
      </trkpt>
      <trkpt lat="45.79718" lon="4.97394">
        <ele>232.95779</ele>
        <time>2023-08-27T12:45:49.000Z</time>
      </trkpt>
      <trkpt lat="45.79718" lon="4.97387">
        <ele>233.03784</ele>
        <time>2023-08-27T12:45:50.000Z</time>
      </trkpt>
      <trkpt lat="45.79718" lon="4.97382">
        <ele>233.10835</ele>
        <time>2023-08-27T12:45:51.000Z</time>
      </trkpt>
      <trkpt lat="45.79718" lon="4.97376">
        <ele>233.2113</ele>
        <time>2023-08-27T12:45:52.000Z</time>
      </trkpt>
      <trkpt lat="45.79717" lon="4.97369">
        <ele>233.29655</ele>
        <time>2023-08-27T12:45:53.000Z</time>
      </trkpt>
      <trkpt lat="45.79718" lon="4.97363">
        <ele>233.41391</ele>
        <time>2023-08-27T12:45:54.000Z</time>
      </trkpt>
      <trkpt lat="45.79717" lon="4.97356">
        <ele>233.51514</ele>
        <time>2023-08-27T12:45:55.000Z</time>
      </trkpt>
      <trkpt lat="45.79717" lon="4.9735">
        <ele>233.6158</ele>
        <time>2023-08-27T12:45:56.000Z</time>
      </trkpt>
      <trkpt lat="45.79717" lon="4.97344">
        <ele>233.66772</ele>
        <time>2023-08-27T12:45:57.000Z</time>
      </trkpt>
      <trkpt lat="45.79716" lon="4.97338">
        <ele>233.7001</ele>
        <time>2023-08-27T12:45:58.000Z</time>
      </trkpt>
      <trkpt lat="45.79716" lon="4.97331">
        <ele>233.78496</ele>
        <time>2023-08-27T12:45:59.000Z</time>
      </trkpt>
      <trkpt lat="45.79716" lon="4.97324">
        <ele>233.86304</ele>
        <time>2023-08-27T12:46:00.000Z</time>
      </trkpt>
      <trkpt lat="45.79715" lon="4.97317">
        <ele>233.9277</ele>
        <time>2023-08-27T12:46:01.000Z</time>
      </trkpt>
      <trkpt lat="45.79716" lon="4.9731">
        <ele>233.94585</ele>
        <time>2023-08-27T12:46:02.000Z</time>
      </trkpt>
      <trkpt lat="45.79716" lon="4.97303">
        <ele>233.91255</ele>
        <time>2023-08-27T12:46:03.000Z</time>
      </trkpt>
      <trkpt lat="45.79716" lon="4.97296">
        <ele>233.90283</ele>
        <time>2023-08-27T12:46:04.000Z</time>
      </trkpt>
      <trkpt lat="45.79718" lon="4.97291">
        <ele>233.89514</ele>
        <time>2023-08-27T12:46:05.000Z</time>
      </trkpt>
      <trkpt lat="45.79719" lon="4.97285">
        <ele>233.87598</ele>
        <time>2023-08-27T12:46:06.000Z</time>
      </trkpt>
      <trkpt lat="45.79719" lon="4.97279">
        <ele>233.8541</ele>
        <time>2023-08-27T12:46:07.000Z</time>
      </trkpt>
      <trkpt lat="45.7972" lon="4.97272">
        <ele>233.83134</ele>
        <time>2023-08-27T12:46:08.000Z</time>
      </trkpt>
      <trkpt lat="45.79719" lon="4.97266">
        <ele>233.76241</ele>
        <time>2023-08-27T12:46:09.000Z</time>
      </trkpt>
      <trkpt lat="45.79719" lon="4.97261">
        <ele>233.69797</ele>
        <time>2023-08-27T12:46:10.000Z</time>
      </trkpt>
      <trkpt lat="45.79719" lon="4.97255">
        <ele>233.65535</ele>
        <time>2023-08-27T12:46:11.000Z</time>
      </trkpt>
      <trkpt lat="45.7972" lon="4.97249">
        <ele>233.5863</ele>
        <time>2023-08-27T12:46:12.000Z</time>
      </trkpt>
      <trkpt lat="45.7972" lon="4.97242">
        <ele>233.56721</ele>
        <time>2023-08-27T12:46:13.000Z</time>
      </trkpt>
      <trkpt lat="45.79719" lon="4.97236">
        <ele>233.50867</ele>
        <time>2023-08-27T12:46:14.000Z</time>
      </trkpt>
      <trkpt lat="45.7972" lon="4.97229">
        <ele>233.4825</ele>
        <time>2023-08-27T12:46:15.000Z</time>
      </trkpt>
      <trkpt lat="45.7972" lon="4.97223">
        <ele>233.46951</ele>
        <time>2023-08-27T12:46:16.000Z</time>
      </trkpt>
      <trkpt lat="45.79719" lon="4.97217">
        <ele>233.45821</ele>
        <time>2023-08-27T12:46:17.000Z</time>
      </trkpt>
      <trkpt lat="45.79718" lon="4.97211">
        <ele>233.45078</ele>
        <time>2023-08-27T12:46:18.000Z</time>
      </trkpt>
      <trkpt lat="45.79717" lon="4.97205">
        <ele>233.42729</ele>
        <time>2023-08-27T12:46:19.000Z</time>
      </trkpt>
      <trkpt lat="45.79715" lon="4.97199">
        <ele>233.40987</ele>
        <time>2023-08-27T12:46:20.000Z</time>
      </trkpt>
      <trkpt lat="45.79713" lon="4.97195">
        <ele>233.35078</ele>
        <time>2023-08-27T12:46:21.000Z</time>
      </trkpt>
      <trkpt lat="45.79711" lon="4.9719">
        <ele>233.325</ele>
        <time>2023-08-27T12:46:22.000Z</time>
      </trkpt>
      <trkpt lat="45.7971" lon="4.97184">
        <ele>233.32271</ele>
        <time>2023-08-27T12:46:23.000Z</time>
      </trkpt>
      <trkpt lat="45.79708" lon="4.97178">
        <ele>233.30965</ele>
        <time>2023-08-27T12:46:24.000Z</time>
      </trkpt>
      <trkpt lat="45.79705" lon="4.97174">
        <ele>233.28702</ele>
        <time>2023-08-27T12:46:25.000Z</time>
      </trkpt>
      <trkpt lat="45.79703" lon="4.9717">
        <ele>233.26176</ele>
        <time>2023-08-27T12:46:26.000Z</time>
      </trkpt>
      <trkpt lat="45.797" lon="4.97167">
        <ele>233.2529</ele>
        <time>2023-08-27T12:46:27.000Z</time>
      </trkpt>
      <trkpt lat="45.79699" lon="4.97161">
        <ele>233.21704</ele>
        <time>2023-08-27T12:46:28.000Z</time>
      </trkpt>
      <trkpt lat="45.79696" lon="4.97155">
        <ele>233.16953</ele>
        <time>2023-08-27T12:46:29.000Z</time>
      </trkpt>
      <trkpt lat="45.79693" lon="4.97149">
        <ele>233.13252</ele>
        <time>2023-08-27T12:46:30.000Z</time>
      </trkpt>
      <trkpt lat="45.79692" lon="4.9714">
        <ele>233.10262</ele>
        <time>2023-08-27T12:46:31.000Z</time>
      </trkpt>
      <trkpt lat="45.79691" lon="4.97135">
        <ele>233.09824</ele>
        <time>2023-08-27T12:46:32.000Z</time>
      </trkpt>
      <trkpt lat="45.79688" lon="4.9713">
        <ele>233.06723</ele>
        <time>2023-08-27T12:46:33.000Z</time>
      </trkpt>
      <trkpt lat="45.79687" lon="4.97122">
        <ele>233.06436</ele>
        <time>2023-08-27T12:46:34.000Z</time>
      </trkpt>
      <trkpt lat="45.79685" lon="4.97117">
        <ele>233.04456</ele>
        <time>2023-08-27T12:46:35.000Z</time>
      </trkpt>
      <trkpt lat="45.79685" lon="4.97109">
        <ele>233.01877</ele>
        <time>2023-08-27T12:46:36.000Z</time>
      </trkpt>
      <trkpt lat="45.79685" lon="4.97103">
        <ele>233.02982</ele>
        <time>2023-08-27T12:46:37.000Z</time>
      </trkpt>
      <trkpt lat="45.79686" lon="4.97097">
        <ele>233.06299</ele>
        <time>2023-08-27T12:46:38.000Z</time>
      </trkpt>
      <trkpt lat="45.79687" lon="4.97091">
        <ele>232.98389</ele>
        <time>2023-08-27T12:46:39.000Z</time>
      </trkpt>
      <trkpt lat="45.79688" lon="4.97085">
        <ele>232.89278</ele>
        <time>2023-08-27T12:46:40.000Z</time>
      </trkpt>
      <trkpt lat="45.7969" lon="4.97079">
        <ele>232.83017</ele>
        <time>2023-08-27T12:46:41.000Z</time>
      </trkpt>
      <trkpt lat="45.79691" lon="4.97075">
        <ele>232.76376</ele>
        <time>2023-08-27T12:46:42.000Z</time>
      </trkpt>
      <trkpt lat="45.79692" lon="4.9707">
        <ele>232.6843</ele>
        <time>2023-08-27T12:46:43.000Z</time>
      </trkpt>
      <trkpt lat="45.79693" lon="4.97065">
        <ele>232.58554</ele>
        <time>2023-08-27T12:46:44.000Z</time>
      </trkpt>
      <trkpt lat="45.79694" lon="4.97059">
        <ele>232.51578</ele>
        <time>2023-08-27T12:46:45.000Z</time>
      </trkpt>
      <trkpt lat="45.79696" lon="4.97053">
        <ele>232.45743</ele>
        <time>2023-08-27T12:46:46.000Z</time>
      </trkpt>
      <trkpt lat="45.79697" lon="4.97048">
        <ele>232.38889</ele>
        <time>2023-08-27T12:46:47.000Z</time>
      </trkpt>
      <trkpt lat="45.79699" lon="4.97042">
        <ele>232.3187</ele>
        <time>2023-08-27T12:46:48.000Z</time>
      </trkpt>
      <trkpt lat="45.79701" lon="4.97037">
        <ele>232.28979</ele>
        <time>2023-08-27T12:46:49.000Z</time>
      </trkpt>
      <trkpt lat="45.79704" lon="4.97031">
        <ele>232.25854</ele>
        <time>2023-08-27T12:46:50.000Z</time>
      </trkpt>
      <trkpt lat="45.79707" lon="4.97026">
        <ele>232.17647</ele>
        <time>2023-08-27T12:46:51.000Z</time>
      </trkpt>
      <trkpt lat="45.7971" lon="4.97022">
        <ele>232.10088</ele>
        <time>2023-08-27T12:46:52.000Z</time>
      </trkpt>
      <trkpt lat="45.79715" lon="4.97018">
        <ele>232.01717</ele>
        <time>2023-08-27T12:46:53.000Z</time>
      </trkpt>
      <trkpt lat="45.7972" lon="4.97016">
        <ele>231.9063</ele>
        <time>2023-08-27T12:46:54.000Z</time>
      </trkpt>
      <trkpt lat="45.79726" lon="4.97015">
        <ele>231.7648</ele>
        <time>2023-08-27T12:46:55.000Z</time>
      </trkpt>
      <trkpt lat="45.7973" lon="4.97016">
        <ele>231.60783</ele>
        <time>2023-08-27T12:46:56.000Z</time>
      </trkpt>
      <trkpt lat="45.79736" lon="4.97017">
        <ele>231.42264</ele>
        <time>2023-08-27T12:46:57.000Z</time>
      </trkpt>
      <trkpt lat="45.79741" lon="4.9702">
        <ele>231.21252</ele>
        <time>2023-08-27T12:46:58.000Z</time>
      </trkpt>
      <trkpt lat="45.79745" lon="4.97021">
        <ele>231.14633</ele>
        <time>2023-08-27T12:46:59.000Z</time>
      </trkpt>
      <trkpt lat="45.79749" lon="4.97021">
        <ele>231.0253</ele>
        <time>2023-08-27T12:47:00.000Z</time>
      </trkpt>
      <trkpt lat="45.79753" lon="4.97022">
        <ele>230.91277</ele>
        <time>2023-08-27T12:47:01.000Z</time>
      </trkpt>
      <trkpt lat="45.79757" lon="4.97022">
        <ele>230.80276</ele>
        <time>2023-08-27T12:47:02.000Z</time>
      </trkpt>
      <trkpt lat="45.79762" lon="4.97021">
        <ele>230.71147</ele>
        <time>2023-08-27T12:47:03.000Z</time>
      </trkpt>
      <trkpt lat="45.79766" lon="4.97021">
        <ele>230.6385</ele>
        <time>2023-08-27T12:47:04.000Z</time>
      </trkpt>
      <trkpt lat="45.7977" lon="4.9702">
        <ele>230.56367</ele>
        <time>2023-08-27T12:47:05.000Z</time>
      </trkpt>
      <trkpt lat="45.79774" lon="4.97017">
        <ele>230.49922</ele>
        <time>2023-08-27T12:47:06.000Z</time>
      </trkpt>
      <trkpt lat="45.79777" lon="4.97012">
        <ele>230.39082</ele>
        <time>2023-08-27T12:47:07.000Z</time>
      </trkpt>
      <trkpt lat="45.79779" lon="4.97009">
        <ele>230.26884</ele>
        <time>2023-08-27T12:47:08.000Z</time>
      </trkpt>
      <trkpt lat="45.7978" lon="4.97005">
        <ele>230.1554</ele>
        <time>2023-08-27T12:47:09.000Z</time>
      </trkpt>
      <trkpt lat="45.79781" lon="4.97001">
        <ele>230.03052</ele>
        <time>2023-08-27T12:47:10.000Z</time>
      </trkpt>
      <trkpt lat="45.79783" lon="4.96997">
        <ele>229.93784</ele>
        <time>2023-08-27T12:47:11.000Z</time>
      </trkpt>
      <trkpt lat="45.79784" lon="4.96992">
        <ele>229.83432</ele>
        <time>2023-08-27T12:47:12.000Z</time>
      </trkpt>
      <trkpt lat="45.79785" lon="4.96987">
        <ele>229.7421</ele>
        <time>2023-08-27T12:47:13.000Z</time>
      </trkpt>
      <trkpt lat="45.79785" lon="4.96983">
        <ele>229.64932</ele>
        <time>2023-08-27T12:47:14.000Z</time>
      </trkpt>
      <trkpt lat="45.79786" lon="4.96979">
        <ele>229.56445</ele>
        <time>2023-08-27T12:47:15.000Z</time>
      </trkpt>
      <trkpt lat="45.79786" lon="4.96976">
        <ele>229.50793</ele>
        <time>2023-08-27T12:47:16.000Z</time>
      </trkpt>
      <trkpt lat="45.79786" lon="4.96973">
        <ele>229.46408</ele>
        <time>2023-08-27T12:47:17.000Z</time>
      </trkpt>
      <trkpt lat="45.79786" lon="4.96969">
        <ele>229.42307</ele>
        <time>2023-08-27T12:47:18.000Z</time>
      </trkpt>
      <trkpt lat="45.79786" lon="4.96966">
        <ele>229.32976</ele>
        <time>2023-08-27T12:47:19.000Z</time>
      </trkpt>
      <trkpt lat="45.79787" lon="4.96963">
        <ele>229.31538</ele>
        <time>2023-08-27T12:47:20.000Z</time>
      </trkpt>
      <trkpt lat="45.79787" lon="4.96959">
        <ele>229.30168</ele>
        <time>2023-08-27T12:47:21.000Z</time>
      </trkpt>
      <trkpt lat="45.79788" lon="4.96956">
        <ele>229.28459</ele>
        <time>2023-08-27T12:47:22.000Z</time>
      </trkpt>
      <trkpt lat="45.79788" lon="4.96954">
        <ele>229.26901</ele>
        <time>2023-08-27T12:47:23.000Z</time>
      </trkpt>
      <trkpt lat="45.79789" lon="4.96951">
        <ele>229.22314</ele>
        <time>2023-08-27T12:47:24.000Z</time>
      </trkpt>
      <trkpt lat="45.79789" lon="4.96948">
        <ele>229.18787</ele>
        <time>2023-08-27T12:47:25.000Z</time>
      </trkpt>
      <trkpt lat="45.79789" lon="4.96945">
        <ele>229.13704</ele>
        <time>2023-08-27T12:47:26.000Z</time>
      </trkpt>
      <trkpt lat="45.7979" lon="4.96941">
        <ele>229.12936</ele>
        <time>2023-08-27T12:47:27.000Z</time>
      </trkpt>
      <trkpt lat="45.7979" lon="4.96938">
        <ele>229.13297</ele>
        <time>2023-08-27T12:47:28.000Z</time>
      </trkpt>
      <trkpt lat="45.7979" lon="4.96935">
        <ele>229.14111</ele>
        <time>2023-08-27T12:47:29.000Z</time>
      </trkpt>
      <trkpt lat="45.79791" lon="4.96932">
        <ele>229.15015</ele>
        <time>2023-08-27T12:47:30.000Z</time>
      </trkpt>
      <trkpt lat="45.79793" lon="4.9693">
        <ele>229.17114</ele>
        <time>2023-08-27T12:47:31.000Z</time>
      </trkpt>
      <trkpt lat="45.79795" lon="4.9693">
        <ele>229.20828</ele>
        <time>2023-08-27T12:47:32.000Z</time>
      </trkpt>
      <trkpt lat="45.79798" lon="4.96932">
        <ele>229.23357</ele>
        <time>2023-08-27T12:47:33.000Z</time>
      </trkpt>
      <trkpt lat="45.79801" lon="4.96933">
        <ele>229.25821</ele>
        <time>2023-08-27T12:47:34.000Z</time>
      </trkpt>
      <trkpt lat="45.79803" lon="4.96935">
        <ele>229.31848</ele>
        <time>2023-08-27T12:47:35.000Z</time>
      </trkpt>
      <trkpt lat="45.79805" lon="4.96936">
        <ele>229.35542</ele>
        <time>2023-08-27T12:47:36.000Z</time>
      </trkpt>
      <trkpt lat="45.79806" lon="4.96939">
        <ele>229.38339</ele>
        <time>2023-08-27T12:47:37.000Z</time>
      </trkpt>
      <trkpt lat="45.79807" lon="4.96941">
        <ele>229.4072</ele>
        <time>2023-08-27T12:47:38.000Z</time>
      </trkpt>
      <trkpt lat="45.79808" lon="4.96944">
        <ele>229.42953</ele>
        <time>2023-08-27T12:47:39.000Z</time>
      </trkpt>
      <trkpt lat="45.79809" lon="4.96948">
        <ele>229.4368</ele>
        <time>2023-08-27T12:47:40.000Z</time>
      </trkpt>
      <trkpt lat="45.79809" lon="4.96951">
        <ele>229.42619</ele>
        <time>2023-08-27T12:47:41.000Z</time>
      </trkpt>
      <trkpt lat="45.7981" lon="4.96954">
        <ele>229.42773</ele>
        <time>2023-08-27T12:47:42.000Z</time>
      </trkpt>
      <trkpt lat="45.7981" lon="4.96958">
        <ele>229.43628</ele>
        <time>2023-08-27T12:47:43.000Z</time>
      </trkpt>
      <trkpt lat="45.79811" lon="4.96961">
        <ele>229.44975</ele>
        <time>2023-08-27T12:47:44.000Z</time>
      </trkpt>
      <trkpt lat="45.79811" lon="4.96964">
        <ele>229.45601</ele>
        <time>2023-08-27T12:47:45.000Z</time>
      </trkpt>
      <trkpt lat="45.79813" lon="4.96967">
        <ele>229.47331</ele>
        <time>2023-08-27T12:47:46.000Z</time>
      </trkpt>
      <trkpt lat="45.79815" lon="4.96969">
        <ele>229.48076</ele>
        <time>2023-08-27T12:47:47.000Z</time>
      </trkpt>
      <trkpt lat="45.79817" lon="4.96969">
        <ele>229.51299</ele>
        <time>2023-08-27T12:47:48.000Z</time>
      </trkpt>
      <trkpt lat="45.7982" lon="4.96969">
        <ele>229.53699</ele>
        <time>2023-08-27T12:47:49.000Z</time>
      </trkpt>
      <trkpt lat="45.79823" lon="4.96969">
        <ele>229.56714</ele>
        <time>2023-08-27T12:47:50.000Z</time>
      </trkpt>
      <trkpt lat="45.79826" lon="4.96968">
        <ele>229.56584</ele>
        <time>2023-08-27T12:47:51.000Z</time>
      </trkpt>
      <trkpt lat="45.79829" lon="4.96968">
        <ele>229.54813</ele>
        <time>2023-08-27T12:47:52.000Z</time>
      </trkpt>
      <trkpt lat="45.79832" lon="4.96968">
        <ele>229.52608</ele>
        <time>2023-08-27T12:47:53.000Z</time>
      </trkpt>
      <trkpt lat="45.79835" lon="4.96968">
        <ele>229.51221</ele>
        <time>2023-08-27T12:47:54.000Z</time>
      </trkpt>
      <trkpt lat="45.79838" lon="4.96968">
        <ele>229.47412</ele>
        <time>2023-08-27T12:47:55.000Z</time>
      </trkpt>
      <trkpt lat="45.79841" lon="4.96968">
        <ele>229.45029</ele>
        <time>2023-08-27T12:47:56.000Z</time>
      </trkpt>
      <trkpt lat="45.79844" lon="4.96967">
        <ele>229.42529</ele>
        <time>2023-08-27T12:47:57.000Z</time>
      </trkpt>
      <trkpt lat="45.79847" lon="4.96967">
        <ele>229.40979</ele>
        <time>2023-08-27T12:47:58.000Z</time>
      </trkpt>
      <trkpt lat="45.79851" lon="4.96967">
        <ele>229.38135</ele>
        <time>2023-08-27T12:47:59.000Z</time>
      </trkpt>
      <trkpt lat="45.79854" lon="4.96968">
        <ele>229.3531</ele>
        <time>2023-08-27T12:48:00.000Z</time>
      </trkpt>
      <trkpt lat="45.79857" lon="4.96968">
        <ele>229.34021</ele>
        <time>2023-08-27T12:48:01.000Z</time>
      </trkpt>
      <trkpt lat="45.7986" lon="4.96968">
        <ele>229.31914</ele>
        <time>2023-08-27T12:48:02.000Z</time>
      </trkpt>
      <trkpt lat="45.79864" lon="4.96968">
        <ele>229.29448</ele>
        <time>2023-08-27T12:48:03.000Z</time>
      </trkpt>
      <trkpt lat="45.79867" lon="4.96968">
        <ele>229.27466</ele>
        <time>2023-08-27T12:48:04.000Z</time>
      </trkpt>
      <trkpt lat="45.79871" lon="4.96969">
        <ele>229.22275</ele>
        <time>2023-08-27T12:48:05.000Z</time>
      </trkpt>
      <trkpt lat="45.79874" lon="4.96969">
        <ele>229.16231</ele>
        <time>2023-08-27T12:48:06.000Z</time>
      </trkpt>
      <trkpt lat="45.79878" lon="4.9697">
        <ele>229.09444</ele>
        <time>2023-08-27T12:48:07.000Z</time>
      </trkpt>
      <trkpt lat="45.79881" lon="4.9697">
        <ele>229.02011</ele>
        <time>2023-08-27T12:48:08.000Z</time>
      </trkpt>
      <trkpt lat="45.79884" lon="4.96971">
        <ele>228.94064</ele>
        <time>2023-08-27T12:48:09.000Z</time>
      </trkpt>
      <trkpt lat="45.79888" lon="4.96972">
        <ele>228.8586</ele>
        <time>2023-08-27T12:48:10.000Z</time>
      </trkpt>
      <trkpt lat="45.79891" lon="4.96973">
        <ele>228.78145</ele>
        <time>2023-08-27T12:48:11.000Z</time>
      </trkpt>
      <trkpt lat="45.79894" lon="4.96974">
        <ele>228.70671</ele>
        <time>2023-08-27T12:48:12.000Z</time>
      </trkpt>
      <trkpt lat="45.79897" lon="4.96975">
        <ele>228.6304</ele>
        <time>2023-08-27T12:48:13.000Z</time>
      </trkpt>
      <trkpt lat="45.799" lon="4.96975">
        <ele>228.56335</ele>
        <time>2023-08-27T12:48:14.000Z</time>
      </trkpt>
      <trkpt lat="45.79904" lon="4.96976">
        <ele>228.49637</ele>
        <time>2023-08-27T12:48:15.000Z</time>
      </trkpt>
      <trkpt lat="45.79907" lon="4.96977">
        <ele>228.44662</ele>
        <time>2023-08-27T12:48:16.000Z</time>
      </trkpt>
      <trkpt lat="45.7991" lon="4.96977">
        <ele>228.39311</ele>
        <time>2023-08-27T12:48:17.000Z</time>
      </trkpt>
      <trkpt lat="45.79913" lon="4.96978">
        <ele>228.32881</ele>
        <time>2023-08-27T12:48:18.000Z</time>
      </trkpt>
      <trkpt lat="45.79917" lon="4.96979">
        <ele>228.28731</ele>
        <time>2023-08-27T12:48:19.000Z</time>
      </trkpt>
      <trkpt lat="45.7992" lon="4.9698">
        <ele>228.22958</ele>
        <time>2023-08-27T12:48:20.000Z</time>
      </trkpt>
      <trkpt lat="45.79924" lon="4.9698">
        <ele>228.17123</ele>
        <time>2023-08-27T12:48:21.000Z</time>
      </trkpt>
      <trkpt lat="45.79927" lon="4.96981">
        <ele>228.12105</ele>
        <time>2023-08-27T12:48:22.000Z</time>
      </trkpt>
      <trkpt lat="45.7993" lon="4.96982">
        <ele>228.06534</ele>
        <time>2023-08-27T12:48:23.000Z</time>
      </trkpt>
      <trkpt lat="45.79933" lon="4.96982">
        <ele>228.02026</ele>
        <time>2023-08-27T12:48:24.000Z</time>
      </trkpt>
      <trkpt lat="45.79936" lon="4.96983">
        <ele>227.98296</ele>
        <time>2023-08-27T12:48:25.000Z</time>
      </trkpt>
      <trkpt lat="45.79939" lon="4.96984">
        <ele>227.95464</ele>
        <time>2023-08-27T12:48:26.000Z</time>
      </trkpt>
      <trkpt lat="45.79942" lon="4.96984">
        <ele>227.95247</ele>
        <time>2023-08-27T12:48:27.000Z</time>
      </trkpt>
      <trkpt lat="45.79944" lon="4.96986">
        <ele>227.95456</ele>
        <time>2023-08-27T12:48:28.000Z</time>
      </trkpt>
      <trkpt lat="45.79947" lon="4.96987">
        <ele>227.97331</ele>
        <time>2023-08-27T12:48:29.000Z</time>
      </trkpt>
      <trkpt lat="45.7995" lon="4.96988">
        <ele>227.99455</ele>
        <time>2023-08-27T12:48:30.000Z</time>
      </trkpt>
      <trkpt lat="45.79953" lon="4.9699">
        <ele>228.03133</ele>
        <time>2023-08-27T12:48:31.000Z</time>
      </trkpt>
      <trkpt lat="45.79957" lon="4.96991">
        <ele>228.07156</ele>
        <time>2023-08-27T12:48:32.000Z</time>
      </trkpt>
      <trkpt lat="45.7996" lon="4.96993">
        <ele>228.11563</ele>
        <time>2023-08-27T12:48:33.000Z</time>
      </trkpt>
      <trkpt lat="45.79963" lon="4.96995">
        <ele>228.14519</ele>
        <time>2023-08-27T12:48:34.000Z</time>
      </trkpt>
      <trkpt lat="45.79966" lon="4.96997">
        <ele>228.17302</ele>
        <time>2023-08-27T12:48:35.000Z</time>
      </trkpt>
      <trkpt lat="45.79969" lon="4.97">
        <ele>228.17062</ele>
        <time>2023-08-27T12:48:36.000Z</time>
      </trkpt>
      <trkpt lat="45.79972" lon="4.97003">
        <ele>228.17722</ele>
        <time>2023-08-27T12:48:37.000Z</time>
      </trkpt>
      <trkpt lat="45.79974" lon="4.97006">
        <ele>228.18405</ele>
        <time>2023-08-27T12:48:38.000Z</time>
      </trkpt>
      <trkpt lat="45.79977" lon="4.97009">
        <ele>228.18542</ele>
        <time>2023-08-27T12:48:39.000Z</time>
      </trkpt>
      <trkpt lat="45.79979" lon="4.97012">
        <ele>228.19693</ele>
        <time>2023-08-27T12:48:40.000Z</time>
      </trkpt>
      <trkpt lat="45.79982" lon="4.97015">
        <ele>228.19449</ele>
        <time>2023-08-27T12:48:41.000Z</time>
      </trkpt>
      <trkpt lat="45.79985" lon="4.97018">
        <ele>228.20464</ele>
        <time>2023-08-27T12:48:42.000Z</time>
      </trkpt>
      <trkpt lat="45.79987" lon="4.97021">
        <ele>228.226</ele>
        <time>2023-08-27T12:48:43.000Z</time>
      </trkpt>
      <trkpt lat="45.7999" lon="4.97025">
        <ele>228.24519</ele>
        <time>2023-08-27T12:48:44.000Z</time>
      </trkpt>
      <trkpt lat="45.79992" lon="4.97028">
        <ele>228.27705</ele>
        <time>2023-08-27T12:48:45.000Z</time>
      </trkpt>
      <trkpt lat="45.79995" lon="4.97031">
        <ele>228.31808</ele>
        <time>2023-08-27T12:48:46.000Z</time>
      </trkpt>
      <trkpt lat="45.79997" lon="4.97034">
        <ele>228.35281</ele>
        <time>2023-08-27T12:48:47.000Z</time>
      </trkpt>
      <trkpt lat="45.8" lon="4.97038">
        <ele>228.38773</ele>
        <time>2023-08-27T12:48:48.000Z</time>
      </trkpt>
      <trkpt lat="45.80002" lon="4.97041">
        <ele>228.41263</ele>
        <time>2023-08-27T12:48:49.000Z</time>
      </trkpt>
      <trkpt lat="45.80005" lon="4.97043">
        <ele>228.41745</ele>
        <time>2023-08-27T12:48:50.000Z</time>
      </trkpt>
      <trkpt lat="45.80008" lon="4.97046">
        <ele>228.42618</ele>
        <time>2023-08-27T12:48:51.000Z</time>
      </trkpt>
      <trkpt lat="45.8001" lon="4.97049">
        <ele>228.42715</ele>
        <time>2023-08-27T12:48:52.000Z</time>
      </trkpt>
      <trkpt lat="45.80013" lon="4.97052">
        <ele>228.42888</ele>
        <time>2023-08-27T12:48:53.000Z</time>
      </trkpt>
      <trkpt lat="45.80016" lon="4.97054">
        <ele>228.43745</ele>
        <time>2023-08-27T12:48:54.000Z</time>
      </trkpt>
      <trkpt lat="45.80018" lon="4.97056">
        <ele>228.43364</ele>
        <time>2023-08-27T12:48:55.000Z</time>
      </trkpt>
      <trkpt lat="45.80021" lon="4.97058">
        <ele>228.45227</ele>
        <time>2023-08-27T12:48:56.000Z</time>
      </trkpt>
      <trkpt lat="45.80024" lon="4.9706">
        <ele>228.45561</ele>
        <time>2023-08-27T12:48:57.000Z</time>
      </trkpt>
      <trkpt lat="45.80027" lon="4.97061">
        <ele>228.46745</ele>
        <time>2023-08-27T12:48:58.000Z</time>
      </trkpt>
      <trkpt lat="45.80031" lon="4.97063">
        <ele>228.48042</ele>
        <time>2023-08-27T12:48:59.000Z</time>
      </trkpt>
      <trkpt lat="45.80034" lon="4.97064">
        <ele>228.50761</ele>
        <time>2023-08-27T12:49:00.000Z</time>
      </trkpt>
      <trkpt lat="45.80037" lon="4.97065">
        <ele>228.51743</ele>
        <time>2023-08-27T12:49:01.000Z</time>
      </trkpt>
      <trkpt lat="45.80041" lon="4.97066">
        <ele>228.51285</ele>
        <time>2023-08-27T12:49:02.000Z</time>
      </trkpt>
      <trkpt lat="45.80044" lon="4.97068">
        <ele>228.50041</ele>
        <time>2023-08-27T12:49:03.000Z</time>
      </trkpt>
      <trkpt lat="45.80047" lon="4.97069">
        <ele>228.49341</ele>
        <time>2023-08-27T12:49:04.000Z</time>
      </trkpt>
      <trkpt lat="45.80051" lon="4.97069">
        <ele>228.49112</ele>
        <time>2023-08-27T12:49:05.000Z</time>
      </trkpt>
      <trkpt lat="45.80054" lon="4.9707">
        <ele>228.46391</ele>
        <time>2023-08-27T12:49:06.000Z</time>
      </trkpt>
      <trkpt lat="45.80058" lon="4.9707">
        <ele>228.44376</ele>
        <time>2023-08-27T12:49:07.000Z</time>
      </trkpt>
      <trkpt lat="45.80062" lon="4.9707">
        <ele>228.4023</ele>
        <time>2023-08-27T12:49:08.000Z</time>
      </trkpt>
      <trkpt lat="45.80065" lon="4.9707">
        <ele>228.37125</ele>
        <time>2023-08-27T12:49:09.000Z</time>
      </trkpt>
      <trkpt lat="45.80068" lon="4.9707">
        <ele>228.34799</ele>
        <time>2023-08-27T12:49:10.000Z</time>
      </trkpt>
      <trkpt lat="45.80072" lon="4.97069">
        <ele>228.3105</ele>
        <time>2023-08-27T12:49:11.000Z</time>
      </trkpt>
      <trkpt lat="45.80075" lon="4.97068">
        <ele>228.25998</ele>
        <time>2023-08-27T12:49:12.000Z</time>
      </trkpt>
      <trkpt lat="45.80079" lon="4.97067">
        <ele>228.20625</ele>
        <time>2023-08-27T12:49:13.000Z</time>
      </trkpt>
      <trkpt lat="45.80083" lon="4.97065">
        <ele>228.15421</ele>
        <time>2023-08-27T12:49:14.000Z</time>
      </trkpt>
      <trkpt lat="45.80086" lon="4.97064">
        <ele>228.11719</ele>
        <time>2023-08-27T12:49:15.000Z</time>
      </trkpt>
      <trkpt lat="45.8009" lon="4.97062">
        <ele>228.06949</ele>
        <time>2023-08-27T12:49:16.000Z</time>
      </trkpt>
      <trkpt lat="45.80093" lon="4.97061">
        <ele>228.05286</ele>
        <time>2023-08-27T12:49:17.000Z</time>
      </trkpt>
      <trkpt lat="45.80096" lon="4.97059">
        <ele>228.02115</ele>
        <time>2023-08-27T12:49:18.000Z</time>
      </trkpt>
      <trkpt lat="45.80099" lon="4.97057">
        <ele>227.98819</ele>
        <time>2023-08-27T12:49:19.000Z</time>
      </trkpt>
      <trkpt lat="45.80103" lon="4.97056">
        <ele>227.94238</ele>
        <time>2023-08-27T12:49:20.000Z</time>
      </trkpt>
      <trkpt lat="45.80106" lon="4.97055">
        <ele>227.90918</ele>
        <time>2023-08-27T12:49:21.000Z</time>
      </trkpt>
      <trkpt lat="45.8011" lon="4.97053">
        <ele>227.87741</ele>
        <time>2023-08-27T12:49:22.000Z</time>
      </trkpt>
      <trkpt lat="45.80113" lon="4.97051">
        <ele>227.85706</ele>
        <time>2023-08-27T12:49:23.000Z</time>
      </trkpt>
      <trkpt lat="45.80116" lon="4.97049">
        <ele>227.82246</ele>
        <time>2023-08-27T12:49:24.000Z</time>
      </trkpt>
      <trkpt lat="45.80119" lon="4.97047">
        <ele>227.7756</ele>
        <time>2023-08-27T12:49:25.000Z</time>
      </trkpt>
      <trkpt lat="45.80123" lon="4.97045">
        <ele>227.74002</ele>
        <time>2023-08-27T12:49:26.000Z</time>
      </trkpt>
      <trkpt lat="45.80126" lon="4.97044">
        <ele>227.70105</ele>
        <time>2023-08-27T12:49:27.000Z</time>
      </trkpt>
      <trkpt lat="45.80129" lon="4.97043">
        <ele>227.67551</ele>
        <time>2023-08-27T12:49:28.000Z</time>
      </trkpt>
      <trkpt lat="45.80133" lon="4.97042">
        <ele>227.63248</ele>
        <time>2023-08-27T12:49:29.000Z</time>
      </trkpt>
      <trkpt lat="45.80136" lon="4.97041">
        <ele>227.58725</ele>
        <time>2023-08-27T12:49:30.000Z</time>
      </trkpt>
      <trkpt lat="45.8014" lon="4.9704">
        <ele>227.54269</ele>
        <time>2023-08-27T12:49:31.000Z</time>
      </trkpt>
      <trkpt lat="45.80143" lon="4.9704">
        <ele>227.51152</ele>
        <time>2023-08-27T12:49:32.000Z</time>
      </trkpt>
      <trkpt lat="45.80146" lon="4.9704">
        <ele>227.4838</ele>
        <time>2023-08-27T12:49:33.000Z</time>
      </trkpt>
      <trkpt lat="45.80149" lon="4.9704">
        <ele>227.46097</ele>
        <time>2023-08-27T12:49:34.000Z</time>
      </trkpt>
      <trkpt lat="45.80153" lon="4.9704">
        <ele>227.4355</ele>
        <time>2023-08-27T12:49:35.000Z</time>
      </trkpt>
      <trkpt lat="45.80156" lon="4.97041">
        <ele>227.38599</ele>
        <time>2023-08-27T12:49:36.000Z</time>
      </trkpt>
      <trkpt lat="45.80159" lon="4.97042">
        <ele>227.32417</ele>
        <time>2023-08-27T12:49:37.000Z</time>
      </trkpt>
      <trkpt lat="45.80162" lon="4.97044">
        <ele>227.28764</ele>
        <time>2023-08-27T12:49:38.000Z</time>
      </trkpt>
      <trkpt lat="45.80165" lon="4.97045">
        <ele>227.28482</ele>
        <time>2023-08-27T12:49:39.000Z</time>
      </trkpt>
      <trkpt lat="45.80168" lon="4.97047">
        <ele>227.29495</ele>
        <time>2023-08-27T12:49:40.000Z</time>
      </trkpt>
      <trkpt lat="45.80171" lon="4.97048">
        <ele>227.3206</ele>
        <time>2023-08-27T12:49:41.000Z</time>
      </trkpt>
      <trkpt lat="45.80174" lon="4.9705">
        <ele>227.34077</ele>
        <time>2023-08-27T12:49:42.000Z</time>
      </trkpt>
      <trkpt lat="45.80177" lon="4.97052">
        <ele>227.35678</ele>
        <time>2023-08-27T12:49:43.000Z</time>
      </trkpt>
      <trkpt lat="45.8018" lon="4.97054">
        <ele>227.38652</ele>
        <time>2023-08-27T12:49:44.000Z</time>
      </trkpt>
      <trkpt lat="45.80183" lon="4.97056">
        <ele>227.41521</ele>
        <time>2023-08-27T12:49:45.000Z</time>
      </trkpt>
      <trkpt lat="45.80186" lon="4.97059">
        <ele>227.40498</ele>
        <time>2023-08-27T12:49:46.000Z</time>
      </trkpt>
      <trkpt lat="45.80189" lon="4.97062">
        <ele>227.38676</ele>
        <time>2023-08-27T12:49:47.000Z</time>
      </trkpt>
      <trkpt lat="45.80192" lon="4.97064">
        <ele>227.36478</ele>
        <time>2023-08-27T12:49:48.000Z</time>
      </trkpt>
      <trkpt lat="45.80194" lon="4.97067">
        <ele>227.35542</ele>
        <time>2023-08-27T12:49:49.000Z</time>
      </trkpt>
      <trkpt lat="45.80197" lon="4.97069">
        <ele>227.34604</ele>
        <time>2023-08-27T12:49:50.000Z</time>
      </trkpt>
      <trkpt lat="45.802" lon="4.97071">
        <ele>227.33073</ele>
        <time>2023-08-27T12:49:51.000Z</time>
      </trkpt>
      <trkpt lat="45.80202" lon="4.97073">
        <ele>227.31921</ele>
        <time>2023-08-27T12:49:52.000Z</time>
      </trkpt>
      <trkpt lat="45.80205" lon="4.97076">
        <ele>227.31743</ele>
        <time>2023-08-27T12:49:53.000Z</time>
      </trkpt>
      <trkpt lat="45.80208" lon="4.97078">
        <ele>227.33423</ele>
        <time>2023-08-27T12:49:54.000Z</time>
      </trkpt>
      <trkpt lat="45.8021" lon="4.97079">
        <ele>227.34988</ele>
        <time>2023-08-27T12:49:55.000Z</time>
      </trkpt>
      <trkpt lat="45.80213" lon="4.97081">
        <ele>227.38374</ele>
        <time>2023-08-27T12:49:56.000Z</time>
      </trkpt>
      <trkpt lat="45.80215" lon="4.97082">
        <ele>227.42789</ele>
        <time>2023-08-27T12:49:57.000Z</time>
      </trkpt>
      <trkpt lat="45.80219" lon="4.97083">
        <ele>227.45297</ele>
        <time>2023-08-27T12:49:58.000Z</time>
      </trkpt>
      <trkpt lat="45.80222" lon="4.97081">
        <ele>227.4343</ele>
        <time>2023-08-27T12:49:59.000Z</time>
      </trkpt>
      <trkpt lat="45.80224" lon="4.97079">
        <ele>227.40964</ele>
        <time>2023-08-27T12:50:00.000Z</time>
      </trkpt>
      <trkpt lat="45.80226" lon="4.97075">
        <ele>227.38138</ele>
        <time>2023-08-27T12:50:01.000Z</time>
      </trkpt>
      <trkpt lat="45.80229" lon="4.97073">
        <ele>227.3494</ele>
        <time>2023-08-27T12:50:02.000Z</time>
      </trkpt>
      <trkpt lat="45.80231" lon="4.97072">
        <ele>227.24556</ele>
        <time>2023-08-27T12:50:03.000Z</time>
      </trkpt>
      <trkpt lat="45.80234" lon="4.97072">
        <ele>227.14615</ele>
        <time>2023-08-27T12:50:04.000Z</time>
      </trkpt>
      <trkpt lat="45.80236" lon="4.9707">
        <ele>227.04321</ele>
        <time>2023-08-27T12:50:05.000Z</time>
      </trkpt>
      <trkpt lat="45.80237" lon="4.97066">
        <ele>226.99374</ele>
        <time>2023-08-27T12:50:06.000Z</time>
      </trkpt>
      <trkpt lat="45.80237" lon="4.97061">
        <ele>226.95833</ele>
        <time>2023-08-27T12:50:07.000Z</time>
      </trkpt>
      <trkpt lat="45.80236" lon="4.97056">
        <ele>226.92435</ele>
        <time>2023-08-27T12:50:08.000Z</time>
      </trkpt>
      <trkpt lat="45.80235" lon="4.97051">
        <ele>226.89709</ele>
        <time>2023-08-27T12:50:09.000Z</time>
      </trkpt>
      <trkpt lat="45.80234" lon="4.97046">
        <ele>226.89383</ele>
        <time>2023-08-27T12:50:10.000Z</time>
      </trkpt>
      <trkpt lat="45.80234" lon="4.97042">
        <ele>226.89755</ele>
        <time>2023-08-27T12:50:11.000Z</time>
      </trkpt>
      <trkpt lat="45.80234" lon="4.97037">
        <ele>226.9045</ele>
        <time>2023-08-27T12:50:12.000Z</time>
      </trkpt>
      <trkpt lat="45.80236" lon="4.97032">
        <ele>226.93985</ele>
        <time>2023-08-27T12:50:13.000Z</time>
      </trkpt>
      <trkpt lat="45.80238" lon="4.97028">
        <ele>226.94284</ele>
        <time>2023-08-27T12:50:14.000Z</time>
      </trkpt>
      <trkpt lat="45.8024" lon="4.97024">
        <ele>226.93945</ele>
        <time>2023-08-27T12:50:15.000Z</time>
      </trkpt>
      <trkpt lat="45.80242" lon="4.97021">
        <ele>226.94479</ele>
        <time>2023-08-27T12:50:16.000Z</time>
      </trkpt>
      <trkpt lat="45.80245" lon="4.97018">
        <ele>226.94128</ele>
        <time>2023-08-27T12:50:17.000Z</time>
      </trkpt>
      <trkpt lat="45.80247" lon="4.97015">
        <ele>226.86703</ele>
        <time>2023-08-27T12:50:18.000Z</time>
      </trkpt>
      <trkpt lat="45.8025" lon="4.97011">
        <ele>226.82756</ele>
        <time>2023-08-27T12:50:19.000Z</time>
      </trkpt>
      <trkpt lat="45.80253" lon="4.97008">
        <ele>226.76563</ele>
        <time>2023-08-27T12:50:20.000Z</time>
      </trkpt>
      <trkpt lat="45.80255" lon="4.97005">
        <ele>226.71306</ele>
        <time>2023-08-27T12:50:21.000Z</time>
      </trkpt>
      <trkpt lat="45.80257" lon="4.97001">
        <ele>226.67085</ele>
        <time>2023-08-27T12:50:22.000Z</time>
      </trkpt>
      <trkpt lat="45.80259" lon="4.96996">
        <ele>226.68701</ele>
        <time>2023-08-27T12:50:23.000Z</time>
      </trkpt>
      <trkpt lat="45.8026" lon="4.96992">
        <ele>226.71428</ele>
        <time>2023-08-27T12:50:24.000Z</time>
      </trkpt>
      <trkpt lat="45.80261" lon="4.96987">
        <ele>226.75583</ele>
        <time>2023-08-27T12:50:25.000Z</time>
      </trkpt>
      <trkpt lat="45.80263" lon="4.96982">
        <ele>226.75716</ele>
        <time>2023-08-27T12:50:26.000Z</time>
      </trkpt>
      <trkpt lat="45.80265" lon="4.96977">
        <ele>226.76028</ele>
        <time>2023-08-27T12:50:27.000Z</time>
      </trkpt>
      <trkpt lat="45.80266" lon="4.96972">
        <ele>226.76863</ele>
        <time>2023-08-27T12:50:28.000Z</time>
      </trkpt>
      <trkpt lat="45.80267" lon="4.96968">
        <ele>226.783</ele>
        <time>2023-08-27T12:50:29.000Z</time>
      </trkpt>
      <trkpt lat="45.80269" lon="4.96963">
        <ele>226.79082</ele>
        <time>2023-08-27T12:50:30.000Z</time>
      </trkpt>
      <trkpt lat="45.8027" lon="4.96959">
        <ele>226.74768</ele>
        <time>2023-08-27T12:50:31.000Z</time>
      </trkpt>
      <trkpt lat="45.80271" lon="4.96955">
        <ele>226.70699</ele>
        <time>2023-08-27T12:50:32.000Z</time>
      </trkpt>
      <trkpt lat="45.80273" lon="4.9695">
        <ele>226.62833</ele>
        <time>2023-08-27T12:50:33.000Z</time>
      </trkpt>
      <trkpt lat="45.80274" lon="4.96946">
        <ele>226.55261</ele>
        <time>2023-08-27T12:50:34.000Z</time>
      </trkpt>
      <trkpt lat="45.80275" lon="4.96942">
        <ele>226.46318</ele>
        <time>2023-08-27T12:50:35.000Z</time>
      </trkpt>
      <trkpt lat="45.80277" lon="4.96939">
        <ele>226.38152</ele>
        <time>2023-08-27T12:50:36.000Z</time>
      </trkpt>
      <trkpt lat="45.80278" lon="4.96936">
        <ele>226.31943</ele>
        <time>2023-08-27T12:50:37.000Z</time>
      </trkpt>
      <trkpt lat="45.80278" lon="4.96933">
        <ele>226.3602</ele>
        <time>2023-08-27T12:50:38.000Z</time>
      </trkpt>
      <trkpt lat="45.80278" lon="4.9693">
        <ele>226.3261</ele>
        <time>2023-08-27T12:50:39.000Z</time>
      </trkpt>
      <trkpt lat="45.80278" lon="4.96927">
        <ele>226.31595</ele>
        <time>2023-08-27T12:50:40.000Z</time>
      </trkpt>
      <trkpt lat="45.80278" lon="4.96924">
        <ele>226.29663</ele>
        <time>2023-08-27T12:50:41.000Z</time>
      </trkpt>
      <trkpt lat="45.80279" lon="4.9692">
        <ele>226.28735</ele>
        <time>2023-08-27T12:50:42.000Z</time>
      </trkpt>
      <trkpt lat="45.80279" lon="4.96917">
        <ele>226.28767</ele>
        <time>2023-08-27T12:50:43.000Z</time>
      </trkpt>
      <trkpt lat="45.80279" lon="4.96915">
        <ele>226.27193</ele>
        <time>2023-08-27T12:50:44.000Z</time>
      </trkpt>
      <trkpt lat="45.8028" lon="4.96912">
        <ele>226.25383</ele>
        <time>2023-08-27T12:50:45.000Z</time>
      </trkpt>
      <trkpt lat="45.8028" lon="4.96908">
        <ele>226.29318</ele>
        <time>2023-08-27T12:50:47.000Z</time>
      </trkpt>
      <trkpt lat="45.80281" lon="4.96904">
        <ele>226.32317</ele>
        <time>2023-08-27T12:50:49.000Z</time>
      </trkpt>
      <trkpt lat="45.80281" lon="4.96901">
        <ele>226.37788</ele>
        <time>2023-08-27T12:50:50.000Z</time>
      </trkpt>
      <trkpt lat="45.80281" lon="4.96897">
        <ele>226.43144</ele>
        <time>2023-08-27T12:50:51.000Z</time>
      </trkpt>
      <trkpt lat="45.80282" lon="4.96893">
        <ele>226.43938</ele>
        <time>2023-08-27T12:50:52.000Z</time>
      </trkpt>
      <trkpt lat="45.80282" lon="4.9689">
        <ele>226.52962</ele>
        <time>2023-08-27T12:50:53.000Z</time>
      </trkpt>
      <trkpt lat="45.80283" lon="4.96886">
        <ele>226.60043</ele>
        <time>2023-08-27T12:50:54.000Z</time>
      </trkpt>
      <trkpt lat="45.80283" lon="4.96882">
        <ele>226.70581</ele>
        <time>2023-08-27T12:50:55.000Z</time>
      </trkpt>
      <trkpt lat="45.80283" lon="4.96878">
        <ele>226.80759</ele>
        <time>2023-08-27T12:50:56.000Z</time>
      </trkpt>
      <trkpt lat="45.80284" lon="4.96874">
        <ele>226.90511</ele>
        <time>2023-08-27T12:50:57.000Z</time>
      </trkpt>
      <trkpt lat="45.80284" lon="4.96869">
        <ele>226.98019</ele>
        <time>2023-08-27T12:50:58.000Z</time>
      </trkpt>
      <trkpt lat="45.80285" lon="4.96865">
        <ele>227.00874</ele>
        <time>2023-08-27T12:50:59.000Z</time>
      </trkpt>
      <trkpt lat="45.80285" lon="4.96861">
        <ele>227.01636</ele>
        <time>2023-08-27T12:51:00.000Z</time>
      </trkpt>
      <trkpt lat="45.80286" lon="4.96856">
        <ele>227.05725</ele>
        <time>2023-08-27T12:51:01.000Z</time>
      </trkpt>
      <trkpt lat="45.80286" lon="4.96851">
        <ele>227.12862</ele>
        <time>2023-08-27T12:51:02.000Z</time>
      </trkpt>
      <trkpt lat="45.80287" lon="4.96846">
        <ele>227.20517</ele>
        <time>2023-08-27T12:51:03.000Z</time>
      </trkpt>
      <trkpt lat="45.80287" lon="4.96841">
        <ele>227.27628</ele>
        <time>2023-08-27T12:51:04.000Z</time>
      </trkpt>
      <trkpt lat="45.80287" lon="4.96836">
        <ele>227.35954</ele>
        <time>2023-08-27T12:51:05.000Z</time>
      </trkpt>
      <trkpt lat="45.80287" lon="4.96831">
        <ele>227.43155</ele>
        <time>2023-08-27T12:51:06.000Z</time>
      </trkpt>
      <trkpt lat="45.80287" lon="4.96825">
        <ele>227.49736</ele>
        <time>2023-08-27T12:51:07.000Z</time>
      </trkpt>
      <trkpt lat="45.80287" lon="4.9682">
        <ele>227.53215</ele>
        <time>2023-08-27T12:51:08.000Z</time>
      </trkpt>
      <trkpt lat="45.80288" lon="4.96815">
        <ele>227.56821</ele>
        <time>2023-08-27T12:51:09.000Z</time>
      </trkpt>
      <trkpt lat="45.80289" lon="4.9681">
        <ele>227.59109</ele>
        <time>2023-08-27T12:51:10.000Z</time>
      </trkpt>
      <trkpt lat="45.8029" lon="4.96805">
        <ele>227.59785</ele>
        <time>2023-08-27T12:51:11.000Z</time>
      </trkpt>
      <trkpt lat="45.8029" lon="4.968">
        <ele>227.64331</ele>
        <time>2023-08-27T12:51:12.000Z</time>
      </trkpt>
      <trkpt lat="45.80292" lon="4.96795">
        <ele>227.65829</ele>
        <time>2023-08-27T12:51:13.000Z</time>
      </trkpt>
      <trkpt lat="45.80293" lon="4.9679">
        <ele>227.68417</ele>
        <time>2023-08-27T12:51:14.000Z</time>
      </trkpt>
      <trkpt lat="45.80295" lon="4.96786">
        <ele>227.68486</ele>
        <time>2023-08-27T12:51:15.000Z</time>
      </trkpt>
      <trkpt lat="45.80297" lon="4.96781">
        <ele>227.68835</ele>
        <time>2023-08-27T12:51:16.000Z</time>
      </trkpt>
      <trkpt lat="45.80299" lon="4.96776">
        <ele>227.70781</ele>
        <time>2023-08-27T12:51:17.000Z</time>
      </trkpt>
      <trkpt lat="45.80302" lon="4.96772">
        <ele>227.73584</ele>
        <time>2023-08-27T12:51:18.000Z</time>
      </trkpt>
      <trkpt lat="45.80305" lon="4.96768">
        <ele>227.75961</ele>
        <time>2023-08-27T12:51:19.000Z</time>
      </trkpt>
      <trkpt lat="45.80308" lon="4.96765">
        <ele>227.78091</ele>
        <time>2023-08-27T12:51:20.000Z</time>
      </trkpt>
      <trkpt lat="45.80311" lon="4.96761">
        <ele>227.80396</ele>
        <time>2023-08-27T12:51:21.000Z</time>
      </trkpt>
      <trkpt lat="45.80314" lon="4.96757">
        <ele>227.76172</ele>
        <time>2023-08-27T12:51:22.000Z</time>
      </trkpt>
      <trkpt lat="45.80317" lon="4.96753">
        <ele>227.70557</ele>
        <time>2023-08-27T12:51:23.000Z</time>
      </trkpt>
      <trkpt lat="45.80321" lon="4.96749">
        <ele>227.6257</ele>
        <time>2023-08-27T12:51:24.000Z</time>
      </trkpt>
      <trkpt lat="45.80324" lon="4.96745">
        <ele>227.50928</ele>
        <time>2023-08-27T12:51:25.000Z</time>
      </trkpt>
      <trkpt lat="45.80327" lon="4.96742">
        <ele>227.40225</ele>
        <time>2023-08-27T12:51:26.000Z</time>
      </trkpt>
      <trkpt lat="45.8033" lon="4.96739">
        <ele>227.27905</ele>
        <time>2023-08-27T12:51:27.000Z</time>
      </trkpt>
      <trkpt lat="45.80333" lon="4.96736">
        <ele>227.15483</ele>
        <time>2023-08-27T12:51:28.000Z</time>
      </trkpt>
      <trkpt lat="45.80336" lon="4.96735">
        <ele>226.85965</ele>
        <time>2023-08-27T12:51:29.000Z</time>
      </trkpt>
      <trkpt lat="45.80339" lon="4.96732">
        <ele>226.54605</ele>
        <time>2023-08-27T12:51:30.000Z</time>
      </trkpt>
      <trkpt lat="45.80343" lon="4.96728">
        <ele>226.37273</ele>
        <time>2023-08-27T12:51:31.000Z</time>
      </trkpt>
      <trkpt lat="45.80346" lon="4.96725">
        <ele>226.22043</ele>
        <time>2023-08-27T12:51:32.000Z</time>
      </trkpt>
      <trkpt lat="45.80349" lon="4.96721">
        <ele>226.12715</ele>
        <time>2023-08-27T12:51:33.000Z</time>
      </trkpt>
      <trkpt lat="45.80353" lon="4.96718">
        <ele>226.04044</ele>
        <time>2023-08-27T12:51:34.000Z</time>
      </trkpt>
      <trkpt lat="45.80356" lon="4.96714">
        <ele>225.94803</ele>
        <time>2023-08-27T12:51:35.000Z</time>
      </trkpt>
      <trkpt lat="45.80359" lon="4.96711">
        <ele>225.86545</ele>
        <time>2023-08-27T12:51:36.000Z</time>
      </trkpt>
      <trkpt lat="45.80362" lon="4.96708">
        <ele>225.79985</ele>
        <time>2023-08-27T12:51:37.000Z</time>
      </trkpt>
      <trkpt lat="45.80366" lon="4.96704">
        <ele>225.74239</ele>
        <time>2023-08-27T12:51:38.000Z</time>
      </trkpt>
      <trkpt lat="45.80369" lon="4.96701">
        <ele>225.72697</ele>
        <time>2023-08-27T12:51:39.000Z</time>
      </trkpt>
      <trkpt lat="45.80371" lon="4.96696">
        <ele>225.72466</ele>
        <time>2023-08-27T12:51:40.000Z</time>
      </trkpt>
      <trkpt lat="45.80374" lon="4.96692">
        <ele>225.73508</ele>
        <time>2023-08-27T12:51:41.000Z</time>
      </trkpt>
      <trkpt lat="45.80376" lon="4.96688">
        <ele>225.75566</ele>
        <time>2023-08-27T12:51:42.000Z</time>
      </trkpt>
      <trkpt lat="45.80379" lon="4.96685">
        <ele>225.77078</ele>
        <time>2023-08-27T12:51:43.000Z</time>
      </trkpt>
      <trkpt lat="45.80382" lon="4.96681">
        <ele>225.81064</ele>
        <time>2023-08-27T12:51:44.000Z</time>
      </trkpt>
      <trkpt lat="45.80384" lon="4.96678">
        <ele>225.91109</ele>
        <time>2023-08-27T12:51:45.000Z</time>
      </trkpt>
      <trkpt lat="45.80387" lon="4.96675">
        <ele>226.02051</ele>
        <time>2023-08-27T12:51:46.000Z</time>
      </trkpt>
      <trkpt lat="45.80389" lon="4.96671">
        <ele>226.17232</ele>
        <time>2023-08-27T12:51:47.000Z</time>
      </trkpt>
      <trkpt lat="45.80392" lon="4.96667">
        <ele>226.35652</ele>
        <time>2023-08-27T12:51:48.000Z</time>
      </trkpt>
      <trkpt lat="45.80395" lon="4.96664">
        <ele>226.70972</ele>
        <time>2023-08-27T12:51:49.000Z</time>
      </trkpt>
      <trkpt lat="45.80398" lon="4.96661">
        <ele>227.06436</ele>
        <time>2023-08-27T12:51:50.000Z</time>
      </trkpt>
      <trkpt lat="45.80401" lon="4.96658">
        <ele>227.29317</ele>
        <time>2023-08-27T12:51:51.000Z</time>
      </trkpt>
      <trkpt lat="45.80404" lon="4.96655">
        <ele>227.48703</ele>
        <time>2023-08-27T12:51:52.000Z</time>
      </trkpt>
      <trkpt lat="45.80407" lon="4.96652">
        <ele>227.65552</ele>
        <time>2023-08-27T12:51:53.000Z</time>
      </trkpt>
      <trkpt lat="45.8041" lon="4.96649">
        <ele>227.80875</ele>
        <time>2023-08-27T12:51:54.000Z</time>
      </trkpt>
      <trkpt lat="45.80412" lon="4.96645">
        <ele>227.97197</ele>
        <time>2023-08-27T12:51:55.000Z</time>
      </trkpt>
      <trkpt lat="45.80415" lon="4.96642">
        <ele>228.14828</ele>
        <time>2023-08-27T12:51:56.000Z</time>
      </trkpt>
      <trkpt lat="45.80418" lon="4.96639">
        <ele>228.29184</ele>
        <time>2023-08-27T12:51:57.000Z</time>
      </trkpt>
      <trkpt lat="45.80421" lon="4.96635">
        <ele>228.44185</ele>
        <time>2023-08-27T12:51:58.000Z</time>
      </trkpt>
      <trkpt lat="45.80423" lon="4.96631">
        <ele>228.58524</ele>
        <time>2023-08-27T12:51:59.000Z</time>
      </trkpt>
      <trkpt lat="45.80426" lon="4.96627">
        <ele>228.73239</ele>
        <time>2023-08-27T12:52:00.000Z</time>
      </trkpt>
      <trkpt lat="45.80429" lon="4.96623">
        <ele>228.87321</ele>
        <time>2023-08-27T12:52:01.000Z</time>
      </trkpt>
      <trkpt lat="45.80431" lon="4.96618">
        <ele>229.03242</ele>
        <time>2023-08-27T12:52:02.000Z</time>
      </trkpt>
      <trkpt lat="45.80433" lon="4.96613">
        <ele>229.21191</ele>
        <time>2023-08-27T12:52:03.000Z</time>
      </trkpt>
      <trkpt lat="45.80434" lon="4.96607">
        <ele>229.36678</ele>
        <time>2023-08-27T12:52:04.000Z</time>
      </trkpt>
      <trkpt lat="45.80434" lon="4.96602">
        <ele>229.48953</ele>
        <time>2023-08-27T12:52:05.000Z</time>
      </trkpt>
      <trkpt lat="45.80434" lon="4.96597">
        <ele>229.61267</ele>
        <time>2023-08-27T12:52:06.000Z</time>
      </trkpt>
      <trkpt lat="45.80433" lon="4.96591">
        <ele>229.71196</ele>
        <time>2023-08-27T12:52:07.000Z</time>
      </trkpt>
      <trkpt lat="45.80433" lon="4.96586">
        <ele>229.78577</ele>
        <time>2023-08-27T12:52:08.000Z</time>
      </trkpt>
      <trkpt lat="45.80432" lon="4.96581">
        <ele>229.84261</ele>
        <time>2023-08-27T12:52:09.000Z</time>
      </trkpt>
      <trkpt lat="45.80431" lon="4.96575">
        <ele>229.91626</ele>
        <time>2023-08-27T12:52:10.000Z</time>
      </trkpt>
      <trkpt lat="45.80431" lon="4.9657">
        <ele>229.97806</ele>
        <time>2023-08-27T12:52:11.000Z</time>
      </trkpt>
      <trkpt lat="45.8043" lon="4.96565">
        <ele>230.06668</ele>
        <time>2023-08-27T12:52:12.000Z</time>
      </trkpt>
      <trkpt lat="45.80429" lon="4.9656">
        <ele>230.1123</ele>
        <time>2023-08-27T12:52:13.000Z</time>
      </trkpt>
      <trkpt lat="45.80429" lon="4.96555">
        <ele>230.15703</ele>
        <time>2023-08-27T12:52:14.000Z</time>
      </trkpt>
      <trkpt lat="45.80428" lon="4.9655">
        <ele>230.19604</ele>
        <time>2023-08-27T12:52:15.000Z</time>
      </trkpt>
      <trkpt lat="45.80427" lon="4.96544">
        <ele>230.20508</ele>
        <time>2023-08-27T12:52:16.000Z</time>
      </trkpt>
      <trkpt lat="45.80426" lon="4.96539">
        <ele>230.22029</ele>
        <time>2023-08-27T12:52:17.000Z</time>
      </trkpt>
      <trkpt lat="45.80424" lon="4.96534">
        <ele>230.21269</ele>
        <time>2023-08-27T12:52:18.000Z</time>
      </trkpt>
      <trkpt lat="45.80423" lon="4.96529">
        <ele>230.18784</ele>
        <time>2023-08-27T12:52:19.000Z</time>
      </trkpt>
      <trkpt lat="45.80422" lon="4.96524">
        <ele>230.11743</ele>
        <time>2023-08-27T12:52:20.000Z</time>
      </trkpt>
      <trkpt lat="45.8042" lon="4.96519">
        <ele>230.04936</ele>
        <time>2023-08-27T12:52:21.000Z</time>
      </trkpt>
      <trkpt lat="45.80418" lon="4.96515">
        <ele>229.96182</ele>
        <time>2023-08-27T12:52:22.000Z</time>
      </trkpt>
      <trkpt lat="45.80416" lon="4.9651">
        <ele>229.85458</ele>
        <time>2023-08-27T12:52:23.000Z</time>
      </trkpt>
      <trkpt lat="45.80415" lon="4.96505">
        <ele>229.7738</ele>
        <time>2023-08-27T12:52:24.000Z</time>
      </trkpt>
      <trkpt lat="45.80413" lon="4.96501">
        <ele>229.67781</ele>
        <time>2023-08-27T12:52:25.000Z</time>
      </trkpt>
      <trkpt lat="45.80411" lon="4.96496">
        <ele>229.55888</ele>
        <time>2023-08-27T12:52:26.000Z</time>
      </trkpt>
      <trkpt lat="45.80409" lon="4.96491">
        <ele>229.43144</ele>
        <time>2023-08-27T12:52:27.000Z</time>
      </trkpt>
      <trkpt lat="45.80407" lon="4.96486">
        <ele>229.28203</ele>
        <time>2023-08-27T12:52:28.000Z</time>
      </trkpt>
      <trkpt lat="45.80405" lon="4.96482">
        <ele>229.1268</ele>
        <time>2023-08-27T12:52:29.000Z</time>
      </trkpt>
      <trkpt lat="45.80403" lon="4.96477">
        <ele>228.90959</ele>
        <time>2023-08-27T12:52:30.000Z</time>
      </trkpt>
      <trkpt lat="45.80402" lon="4.96472">
        <ele>228.64507</ele>
        <time>2023-08-27T12:52:31.000Z</time>
      </trkpt>
      <trkpt lat="45.804" lon="4.96468">
        <ele>228.45525</ele>
        <time>2023-08-27T12:52:32.000Z</time>
      </trkpt>
      <trkpt lat="45.80399" lon="4.96463">
        <ele>228.18771</ele>
        <time>2023-08-27T12:52:33.000Z</time>
      </trkpt>
      <trkpt lat="45.80397" lon="4.96458">
        <ele>227.92447</ele>
        <time>2023-08-27T12:52:34.000Z</time>
      </trkpt>
      <trkpt lat="45.80395" lon="4.96453">
        <ele>227.66045</ele>
        <time>2023-08-27T12:52:35.000Z</time>
      </trkpt>
      <trkpt lat="45.80393" lon="4.96449">
        <ele>227.41544</ele>
        <time>2023-08-27T12:52:36.000Z</time>
      </trkpt>
      <trkpt lat="45.80392" lon="4.96444">
        <ele>227.21094</ele>
        <time>2023-08-27T12:52:37.000Z</time>
      </trkpt>
      <trkpt lat="45.80391" lon="4.96439">
        <ele>227.03716</ele>
        <time>2023-08-27T12:52:38.000Z</time>
      </trkpt>
      <trkpt lat="45.80391" lon="4.96433">
        <ele>226.87444</ele>
        <time>2023-08-27T12:52:39.000Z</time>
      </trkpt>
      <trkpt lat="45.80391" lon="4.96428">
        <ele>226.75789</ele>
        <time>2023-08-27T12:52:40.000Z</time>
      </trkpt>
      <trkpt lat="45.80391" lon="4.96423">
        <ele>226.705</ele>
        <time>2023-08-27T12:52:41.000Z</time>
      </trkpt>
      <trkpt lat="45.80391" lon="4.96419">
        <ele>226.67966</ele>
        <time>2023-08-27T12:52:42.000Z</time>
      </trkpt>
      <trkpt lat="45.80391" lon="4.96414">
        <ele>226.67424</ele>
        <time>2023-08-27T12:52:43.000Z</time>
      </trkpt>
      <trkpt lat="45.80392" lon="4.9641">
        <ele>226.67766</ele>
        <time>2023-08-27T12:52:44.000Z</time>
      </trkpt>
      <trkpt lat="45.80393" lon="4.96405">
        <ele>226.68771</ele>
        <time>2023-08-27T12:52:45.000Z</time>
      </trkpt>
      <trkpt lat="45.80394" lon="4.96401">
        <ele>226.70503</ele>
        <time>2023-08-27T12:52:46.000Z</time>
      </trkpt>
      <trkpt lat="45.80396" lon="4.96396">
        <ele>226.72299</ele>
        <time>2023-08-27T12:52:47.000Z</time>
      </trkpt>
      <trkpt lat="45.80397" lon="4.96392">
        <ele>226.76257</ele>
        <time>2023-08-27T12:52:48.000Z</time>
      </trkpt>
      <trkpt lat="45.80398" lon="4.96388">
        <ele>226.82309</ele>
        <time>2023-08-27T12:52:49.000Z</time>
      </trkpt>
      <trkpt lat="45.804" lon="4.96384">
        <ele>226.94109</ele>
        <time>2023-08-27T12:52:50.000Z</time>
      </trkpt>
      <trkpt lat="45.80401" lon="4.96379">
        <ele>227.10123</ele>
        <time>2023-08-27T12:52:51.000Z</time>
      </trkpt>
      <trkpt lat="45.80402" lon="4.96375">
        <ele>227.17297</ele>
        <time>2023-08-27T12:52:52.000Z</time>
      </trkpt>
      <trkpt lat="45.80402" lon="4.9637">
        <ele>227.34995</ele>
        <time>2023-08-27T12:52:53.000Z</time>
      </trkpt>
      <trkpt lat="45.80403" lon="4.96366">
        <ele>227.53838</ele>
        <time>2023-08-27T12:52:54.000Z</time>
      </trkpt>
      <trkpt lat="45.80404" lon="4.96361">
        <ele>227.72238</ele>
        <time>2023-08-27T12:52:55.000Z</time>
      </trkpt>
      <trkpt lat="45.80404" lon="4.96356">
        <ele>227.91679</ele>
        <time>2023-08-27T12:52:56.000Z</time>
      </trkpt>
      <trkpt lat="45.80404" lon="4.96352">
        <ele>228.0726</ele>
        <time>2023-08-27T12:52:57.000Z</time>
      </trkpt>
      <trkpt lat="45.80403" lon="4.96348">
        <ele>228.21297</ele>
        <time>2023-08-27T12:52:58.000Z</time>
      </trkpt>
      <trkpt lat="45.80402" lon="4.96344">
        <ele>228.36441</ele>
        <time>2023-08-27T12:52:59.000Z</time>
      </trkpt>
      <trkpt lat="45.80401" lon="4.96339">
        <ele>228.49991</ele>
        <time>2023-08-27T12:53:00.000Z</time>
      </trkpt>
      <trkpt lat="45.804" lon="4.96335">
        <ele>228.58418</ele>
        <time>2023-08-27T12:53:01.000Z</time>
      </trkpt>
      <trkpt lat="45.80398" lon="4.9633">
        <ele>228.66655</ele>
        <time>2023-08-27T12:53:02.000Z</time>
      </trkpt>
      <trkpt lat="45.80397" lon="4.96325">
        <ele>228.74031</ele>
        <time>2023-08-27T12:53:03.000Z</time>
      </trkpt>
      <trkpt lat="45.80396" lon="4.96321">
        <ele>228.79814</ele>
        <time>2023-08-27T12:53:04.000Z</time>
      </trkpt>
      <trkpt lat="45.80394" lon="4.96317">
        <ele>228.83858</ele>
        <time>2023-08-27T12:53:05.000Z</time>
      </trkpt>
      <trkpt lat="45.80393" lon="4.96313">
        <ele>228.86765</ele>
        <time>2023-08-27T12:53:06.000Z</time>
      </trkpt>
      <trkpt lat="45.80391" lon="4.9631">
        <ele>228.92374</ele>
        <time>2023-08-27T12:53:07.000Z</time>
      </trkpt>
      <trkpt lat="45.80389" lon="4.96308">
        <ele>229.00912</ele>
        <time>2023-08-27T12:53:08.000Z</time>
      </trkpt>
      <trkpt lat="45.80387" lon="4.96307">
        <ele>229.07779</ele>
        <time>2023-08-27T12:53:09.000Z</time>
      </trkpt>
      <trkpt lat="45.80384" lon="4.96306">
        <ele>229.12138</ele>
        <time>2023-08-27T12:53:10.000Z</time>
      </trkpt>
      <trkpt lat="45.8038" lon="4.96305">
        <ele>229.15649</ele>
        <time>2023-08-27T12:53:11.000Z</time>
      </trkpt>
      <trkpt lat="45.80377" lon="4.96305">
        <ele>229.20297</ele>
        <time>2023-08-27T12:53:12.000Z</time>
      </trkpt>
      <trkpt lat="45.80373" lon="4.96306">
        <ele>229.23776</ele>
        <time>2023-08-27T12:53:13.000Z</time>
      </trkpt>
      <trkpt lat="45.8037" lon="4.96306">
        <ele>229.22769</ele>
        <time>2023-08-27T12:53:14.000Z</time>
      </trkpt>
      <trkpt lat="45.80366" lon="4.96307">
        <ele>229.22058</ele>
        <time>2023-08-27T12:53:15.000Z</time>
      </trkpt>
      <trkpt lat="45.80362" lon="4.96308">
        <ele>229.18027</ele>
        <time>2023-08-27T12:53:16.000Z</time>
      </trkpt>
      <trkpt lat="45.80359" lon="4.96308">
        <ele>229.13147</ele>
        <time>2023-08-27T12:53:17.000Z</time>
      </trkpt>
      <trkpt lat="45.80355" lon="4.96308">
        <ele>229.07425</ele>
        <time>2023-08-27T12:53:18.000Z</time>
      </trkpt>
      <trkpt lat="45.8035" lon="4.96309">
        <ele>228.99052</ele>
        <time>2023-08-27T12:53:19.000Z</time>
      </trkpt>
      <trkpt lat="45.80346" lon="4.96309">
        <ele>228.89706</ele>
        <time>2023-08-27T12:53:20.000Z</time>
      </trkpt>
      <trkpt lat="45.80341" lon="4.96309">
        <ele>228.79716</ele>
        <time>2023-08-27T12:53:21.000Z</time>
      </trkpt>
      <trkpt lat="45.80336" lon="4.96309">
        <ele>228.68881</ele>
        <time>2023-08-27T12:53:22.000Z</time>
      </trkpt>
      <trkpt lat="45.80331" lon="4.96308">
        <ele>228.58134</ele>
        <time>2023-08-27T12:53:23.000Z</time>
      </trkpt>
      <trkpt lat="45.80326" lon="4.96307">
        <ele>228.4563</ele>
        <time>2023-08-27T12:53:24.000Z</time>
      </trkpt>
      <trkpt lat="45.80322" lon="4.96305">
        <ele>228.33667</ele>
        <time>2023-08-27T12:53:25.000Z</time>
      </trkpt>
      <trkpt lat="45.80317" lon="4.96304">
        <ele>228.24275</ele>
        <time>2023-08-27T12:53:26.000Z</time>
      </trkpt>
      <trkpt lat="45.80313" lon="4.96303">
        <ele>228.12466</ele>
        <time>2023-08-27T12:53:27.000Z</time>
      </trkpt>
      <trkpt lat="45.80308" lon="4.96303">
        <ele>227.96187</ele>
        <time>2023-08-27T12:53:28.000Z</time>
      </trkpt>
      <trkpt lat="45.80304" lon="4.96302">
        <ele>227.79756</ele>
        <time>2023-08-27T12:53:29.000Z</time>
      </trkpt>
      <trkpt lat="45.80298" lon="4.96301">
        <ele>227.65157</ele>
        <time>2023-08-27T12:53:30.000Z</time>
      </trkpt>
      <trkpt lat="45.80294" lon="4.96299">
        <ele>227.50493</ele>
        <time>2023-08-27T12:53:31.000Z</time>
      </trkpt>
      <trkpt lat="45.80289" lon="4.96298">
        <ele>227.3437</ele>
        <time>2023-08-27T12:53:32.000Z</time>
      </trkpt>
      <trkpt lat="45.80284" lon="4.96296">
        <ele>227.20137</ele>
        <time>2023-08-27T12:53:33.000Z</time>
      </trkpt>
      <trkpt lat="45.8028" lon="4.96293">
        <ele>227.10818</ele>
        <time>2023-08-27T12:53:34.000Z</time>
      </trkpt>
      <trkpt lat="45.80275" lon="4.96291">
        <ele>227.02861</ele>
        <time>2023-08-27T12:53:35.000Z</time>
      </trkpt>
      <trkpt lat="45.80272" lon="4.96287">
        <ele>226.96509</ele>
        <time>2023-08-27T12:53:36.000Z</time>
      </trkpt>
      <trkpt lat="45.80268" lon="4.96282">
        <ele>226.91245</ele>
        <time>2023-08-27T12:53:37.000Z</time>
      </trkpt>
      <trkpt lat="45.80264" lon="4.96279">
        <ele>226.86499</ele>
        <time>2023-08-27T12:53:38.000Z</time>
      </trkpt>
      <trkpt lat="45.80262" lon="4.96274">
        <ele>226.82158</ele>
        <time>2023-08-27T12:53:39.000Z</time>
      </trkpt>
      <trkpt lat="45.80259" lon="4.96269">
        <ele>226.79517</ele>
        <time>2023-08-27T12:53:40.000Z</time>
      </trkpt>
      <trkpt lat="45.80257" lon="4.96263">
        <ele>226.77713</ele>
        <time>2023-08-27T12:53:41.000Z</time>
      </trkpt>
      <trkpt lat="45.80255" lon="4.96258">
        <ele>226.74072</ele>
        <time>2023-08-27T12:53:42.000Z</time>
      </trkpt>
      <trkpt lat="45.80253" lon="4.96251">
        <ele>226.72066</ele>
        <time>2023-08-27T12:53:43.000Z</time>
      </trkpt>
      <trkpt lat="45.80252" lon="4.96246">
        <ele>226.70792</ele>
        <time>2023-08-27T12:53:44.000Z</time>
      </trkpt>
      <trkpt lat="45.80251" lon="4.9624">
        <ele>226.71358</ele>
        <time>2023-08-27T12:53:45.000Z</time>
      </trkpt>
      <trkpt lat="45.80252" lon="4.96234">
        <ele>226.703</ele>
        <time>2023-08-27T12:53:46.000Z</time>
      </trkpt>
      <trkpt lat="45.80252" lon="4.96229">
        <ele>226.71057</ele>
        <time>2023-08-27T12:53:47.000Z</time>
      </trkpt>
      <trkpt lat="45.80251" lon="4.96223">
        <ele>226.73177</ele>
        <time>2023-08-27T12:53:48.000Z</time>
      </trkpt>
      <trkpt lat="45.80251" lon="4.96218">
        <ele>226.76541</ele>
        <time>2023-08-27T12:53:49.000Z</time>
      </trkpt>
      <trkpt lat="45.80251" lon="4.96213">
        <ele>226.80383</ele>
        <time>2023-08-27T12:53:50.000Z</time>
      </trkpt>
      <trkpt lat="45.80252" lon="4.96208">
        <ele>226.85625</ele>
        <time>2023-08-27T12:53:51.000Z</time>
      </trkpt>
      <trkpt lat="45.80253" lon="4.96202">
        <ele>226.89847</ele>
        <time>2023-08-27T12:53:52.000Z</time>
      </trkpt>
      <trkpt lat="45.80253" lon="4.96196">
        <ele>226.91785</ele>
        <time>2023-08-27T12:53:53.000Z</time>
      </trkpt>
      <trkpt lat="45.80253" lon="4.9619">
        <ele>226.92343</ele>
        <time>2023-08-27T12:53:54.000Z</time>
      </trkpt>
      <trkpt lat="45.80252" lon="4.96185">
        <ele>226.93521</ele>
        <time>2023-08-27T12:53:55.000Z</time>
      </trkpt>
      <trkpt lat="45.8025" lon="4.9618">
        <ele>226.93692</ele>
        <time>2023-08-27T12:53:56.000Z</time>
      </trkpt>
      <trkpt lat="45.80248" lon="4.96176">
        <ele>226.96167</ele>
        <time>2023-08-27T12:53:57.000Z</time>
      </trkpt>
      <trkpt lat="45.80245" lon="4.96172">
        <ele>227.00273</ele>
        <time>2023-08-27T12:53:58.000Z</time>
      </trkpt>
      <trkpt lat="45.80242" lon="4.96167">
        <ele>227.0647</ele>
        <time>2023-08-27T12:53:59.000Z</time>
      </trkpt>
      <trkpt lat="45.8024" lon="4.96164">
        <ele>227.1102</ele>
        <time>2023-08-27T12:54:00.000Z</time>
      </trkpt>
      <trkpt lat="45.80237" lon="4.96162">
        <ele>227.17236</ele>
        <time>2023-08-27T12:54:01.000Z</time>
      </trkpt>
      <trkpt lat="45.80234" lon="4.9616">
        <ele>227.25908</ele>
        <time>2023-08-27T12:54:02.000Z</time>
      </trkpt>
      <trkpt lat="45.8023" lon="4.96158">
        <ele>227.34439</ele>
        <time>2023-08-27T12:54:03.000Z</time>
      </trkpt>
      <trkpt lat="45.80226" lon="4.96157">
        <ele>227.44365</ele>
        <time>2023-08-27T12:54:04.000Z</time>
      </trkpt>
      <trkpt lat="45.80223" lon="4.96155">
        <ele>227.4875</ele>
        <time>2023-08-27T12:54:05.000Z</time>
      </trkpt>
      <trkpt lat="45.80219" lon="4.96154">
        <ele>227.52766</ele>
        <time>2023-08-27T12:54:06.000Z</time>
      </trkpt>
      <trkpt lat="45.80215" lon="4.96152">
        <ele>227.51823</ele>
        <time>2023-08-27T12:54:07.000Z</time>
      </trkpt>
      <trkpt lat="45.80212" lon="4.9615">
        <ele>227.50859</ele>
        <time>2023-08-27T12:54:08.000Z</time>
      </trkpt>
      <trkpt lat="45.80208" lon="4.96149">
        <ele>227.51387</ele>
        <time>2023-08-27T12:54:09.000Z</time>
      </trkpt>
      <trkpt lat="45.80204" lon="4.96147">
        <ele>227.49405</ele>
        <time>2023-08-27T12:54:10.000Z</time>
      </trkpt>
      <trkpt lat="45.802" lon="4.96145">
        <ele>227.45264</ele>
        <time>2023-08-27T12:54:11.000Z</time>
      </trkpt>
      <trkpt lat="45.80196" lon="4.96144">
        <ele>227.42404</ele>
        <time>2023-08-27T12:54:12.000Z</time>
      </trkpt>
      <trkpt lat="45.80193" lon="4.96142">
        <ele>227.40747</ele>
        <time>2023-08-27T12:54:13.000Z</time>
      </trkpt>
      <trkpt lat="45.80189" lon="4.9614">
        <ele>227.42239</ele>
        <time>2023-08-27T12:54:14.000Z</time>
      </trkpt>
      <trkpt lat="45.80185" lon="4.96139">
        <ele>227.41098</ele>
        <time>2023-08-27T12:54:15.000Z</time>
      </trkpt>
      <trkpt lat="45.80181" lon="4.96137">
        <ele>227.38676</ele>
        <time>2023-08-27T12:54:16.000Z</time>
      </trkpt>
      <trkpt lat="45.80177" lon="4.96136">
        <ele>227.46025</ele>
        <time>2023-08-27T12:54:17.000Z</time>
      </trkpt>
      <trkpt lat="45.80173" lon="4.96135">
        <ele>227.49307</ele>
        <time>2023-08-27T12:54:18.000Z</time>
      </trkpt>
      <trkpt lat="45.80169" lon="4.96135">
        <ele>227.49979</ele>
        <time>2023-08-27T12:54:19.000Z</time>
      </trkpt>
      <trkpt lat="45.80165" lon="4.96134">
        <ele>227.5387</ele>
        <time>2023-08-27T12:54:20.000Z</time>
      </trkpt>
      <trkpt lat="45.80161" lon="4.96134">
        <ele>227.56006</ele>
        <time>2023-08-27T12:54:21.000Z</time>
      </trkpt>
      <trkpt lat="45.80157" lon="4.96133">
        <ele>227.54057</ele>
        <time>2023-08-27T12:54:22.000Z</time>
      </trkpt>
      <trkpt lat="45.80153" lon="4.96132">
        <ele>227.51111</ele>
        <time>2023-08-27T12:54:23.000Z</time>
      </trkpt>
      <trkpt lat="45.8015" lon="4.96131">
        <ele>227.49458</ele>
        <time>2023-08-27T12:54:24.000Z</time>
      </trkpt>
      <trkpt lat="45.80146" lon="4.96131">
        <ele>227.54936</ele>
        <time>2023-08-27T12:54:25.000Z</time>
      </trkpt>
      <trkpt lat="45.80143" lon="4.9613">
        <ele>227.61674</ele>
        <time>2023-08-27T12:54:26.000Z</time>
      </trkpt>
      <trkpt lat="45.80139" lon="4.9613">
        <ele>227.69319</ele>
        <time>2023-08-27T12:54:27.000Z</time>
      </trkpt>
      <trkpt lat="45.80136" lon="4.96129">
        <ele>227.7637</ele>
        <time>2023-08-27T12:54:28.000Z</time>
      </trkpt>
      <trkpt lat="45.80133" lon="4.96128">
        <ele>227.85117</ele>
        <time>2023-08-27T12:54:29.000Z</time>
      </trkpt>
      <trkpt lat="45.80129" lon="4.96127">
        <ele>227.96941</ele>
        <time>2023-08-27T12:54:30.000Z</time>
      </trkpt>
      <trkpt lat="45.80126" lon="4.96125">
        <ele>228.12106</ele>
        <time>2023-08-27T12:54:31.000Z</time>
      </trkpt>
      <trkpt lat="45.80122" lon="4.96125">
        <ele>228.28682</ele>
        <time>2023-08-27T12:54:32.000Z</time>
      </trkpt>
      <trkpt lat="45.80119" lon="4.96124">
        <ele>228.44351</ele>
        <time>2023-08-27T12:54:33.000Z</time>
      </trkpt>
      <trkpt lat="45.80115" lon="4.96123">
        <ele>228.57266</ele>
        <time>2023-08-27T12:54:34.000Z</time>
      </trkpt>
      <trkpt lat="45.80111" lon="4.96124">
        <ele>228.63911</ele>
        <time>2023-08-27T12:54:35.000Z</time>
      </trkpt>
      <trkpt lat="45.80107" lon="4.96125">
        <ele>228.75244</ele>
        <time>2023-08-27T12:54:36.000Z</time>
      </trkpt>
      <trkpt lat="45.80104" lon="4.96127">
        <ele>228.78267</ele>
        <time>2023-08-27T12:54:37.000Z</time>
      </trkpt>
      <trkpt lat="45.80101" lon="4.96128">
        <ele>228.83928</ele>
        <time>2023-08-27T12:54:38.000Z</time>
      </trkpt>
      <trkpt lat="45.80097" lon="4.96129">
        <ele>228.88676</ele>
        <time>2023-08-27T12:54:39.000Z</time>
      </trkpt>
      <trkpt lat="45.80093" lon="4.9613">
        <ele>228.8313</ele>
        <time>2023-08-27T12:54:40.000Z</time>
      </trkpt>
      <trkpt lat="45.8009" lon="4.96131">
        <ele>228.78923</ele>
        <time>2023-08-27T12:54:41.000Z</time>
      </trkpt>
      <trkpt lat="45.80087" lon="4.96131">
        <ele>228.76729</ele>
        <time>2023-08-27T12:54:42.000Z</time>
      </trkpt>
      <trkpt lat="45.80083" lon="4.9613">
        <ele>228.72592</ele>
        <time>2023-08-27T12:54:43.000Z</time>
      </trkpt>
      <trkpt lat="45.80079" lon="4.96127">
        <ele>228.64603</ele>
        <time>2023-08-27T12:54:44.000Z</time>
      </trkpt>
      <trkpt lat="45.80075" lon="4.96124">
        <ele>228.55319</ele>
        <time>2023-08-27T12:54:45.000Z</time>
      </trkpt>
      <trkpt lat="45.80072" lon="4.96119">
        <ele>228.4519</ele>
        <time>2023-08-27T12:54:46.000Z</time>
      </trkpt>
      <trkpt lat="45.8007" lon="4.96114">
        <ele>228.39461</ele>
        <time>2023-08-27T12:54:47.000Z</time>
      </trkpt>
      <trkpt lat="45.80068" lon="4.96109">
        <ele>228.33414</ele>
        <time>2023-08-27T12:54:48.000Z</time>
      </trkpt>
      <trkpt lat="45.80066" lon="4.96104">
        <ele>228.22408</ele>
        <time>2023-08-27T12:54:49.000Z</time>
      </trkpt>
      <trkpt lat="45.80063" lon="4.96099">
        <ele>228.12727</ele>
        <time>2023-08-27T12:54:50.000Z</time>
      </trkpt>
      <trkpt lat="45.8006" lon="4.96092">
        <ele>227.95261</ele>
        <time>2023-08-27T12:54:51.000Z</time>
      </trkpt>
      <trkpt lat="45.80057" lon="4.96087">
        <ele>227.79312</ele>
        <time>2023-08-27T12:54:52.000Z</time>
      </trkpt>
      <trkpt lat="45.80055" lon="4.96085">
        <ele>227.69939</ele>
        <time>2023-08-27T12:54:53.000Z</time>
      </trkpt>
      <trkpt lat="45.80051" lon="4.96081">
        <ele>227.61002</ele>
        <time>2023-08-27T12:54:54.000Z</time>
      </trkpt>
      <trkpt lat="45.80047" lon="4.9608">
        <ele>227.59651</ele>
        <time>2023-08-27T12:54:55.000Z</time>
      </trkpt>
      <trkpt lat="45.80042" lon="4.96079">
        <ele>227.54849</ele>
        <time>2023-08-27T12:54:56.000Z</time>
      </trkpt>
      <trkpt lat="45.80038" lon="4.96078">
        <ele>227.48715</ele>
        <time>2023-08-27T12:54:57.000Z</time>
      </trkpt>
      <trkpt lat="45.80033" lon="4.96077">
        <ele>227.42209</ele>
        <time>2023-08-27T12:54:58.000Z</time>
      </trkpt>
      <trkpt lat="45.80029" lon="4.96076">
        <ele>227.40982</ele>
        <time>2023-08-27T12:54:59.000Z</time>
      </trkpt>
      <trkpt lat="45.80024" lon="4.96077">
        <ele>227.44881</ele>
        <time>2023-08-27T12:55:00.000Z</time>
      </trkpt>
      <trkpt lat="45.80019" lon="4.96079">
        <ele>227.47647</ele>
        <time>2023-08-27T12:55:01.000Z</time>
      </trkpt>
      <trkpt lat="45.80014" lon="4.9608">
        <ele>227.44023</ele>
        <time>2023-08-27T12:55:02.000Z</time>
      </trkpt>
      <trkpt lat="45.80009" lon="4.96081">
        <ele>227.41293</ele>
        <time>2023-08-27T12:55:03.000Z</time>
      </trkpt>
      <trkpt lat="45.80005" lon="4.96082">
        <ele>227.40506</ele>
        <time>2023-08-27T12:55:04.000Z</time>
      </trkpt>
      <trkpt lat="45.80001" lon="4.96083">
        <ele>227.39279</ele>
        <time>2023-08-27T12:55:05.000Z</time>
      </trkpt>
      <trkpt lat="45.79999" lon="4.96088">
        <ele>227.47249</ele>
        <time>2023-08-27T12:55:06.000Z</time>
      </trkpt>
      <trkpt lat="45.79996" lon="4.9609">
        <ele>227.51907</ele>
        <time>2023-08-27T12:55:07.000Z</time>
      </trkpt>
      <trkpt lat="45.79994" lon="4.96093">
        <ele>227.54074</ele>
        <time>2023-08-27T12:55:08.000Z</time>
      </trkpt>
      <trkpt lat="45.79991" lon="4.96095">
        <ele>227.56616</ele>
        <time>2023-08-27T12:55:09.000Z</time>
      </trkpt>
      <trkpt lat="45.79989" lon="4.96097">
        <ele>227.54422</ele>
        <time>2023-08-27T12:55:10.000Z</time>
      </trkpt>
      <trkpt lat="45.79987" lon="4.961">
        <ele>227.57637</ele>
        <time>2023-08-27T12:55:11.000Z</time>
      </trkpt>
      <trkpt lat="45.79985" lon="4.96103">
        <ele>227.57639</ele>
        <time>2023-08-27T12:55:12.000Z</time>
      </trkpt>
      <trkpt lat="45.79983" lon="4.96106">
        <ele>227.49654</ele>
        <time>2023-08-27T12:55:13.000Z</time>
      </trkpt>
      <trkpt lat="45.79981" lon="4.96108">
        <ele>227.42216</ele>
        <time>2023-08-27T12:55:14.000Z</time>
      </trkpt>
      <trkpt lat="45.79979" lon="4.96111">
        <ele>227.34712</ele>
        <time>2023-08-27T12:55:15.000Z</time>
      </trkpt>
      <trkpt lat="45.79977" lon="4.96114">
        <ele>227.28223</ele>
        <time>2023-08-27T12:55:16.000Z</time>
      </trkpt>
      <trkpt lat="45.79976" lon="4.96117">
        <ele>227.20529</ele>
        <time>2023-08-27T12:55:17.000Z</time>
      </trkpt>
      <trkpt lat="45.79975" lon="4.9612">
        <ele>227.12256</ele>
        <time>2023-08-27T12:55:19.000Z</time>
      </trkpt>
      <trkpt lat="45.79973" lon="4.96122">
        <ele>226.96085</ele>
        <time>2023-08-27T12:55:21.000Z</time>
      </trkpt>
      <trkpt lat="45.79971" lon="4.96122">
        <ele>226.78894</ele>
        <time>2023-08-27T12:55:24.000Z</time>
      </trkpt>
      <trkpt lat="45.79969" lon="4.96124">
        <ele>226.60583</ele>
        <time>2023-08-27T12:55:26.000Z</time>
      </trkpt>
      <trkpt lat="45.79969" lon="4.96121">
        <ele>226.56308</ele>
        <time>2023-08-27T12:55:38.000Z</time>
      </trkpt>
      <trkpt lat="45.79967" lon="4.96124">
        <ele>226.50015</ele>
        <time>2023-08-27T13:00:35.000Z</time>
      </trkpt>
      <trkpt lat="45.79965" lon="4.96124">
        <ele>226.43039</ele>
        <time>2023-08-27T13:00:41.000Z</time>
      </trkpt>
      <trkpt lat="45.79963" lon="4.96123">
        <ele>226.38846</ele>
        <time>2023-08-27T13:01:12.000Z</time>
      </trkpt>
      <trkpt lat="45.79959" lon="4.9612">
        <ele>226.26509</ele>
        <time>2023-08-27T13:01:14.000Z</time>
      </trkpt>
      <trkpt lat="45.79958" lon="4.96119">
        <ele>226.14046</ele>
        <time>2023-08-27T13:01:15.000Z</time>
      </trkpt>
      <trkpt lat="45.79956" lon="4.96118">
        <ele>226.02043</ele>
        <time>2023-08-27T13:01:16.000Z</time>
      </trkpt>
      <trkpt lat="45.79953" lon="4.96116">
        <ele>225.91006</ele>
        <time>2023-08-27T13:01:17.000Z</time>
      </trkpt>
      <trkpt lat="45.79951" lon="4.96114">
        <ele>225.80867</ele>
        <time>2023-08-27T13:01:18.000Z</time>
      </trkpt>
      <trkpt lat="45.79949" lon="4.96112">
        <ele>225.71611</ele>
        <time>2023-08-27T13:01:19.000Z</time>
      </trkpt>
      <trkpt lat="45.79948" lon="4.9611">
        <ele>225.61418</ele>
        <time>2023-08-27T13:01:20.000Z</time>
      </trkpt>
      <trkpt lat="45.79946" lon="4.96108">
        <ele>225.5322</ele>
        <time>2023-08-27T13:01:21.000Z</time>
      </trkpt>
      <trkpt lat="45.79943" lon="4.96105">
        <ele>225.44617</ele>
        <time>2023-08-27T13:01:22.000Z</time>
      </trkpt>
      <trkpt lat="45.79941" lon="4.96102">
        <ele>225.35164</ele>
        <time>2023-08-27T13:01:23.000Z</time>
      </trkpt>
      <trkpt lat="45.79938" lon="4.96099">
        <ele>225.26155</ele>
        <time>2023-08-27T13:01:24.000Z</time>
      </trkpt>
      <trkpt lat="45.79935" lon="4.96096">
        <ele>225.17068</ele>
        <time>2023-08-27T13:01:25.000Z</time>
      </trkpt>
      <trkpt lat="45.79933" lon="4.96093">
        <ele>225.10013</ele>
        <time>2023-08-27T13:01:26.000Z</time>
      </trkpt>
      <trkpt lat="45.7993" lon="4.9609">
        <ele>225.07593</ele>
        <time>2023-08-27T13:01:27.000Z</time>
      </trkpt>
      <trkpt lat="45.79927" lon="4.96088">
        <ele>225.08342</ele>
        <time>2023-08-27T13:01:28.000Z</time>
      </trkpt>
      <trkpt lat="45.79924" lon="4.96086">
        <ele>225.12244</ele>
        <time>2023-08-27T13:01:29.000Z</time>
      </trkpt>
      <trkpt lat="45.79922" lon="4.96083">
        <ele>225.13643</ele>
        <time>2023-08-27T13:01:30.000Z</time>
      </trkpt>
      <trkpt lat="45.79919" lon="4.96082">
        <ele>225.16895</ele>
        <time>2023-08-27T13:01:31.000Z</time>
      </trkpt>
      <trkpt lat="45.79916" lon="4.96081">
        <ele>225.14148</ele>
        <time>2023-08-27T13:01:32.000Z</time>
      </trkpt>
      <trkpt lat="45.79912" lon="4.96081">
        <ele>225.10544</ele>
        <time>2023-08-27T13:01:33.000Z</time>
      </trkpt>
      <trkpt lat="45.79909" lon="4.96083">
        <ele>225.09273</ele>
        <time>2023-08-27T13:01:34.000Z</time>
      </trkpt>
      <trkpt lat="45.79906" lon="4.96084">
        <ele>225.09683</ele>
        <time>2023-08-27T13:01:35.000Z</time>
      </trkpt>
      <trkpt lat="45.79903" lon="4.96086">
        <ele>225.09521</ele>
        <time>2023-08-27T13:01:36.000Z</time>
      </trkpt>
      <trkpt lat="45.79899" lon="4.96089">
        <ele>225.134</ele>
        <time>2023-08-27T13:01:37.000Z</time>
      </trkpt>
      <trkpt lat="45.79896" lon="4.96091">
        <ele>225.19107</ele>
        <time>2023-08-27T13:01:38.000Z</time>
      </trkpt>
      <trkpt lat="45.79892" lon="4.96093">
        <ele>225.29355</ele>
        <time>2023-08-27T13:01:39.000Z</time>
      </trkpt>
      <trkpt lat="45.79889" lon="4.96095">
        <ele>225.44035</ele>
        <time>2023-08-27T13:01:40.000Z</time>
      </trkpt>
      <trkpt lat="45.79886" lon="4.96096">
        <ele>225.59634</ele>
        <time>2023-08-27T13:01:41.000Z</time>
      </trkpt>
      <trkpt lat="45.79882" lon="4.96096">
        <ele>225.6982</ele>
        <time>2023-08-27T13:01:42.000Z</time>
      </trkpt>
      <trkpt lat="45.79879" lon="4.96095">
        <ele>225.81367</ele>
        <time>2023-08-27T13:01:43.000Z</time>
      </trkpt>
      <trkpt lat="45.79876" lon="4.96095">
        <ele>225.95801</ele>
        <time>2023-08-27T13:01:44.000Z</time>
      </trkpt>
      <trkpt lat="45.79873" lon="4.96094">
        <ele>226.09909</ele>
        <time>2023-08-27T13:01:45.000Z</time>
      </trkpt>
      <trkpt lat="45.79871" lon="4.96092">
        <ele>226.24898</ele>
        <time>2023-08-27T13:01:46.000Z</time>
      </trkpt>
      <trkpt lat="45.79868" lon="4.96089">
        <ele>226.40398</ele>
        <time>2023-08-27T13:01:47.000Z</time>
      </trkpt>
      <trkpt lat="45.79867" lon="4.96086">
        <ele>226.55307</ele>
        <time>2023-08-27T13:01:48.000Z</time>
      </trkpt>
      <trkpt lat="45.79865" lon="4.96082">
        <ele>226.67105</ele>
        <time>2023-08-27T13:01:49.000Z</time>
      </trkpt>
      <trkpt lat="45.79864" lon="4.96077">
        <ele>226.74471</ele>
        <time>2023-08-27T13:01:50.000Z</time>
      </trkpt>
      <trkpt lat="45.79864" lon="4.96072">
        <ele>226.84628</ele>
        <time>2023-08-27T13:01:51.000Z</time>
      </trkpt>
      <trkpt lat="45.79863" lon="4.96066">
        <ele>227.00037</ele>
        <time>2023-08-27T13:01:52.000Z</time>
      </trkpt>
      <trkpt lat="45.79863" lon="4.96061">
        <ele>227.13443</ele>
        <time>2023-08-27T13:01:53.000Z</time>
      </trkpt>
      <trkpt lat="45.79863" lon="4.96055">
        <ele>227.23235</ele>
        <time>2023-08-27T13:01:54.000Z</time>
      </trkpt>
      <trkpt lat="45.79864" lon="4.9605">
        <ele>227.32808</ele>
        <time>2023-08-27T13:01:55.000Z</time>
      </trkpt>
      <trkpt lat="45.79864" lon="4.96044">
        <ele>227.50845</ele>
        <time>2023-08-27T13:01:56.000Z</time>
      </trkpt>
      <trkpt lat="45.79864" lon="4.96035">
        <ele>227.67395</ele>
        <time>2023-08-27T13:01:57.000Z</time>
      </trkpt>
      <trkpt lat="45.79864" lon="4.96029">
        <ele>227.8158</ele>
        <time>2023-08-27T13:01:58.000Z</time>
      </trkpt>
      <trkpt lat="45.79864" lon="4.96022">
        <ele>227.88701</ele>
        <time>2023-08-27T13:01:59.000Z</time>
      </trkpt>
      <trkpt lat="45.79864" lon="4.96016">
        <ele>227.92619</ele>
        <time>2023-08-27T13:02:00.000Z</time>
      </trkpt>
      <trkpt lat="45.79863" lon="4.9601">
        <ele>227.94617</ele>
        <time>2023-08-27T13:02:01.000Z</time>
      </trkpt>
      <trkpt lat="45.79863" lon="4.96003">
        <ele>228.02481</ele>
        <time>2023-08-27T13:02:02.000Z</time>
      </trkpt>
      <trkpt lat="45.79863" lon="4.95997">
        <ele>228.10478</ele>
        <time>2023-08-27T13:02:03.000Z</time>
      </trkpt>
      <trkpt lat="45.79863" lon="4.95991">
        <ele>228.14005</ele>
        <time>2023-08-27T13:02:04.000Z</time>
      </trkpt>
      <trkpt lat="45.79863" lon="4.95985">
        <ele>228.20085</ele>
        <time>2023-08-27T13:02:05.000Z</time>
      </trkpt>
      <trkpt lat="45.79864" lon="4.95979">
        <ele>228.24483</ele>
        <time>2023-08-27T13:02:06.000Z</time>
      </trkpt>
      <trkpt lat="45.79864" lon="4.95973">
        <ele>228.2699</ele>
        <time>2023-08-27T13:02:07.000Z</time>
      </trkpt>
      <trkpt lat="45.79863" lon="4.95967">
        <ele>228.3387</ele>
        <time>2023-08-27T13:02:08.000Z</time>
      </trkpt>
      <trkpt lat="45.79863" lon="4.9596">
        <ele>228.40071</ele>
        <time>2023-08-27T13:02:09.000Z</time>
      </trkpt>
      <trkpt lat="45.79864" lon="4.95955">
        <ele>228.39473</ele>
        <time>2023-08-27T13:02:10.000Z</time>
      </trkpt>
      <trkpt lat="45.79864" lon="4.95949">
        <ele>228.38101</ele>
        <time>2023-08-27T13:02:11.000Z</time>
      </trkpt>
      <trkpt lat="45.79864" lon="4.95943">
        <ele>228.38779</ele>
        <time>2023-08-27T13:02:12.000Z</time>
      </trkpt>
      <trkpt lat="45.79864" lon="4.95937">
        <ele>228.39365</ele>
        <time>2023-08-27T13:02:13.000Z</time>
      </trkpt>
      <trkpt lat="45.79864" lon="4.95932">
        <ele>228.39328</ele>
        <time>2023-08-27T13:02:14.000Z</time>
      </trkpt>
      <trkpt lat="45.79864" lon="4.95925">
        <ele>228.40276</ele>
        <time>2023-08-27T13:02:15.000Z</time>
      </trkpt>
      <trkpt lat="45.79864" lon="4.95919">
        <ele>228.36617</ele>
        <time>2023-08-27T13:02:16.000Z</time>
      </trkpt>
      <trkpt lat="45.79862" lon="4.95912">
        <ele>228.30843</ele>
        <time>2023-08-27T13:02:17.000Z</time>
      </trkpt>
      <trkpt lat="45.79862" lon="4.95906">
        <ele>228.30087</ele>
        <time>2023-08-27T13:02:18.000Z</time>
      </trkpt>
      <trkpt lat="45.79862" lon="4.95899">
        <ele>228.31218</ele>
        <time>2023-08-27T13:02:19.000Z</time>
      </trkpt>
      <trkpt lat="45.79862" lon="4.95893">
        <ele>228.32675</ele>
        <time>2023-08-27T13:02:20.000Z</time>
      </trkpt>
      <trkpt lat="45.79862" lon="4.95886">
        <ele>228.33743</ele>
        <time>2023-08-27T13:02:21.000Z</time>
      </trkpt>
      <trkpt lat="45.79861" lon="4.95879">
        <ele>228.3468</ele>
        <time>2023-08-27T13:02:22.000Z</time>
      </trkpt>
      <trkpt lat="45.79861" lon="4.95873">
        <ele>228.36848</ele>
        <time>2023-08-27T13:02:23.000Z</time>
      </trkpt>
      <trkpt lat="45.7986" lon="4.95866">
        <ele>228.39738</ele>
        <time>2023-08-27T13:02:24.000Z</time>
      </trkpt>
      <trkpt lat="45.79859" lon="4.9586">
        <ele>228.40234</ele>
        <time>2023-08-27T13:02:25.000Z</time>
      </trkpt>
      <trkpt lat="45.79859" lon="4.95853">
        <ele>228.42831</ele>
        <time>2023-08-27T13:02:26.000Z</time>
      </trkpt>
      <trkpt lat="45.79858" lon="4.95846">
        <ele>228.46623</ele>
        <time>2023-08-27T13:02:27.000Z</time>
      </trkpt>
      <trkpt lat="45.79857" lon="4.9584">
        <ele>228.48955</ele>
        <time>2023-08-27T13:02:28.000Z</time>
      </trkpt>
      <trkpt lat="45.79857" lon="4.95834">
        <ele>228.51443</ele>
        <time>2023-08-27T13:02:29.000Z</time>
      </trkpt>
      <trkpt lat="45.79857" lon="4.95827">
        <ele>228.57651</ele>
        <time>2023-08-27T13:02:30.000Z</time>
      </trkpt>
      <trkpt lat="45.79857" lon="4.95821">
        <ele>228.62073</ele>
        <time>2023-08-27T13:02:31.000Z</time>
      </trkpt>
      <trkpt lat="45.79857" lon="4.95816">
        <ele>228.64534</ele>
        <time>2023-08-27T13:02:32.000Z</time>
      </trkpt>
      <trkpt lat="45.79857" lon="4.95809">
        <ele>228.67395</ele>
        <time>2023-08-27T13:02:33.000Z</time>
      </trkpt>
      <trkpt lat="45.79856" lon="4.95803">
        <ele>228.722</ele>
        <time>2023-08-27T13:02:34.000Z</time>
      </trkpt>
      <trkpt lat="45.79856" lon="4.95797">
        <ele>228.78976</ele>
        <time>2023-08-27T13:02:35.000Z</time>
      </trkpt>
      <trkpt lat="45.79855" lon="4.9579">
        <ele>228.83691</ele>
        <time>2023-08-27T13:02:36.000Z</time>
      </trkpt>
      <trkpt lat="45.79855" lon="4.95784">
        <ele>228.87434</ele>
        <time>2023-08-27T13:02:37.000Z</time>
      </trkpt>
      <trkpt lat="45.79855" lon="4.95777">
        <ele>228.87529</ele>
        <time>2023-08-27T13:02:38.000Z</time>
      </trkpt>
      <trkpt lat="45.79855" lon="4.95771">
        <ele>228.87065</ele>
        <time>2023-08-27T13:02:39.000Z</time>
      </trkpt>
      <trkpt lat="45.79854" lon="4.95765">
        <ele>228.88081</ele>
        <time>2023-08-27T13:02:40.000Z</time>
      </trkpt>
      <trkpt lat="45.79854" lon="4.9576">
        <ele>228.89603</ele>
        <time>2023-08-27T13:02:41.000Z</time>
      </trkpt>
      <trkpt lat="45.79854" lon="4.95753">
        <ele>228.93587</ele>
        <time>2023-08-27T13:02:42.000Z</time>
      </trkpt>
      <trkpt lat="45.79854" lon="4.95747">
        <ele>228.94063</ele>
        <time>2023-08-27T13:02:43.000Z</time>
      </trkpt>
      <trkpt lat="45.79853" lon="4.95742">
        <ele>228.9613</ele>
        <time>2023-08-27T13:02:44.000Z</time>
      </trkpt>
      <trkpt lat="45.79853" lon="4.95736">
        <ele>228.97189</ele>
        <time>2023-08-27T13:02:45.000Z</time>
      </trkpt>
      <trkpt lat="45.79853" lon="4.9573">
        <ele>228.96948</ele>
        <time>2023-08-27T13:02:46.000Z</time>
      </trkpt>
      <trkpt lat="45.79852" lon="4.95725">
        <ele>228.96477</ele>
        <time>2023-08-27T13:02:47.000Z</time>
      </trkpt>
      <trkpt lat="45.79852" lon="4.95719">
        <ele>228.95857</ele>
        <time>2023-08-27T13:02:48.000Z</time>
      </trkpt>
      <trkpt lat="45.79852" lon="4.95714">
        <ele>228.90976</ele>
        <time>2023-08-27T13:02:49.000Z</time>
      </trkpt>
      <trkpt lat="45.79852" lon="4.95708">
        <ele>228.89461</ele>
        <time>2023-08-27T13:02:50.000Z</time>
      </trkpt>
      <trkpt lat="45.79851" lon="4.95703">
        <ele>228.88057</ele>
        <time>2023-08-27T13:02:51.000Z</time>
      </trkpt>
      <trkpt lat="45.79851" lon="4.95697">
        <ele>228.87642</ele>
        <time>2023-08-27T13:02:52.000Z</time>
      </trkpt>
      <trkpt lat="45.79851" lon="4.95692">
        <ele>228.85567</ele>
        <time>2023-08-27T13:02:53.000Z</time>
      </trkpt>
      <trkpt lat="45.79851" lon="4.95686">
        <ele>228.80771</ele>
        <time>2023-08-27T13:02:54.000Z</time>
      </trkpt>
      <trkpt lat="45.79851" lon="4.95681">
        <ele>228.70288</ele>
        <time>2023-08-27T13:02:55.000Z</time>
      </trkpt>
      <trkpt lat="45.7985" lon="4.95675">
        <ele>228.59653</ele>
        <time>2023-08-27T13:02:56.000Z</time>
      </trkpt>
      <trkpt lat="45.7985" lon="4.95669">
        <ele>228.49556</ele>
        <time>2023-08-27T13:02:57.000Z</time>
      </trkpt>
      <trkpt lat="45.7985" lon="4.95664">
        <ele>228.39983</ele>
        <time>2023-08-27T13:02:58.000Z</time>
      </trkpt>
      <trkpt lat="45.7985" lon="4.95659">
        <ele>228.30807</ele>
        <time>2023-08-27T13:02:59.000Z</time>
      </trkpt>
      <trkpt lat="45.7985" lon="4.95654">
        <ele>228.19336</ele>
        <time>2023-08-27T13:03:00.000Z</time>
      </trkpt>
      <trkpt lat="45.7985" lon="4.95649">
        <ele>228.08113</ele>
        <time>2023-08-27T13:03:01.000Z</time>
      </trkpt>
      <trkpt lat="45.79849" lon="4.95644">
        <ele>227.92285</ele>
        <time>2023-08-27T13:03:02.000Z</time>
      </trkpt>
      <trkpt lat="45.79847" lon="4.95639">
        <ele>227.7681</ele>
        <time>2023-08-27T13:03:03.000Z</time>
      </trkpt>
      <trkpt lat="45.79845" lon="4.95635">
        <ele>227.5872</ele>
        <time>2023-08-27T13:03:04.000Z</time>
      </trkpt>
      <trkpt lat="45.79842" lon="4.95632">
        <ele>227.42172</ele>
        <time>2023-08-27T13:03:05.000Z</time>
      </trkpt>
      <trkpt lat="45.79839" lon="4.9563">
        <ele>227.23222</ele>
        <time>2023-08-27T13:03:06.000Z</time>
      </trkpt>
      <trkpt lat="45.79837" lon="4.95627">
        <ele>227.04451</ele>
        <time>2023-08-27T13:03:07.000Z</time>
      </trkpt>
      <trkpt lat="45.79835" lon="4.95624">
        <ele>226.82788</ele>
        <time>2023-08-27T13:03:08.000Z</time>
      </trkpt>
      <trkpt lat="45.79834" lon="4.9562">
        <ele>226.66841</ele>
        <time>2023-08-27T13:03:09.000Z</time>
      </trkpt>
      <trkpt lat="45.79832" lon="4.95616">
        <ele>226.51175</ele>
        <time>2023-08-27T13:03:10.000Z</time>
      </trkpt>
      <trkpt lat="45.7983" lon="4.95611">
        <ele>226.35999</ele>
        <time>2023-08-27T13:03:11.000Z</time>
      </trkpt>
      <trkpt lat="45.79828" lon="4.95607">
        <ele>226.20715</ele>
        <time>2023-08-27T13:03:12.000Z</time>
      </trkpt>
      <trkpt lat="45.79825" lon="4.95602">
        <ele>226.07231</ele>
        <time>2023-08-27T13:03:13.000Z</time>
      </trkpt>
      <trkpt lat="45.79822" lon="4.95598">
        <ele>225.95871</ele>
        <time>2023-08-27T13:03:14.000Z</time>
      </trkpt>
      <trkpt lat="45.79819" lon="4.95593">
        <ele>225.87234</ele>
        <time>2023-08-27T13:03:15.000Z</time>
      </trkpt>
      <trkpt lat="45.79816" lon="4.9559">
        <ele>225.77426</ele>
        <time>2023-08-27T13:03:16.000Z</time>
      </trkpt>
      <trkpt lat="45.79813" lon="4.95586">
        <ele>225.6799</ele>
        <time>2023-08-27T13:03:17.000Z</time>
      </trkpt>
      <trkpt lat="45.7981" lon="4.95582">
        <ele>225.58676</ele>
        <time>2023-08-27T13:03:18.000Z</time>
      </trkpt>
      <trkpt lat="45.79807" lon="4.95579">
        <ele>225.49252</ele>
        <time>2023-08-27T13:03:19.000Z</time>
      </trkpt>
      <trkpt lat="45.79803" lon="4.95575">
        <ele>225.40933</ele>
        <time>2023-08-27T13:03:20.000Z</time>
      </trkpt>
      <trkpt lat="45.798" lon="4.95571">
        <ele>225.3414</ele>
        <time>2023-08-27T13:03:21.000Z</time>
      </trkpt>
      <trkpt lat="45.79797" lon="4.95567">
        <ele>225.30038</ele>
        <time>2023-08-27T13:03:22.000Z</time>
      </trkpt>
      <trkpt lat="45.79794" lon="4.95563">
        <ele>225.26404</ele>
        <time>2023-08-27T13:03:23.000Z</time>
      </trkpt>
      <trkpt lat="45.79791" lon="4.95559">
        <ele>225.24936</ele>
        <time>2023-08-27T13:03:24.000Z</time>
      </trkpt>
      <trkpt lat="45.79788" lon="4.95555">
        <ele>225.23923</ele>
        <time>2023-08-27T13:03:25.000Z</time>
      </trkpt>
      <trkpt lat="45.79786" lon="4.9555">
        <ele>225.23511</ele>
        <time>2023-08-27T13:03:26.000Z</time>
      </trkpt>
      <trkpt lat="45.79783" lon="4.95546">
        <ele>225.23518</ele>
        <time>2023-08-27T13:03:27.000Z</time>
      </trkpt>
      <trkpt lat="45.79781" lon="4.95542">
        <ele>225.23608</ele>
        <time>2023-08-27T13:03:28.000Z</time>
      </trkpt>
      <trkpt lat="45.79778" lon="4.95538">
        <ele>225.23396</ele>
        <time>2023-08-27T13:03:29.000Z</time>
      </trkpt>
      <trkpt lat="45.79776" lon="4.95534">
        <ele>225.23239</ele>
        <time>2023-08-27T13:03:30.000Z</time>
      </trkpt>
      <trkpt lat="45.79772" lon="4.9553">
        <ele>225.22049</ele>
        <time>2023-08-27T13:03:31.000Z</time>
      </trkpt>
      <trkpt lat="45.79769" lon="4.95526">
        <ele>225.21237</ele>
        <time>2023-08-27T13:03:32.000Z</time>
      </trkpt>
      <trkpt lat="45.79766" lon="4.95523">
        <ele>225.20859</ele>
        <time>2023-08-27T13:03:33.000Z</time>
      </trkpt>
      <trkpt lat="45.79762" lon="4.95519">
        <ele>225.21936</ele>
        <time>2023-08-27T13:03:34.000Z</time>
      </trkpt>
      <trkpt lat="45.79758" lon="4.95516">
        <ele>225.23923</ele>
        <time>2023-08-27T13:03:35.000Z</time>
      </trkpt>
      <trkpt lat="45.79754" lon="4.95513">
        <ele>225.27971</ele>
        <time>2023-08-27T13:03:36.000Z</time>
      </trkpt>
      <trkpt lat="45.79751" lon="4.9551">
        <ele>225.32146</ele>
        <time>2023-08-27T13:03:37.000Z</time>
      </trkpt>
      <trkpt lat="45.79747" lon="4.95507">
        <ele>225.36295</ele>
        <time>2023-08-27T13:03:38.000Z</time>
      </trkpt>
      <trkpt lat="45.79743" lon="4.95504">
        <ele>225.41057</ele>
        <time>2023-08-27T13:03:39.000Z</time>
      </trkpt>
      <trkpt lat="45.7974" lon="4.95501">
        <ele>225.45435</ele>
        <time>2023-08-27T13:03:40.000Z</time>
      </trkpt>
      <trkpt lat="45.79736" lon="4.95498">
        <ele>225.48474</ele>
        <time>2023-08-27T13:03:41.000Z</time>
      </trkpt>
      <trkpt lat="45.79732" lon="4.95495">
        <ele>225.50151</ele>
        <time>2023-08-27T13:03:42.000Z</time>
      </trkpt>
      <trkpt lat="45.79729" lon="4.95493">
        <ele>225.51675</ele>
        <time>2023-08-27T13:03:43.000Z</time>
      </trkpt>
      <trkpt lat="45.79725" lon="4.9549">
        <ele>225.52405</ele>
        <time>2023-08-27T13:03:44.000Z</time>
      </trkpt>
      <trkpt lat="45.79722" lon="4.95487">
        <ele>225.52499</ele>
        <time>2023-08-27T13:03:45.000Z</time>
      </trkpt>
      <trkpt lat="45.79718" lon="4.95484">
        <ele>225.52847</ele>
        <time>2023-08-27T13:03:46.000Z</time>
      </trkpt>
      <trkpt lat="45.79714" lon="4.95482">
        <ele>225.52193</ele>
        <time>2023-08-27T13:03:47.000Z</time>
      </trkpt>
      <trkpt lat="45.7971" lon="4.95479">
        <ele>225.52872</ele>
        <time>2023-08-27T13:03:48.000Z</time>
      </trkpt>
      <trkpt lat="45.79706" lon="4.95476">
        <ele>225.53964</ele>
        <time>2023-08-27T13:03:49.000Z</time>
      </trkpt>
      <trkpt lat="45.79703" lon="4.95472">
        <ele>225.57137</ele>
        <time>2023-08-27T13:03:50.000Z</time>
      </trkpt>
      <trkpt lat="45.79699" lon="4.95467">
        <ele>225.62131</ele>
        <time>2023-08-27T13:03:51.000Z</time>
      </trkpt>
      <trkpt lat="45.79697" lon="4.95463">
        <ele>225.68449</ele>
        <time>2023-08-27T13:03:52.000Z</time>
      </trkpt>
      <trkpt lat="45.79695" lon="4.95457">
        <ele>225.74658</ele>
        <time>2023-08-27T13:03:53.000Z</time>
      </trkpt>
      <trkpt lat="45.79693" lon="4.95452">
        <ele>225.80261</ele>
        <time>2023-08-27T13:03:54.000Z</time>
      </trkpt>
      <trkpt lat="45.79692" lon="4.95447">
        <ele>225.8544</ele>
        <time>2023-08-27T13:03:55.000Z</time>
      </trkpt>
      <trkpt lat="45.79691" lon="4.95441">
        <ele>225.90483</ele>
        <time>2023-08-27T13:03:56.000Z</time>
      </trkpt>
      <trkpt lat="45.7969" lon="4.95435">
        <ele>225.97559</ele>
        <time>2023-08-27T13:03:57.000Z</time>
      </trkpt>
      <trkpt lat="45.79689" lon="4.95429">
        <ele>226.08594</ele>
        <time>2023-08-27T13:03:58.000Z</time>
      </trkpt>
      <trkpt lat="45.79688" lon="4.95423">
        <ele>226.20496</ele>
        <time>2023-08-27T13:03:59.000Z</time>
      </trkpt>
      <trkpt lat="45.79686" lon="4.95417">
        <ele>226.356</ele>
        <time>2023-08-27T13:04:00.000Z</time>
      </trkpt>
      <trkpt lat="45.79686" lon="4.9541">
        <ele>226.48389</ele>
        <time>2023-08-27T13:04:01.000Z</time>
      </trkpt>
      <trkpt lat="45.79686" lon="4.95403">
        <ele>226.59856</ele>
        <time>2023-08-27T13:04:02.000Z</time>
      </trkpt>
      <trkpt lat="45.79687" lon="4.95396">
        <ele>226.69949</ele>
        <time>2023-08-27T13:04:03.000Z</time>
      </trkpt>
      <trkpt lat="45.79687" lon="4.95389">
        <ele>226.80452</ele>
        <time>2023-08-27T13:04:04.000Z</time>
      </trkpt>
      <trkpt lat="45.79688" lon="4.95382">
        <ele>226.89578</ele>
        <time>2023-08-27T13:04:05.000Z</time>
      </trkpt>
      <trkpt lat="45.79688" lon="4.95376">
        <ele>226.98181</ele>
        <time>2023-08-27T13:04:06.000Z</time>
      </trkpt>
      <trkpt lat="45.79688" lon="4.95369">
        <ele>227.08658</ele>
        <time>2023-08-27T13:04:07.000Z</time>
      </trkpt>
      <trkpt lat="45.79689" lon="4.95363">
        <ele>227.19807</ele>
        <time>2023-08-27T13:04:08.000Z</time>
      </trkpt>
      <trkpt lat="45.79689" lon="4.95357">
        <ele>227.29329</ele>
        <time>2023-08-27T13:04:09.000Z</time>
      </trkpt>
      <trkpt lat="45.79689" lon="4.95352">
        <ele>227.38383</ele>
        <time>2023-08-27T13:04:10.000Z</time>
      </trkpt>
      <trkpt lat="45.7969" lon="4.95347">
        <ele>227.44431</ele>
        <time>2023-08-27T13:04:11.000Z</time>
      </trkpt>
      <trkpt lat="45.7969" lon="4.95342">
        <ele>227.47702</ele>
        <time>2023-08-27T13:04:12.000Z</time>
      </trkpt>
      <trkpt lat="45.7969" lon="4.95337">
        <ele>227.49185</ele>
        <time>2023-08-27T13:04:13.000Z</time>
      </trkpt>
      <trkpt lat="45.7969" lon="4.95332">
        <ele>227.50655</ele>
        <time>2023-08-27T13:04:14.000Z</time>
      </trkpt>
      <trkpt lat="45.7969" lon="4.95326">
        <ele>227.55319</ele>
        <time>2023-08-27T13:04:15.000Z</time>
      </trkpt>
      <trkpt lat="45.7969" lon="4.95322">
        <ele>227.6011</ele>
        <time>2023-08-27T13:04:16.000Z</time>
      </trkpt>
      <trkpt lat="45.7969" lon="4.95317">
        <ele>227.6752</ele>
        <time>2023-08-27T13:04:17.000Z</time>
      </trkpt>
      <trkpt lat="45.79689" lon="4.95313">
        <ele>227.71133</ele>
        <time>2023-08-27T13:04:18.000Z</time>
      </trkpt>
      <trkpt lat="45.79689" lon="4.95309">
        <ele>227.73068</ele>
        <time>2023-08-27T13:04:19.000Z</time>
      </trkpt>
      <trkpt lat="45.79688" lon="4.95304">
        <ele>227.82169</ele>
        <time>2023-08-27T13:04:20.000Z</time>
      </trkpt>
      <trkpt lat="45.79688" lon="4.953">
        <ele>227.96199</ele>
        <time>2023-08-27T13:04:21.000Z</time>
      </trkpt>
      <trkpt lat="45.79687" lon="4.95296">
        <ele>228.11775</ele>
        <time>2023-08-27T13:04:22.000Z</time>
      </trkpt>
      <trkpt lat="45.79687" lon="4.95291">
        <ele>228.30998</ele>
        <time>2023-08-27T13:04:23.000Z</time>
      </trkpt>
      <trkpt lat="45.79686" lon="4.95286">
        <ele>228.49927</ele>
        <time>2023-08-27T13:04:24.000Z</time>
      </trkpt>
      <trkpt lat="45.79686" lon="4.9528">
        <ele>228.70142</ele>
        <time>2023-08-27T13:04:25.000Z</time>
      </trkpt>
      <trkpt lat="45.79685" lon="4.95275">
        <ele>228.90503</ele>
        <time>2023-08-27T13:04:26.000Z</time>
      </trkpt>
      <trkpt lat="45.79685" lon="4.95269">
        <ele>229.11166</ele>
        <time>2023-08-27T13:04:27.000Z</time>
      </trkpt>
      <trkpt lat="45.79685" lon="4.95264">
        <ele>229.31836</ele>
        <time>2023-08-27T13:04:28.000Z</time>
      </trkpt>
      <trkpt lat="45.79684" lon="4.95258">
        <ele>229.52383</ele>
        <time>2023-08-27T13:04:29.000Z</time>
      </trkpt>
      <trkpt lat="45.79684" lon="4.95253">
        <ele>229.75024</ele>
        <time>2023-08-27T13:04:30.000Z</time>
      </trkpt>
      <trkpt lat="45.79684" lon="4.95248">
        <ele>229.97115</ele>
        <time>2023-08-27T13:04:31.000Z</time>
      </trkpt>
      <trkpt lat="45.79683" lon="4.95243">
        <ele>230.18991</ele>
        <time>2023-08-27T13:04:32.000Z</time>
      </trkpt>
      <trkpt lat="45.79682" lon="4.95239">
        <ele>230.42453</ele>
        <time>2023-08-27T13:04:33.000Z</time>
      </trkpt>
      <trkpt lat="45.79681" lon="4.95233">
        <ele>230.65088</ele>
        <time>2023-08-27T13:04:34.000Z</time>
      </trkpt>
      <trkpt lat="45.7968" lon="4.95228">
        <ele>230.82678</ele>
        <time>2023-08-27T13:04:35.000Z</time>
      </trkpt>
      <trkpt lat="45.79679" lon="4.95222">
        <ele>231.00652</ele>
        <time>2023-08-27T13:04:36.000Z</time>
      </trkpt>
      <trkpt lat="45.79678" lon="4.95217">
        <ele>231.12427</ele>
        <time>2023-08-27T13:04:37.000Z</time>
      </trkpt>
      <trkpt lat="45.79678" lon="4.95211">
        <ele>231.24629</ele>
        <time>2023-08-27T13:04:38.000Z</time>
      </trkpt>
      <trkpt lat="45.79678" lon="4.95204">
        <ele>231.38492</ele>
        <time>2023-08-27T13:04:39.000Z</time>
      </trkpt>
      <trkpt lat="45.79678" lon="4.95198">
        <ele>231.4126</ele>
        <time>2023-08-27T13:04:40.000Z</time>
      </trkpt>
      <trkpt lat="45.79678" lon="4.95192">
        <ele>231.42061</ele>
        <time>2023-08-27T13:04:41.000Z</time>
      </trkpt>
      <trkpt lat="45.79678" lon="4.95186">
        <ele>231.43108</ele>
        <time>2023-08-27T13:04:42.000Z</time>
      </trkpt>
      <trkpt lat="45.79678" lon="4.9518">
        <ele>231.40117</ele>
        <time>2023-08-27T13:04:43.000Z</time>
      </trkpt>
      <trkpt lat="45.79678" lon="4.95174">
        <ele>231.34628</ele>
        <time>2023-08-27T13:04:44.000Z</time>
      </trkpt>
      <trkpt lat="45.79679" lon="4.95168">
        <ele>231.27292</ele>
        <time>2023-08-27T13:04:45.000Z</time>
      </trkpt>
      <trkpt lat="45.79679" lon="4.95162">
        <ele>231.20728</ele>
        <time>2023-08-27T13:04:46.000Z</time>
      </trkpt>
      <trkpt lat="45.7968" lon="4.95156">
        <ele>231.13309</ele>
        <time>2023-08-27T13:04:47.000Z</time>
      </trkpt>
      <trkpt lat="45.7968" lon="4.9515">
        <ele>231.04301</ele>
        <time>2023-08-27T13:04:48.000Z</time>
      </trkpt>
      <trkpt lat="45.79682" lon="4.95144">
        <ele>230.95761</ele>
        <time>2023-08-27T13:04:49.000Z</time>
      </trkpt>
      <trkpt lat="45.79683" lon="4.95139">
        <ele>230.84464</ele>
        <time>2023-08-27T13:04:50.000Z</time>
      </trkpt>
      <trkpt lat="45.79684" lon="4.95133">
        <ele>230.75867</ele>
        <time>2023-08-27T13:04:51.000Z</time>
      </trkpt>
      <trkpt lat="45.79686" lon="4.95128">
        <ele>230.68375</ele>
        <time>2023-08-27T13:04:52.000Z</time>
      </trkpt>
      <trkpt lat="45.79688" lon="4.95123">
        <ele>230.59697</ele>
        <time>2023-08-27T13:04:53.000Z</time>
      </trkpt>
      <trkpt lat="45.7969" lon="4.95118">
        <ele>230.53194</ele>
        <time>2023-08-27T13:04:54.000Z</time>
      </trkpt>
      <trkpt lat="45.79692" lon="4.95113">
        <ele>230.49356</ele>
        <time>2023-08-27T13:04:55.000Z</time>
      </trkpt>
      <trkpt lat="45.79694" lon="4.95109">
        <ele>230.4675</ele>
        <time>2023-08-27T13:04:56.000Z</time>
      </trkpt>
      <trkpt lat="45.79696" lon="4.95105">
        <ele>230.4675</ele>
        <time>2023-08-27T13:04:57.000Z</time>
      </trkpt>
      <trkpt lat="45.79697" lon="4.951">
        <ele>230.46651</ele>
        <time>2023-08-27T13:04:58.000Z</time>
      </trkpt>
      <trkpt lat="45.79699" lon="4.95096">
        <ele>230.46277</ele>
        <time>2023-08-27T13:04:59.000Z</time>
      </trkpt>
      <trkpt lat="45.79701" lon="4.95092">
        <ele>230.48955</ele>
        <time>2023-08-27T13:05:00.000Z</time>
      </trkpt>
      <trkpt lat="45.79702" lon="4.95087">
        <ele>230.48991</ele>
        <time>2023-08-27T13:05:01.000Z</time>
      </trkpt>
      <trkpt lat="45.79704" lon="4.95083">
        <ele>230.48254</ele>
        <time>2023-08-27T13:05:02.000Z</time>
      </trkpt>
      <trkpt lat="45.79706" lon="4.9508">
        <ele>230.49759</ele>
        <time>2023-08-27T13:05:03.000Z</time>
      </trkpt>
      <trkpt lat="45.79708" lon="4.95075">
        <ele>230.54126</ele>
        <time>2023-08-27T13:05:04.000Z</time>
      </trkpt>
      <trkpt lat="45.79709" lon="4.95071">
        <ele>230.61124</ele>
        <time>2023-08-27T13:05:05.000Z</time>
      </trkpt>
      <trkpt lat="45.79711" lon="4.95066">
        <ele>230.68887</ele>
        <time>2023-08-27T13:05:06.000Z</time>
      </trkpt>
      <trkpt lat="45.79713" lon="4.95061">
        <ele>230.79739</ele>
        <time>2023-08-27T13:05:07.000Z</time>
      </trkpt>
      <trkpt lat="45.79715" lon="4.95056">
        <ele>230.91318</ele>
        <time>2023-08-27T13:05:08.000Z</time>
      </trkpt>
      <trkpt lat="45.79717" lon="4.95052">
        <ele>231.05193</ele>
        <time>2023-08-27T13:05:09.000Z</time>
      </trkpt>
      <trkpt lat="45.7972" lon="4.95048">
        <ele>231.19125</ele>
        <time>2023-08-27T13:05:10.000Z</time>
      </trkpt>
      <trkpt lat="45.79722" lon="4.95044">
        <ele>231.32024</ele>
        <time>2023-08-27T13:05:11.000Z</time>
      </trkpt>
      <trkpt lat="45.79724" lon="4.95041">
        <ele>231.44556</ele>
        <time>2023-08-27T13:05:12.000Z</time>
      </trkpt>
      <trkpt lat="45.79727" lon="4.95038">
        <ele>231.57858</ele>
        <time>2023-08-27T13:05:13.000Z</time>
      </trkpt>
      <trkpt lat="45.79729" lon="4.95034">
        <ele>231.6938</ele>
        <time>2023-08-27T13:05:14.000Z</time>
      </trkpt>
      <trkpt lat="45.79731" lon="4.9503">
        <ele>231.79411</ele>
        <time>2023-08-27T13:05:15.000Z</time>
      </trkpt>
      <trkpt lat="45.79733" lon="4.95027">
        <ele>231.88567</ele>
        <time>2023-08-27T13:05:16.000Z</time>
      </trkpt>
      <trkpt lat="45.79735" lon="4.95023">
        <ele>231.99902</ele>
        <time>2023-08-27T13:05:17.000Z</time>
      </trkpt>
      <trkpt lat="45.79737" lon="4.95019">
        <ele>232.08655</ele>
        <time>2023-08-27T13:05:18.000Z</time>
      </trkpt>
      <trkpt lat="45.79739" lon="4.95016">
        <ele>232.16792</ele>
        <time>2023-08-27T13:05:19.000Z</time>
      </trkpt>
      <trkpt lat="45.79742" lon="4.95013">
        <ele>232.20285</ele>
        <time>2023-08-27T13:05:20.000Z</time>
      </trkpt>
      <trkpt lat="45.79744" lon="4.95009">
        <ele>232.24788</ele>
        <time>2023-08-27T13:05:21.000Z</time>
      </trkpt>
      <trkpt lat="45.79746" lon="4.95006">
        <ele>232.28152</ele>
        <time>2023-08-27T13:05:22.000Z</time>
      </trkpt>
      <trkpt lat="45.79748" lon="4.95002">
        <ele>232.31226</ele>
        <time>2023-08-27T13:05:23.000Z</time>
      </trkpt>
      <trkpt lat="45.79751" lon="4.94998">
        <ele>232.29948</ele>
        <time>2023-08-27T13:05:24.000Z</time>
      </trkpt>
      <trkpt lat="45.79753" lon="4.94995">
        <ele>232.28577</ele>
        <time>2023-08-27T13:05:25.000Z</time>
      </trkpt>
      <trkpt lat="45.79755" lon="4.94991">
        <ele>232.24112</ele>
        <time>2023-08-27T13:05:26.000Z</time>
      </trkpt>
      <trkpt lat="45.79758" lon="4.94987">
        <ele>232.16699</ele>
        <time>2023-08-27T13:05:27.000Z</time>
      </trkpt>
      <trkpt lat="45.7976" lon="4.94984">
        <ele>232.09586</ele>
        <time>2023-08-27T13:05:28.000Z</time>
      </trkpt>
      <trkpt lat="45.79762" lon="4.9498">
        <ele>232.01225</ele>
        <time>2023-08-27T13:05:29.000Z</time>
      </trkpt>
      <trkpt lat="45.79765" lon="4.94976">
        <ele>231.93135</ele>
        <time>2023-08-27T13:05:30.000Z</time>
      </trkpt>
      <trkpt lat="45.79767" lon="4.94972">
        <ele>231.84944</ele>
        <time>2023-08-27T13:05:31.000Z</time>
      </trkpt>
      <trkpt lat="45.7977" lon="4.94968">
        <ele>231.79395</ele>
        <time>2023-08-27T13:05:32.000Z</time>
      </trkpt>
      <trkpt lat="45.79772" lon="4.94964">
        <ele>231.73186</ele>
        <time>2023-08-27T13:05:33.000Z</time>
      </trkpt>
      <trkpt lat="45.79774" lon="4.9496">
        <ele>231.67094</ele>
        <time>2023-08-27T13:05:34.000Z</time>
      </trkpt>
      <trkpt lat="45.79776" lon="4.94957">
        <ele>231.61526</ele>
        <time>2023-08-27T13:05:35.000Z</time>
      </trkpt>
      <trkpt lat="45.79778" lon="4.94953">
        <ele>231.54565</ele>
        <time>2023-08-27T13:05:36.000Z</time>
      </trkpt>
      <trkpt lat="45.7978" lon="4.94949">
        <ele>231.44698</ele>
        <time>2023-08-27T13:05:37.000Z</time>
      </trkpt>
      <trkpt lat="45.79782" lon="4.94945">
        <ele>231.37338</ele>
        <time>2023-08-27T13:05:38.000Z</time>
      </trkpt>
      <trkpt lat="45.79784" lon="4.94942">
        <ele>231.28516</ele>
        <time>2023-08-27T13:05:39.000Z</time>
      </trkpt>
      <trkpt lat="45.79786" lon="4.94938">
        <ele>231.22482</ele>
        <time>2023-08-27T13:05:40.000Z</time>
      </trkpt>
      <trkpt lat="45.79788" lon="4.94934">
        <ele>231.1687</ele>
        <time>2023-08-27T13:05:41.000Z</time>
      </trkpt>
      <trkpt lat="45.7979" lon="4.9493">
        <ele>231.13652</ele>
        <time>2023-08-27T13:05:42.000Z</time>
      </trkpt>
      <trkpt lat="45.79792" lon="4.94926">
        <ele>231.1189</ele>
        <time>2023-08-27T13:05:43.000Z</time>
      </trkpt>
      <trkpt lat="45.79794" lon="4.94922">
        <ele>231.13184</ele>
        <time>2023-08-27T13:05:44.000Z</time>
      </trkpt>
      <trkpt lat="45.79797" lon="4.94918">
        <ele>231.13577</ele>
        <time>2023-08-27T13:05:45.000Z</time>
      </trkpt>
      <trkpt lat="45.79799" lon="4.94915">
        <ele>231.16768</ele>
        <time>2023-08-27T13:05:46.000Z</time>
      </trkpt>
      <trkpt lat="45.79801" lon="4.94912">
        <ele>231.20779</ele>
        <time>2023-08-27T13:05:47.000Z</time>
      </trkpt>
      <trkpt lat="45.79803" lon="4.94909">
        <ele>231.26128</ele>
        <time>2023-08-27T13:05:48.000Z</time>
      </trkpt>
      <trkpt lat="45.79805" lon="4.94906">
        <ele>231.34074</ele>
        <time>2023-08-27T13:05:49.000Z</time>
      </trkpt>
      <trkpt lat="45.79807" lon="4.94901">
        <ele>231.38748</ele>
        <time>2023-08-27T13:05:51.000Z</time>
      </trkpt>
      <trkpt lat="45.79808" lon="4.94899">
        <ele>231.43478</ele>
        <time>2023-08-27T13:05:52.000Z</time>
      </trkpt>
      <trkpt lat="45.7981" lon="4.94896">
        <ele>231.47815</ele>
        <time>2023-08-27T13:05:53.000Z</time>
      </trkpt>
      <trkpt lat="45.79812" lon="4.94893">
        <ele>231.49773</ele>
        <time>2023-08-27T13:05:54.000Z</time>
      </trkpt>
      <trkpt lat="45.79814" lon="4.94891">
        <ele>231.51572</ele>
        <time>2023-08-27T13:05:55.000Z</time>
      </trkpt>
      <trkpt lat="45.79816" lon="4.94887">
        <ele>231.53418</ele>
        <time>2023-08-27T13:05:56.000Z</time>
      </trkpt>
      <trkpt lat="45.79818" lon="4.94884">
        <ele>231.54129</ele>
        <time>2023-08-27T13:05:57.000Z</time>
      </trkpt>
      <trkpt lat="45.7982" lon="4.9488">
        <ele>231.53809</ele>
        <time>2023-08-27T13:05:58.000Z</time>
      </trkpt>
      <trkpt lat="45.79822" lon="4.94875">
        <ele>231.5175</ele>
        <time>2023-08-27T13:05:59.000Z</time>
      </trkpt>
      <trkpt lat="45.79824" lon="4.94871">
        <ele>231.48904</ele>
        <time>2023-08-27T13:06:00.000Z</time>
      </trkpt>
      <trkpt lat="45.79825" lon="4.94865">
        <ele>231.46094</ele>
        <time>2023-08-27T13:06:01.000Z</time>
      </trkpt>
      <trkpt lat="45.79826" lon="4.94859">
        <ele>231.45357</ele>
        <time>2023-08-27T13:06:02.000Z</time>
      </trkpt>
      <trkpt lat="45.79826" lon="4.94854">
        <ele>231.43135</ele>
        <time>2023-08-27T13:06:03.000Z</time>
      </trkpt>
      <trkpt lat="45.79825" lon="4.94846">
        <ele>231.38135</ele>
        <time>2023-08-27T13:06:04.000Z</time>
      </trkpt>
      <trkpt lat="45.79825" lon="4.94839">
        <ele>231.33662</ele>
        <time>2023-08-27T13:06:05.000Z</time>
      </trkpt>
      <trkpt lat="45.79824" lon="4.94832">
        <ele>231.31267</ele>
        <time>2023-08-27T13:06:06.000Z</time>
      </trkpt>
      <trkpt lat="45.79825" lon="4.94824">
        <ele>231.23784</ele>
        <time>2023-08-27T13:06:07.000Z</time>
      </trkpt>
      <trkpt lat="45.79824" lon="4.94817">
        <ele>231.1606</ele>
        <time>2023-08-27T13:06:08.000Z</time>
      </trkpt>
      <trkpt lat="45.79823" lon="4.9481">
        <ele>231.04936</ele>
        <time>2023-08-27T13:06:09.000Z</time>
      </trkpt>
      <trkpt lat="45.79822" lon="4.94803">
        <ele>230.90869</ele>
        <time>2023-08-27T13:06:10.000Z</time>
      </trkpt>
      <trkpt lat="45.79821" lon="4.94796">
        <ele>230.78427</ele>
        <time>2023-08-27T13:06:11.000Z</time>
      </trkpt>
      <trkpt lat="45.7982" lon="4.94789">
        <ele>230.69003</ele>
        <time>2023-08-27T13:06:12.000Z</time>
      </trkpt>
      <trkpt lat="45.79819" lon="4.94783">
        <ele>230.59587</ele>
        <time>2023-08-27T13:06:13.000Z</time>
      </trkpt>
      <trkpt lat="45.7982" lon="4.94776">
        <ele>230.5267</ele>
        <time>2023-08-27T13:06:14.000Z</time>
      </trkpt>
      <trkpt lat="45.79821" lon="4.9477">
        <ele>230.42981</ele>
        <time>2023-08-27T13:06:15.000Z</time>
      </trkpt>
      <trkpt lat="45.79822" lon="4.94763">
        <ele>230.35397</ele>
        <time>2023-08-27T13:06:16.000Z</time>
      </trkpt>
      <trkpt lat="45.79821" lon="4.94758">
        <ele>230.30644</ele>
        <time>2023-08-27T13:06:17.000Z</time>
      </trkpt>
      <trkpt lat="45.7982" lon="4.94752">
        <ele>230.29121</ele>
        <time>2023-08-27T13:06:18.000Z</time>
      </trkpt>
      <trkpt lat="45.79821" lon="4.94747">
        <ele>230.24451</ele>
        <time>2023-08-27T13:06:19.000Z</time>
      </trkpt>
      <trkpt lat="45.79821" lon="4.94741">
        <ele>230.19283</ele>
        <time>2023-08-27T13:06:20.000Z</time>
      </trkpt>
      <trkpt lat="45.7982" lon="4.94736">
        <ele>230.12256</ele>
        <time>2023-08-27T13:06:21.000Z</time>
      </trkpt>
      <trkpt lat="45.7982" lon="4.9473">
        <ele>230.05655</ele>
        <time>2023-08-27T13:06:22.000Z</time>
      </trkpt>
      <trkpt lat="45.79819" lon="4.94724">
        <ele>229.98547</ele>
        <time>2023-08-27T13:06:23.000Z</time>
      </trkpt>
      <trkpt lat="45.79819" lon="4.94718">
        <ele>229.93291</ele>
        <time>2023-08-27T13:06:24.000Z</time>
      </trkpt>
      <trkpt lat="45.79818" lon="4.94713">
        <ele>229.83574</ele>
        <time>2023-08-27T13:06:25.000Z</time>
      </trkpt>
      <trkpt lat="45.79819" lon="4.94707">
        <ele>229.66699</ele>
        <time>2023-08-27T13:06:26.000Z</time>
      </trkpt>
      <trkpt lat="45.79818" lon="4.94701">
        <ele>229.55147</ele>
        <time>2023-08-27T13:06:27.000Z</time>
      </trkpt>
      <trkpt lat="45.79818" lon="4.94696">
        <ele>229.40967</ele>
        <time>2023-08-27T13:06:28.000Z</time>
      </trkpt>
      <trkpt lat="45.79818" lon="4.9469">
        <ele>229.25293</ele>
        <time>2023-08-27T13:06:29.000Z</time>
      </trkpt>
      <trkpt lat="45.79817" lon="4.94685">
        <ele>229.08078</ele>
        <time>2023-08-27T13:06:30.000Z</time>
      </trkpt>
      <trkpt lat="45.79817" lon="4.94679">
        <ele>228.94893</ele>
        <time>2023-08-27T13:06:31.000Z</time>
      </trkpt>
      <trkpt lat="45.79817" lon="4.94674">
        <ele>228.80583</ele>
        <time>2023-08-27T13:06:32.000Z</time>
      </trkpt>
      <trkpt lat="45.79817" lon="4.94668">
        <ele>228.65747</ele>
        <time>2023-08-27T13:06:33.000Z</time>
      </trkpt>
      <trkpt lat="45.79816" lon="4.94662">
        <ele>228.48428</ele>
        <time>2023-08-27T13:06:34.000Z</time>
      </trkpt>
      <trkpt lat="45.79816" lon="4.94656">
        <ele>228.38017</ele>
        <time>2023-08-27T13:06:35.000Z</time>
      </trkpt>
      <trkpt lat="45.79815" lon="4.9465">
        <ele>228.27127</ele>
        <time>2023-08-27T13:06:36.000Z</time>
      </trkpt>
      <trkpt lat="45.79815" lon="4.94644">
        <ele>228.14151</ele>
        <time>2023-08-27T13:06:37.000Z</time>
      </trkpt>
      <trkpt lat="45.79815" lon="4.94638">
        <ele>227.99495</ele>
        <time>2023-08-27T13:06:38.000Z</time>
      </trkpt>
      <trkpt lat="45.79815" lon="4.94632">
        <ele>227.88887</ele>
        <time>2023-08-27T13:06:39.000Z</time>
      </trkpt>
      <trkpt lat="45.79816" lon="4.94626">
        <ele>227.80676</ele>
        <time>2023-08-27T13:06:40.000Z</time>
      </trkpt>
      <trkpt lat="45.79816" lon="4.94621">
        <ele>227.73071</ele>
        <time>2023-08-27T13:06:41.000Z</time>
      </trkpt>
      <trkpt lat="45.79816" lon="4.94615">
        <ele>227.6407</ele>
        <time>2023-08-27T13:06:42.000Z</time>
      </trkpt>
      <trkpt lat="45.79815" lon="4.94609">
        <ele>227.57944</ele>
        <time>2023-08-27T13:06:43.000Z</time>
      </trkpt>
      <trkpt lat="45.79815" lon="4.94603">
        <ele>227.5197</ele>
        <time>2023-08-27T13:06:44.000Z</time>
      </trkpt>
      <trkpt lat="45.79815" lon="4.94597">
        <ele>227.51582</ele>
        <time>2023-08-27T13:06:45.000Z</time>
      </trkpt>
      <trkpt lat="45.79815" lon="4.94591">
        <ele>227.58005</ele>
        <time>2023-08-27T13:06:46.000Z</time>
      </trkpt>
      <trkpt lat="45.79815" lon="4.94586">
        <ele>227.6376</ele>
        <time>2023-08-27T13:06:47.000Z</time>
      </trkpt>
      <trkpt lat="45.79815" lon="4.9458">
        <ele>227.69629</ele>
        <time>2023-08-27T13:06:48.000Z</time>
      </trkpt>
      <trkpt lat="45.79815" lon="4.94574">
        <ele>227.80074</ele>
        <time>2023-08-27T13:06:49.000Z</time>
      </trkpt>
      <trkpt lat="45.79816" lon="4.94569">
        <ele>227.88541</ele>
        <time>2023-08-27T13:06:50.000Z</time>
      </trkpt>
      <trkpt lat="45.79816" lon="4.94563">
        <ele>227.94815</ele>
        <time>2023-08-27T13:06:51.000Z</time>
      </trkpt>
      <trkpt lat="45.79815" lon="4.94557">
        <ele>228.00253</ele>
        <time>2023-08-27T13:06:52.000Z</time>
      </trkpt>
      <trkpt lat="45.79815" lon="4.94552">
        <ele>228.05838</ele>
        <time>2023-08-27T13:06:53.000Z</time>
      </trkpt>
      <trkpt lat="45.79815" lon="4.94546">
        <ele>228.19612</ele>
        <time>2023-08-27T13:06:54.000Z</time>
      </trkpt>
      <trkpt lat="45.79816" lon="4.94541">
        <ele>228.2478</ele>
        <time>2023-08-27T13:06:55.000Z</time>
      </trkpt>
      <trkpt lat="45.79816" lon="4.94535">
        <ele>228.299</ele>
        <time>2023-08-27T13:06:56.000Z</time>
      </trkpt>
      <trkpt lat="45.79816" lon="4.9453">
        <ele>228.37456</ele>
        <time>2023-08-27T13:06:57.000Z</time>
      </trkpt>
      <trkpt lat="45.79815" lon="4.94525">
        <ele>228.48734</ele>
        <time>2023-08-27T13:06:58.000Z</time>
      </trkpt>
      <trkpt lat="45.79815" lon="4.9452">
        <ele>228.55391</ele>
        <time>2023-08-27T13:06:59.000Z</time>
      </trkpt>
      <trkpt lat="45.79814" lon="4.94516">
        <ele>228.61923</ele>
        <time>2023-08-27T13:07:00.000Z</time>
      </trkpt>
      <trkpt lat="45.79813" lon="4.94511">
        <ele>228.70059</ele>
        <time>2023-08-27T13:07:01.000Z</time>
      </trkpt>
      <trkpt lat="45.79812" lon="4.94506">
        <ele>228.80327</ele>
        <time>2023-08-27T13:07:02.000Z</time>
      </trkpt>
      <trkpt lat="45.79811" lon="4.94501">
        <ele>228.90564</ele>
        <time>2023-08-27T13:07:03.000Z</time>
      </trkpt>
      <trkpt lat="45.79811" lon="4.94495">
        <ele>228.97778</ele>
        <time>2023-08-27T13:07:04.000Z</time>
      </trkpt>
      <trkpt lat="45.79811" lon="4.9449">
        <ele>229.02522</ele>
        <time>2023-08-27T13:07:05.000Z</time>
      </trkpt>
      <trkpt lat="45.7981" lon="4.94485">
        <ele>229.04317</ele>
        <time>2023-08-27T13:07:06.000Z</time>
      </trkpt>
      <trkpt lat="45.79811" lon="4.94479">
        <ele>229.06274</ele>
        <time>2023-08-27T13:07:07.000Z</time>
      </trkpt>
      <trkpt lat="45.79811" lon="4.94475">
        <ele>229.10893</ele>
        <time>2023-08-27T13:07:08.000Z</time>
      </trkpt>
      <trkpt lat="45.79811" lon="4.9447">
        <ele>229.10257</ele>
        <time>2023-08-27T13:07:09.000Z</time>
      </trkpt>
      <trkpt lat="45.79811" lon="4.94466">
        <ele>229.13704</ele>
        <time>2023-08-27T13:07:10.000Z</time>
      </trkpt>
      <trkpt lat="45.79811" lon="4.9446">
        <ele>229.15604</ele>
        <time>2023-08-27T13:07:11.000Z</time>
      </trkpt>
      <trkpt lat="45.79811" lon="4.94454">
        <ele>229.14433</ele>
        <time>2023-08-27T13:07:12.000Z</time>
      </trkpt>
      <trkpt lat="45.7981" lon="4.94448">
        <ele>229.11295</ele>
        <time>2023-08-27T13:07:13.000Z</time>
      </trkpt>
      <trkpt lat="45.7981" lon="4.94443">
        <ele>229.01909</ele>
        <time>2023-08-27T13:07:14.000Z</time>
      </trkpt>
      <trkpt lat="45.7981" lon="4.94439">
        <ele>229.00549</ele>
        <time>2023-08-27T13:07:15.000Z</time>
      </trkpt>
      <trkpt lat="45.79809" lon="4.94434">
        <ele>228.9782</ele>
        <time>2023-08-27T13:07:16.000Z</time>
      </trkpt>
      <trkpt lat="45.79809" lon="4.94429">
        <ele>228.93362</ele>
        <time>2023-08-27T13:07:17.000Z</time>
      </trkpt>
      <trkpt lat="45.79809" lon="4.94424">
        <ele>228.84683</ele>
        <time>2023-08-27T13:07:18.000Z</time>
      </trkpt>
      <trkpt lat="45.79809" lon="4.94419">
        <ele>228.78825</ele>
        <time>2023-08-27T13:07:19.000Z</time>
      </trkpt>
      <trkpt lat="45.79809" lon="4.94414">
        <ele>228.73389</ele>
        <time>2023-08-27T13:07:20.000Z</time>
      </trkpt>
      <trkpt lat="45.79809" lon="4.94409">
        <ele>228.68767</ele>
        <time>2023-08-27T13:07:21.000Z</time>
      </trkpt>
      <trkpt lat="45.79809" lon="4.94404">
        <ele>228.63472</ele>
        <time>2023-08-27T13:07:22.000Z</time>
      </trkpt>
      <trkpt lat="45.79809" lon="4.944">
        <ele>228.57751</ele>
        <time>2023-08-27T13:07:23.000Z</time>
      </trkpt>
      <trkpt lat="45.79808" lon="4.94394">
        <ele>228.55428</ele>
        <time>2023-08-27T13:07:24.000Z</time>
      </trkpt>
      <trkpt lat="45.79808" lon="4.94389">
        <ele>228.56094</ele>
        <time>2023-08-27T13:07:25.000Z</time>
      </trkpt>
      <trkpt lat="45.79808" lon="4.94384">
        <ele>228.58586</ele>
        <time>2023-08-27T13:07:26.000Z</time>
      </trkpt>
      <trkpt lat="45.79808" lon="4.94378">
        <ele>228.61409</ele>
        <time>2023-08-27T13:07:27.000Z</time>
      </trkpt>
      <trkpt lat="45.79808" lon="4.94372">
        <ele>228.64047</ele>
        <time>2023-08-27T13:07:28.000Z</time>
      </trkpt>
      <trkpt lat="45.79808" lon="4.94366">
        <ele>228.70279</ele>
        <time>2023-08-27T13:07:29.000Z</time>
      </trkpt>
      <trkpt lat="45.79807" lon="4.9436">
        <ele>228.74248</ele>
        <time>2023-08-27T13:07:30.000Z</time>
      </trkpt>
      <trkpt lat="45.79807" lon="4.94353">
        <ele>228.76372</ele>
        <time>2023-08-27T13:07:31.000Z</time>
      </trkpt>
      <trkpt lat="45.79807" lon="4.94348">
        <ele>228.81253</ele>
        <time>2023-08-27T13:07:32.000Z</time>
      </trkpt>
      <trkpt lat="45.79807" lon="4.94343">
        <ele>228.8779</ele>
        <time>2023-08-27T13:07:33.000Z</time>
      </trkpt>
      <trkpt lat="45.79807" lon="4.94338">
        <ele>228.93591</ele>
        <time>2023-08-27T13:07:34.000Z</time>
      </trkpt>
      <trkpt lat="45.79807" lon="4.94333">
        <ele>228.96167</ele>
        <time>2023-08-27T13:07:35.000Z</time>
      </trkpt>
      <trkpt lat="45.79807" lon="4.94328">
        <ele>228.9794</ele>
        <time>2023-08-27T13:07:36.000Z</time>
      </trkpt>
      <trkpt lat="45.79806" lon="4.94324">
        <ele>228.99985</ele>
        <time>2023-08-27T13:07:37.000Z</time>
      </trkpt>
      <trkpt lat="45.79806" lon="4.94321">
        <ele>229.03439</ele>
        <time>2023-08-27T13:07:38.000Z</time>
      </trkpt>
      <trkpt lat="45.79806" lon="4.94317">
        <ele>229.08707</ele>
        <time>2023-08-27T13:07:39.000Z</time>
      </trkpt>
      <trkpt lat="45.79805" lon="4.94313">
        <ele>229.15927</ele>
        <time>2023-08-27T13:07:40.000Z</time>
      </trkpt>
      <trkpt lat="45.79805" lon="4.9431">
        <ele>229.23132</ele>
        <time>2023-08-27T13:07:41.000Z</time>
      </trkpt>
      <trkpt lat="45.79805" lon="4.94306">
        <ele>229.26253</ele>
        <time>2023-08-27T13:07:42.000Z</time>
      </trkpt>
      <trkpt lat="45.79805" lon="4.94303">
        <ele>229.29111</ele>
        <time>2023-08-27T13:07:43.000Z</time>
      </trkpt>
      <trkpt lat="45.79805" lon="4.943">
        <ele>229.32512</ele>
        <time>2023-08-27T13:07:44.000Z</time>
      </trkpt>
      <trkpt lat="45.79804" lon="4.94296">
        <ele>229.34624</ele>
        <time>2023-08-27T13:07:45.000Z</time>
      </trkpt>
      <trkpt lat="45.79804" lon="4.94292">
        <ele>229.38335</ele>
        <time>2023-08-27T13:07:46.000Z</time>
      </trkpt>
      <trkpt lat="45.79804" lon="4.94288">
        <ele>229.39273</ele>
        <time>2023-08-27T13:07:47.000Z</time>
      </trkpt>
      <trkpt lat="45.79806" lon="4.94283">
        <ele>229.38974</ele>
        <time>2023-08-27T13:07:48.000Z</time>
      </trkpt>
      <trkpt lat="45.79807" lon="4.9428">
        <ele>229.39725</ele>
        <time>2023-08-27T13:07:49.000Z</time>
      </trkpt>
      <trkpt lat="45.79808" lon="4.94275">
        <ele>229.42361</ele>
        <time>2023-08-27T13:07:50.000Z</time>
      </trkpt>
      <trkpt lat="45.79808" lon="4.94271">
        <ele>229.49557</ele>
        <time>2023-08-27T13:07:51.000Z</time>
      </trkpt>
      <trkpt lat="45.79809" lon="4.94268">
        <ele>229.60623</ele>
        <time>2023-08-27T13:07:52.000Z</time>
      </trkpt>
      <trkpt lat="45.7981" lon="4.94266">
        <ele>229.72661</ele>
        <time>2023-08-27T13:07:53.000Z</time>
      </trkpt>
      <trkpt lat="45.79811" lon="4.94262">
        <ele>229.86429</ele>
        <time>2023-08-27T13:07:54.000Z</time>
      </trkpt>
      <trkpt lat="45.79811" lon="4.94259">
        <ele>229.9852</ele>
        <time>2023-08-27T13:07:55.000Z</time>
      </trkpt>
      <trkpt lat="45.79811" lon="4.94255">
        <ele>230.10803</ele>
        <time>2023-08-27T13:07:56.000Z</time>
      </trkpt>
      <trkpt lat="45.79811" lon="4.94252">
        <ele>230.22253</ele>
        <time>2023-08-27T13:07:57.000Z</time>
      </trkpt>
      <trkpt lat="45.79811" lon="4.94248">
        <ele>230.28946</ele>
        <time>2023-08-27T13:07:58.000Z</time>
      </trkpt>
      <trkpt lat="45.79811" lon="4.94244">
        <ele>230.35417</ele>
        <time>2023-08-27T13:07:59.000Z</time>
      </trkpt>
      <trkpt lat="45.79812" lon="4.9424">
        <ele>230.41495</ele>
        <time>2023-08-27T13:08:00.000Z</time>
      </trkpt>
      <trkpt lat="45.79812" lon="4.94236">
        <ele>230.46469</ele>
        <time>2023-08-27T13:08:01.000Z</time>
      </trkpt>
      <trkpt lat="45.79812" lon="4.94232">
        <ele>230.53513</ele>
        <time>2023-08-27T13:08:02.000Z</time>
      </trkpt>
      <trkpt lat="45.79813" lon="4.94227">
        <ele>230.56152</ele>
        <time>2023-08-27T13:08:03.000Z</time>
      </trkpt>
      <trkpt lat="45.79814" lon="4.94223">
        <ele>230.57968</ele>
        <time>2023-08-27T13:08:04.000Z</time>
      </trkpt>
      <trkpt lat="45.79814" lon="4.94219">
        <ele>230.55408</ele>
        <time>2023-08-27T13:08:05.000Z</time>
      </trkpt>
      <trkpt lat="45.79815" lon="4.94215">
        <ele>230.53976</ele>
        <time>2023-08-27T13:08:06.000Z</time>
      </trkpt>
      <trkpt lat="45.79817" lon="4.94211">
        <ele>230.55542</ele>
        <time>2023-08-27T13:08:07.000Z</time>
      </trkpt>
      <trkpt lat="45.7982" lon="4.94208">
        <ele>230.56714</ele>
        <time>2023-08-27T13:08:08.000Z</time>
      </trkpt>
      <trkpt lat="45.79824" lon="4.94205">
        <ele>230.5538</ele>
        <time>2023-08-27T13:08:09.000Z</time>
      </trkpt>
      <trkpt lat="45.79828" lon="4.94202">
        <ele>230.52402</ele>
        <time>2023-08-27T13:08:10.000Z</time>
      </trkpt>
      <trkpt lat="45.79832" lon="4.942">
        <ele>230.46103</ele>
        <time>2023-08-27T13:08:11.000Z</time>
      </trkpt>
      <trkpt lat="45.79836" lon="4.94198">
        <ele>230.32175</ele>
        <time>2023-08-27T13:08:12.000Z</time>
      </trkpt>
      <trkpt lat="45.79839" lon="4.94195">
        <ele>230.17447</ele>
        <time>2023-08-27T13:08:13.000Z</time>
      </trkpt>
      <trkpt lat="45.79843" lon="4.94194">
        <ele>230.03574</ele>
        <time>2023-08-27T13:08:14.000Z</time>
      </trkpt>
      <trkpt lat="45.79846" lon="4.94192">
        <ele>229.90891</ele>
        <time>2023-08-27T13:08:15.000Z</time>
      </trkpt>
      <trkpt lat="45.79848" lon="4.9419">
        <ele>229.8007</ele>
        <time>2023-08-27T13:08:16.000Z</time>
      </trkpt>
      <trkpt lat="45.7985" lon="4.94186">
        <ele>229.71407</ele>
        <time>2023-08-27T13:08:17.000Z</time>
      </trkpt>
      <trkpt lat="45.79852" lon="4.94182">
        <ele>229.65854</ele>
        <time>2023-08-27T13:08:18.000Z</time>
      </trkpt>
      <trkpt lat="45.79854" lon="4.94177">
        <ele>229.65897</ele>
        <time>2023-08-27T13:08:19.000Z</time>
      </trkpt>
      <trkpt lat="45.79855" lon="4.94172">
        <ele>229.61746</ele>
        <time>2023-08-27T13:08:20.000Z</time>
      </trkpt>
      <trkpt lat="45.79855" lon="4.94166">
        <ele>229.5957</ele>
        <time>2023-08-27T13:08:21.000Z</time>
      </trkpt>
      <trkpt lat="45.79856" lon="4.94161">
        <ele>229.57137</ele>
        <time>2023-08-27T13:08:22.000Z</time>
      </trkpt>
      <trkpt lat="45.79857" lon="4.94156">
        <ele>229.54668</ele>
        <time>2023-08-27T13:08:23.000Z</time>
      </trkpt>
      <trkpt lat="45.79858" lon="4.9415">
        <ele>229.51453</ele>
        <time>2023-08-27T13:08:24.000Z</time>
      </trkpt>
      <trkpt lat="45.79859" lon="4.94145">
        <ele>229.48755</ele>
        <time>2023-08-27T13:08:25.000Z</time>
      </trkpt>
      <trkpt lat="45.7986" lon="4.9414">
        <ele>229.41537</ele>
        <time>2023-08-27T13:08:26.000Z</time>
      </trkpt>
      <trkpt lat="45.79861" lon="4.94135">
        <ele>229.32576</ele>
        <time>2023-08-27T13:08:27.000Z</time>
      </trkpt>
      <trkpt lat="45.79862" lon="4.94131">
        <ele>229.23384</ele>
        <time>2023-08-27T13:08:28.000Z</time>
      </trkpt>
      <trkpt lat="45.79863" lon="4.94126">
        <ele>229.16467</ele>
        <time>2023-08-27T13:08:29.000Z</time>
      </trkpt>
      <trkpt lat="45.79864" lon="4.94121">
        <ele>229.08105</ele>
        <time>2023-08-27T13:08:30.000Z</time>
      </trkpt>
      <trkpt lat="45.79864" lon="4.94116">
        <ele>228.9938</ele>
        <time>2023-08-27T13:08:31.000Z</time>
      </trkpt>
      <trkpt lat="45.79865" lon="4.9411">
        <ele>228.94673</ele>
        <time>2023-08-27T13:08:32.000Z</time>
      </trkpt>
      <trkpt lat="45.79865" lon="4.94104">
        <ele>228.90939</ele>
        <time>2023-08-27T13:08:33.000Z</time>
      </trkpt>
      <trkpt lat="45.79865" lon="4.94098">
        <ele>228.80777</ele>
        <time>2023-08-27T13:08:34.000Z</time>
      </trkpt>
      <trkpt lat="45.79864" lon="4.94093">
        <ele>228.70737</ele>
        <time>2023-08-27T13:08:35.000Z</time>
      </trkpt>
      <trkpt lat="45.79862" lon="4.94089">
        <ele>228.59477</ele>
        <time>2023-08-27T13:08:36.000Z</time>
      </trkpt>
      <trkpt lat="45.79861" lon="4.94084">
        <ele>228.45901</ele>
        <time>2023-08-27T13:08:37.000Z</time>
      </trkpt>
      <trkpt lat="45.79859" lon="4.9408">
        <ele>228.35478</ele>
        <time>2023-08-27T13:08:38.000Z</time>
      </trkpt>
      <trkpt lat="45.79856" lon="4.94076">
        <ele>228.19246</ele>
        <time>2023-08-27T13:08:39.000Z</time>
      </trkpt>
      <trkpt lat="45.79853" lon="4.94071">
        <ele>228.09172</ele>
        <time>2023-08-27T13:08:40.000Z</time>
      </trkpt>
      <trkpt lat="45.7985" lon="4.94067">
        <ele>227.96365</ele>
        <time>2023-08-27T13:08:41.000Z</time>
      </trkpt>
      <trkpt lat="45.79847" lon="4.94064">
        <ele>227.83789</ele>
        <time>2023-08-27T13:08:42.000Z</time>
      </trkpt>
      <trkpt lat="45.79844" lon="4.94061">
        <ele>227.7803</ele>
        <time>2023-08-27T13:08:43.000Z</time>
      </trkpt>
      <trkpt lat="45.79842" lon="4.94058">
        <ele>227.76035</ele>
        <time>2023-08-27T13:08:44.000Z</time>
      </trkpt>
      <trkpt lat="45.79839" lon="4.94055">
        <ele>227.78523</ele>
        <time>2023-08-27T13:08:45.000Z</time>
      </trkpt>
      <trkpt lat="45.79836" lon="4.94053">
        <ele>227.82846</ele>
        <time>2023-08-27T13:08:46.000Z</time>
      </trkpt>
      <trkpt lat="45.79834" lon="4.94051">
        <ele>227.85574</ele>
        <time>2023-08-27T13:08:47.000Z</time>
      </trkpt>
      <trkpt lat="45.79831" lon="4.94049">
        <ele>227.9021</ele>
        <time>2023-08-27T13:08:48.000Z</time>
      </trkpt>
      <trkpt lat="45.79827" lon="4.94047">
        <ele>227.92056</ele>
        <time>2023-08-27T13:08:49.000Z</time>
      </trkpt>
      <trkpt lat="45.79823" lon="4.94045">
        <ele>227.98027</ele>
        <time>2023-08-27T13:08:50.000Z</time>
      </trkpt>
      <trkpt lat="45.7982" lon="4.94044">
        <ele>228.01372</ele>
        <time>2023-08-27T13:08:51.000Z</time>
      </trkpt>
      <trkpt lat="45.79817" lon="4.94042">
        <ele>228.02654</ele>
        <time>2023-08-27T13:08:52.000Z</time>
      </trkpt>
      <trkpt lat="45.79814" lon="4.94041">
        <ele>227.93906</ele>
        <time>2023-08-27T13:08:53.000Z</time>
      </trkpt>
      <trkpt lat="45.7981" lon="4.94039">
        <ele>227.93869</ele>
        <time>2023-08-27T13:08:54.000Z</time>
      </trkpt>
      <trkpt lat="45.79807" lon="4.94037">
        <ele>227.94487</ele>
        <time>2023-08-27T13:08:55.000Z</time>
      </trkpt>
      <trkpt lat="45.79805" lon="4.94034">
        <ele>227.95757</ele>
        <time>2023-08-27T13:08:56.000Z</time>
      </trkpt>
      <trkpt lat="45.79806" lon="4.94024">
        <ele>227.95728</ele>
        <time>2023-08-27T13:08:57.000Z</time>
      </trkpt>
      <trkpt lat="45.79806" lon="4.9402">
        <ele>227.92732</ele>
        <time>2023-08-27T13:08:58.000Z</time>
      </trkpt>
      <trkpt lat="45.79805" lon="4.94014">
        <ele>227.93303</ele>
        <time>2023-08-27T13:08:59.000Z</time>
      </trkpt>
      <trkpt lat="45.79805" lon="4.94008">
        <ele>227.88123</ele>
        <time>2023-08-27T13:09:00.000Z</time>
      </trkpt>
      <trkpt lat="45.79804" lon="4.94003">
        <ele>227.81955</ele>
        <time>2023-08-27T13:09:01.000Z</time>
      </trkpt>
      <trkpt lat="45.79803" lon="4.93997">
        <ele>227.77937</ele>
        <time>2023-08-27T13:09:02.000Z</time>
      </trkpt>
      <trkpt lat="45.79802" lon="4.93992">
        <ele>227.69771</ele>
        <time>2023-08-27T13:09:03.000Z</time>
      </trkpt>
      <trkpt lat="45.79803" lon="4.93986">
        <ele>227.59726</ele>
        <time>2023-08-27T13:09:04.000Z</time>
      </trkpt>
      <trkpt lat="45.79802" lon="4.9398">
        <ele>227.48596</ele>
        <time>2023-08-27T13:09:05.000Z</time>
      </trkpt>
      <trkpt lat="45.79802" lon="4.93974">
        <ele>227.394</ele>
        <time>2023-08-27T13:09:06.000Z</time>
      </trkpt>
      <trkpt lat="45.79801" lon="4.93969">
        <ele>227.35754</ele>
        <time>2023-08-27T13:09:07.000Z</time>
      </trkpt>
      <trkpt lat="45.798" lon="4.93963">
        <ele>227.35884</ele>
        <time>2023-08-27T13:09:08.000Z</time>
      </trkpt>
      <trkpt lat="45.798" lon="4.93958">
        <ele>227.35727</ele>
        <time>2023-08-27T13:09:09.000Z</time>
      </trkpt>
      <trkpt lat="45.79799" lon="4.93953">
        <ele>227.32487</ele>
        <time>2023-08-27T13:09:10.000Z</time>
      </trkpt>
      <trkpt lat="45.79799" lon="4.93947">
        <ele>227.32828</ele>
        <time>2023-08-27T13:09:11.000Z</time>
      </trkpt>
      <trkpt lat="45.79799" lon="4.93942">
        <ele>227.33572</ele>
        <time>2023-08-27T13:09:12.000Z</time>
      </trkpt>
      <trkpt lat="45.79798" lon="4.93937">
        <ele>227.42587</ele>
        <time>2023-08-27T13:09:13.000Z</time>
      </trkpt>
      <trkpt lat="45.79798" lon="4.93932">
        <ele>227.49106</ele>
        <time>2023-08-27T13:09:14.000Z</time>
      </trkpt>
      <trkpt lat="45.79797" lon="4.93928">
        <ele>227.55948</ele>
        <time>2023-08-27T13:09:15.000Z</time>
      </trkpt>
      <trkpt lat="45.79797" lon="4.93924">
        <ele>227.65848</ele>
        <time>2023-08-27T13:09:16.000Z</time>
      </trkpt>
      <trkpt lat="45.79798" lon="4.93919">
        <ele>227.74736</ele>
        <time>2023-08-27T13:09:17.000Z</time>
      </trkpt>
      <trkpt lat="45.79798" lon="4.93914">
        <ele>227.86324</ele>
        <time>2023-08-27T13:09:18.000Z</time>
      </trkpt>
      <trkpt lat="45.79797" lon="4.93908">
        <ele>227.96432</ele>
        <time>2023-08-27T13:09:19.000Z</time>
      </trkpt>
      <trkpt lat="45.79798" lon="4.93903">
        <ele>228.08492</ele>
        <time>2023-08-27T13:09:20.000Z</time>
      </trkpt>
      <trkpt lat="45.79799" lon="4.93898">
        <ele>228.20853</ele>
        <time>2023-08-27T13:09:21.000Z</time>
      </trkpt>
      <trkpt lat="45.79801" lon="4.93894">
        <ele>228.28093</ele>
        <time>2023-08-27T13:09:22.000Z</time>
      </trkpt>
      <trkpt lat="45.79803" lon="4.9389">
        <ele>228.37155</ele>
        <time>2023-08-27T13:09:23.000Z</time>
      </trkpt>
      <trkpt lat="45.79804" lon="4.93885">
        <ele>228.45821</ele>
        <time>2023-08-27T13:09:24.000Z</time>
      </trkpt>
      <trkpt lat="45.79805" lon="4.93881">
        <ele>228.52295</ele>
        <time>2023-08-27T13:09:25.000Z</time>
      </trkpt>
      <trkpt lat="45.79806" lon="4.93876">
        <ele>228.56738</ele>
        <time>2023-08-27T13:09:26.000Z</time>
      </trkpt>
      <trkpt lat="45.79807" lon="4.93871">
        <ele>228.60396</ele>
        <time>2023-08-27T13:09:27.000Z</time>
      </trkpt>
      <trkpt lat="45.79808" lon="4.93867">
        <ele>228.59164</ele>
        <time>2023-08-27T13:09:28.000Z</time>
      </trkpt>
      <trkpt lat="45.79809" lon="4.93862">
        <ele>228.60757</ele>
        <time>2023-08-27T13:09:29.000Z</time>
      </trkpt>
      <trkpt lat="45.79811" lon="4.93858">
        <ele>228.61287</ele>
        <time>2023-08-27T13:09:30.000Z</time>
      </trkpt>
      <trkpt lat="45.79812" lon="4.93853">
        <ele>228.62817</ele>
        <time>2023-08-27T13:09:31.000Z</time>
      </trkpt>
      <trkpt lat="45.79814" lon="4.93849">
        <ele>228.65715</ele>
        <time>2023-08-27T13:09:32.000Z</time>
      </trkpt>
      <trkpt lat="45.79816" lon="4.93844">
        <ele>228.64908</ele>
        <time>2023-08-27T13:09:33.000Z</time>
      </trkpt>
      <trkpt lat="45.79818" lon="4.9384">
        <ele>228.62578</ele>
        <time>2023-08-27T13:09:34.000Z</time>
      </trkpt>
      <trkpt lat="45.79821" lon="4.93835">
        <ele>228.58655</ele>
        <time>2023-08-27T13:09:35.000Z</time>
      </trkpt>
      <trkpt lat="45.79823" lon="4.93831">
        <ele>228.48624</ele>
        <time>2023-08-27T13:09:36.000Z</time>
      </trkpt>
      <trkpt lat="45.79825" lon="4.93828">
        <ele>228.42451</ele>
        <time>2023-08-27T13:09:37.000Z</time>
      </trkpt>
      <trkpt lat="45.79828" lon="4.93826">
        <ele>228.30618</ele>
        <time>2023-08-27T13:09:38.000Z</time>
      </trkpt>
      <trkpt lat="45.79831" lon="4.93822">
        <ele>228.16446</ele>
        <time>2023-08-27T13:09:39.000Z</time>
      </trkpt>
      <trkpt lat="45.79834" lon="4.93819">
        <ele>228.03833</ele>
        <time>2023-08-27T13:09:40.000Z</time>
      </trkpt>
      <trkpt lat="45.79837" lon="4.93816">
        <ele>227.92554</ele>
        <time>2023-08-27T13:09:41.000Z</time>
      </trkpt>
      <trkpt lat="45.7984" lon="4.93813">
        <ele>227.86426</ele>
        <time>2023-08-27T13:09:42.000Z</time>
      </trkpt>
      <trkpt lat="45.79842" lon="4.9381">
        <ele>227.79428</ele>
        <time>2023-08-27T13:09:43.000Z</time>
      </trkpt>
      <trkpt lat="45.79844" lon="4.93808">
        <ele>227.70801</ele>
        <time>2023-08-27T13:09:44.000Z</time>
      </trkpt>
      <trkpt lat="45.79847" lon="4.93805">
        <ele>227.64444</ele>
        <time>2023-08-27T13:09:45.000Z</time>
      </trkpt>
      <trkpt lat="45.7985" lon="4.93802">
        <ele>227.56873</ele>
        <time>2023-08-27T13:09:46.000Z</time>
      </trkpt>
      <trkpt lat="45.79853" lon="4.938">
        <ele>227.45609</ele>
        <time>2023-08-27T13:09:47.000Z</time>
      </trkpt>
      <trkpt lat="45.79855" lon="4.93798">
        <ele>227.38095</ele>
        <time>2023-08-27T13:09:48.000Z</time>
      </trkpt>
      <trkpt lat="45.79858" lon="4.93796">
        <ele>227.26541</ele>
        <time>2023-08-27T13:09:49.000Z</time>
      </trkpt>
      <trkpt lat="45.79861" lon="4.93795">
        <ele>227.19356</ele>
        <time>2023-08-27T13:09:50.000Z</time>
      </trkpt>
      <trkpt lat="45.79864" lon="4.93793">
        <ele>227.10812</ele>
        <time>2023-08-27T13:09:51.000Z</time>
      </trkpt>
      <trkpt lat="45.79867" lon="4.93791">
        <ele>226.9749</ele>
        <time>2023-08-27T13:09:52.000Z</time>
      </trkpt>
      <trkpt lat="45.79871" lon="4.93789">
        <ele>226.93301</ele>
        <time>2023-08-27T13:09:53.000Z</time>
      </trkpt>
      <trkpt lat="45.79874" lon="4.93787">
        <ele>226.90176</ele>
        <time>2023-08-27T13:09:54.000Z</time>
      </trkpt>
      <trkpt lat="45.79877" lon="4.93784">
        <ele>226.87363</ele>
        <time>2023-08-27T13:09:55.000Z</time>
      </trkpt>
      <trkpt lat="45.7988" lon="4.93782">
        <ele>226.87737</ele>
        <time>2023-08-27T13:09:56.000Z</time>
      </trkpt>
      <trkpt lat="45.79883" lon="4.9378">
        <ele>226.9043</ele>
        <time>2023-08-27T13:09:57.000Z</time>
      </trkpt>
      <trkpt lat="45.79887" lon="4.93777">
        <ele>226.9843</ele>
        <time>2023-08-27T13:09:58.000Z</time>
      </trkpt>
      <trkpt lat="45.7989" lon="4.93775">
        <ele>227.05942</ele>
        <time>2023-08-27T13:09:59.000Z</time>
      </trkpt>
      <trkpt lat="45.79893" lon="4.93773">
        <ele>227.09502</ele>
        <time>2023-08-27T13:10:00.000Z</time>
      </trkpt>
      <trkpt lat="45.79897" lon="4.93772">
        <ele>227.14034</ele>
        <time>2023-08-27T13:10:01.000Z</time>
      </trkpt>
      <trkpt lat="45.79902" lon="4.93771">
        <ele>227.19199</ele>
        <time>2023-08-27T13:10:02.000Z</time>
      </trkpt>
      <trkpt lat="45.79906" lon="4.93769">
        <ele>227.25073</ele>
        <time>2023-08-27T13:10:03.000Z</time>
      </trkpt>
      <trkpt lat="45.7991" lon="4.93768">
        <ele>227.26855</ele>
        <time>2023-08-27T13:10:04.000Z</time>
      </trkpt>
      <trkpt lat="45.79914" lon="4.93766">
        <ele>227.33719</ele>
        <time>2023-08-27T13:10:05.000Z</time>
      </trkpt>
      <trkpt lat="45.79918" lon="4.93764">
        <ele>227.41582</ele>
        <time>2023-08-27T13:10:06.000Z</time>
      </trkpt>
      <trkpt lat="45.79922" lon="4.93762">
        <ele>227.51668</ele>
        <time>2023-08-27T13:10:07.000Z</time>
      </trkpt>
      <trkpt lat="45.79926" lon="4.9376">
        <ele>227.60428</ele>
        <time>2023-08-27T13:10:08.000Z</time>
      </trkpt>
      <trkpt lat="45.79931" lon="4.93759">
        <ele>227.72551</ele>
        <time>2023-08-27T13:10:09.000Z</time>
      </trkpt>
      <trkpt lat="45.79935" lon="4.93758">
        <ele>227.83211</ele>
        <time>2023-08-27T13:10:10.000Z</time>
      </trkpt>
      <trkpt lat="45.79939" lon="4.93757">
        <ele>227.97806</ele>
        <time>2023-08-27T13:10:11.000Z</time>
      </trkpt>
      <trkpt lat="45.79943" lon="4.93755">
        <ele>228.16451</ele>
        <time>2023-08-27T13:10:12.000Z</time>
      </trkpt>
      <trkpt lat="45.79947" lon="4.93753">
        <ele>228.29379</ele>
        <time>2023-08-27T13:10:13.000Z</time>
      </trkpt>
      <trkpt lat="45.79951" lon="4.93752">
        <ele>228.3997</ele>
        <time>2023-08-27T13:10:14.000Z</time>
      </trkpt>
      <trkpt lat="45.79955" lon="4.93751">
        <ele>228.51973</ele>
        <time>2023-08-27T13:10:15.000Z</time>
      </trkpt>
      <trkpt lat="45.7996" lon="4.93748">
        <ele>228.65596</ele>
        <time>2023-08-27T13:10:16.000Z</time>
      </trkpt>
      <trkpt lat="45.79963" lon="4.93745">
        <ele>228.77286</ele>
        <time>2023-08-27T13:10:17.000Z</time>
      </trkpt>
      <trkpt lat="45.79967" lon="4.93741">
        <ele>228.8407</ele>
        <time>2023-08-27T13:10:18.000Z</time>
      </trkpt>
      <trkpt lat="45.7997" lon="4.93737">
        <ele>228.90767</ele>
        <time>2023-08-27T13:10:19.000Z</time>
      </trkpt>
      <trkpt lat="45.79974" lon="4.93733">
        <ele>229.00342</ele>
        <time>2023-08-27T13:10:20.000Z</time>
      </trkpt>
      <trkpt lat="45.79978" lon="4.93729">
        <ele>229.07803</ele>
        <time>2023-08-27T13:10:21.000Z</time>
      </trkpt>
      <trkpt lat="45.79982" lon="4.93725">
        <ele>229.118</ele>
        <time>2023-08-27T13:10:22.000Z</time>
      </trkpt>
      <trkpt lat="45.79985" lon="4.93722">
        <ele>229.18164</ele>
        <time>2023-08-27T13:10:23.000Z</time>
      </trkpt>
      <trkpt lat="45.79989" lon="4.93718">
        <ele>229.22855</ele>
        <time>2023-08-27T13:10:24.000Z</time>
      </trkpt>
      <trkpt lat="45.79994" lon="4.93716">
        <ele>229.14926</ele>
        <time>2023-08-27T13:10:25.000Z</time>
      </trkpt>
      <trkpt lat="45.79998" lon="4.93714">
        <ele>229.05508</ele>
        <time>2023-08-27T13:10:26.000Z</time>
      </trkpt>
      <trkpt lat="45.80001" lon="4.93712">
        <ele>228.96573</ele>
        <time>2023-08-27T13:10:27.000Z</time>
      </trkpt>
      <trkpt lat="45.80005" lon="4.93709">
        <ele>228.84927</ele>
        <time>2023-08-27T13:10:28.000Z</time>
      </trkpt>
      <trkpt lat="45.80008" lon="4.93706">
        <ele>228.75493</ele>
        <time>2023-08-27T13:10:29.000Z</time>
      </trkpt>
      <trkpt lat="45.80012" lon="4.93702">
        <ele>228.58463</ele>
        <time>2023-08-27T13:10:30.000Z</time>
      </trkpt>
      <trkpt lat="45.80016" lon="4.937">
        <ele>228.39531</ele>
        <time>2023-08-27T13:10:31.000Z</time>
      </trkpt>
      <trkpt lat="45.8002" lon="4.93697">
        <ele>228.21484</ele>
        <time>2023-08-27T13:10:32.000Z</time>
      </trkpt>
      <trkpt lat="45.80023" lon="4.93695">
        <ele>228.0217</ele>
        <time>2023-08-27T13:10:33.000Z</time>
      </trkpt>
      <trkpt lat="45.80027" lon="4.93693">
        <ele>227.87125</ele>
        <time>2023-08-27T13:10:34.000Z</time>
      </trkpt>
      <trkpt lat="45.80031" lon="4.93691">
        <ele>227.72861</ele>
        <time>2023-08-27T13:10:35.000Z</time>
      </trkpt>
      <trkpt lat="45.80034" lon="4.9369">
        <ele>227.58247</ele>
        <time>2023-08-27T13:10:36.000Z</time>
      </trkpt>
      <trkpt lat="45.80038" lon="4.9369">
        <ele>227.4196</ele>
        <time>2023-08-27T13:10:37.000Z</time>
      </trkpt>
      <trkpt lat="45.80042" lon="4.9369">
        <ele>227.28323</ele>
        <time>2023-08-27T13:10:38.000Z</time>
      </trkpt>
      <trkpt lat="45.80046" lon="4.93691">
        <ele>227.17261</ele>
        <time>2023-08-27T13:10:39.000Z</time>
      </trkpt>
      <trkpt lat="45.80049" lon="4.93692">
        <ele>227.06136</ele>
        <time>2023-08-27T13:10:40.000Z</time>
      </trkpt>
      <trkpt lat="45.80052" lon="4.93693">
        <ele>226.97627</ele>
        <time>2023-08-27T13:10:41.000Z</time>
      </trkpt>
      <trkpt lat="45.80056" lon="4.93692">
        <ele>226.90901</ele>
        <time>2023-08-27T13:10:42.000Z</time>
      </trkpt>
      <trkpt lat="45.8006" lon="4.93692">
        <ele>226.82571</ele>
        <time>2023-08-27T13:10:43.000Z</time>
      </trkpt>
      <trkpt lat="45.80063" lon="4.9369">
        <ele>226.80486</ele>
        <time>2023-08-27T13:10:44.000Z</time>
      </trkpt>
      <trkpt lat="45.80067" lon="4.93689">
        <ele>226.86679</ele>
        <time>2023-08-27T13:10:45.000Z</time>
      </trkpt>
      <trkpt lat="45.8007" lon="4.93687">
        <ele>226.94864</ele>
        <time>2023-08-27T13:10:46.000Z</time>
      </trkpt>
      <trkpt lat="45.80073" lon="4.93685">
        <ele>227.01712</ele>
        <time>2023-08-27T13:10:47.000Z</time>
      </trkpt>
      <trkpt lat="45.80076" lon="4.93683">
        <ele>227.09961</ele>
        <time>2023-08-27T13:10:48.000Z</time>
      </trkpt>
      <trkpt lat="45.80079" lon="4.93681">
        <ele>227.15706</ele>
        <time>2023-08-27T13:10:49.000Z</time>
      </trkpt>
      <trkpt lat="45.80082" lon="4.93678">
        <ele>227.28255</ele>
        <time>2023-08-27T13:10:50.000Z</time>
      </trkpt>
      <trkpt lat="45.80085" lon="4.93676">
        <ele>227.44604</ele>
        <time>2023-08-27T13:10:51.000Z</time>
      </trkpt>
      <trkpt lat="45.80088" lon="4.93674">
        <ele>227.6279</ele>
        <time>2023-08-27T13:10:52.000Z</time>
      </trkpt>
      <trkpt lat="45.80091" lon="4.93672">
        <ele>227.8232</ele>
        <time>2023-08-27T13:10:53.000Z</time>
      </trkpt>
      <trkpt lat="45.80094" lon="4.93669">
        <ele>227.9915</ele>
        <time>2023-08-27T13:10:54.000Z</time>
      </trkpt>
      <trkpt lat="45.80096" lon="4.93667">
        <ele>228.13748</ele>
        <time>2023-08-27T13:10:55.000Z</time>
      </trkpt>
      <trkpt lat="45.80099" lon="4.93665">
        <ele>228.27397</ele>
        <time>2023-08-27T13:10:56.000Z</time>
      </trkpt>
      <trkpt lat="45.80102" lon="4.93662">
        <ele>228.35921</ele>
        <time>2023-08-27T13:10:57.000Z</time>
      </trkpt>
      <trkpt lat="45.80105" lon="4.9366">
        <ele>228.43831</ele>
        <time>2023-08-27T13:10:58.000Z</time>
      </trkpt>
      <trkpt lat="45.80108" lon="4.93657">
        <ele>228.4803</ele>
        <time>2023-08-27T13:10:59.000Z</time>
      </trkpt>
      <trkpt lat="45.80112" lon="4.93654">
        <ele>228.52974</ele>
        <time>2023-08-27T13:11:00.000Z</time>
      </trkpt>
      <trkpt lat="45.80115" lon="4.93652">
        <ele>228.54964</ele>
        <time>2023-08-27T13:11:01.000Z</time>
      </trkpt>
      <trkpt lat="45.80117" lon="4.9365">
        <ele>228.55693</ele>
        <time>2023-08-27T13:11:02.000Z</time>
      </trkpt>
      <trkpt lat="45.80119" lon="4.93648">
        <ele>228.5656</ele>
        <time>2023-08-27T13:11:03.000Z</time>
      </trkpt>
      <trkpt lat="45.80122" lon="4.93646">
        <ele>228.58826</ele>
        <time>2023-08-27T13:11:04.000Z</time>
      </trkpt>
      <trkpt lat="45.80125" lon="4.93644">
        <ele>228.61584</ele>
        <time>2023-08-27T13:11:05.000Z</time>
      </trkpt>
      <trkpt lat="45.80128" lon="4.93641">
        <ele>228.63879</ele>
        <time>2023-08-27T13:11:06.000Z</time>
      </trkpt>
      <trkpt lat="45.8013" lon="4.93639">
        <ele>228.73286</ele>
        <time>2023-08-27T13:11:07.000Z</time>
      </trkpt>
      <trkpt lat="45.80133" lon="4.93637">
        <ele>228.82683</ele>
        <time>2023-08-27T13:11:08.000Z</time>
      </trkpt>
      <trkpt lat="45.80137" lon="4.93635">
        <ele>228.94775</ele>
        <time>2023-08-27T13:11:09.000Z</time>
      </trkpt>
      <trkpt lat="45.8014" lon="4.93632">
        <ele>229.05521</ele>
        <time>2023-08-27T13:11:10.000Z</time>
      </trkpt>
      <trkpt lat="45.80143" lon="4.9363">
        <ele>229.10352</ele>
        <time>2023-08-27T13:11:11.000Z</time>
      </trkpt>
      <trkpt lat="45.80146" lon="4.93628">
        <ele>229.14853</ele>
        <time>2023-08-27T13:11:12.000Z</time>
      </trkpt>
      <trkpt lat="45.80148" lon="4.93625">
        <ele>229.19121</ele>
        <time>2023-08-27T13:11:13.000Z</time>
      </trkpt>
      <trkpt lat="45.80151" lon="4.93623">
        <ele>229.25928</ele>
        <time>2023-08-27T13:11:14.000Z</time>
      </trkpt>
      <trkpt lat="45.80155" lon="4.9362">
        <ele>229.28995</ele>
        <time>2023-08-27T13:11:15.000Z</time>
      </trkpt>
      <trkpt lat="45.80158" lon="4.93617">
        <ele>229.33823</ele>
        <time>2023-08-27T13:11:16.000Z</time>
      </trkpt>
      <trkpt lat="45.80161" lon="4.93614">
        <ele>229.43774</ele>
        <time>2023-08-27T13:11:17.000Z</time>
      </trkpt>
      <trkpt lat="45.80164" lon="4.93611">
        <ele>229.47055</ele>
        <time>2023-08-27T13:11:18.000Z</time>
      </trkpt>
      <trkpt lat="45.80167" lon="4.93608">
        <ele>229.52605</ele>
        <time>2023-08-27T13:11:19.000Z</time>
      </trkpt>
      <trkpt lat="45.8017" lon="4.93605">
        <ele>229.61328</ele>
        <time>2023-08-27T13:11:20.000Z</time>
      </trkpt>
      <trkpt lat="45.80173" lon="4.93601">
        <ele>229.73459</ele>
        <time>2023-08-27T13:11:21.000Z</time>
      </trkpt>
      <trkpt lat="45.80176" lon="4.93597">
        <ele>229.87064</ele>
        <time>2023-08-27T13:11:22.000Z</time>
      </trkpt>
      <trkpt lat="45.80179" lon="4.93593">
        <ele>229.95883</ele>
        <time>2023-08-27T13:11:23.000Z</time>
      </trkpt>
      <trkpt lat="45.80182" lon="4.93589">
        <ele>230.00423</ele>
        <time>2023-08-27T13:11:24.000Z</time>
      </trkpt>
      <trkpt lat="45.80184" lon="4.93584">
        <ele>230.035</ele>
        <time>2023-08-27T13:11:25.000Z</time>
      </trkpt>
      <trkpt lat="45.80187" lon="4.93581">
        <ele>230.06506</ele>
        <time>2023-08-27T13:11:26.000Z</time>
      </trkpt>
      <trkpt lat="45.8019" lon="4.93577">
        <ele>230.00708</ele>
        <time>2023-08-27T13:11:27.000Z</time>
      </trkpt>
      <trkpt lat="45.80193" lon="4.93573">
        <ele>229.96162</ele>
        <time>2023-08-27T13:11:28.000Z</time>
      </trkpt>
      <trkpt lat="45.80196" lon="4.9357">
        <ele>229.89188</ele>
        <time>2023-08-27T13:11:29.000Z</time>
      </trkpt>
      <trkpt lat="45.80199" lon="4.93567">
        <ele>229.85593</ele>
        <time>2023-08-27T13:11:30.000Z</time>
      </trkpt>
      <trkpt lat="45.80202" lon="4.93564">
        <ele>229.82365</ele>
        <time>2023-08-27T13:11:31.000Z</time>
      </trkpt>
      <trkpt lat="45.80204" lon="4.9356">
        <ele>229.75839</ele>
        <time>2023-08-27T13:11:32.000Z</time>
      </trkpt>
      <trkpt lat="45.80207" lon="4.93557">
        <ele>229.6757</ele>
        <time>2023-08-27T13:11:33.000Z</time>
      </trkpt>
      <trkpt lat="45.80209" lon="4.93553">
        <ele>229.55307</ele>
        <time>2023-08-27T13:11:34.000Z</time>
      </trkpt>
      <trkpt lat="45.80211" lon="4.9355">
        <ele>229.48471</ele>
        <time>2023-08-27T13:11:35.000Z</time>
      </trkpt>
      <trkpt lat="45.80214" lon="4.93547">
        <ele>229.3875</ele>
        <time>2023-08-27T13:11:36.000Z</time>
      </trkpt>
      <trkpt lat="45.80216" lon="4.93544">
        <ele>229.3107</ele>
        <time>2023-08-27T13:11:37.000Z</time>
      </trkpt>
      <trkpt lat="45.80219" lon="4.93541">
        <ele>229.26831</ele>
        <time>2023-08-27T13:11:38.000Z</time>
      </trkpt>
      <trkpt lat="45.80221" lon="4.93538">
        <ele>229.24643</ele>
        <time>2023-08-27T13:11:39.000Z</time>
      </trkpt>
      <trkpt lat="45.80223" lon="4.93535">
        <ele>229.19534</ele>
        <time>2023-08-27T13:11:40.000Z</time>
      </trkpt>
      <trkpt lat="45.80225" lon="4.93532">
        <ele>229.12724</ele>
        <time>2023-08-27T13:11:41.000Z</time>
      </trkpt>
      <trkpt lat="45.80228" lon="4.93529">
        <ele>229.03284</ele>
        <time>2023-08-27T13:11:42.000Z</time>
      </trkpt>
      <trkpt lat="45.8023" lon="4.93526">
        <ele>228.96243</ele>
        <time>2023-08-27T13:11:43.000Z</time>
      </trkpt>
      <trkpt lat="45.80233" lon="4.93524">
        <ele>228.90176</ele>
        <time>2023-08-27T13:11:44.000Z</time>
      </trkpt>
      <trkpt lat="45.80235" lon="4.93522">
        <ele>228.8409</ele>
        <time>2023-08-27T13:11:45.000Z</time>
      </trkpt>
      <trkpt lat="45.80239" lon="4.93521">
        <ele>228.79349</ele>
        <time>2023-08-27T13:11:46.000Z</time>
      </trkpt>
      <trkpt lat="45.80242" lon="4.93519">
        <ele>228.74631</ele>
        <time>2023-08-27T13:11:47.000Z</time>
      </trkpt>
      <trkpt lat="45.80245" lon="4.93517">
        <ele>228.66231</ele>
        <time>2023-08-27T13:11:48.000Z</time>
      </trkpt>
      <trkpt lat="45.80248" lon="4.93516">
        <ele>228.60258</ele>
        <time>2023-08-27T13:11:49.000Z</time>
      </trkpt>
      <trkpt lat="45.80251" lon="4.93514">
        <ele>228.54358</ele>
        <time>2023-08-27T13:11:50.000Z</time>
      </trkpt>
      <trkpt lat="45.80255" lon="4.93512">
        <ele>228.47356</ele>
        <time>2023-08-27T13:11:51.000Z</time>
      </trkpt>
      <trkpt lat="45.80259" lon="4.93509">
        <ele>228.41129</ele>
        <time>2023-08-27T13:11:52.000Z</time>
      </trkpt>
      <trkpt lat="45.80262" lon="4.93507">
        <ele>228.36618</ele>
        <time>2023-08-27T13:11:53.000Z</time>
      </trkpt>
      <trkpt lat="45.80265" lon="4.93505">
        <ele>228.35458</ele>
        <time>2023-08-27T13:11:54.000Z</time>
      </trkpt>
      <trkpt lat="45.80267" lon="4.93503">
        <ele>228.3262</ele>
        <time>2023-08-27T13:11:55.000Z</time>
      </trkpt>
      <trkpt lat="45.8027" lon="4.93502">
        <ele>228.30286</ele>
        <time>2023-08-27T13:11:56.000Z</time>
      </trkpt>
      <trkpt lat="45.80273" lon="4.93501">
        <ele>228.25056</ele>
        <time>2023-08-27T13:11:57.000Z</time>
      </trkpt>
      <trkpt lat="45.80276" lon="4.935">
        <ele>228.21504</ele>
        <time>2023-08-27T13:11:58.000Z</time>
      </trkpt>
      <trkpt lat="45.80279" lon="4.93498">
        <ele>228.16069</ele>
        <time>2023-08-27T13:11:59.000Z</time>
      </trkpt>
      <trkpt lat="45.80281" lon="4.93496">
        <ele>228.11162</ele>
        <time>2023-08-27T13:12:00.000Z</time>
      </trkpt>
      <trkpt lat="45.80284" lon="4.93493">
        <ele>228.05949</ele>
        <time>2023-08-27T13:12:01.000Z</time>
      </trkpt>
      <trkpt lat="45.80285" lon="4.93489">
        <ele>228.02249</ele>
        <time>2023-08-27T13:12:02.000Z</time>
      </trkpt>
      <trkpt lat="45.80287" lon="4.93486">
        <ele>227.98874</ele>
        <time>2023-08-27T13:12:03.000Z</time>
      </trkpt>
      <trkpt lat="45.80287" lon="4.93482">
        <ele>227.96524</ele>
        <time>2023-08-27T13:12:04.000Z</time>
      </trkpt>
      <trkpt lat="45.80288" lon="4.93479">
        <ele>227.9436</ele>
        <time>2023-08-27T13:12:05.000Z</time>
      </trkpt>
      <trkpt lat="45.80288" lon="4.93475">
        <ele>227.90804</ele>
        <time>2023-08-27T13:12:06.000Z</time>
      </trkpt>
      <trkpt lat="45.80289" lon="4.9347">
        <ele>227.89261</ele>
        <time>2023-08-27T13:12:07.000Z</time>
      </trkpt>
      <trkpt lat="45.80289" lon="4.93466">
        <ele>227.93521</ele>
        <time>2023-08-27T13:12:08.000Z</time>
      </trkpt>
      <trkpt lat="45.80289" lon="4.93462">
        <ele>227.95467</ele>
        <time>2023-08-27T13:12:09.000Z</time>
      </trkpt>
      <trkpt lat="45.8029" lon="4.93458">
        <ele>227.94974</ele>
        <time>2023-08-27T13:12:10.000Z</time>
      </trkpt>
      <trkpt lat="45.80291" lon="4.93454">
        <ele>227.95834</ele>
        <time>2023-08-27T13:12:11.000Z</time>
      </trkpt>
      <trkpt lat="45.80292" lon="4.9345">
        <ele>227.97949</ele>
        <time>2023-08-27T13:12:12.000Z</time>
      </trkpt>
      <trkpt lat="45.80294" lon="4.93447">
        <ele>228.01807</ele>
        <time>2023-08-27T13:12:13.000Z</time>
      </trkpt>
      <trkpt lat="45.80296" lon="4.93445">
        <ele>228.04141</ele>
        <time>2023-08-27T13:12:14.000Z</time>
      </trkpt>
      <trkpt lat="45.80298" lon="4.93443">
        <ele>228.07056</ele>
        <time>2023-08-27T13:12:15.000Z</time>
      </trkpt>
      <trkpt lat="45.803" lon="4.9344">
        <ele>228.09456</ele>
        <time>2023-08-27T13:12:16.000Z</time>
      </trkpt>
      <trkpt lat="45.80302" lon="4.93438">
        <ele>228.12122</ele>
        <time>2023-08-27T13:12:17.000Z</time>
      </trkpt>
      <trkpt lat="45.80304" lon="4.93436">
        <ele>228.16682</ele>
        <time>2023-08-27T13:12:18.000Z</time>
      </trkpt>
      <trkpt lat="45.80306" lon="4.93434">
        <ele>228.21463</ele>
        <time>2023-08-27T13:12:19.000Z</time>
      </trkpt>
      <trkpt lat="45.80308" lon="4.93433">
        <ele>228.24426</ele>
        <time>2023-08-27T13:12:20.000Z</time>
      </trkpt>
      <trkpt lat="45.80311" lon="4.93431">
        <ele>228.26201</ele>
        <time>2023-08-27T13:12:21.000Z</time>
      </trkpt>
      <trkpt lat="45.80313" lon="4.93429">
        <ele>228.26831</ele>
        <time>2023-08-27T13:12:22.000Z</time>
      </trkpt>
      <trkpt lat="45.80315" lon="4.93426">
        <ele>228.27153</ele>
        <time>2023-08-27T13:12:23.000Z</time>
      </trkpt>
      <trkpt lat="45.80316" lon="4.93423">
        <ele>228.28171</ele>
        <time>2023-08-27T13:12:24.000Z</time>
      </trkpt>
      <trkpt lat="45.80317" lon="4.93418">
        <ele>228.28711</ele>
        <time>2023-08-27T13:12:26.000Z</time>
      </trkpt>
      <trkpt lat="45.80317" lon="4.93416">
        <ele>228.2739</ele>
        <time>2023-08-27T13:12:27.000Z</time>
      </trkpt>
      <trkpt lat="45.80317" lon="4.93411">
        <ele>228.28178</ele>
        <time>2023-08-27T13:12:29.000Z</time>
      </trkpt>
      <trkpt lat="45.80316" lon="4.93406">
        <ele>228.25174</ele>
        <time>2023-08-27T13:12:31.000Z</time>
      </trkpt>
      <trkpt lat="45.80316" lon="4.93403">
        <ele>228.21817</ele>
        <time>2023-08-27T13:12:32.000Z</time>
      </trkpt>
      <trkpt lat="45.80317" lon="4.93401">
        <ele>228.19363</ele>
        <time>2023-08-27T13:12:33.000Z</time>
      </trkpt>
      <trkpt lat="45.80319" lon="4.93399">
        <ele>228.23343</ele>
        <time>2023-08-27T13:12:34.000Z</time>
      </trkpt>
      <trkpt lat="45.8032" lon="4.93397">
        <ele>228.26811</ele>
        <time>2023-08-27T13:12:35.000Z</time>
      </trkpt>
      <trkpt lat="45.80321" lon="4.93394">
        <ele>228.28369</ele>
        <time>2023-08-27T13:12:36.000Z</time>
      </trkpt>
      <trkpt lat="45.80322" lon="4.9339">
        <ele>228.28015</ele>
        <time>2023-08-27T13:12:38.000Z</time>
      </trkpt>
      <trkpt lat="45.80323" lon="4.93385">
        <ele>228.31026</ele>
        <time>2023-08-27T13:12:40.000Z</time>
      </trkpt>
      <trkpt lat="45.80322" lon="4.93381">
        <ele>228.35922</ele>
        <time>2023-08-27T13:12:42.000Z</time>
      </trkpt>
      <trkpt lat="45.80321" lon="4.93379">
        <ele>228.42105</ele>
        <time>2023-08-27T13:12:43.000Z</time>
      </trkpt>
      <trkpt lat="45.8032" lon="4.93376">
        <ele>228.4865</ele>
        <time>2023-08-27T13:12:44.000Z</time>
      </trkpt>
      <trkpt lat="45.80319" lon="4.93373">
        <ele>228.57504</ele>
        <time>2023-08-27T13:12:45.000Z</time>
      </trkpt>
      <trkpt lat="45.80319" lon="4.93371">
        <ele>228.66357</ele>
        <time>2023-08-27T13:12:46.000Z</time>
      </trkpt>
      <trkpt lat="45.80318" lon="4.93368">
        <ele>228.77139</ele>
        <time>2023-08-27T13:12:47.000Z</time>
      </trkpt>
      <trkpt lat="45.80317" lon="4.93366">
        <ele>228.87735</ele>
        <time>2023-08-27T13:12:48.000Z</time>
      </trkpt>
      <trkpt lat="45.80316" lon="4.93363">
        <ele>228.98276</ele>
        <time>2023-08-27T13:12:49.000Z</time>
      </trkpt>
      <trkpt lat="45.80315" lon="4.9336">
        <ele>229.07317</ele>
        <time>2023-08-27T13:12:50.000Z</time>
      </trkpt>
      <trkpt lat="45.80315" lon="4.93357">
        <ele>229.15768</ele>
        <time>2023-08-27T13:12:51.000Z</time>
      </trkpt>
      <trkpt lat="45.80314" lon="4.93353">
        <ele>229.2581</ele>
        <time>2023-08-27T13:12:52.000Z</time>
      </trkpt>
      <trkpt lat="45.80313" lon="4.9335">
        <ele>229.31882</ele>
        <time>2023-08-27T13:12:53.000Z</time>
      </trkpt>
      <trkpt lat="45.80312" lon="4.93347">
        <ele>229.36972</ele>
        <time>2023-08-27T13:12:54.000Z</time>
      </trkpt>
      <trkpt lat="45.80311" lon="4.93344">
        <ele>229.45512</ele>
        <time>2023-08-27T13:12:55.000Z</time>
      </trkpt>
      <trkpt lat="45.8031" lon="4.9334">
        <ele>229.51535</ele>
        <time>2023-08-27T13:12:56.000Z</time>
      </trkpt>
      <trkpt lat="45.80309" lon="4.93336">
        <ele>229.4895</ele>
        <time>2023-08-27T13:12:57.000Z</time>
      </trkpt>
      <trkpt lat="45.80308" lon="4.93332">
        <ele>229.47379</ele>
        <time>2023-08-27T13:12:58.000Z</time>
      </trkpt>
      <trkpt lat="45.80307" lon="4.93328">
        <ele>229.49509</ele>
        <time>2023-08-27T13:12:59.000Z</time>
      </trkpt>
      <trkpt lat="45.80307" lon="4.93324">
        <ele>229.53848</ele>
        <time>2023-08-27T13:13:00.000Z</time>
      </trkpt>
      <trkpt lat="45.80306" lon="4.93319">
        <ele>229.53186</ele>
        <time>2023-08-27T13:13:01.000Z</time>
      </trkpt>
      <trkpt lat="45.80305" lon="4.93315">
        <ele>229.50374</ele>
        <time>2023-08-27T13:13:02.000Z</time>
      </trkpt>
      <trkpt lat="45.80304" lon="4.9331">
        <ele>229.46025</ele>
        <time>2023-08-27T13:13:03.000Z</time>
      </trkpt>
      <trkpt lat="45.80304" lon="4.93306">
        <ele>229.42368</ele>
        <time>2023-08-27T13:13:04.000Z</time>
      </trkpt>
      <trkpt lat="45.80303" lon="4.93301">
        <ele>229.35542</ele>
        <time>2023-08-27T13:13:05.000Z</time>
      </trkpt>
      <trkpt lat="45.80303" lon="4.93296">
        <ele>229.30359</ele>
        <time>2023-08-27T13:13:06.000Z</time>
      </trkpt>
      <trkpt lat="45.80303" lon="4.93292">
        <ele>229.22261</ele>
        <time>2023-08-27T13:13:07.000Z</time>
      </trkpt>
      <trkpt lat="45.80302" lon="4.93287">
        <ele>229.14737</ele>
        <time>2023-08-27T13:13:08.000Z</time>
      </trkpt>
      <trkpt lat="45.80302" lon="4.93283">
        <ele>229.07907</ele>
        <time>2023-08-27T13:13:09.000Z</time>
      </trkpt>
      <trkpt lat="45.80302" lon="4.93278">
        <ele>229.04219</ele>
        <time>2023-08-27T13:13:10.000Z</time>
      </trkpt>
      <trkpt lat="45.80301" lon="4.93275">
        <ele>229.00591</ele>
        <time>2023-08-27T13:13:11.000Z</time>
      </trkpt>
      <trkpt lat="45.80301" lon="4.93271">
        <ele>228.94356</ele>
        <time>2023-08-27T13:13:12.000Z</time>
      </trkpt>
      <trkpt lat="45.80301" lon="4.93266">
        <ele>228.90959</ele>
        <time>2023-08-27T13:13:13.000Z</time>
      </trkpt>
      <trkpt lat="45.80301" lon="4.93261">
        <ele>228.88107</ele>
        <time>2023-08-27T13:13:14.000Z</time>
      </trkpt>
      <trkpt lat="45.803" lon="4.93257">
        <ele>228.84294</ele>
        <time>2023-08-27T13:13:15.000Z</time>
      </trkpt>
      <trkpt lat="45.803" lon="4.93252">
        <ele>228.81783</ele>
        <time>2023-08-27T13:13:16.000Z</time>
      </trkpt>
      <trkpt lat="45.803" lon="4.93248">
        <ele>228.77426</ele>
        <time>2023-08-27T13:13:17.000Z</time>
      </trkpt>
      <trkpt lat="45.803" lon="4.93245">
        <ele>228.75044</ele>
        <time>2023-08-27T13:13:18.000Z</time>
      </trkpt>
      <trkpt lat="45.80299" lon="4.9324">
        <ele>228.69926</ele>
        <time>2023-08-27T13:13:19.000Z</time>
      </trkpt>
      <trkpt lat="45.80299" lon="4.93236">
        <ele>228.66504</ele>
        <time>2023-08-27T13:13:20.000Z</time>
      </trkpt>
      <trkpt lat="45.80299" lon="4.93231">
        <ele>228.65097</ele>
        <time>2023-08-27T13:13:21.000Z</time>
      </trkpt>
      <trkpt lat="45.80298" lon="4.93227">
        <ele>228.66467</ele>
        <time>2023-08-27T13:13:22.000Z</time>
      </trkpt>
      <trkpt lat="45.80298" lon="4.93222">
        <ele>228.6667</ele>
        <time>2023-08-27T13:13:23.000Z</time>
      </trkpt>
      <trkpt lat="45.80297" lon="4.93218">
        <ele>228.68916</ele>
        <time>2023-08-27T13:13:24.000Z</time>
      </trkpt>
      <trkpt lat="45.80297" lon="4.93213">
        <ele>228.74399</ele>
        <time>2023-08-27T13:13:25.000Z</time>
      </trkpt>
      <trkpt lat="45.80296" lon="4.93208">
        <ele>228.82529</ele>
        <time>2023-08-27T13:13:26.000Z</time>
      </trkpt>
      <trkpt lat="45.80295" lon="4.93203">
        <ele>228.94238</ele>
        <time>2023-08-27T13:13:27.000Z</time>
      </trkpt>
      <trkpt lat="45.80295" lon="4.93197">
        <ele>229.06934</ele>
        <time>2023-08-27T13:13:28.000Z</time>
      </trkpt>
      <trkpt lat="45.80295" lon="4.93192">
        <ele>229.2124</ele>
        <time>2023-08-27T13:13:29.000Z</time>
      </trkpt>
      <trkpt lat="45.80294" lon="4.93188">
        <ele>229.31502</ele>
        <time>2023-08-27T13:13:30.000Z</time>
      </trkpt>
      <trkpt lat="45.80293" lon="4.93183">
        <ele>229.40234</ele>
        <time>2023-08-27T13:13:31.000Z</time>
      </trkpt>
      <trkpt lat="45.80292" lon="4.93179">
        <ele>229.53516</ele>
        <time>2023-08-27T13:13:32.000Z</time>
      </trkpt>
      <trkpt lat="45.80291" lon="4.93176">
        <ele>229.63606</ele>
        <time>2023-08-27T13:13:33.000Z</time>
      </trkpt>
      <trkpt lat="45.8029" lon="4.93172">
        <ele>229.72751</ele>
        <time>2023-08-27T13:13:34.000Z</time>
      </trkpt>
      <trkpt lat="45.8029" lon="4.93167">
        <ele>229.79634</ele>
        <time>2023-08-27T13:13:35.000Z</time>
      </trkpt>
      <trkpt lat="45.80289" lon="4.93163">
        <ele>229.86853</ele>
        <time>2023-08-27T13:13:36.000Z</time>
      </trkpt>
      <trkpt lat="45.80289" lon="4.9316">
        <ele>229.96762</ele>
        <time>2023-08-27T13:13:37.000Z</time>
      </trkpt>
      <trkpt lat="45.80288" lon="4.93156">
        <ele>230.04492</ele>
        <time>2023-08-27T13:13:38.000Z</time>
      </trkpt>
      <trkpt lat="45.80288" lon="4.93153">
        <ele>230.11124</ele>
        <time>2023-08-27T13:13:39.000Z</time>
      </trkpt>
      <trkpt lat="45.80288" lon="4.93149">
        <ele>230.1666</ele>
        <time>2023-08-27T13:13:40.000Z</time>
      </trkpt>
      <trkpt lat="45.80287" lon="4.93145">
        <ele>230.21834</ele>
        <time>2023-08-27T13:13:41.000Z</time>
      </trkpt>
      <trkpt lat="45.80287" lon="4.93141">
        <ele>230.24731</ele>
        <time>2023-08-27T13:13:42.000Z</time>
      </trkpt>
      <trkpt lat="45.80286" lon="4.93136">
        <ele>230.31421</ele>
        <time>2023-08-27T13:13:43.000Z</time>
      </trkpt>
      <trkpt lat="45.80285" lon="4.93132">
        <ele>230.36124</ele>
        <time>2023-08-27T13:13:44.000Z</time>
      </trkpt>
      <trkpt lat="45.80284" lon="4.93127">
        <ele>230.39363</ele>
        <time>2023-08-27T13:13:45.000Z</time>
      </trkpt>
      <trkpt lat="45.80283" lon="4.93123">
        <ele>230.34622</ele>
        <time>2023-08-27T13:13:46.000Z</time>
      </trkpt>
      <trkpt lat="45.80283" lon="4.93118">
        <ele>230.2413</ele>
        <time>2023-08-27T13:13:47.000Z</time>
      </trkpt>
      <trkpt lat="45.80282" lon="4.93114">
        <ele>230.1355</ele>
        <time>2023-08-27T13:13:48.000Z</time>
      </trkpt>
      <trkpt lat="45.80282" lon="4.9311">
        <ele>230.01323</ele>
        <time>2023-08-27T13:13:49.000Z</time>
      </trkpt>
      <trkpt lat="45.80281" lon="4.93106">
        <ele>229.91989</ele>
        <time>2023-08-27T13:13:50.000Z</time>
      </trkpt>
      <trkpt lat="45.8028" lon="4.93103">
        <ele>229.86887</ele>
        <time>2023-08-27T13:13:51.000Z</time>
      </trkpt>
      <trkpt lat="45.80279" lon="4.93098">
        <ele>229.80119</ele>
        <time>2023-08-27T13:13:52.000Z</time>
      </trkpt>
      <trkpt lat="45.80278" lon="4.93094">
        <ele>229.74805</ele>
        <time>2023-08-27T13:13:53.000Z</time>
      </trkpt>
      <trkpt lat="45.80278" lon="4.9309">
        <ele>229.71301</ele>
        <time>2023-08-27T13:13:54.000Z</time>
      </trkpt>
      <trkpt lat="45.80277" lon="4.93087">
        <ele>229.674</ele>
        <time>2023-08-27T13:13:55.000Z</time>
      </trkpt>
      <trkpt lat="45.80276" lon="4.93083">
        <ele>229.64047</ele>
        <time>2023-08-27T13:13:56.000Z</time>
      </trkpt>
      <trkpt lat="45.80275" lon="4.93078">
        <ele>229.6268</ele>
        <time>2023-08-27T13:13:57.000Z</time>
      </trkpt>
      <trkpt lat="45.80274" lon="4.93073">
        <ele>229.60806</ele>
        <time>2023-08-27T13:13:58.000Z</time>
      </trkpt>
      <trkpt lat="45.80273" lon="4.93069">
        <ele>229.58398</ele>
        <time>2023-08-27T13:13:59.000Z</time>
      </trkpt>
      <trkpt lat="45.80272" lon="4.93064">
        <ele>229.5433</ele>
        <time>2023-08-27T13:14:00.000Z</time>
      </trkpt>
      <trkpt lat="45.80272" lon="4.93059">
        <ele>229.48804</ele>
        <time>2023-08-27T13:14:01.000Z</time>
      </trkpt>
      <trkpt lat="45.80271" lon="4.93054">
        <ele>229.3959</ele>
        <time>2023-08-27T13:14:02.000Z</time>
      </trkpt>
      <trkpt lat="45.8027" lon="4.93049">
        <ele>229.25212</ele>
        <time>2023-08-27T13:14:03.000Z</time>
      </trkpt>
      <trkpt lat="45.8027" lon="4.93044">
        <ele>229.06726</ele>
        <time>2023-08-27T13:14:04.000Z</time>
      </trkpt>
      <trkpt lat="45.80269" lon="4.9304">
        <ele>228.9108</ele>
        <time>2023-08-27T13:14:05.000Z</time>
      </trkpt>
      <trkpt lat="45.80267" lon="4.93035">
        <ele>228.79228</ele>
        <time>2023-08-27T13:14:06.000Z</time>
      </trkpt>
      <trkpt lat="45.80266" lon="4.93029">
        <ele>228.67618</ele>
        <time>2023-08-27T13:14:07.000Z</time>
      </trkpt>
      <trkpt lat="45.80266" lon="4.93023">
        <ele>228.57271</ele>
        <time>2023-08-27T13:14:08.000Z</time>
      </trkpt>
      <trkpt lat="45.80265" lon="4.93018">
        <ele>228.45676</ele>
        <time>2023-08-27T13:14:09.000Z</time>
      </trkpt>
      <trkpt lat="45.80264" lon="4.93013">
        <ele>228.33965</ele>
        <time>2023-08-27T13:14:10.000Z</time>
      </trkpt>
      <trkpt lat="45.80264" lon="4.93008">
        <ele>228.19307</ele>
        <time>2023-08-27T13:14:11.000Z</time>
      </trkpt>
      <trkpt lat="45.80263" lon="4.93004">
        <ele>228.07439</ele>
        <time>2023-08-27T13:14:12.000Z</time>
      </trkpt>
      <trkpt lat="45.80261" lon="4.93">
        <ele>227.99084</ele>
        <time>2023-08-27T13:14:13.000Z</time>
      </trkpt>
      <trkpt lat="45.8026" lon="4.92996">
        <ele>227.90813</ele>
        <time>2023-08-27T13:14:14.000Z</time>
      </trkpt>
      <trkpt lat="45.80259" lon="4.92993">
        <ele>227.88083</ele>
        <time>2023-08-27T13:14:15.000Z</time>
      </trkpt>
      <trkpt lat="45.80257" lon="4.92989">
        <ele>227.84854</ele>
        <time>2023-08-27T13:14:16.000Z</time>
      </trkpt>
      <trkpt lat="45.80256" lon="4.92986">
        <ele>227.78995</ele>
        <time>2023-08-27T13:14:17.000Z</time>
      </trkpt>
      <trkpt lat="45.80256" lon="4.92982">
        <ele>227.72871</ele>
        <time>2023-08-27T13:14:18.000Z</time>
      </trkpt>
      <trkpt lat="45.80254" lon="4.92977">
        <ele>227.69052</ele>
        <time>2023-08-27T13:14:19.000Z</time>
      </trkpt>
      <trkpt lat="45.80253" lon="4.92972">
        <ele>227.66345</ele>
        <time>2023-08-27T13:14:20.000Z</time>
      </trkpt>
      <trkpt lat="45.80253" lon="4.92967">
        <ele>227.58183</ele>
        <time>2023-08-27T13:14:21.000Z</time>
      </trkpt>
      <trkpt lat="45.80252" lon="4.92962">
        <ele>227.5405</ele>
        <time>2023-08-27T13:14:22.000Z</time>
      </trkpt>
      <trkpt lat="45.80251" lon="4.92958">
        <ele>227.52756</ele>
        <time>2023-08-27T13:14:23.000Z</time>
      </trkpt>
      <trkpt lat="45.8025" lon="4.92954">
        <ele>227.57031</ele>
        <time>2023-08-27T13:14:24.000Z</time>
      </trkpt>
      <trkpt lat="45.80249" lon="4.9295">
        <ele>227.58611</ele>
        <time>2023-08-27T13:14:25.000Z</time>
      </trkpt>
      <trkpt lat="45.80247" lon="4.92946">
        <ele>227.61707</ele>
        <time>2023-08-27T13:14:26.000Z</time>
      </trkpt>
      <trkpt lat="45.80246" lon="4.92942">
        <ele>227.69241</ele>
        <time>2023-08-27T13:14:27.000Z</time>
      </trkpt>
      <trkpt lat="45.80245" lon="4.92938">
        <ele>227.76054</ele>
        <time>2023-08-27T13:14:28.000Z</time>
      </trkpt>
      <trkpt lat="45.80244" lon="4.92933">
        <ele>227.83847</ele>
        <time>2023-08-27T13:14:29.000Z</time>
      </trkpt>
      <trkpt lat="45.80243" lon="4.92929">
        <ele>227.88785</ele>
        <time>2023-08-27T13:14:30.000Z</time>
      </trkpt>
      <trkpt lat="45.80243" lon="4.92925">
        <ele>227.96933</ele>
        <time>2023-08-27T13:14:31.000Z</time>
      </trkpt>
      <trkpt lat="45.80242" lon="4.92921">
        <ele>228.02646</ele>
        <time>2023-08-27T13:14:32.000Z</time>
      </trkpt>
      <trkpt lat="45.80241" lon="4.92918">
        <ele>228.04851</ele>
        <time>2023-08-27T13:14:33.000Z</time>
      </trkpt>
      <trkpt lat="45.8024" lon="4.92914">
        <ele>228.07617</ele>
        <time>2023-08-27T13:14:34.000Z</time>
      </trkpt>
      <trkpt lat="45.80239" lon="4.92911">
        <ele>228.04709</ele>
        <time>2023-08-27T13:14:35.000Z</time>
      </trkpt>
      <trkpt lat="45.80238" lon="4.92907">
        <ele>228.0336</ele>
        <time>2023-08-27T13:14:36.000Z</time>
      </trkpt>
      <trkpt lat="45.80238" lon="4.92904">
        <ele>228.05151</ele>
        <time>2023-08-27T13:14:37.000Z</time>
      </trkpt>
      <trkpt lat="45.80237" lon="4.929">
        <ele>228.08432</ele>
        <time>2023-08-27T13:14:38.000Z</time>
      </trkpt>
      <trkpt lat="45.80236" lon="4.92896">
        <ele>228.10469</ele>
        <time>2023-08-27T13:14:39.000Z</time>
      </trkpt>
      <trkpt lat="45.80235" lon="4.92892">
        <ele>228.10815</ele>
        <time>2023-08-27T13:14:40.000Z</time>
      </trkpt>
      <trkpt lat="45.80234" lon="4.92888">
        <ele>228.17058</ele>
        <time>2023-08-27T13:14:41.000Z</time>
      </trkpt>
      <trkpt lat="45.80234" lon="4.92884">
        <ele>228.23877</ele>
        <time>2023-08-27T13:14:42.000Z</time>
      </trkpt>
      <trkpt lat="45.80233" lon="4.9288">
        <ele>228.30457</ele>
        <time>2023-08-27T13:14:43.000Z</time>
      </trkpt>
      <trkpt lat="45.80232" lon="4.92876">
        <ele>228.35161</ele>
        <time>2023-08-27T13:14:44.000Z</time>
      </trkpt>
      <trkpt lat="45.80231" lon="4.92872">
        <ele>228.39705</ele>
        <time>2023-08-27T13:14:45.000Z</time>
      </trkpt>
      <trkpt lat="45.8023" lon="4.92868">
        <ele>228.42119</ele>
        <time>2023-08-27T13:14:46.000Z</time>
      </trkpt>
      <trkpt lat="45.80229" lon="4.92864">
        <ele>228.4375</ele>
        <time>2023-08-27T13:14:47.000Z</time>
      </trkpt>
      <trkpt lat="45.80229" lon="4.92859">
        <ele>228.45175</ele>
        <time>2023-08-27T13:14:48.000Z</time>
      </trkpt>
      <trkpt lat="45.80228" lon="4.92855">
        <ele>228.49548</ele>
        <time>2023-08-27T13:14:49.000Z</time>
      </trkpt>
      <trkpt lat="45.80227" lon="4.92851">
        <ele>228.55005</ele>
        <time>2023-08-27T13:14:50.000Z</time>
      </trkpt>
      <trkpt lat="45.80226" lon="4.92847">
        <ele>228.60637</ele>
        <time>2023-08-27T13:14:51.000Z</time>
      </trkpt>
      <trkpt lat="45.80225" lon="4.92842">
        <ele>228.66704</ele>
        <time>2023-08-27T13:14:52.000Z</time>
      </trkpt>
      <trkpt lat="45.80224" lon="4.92838">
        <ele>228.67429</ele>
        <time>2023-08-27T13:14:53.000Z</time>
      </trkpt>
      <trkpt lat="45.80223" lon="4.92833">
        <ele>228.67876</ele>
        <time>2023-08-27T13:14:54.000Z</time>
      </trkpt>
      <trkpt lat="45.80222" lon="4.92828">
        <ele>228.67439</ele>
        <time>2023-08-27T13:14:55.000Z</time>
      </trkpt>
      <trkpt lat="45.80221" lon="4.92823">
        <ele>228.65865</ele>
        <time>2023-08-27T13:14:56.000Z</time>
      </trkpt>
      <trkpt lat="45.80221" lon="4.92819">
        <ele>228.59177</ele>
        <time>2023-08-27T13:14:57.000Z</time>
      </trkpt>
      <trkpt lat="45.80221" lon="4.92815">
        <ele>228.47754</ele>
        <time>2023-08-27T13:14:58.000Z</time>
      </trkpt>
      <trkpt lat="45.80221" lon="4.92811">
        <ele>228.36772</ele>
        <time>2023-08-27T13:14:59.000Z</time>
      </trkpt>
      <trkpt lat="45.80221" lon="4.92806">
        <ele>228.26155</ele>
        <time>2023-08-27T13:15:00.000Z</time>
      </trkpt>
      <trkpt lat="45.80221" lon="4.92802">
        <ele>228.19153</ele>
        <time>2023-08-27T13:15:01.000Z</time>
      </trkpt>
      <trkpt lat="45.80221" lon="4.92798">
        <ele>228.11923</ele>
        <time>2023-08-27T13:15:02.000Z</time>
      </trkpt>
      <trkpt lat="45.80221" lon="4.92793">
        <ele>228.05798</ele>
        <time>2023-08-27T13:15:03.000Z</time>
      </trkpt>
      <trkpt lat="45.8022" lon="4.92788">
        <ele>227.98978</ele>
        <time>2023-08-27T13:15:04.000Z</time>
      </trkpt>
      <trkpt lat="45.8022" lon="4.92783">
        <ele>227.92935</ele>
        <time>2023-08-27T13:15:05.000Z</time>
      </trkpt>
      <trkpt lat="45.8022" lon="4.92777">
        <ele>227.8772</ele>
        <time>2023-08-27T13:15:06.000Z</time>
      </trkpt>
      <trkpt lat="45.8022" lon="4.92773">
        <ele>227.83755</ele>
        <time>2023-08-27T13:15:07.000Z</time>
      </trkpt>
      <trkpt lat="45.80219" lon="4.92768">
        <ele>227.78369</ele>
        <time>2023-08-27T13:15:08.000Z</time>
      </trkpt>
      <trkpt lat="45.80219" lon="4.92764">
        <ele>227.69907</ele>
        <time>2023-08-27T13:15:09.000Z</time>
      </trkpt>
      <trkpt lat="45.80218" lon="4.92759">
        <ele>227.60461</ele>
        <time>2023-08-27T13:15:10.000Z</time>
      </trkpt>
      <trkpt lat="45.80217" lon="4.92754">
        <ele>227.47299</ele>
        <time>2023-08-27T13:15:11.000Z</time>
      </trkpt>
      <trkpt lat="45.80216" lon="4.92745">
        <ele>227.31612</ele>
        <time>2023-08-27T13:15:12.000Z</time>
      </trkpt>
      <trkpt lat="45.80216" lon="4.92739">
        <ele>227.20218</ele>
        <time>2023-08-27T13:15:13.000Z</time>
      </trkpt>
      <trkpt lat="45.80214" lon="4.92732">
        <ele>227.07178</ele>
        <time>2023-08-27T13:15:14.000Z</time>
      </trkpt>
      <trkpt lat="45.80213" lon="4.92726">
        <ele>226.93828</ele>
        <time>2023-08-27T13:15:15.000Z</time>
      </trkpt>
      <trkpt lat="45.80211" lon="4.92719">
        <ele>226.81502</ele>
        <time>2023-08-27T13:15:16.000Z</time>
      </trkpt>
      <trkpt lat="45.80209" lon="4.92712">
        <ele>226.72701</ele>
        <time>2023-08-27T13:15:17.000Z</time>
      </trkpt>
      <trkpt lat="45.80208" lon="4.92706">
        <ele>226.67542</ele>
        <time>2023-08-27T13:15:18.000Z</time>
      </trkpt>
      <trkpt lat="45.80206" lon="4.92699">
        <ele>226.62381</ele>
        <time>2023-08-27T13:15:19.000Z</time>
      </trkpt>
      <trkpt lat="45.80203" lon="4.92691">
        <ele>226.57095</ele>
        <time>2023-08-27T13:15:20.000Z</time>
      </trkpt>
      <trkpt lat="45.80202" lon="4.92683">
        <ele>226.48132</ele>
        <time>2023-08-27T13:15:21.000Z</time>
      </trkpt>
      <trkpt lat="45.80201" lon="4.92676">
        <ele>226.37321</ele>
        <time>2023-08-27T13:15:22.000Z</time>
      </trkpt>
      <trkpt lat="45.802" lon="4.92667">
        <ele>226.24979</ele>
        <time>2023-08-27T13:15:23.000Z</time>
      </trkpt>
      <trkpt lat="45.802" lon="4.9266">
        <ele>226.1228</ele>
        <time>2023-08-27T13:15:24.000Z</time>
      </trkpt>
      <trkpt lat="45.802" lon="4.92653">
        <ele>225.98752</ele>
        <time>2023-08-27T13:15:25.000Z</time>
      </trkpt>
      <trkpt lat="45.80197" lon="4.9265">
        <ele>225.8289</ele>
        <time>2023-08-27T13:15:26.000Z</time>
      </trkpt>
      <trkpt lat="45.80195" lon="4.92645">
        <ele>225.65962</ele>
        <time>2023-08-27T13:15:27.000Z</time>
      </trkpt>
      <trkpt lat="45.80193" lon="4.92639">
        <ele>225.49863</ele>
        <time>2023-08-27T13:15:28.000Z</time>
      </trkpt>
      <trkpt lat="45.80192" lon="4.92634">
        <ele>225.31299</ele>
        <time>2023-08-27T13:15:29.000Z</time>
      </trkpt>
      <trkpt lat="45.8019" lon="4.92628">
        <ele>225.14902</ele>
        <time>2023-08-27T13:15:30.000Z</time>
      </trkpt>
      <trkpt lat="45.80189" lon="4.92624">
        <ele>224.9935</ele>
        <time>2023-08-27T13:15:31.000Z</time>
      </trkpt>
      <trkpt lat="45.80186" lon="4.92619">
        <ele>224.89665</ele>
        <time>2023-08-27T13:15:32.000Z</time>
      </trkpt>
      <trkpt lat="45.80183" lon="4.92615">
        <ele>224.80884</ele>
        <time>2023-08-27T13:15:33.000Z</time>
      </trkpt>
      <trkpt lat="45.80182" lon="4.92611">
        <ele>224.67648</ele>
        <time>2023-08-27T13:15:34.000Z</time>
      </trkpt>
      <trkpt lat="45.80179" lon="4.92607">
        <ele>224.5354</ele>
        <time>2023-08-27T13:15:35.000Z</time>
      </trkpt>
      <trkpt lat="45.80176" lon="4.92604">
        <ele>224.45967</ele>
        <time>2023-08-27T13:15:36.000Z</time>
      </trkpt>
      <trkpt lat="45.80172" lon="4.92601">
        <ele>224.40791</ele>
        <time>2023-08-27T13:15:37.000Z</time>
      </trkpt>
      <trkpt lat="45.80168" lon="4.92599">
        <ele>224.3569</ele>
        <time>2023-08-27T13:15:38.000Z</time>
      </trkpt>
      <trkpt lat="45.80164" lon="4.92597">
        <ele>224.30022</ele>
        <time>2023-08-27T13:15:39.000Z</time>
      </trkpt>
      <trkpt lat="45.8016" lon="4.92596">
        <ele>224.25029</ele>
        <time>2023-08-27T13:15:40.000Z</time>
      </trkpt>
      <trkpt lat="45.80157" lon="4.92595">
        <ele>224.19995</ele>
        <time>2023-08-27T13:15:41.000Z</time>
      </trkpt>
      <trkpt lat="45.80153" lon="4.92595">
        <ele>224.18018</ele>
        <time>2023-08-27T13:15:42.000Z</time>
      </trkpt>
      <trkpt lat="45.8015" lon="4.92597">
        <ele>224.16586</ele>
        <time>2023-08-27T13:15:43.000Z</time>
      </trkpt>
      <trkpt lat="45.80146" lon="4.92599">
        <ele>224.16861</ele>
        <time>2023-08-27T13:15:44.000Z</time>
      </trkpt>
      <trkpt lat="45.80143" lon="4.92603">
        <ele>224.13806</ele>
        <time>2023-08-27T13:15:45.000Z</time>
      </trkpt>
      <trkpt lat="45.8014" lon="4.92607">
        <ele>224.15311</ele>
        <time>2023-08-27T13:15:46.000Z</time>
      </trkpt>
      <trkpt lat="45.80137" lon="4.92611">
        <ele>224.17368</ele>
        <time>2023-08-27T13:15:47.000Z</time>
      </trkpt>
      <trkpt lat="45.80135" lon="4.92615">
        <ele>224.19527</ele>
        <time>2023-08-27T13:15:48.000Z</time>
      </trkpt>
      <trkpt lat="45.80133" lon="4.9262">
        <ele>224.25919</ele>
        <time>2023-08-27T13:15:49.000Z</time>
      </trkpt>
      <trkpt lat="45.80132" lon="4.92626">
        <ele>224.28452</ele>
        <time>2023-08-27T13:15:50.000Z</time>
      </trkpt>
      <trkpt lat="45.80131" lon="4.92631">
        <ele>224.36124</ele>
        <time>2023-08-27T13:15:51.000Z</time>
      </trkpt>
      <trkpt lat="45.8013" lon="4.92637">
        <ele>224.41943</ele>
        <time>2023-08-27T13:15:52.000Z</time>
      </trkpt>
      <trkpt lat="45.8013" lon="4.92642">
        <ele>224.49106</ele>
        <time>2023-08-27T13:15:53.000Z</time>
      </trkpt>
      <trkpt lat="45.8013" lon="4.92648">
        <ele>224.60677</ele>
        <time>2023-08-27T13:15:54.000Z</time>
      </trkpt>
      <trkpt lat="45.80129" lon="4.92654">
        <ele>224.74126</ele>
        <time>2023-08-27T13:15:55.000Z</time>
      </trkpt>
      <trkpt lat="45.80128" lon="4.92659">
        <ele>224.78535</ele>
        <time>2023-08-27T13:15:56.000Z</time>
      </trkpt>
      <trkpt lat="45.80127" lon="4.92664">
        <ele>224.79993</ele>
        <time>2023-08-27T13:15:57.000Z</time>
      </trkpt>
      <trkpt lat="45.80125" lon="4.92668">
        <ele>224.83553</ele>
        <time>2023-08-27T13:15:58.000Z</time>
      </trkpt>
      <trkpt lat="45.80123" lon="4.92673">
        <ele>224.85542</ele>
        <time>2023-08-27T13:15:59.000Z</time>
      </trkpt>
      <trkpt lat="45.80121" lon="4.92677">
        <ele>224.86389</ele>
        <time>2023-08-27T13:16:00.000Z</time>
      </trkpt>
      <trkpt lat="45.80118" lon="4.92681">
        <ele>224.87947</ele>
        <time>2023-08-27T13:16:01.000Z</time>
      </trkpt>
      <trkpt lat="45.80114" lon="4.92684">
        <ele>224.88477</ele>
        <time>2023-08-27T13:16:02.000Z</time>
      </trkpt>
      <trkpt lat="45.80111" lon="4.92687">
        <ele>224.91731</ele>
        <time>2023-08-27T13:16:03.000Z</time>
      </trkpt>
      <trkpt lat="45.80107" lon="4.92689">
        <ele>224.93282</ele>
        <time>2023-08-27T13:16:04.000Z</time>
      </trkpt>
      <trkpt lat="45.80104" lon="4.92691">
        <ele>224.94919</ele>
        <time>2023-08-27T13:16:05.000Z</time>
      </trkpt>
      <trkpt lat="45.801" lon="4.92693">
        <ele>224.93506</ele>
        <time>2023-08-27T13:16:06.000Z</time>
      </trkpt>
      <trkpt lat="45.80097" lon="4.92694">
        <ele>224.88779</ele>
        <time>2023-08-27T13:16:07.000Z</time>
      </trkpt>
      <trkpt lat="45.80093" lon="4.92695">
        <ele>224.84419</ele>
        <time>2023-08-27T13:16:08.000Z</time>
      </trkpt>
      <trkpt lat="45.80089" lon="4.92697">
        <ele>224.80295</ele>
        <time>2023-08-27T13:16:09.000Z</time>
      </trkpt>
      <trkpt lat="45.80085" lon="4.92698">
        <ele>224.82211</ele>
        <time>2023-08-27T13:16:10.000Z</time>
      </trkpt>
      <trkpt lat="45.80081" lon="4.927">
        <ele>224.82182</ele>
        <time>2023-08-27T13:16:11.000Z</time>
      </trkpt>
      <trkpt lat="45.80077" lon="4.92701">
        <ele>224.80228</ele>
        <time>2023-08-27T13:16:12.000Z</time>
      </trkpt>
      <trkpt lat="45.80074" lon="4.92702">
        <ele>224.79488</ele>
        <time>2023-08-27T13:16:13.000Z</time>
      </trkpt>
      <trkpt lat="45.80071" lon="4.92704">
        <ele>224.79903</ele>
        <time>2023-08-27T13:16:14.000Z</time>
      </trkpt>
      <trkpt lat="45.80067" lon="4.92705">
        <ele>224.82285</ele>
        <time>2023-08-27T13:16:15.000Z</time>
      </trkpt>
      <trkpt lat="45.80063" lon="4.92707">
        <ele>224.86539</ele>
        <time>2023-08-27T13:16:16.000Z</time>
      </trkpt>
      <trkpt lat="45.8006" lon="4.92708">
        <ele>224.91963</ele>
        <time>2023-08-27T13:16:17.000Z</time>
      </trkpt>
      <trkpt lat="45.80056" lon="4.92709">
        <ele>224.95633</ele>
        <time>2023-08-27T13:16:18.000Z</time>
      </trkpt>
      <trkpt lat="45.80053" lon="4.92709">
        <ele>225.02274</ele>
        <time>2023-08-27T13:16:19.000Z</time>
      </trkpt>
      <trkpt lat="45.80049" lon="4.92709">
        <ele>225.11154</ele>
        <time>2023-08-27T13:16:20.000Z</time>
      </trkpt>
      <trkpt lat="45.80046" lon="4.92709">
        <ele>225.2209</ele>
        <time>2023-08-27T13:16:21.000Z</time>
      </trkpt>
      <trkpt lat="45.80043" lon="4.92709">
        <ele>225.30754</ele>
        <time>2023-08-27T13:16:22.000Z</time>
      </trkpt>
      <trkpt lat="45.8004" lon="4.92711">
        <ele>225.39648</ele>
        <time>2023-08-27T13:16:23.000Z</time>
      </trkpt>
      <trkpt lat="45.80036" lon="4.92712">
        <ele>225.5002</ele>
        <time>2023-08-27T13:16:24.000Z</time>
      </trkpt>
      <trkpt lat="45.80032" lon="4.92714">
        <ele>225.62813</ele>
        <time>2023-08-27T13:16:25.000Z</time>
      </trkpt>
      <trkpt lat="45.80029" lon="4.92715">
        <ele>225.78406</ele>
        <time>2023-08-27T13:16:26.000Z</time>
      </trkpt>
      <trkpt lat="45.80025" lon="4.92716">
        <ele>225.96309</ele>
        <time>2023-08-27T13:16:27.000Z</time>
      </trkpt>
      <trkpt lat="45.80022" lon="4.92717">
        <ele>226.15683</ele>
        <time>2023-08-27T13:16:28.000Z</time>
      </trkpt>
      <trkpt lat="45.80018" lon="4.92718">
        <ele>226.32918</ele>
        <time>2023-08-27T13:16:29.000Z</time>
      </trkpt>
      <trkpt lat="45.80015" lon="4.92718">
        <ele>226.49765</ele>
        <time>2023-08-27T13:16:30.000Z</time>
      </trkpt>
      <trkpt lat="45.80012" lon="4.92719">
        <ele>226.65707</ele>
        <time>2023-08-27T13:16:31.000Z</time>
      </trkpt>
      <trkpt lat="45.80008" lon="4.9272">
        <ele>226.78279</ele>
        <time>2023-08-27T13:16:32.000Z</time>
      </trkpt>
      <trkpt lat="45.80004" lon="4.92721">
        <ele>226.87418</ele>
        <time>2023-08-27T13:16:33.000Z</time>
      </trkpt>
      <trkpt lat="45.80001" lon="4.92722">
        <ele>226.94283</ele>
        <time>2023-08-27T13:16:34.000Z</time>
      </trkpt>
      <trkpt lat="45.79997" lon="4.92722">
        <ele>227.00908</ele>
        <time>2023-08-27T13:16:35.000Z</time>
      </trkpt>
      <trkpt lat="45.79993" lon="4.92722">
        <ele>227.0937</ele>
        <time>2023-08-27T13:16:36.000Z</time>
      </trkpt>
      <trkpt lat="45.7999" lon="4.92722">
        <ele>227.19003</ele>
        <time>2023-08-27T13:16:37.000Z</time>
      </trkpt>
      <trkpt lat="45.79986" lon="4.92723">
        <ele>227.27544</ele>
        <time>2023-08-27T13:16:38.000Z</time>
      </trkpt>
      <trkpt lat="45.79983" lon="4.92723">
        <ele>227.37305</ele>
        <time>2023-08-27T13:16:39.000Z</time>
      </trkpt>
      <trkpt lat="45.79979" lon="4.92724">
        <ele>227.46538</ele>
        <time>2023-08-27T13:16:40.000Z</time>
      </trkpt>
      <trkpt lat="45.79976" lon="4.92725">
        <ele>227.57784</ele>
        <time>2023-08-27T13:16:41.000Z</time>
      </trkpt>
      <trkpt lat="45.79972" lon="4.92725">
        <ele>227.70248</ele>
        <time>2023-08-27T13:16:42.000Z</time>
      </trkpt>
      <trkpt lat="45.79969" lon="4.92726">
        <ele>227.79333</ele>
        <time>2023-08-27T13:16:43.000Z</time>
      </trkpt>
      <trkpt lat="45.79966" lon="4.92726">
        <ele>227.85991</ele>
        <time>2023-08-27T13:16:44.000Z</time>
      </trkpt>
      <trkpt lat="45.79962" lon="4.92725">
        <ele>227.92151</ele>
        <time>2023-08-27T13:16:45.000Z</time>
      </trkpt>
      <trkpt lat="45.79959" lon="4.92724">
        <ele>227.96533</ele>
        <time>2023-08-27T13:16:46.000Z</time>
      </trkpt>
      <trkpt lat="45.79955" lon="4.92723">
        <ele>227.97568</ele>
        <time>2023-08-27T13:16:47.000Z</time>
      </trkpt>
      <trkpt lat="45.79951" lon="4.92723">
        <ele>227.9801</ele>
        <time>2023-08-27T13:16:48.000Z</time>
      </trkpt>
      <trkpt lat="45.79947" lon="4.92723">
        <ele>227.98318</ele>
        <time>2023-08-27T13:16:49.000Z</time>
      </trkpt>
      <trkpt lat="45.79943" lon="4.92722">
        <ele>227.97627</ele>
        <time>2023-08-27T13:16:50.000Z</time>
      </trkpt>
      <trkpt lat="45.79939" lon="4.92722">
        <ele>227.96294</ele>
        <time>2023-08-27T13:16:51.000Z</time>
      </trkpt>
      <trkpt lat="45.79935" lon="4.92722">
        <ele>227.96457</ele>
        <time>2023-08-27T13:16:52.000Z</time>
      </trkpt>
      <trkpt lat="45.79931" lon="4.92721">
        <ele>227.98901</ele>
        <time>2023-08-27T13:16:53.000Z</time>
      </trkpt>
      <trkpt lat="45.79927" lon="4.9272">
        <ele>228.03438</ele>
        <time>2023-08-27T13:16:54.000Z</time>
      </trkpt>
      <trkpt lat="45.79923" lon="4.92719">
        <ele>228.05106</ele>
        <time>2023-08-27T13:16:55.000Z</time>
      </trkpt>
      <trkpt lat="45.79919" lon="4.92717">
        <ele>228.05832</ele>
        <time>2023-08-27T13:16:56.000Z</time>
      </trkpt>
      <trkpt lat="45.79914" lon="4.92715">
        <ele>228.05293</ele>
        <time>2023-08-27T13:16:57.000Z</time>
      </trkpt>
      <trkpt lat="45.7991" lon="4.92714">
        <ele>228.0488</ele>
        <time>2023-08-27T13:16:58.000Z</time>
      </trkpt>
      <trkpt lat="45.79906" lon="4.92713">
        <ele>228.02466</ele>
        <time>2023-08-27T13:16:59.000Z</time>
      </trkpt>
      <trkpt lat="45.79902" lon="4.92712">
        <ele>228.00789</ele>
        <time>2023-08-27T13:17:00.000Z</time>
      </trkpt>
      <trkpt lat="45.79898" lon="4.92711">
        <ele>227.92883</ele>
        <time>2023-08-27T13:17:01.000Z</time>
      </trkpt>
      <trkpt lat="45.79894" lon="4.92709">
        <ele>227.85938</ele>
        <time>2023-08-27T13:17:02.000Z</time>
      </trkpt>
      <trkpt lat="45.7989" lon="4.92708">
        <ele>227.79446</ele>
        <time>2023-08-27T13:17:03.000Z</time>
      </trkpt>
      <trkpt lat="45.79885" lon="4.92707">
        <ele>227.75668</ele>
        <time>2023-08-27T13:17:04.000Z</time>
      </trkpt>
      <trkpt lat="45.79881" lon="4.92706">
        <ele>227.69702</ele>
        <time>2023-08-27T13:17:05.000Z</time>
      </trkpt>
      <trkpt lat="45.79877" lon="4.92704">
        <ele>227.62466</ele>
        <time>2023-08-27T13:17:06.000Z</time>
      </trkpt>
      <trkpt lat="45.79873" lon="4.92702">
        <ele>227.57449</ele>
        <time>2023-08-27T13:17:07.000Z</time>
      </trkpt>
      <trkpt lat="45.79868" lon="4.92701">
        <ele>227.53767</ele>
        <time>2023-08-27T13:17:08.000Z</time>
      </trkpt>
      <trkpt lat="45.79864" lon="4.927">
        <ele>227.51506</ele>
        <time>2023-08-27T13:17:09.000Z</time>
      </trkpt>
      <trkpt lat="45.7986" lon="4.92698">
        <ele>227.48032</ele>
        <time>2023-08-27T13:17:10.000Z</time>
      </trkpt>
      <trkpt lat="45.79856" lon="4.92697">
        <ele>227.43156</ele>
        <time>2023-08-27T13:17:11.000Z</time>
      </trkpt>
      <trkpt lat="45.79851" lon="4.92696">
        <ele>227.39221</ele>
        <time>2023-08-27T13:17:12.000Z</time>
      </trkpt>
      <trkpt lat="45.79847" lon="4.92694">
        <ele>227.32784</ele>
        <time>2023-08-27T13:17:13.000Z</time>
      </trkpt>
      <trkpt lat="45.79842" lon="4.92692">
        <ele>227.27437</ele>
        <time>2023-08-27T13:17:14.000Z</time>
      </trkpt>
      <trkpt lat="45.79839" lon="4.92689">
        <ele>227.24248</ele>
        <time>2023-08-27T13:17:15.000Z</time>
      </trkpt>
      <trkpt lat="45.79834" lon="4.92686">
        <ele>227.21526</ele>
        <time>2023-08-27T13:17:16.000Z</time>
      </trkpt>
      <trkpt lat="45.7983" lon="4.92684">
        <ele>227.19522</ele>
        <time>2023-08-27T13:17:17.000Z</time>
      </trkpt>
      <trkpt lat="45.79826" lon="4.92681">
        <ele>227.16861</ele>
        <time>2023-08-27T13:17:18.000Z</time>
      </trkpt>
      <trkpt lat="45.79822" lon="4.92677">
        <ele>227.16589</ele>
        <time>2023-08-27T13:17:19.000Z</time>
      </trkpt>
      <trkpt lat="45.79818" lon="4.92674">
        <ele>227.14212</ele>
        <time>2023-08-27T13:17:20.000Z</time>
      </trkpt>
      <trkpt lat="45.79814" lon="4.9267">
        <ele>227.14798</ele>
        <time>2023-08-27T13:17:21.000Z</time>
      </trkpt>
      <trkpt lat="45.79811" lon="4.92667">
        <ele>227.16064</ele>
        <time>2023-08-27T13:17:22.000Z</time>
      </trkpt>
      <trkpt lat="45.79808" lon="4.92663">
        <ele>227.19971</ele>
        <time>2023-08-27T13:17:23.000Z</time>
      </trkpt>
      <trkpt lat="45.79804" lon="4.92659">
        <ele>227.23503</ele>
        <time>2023-08-27T13:17:24.000Z</time>
      </trkpt>
      <trkpt lat="45.79801" lon="4.92654">
        <ele>227.31726</ele>
        <time>2023-08-27T13:17:25.000Z</time>
      </trkpt>
      <trkpt lat="45.79798" lon="4.9265">
        <ele>227.41748</ele>
        <time>2023-08-27T13:17:26.000Z</time>
      </trkpt>
      <trkpt lat="45.79794" lon="4.92646">
        <ele>227.57333</ele>
        <time>2023-08-27T13:17:27.000Z</time>
      </trkpt>
      <trkpt lat="45.79792" lon="4.92642">
        <ele>227.66927</ele>
        <time>2023-08-27T13:17:28.000Z</time>
      </trkpt>
      <trkpt lat="45.79788" lon="4.92637">
        <ele>227.7618</ele>
        <time>2023-08-27T13:17:29.000Z</time>
      </trkpt>
      <trkpt lat="45.79785" lon="4.92634">
        <ele>227.85869</ele>
        <time>2023-08-27T13:17:30.000Z</time>
      </trkpt>
      <trkpt lat="45.79782" lon="4.92629">
        <ele>227.92468</ele>
        <time>2023-08-27T13:17:31.000Z</time>
      </trkpt>
      <trkpt lat="45.79779" lon="4.92625">
        <ele>227.98494</ele>
        <time>2023-08-27T13:17:32.000Z</time>
      </trkpt>
      <trkpt lat="45.79775" lon="4.92621">
        <ele>228.03999</ele>
        <time>2023-08-27T13:17:33.000Z</time>
      </trkpt>
      <trkpt lat="45.79772" lon="4.92618">
        <ele>228.07104</ele>
        <time>2023-08-27T13:17:34.000Z</time>
      </trkpt>
      <trkpt lat="45.79768" lon="4.92615">
        <ele>228.07907</ele>
        <time>2023-08-27T13:17:35.000Z</time>
      </trkpt>
      <trkpt lat="45.79764" lon="4.92611">
        <ele>228.06339</ele>
        <time>2023-08-27T13:17:36.000Z</time>
      </trkpt>
      <trkpt lat="45.79761" lon="4.92608">
        <ele>228.03369</ele>
        <time>2023-08-27T13:17:37.000Z</time>
      </trkpt>
      <trkpt lat="45.79757" lon="4.92604">
        <ele>228.03276</ele>
        <time>2023-08-27T13:17:38.000Z</time>
      </trkpt>
      <trkpt lat="45.79753" lon="4.92601">
        <ele>227.98384</ele>
        <time>2023-08-27T13:17:39.000Z</time>
      </trkpt>
      <trkpt lat="45.7975" lon="4.92597">
        <ele>227.90878</ele>
        <time>2023-08-27T13:17:40.000Z</time>
      </trkpt>
      <trkpt lat="45.79746" lon="4.92594">
        <ele>227.81909</ele>
        <time>2023-08-27T13:17:41.000Z</time>
      </trkpt>
      <trkpt lat="45.79742" lon="4.92591">
        <ele>227.7135</ele>
        <time>2023-08-27T13:17:42.000Z</time>
      </trkpt>
      <trkpt lat="45.79738" lon="4.92588">
        <ele>227.58609</ele>
        <time>2023-08-27T13:17:43.000Z</time>
      </trkpt>
      <trkpt lat="45.79734" lon="4.92585">
        <ele>227.45219</ele>
        <time>2023-08-27T13:17:44.000Z</time>
      </trkpt>
      <trkpt lat="45.7973" lon="4.92583">
        <ele>227.2963</ele>
        <time>2023-08-27T13:17:45.000Z</time>
      </trkpt>
      <trkpt lat="45.79726" lon="4.9258">
        <ele>227.13852</ele>
        <time>2023-08-27T13:17:46.000Z</time>
      </trkpt>
      <trkpt lat="45.79722" lon="4.92577">
        <ele>226.92978</ele>
        <time>2023-08-27T13:17:47.000Z</time>
      </trkpt>
      <trkpt lat="45.79718" lon="4.92575">
        <ele>226.71475</ele>
        <time>2023-08-27T13:17:48.000Z</time>
      </trkpt>
      <trkpt lat="45.79713" lon="4.92572">
        <ele>226.48599</ele>
        <time>2023-08-27T13:17:49.000Z</time>
      </trkpt>
      <trkpt lat="45.79708" lon="4.9257">
        <ele>226.24899</ele>
        <time>2023-08-27T13:17:50.000Z</time>
      </trkpt>
      <trkpt lat="45.79704" lon="4.92568">
        <ele>226.0498</ele>
        <time>2023-08-27T13:17:51.000Z</time>
      </trkpt>
      <trkpt lat="45.79699" lon="4.92566">
        <ele>225.8918</ele>
        <time>2023-08-27T13:17:52.000Z</time>
      </trkpt>
      <trkpt lat="45.79695" lon="4.92565">
        <ele>225.75864</ele>
        <time>2023-08-27T13:17:53.000Z</time>
      </trkpt>
      <trkpt lat="45.7969" lon="4.92563">
        <ele>225.63541</ele>
        <time>2023-08-27T13:17:54.000Z</time>
      </trkpt>
      <trkpt lat="45.79685" lon="4.92561">
        <ele>225.52502</ele>
        <time>2023-08-27T13:17:55.000Z</time>
      </trkpt>
      <trkpt lat="45.7968" lon="4.92559">
        <ele>225.4165</ele>
        <time>2023-08-27T13:17:56.000Z</time>
      </trkpt>
      <trkpt lat="45.79675" lon="4.92557">
        <ele>225.30147</ele>
        <time>2023-08-27T13:17:57.000Z</time>
      </trkpt>
      <trkpt lat="45.7967" lon="4.92556">
        <ele>225.18245</ele>
        <time>2023-08-27T13:17:58.000Z</time>
      </trkpt>
      <trkpt lat="45.79665" lon="4.92555">
        <ele>225.07462</ele>
        <time>2023-08-27T13:17:59.000Z</time>
      </trkpt>
      <trkpt lat="45.7966" lon="4.92554">
        <ele>225.02388</ele>
        <time>2023-08-27T13:18:00.000Z</time>
      </trkpt>
      <trkpt lat="45.79655" lon="4.92553">
        <ele>224.98743</ele>
        <time>2023-08-27T13:18:01.000Z</time>
      </trkpt>
      <trkpt lat="45.7965" lon="4.92551">
        <ele>224.94487</ele>
        <time>2023-08-27T13:18:02.000Z</time>
      </trkpt>
      <trkpt lat="45.79645" lon="4.92549">
        <ele>224.91434</ele>
        <time>2023-08-27T13:18:03.000Z</time>
      </trkpt>
      <trkpt lat="45.7964" lon="4.92548">
        <ele>224.87593</ele>
        <time>2023-08-27T13:18:04.000Z</time>
      </trkpt>
      <trkpt lat="45.79635" lon="4.92546">
        <ele>224.83549</ele>
        <time>2023-08-27T13:18:05.000Z</time>
      </trkpt>
      <trkpt lat="45.7963" lon="4.92545">
        <ele>224.79614</ele>
        <time>2023-08-27T13:18:06.000Z</time>
      </trkpt>
      <trkpt lat="45.79625" lon="4.92543">
        <ele>224.74483</ele>
        <time>2023-08-27T13:18:07.000Z</time>
      </trkpt>
      <trkpt lat="45.7962" lon="4.92541">
        <ele>224.75342</ele>
        <time>2023-08-27T13:18:08.000Z</time>
      </trkpt>
      <trkpt lat="45.79615" lon="4.92539">
        <ele>224.76913</ele>
        <time>2023-08-27T13:18:09.000Z</time>
      </trkpt>
      <trkpt lat="45.7961" lon="4.92538">
        <ele>224.8029</ele>
        <time>2023-08-27T13:18:10.000Z</time>
      </trkpt>
      <trkpt lat="45.79605" lon="4.92537">
        <ele>224.8497</ele>
        <time>2023-08-27T13:18:11.000Z</time>
      </trkpt>
      <trkpt lat="45.796" lon="4.92534">
        <ele>224.84482</ele>
        <time>2023-08-27T13:18:12.000Z</time>
      </trkpt>
      <trkpt lat="45.79595" lon="4.92533">
        <ele>224.83772</ele>
        <time>2023-08-27T13:18:13.000Z</time>
      </trkpt>
      <trkpt lat="45.79591" lon="4.9253">
        <ele>224.81339</ele>
        <time>2023-08-27T13:18:14.000Z</time>
      </trkpt>
      <trkpt lat="45.79586" lon="4.92528">
        <ele>224.79819</ele>
        <time>2023-08-27T13:18:15.000Z</time>
      </trkpt>
      <trkpt lat="45.79581" lon="4.92525">
        <ele>224.798</ele>
        <time>2023-08-27T13:18:16.000Z</time>
      </trkpt>
      <trkpt lat="45.79577" lon="4.92523">
        <ele>224.82614</ele>
        <time>2023-08-27T13:18:17.000Z</time>
      </trkpt>
      <trkpt lat="45.79572" lon="4.9252">
        <ele>224.85698</ele>
        <time>2023-08-27T13:18:18.000Z</time>
      </trkpt>
      <trkpt lat="45.79567" lon="4.92518">
        <ele>224.91104</ele>
        <time>2023-08-27T13:18:19.000Z</time>
      </trkpt>
      <trkpt lat="45.79563" lon="4.92515">
        <ele>224.92924</ele>
        <time>2023-08-27T13:18:20.000Z</time>
      </trkpt>
      <trkpt lat="45.79558" lon="4.92513">
        <ele>224.939</ele>
        <time>2023-08-27T13:18:21.000Z</time>
      </trkpt>
      <trkpt lat="45.79555" lon="4.9251">
        <ele>224.95804</ele>
        <time>2023-08-27T13:18:22.000Z</time>
      </trkpt>
      <trkpt lat="45.79551" lon="4.92508">
        <ele>224.97054</ele>
        <time>2023-08-27T13:18:23.000Z</time>
      </trkpt>
      <trkpt lat="45.79547" lon="4.92505">
        <ele>225.00835</ele>
        <time>2023-08-27T13:18:24.000Z</time>
      </trkpt>
      <trkpt lat="45.79543" lon="4.92502">
        <ele>225.05664</ele>
        <time>2023-08-27T13:18:25.000Z</time>
      </trkpt>
      <trkpt lat="45.79538" lon="4.92499">
        <ele>225.07796</ele>
        <time>2023-08-27T13:18:26.000Z</time>
      </trkpt>
      <trkpt lat="45.79534" lon="4.92498">
        <ele>225.14218</ele>
        <time>2023-08-27T13:18:27.000Z</time>
      </trkpt>
      <trkpt lat="45.7953" lon="4.92495">
        <ele>225.18742</ele>
        <time>2023-08-27T13:18:28.000Z</time>
      </trkpt>
      <trkpt lat="45.79525" lon="4.92492">
        <ele>225.25626</ele>
        <time>2023-08-27T13:18:29.000Z</time>
      </trkpt>
      <trkpt lat="45.79521" lon="4.92488">
        <ele>225.32413</ele>
        <time>2023-08-27T13:18:30.000Z</time>
      </trkpt>
      <trkpt lat="45.79517" lon="4.92486">
        <ele>225.47868</ele>
        <time>2023-08-27T13:18:31.000Z</time>
      </trkpt>
      <trkpt lat="45.79513" lon="4.92483">
        <ele>225.66806</ele>
        <time>2023-08-27T13:18:32.000Z</time>
      </trkpt>
      <trkpt lat="45.79509" lon="4.92479">
        <ele>225.85522</ele>
        <time>2023-08-27T13:18:33.000Z</time>
      </trkpt>
      <trkpt lat="45.79506" lon="4.92476">
        <ele>226.03903</ele>
        <time>2023-08-27T13:18:34.000Z</time>
      </trkpt>
      <trkpt lat="45.79503" lon="4.92472">
        <ele>226.22595</ele>
        <time>2023-08-27T13:18:35.000Z</time>
      </trkpt>
      <trkpt lat="45.79499" lon="4.92468">
        <ele>226.40479</ele>
        <time>2023-08-27T13:18:36.000Z</time>
      </trkpt>
      <trkpt lat="45.79496" lon="4.92463">
        <ele>226.57791</ele>
        <time>2023-08-27T13:18:37.000Z</time>
      </trkpt>
      <trkpt lat="45.79493" lon="4.92458">
        <ele>226.6416</ele>
        <time>2023-08-27T13:18:38.000Z</time>
      </trkpt>
      <trkpt lat="45.7949" lon="4.92453">
        <ele>226.6801</ele>
        <time>2023-08-27T13:18:39.000Z</time>
      </trkpt>
      <trkpt lat="45.79487" lon="4.92448">
        <ele>226.73752</ele>
        <time>2023-08-27T13:18:40.000Z</time>
      </trkpt>
      <trkpt lat="45.79485" lon="4.92442">
        <ele>226.78931</ele>
        <time>2023-08-27T13:18:41.000Z</time>
      </trkpt>
      <trkpt lat="45.79483" lon="4.92437">
        <ele>226.83633</ele>
        <time>2023-08-27T13:18:42.000Z</time>
      </trkpt>
      <trkpt lat="45.79481" lon="4.92431">
        <ele>226.8898</ele>
        <time>2023-08-27T13:18:43.000Z</time>
      </trkpt>
      <trkpt lat="45.7948" lon="4.92425">
        <ele>226.91997</ele>
        <time>2023-08-27T13:18:44.000Z</time>
      </trkpt>
      <trkpt lat="45.79478" lon="4.92418">
        <ele>226.93633</ele>
        <time>2023-08-27T13:18:45.000Z</time>
      </trkpt>
      <trkpt lat="45.79476" lon="4.92411">
        <ele>226.96098</ele>
        <time>2023-08-27T13:18:46.000Z</time>
      </trkpt>
      <trkpt lat="45.79475" lon="4.92405">
        <ele>226.96504</ele>
        <time>2023-08-27T13:18:47.000Z</time>
      </trkpt>
      <trkpt lat="45.79473" lon="4.92397">
        <ele>226.9644</ele>
        <time>2023-08-27T13:18:48.000Z</time>
      </trkpt>
      <trkpt lat="45.79471" lon="4.92389">
        <ele>226.94235</ele>
        <time>2023-08-27T13:18:49.000Z</time>
      </trkpt>
      <trkpt lat="45.79469" lon="4.92382">
        <ele>226.90799</ele>
        <time>2023-08-27T13:18:50.000Z</time>
      </trkpt>
      <trkpt lat="45.79467" lon="4.92374">
        <ele>226.77975</ele>
        <time>2023-08-27T13:18:51.000Z</time>
      </trkpt>
      <trkpt lat="45.79465" lon="4.92366">
        <ele>226.66757</ele>
        <time>2023-08-27T13:18:52.000Z</time>
      </trkpt>
      <trkpt lat="45.79463" lon="4.92358">
        <ele>226.52588</ele>
        <time>2023-08-27T13:18:53.000Z</time>
      </trkpt>
      <trkpt lat="45.79458" lon="4.92351">
        <ele>226.42326</ele>
        <time>2023-08-27T13:18:54.000Z</time>
      </trkpt>
      <trkpt lat="45.79455" lon="4.92346">
        <ele>226.325</ele>
        <time>2023-08-27T13:18:55.000Z</time>
      </trkpt>
      <trkpt lat="45.79452" lon="4.9234">
        <ele>226.22241</ele>
        <time>2023-08-27T13:18:56.000Z</time>
      </trkpt>
      <trkpt lat="45.79451" lon="4.92335">
        <ele>226.10442</ele>
        <time>2023-08-27T13:18:57.000Z</time>
      </trkpt>
      <trkpt lat="45.79451" lon="4.92329">
        <ele>226.06863</ele>
        <time>2023-08-27T13:18:58.000Z</time>
      </trkpt>
      <trkpt lat="45.79449" lon="4.92324">
        <ele>226.08249</ele>
        <time>2023-08-27T13:18:59.000Z</time>
      </trkpt>
      <trkpt lat="45.79449" lon="4.92318">
        <ele>226.07385</ele>
        <time>2023-08-27T13:19:00.000Z</time>
      </trkpt>
      <trkpt lat="45.79448" lon="4.92313">
        <ele>226.08875</ele>
        <time>2023-08-27T13:19:01.000Z</time>
      </trkpt>
      <trkpt lat="45.79447" lon="4.92309">
        <ele>226.11943</ele>
        <time>2023-08-27T13:19:02.000Z</time>
      </trkpt>
      <trkpt lat="45.79446" lon="4.92305">
        <ele>226.1525</ele>
        <time>2023-08-27T13:19:03.000Z</time>
      </trkpt>
      <trkpt lat="45.79445" lon="4.92301">
        <ele>226.21146</ele>
        <time>2023-08-27T13:19:04.000Z</time>
      </trkpt>
      <trkpt lat="45.79445" lon="4.92296">
        <ele>226.26787</ele>
        <time>2023-08-27T13:19:05.000Z</time>
      </trkpt>
      <trkpt lat="45.79444" lon="4.92292">
        <ele>226.34741</ele>
        <time>2023-08-27T13:19:06.000Z</time>
      </trkpt>
      <trkpt lat="45.79444" lon="4.92288">
        <ele>226.43143</ele>
        <time>2023-08-27T13:19:07.000Z</time>
      </trkpt>
      <trkpt lat="45.79443" lon="4.92284">
        <ele>226.521</ele>
        <time>2023-08-27T13:19:08.000Z</time>
      </trkpt>
      <trkpt lat="45.79443" lon="4.9228">
        <ele>226.64413</ele>
        <time>2023-08-27T13:19:09.000Z</time>
      </trkpt>
      <trkpt lat="45.79443" lon="4.92276">
        <ele>226.8112</ele>
        <time>2023-08-27T13:19:10.000Z</time>
      </trkpt>
      <trkpt lat="45.79442" lon="4.92272">
        <ele>226.98164</ele>
        <time>2023-08-27T13:19:11.000Z</time>
      </trkpt>
      <trkpt lat="45.79441" lon="4.92269">
        <ele>227.12216</ele>
        <time>2023-08-27T13:19:12.000Z</time>
      </trkpt>
      <trkpt lat="45.7944" lon="4.92266">
        <ele>227.29236</ele>
        <time>2023-08-27T13:19:13.000Z</time>
      </trkpt>
      <trkpt lat="45.79439" lon="4.92263">
        <ele>227.43698</ele>
        <time>2023-08-27T13:19:14.000Z</time>
      </trkpt>
      <trkpt lat="45.79437" lon="4.9226">
        <ele>227.59929</ele>
        <time>2023-08-27T13:19:15.000Z</time>
      </trkpt>
      <trkpt lat="45.79436" lon="4.92256">
        <ele>227.74666</ele>
        <time>2023-08-27T13:19:16.000Z</time>
      </trkpt>
      <trkpt lat="45.79435" lon="4.92252">
        <ele>227.9491</ele>
        <time>2023-08-27T13:19:17.000Z</time>
      </trkpt>
      <trkpt lat="45.79433" lon="4.92248">
        <ele>228.19241</ele>
        <time>2023-08-27T13:19:18.000Z</time>
      </trkpt>
      <trkpt lat="45.79432" lon="4.92243">
        <ele>228.3951</ele>
        <time>2023-08-27T13:19:19.000Z</time>
      </trkpt>
      <trkpt lat="45.79431" lon="4.92238">
        <ele>228.61642</ele>
        <time>2023-08-27T13:19:20.000Z</time>
      </trkpt>
      <trkpt lat="45.7943" lon="4.92233">
        <ele>228.82153</ele>
        <time>2023-08-27T13:19:21.000Z</time>
      </trkpt>
      <trkpt lat="45.79428" lon="4.92228">
        <ele>229.01729</ele>
        <time>2023-08-27T13:19:22.000Z</time>
      </trkpt>
      <trkpt lat="45.79427" lon="4.92223">
        <ele>229.21249</ele>
        <time>2023-08-27T13:19:23.000Z</time>
      </trkpt>
      <trkpt lat="45.79426" lon="4.92218">
        <ele>229.38235</ele>
        <time>2023-08-27T13:19:24.000Z</time>
      </trkpt>
      <trkpt lat="45.79424" lon="4.92213">
        <ele>229.5658</ele>
        <time>2023-08-27T13:19:25.000Z</time>
      </trkpt>
      <trkpt lat="45.79423" lon="4.92208">
        <ele>229.64648</ele>
        <time>2023-08-27T13:19:26.000Z</time>
      </trkpt>
      <trkpt lat="45.79422" lon="4.92202">
        <ele>229.71883</ele>
        <time>2023-08-27T13:19:27.000Z</time>
      </trkpt>
      <trkpt lat="45.79421" lon="4.92197">
        <ele>229.77695</ele>
        <time>2023-08-27T13:19:28.000Z</time>
      </trkpt>
      <trkpt lat="45.7942" lon="4.92192">
        <ele>229.80685</ele>
        <time>2023-08-27T13:19:29.000Z</time>
      </trkpt>
      <trkpt lat="45.79419" lon="4.92187">
        <ele>229.78079</ele>
        <time>2023-08-27T13:19:30.000Z</time>
      </trkpt>
      <trkpt lat="45.79418" lon="4.92182">
        <ele>229.73145</ele>
        <time>2023-08-27T13:19:31.000Z</time>
      </trkpt>
      <trkpt lat="45.79416" lon="4.92176">
        <ele>229.68985</ele>
        <time>2023-08-27T13:19:32.000Z</time>
      </trkpt>
      <trkpt lat="45.79415" lon="4.92171">
        <ele>229.6492</ele>
        <time>2023-08-27T13:19:33.000Z</time>
      </trkpt>
      <trkpt lat="45.79414" lon="4.92166">
        <ele>229.60669</ele>
        <time>2023-08-27T13:19:34.000Z</time>
      </trkpt>
      <trkpt lat="45.79413" lon="4.92161">
        <ele>229.53532</ele>
        <time>2023-08-27T13:19:35.000Z</time>
      </trkpt>
      <trkpt lat="45.79411" lon="4.92155">
        <ele>229.47961</ele>
        <time>2023-08-27T13:19:36.000Z</time>
      </trkpt>
      <trkpt lat="45.7941" lon="4.9215">
        <ele>229.36763</ele>
        <time>2023-08-27T13:19:37.000Z</time>
      </trkpt>
      <trkpt lat="45.79409" lon="4.92146">
        <ele>229.22636</ele>
        <time>2023-08-27T13:19:38.000Z</time>
      </trkpt>
      <trkpt lat="45.79408" lon="4.92141">
        <ele>229.07825</ele>
        <time>2023-08-27T13:19:39.000Z</time>
      </trkpt>
      <trkpt lat="45.79407" lon="4.92136">
        <ele>228.92673</ele>
        <time>2023-08-27T13:19:40.000Z</time>
      </trkpt>
      <trkpt lat="45.79406" lon="4.92131">
        <ele>228.76616</ele>
        <time>2023-08-27T13:19:41.000Z</time>
      </trkpt>
      <trkpt lat="45.79405" lon="4.92127">
        <ele>228.5977</ele>
        <time>2023-08-27T13:19:42.000Z</time>
      </trkpt>
      <trkpt lat="45.79404" lon="4.92123">
        <ele>228.42741</ele>
        <time>2023-08-27T13:19:43.000Z</time>
      </trkpt>
      <trkpt lat="45.79403" lon="4.9212">
        <ele>228.25517</ele>
        <time>2023-08-27T13:19:44.000Z</time>
      </trkpt>
      <trkpt lat="45.79402" lon="4.92116">
        <ele>228.0853</ele>
        <time>2023-08-27T13:19:45.000Z</time>
      </trkpt>
      <trkpt lat="45.79402" lon="4.92112">
        <ele>227.99947</ele>
        <time>2023-08-27T13:19:46.000Z</time>
      </trkpt>
      <trkpt lat="45.79401" lon="4.92109">
        <ele>227.91402</ele>
        <time>2023-08-27T13:19:47.000Z</time>
      </trkpt>
      <trkpt lat="45.794" lon="4.92105">
        <ele>227.83447</ele>
        <time>2023-08-27T13:19:48.000Z</time>
      </trkpt>
      <trkpt lat="45.794" lon="4.92102">
        <ele>227.74512</ele>
        <time>2023-08-27T13:19:49.000Z</time>
      </trkpt>
      <trkpt lat="45.79399" lon="4.92099">
        <ele>227.64456</ele>
        <time>2023-08-27T13:19:50.000Z</time>
      </trkpt>
      <trkpt lat="45.79398" lon="4.92095">
        <ele>227.5529</ele>
        <time>2023-08-27T13:19:51.000Z</time>
      </trkpt>
      <trkpt lat="45.79398" lon="4.92092">
        <ele>227.45053</ele>
        <time>2023-08-27T13:19:52.000Z</time>
      </trkpt>
      <trkpt lat="45.79397" lon="4.92089">
        <ele>227.35034</ele>
        <time>2023-08-27T13:19:53.000Z</time>
      </trkpt>
      <trkpt lat="45.79396" lon="4.92086">
        <ele>227.26912</ele>
        <time>2023-08-27T13:19:54.000Z</time>
      </trkpt>
      <trkpt lat="45.79395" lon="4.92084">
        <ele>227.20564</ele>
        <time>2023-08-27T13:19:55.000Z</time>
      </trkpt>
      <trkpt lat="45.79395" lon="4.92081">
        <ele>227.14445</ele>
        <time>2023-08-27T13:19:56.000Z</time>
      </trkpt>
      <trkpt lat="45.79394" lon="4.92078">
        <ele>227.10339</ele>
        <time>2023-08-27T13:19:57.000Z</time>
      </trkpt>
      <trkpt lat="45.79393" lon="4.92076">
        <ele>227.06772</ele>
        <time>2023-08-27T13:19:58.000Z</time>
      </trkpt>
      <trkpt lat="45.79392" lon="4.92073">
        <ele>227.04367</ele>
        <time>2023-08-27T13:19:59.000Z</time>
      </trkpt>
      <trkpt lat="45.79391" lon="4.92069">
        <ele>227.03641</ele>
        <time>2023-08-27T13:20:00.000Z</time>
      </trkpt>
      <trkpt lat="45.7939" lon="4.92066">
        <ele>227.04153</ele>
        <time>2023-08-27T13:20:01.000Z</time>
      </trkpt>
      <trkpt lat="45.7939" lon="4.92062">
        <ele>227.02815</ele>
        <time>2023-08-27T13:20:02.000Z</time>
      </trkpt>
      <trkpt lat="45.79389" lon="4.92058">
        <ele>227.01212</ele>
        <time>2023-08-27T13:20:03.000Z</time>
      </trkpt>
      <trkpt lat="45.79388" lon="4.92055">
        <ele>227.0042</ele>
        <time>2023-08-27T13:20:04.000Z</time>
      </trkpt>
      <trkpt lat="45.79387" lon="4.9205">
        <ele>226.99316</ele>
        <time>2023-08-27T13:20:05.000Z</time>
      </trkpt>
      <trkpt lat="45.79386" lon="4.92046">
        <ele>227.01669</ele>
        <time>2023-08-27T13:20:06.000Z</time>
      </trkpt>
      <trkpt lat="45.79385" lon="4.92041">
        <ele>227.04021</ele>
        <time>2023-08-27T13:20:07.000Z</time>
      </trkpt>
      <trkpt lat="45.79384" lon="4.92037">
        <ele>227.0665</ele>
        <time>2023-08-27T13:20:08.000Z</time>
      </trkpt>
      <trkpt lat="45.79383" lon="4.92032">
        <ele>227.09912</ele>
        <time>2023-08-27T13:20:09.000Z</time>
      </trkpt>
      <trkpt lat="45.79382" lon="4.92027">
        <ele>227.16402</ele>
        <time>2023-08-27T13:20:10.000Z</time>
      </trkpt>
      <trkpt lat="45.79381" lon="4.92022">
        <ele>227.22729</ele>
        <time>2023-08-27T13:20:11.000Z</time>
      </trkpt>
      <trkpt lat="45.7938" lon="4.92018">
        <ele>227.29227</ele>
        <time>2023-08-27T13:20:12.000Z</time>
      </trkpt>
      <trkpt lat="45.79379" lon="4.92013">
        <ele>227.35286</ele>
        <time>2023-08-27T13:20:13.000Z</time>
      </trkpt>
      <trkpt lat="45.79378" lon="4.92008">
        <ele>227.39841</ele>
        <time>2023-08-27T13:20:14.000Z</time>
      </trkpt>
      <trkpt lat="45.79377" lon="4.92003">
        <ele>227.44214</ele>
        <time>2023-08-27T13:20:15.000Z</time>
      </trkpt>
      <trkpt lat="45.79375" lon="4.91999">
        <ele>227.48015</ele>
        <time>2023-08-27T13:20:16.000Z</time>
      </trkpt>
      <trkpt lat="45.79374" lon="4.91994">
        <ele>227.50598</ele>
        <time>2023-08-27T13:20:17.000Z</time>
      </trkpt>
      <trkpt lat="45.79373" lon="4.9199">
        <ele>227.52437</ele>
        <time>2023-08-27T13:20:18.000Z</time>
      </trkpt>
      <trkpt lat="45.79372" lon="4.91985">
        <ele>227.51456</ele>
        <time>2023-08-27T13:20:19.000Z</time>
      </trkpt>
      <trkpt lat="45.79371" lon="4.9198">
        <ele>227.48911</ele>
        <time>2023-08-27T13:20:20.000Z</time>
      </trkpt>
      <trkpt lat="45.7937" lon="4.91975">
        <ele>227.43636</ele>
        <time>2023-08-27T13:20:21.000Z</time>
      </trkpt>
      <trkpt lat="45.79369" lon="4.9197">
        <ele>227.39432</ele>
        <time>2023-08-27T13:20:22.000Z</time>
      </trkpt>
      <trkpt lat="45.79368" lon="4.91965">
        <ele>227.36526</ele>
        <time>2023-08-27T13:20:23.000Z</time>
      </trkpt>
      <trkpt lat="45.79367" lon="4.9196">
        <ele>227.3313</ele>
        <time>2023-08-27T13:20:24.000Z</time>
      </trkpt>
      <trkpt lat="45.79366" lon="4.91955">
        <ele>227.30801</ele>
        <time>2023-08-27T13:20:25.000Z</time>
      </trkpt>
      <trkpt lat="45.79364" lon="4.9195">
        <ele>227.25879</ele>
        <time>2023-08-27T13:20:26.000Z</time>
      </trkpt>
      <trkpt lat="45.79363" lon="4.91946">
        <ele>227.18759</ele>
        <time>2023-08-27T13:20:27.000Z</time>
      </trkpt>
      <trkpt lat="45.79361" lon="4.91941">
        <ele>227.13188</ele>
        <time>2023-08-27T13:20:28.000Z</time>
      </trkpt>
      <trkpt lat="45.7936" lon="4.91936">
        <ele>227.08736</ele>
        <time>2023-08-27T13:20:29.000Z</time>
      </trkpt>
      <trkpt lat="45.79359" lon="4.91932">
        <ele>227.02705</ele>
        <time>2023-08-27T13:20:30.000Z</time>
      </trkpt>
      <trkpt lat="45.79358" lon="4.91927">
        <ele>226.97945</ele>
        <time>2023-08-27T13:20:31.000Z</time>
      </trkpt>
      <trkpt lat="45.79358" lon="4.91922">
        <ele>226.95747</ele>
        <time>2023-08-27T13:20:32.000Z</time>
      </trkpt>
      <trkpt lat="45.79357" lon="4.91917">
        <ele>226.9511</ele>
        <time>2023-08-27T13:20:33.000Z</time>
      </trkpt>
      <trkpt lat="45.79356" lon="4.91912">
        <ele>226.95825</ele>
        <time>2023-08-27T13:20:34.000Z</time>
      </trkpt>
      <trkpt lat="45.79355" lon="4.91908">
        <ele>226.94194</ele>
        <time>2023-08-27T13:20:35.000Z</time>
      </trkpt>
      <trkpt lat="45.79354" lon="4.91903">
        <ele>226.93498</ele>
        <time>2023-08-27T13:20:36.000Z</time>
      </trkpt>
      <trkpt lat="45.79353" lon="4.91899">
        <ele>226.90376</ele>
        <time>2023-08-27T13:20:37.000Z</time>
      </trkpt>
      <trkpt lat="45.79352" lon="4.91895">
        <ele>226.8605</ele>
        <time>2023-08-27T13:20:38.000Z</time>
      </trkpt>
      <trkpt lat="45.79351" lon="4.9189">
        <ele>226.84952</ele>
        <time>2023-08-27T13:20:39.000Z</time>
      </trkpt>
      <trkpt lat="45.7935" lon="4.91885">
        <ele>226.82695</ele>
        <time>2023-08-27T13:20:40.000Z</time>
      </trkpt>
      <trkpt lat="45.79349" lon="4.9188">
        <ele>226.80606</ele>
        <time>2023-08-27T13:20:41.000Z</time>
      </trkpt>
      <trkpt lat="45.79348" lon="4.91874">
        <ele>226.81543</ele>
        <time>2023-08-27T13:20:42.000Z</time>
      </trkpt>
      <trkpt lat="45.79346" lon="4.91869">
        <ele>226.80119</ele>
        <time>2023-08-27T13:20:43.000Z</time>
      </trkpt>
      <trkpt lat="45.79345" lon="4.91864">
        <ele>226.79341</ele>
        <time>2023-08-27T13:20:44.000Z</time>
      </trkpt>
      <trkpt lat="45.79343" lon="4.91859">
        <ele>226.76411</ele>
        <time>2023-08-27T13:20:45.000Z</time>
      </trkpt>
      <trkpt lat="45.79342" lon="4.91853">
        <ele>226.72119</ele>
        <time>2023-08-27T13:20:46.000Z</time>
      </trkpt>
      <trkpt lat="45.79341" lon="4.91848">
        <ele>226.7045</ele>
        <time>2023-08-27T13:20:47.000Z</time>
      </trkpt>
      <trkpt lat="45.79339" lon="4.91842">
        <ele>226.6678</ele>
        <time>2023-08-27T13:20:48.000Z</time>
      </trkpt>
      <trkpt lat="45.79338" lon="4.91837">
        <ele>226.61545</ele>
        <time>2023-08-27T13:20:49.000Z</time>
      </trkpt>
      <trkpt lat="45.79337" lon="4.91831">
        <ele>226.54874</ele>
        <time>2023-08-27T13:20:50.000Z</time>
      </trkpt>
      <trkpt lat="45.79336" lon="4.91825">
        <ele>226.4935</ele>
        <time>2023-08-27T13:20:51.000Z</time>
      </trkpt>
      <trkpt lat="45.79335" lon="4.91819">
        <ele>226.40247</ele>
        <time>2023-08-27T13:20:52.000Z</time>
      </trkpt>
      <trkpt lat="45.79333" lon="4.91813">
        <ele>226.283</ele>
        <time>2023-08-27T13:20:53.000Z</time>
      </trkpt>
      <trkpt lat="45.79331" lon="4.91807">
        <ele>226.17734</ele>
        <time>2023-08-27T13:20:54.000Z</time>
      </trkpt>
      <trkpt lat="45.7933" lon="4.91801">
        <ele>226.07358</ele>
        <time>2023-08-27T13:20:55.000Z</time>
      </trkpt>
      <trkpt lat="45.79329" lon="4.91795">
        <ele>225.98897</ele>
        <time>2023-08-27T13:20:56.000Z</time>
      </trkpt>
      <trkpt lat="45.79328" lon="4.91789">
        <ele>225.92563</ele>
        <time>2023-08-27T13:20:57.000Z</time>
      </trkpt>
      <trkpt lat="45.79326" lon="4.91783">
        <ele>225.86966</ele>
        <time>2023-08-27T13:20:58.000Z</time>
      </trkpt>
      <trkpt lat="45.79325" lon="4.91777">
        <ele>225.80704</ele>
        <time>2023-08-27T13:20:59.000Z</time>
      </trkpt>
      <trkpt lat="45.79324" lon="4.9177">
        <ele>225.76993</ele>
        <time>2023-08-27T13:21:00.000Z</time>
      </trkpt>
      <trkpt lat="45.79322" lon="4.91764">
        <ele>225.74243</ele>
        <time>2023-08-27T13:21:01.000Z</time>
      </trkpt>
      <trkpt lat="45.79321" lon="4.91758">
        <ele>225.65938</ele>
        <time>2023-08-27T13:21:02.000Z</time>
      </trkpt>
      <trkpt lat="45.7932" lon="4.91752">
        <ele>225.58232</ele>
        <time>2023-08-27T13:21:03.000Z</time>
      </trkpt>
      <trkpt lat="45.79318" lon="4.91745">
        <ele>225.50986</ele>
        <time>2023-08-27T13:21:04.000Z</time>
      </trkpt>
      <trkpt lat="45.79317" lon="4.91738">
        <ele>225.44466</ele>
        <time>2023-08-27T13:21:05.000Z</time>
      </trkpt>
      <trkpt lat="45.79315" lon="4.91732">
        <ele>225.39645</ele>
        <time>2023-08-27T13:21:06.000Z</time>
      </trkpt>
      <trkpt lat="45.79314" lon="4.91725">
        <ele>225.3541</ele>
        <time>2023-08-27T13:21:07.000Z</time>
      </trkpt>
      <trkpt lat="45.79312" lon="4.91718">
        <ele>225.26602</ele>
        <time>2023-08-27T13:21:08.000Z</time>
      </trkpt>
      <trkpt lat="45.79311" lon="4.91711">
        <ele>225.13504</ele>
        <time>2023-08-27T13:21:09.000Z</time>
      </trkpt>
      <trkpt lat="45.7931" lon="4.91704">
        <ele>225.03787</ele>
        <time>2023-08-27T13:21:10.000Z</time>
      </trkpt>
      <trkpt lat="45.7931" lon="4.91697">
        <ele>224.91159</ele>
        <time>2023-08-27T13:21:11.000Z</time>
      </trkpt>
      <trkpt lat="45.79308" lon="4.91691">
        <ele>224.80762</ele>
        <time>2023-08-27T13:21:12.000Z</time>
      </trkpt>
      <trkpt lat="45.79307" lon="4.91685">
        <ele>224.7039</ele>
        <time>2023-08-27T13:21:13.000Z</time>
      </trkpt>
      <trkpt lat="45.79306" lon="4.91678">
        <ele>224.55876</ele>
        <time>2023-08-27T13:21:14.000Z</time>
      </trkpt>
      <trkpt lat="45.79306" lon="4.91672">
        <ele>224.39973</ele>
        <time>2023-08-27T13:21:15.000Z</time>
      </trkpt>
      <trkpt lat="45.79304" lon="4.91666">
        <ele>224.26938</ele>
        <time>2023-08-27T13:21:16.000Z</time>
      </trkpt>
      <trkpt lat="45.79303" lon="4.91659">
        <ele>224.13553</ele>
        <time>2023-08-27T13:21:17.000Z</time>
      </trkpt>
      <trkpt lat="45.79301" lon="4.91652">
        <ele>224.03223</ele>
        <time>2023-08-27T13:21:18.000Z</time>
      </trkpt>
      <trkpt lat="45.793" lon="4.91646">
        <ele>223.91565</ele>
        <time>2023-08-27T13:21:19.000Z</time>
      </trkpt>
      <trkpt lat="45.79298" lon="4.91639">
        <ele>223.80193</ele>
        <time>2023-08-27T13:21:20.000Z</time>
      </trkpt>
      <trkpt lat="45.79295" lon="4.91633">
        <ele>223.74678</ele>
        <time>2023-08-27T13:21:21.000Z</time>
      </trkpt>
      <trkpt lat="45.79294" lon="4.91627">
        <ele>223.71013</ele>
        <time>2023-08-27T13:21:22.000Z</time>
      </trkpt>
      <trkpt lat="45.79291" lon="4.91621">
        <ele>223.69719</ele>
        <time>2023-08-27T13:21:23.000Z</time>
      </trkpt>
      <trkpt lat="45.7929" lon="4.91616">
        <ele>223.68144</ele>
        <time>2023-08-27T13:21:24.000Z</time>
      </trkpt>
      <trkpt lat="45.79289" lon="4.91609">
        <ele>223.66458</ele>
        <time>2023-08-27T13:21:25.000Z</time>
      </trkpt>
      <trkpt lat="45.79288" lon="4.91603">
        <ele>223.66678</ele>
        <time>2023-08-27T13:21:26.000Z</time>
      </trkpt>
      <trkpt lat="45.79288" lon="4.91597">
        <ele>223.65405</ele>
        <time>2023-08-27T13:21:27.000Z</time>
      </trkpt>
      <trkpt lat="45.79286" lon="4.91591">
        <ele>223.65471</ele>
        <time>2023-08-27T13:21:28.000Z</time>
      </trkpt>
      <trkpt lat="45.79285" lon="4.91586">
        <ele>223.70773</ele>
        <time>2023-08-27T13:21:29.000Z</time>
      </trkpt>
      <trkpt lat="45.79284" lon="4.91582">
        <ele>223.75781</ele>
        <time>2023-08-27T13:21:30.000Z</time>
      </trkpt>
      <trkpt lat="45.79282" lon="4.91576">
        <ele>223.84851</ele>
        <time>2023-08-27T13:21:31.000Z</time>
      </trkpt>
      <trkpt lat="45.79281" lon="4.91571">
        <ele>223.92256</ele>
        <time>2023-08-27T13:21:32.000Z</time>
      </trkpt>
      <trkpt lat="45.7928" lon="4.91566">
        <ele>224.00981</ele>
        <time>2023-08-27T13:21:33.000Z</time>
      </trkpt>
      <trkpt lat="45.79279" lon="4.9156">
        <ele>224.12065</ele>
        <time>2023-08-27T13:21:34.000Z</time>
      </trkpt>
      <trkpt lat="45.79279" lon="4.91555">
        <ele>224.25711</ele>
        <time>2023-08-27T13:21:35.000Z</time>
      </trkpt>
      <trkpt lat="45.79278" lon="4.91549">
        <ele>224.33914</ele>
        <time>2023-08-27T13:21:36.000Z</time>
      </trkpt>
      <trkpt lat="45.79277" lon="4.91543">
        <ele>224.40674</ele>
        <time>2023-08-27T13:21:37.000Z</time>
      </trkpt>
      <trkpt lat="45.79276" lon="4.91538">
        <ele>224.46201</ele>
        <time>2023-08-27T13:21:38.000Z</time>
      </trkpt>
      <trkpt lat="45.79274" lon="4.91532">
        <ele>224.54268</ele>
        <time>2023-08-27T13:21:39.000Z</time>
      </trkpt>
      <trkpt lat="45.79273" lon="4.91527">
        <ele>224.61809</ele>
        <time>2023-08-27T13:21:40.000Z</time>
      </trkpt>
      <trkpt lat="45.79272" lon="4.91522">
        <ele>224.62312</ele>
        <time>2023-08-27T13:21:41.000Z</time>
      </trkpt>
      <trkpt lat="45.7927" lon="4.91516">
        <ele>224.65527</ele>
        <time>2023-08-27T13:21:42.000Z</time>
      </trkpt>
      <trkpt lat="45.79269" lon="4.91511">
        <ele>224.68167</ele>
        <time>2023-08-27T13:21:43.000Z</time>
      </trkpt>
      <trkpt lat="45.79267" lon="4.91506">
        <ele>224.70032</ele>
        <time>2023-08-27T13:21:44.000Z</time>
      </trkpt>
      <trkpt lat="45.79266" lon="4.915">
        <ele>224.7175</ele>
        <time>2023-08-27T13:21:45.000Z</time>
      </trkpt>
      <trkpt lat="45.79264" lon="4.91495">
        <ele>224.71585</ele>
        <time>2023-08-27T13:21:46.000Z</time>
      </trkpt>
      <trkpt lat="45.79262" lon="4.91489">
        <ele>224.71346</ele>
        <time>2023-08-27T13:21:47.000Z</time>
      </trkpt>
      <trkpt lat="45.79261" lon="4.91484">
        <ele>224.77286</ele>
        <time>2023-08-27T13:21:48.000Z</time>
      </trkpt>
      <trkpt lat="45.79259" lon="4.91479">
        <ele>224.84973</ele>
        <time>2023-08-27T13:21:49.000Z</time>
      </trkpt>
      <trkpt lat="45.79257" lon="4.91473">
        <ele>224.90552</ele>
        <time>2023-08-27T13:21:50.000Z</time>
      </trkpt>
      <trkpt lat="45.79255" lon="4.91468">
        <ele>224.91972</ele>
        <time>2023-08-27T13:21:51.000Z</time>
      </trkpt>
      <trkpt lat="45.79253" lon="4.91462">
        <ele>224.95505</ele>
        <time>2023-08-27T13:21:52.000Z</time>
      </trkpt>
      <trkpt lat="45.79251" lon="4.91456">
        <ele>224.99687</ele>
        <time>2023-08-27T13:21:53.000Z</time>
      </trkpt>
      <trkpt lat="45.7925" lon="4.9145">
        <ele>225.01973</ele>
        <time>2023-08-27T13:21:54.000Z</time>
      </trkpt>
      <trkpt lat="45.79248" lon="4.91444">
        <ele>225.02283</ele>
        <time>2023-08-27T13:21:55.000Z</time>
      </trkpt>
      <trkpt lat="45.79247" lon="4.91438">
        <ele>225.02719</ele>
        <time>2023-08-27T13:21:56.000Z</time>
      </trkpt>
      <trkpt lat="45.79246" lon="4.91432">
        <ele>225.06967</ele>
        <time>2023-08-27T13:21:57.000Z</time>
      </trkpt>
      <trkpt lat="45.79244" lon="4.91426">
        <ele>225.09822</ele>
        <time>2023-08-27T13:21:58.000Z</time>
      </trkpt>
      <trkpt lat="45.79243" lon="4.9142">
        <ele>225.11394</ele>
        <time>2023-08-27T13:21:59.000Z</time>
      </trkpt>
      <trkpt lat="45.79242" lon="4.91414">
        <ele>225.11577</ele>
        <time>2023-08-27T13:22:00.000Z</time>
      </trkpt>
      <trkpt lat="45.79241" lon="4.91408">
        <ele>225.12717</ele>
        <time>2023-08-27T13:22:01.000Z</time>
      </trkpt>
      <trkpt lat="45.7924" lon="4.91402">
        <ele>225.13028</ele>
        <time>2023-08-27T13:22:02.000Z</time>
      </trkpt>
      <trkpt lat="45.79238" lon="4.91396">
        <ele>225.13261</ele>
        <time>2023-08-27T13:22:03.000Z</time>
      </trkpt>
      <trkpt lat="45.79237" lon="4.9139">
        <ele>225.15366</ele>
        <time>2023-08-27T13:22:04.000Z</time>
      </trkpt>
      <trkpt lat="45.79236" lon="4.91384">
        <ele>225.18307</ele>
        <time>2023-08-27T13:22:05.000Z</time>
      </trkpt>
      <trkpt lat="45.79235" lon="4.91379">
        <ele>225.21297</ele>
        <time>2023-08-27T13:22:06.000Z</time>
      </trkpt>
      <trkpt lat="45.79233" lon="4.91373">
        <ele>225.2648</ele>
        <time>2023-08-27T13:22:07.000Z</time>
      </trkpt>
      <trkpt lat="45.79231" lon="4.91367">
        <ele>225.27495</ele>
        <time>2023-08-27T13:22:08.000Z</time>
      </trkpt>
      <trkpt lat="45.7923" lon="4.91362">
        <ele>225.26892</ele>
        <time>2023-08-27T13:22:09.000Z</time>
      </trkpt>
      <trkpt lat="45.79228" lon="4.91356">
        <ele>225.29024</ele>
        <time>2023-08-27T13:22:10.000Z</time>
      </trkpt>
      <trkpt lat="45.79227" lon="4.91351">
        <ele>225.31644</ele>
        <time>2023-08-27T13:22:11.000Z</time>
      </trkpt>
      <trkpt lat="45.79225" lon="4.91345">
        <ele>225.34604</ele>
        <time>2023-08-27T13:22:12.000Z</time>
      </trkpt>
      <trkpt lat="45.79224" lon="4.91339">
        <ele>225.34175</ele>
        <time>2023-08-27T13:22:13.000Z</time>
      </trkpt>
      <trkpt lat="45.79222" lon="4.91333">
        <ele>225.35727</ele>
        <time>2023-08-27T13:22:14.000Z</time>
      </trkpt>
      <trkpt lat="45.79221" lon="4.91328">
        <ele>225.41531</ele>
        <time>2023-08-27T13:22:15.000Z</time>
      </trkpt>
      <trkpt lat="45.79219" lon="4.91322">
        <ele>225.51199</ele>
        <time>2023-08-27T13:22:16.000Z</time>
      </trkpt>
      <trkpt lat="45.79217" lon="4.91317">
        <ele>225.60837</ele>
        <time>2023-08-27T13:22:17.000Z</time>
      </trkpt>
      <trkpt lat="45.79217" lon="4.91312">
        <ele>225.7122</ele>
        <time>2023-08-27T13:22:18.000Z</time>
      </trkpt>
      <trkpt lat="45.79216" lon="4.91305">
        <ele>225.78757</ele>
        <time>2023-08-27T13:22:19.000Z</time>
      </trkpt>
      <trkpt lat="45.79215" lon="4.91299">
        <ele>225.83736</ele>
        <time>2023-08-27T13:22:20.000Z</time>
      </trkpt>
      <trkpt lat="45.79212" lon="4.91293">
        <ele>225.88843</ele>
        <time>2023-08-27T13:22:21.000Z</time>
      </trkpt>
      <trkpt lat="45.79211" lon="4.91288">
        <ele>225.95016</ele>
        <time>2023-08-27T13:22:22.000Z</time>
      </trkpt>
      <trkpt lat="45.7921" lon="4.91282">
        <ele>226.01045</ele>
        <time>2023-08-27T13:22:23.000Z</time>
      </trkpt>
      <trkpt lat="45.79208" lon="4.91276">
        <ele>226.05798</ele>
        <time>2023-08-27T13:22:24.000Z</time>
      </trkpt>
      <trkpt lat="45.79206" lon="4.9127">
        <ele>226.10881</ele>
        <time>2023-08-27T13:22:25.000Z</time>
      </trkpt>
      <trkpt lat="45.79205" lon="4.91265">
        <ele>226.15585</ele>
        <time>2023-08-27T13:22:26.000Z</time>
      </trkpt>
      <trkpt lat="45.79203" lon="4.91259">
        <ele>226.1886</ele>
        <time>2023-08-27T13:22:27.000Z</time>
      </trkpt>
      <trkpt lat="45.79202" lon="4.91253">
        <ele>226.24919</ele>
        <time>2023-08-27T13:22:28.000Z</time>
      </trkpt>
      <trkpt lat="45.79201" lon="4.91247">
        <ele>226.29965</ele>
        <time>2023-08-27T13:22:29.000Z</time>
      </trkpt>
      <trkpt lat="45.792" lon="4.91241">
        <ele>226.36206</ele>
        <time>2023-08-27T13:22:30.000Z</time>
      </trkpt>
      <trkpt lat="45.79198" lon="4.91235">
        <ele>226.44006</ele>
        <time>2023-08-27T13:22:31.000Z</time>
      </trkpt>
      <trkpt lat="45.79196" lon="4.91229">
        <ele>226.47632</ele>
        <time>2023-08-27T13:22:32.000Z</time>
      </trkpt>
      <trkpt lat="45.79195" lon="4.91223">
        <ele>226.54707</ele>
        <time>2023-08-27T13:22:33.000Z</time>
      </trkpt>
      <trkpt lat="45.79193" lon="4.91218">
        <ele>226.60229</ele>
        <time>2023-08-27T13:22:34.000Z</time>
      </trkpt>
      <trkpt lat="45.79191" lon="4.91212">
        <ele>226.61636</ele>
        <time>2023-08-27T13:22:35.000Z</time>
      </trkpt>
      <trkpt lat="45.7919" lon="4.91206">
        <ele>226.58255</ele>
        <time>2023-08-27T13:22:36.000Z</time>
      </trkpt>
      <trkpt lat="45.7919" lon="4.91199">
        <ele>226.52534</ele>
        <time>2023-08-27T13:22:37.000Z</time>
      </trkpt>
      <trkpt lat="45.79188" lon="4.91193">
        <ele>226.4445</ele>
        <time>2023-08-27T13:22:38.000Z</time>
      </trkpt>
      <trkpt lat="45.79187" lon="4.91188">
        <ele>226.40994</ele>
        <time>2023-08-27T13:22:39.000Z</time>
      </trkpt>
      <trkpt lat="45.79185" lon="4.91181">
        <ele>226.4108</ele>
        <time>2023-08-27T13:22:40.000Z</time>
      </trkpt>
      <trkpt lat="45.79184" lon="4.91175">
        <ele>226.41934</ele>
        <time>2023-08-27T13:22:41.000Z</time>
      </trkpt>
      <trkpt lat="45.79182" lon="4.91168">
        <ele>226.40634</ele>
        <time>2023-08-27T13:22:42.000Z</time>
      </trkpt>
      <trkpt lat="45.7918" lon="4.91161">
        <ele>226.38969</ele>
        <time>2023-08-27T13:22:43.000Z</time>
      </trkpt>
      <trkpt lat="45.79178" lon="4.91155">
        <ele>226.36726</ele>
        <time>2023-08-27T13:22:44.000Z</time>
      </trkpt>
      <trkpt lat="45.79177" lon="4.91148">
        <ele>226.34956</ele>
        <time>2023-08-27T13:22:45.000Z</time>
      </trkpt>
      <trkpt lat="45.79175" lon="4.91141">
        <ele>226.2998</ele>
        <time>2023-08-27T13:22:46.000Z</time>
      </trkpt>
      <trkpt lat="45.79173" lon="4.91135">
        <ele>226.2659</ele>
        <time>2023-08-27T13:22:47.000Z</time>
      </trkpt>
      <trkpt lat="45.79172" lon="4.91128">
        <ele>226.20638</ele>
        <time>2023-08-27T13:22:48.000Z</time>
      </trkpt>
      <trkpt lat="45.7917" lon="4.91122">
        <ele>226.14841</ele>
        <time>2023-08-27T13:22:49.000Z</time>
      </trkpt>
      <trkpt lat="45.79169" lon="4.91115">
        <ele>226.04843</ele>
        <time>2023-08-27T13:22:50.000Z</time>
      </trkpt>
      <trkpt lat="45.79167" lon="4.91109">
        <ele>225.92278</ele>
        <time>2023-08-27T13:22:51.000Z</time>
      </trkpt>
      <trkpt lat="45.79168" lon="4.91102">
        <ele>225.7886</ele>
        <time>2023-08-27T13:22:52.000Z</time>
      </trkpt>
      <trkpt lat="45.79166" lon="4.91096">
        <ele>225.65405</ele>
        <time>2023-08-27T13:22:53.000Z</time>
      </trkpt>
      <trkpt lat="45.79164" lon="4.91091">
        <ele>225.54175</ele>
        <time>2023-08-27T13:22:54.000Z</time>
      </trkpt>
      <trkpt lat="45.79163" lon="4.91085">
        <ele>225.42607</ele>
        <time>2023-08-27T13:22:55.000Z</time>
      </trkpt>
      <trkpt lat="45.79162" lon="4.9108">
        <ele>225.33076</ele>
        <time>2023-08-27T13:22:56.000Z</time>
      </trkpt>
      <trkpt lat="45.79161" lon="4.91074">
        <ele>225.23833</ele>
        <time>2023-08-27T13:22:57.000Z</time>
      </trkpt>
      <trkpt lat="45.7916" lon="4.91069">
        <ele>225.19446</ele>
        <time>2023-08-27T13:22:58.000Z</time>
      </trkpt>
      <trkpt lat="45.79159" lon="4.91063">
        <ele>225.15523</ele>
        <time>2023-08-27T13:22:59.000Z</time>
      </trkpt>
      <trkpt lat="45.79158" lon="4.91058">
        <ele>225.12679</ele>
        <time>2023-08-27T13:23:00.000Z</time>
      </trkpt>
      <trkpt lat="45.79156" lon="4.91053">
        <ele>225.10262</ele>
        <time>2023-08-27T13:23:01.000Z</time>
      </trkpt>
      <trkpt lat="45.79156" lon="4.91047">
        <ele>225.0562</ele>
        <time>2023-08-27T13:23:02.000Z</time>
      </trkpt>
      <trkpt lat="45.79154" lon="4.91042">
        <ele>225.0114</ele>
        <time>2023-08-27T13:23:03.000Z</time>
      </trkpt>
      <trkpt lat="45.79153" lon="4.91037">
        <ele>224.94893</ele>
        <time>2023-08-27T13:23:04.000Z</time>
      </trkpt>
      <trkpt lat="45.79152" lon="4.91032">
        <ele>224.89563</ele>
        <time>2023-08-27T13:23:05.000Z</time>
      </trkpt>
      <trkpt lat="45.79151" lon="4.91026">
        <ele>224.89912</ele>
        <time>2023-08-27T13:23:06.000Z</time>
      </trkpt>
      <trkpt lat="45.7915" lon="4.91022">
        <ele>224.88391</ele>
        <time>2023-08-27T13:23:07.000Z</time>
      </trkpt>
      <trkpt lat="45.79149" lon="4.91017">
        <ele>224.94368</ele>
        <time>2023-08-27T13:23:08.000Z</time>
      </trkpt>
      <trkpt lat="45.79148" lon="4.91011">
        <ele>225.02214</ele>
        <time>2023-08-27T13:23:09.000Z</time>
      </trkpt>
      <trkpt lat="45.79147" lon="4.91006">
        <ele>225.15422</ele>
        <time>2023-08-27T13:23:10.000Z</time>
      </trkpt>
      <trkpt lat="45.79145" lon="4.91002">
        <ele>225.31721</ele>
        <time>2023-08-27T13:23:11.000Z</time>
      </trkpt>
      <trkpt lat="45.79143" lon="4.90997">
        <ele>225.55513</ele>
        <time>2023-08-27T13:23:12.000Z</time>
      </trkpt>
      <trkpt lat="45.79141" lon="4.90992">
        <ele>225.78023</ele>
        <time>2023-08-27T13:23:13.000Z</time>
      </trkpt>
      <trkpt lat="45.7914" lon="4.90986">
        <ele>226.00137</ele>
        <time>2023-08-27T13:23:14.000Z</time>
      </trkpt>
      <trkpt lat="45.79138" lon="4.90981">
        <ele>226.2646</ele>
        <time>2023-08-27T13:23:15.000Z</time>
      </trkpt>
      <trkpt lat="45.79136" lon="4.90975">
        <ele>226.51962</ele>
        <time>2023-08-27T13:23:16.000Z</time>
      </trkpt>
      <trkpt lat="45.79135" lon="4.9097">
        <ele>226.79683</ele>
        <time>2023-08-27T13:23:17.000Z</time>
      </trkpt>
      <trkpt lat="45.79134" lon="4.90964">
        <ele>226.99307</ele>
        <time>2023-08-27T13:23:18.000Z</time>
      </trkpt>
      <trkpt lat="45.79132" lon="4.90958">
        <ele>227.14902</ele>
        <time>2023-08-27T13:23:19.000Z</time>
      </trkpt>
      <trkpt lat="45.79131" lon="4.90952">
        <ele>227.25566</ele>
        <time>2023-08-27T13:23:20.000Z</time>
      </trkpt>
      <trkpt lat="45.7913" lon="4.90946">
        <ele>227.354</ele>
        <time>2023-08-27T13:23:21.000Z</time>
      </trkpt>
      <trkpt lat="45.79129" lon="4.90941">
        <ele>227.4814</ele>
        <time>2023-08-27T13:23:22.000Z</time>
      </trkpt>
      <trkpt lat="45.79128" lon="4.90935">
        <ele>227.58662</ele>
        <time>2023-08-27T13:23:23.000Z</time>
      </trkpt>
      <trkpt lat="45.79127" lon="4.90929">
        <ele>227.69775</ele>
        <time>2023-08-27T13:23:24.000Z</time>
      </trkpt>
      <trkpt lat="45.79125" lon="4.9092">
        <ele>227.80737</ele>
        <time>2023-08-27T13:23:25.000Z</time>
      </trkpt>
      <trkpt lat="45.79123" lon="4.90914">
        <ele>227.87387</ele>
        <time>2023-08-27T13:23:26.000Z</time>
      </trkpt>
      <trkpt lat="45.79121" lon="4.90908">
        <ele>227.9864</ele>
        <time>2023-08-27T13:23:27.000Z</time>
      </trkpt>
      <trkpt lat="45.7912" lon="4.90902">
        <ele>228.06013</ele>
        <time>2023-08-27T13:23:28.000Z</time>
      </trkpt>
      <trkpt lat="45.79119" lon="4.90897">
        <ele>228.11972</ele>
        <time>2023-08-27T13:23:29.000Z</time>
      </trkpt>
      <trkpt lat="45.79118" lon="4.90891">
        <ele>228.15341</ele>
        <time>2023-08-27T13:23:30.000Z</time>
      </trkpt>
      <trkpt lat="45.79117" lon="4.90886">
        <ele>228.14294</ele>
        <time>2023-08-27T13:23:31.000Z</time>
      </trkpt>
      <trkpt lat="45.79116" lon="4.90879">
        <ele>228.09917</ele>
        <time>2023-08-27T13:23:32.000Z</time>
      </trkpt>
      <trkpt lat="45.79115" lon="4.90874">
        <ele>228.09619</ele>
        <time>2023-08-27T13:23:33.000Z</time>
      </trkpt>
      <trkpt lat="45.79114" lon="4.90868">
        <ele>228.08662</ele>
        <time>2023-08-27T13:23:34.000Z</time>
      </trkpt>
      <trkpt lat="45.79114" lon="4.90862">
        <ele>228.04752</ele>
        <time>2023-08-27T13:23:35.000Z</time>
      </trkpt>
      <trkpt lat="45.79113" lon="4.90856">
        <ele>228.00827</ele>
        <time>2023-08-27T13:23:36.000Z</time>
      </trkpt>
      <trkpt lat="45.79112" lon="4.9085">
        <ele>227.93185</ele>
        <time>2023-08-27T13:23:37.000Z</time>
      </trkpt>
      <trkpt lat="45.79112" lon="4.90843">
        <ele>227.91817</ele>
        <time>2023-08-27T13:23:38.000Z</time>
      </trkpt>
      <trkpt lat="45.7911" lon="4.90837">
        <ele>227.90958</ele>
        <time>2023-08-27T13:23:39.000Z</time>
      </trkpt>
      <trkpt lat="45.79109" lon="4.90832">
        <ele>227.9333</ele>
        <time>2023-08-27T13:23:40.000Z</time>
      </trkpt>
      <trkpt lat="45.79108" lon="4.90825">
        <ele>227.9491</ele>
        <time>2023-08-27T13:23:41.000Z</time>
      </trkpt>
      <trkpt lat="45.79108" lon="4.90819">
        <ele>227.93184</ele>
        <time>2023-08-27T13:23:42.000Z</time>
      </trkpt>
      <trkpt lat="45.79108" lon="4.90813">
        <ele>227.92937</ele>
        <time>2023-08-27T13:23:43.000Z</time>
      </trkpt>
      <trkpt lat="45.79108" lon="4.90806">
        <ele>227.93584</ele>
        <time>2023-08-27T13:23:44.000Z</time>
      </trkpt>
      <trkpt lat="45.79108" lon="4.908">
        <ele>227.9071</ele>
        <time>2023-08-27T13:23:45.000Z</time>
      </trkpt>
      <trkpt lat="45.79109" lon="4.90794">
        <ele>227.88611</ele>
        <time>2023-08-27T13:23:46.000Z</time>
      </trkpt>
      <trkpt lat="45.79109" lon="4.90788">
        <ele>227.83247</ele>
        <time>2023-08-27T13:23:47.000Z</time>
      </trkpt>
      <trkpt lat="45.79109" lon="4.90781">
        <ele>227.76981</ele>
        <time>2023-08-27T13:23:48.000Z</time>
      </trkpt>
      <trkpt lat="45.79109" lon="4.90775">
        <ele>227.71086</ele>
        <time>2023-08-27T13:23:49.000Z</time>
      </trkpt>
      <trkpt lat="45.7911" lon="4.90769">
        <ele>227.65755</ele>
        <time>2023-08-27T13:23:50.000Z</time>
      </trkpt>
      <trkpt lat="45.79111" lon="4.90763">
        <ele>227.63541</ele>
        <time>2023-08-27T13:23:51.000Z</time>
      </trkpt>
      <trkpt lat="45.79111" lon="4.90757">
        <ele>227.59419</ele>
        <time>2023-08-27T13:23:52.000Z</time>
      </trkpt>
      <trkpt lat="45.79112" lon="4.90751">
        <ele>227.51765</ele>
        <time>2023-08-27T13:23:53.000Z</time>
      </trkpt>
      <trkpt lat="45.79112" lon="4.90746">
        <ele>227.41411</ele>
        <time>2023-08-27T13:23:54.000Z</time>
      </trkpt>
      <trkpt lat="45.79113" lon="4.90739">
        <ele>227.29068</ele>
        <time>2023-08-27T13:23:55.000Z</time>
      </trkpt>
      <trkpt lat="45.79113" lon="4.90733">
        <ele>227.17529</ele>
        <time>2023-08-27T13:23:56.000Z</time>
      </trkpt>
      <trkpt lat="45.79114" lon="4.90727">
        <ele>227.07681</ele>
        <time>2023-08-27T13:23:57.000Z</time>
      </trkpt>
      <trkpt lat="45.79114" lon="4.90721">
        <ele>226.9537</ele>
        <time>2023-08-27T13:23:58.000Z</time>
      </trkpt>
      <trkpt lat="45.79115" lon="4.90715">
        <ele>226.8311</ele>
        <time>2023-08-27T13:23:59.000Z</time>
      </trkpt>
      <trkpt lat="45.79116" lon="4.90709">
        <ele>226.69205</ele>
        <time>2023-08-27T13:24:00.000Z</time>
      </trkpt>
      <trkpt lat="45.79116" lon="4.90703">
        <ele>226.56868</ele>
        <time>2023-08-27T13:24:01.000Z</time>
      </trkpt>
      <trkpt lat="45.79116" lon="4.90697">
        <ele>226.48283</ele>
        <time>2023-08-27T13:24:02.000Z</time>
      </trkpt>
      <trkpt lat="45.79117" lon="4.9069">
        <ele>226.42058</ele>
        <time>2023-08-27T13:24:03.000Z</time>
      </trkpt>
      <trkpt lat="45.79118" lon="4.90684">
        <ele>226.37076</ele>
        <time>2023-08-27T13:24:04.000Z</time>
      </trkpt>
      <trkpt lat="45.79118" lon="4.90678">
        <ele>226.33601</ele>
        <time>2023-08-27T13:24:05.000Z</time>
      </trkpt>
      <trkpt lat="45.79119" lon="4.90671">
        <ele>226.30574</ele>
        <time>2023-08-27T13:24:06.000Z</time>
      </trkpt>
      <trkpt lat="45.7912" lon="4.90665">
        <ele>226.25806</ele>
        <time>2023-08-27T13:24:07.000Z</time>
      </trkpt>
      <trkpt lat="45.79121" lon="4.90659">
        <ele>226.20859</ele>
        <time>2023-08-27T13:24:08.000Z</time>
      </trkpt>
      <trkpt lat="45.79121" lon="4.90653">
        <ele>226.15034</ele>
        <time>2023-08-27T13:24:09.000Z</time>
      </trkpt>
      <trkpt lat="45.79122" lon="4.90647">
        <ele>226.08366</ele>
        <time>2023-08-27T13:24:10.000Z</time>
      </trkpt>
      <trkpt lat="45.79123" lon="4.90642">
        <ele>226.04671</ele>
        <time>2023-08-27T13:24:11.000Z</time>
      </trkpt>
      <trkpt lat="45.79124" lon="4.90636">
        <ele>225.99451</ele>
        <time>2023-08-27T13:24:12.000Z</time>
      </trkpt>
      <trkpt lat="45.79124" lon="4.90629">
        <ele>225.93103</ele>
        <time>2023-08-27T13:24:13.000Z</time>
      </trkpt>
      <trkpt lat="45.79125" lon="4.90624">
        <ele>225.89005</ele>
        <time>2023-08-27T13:24:14.000Z</time>
      </trkpt>
      <trkpt lat="45.79125" lon="4.90618">
        <ele>225.88571</ele>
        <time>2023-08-27T13:24:15.000Z</time>
      </trkpt>
      <trkpt lat="45.79127" lon="4.90612">
        <ele>225.87061</ele>
        <time>2023-08-27T13:24:16.000Z</time>
      </trkpt>
      <trkpt lat="45.79128" lon="4.90607">
        <ele>225.78491</ele>
        <time>2023-08-27T13:24:17.000Z</time>
      </trkpt>
      <trkpt lat="45.79129" lon="4.906">
        <ele>225.73364</ele>
        <time>2023-08-27T13:24:18.000Z</time>
      </trkpt>
      <trkpt lat="45.79129" lon="4.90595">
        <ele>225.73238</ele>
        <time>2023-08-27T13:24:19.000Z</time>
      </trkpt>
      <trkpt lat="45.7913" lon="4.9059">
        <ele>225.75932</ele>
        <time>2023-08-27T13:24:20.000Z</time>
      </trkpt>
      <trkpt lat="45.7913" lon="4.90584">
        <ele>225.80991</ele>
        <time>2023-08-27T13:24:21.000Z</time>
      </trkpt>
      <trkpt lat="45.79131" lon="4.9058">
        <ele>225.8623</ele>
        <time>2023-08-27T13:24:22.000Z</time>
      </trkpt>
      <trkpt lat="45.79132" lon="4.90573">
        <ele>225.88193</ele>
        <time>2023-08-27T13:24:23.000Z</time>
      </trkpt>
      <trkpt lat="45.79132" lon="4.90567">
        <ele>225.88309</ele>
        <time>2023-08-27T13:24:24.000Z</time>
      </trkpt>
      <trkpt lat="45.79132" lon="4.90561">
        <ele>225.88028</ele>
        <time>2023-08-27T13:24:25.000Z</time>
      </trkpt>
      <trkpt lat="45.79133" lon="4.90555">
        <ele>225.88681</ele>
        <time>2023-08-27T13:24:26.000Z</time>
      </trkpt>
      <trkpt lat="45.79133" lon="4.90549">
        <ele>225.89445</ele>
        <time>2023-08-27T13:24:27.000Z</time>
      </trkpt>
      <trkpt lat="45.79135" lon="4.90543">
        <ele>225.8894</ele>
        <time>2023-08-27T13:24:28.000Z</time>
      </trkpt>
      <trkpt lat="45.79135" lon="4.90537">
        <ele>225.8627</ele>
        <time>2023-08-27T13:24:29.000Z</time>
      </trkpt>
      <trkpt lat="45.79136" lon="4.90531">
        <ele>225.82065</ele>
        <time>2023-08-27T13:24:30.000Z</time>
      </trkpt>
      <trkpt lat="45.79136" lon="4.90525">
        <ele>225.7363</ele>
        <time>2023-08-27T13:24:31.000Z</time>
      </trkpt>
      <trkpt lat="45.79136" lon="4.90519">
        <ele>225.67383</ele>
        <time>2023-08-27T13:24:32.000Z</time>
      </trkpt>
      <trkpt lat="45.79136" lon="4.90513">
        <ele>225.58655</ele>
        <time>2023-08-27T13:24:33.000Z</time>
      </trkpt>
      <trkpt lat="45.79137" lon="4.90507">
        <ele>225.52242</ele>
        <time>2023-08-27T13:24:34.000Z</time>
      </trkpt>
      <trkpt lat="45.79137" lon="4.90501">
        <ele>225.48193</ele>
        <time>2023-08-27T13:24:35.000Z</time>
      </trkpt>
      <trkpt lat="45.79137" lon="4.90496">
        <ele>225.46379</ele>
        <time>2023-08-27T13:24:36.000Z</time>
      </trkpt>
      <trkpt lat="45.79137" lon="4.9049">
        <ele>225.47392</ele>
        <time>2023-08-27T13:24:37.000Z</time>
      </trkpt>
      <trkpt lat="45.79138" lon="4.90484">
        <ele>225.42899</ele>
        <time>2023-08-27T13:24:38.000Z</time>
      </trkpt>
      <trkpt lat="45.79138" lon="4.90479">
        <ele>225.36465</ele>
        <time>2023-08-27T13:24:39.000Z</time>
      </trkpt>
      <trkpt lat="45.79138" lon="4.90473">
        <ele>225.30737</ele>
        <time>2023-08-27T13:24:40.000Z</time>
      </trkpt>
      <trkpt lat="45.79138" lon="4.90467">
        <ele>225.21858</ele>
        <time>2023-08-27T13:24:41.000Z</time>
      </trkpt>
      <trkpt lat="45.79138" lon="4.90461">
        <ele>225.14844</ele>
        <time>2023-08-27T13:24:42.000Z</time>
      </trkpt>
      <trkpt lat="45.79137" lon="4.90455">
        <ele>225.09512</ele>
        <time>2023-08-27T13:24:43.000Z</time>
      </trkpt>
      <trkpt lat="45.79136" lon="4.90449">
        <ele>225.03763</ele>
        <time>2023-08-27T13:24:44.000Z</time>
      </trkpt>
      <trkpt lat="45.79135" lon="4.90444">
        <ele>224.99698</ele>
        <time>2023-08-27T13:24:45.000Z</time>
      </trkpt>
      <trkpt lat="45.79134" lon="4.90439">
        <ele>224.96231</ele>
        <time>2023-08-27T13:24:46.000Z</time>
      </trkpt>
      <trkpt lat="45.79134" lon="4.90433">
        <ele>224.82529</ele>
        <time>2023-08-27T13:24:47.000Z</time>
      </trkpt>
      <trkpt lat="45.79133" lon="4.90427">
        <ele>224.70297</ele>
        <time>2023-08-27T13:24:48.000Z</time>
      </trkpt>
      <trkpt lat="45.79132" lon="4.90421">
        <ele>224.60831</ele>
        <time>2023-08-27T13:24:49.000Z</time>
      </trkpt>
      <trkpt lat="45.79131" lon="4.90415">
        <ele>224.49527</ele>
        <time>2023-08-27T13:24:50.000Z</time>
      </trkpt>
      <trkpt lat="45.7913" lon="4.90408">
        <ele>224.39758</ele>
        <time>2023-08-27T13:24:51.000Z</time>
      </trkpt>
      <trkpt lat="45.79129" lon="4.90403">
        <ele>224.25204</ele>
        <time>2023-08-27T13:24:52.000Z</time>
      </trkpt>
      <trkpt lat="45.79128" lon="4.90397">
        <ele>224.12204</ele>
        <time>2023-08-27T13:24:53.000Z</time>
      </trkpt>
      <trkpt lat="45.79127" lon="4.9039">
        <ele>223.99191</ele>
        <time>2023-08-27T13:24:54.000Z</time>
      </trkpt>
      <trkpt lat="45.79125" lon="4.90384">
        <ele>223.84119</ele>
        <time>2023-08-27T13:24:55.000Z</time>
      </trkpt>
      <trkpt lat="45.79121" lon="4.90377">
        <ele>223.65669</ele>
        <time>2023-08-27T13:24:56.000Z</time>
      </trkpt>
      <trkpt lat="45.7912" lon="4.90372">
        <ele>223.51328</ele>
        <time>2023-08-27T13:24:57.000Z</time>
      </trkpt>
      <trkpt lat="45.79118" lon="4.90366">
        <ele>223.44287</ele>
        <time>2023-08-27T13:24:58.000Z</time>
      </trkpt>
      <trkpt lat="45.79117" lon="4.90361">
        <ele>223.35625</ele>
        <time>2023-08-27T13:24:59.000Z</time>
      </trkpt>
      <trkpt lat="45.79115" lon="4.90355">
        <ele>223.28458</ele>
        <time>2023-08-27T13:25:00.000Z</time>
      </trkpt>
      <trkpt lat="45.79114" lon="4.90349">
        <ele>223.18701</ele>
        <time>2023-08-27T13:25:01.000Z</time>
      </trkpt>
      <trkpt lat="45.79112" lon="4.90343">
        <ele>223.06528</ele>
        <time>2023-08-27T13:25:02.000Z</time>
      </trkpt>
      <trkpt lat="45.7911" lon="4.90336">
        <ele>222.92801</ele>
        <time>2023-08-27T13:25:03.000Z</time>
      </trkpt>
      <trkpt lat="45.79108" lon="4.90331">
        <ele>222.79593</ele>
        <time>2023-08-27T13:25:04.000Z</time>
      </trkpt>
      <trkpt lat="45.79106" lon="4.90326">
        <ele>222.68806</ele>
        <time>2023-08-27T13:25:05.000Z</time>
      </trkpt>
      <trkpt lat="45.79104" lon="4.90321">
        <ele>222.54387</ele>
        <time>2023-08-27T13:25:06.000Z</time>
      </trkpt>
      <trkpt lat="45.79102" lon="4.90315">
        <ele>222.59258</ele>
        <time>2023-08-27T13:25:07.000Z</time>
      </trkpt>
      <trkpt lat="45.791" lon="4.90309">
        <ele>222.6257</ele>
        <time>2023-08-27T13:25:08.000Z</time>
      </trkpt>
      <trkpt lat="45.79098" lon="4.90304">
        <ele>222.67825</ele>
        <time>2023-08-27T13:25:09.000Z</time>
      </trkpt>
      <trkpt lat="45.79095" lon="4.90299">
        <ele>222.7397</ele>
        <time>2023-08-27T13:25:10.000Z</time>
      </trkpt>
      <trkpt lat="45.79093" lon="4.90294">
        <ele>222.77396</ele>
        <time>2023-08-27T13:25:11.000Z</time>
      </trkpt>
      <trkpt lat="45.7909" lon="4.9029">
        <ele>222.90939</ele>
        <time>2023-08-27T13:25:12.000Z</time>
      </trkpt>
      <trkpt lat="45.79087" lon="4.90286">
        <ele>223.08456</ele>
        <time>2023-08-27T13:25:13.000Z</time>
      </trkpt>
      <trkpt lat="45.79084" lon="4.90281">
        <ele>223.22395</ele>
        <time>2023-08-27T13:25:14.000Z</time>
      </trkpt>
      <trkpt lat="45.79081" lon="4.90276">
        <ele>223.37691</ele>
        <time>2023-08-27T13:25:15.000Z</time>
      </trkpt>
      <trkpt lat="45.79079" lon="4.90272">
        <ele>223.71143</ele>
        <time>2023-08-27T13:25:16.000Z</time>
      </trkpt>
      <trkpt lat="45.79076" lon="4.90268">
        <ele>224.07748</ele>
        <time>2023-08-27T13:25:17.000Z</time>
      </trkpt>
      <trkpt lat="45.79072" lon="4.90264">
        <ele>224.42236</ele>
        <time>2023-08-27T13:25:18.000Z</time>
      </trkpt>
      <trkpt lat="45.79069" lon="4.9026">
        <ele>224.77827</ele>
        <time>2023-08-27T13:25:19.000Z</time>
      </trkpt>
      <trkpt lat="45.79066" lon="4.90256">
        <ele>225.0363</ele>
        <time>2023-08-27T13:25:20.000Z</time>
      </trkpt>
      <trkpt lat="45.79063" lon="4.90252">
        <ele>225.31877</ele>
        <time>2023-08-27T13:25:21.000Z</time>
      </trkpt>
      <trkpt lat="45.79059" lon="4.90249">
        <ele>225.55399</ele>
        <time>2023-08-27T13:25:22.000Z</time>
      </trkpt>
      <trkpt lat="45.79056" lon="4.90246">
        <ele>225.82903</ele>
        <time>2023-08-27T13:25:23.000Z</time>
      </trkpt>
      <trkpt lat="45.79051" lon="4.90243">
        <ele>226.14377</ele>
        <time>2023-08-27T13:25:24.000Z</time>
      </trkpt>
      <trkpt lat="45.79048" lon="4.90239">
        <ele>226.44902</ele>
        <time>2023-08-27T13:25:25.000Z</time>
      </trkpt>
      <trkpt lat="45.79045" lon="4.90236">
        <ele>226.79233</ele>
        <time>2023-08-27T13:25:26.000Z</time>
      </trkpt>
      <trkpt lat="45.79042" lon="4.90234">
        <ele>227.04048</ele>
        <time>2023-08-27T13:25:27.000Z</time>
      </trkpt>
      <trkpt lat="45.79039" lon="4.90231">
        <ele>227.31116</ele>
        <time>2023-08-27T13:25:28.000Z</time>
      </trkpt>
      <trkpt lat="45.79036" lon="4.90228">
        <ele>227.53984</ele>
        <time>2023-08-27T13:25:29.000Z</time>
      </trkpt>
      <trkpt lat="45.79033" lon="4.90225">
        <ele>227.7581</ele>
        <time>2023-08-27T13:25:30.000Z</time>
      </trkpt>
      <trkpt lat="45.79031" lon="4.90223">
        <ele>227.96028</ele>
        <time>2023-08-27T13:25:31.000Z</time>
      </trkpt>
      <trkpt lat="45.79028" lon="4.9022">
        <ele>228.12114</ele>
        <time>2023-08-27T13:25:32.000Z</time>
      </trkpt>
      <trkpt lat="45.79026" lon="4.90217">
        <ele>228.23953</ele>
        <time>2023-08-27T13:25:33.000Z</time>
      </trkpt>
      <trkpt lat="45.79024" lon="4.90216">
        <ele>228.39995</ele>
        <time>2023-08-27T13:25:34.000Z</time>
      </trkpt>
      <trkpt lat="45.79022" lon="4.90215">
        <ele>228.54102</ele>
        <time>2023-08-27T13:25:35.000Z</time>
      </trkpt>
      <trkpt lat="45.79022" lon="4.90212">
        <ele>228.49948</ele>
        <time>2023-08-27T13:25:46.000Z</time>
      </trkpt>
      <trkpt lat="45.7902" lon="4.90208">
        <ele>228.39844</ele>
        <time>2023-08-27T13:25:58.000Z</time>
      </trkpt>
      <trkpt lat="45.79017" lon="4.90204">
        <ele>228.25993</ele>
        <time>2023-08-27T13:26:00.000Z</time>
      </trkpt>
      <trkpt lat="45.79015" lon="4.902">
        <ele>228.14034</ele>
        <time>2023-08-27T13:26:01.000Z</time>
      </trkpt>
      <trkpt lat="45.79011" lon="4.90196">
        <ele>228.08829</ele>
        <time>2023-08-27T13:26:02.000Z</time>
      </trkpt>
      <trkpt lat="45.79008" lon="4.90191">
        <ele>228.03296</ele>
        <time>2023-08-27T13:26:03.000Z</time>
      </trkpt>
      <trkpt lat="45.79002" lon="4.90186">
        <ele>228.03638</ele>
        <time>2023-08-27T13:26:04.000Z</time>
      </trkpt>
      <trkpt lat="45.78999" lon="4.9018">
        <ele>228.0228</ele>
        <time>2023-08-27T13:26:05.000Z</time>
      </trkpt>
      <trkpt lat="45.78995" lon="4.90174">
        <ele>227.99841</ele>
        <time>2023-08-27T13:26:06.000Z</time>
      </trkpt>
      <trkpt lat="45.78991" lon="4.90169">
        <ele>227.90967</ele>
        <time>2023-08-27T13:26:07.000Z</time>
      </trkpt>
      <trkpt lat="45.78987" lon="4.90164">
        <ele>227.80362</ele>
        <time>2023-08-27T13:26:08.000Z</time>
      </trkpt>
      <trkpt lat="45.78984" lon="4.90158">
        <ele>227.68918</ele>
        <time>2023-08-27T13:26:09.000Z</time>
      </trkpt>
      <trkpt lat="45.78981" lon="4.90152">
        <ele>227.57637</ele>
        <time>2023-08-27T13:26:10.000Z</time>
      </trkpt>
      <trkpt lat="45.78977" lon="4.90145">
        <ele>227.48071</ele>
        <time>2023-08-27T13:26:11.000Z</time>
      </trkpt>
      <trkpt lat="45.78974" lon="4.9014">
        <ele>227.39005</ele>
        <time>2023-08-27T13:26:12.000Z</time>
      </trkpt>
      <trkpt lat="45.7897" lon="4.90133">
        <ele>227.33774</ele>
        <time>2023-08-27T13:26:13.000Z</time>
      </trkpt>
      <trkpt lat="45.78967" lon="4.90126">
        <ele>227.22188</ele>
        <time>2023-08-27T13:26:14.000Z</time>
      </trkpt>
      <trkpt lat="45.78964" lon="4.90119">
        <ele>227.1246</ele>
        <time>2023-08-27T13:26:15.000Z</time>
      </trkpt>
      <trkpt lat="45.78961" lon="4.90113">
        <ele>227.00391</ele>
        <time>2023-08-27T13:26:16.000Z</time>
      </trkpt>
      <trkpt lat="45.78957" lon="4.90106">
        <ele>226.87759</ele>
        <time>2023-08-27T13:26:17.000Z</time>
      </trkpt>
      <trkpt lat="45.78955" lon="4.90099">
        <ele>226.75888</ele>
        <time>2023-08-27T13:26:18.000Z</time>
      </trkpt>
      <trkpt lat="45.78953" lon="4.90092">
        <ele>226.69731</ele>
        <time>2023-08-27T13:26:19.000Z</time>
      </trkpt>
      <trkpt lat="45.78951" lon="4.90086">
        <ele>226.65239</ele>
        <time>2023-08-27T13:26:20.000Z</time>
      </trkpt>
      <trkpt lat="45.78948" lon="4.9008">
        <ele>226.55232</ele>
        <time>2023-08-27T13:26:21.000Z</time>
      </trkpt>
      <trkpt lat="45.78945" lon="4.90073">
        <ele>226.44966</ele>
        <time>2023-08-27T13:26:22.000Z</time>
      </trkpt>
      <trkpt lat="45.78943" lon="4.90067">
        <ele>226.36707</ele>
        <time>2023-08-27T13:26:23.000Z</time>
      </trkpt>
      <trkpt lat="45.7894" lon="4.9006">
        <ele>226.30722</ele>
        <time>2023-08-27T13:26:24.000Z</time>
      </trkpt>
      <trkpt lat="45.78938" lon="4.90053">
        <ele>226.23096</ele>
        <time>2023-08-27T13:26:25.000Z</time>
      </trkpt>
      <trkpt lat="45.78935" lon="4.90047">
        <ele>226.14063</ele>
        <time>2023-08-27T13:26:26.000Z</time>
      </trkpt>
      <trkpt lat="45.78933" lon="4.90039">
        <ele>226.0856</ele>
        <time>2023-08-27T13:26:27.000Z</time>
      </trkpt>
      <trkpt lat="45.78933" lon="4.90034">
        <ele>226.03</ele>
        <time>2023-08-27T13:26:28.000Z</time>
      </trkpt>
      <trkpt lat="45.78931" lon="4.9003">
        <ele>226.00293</ele>
        <time>2023-08-27T13:26:29.000Z</time>
      </trkpt>
      <trkpt lat="45.78929" lon="4.90025">
        <ele>225.9687</ele>
        <time>2023-08-27T13:26:30.000Z</time>
      </trkpt>
      <trkpt lat="45.78929" lon="4.9002">
        <ele>225.92392</ele>
        <time>2023-08-27T13:26:31.000Z</time>
      </trkpt>
      <trkpt lat="45.78927" lon="4.90015">
        <ele>225.90096</ele>
        <time>2023-08-27T13:26:32.000Z</time>
      </trkpt>
      <trkpt lat="45.78927" lon="4.90009">
        <ele>225.85564</ele>
        <time>2023-08-27T13:26:33.000Z</time>
      </trkpt>
      <trkpt lat="45.78926" lon="4.90005">
        <ele>225.87141</ele>
        <time>2023-08-27T13:26:34.000Z</time>
      </trkpt>
      <trkpt lat="45.78925" lon="4.90001">
        <ele>225.90353</ele>
        <time>2023-08-27T13:26:35.000Z</time>
      </trkpt>
      <trkpt lat="45.78924" lon="4.89996">
        <ele>225.90964</ele>
        <time>2023-08-27T13:26:36.000Z</time>
      </trkpt>
      <trkpt lat="45.78922" lon="4.89991">
        <ele>225.91484</ele>
        <time>2023-08-27T13:26:37.000Z</time>
      </trkpt>
      <trkpt lat="45.7892" lon="4.89986">
        <ele>225.93159</ele>
        <time>2023-08-27T13:26:38.000Z</time>
      </trkpt>
      <trkpt lat="45.78919" lon="4.8998">
        <ele>225.94035</ele>
        <time>2023-08-27T13:26:39.000Z</time>
      </trkpt>
      <trkpt lat="45.78919" lon="4.89975">
        <ele>225.88065</ele>
        <time>2023-08-27T13:26:40.000Z</time>
      </trkpt>
      <trkpt lat="45.78918" lon="4.8997">
        <ele>225.85818</ele>
        <time>2023-08-27T13:26:41.000Z</time>
      </trkpt>
      <trkpt lat="45.78917" lon="4.89965">
        <ele>225.86263</ele>
        <time>2023-08-27T13:26:42.000Z</time>
      </trkpt>
      <trkpt lat="45.78916" lon="4.8996">
        <ele>225.86678</ele>
        <time>2023-08-27T13:26:43.000Z</time>
      </trkpt>
      <trkpt lat="45.78915" lon="4.89955">
        <ele>225.8168</ele>
        <time>2023-08-27T13:26:44.000Z</time>
      </trkpt>
      <trkpt lat="45.78914" lon="4.89949">
        <ele>225.7896</ele>
        <time>2023-08-27T13:26:45.000Z</time>
      </trkpt>
      <trkpt lat="45.78913" lon="4.89944">
        <ele>225.74191</ele>
        <time>2023-08-27T13:26:46.000Z</time>
      </trkpt>
      <trkpt lat="45.78912" lon="4.89938">
        <ele>225.71927</ele>
        <time>2023-08-27T13:26:47.000Z</time>
      </trkpt>
      <trkpt lat="45.7891" lon="4.89932">
        <ele>225.746</ele>
        <time>2023-08-27T13:26:48.000Z</time>
      </trkpt>
      <trkpt lat="45.78909" lon="4.89927">
        <ele>225.76028</ele>
        <time>2023-08-27T13:26:49.000Z</time>
      </trkpt>
      <trkpt lat="45.78907" lon="4.89921">
        <ele>225.71753</ele>
        <time>2023-08-27T13:26:50.000Z</time>
      </trkpt>
      <trkpt lat="45.78906" lon="4.89916">
        <ele>225.69266</ele>
        <time>2023-08-27T13:26:51.000Z</time>
      </trkpt>
      <trkpt lat="45.78905" lon="4.8991">
        <ele>225.63432</ele>
        <time>2023-08-27T13:26:52.000Z</time>
      </trkpt>
      <trkpt lat="45.78904" lon="4.89904">
        <ele>225.60478</ele>
        <time>2023-08-27T13:26:53.000Z</time>
      </trkpt>
      <trkpt lat="45.78902" lon="4.89899">
        <ele>225.55013</ele>
        <time>2023-08-27T13:26:54.000Z</time>
      </trkpt>
      <trkpt lat="45.78901" lon="4.89893">
        <ele>225.49593</ele>
        <time>2023-08-27T13:26:55.000Z</time>
      </trkpt>
      <trkpt lat="45.78899" lon="4.89887">
        <ele>225.50598</ele>
        <time>2023-08-27T13:26:56.000Z</time>
      </trkpt>
      <trkpt lat="45.78898" lon="4.89882">
        <ele>225.54456</ele>
        <time>2023-08-27T13:26:57.000Z</time>
      </trkpt>
      <trkpt lat="45.78897" lon="4.89875">
        <ele>225.56265</ele>
        <time>2023-08-27T13:26:58.000Z</time>
      </trkpt>
      <trkpt lat="45.78895" lon="4.89868">
        <ele>225.53813</ele>
        <time>2023-08-27T13:26:59.000Z</time>
      </trkpt>
      <trkpt lat="45.78894" lon="4.89863">
        <ele>225.57185</ele>
        <time>2023-08-27T13:27:00.000Z</time>
      </trkpt>
      <trkpt lat="45.78893" lon="4.89857">
        <ele>225.61235</ele>
        <time>2023-08-27T13:27:01.000Z</time>
      </trkpt>
      <trkpt lat="45.78891" lon="4.89853">
        <ele>225.65901</ele>
        <time>2023-08-27T13:27:02.000Z</time>
      </trkpt>
      <trkpt lat="45.78889" lon="4.89848">
        <ele>225.70175</ele>
        <time>2023-08-27T13:27:03.000Z</time>
      </trkpt>
      <trkpt lat="45.78887" lon="4.89842">
        <ele>225.75557</ele>
        <time>2023-08-27T13:27:04.000Z</time>
      </trkpt>
      <trkpt lat="45.78885" lon="4.89837">
        <ele>225.82507</ele>
        <time>2023-08-27T13:27:05.000Z</time>
      </trkpt>
      <trkpt lat="45.78886" lon="4.89831">
        <ele>225.86552</ele>
        <time>2023-08-27T13:27:06.000Z</time>
      </trkpt>
      <trkpt lat="45.78885" lon="4.89825">
        <ele>225.88684</ele>
        <time>2023-08-27T13:27:07.000Z</time>
      </trkpt>
      <trkpt lat="45.78884" lon="4.89819">
        <ele>225.85229</ele>
        <time>2023-08-27T13:27:08.000Z</time>
      </trkpt>
      <trkpt lat="45.78883" lon="4.89814">
        <ele>225.82101</ele>
        <time>2023-08-27T13:27:09.000Z</time>
      </trkpt>
      <trkpt lat="45.78882" lon="4.89809">
        <ele>225.84729</ele>
        <time>2023-08-27T13:27:10.000Z</time>
      </trkpt>
      <trkpt lat="45.7888" lon="4.89804">
        <ele>225.8595</ele>
        <time>2023-08-27T13:27:11.000Z</time>
      </trkpt>
      <trkpt lat="45.78879" lon="4.89799">
        <ele>225.87454</ele>
        <time>2023-08-27T13:27:12.000Z</time>
      </trkpt>
      <trkpt lat="45.78878" lon="4.89793">
        <ele>225.88095</ele>
        <time>2023-08-27T13:27:13.000Z</time>
      </trkpt>
      <trkpt lat="45.78877" lon="4.89787">
        <ele>225.90593</ele>
        <time>2023-08-27T13:27:14.000Z</time>
      </trkpt>
      <trkpt lat="45.78877" lon="4.89781">
        <ele>225.92339</ele>
        <time>2023-08-27T13:27:15.000Z</time>
      </trkpt>
      <trkpt lat="45.78876" lon="4.89775">
        <ele>225.894</ele>
        <time>2023-08-27T13:27:16.000Z</time>
      </trkpt>
      <trkpt lat="45.78875" lon="4.89769">
        <ele>225.81303</ele>
        <time>2023-08-27T13:27:17.000Z</time>
      </trkpt>
      <trkpt lat="45.78874" lon="4.89764">
        <ele>225.75732</ele>
        <time>2023-08-27T13:27:18.000Z</time>
      </trkpt>
      <trkpt lat="45.78873" lon="4.89758">
        <ele>225.73172</ele>
        <time>2023-08-27T13:27:19.000Z</time>
      </trkpt>
      <trkpt lat="45.78872" lon="4.89752">
        <ele>225.71623</ele>
        <time>2023-08-27T13:27:20.000Z</time>
      </trkpt>
      <trkpt lat="45.78871" lon="4.89746">
        <ele>225.69131</ele>
        <time>2023-08-27T13:27:21.000Z</time>
      </trkpt>
      <trkpt lat="45.78871" lon="4.8974">
        <ele>225.61304</ele>
        <time>2023-08-27T13:27:22.000Z</time>
      </trkpt>
      <trkpt lat="45.78871" lon="4.89735">
        <ele>225.53427</ele>
        <time>2023-08-27T13:27:23.000Z</time>
      </trkpt>
      <trkpt lat="45.78871" lon="4.89729">
        <ele>225.50737</ele>
        <time>2023-08-27T13:27:24.000Z</time>
      </trkpt>
      <trkpt lat="45.78871" lon="4.89724">
        <ele>225.39998</ele>
        <time>2023-08-27T13:27:25.000Z</time>
      </trkpt>
      <trkpt lat="45.78871" lon="4.89719">
        <ele>225.33035</ele>
        <time>2023-08-27T13:27:26.000Z</time>
      </trkpt>
      <trkpt lat="45.78872" lon="4.89713">
        <ele>225.2977</ele>
        <time>2023-08-27T13:27:27.000Z</time>
      </trkpt>
      <trkpt lat="45.78873" lon="4.89708">
        <ele>225.14644</ele>
        <time>2023-08-27T13:27:28.000Z</time>
      </trkpt>
      <trkpt lat="45.78875" lon="4.89701">
        <ele>225.00142</ele>
        <time>2023-08-27T13:27:29.000Z</time>
      </trkpt>
      <trkpt lat="45.78877" lon="4.89695">
        <ele>224.82132</ele>
        <time>2023-08-27T13:27:30.000Z</time>
      </trkpt>
      <trkpt lat="45.78877" lon="4.89689">
        <ele>224.64761</ele>
        <time>2023-08-27T13:27:31.000Z</time>
      </trkpt>
      <trkpt lat="45.78878" lon="4.89683">
        <ele>224.51421</ele>
        <time>2023-08-27T13:27:32.000Z</time>
      </trkpt>
      <trkpt lat="45.78879" lon="4.89678">
        <ele>224.39616</ele>
        <time>2023-08-27T13:27:33.000Z</time>
      </trkpt>
      <trkpt lat="45.7888" lon="4.89671">
        <ele>224.26938</ele>
        <time>2023-08-27T13:27:34.000Z</time>
      </trkpt>
      <trkpt lat="45.78881" lon="4.89665">
        <ele>224.29395</ele>
        <time>2023-08-27T13:27:35.000Z</time>
      </trkpt>
      <trkpt lat="45.78882" lon="4.89658">
        <ele>224.30383</ele>
        <time>2023-08-27T13:27:36.000Z</time>
      </trkpt>
      <trkpt lat="45.78884" lon="4.89651">
        <ele>224.30034</ele>
        <time>2023-08-27T13:27:37.000Z</time>
      </trkpt>
      <trkpt lat="45.78887" lon="4.89645">
        <ele>224.30051</ele>
        <time>2023-08-27T13:27:38.000Z</time>
      </trkpt>
      <trkpt lat="45.78889" lon="4.89638">
        <ele>224.31412</ele>
        <time>2023-08-27T13:27:39.000Z</time>
      </trkpt>
      <trkpt lat="45.7889" lon="4.89632">
        <ele>224.27759</ele>
        <time>2023-08-27T13:27:40.000Z</time>
      </trkpt>
      <trkpt lat="45.78892" lon="4.89626">
        <ele>224.21631</ele>
        <time>2023-08-27T13:27:41.000Z</time>
      </trkpt>
      <trkpt lat="45.78894" lon="4.89621">
        <ele>224.16142</ele>
        <time>2023-08-27T13:27:42.000Z</time>
      </trkpt>
      <trkpt lat="45.78896" lon="4.89614">
        <ele>224.09258</ele>
        <time>2023-08-27T13:27:43.000Z</time>
      </trkpt>
      <trkpt lat="45.78897" lon="4.89608">
        <ele>223.99661</ele>
        <time>2023-08-27T13:27:44.000Z</time>
      </trkpt>
      <trkpt lat="45.78899" lon="4.89603">
        <ele>223.93501</ele>
        <time>2023-08-27T13:27:45.000Z</time>
      </trkpt>
      <trkpt lat="45.78901" lon="4.89597">
        <ele>223.85889</ele>
        <time>2023-08-27T13:27:46.000Z</time>
      </trkpt>
      <trkpt lat="45.78902" lon="4.89592">
        <ele>223.73706</ele>
        <time>2023-08-27T13:27:47.000Z</time>
      </trkpt>
      <trkpt lat="45.78902" lon="4.89586">
        <ele>223.79276</ele>
        <time>2023-08-27T13:27:48.000Z</time>
      </trkpt>
      <trkpt lat="45.789" lon="4.89581">
        <ele>223.8634</ele>
        <time>2023-08-27T13:27:49.000Z</time>
      </trkpt>
      <trkpt lat="45.78898" lon="4.89576">
        <ele>223.97177</ele>
        <time>2023-08-27T13:27:50.000Z</time>
      </trkpt>
      <trkpt lat="45.78897" lon="4.89572">
        <ele>224.10603</ele>
        <time>2023-08-27T13:27:51.000Z</time>
      </trkpt>
      <trkpt lat="45.78894" lon="4.89569">
        <ele>224.24487</ele>
        <time>2023-08-27T13:27:52.000Z</time>
      </trkpt>
      <trkpt lat="45.78892" lon="4.89566">
        <ele>224.37778</ele>
        <time>2023-08-27T13:27:53.000Z</time>
      </trkpt>
      <trkpt lat="45.78889" lon="4.89563">
        <ele>224.51944</ele>
        <time>2023-08-27T13:27:54.000Z</time>
      </trkpt>
      <trkpt lat="45.78886" lon="4.89559">
        <ele>224.55037</ele>
        <time>2023-08-27T13:27:55.000Z</time>
      </trkpt>
      <trkpt lat="45.78883" lon="4.89555">
        <ele>224.58896</ele>
        <time>2023-08-27T13:27:56.000Z</time>
      </trkpt>
      <trkpt lat="45.78881" lon="4.89551">
        <ele>224.71597</ele>
        <time>2023-08-27T13:27:57.000Z</time>
      </trkpt>
      <trkpt lat="45.78878" lon="4.89548">
        <ele>224.84326</ele>
        <time>2023-08-27T13:27:58.000Z</time>
      </trkpt>
      <trkpt lat="45.78876" lon="4.89545">
        <ele>224.97087</ele>
        <time>2023-08-27T13:27:59.000Z</time>
      </trkpt>
      <trkpt lat="45.78874" lon="4.89542">
        <ele>225.07724</ele>
        <time>2023-08-27T13:28:00.000Z</time>
      </trkpt>
      <trkpt lat="45.78872" lon="4.89539">
        <ele>225.22562</ele>
        <time>2023-08-27T13:28:01.000Z</time>
      </trkpt>
      <trkpt lat="45.78871" lon="4.89535">
        <ele>225.36382</ele>
        <time>2023-08-27T13:28:02.000Z</time>
      </trkpt>
      <trkpt lat="45.7887" lon="4.89532">
        <ele>225.5385</ele>
        <time>2023-08-27T13:28:03.000Z</time>
      </trkpt>
      <trkpt lat="45.78868" lon="4.89527">
        <ele>225.72278</ele>
        <time>2023-08-27T13:28:04.000Z</time>
      </trkpt>
      <trkpt lat="45.78863" lon="4.89524">
        <ele>225.90569</ele>
        <time>2023-08-27T13:28:05.000Z</time>
      </trkpt>
      <trkpt lat="45.78859" lon="4.89518">
        <ele>226.13567</ele>
        <time>2023-08-27T13:28:06.000Z</time>
      </trkpt>
      <trkpt lat="45.78856" lon="4.89512">
        <ele>226.2989</ele>
        <time>2023-08-27T13:28:07.000Z</time>
      </trkpt>
      <trkpt lat="45.78853" lon="4.89506">
        <ele>226.44626</ele>
        <time>2023-08-27T13:28:08.000Z</time>
      </trkpt>
      <trkpt lat="45.7885" lon="4.895">
        <ele>226.51074</ele>
        <time>2023-08-27T13:28:09.000Z</time>
      </trkpt>
      <trkpt lat="45.78847" lon="4.89495">
        <ele>226.56192</ele>
        <time>2023-08-27T13:28:10.000Z</time>
      </trkpt>
      <trkpt lat="45.78846" lon="4.8949">
        <ele>226.59668</ele>
        <time>2023-08-27T13:28:11.000Z</time>
      </trkpt>
      <trkpt lat="45.78843" lon="4.89484">
        <ele>226.60315</ele>
        <time>2023-08-27T13:28:12.000Z</time>
      </trkpt>
      <trkpt lat="45.7884" lon="4.8948">
        <ele>226.56587</ele>
        <time>2023-08-27T13:28:13.000Z</time>
      </trkpt>
      <trkpt lat="45.78837" lon="4.89475">
        <ele>226.45792</ele>
        <time>2023-08-27T13:28:14.000Z</time>
      </trkpt>
      <trkpt lat="45.78835" lon="4.8947">
        <ele>226.31296</ele>
        <time>2023-08-27T13:28:15.000Z</time>
      </trkpt>
      <trkpt lat="45.78833" lon="4.89466">
        <ele>226.22812</ele>
        <time>2023-08-27T13:28:16.000Z</time>
      </trkpt>
      <trkpt lat="45.7883" lon="4.89461">
        <ele>226.08841</ele>
        <time>2023-08-27T13:28:17.000Z</time>
      </trkpt>
      <trkpt lat="45.78827" lon="4.89456">
        <ele>225.96802</ele>
        <time>2023-08-27T13:28:18.000Z</time>
      </trkpt>
      <trkpt lat="45.78824" lon="4.89451">
        <ele>225.82114</ele>
        <time>2023-08-27T13:28:19.000Z</time>
      </trkpt>
      <trkpt lat="45.78822" lon="4.89446">
        <ele>225.78799</ele>
        <time>2023-08-27T13:28:20.000Z</time>
      </trkpt>
      <trkpt lat="45.78819" lon="4.89441">
        <ele>225.71158</ele>
        <time>2023-08-27T13:28:21.000Z</time>
      </trkpt>
      <trkpt lat="45.78817" lon="4.89435">
        <ele>225.68164</ele>
        <time>2023-08-27T13:28:22.000Z</time>
      </trkpt>
      <trkpt lat="45.78815" lon="4.89431">
        <ele>225.64734</ele>
        <time>2023-08-27T13:28:23.000Z</time>
      </trkpt>
      <trkpt lat="45.78814" lon="4.89425">
        <ele>225.51204</ele>
        <time>2023-08-27T13:28:24.000Z</time>
      </trkpt>
      <trkpt lat="45.7881" lon="4.89417">
        <ele>225.38272</ele>
        <time>2023-08-27T13:28:25.000Z</time>
      </trkpt>
      <trkpt lat="45.78808" lon="4.89412">
        <ele>225.20341</ele>
        <time>2023-08-27T13:28:26.000Z</time>
      </trkpt>
      <trkpt lat="45.78805" lon="4.89407">
        <ele>225.09317</ele>
        <time>2023-08-27T13:28:27.000Z</time>
      </trkpt>
      <trkpt lat="45.78803" lon="4.89401">
        <ele>224.94711</ele>
        <time>2023-08-27T13:28:28.000Z</time>
      </trkpt>
      <trkpt lat="45.78801" lon="4.89395">
        <ele>224.82373</ele>
        <time>2023-08-27T13:28:29.000Z</time>
      </trkpt>
      <trkpt lat="45.78799" lon="4.89389">
        <ele>224.67722</ele>
        <time>2023-08-27T13:28:30.000Z</time>
      </trkpt>
      <trkpt lat="45.78797" lon="4.89383">
        <ele>224.49442</ele>
        <time>2023-08-27T13:28:31.000Z</time>
      </trkpt>
      <trkpt lat="45.78795" lon="4.89377">
        <ele>224.3315</ele>
        <time>2023-08-27T13:28:32.000Z</time>
      </trkpt>
      <trkpt lat="45.78794" lon="4.89371">
        <ele>224.19023</ele>
        <time>2023-08-27T13:28:33.000Z</time>
      </trkpt>
      <trkpt lat="45.78792" lon="4.89365">
        <ele>224.11662</ele>
        <time>2023-08-27T13:28:34.000Z</time>
      </trkpt>
      <trkpt lat="45.7879" lon="4.89359">
        <ele>224.05338</ele>
        <time>2023-08-27T13:28:35.000Z</time>
      </trkpt>
      <trkpt lat="45.78788" lon="4.89353">
        <ele>223.94405</ele>
        <time>2023-08-27T13:28:36.000Z</time>
      </trkpt>
      <trkpt lat="45.78786" lon="4.89348">
        <ele>223.83658</ele>
        <time>2023-08-27T13:28:37.000Z</time>
      </trkpt>
      <trkpt lat="45.78784" lon="4.89342">
        <ele>223.69846</ele>
        <time>2023-08-27T13:28:38.000Z</time>
      </trkpt>
      <trkpt lat="45.78782" lon="4.89336">
        <ele>223.5743</ele>
        <time>2023-08-27T13:28:39.000Z</time>
      </trkpt>
      <trkpt lat="45.78781" lon="4.8933">
        <ele>223.39754</ele>
        <time>2023-08-27T13:28:40.000Z</time>
      </trkpt>
      <trkpt lat="45.78779" lon="4.89324">
        <ele>223.2485</ele>
        <time>2023-08-27T13:28:41.000Z</time>
      </trkpt>
      <trkpt lat="45.78778" lon="4.89318">
        <ele>223.08614</ele>
        <time>2023-08-27T13:28:42.000Z</time>
      </trkpt>
      <trkpt lat="45.78776" lon="4.89311">
        <ele>222.92203</ele>
        <time>2023-08-27T13:28:43.000Z</time>
      </trkpt>
      <trkpt lat="45.78775" lon="4.89305">
        <ele>222.82097</ele>
        <time>2023-08-27T13:28:44.000Z</time>
      </trkpt>
      <trkpt lat="45.78773" lon="4.89299">
        <ele>222.7395</ele>
        <time>2023-08-27T13:28:45.000Z</time>
      </trkpt>
      <trkpt lat="45.78772" lon="4.89292">
        <ele>222.6687</ele>
        <time>2023-08-27T13:28:46.000Z</time>
      </trkpt>
      <trkpt lat="45.78771" lon="4.89285">
        <ele>222.66208</ele>
        <time>2023-08-27T13:28:47.000Z</time>
      </trkpt>
      <trkpt lat="45.7877" lon="4.89279">
        <ele>222.66537</ele>
        <time>2023-08-27T13:28:48.000Z</time>
      </trkpt>
      <trkpt lat="45.78769" lon="4.89273">
        <ele>222.64175</ele>
        <time>2023-08-27T13:28:49.000Z</time>
      </trkpt>
      <trkpt lat="45.78768" lon="4.89267">
        <ele>222.64214</ele>
        <time>2023-08-27T13:28:50.000Z</time>
      </trkpt>
      <trkpt lat="45.78767" lon="4.89261">
        <ele>222.67432</ele>
        <time>2023-08-27T13:28:51.000Z</time>
      </trkpt>
      <trkpt lat="45.78766" lon="4.89256">
        <ele>222.70987</ele>
        <time>2023-08-27T13:28:52.000Z</time>
      </trkpt>
      <trkpt lat="45.78765" lon="4.89249">
        <ele>222.75095</ele>
        <time>2023-08-27T13:28:53.000Z</time>
      </trkpt>
      <trkpt lat="45.78765" lon="4.89243">
        <ele>222.79253</ele>
        <time>2023-08-27T13:28:54.000Z</time>
      </trkpt>
      <trkpt lat="45.78764" lon="4.89237">
        <ele>222.82739</ele>
        <time>2023-08-27T13:28:55.000Z</time>
      </trkpt>
      <trkpt lat="45.78764" lon="4.89231">
        <ele>222.87126</ele>
        <time>2023-08-27T13:28:56.000Z</time>
      </trkpt>
      <trkpt lat="45.78763" lon="4.89227">
        <ele>222.92905</ele>
        <time>2023-08-27T13:28:57.000Z</time>
      </trkpt>
      <trkpt lat="45.78763" lon="4.89222">
        <ele>222.98093</ele>
        <time>2023-08-27T13:28:58.000Z</time>
      </trkpt>
      <trkpt lat="45.78762" lon="4.89216">
        <ele>223.01297</ele>
        <time>2023-08-27T13:28:59.000Z</time>
      </trkpt>
      <trkpt lat="45.78761" lon="4.89211">
        <ele>223.04646</ele>
        <time>2023-08-27T13:29:00.000Z</time>
      </trkpt>
      <trkpt lat="45.7876" lon="4.89207">
        <ele>223.08414</ele>
        <time>2023-08-27T13:29:01.000Z</time>
      </trkpt>
      <trkpt lat="45.78757" lon="4.89203">
        <ele>223.11336</ele>
        <time>2023-08-27T13:29:02.000Z</time>
      </trkpt>
      <trkpt lat="45.78755" lon="4.892">
        <ele>223.15092</ele>
        <time>2023-08-27T13:29:03.000Z</time>
      </trkpt>
      <trkpt lat="45.78753" lon="4.89199">
        <ele>223.20711</ele>
        <time>2023-08-27T13:29:04.000Z</time>
      </trkpt>
      <trkpt lat="45.7875" lon="4.89201">
        <ele>223.27182</ele>
        <time>2023-08-27T13:29:05.000Z</time>
      </trkpt>
      <trkpt lat="45.78748" lon="4.89202">
        <ele>223.34717</ele>
        <time>2023-08-27T13:29:06.000Z</time>
      </trkpt>
      <trkpt lat="45.78746" lon="4.89204">
        <ele>223.35324</ele>
        <time>2023-08-27T13:29:07.000Z</time>
      </trkpt>
      <trkpt lat="45.78743" lon="4.89206">
        <ele>223.33167</ele>
        <time>2023-08-27T13:29:08.000Z</time>
      </trkpt>
      <trkpt lat="45.78741" lon="4.89207">
        <ele>223.36893</ele>
        <time>2023-08-27T13:29:09.000Z</time>
      </trkpt>
      <trkpt lat="45.78739" lon="4.89209">
        <ele>223.47543</ele>
        <time>2023-08-27T13:29:10.000Z</time>
      </trkpt>
      <trkpt lat="45.78736" lon="4.8921">
        <ele>223.60783</ele>
        <time>2023-08-27T13:29:11.000Z</time>
      </trkpt>
      <trkpt lat="45.78734" lon="4.89212">
        <ele>223.75215</ele>
        <time>2023-08-27T13:29:12.000Z</time>
      </trkpt>
      <trkpt lat="45.78732" lon="4.89215">
        <ele>223.806</ele>
        <time>2023-08-27T13:29:13.000Z</time>
      </trkpt>
      <trkpt lat="45.78729" lon="4.89218">
        <ele>223.89336</ele>
        <time>2023-08-27T13:29:14.000Z</time>
      </trkpt>
      <trkpt lat="45.78727" lon="4.89221">
        <ele>223.94267</ele>
        <time>2023-08-27T13:29:15.000Z</time>
      </trkpt>
      <trkpt lat="45.78725" lon="4.89224">
        <ele>223.97124</ele>
        <time>2023-08-27T13:29:16.000Z</time>
      </trkpt>
      <trkpt lat="45.78723" lon="4.89226">
        <ele>223.99866</ele>
        <time>2023-08-27T13:29:17.000Z</time>
      </trkpt>
      <trkpt lat="45.78721" lon="4.89228">
        <ele>224.02588</ele>
        <time>2023-08-27T13:29:18.000Z</time>
      </trkpt>
      <trkpt lat="45.78718" lon="4.8923">
        <ele>224.04395</ele>
        <time>2023-08-27T13:29:19.000Z</time>
      </trkpt>
      <trkpt lat="45.78716" lon="4.89233">
        <ele>224.12842</ele>
        <time>2023-08-27T13:29:20.000Z</time>
      </trkpt>
      <trkpt lat="45.78714" lon="4.89235">
        <ele>224.18835</ele>
        <time>2023-08-27T13:29:21.000Z</time>
      </trkpt>
      <trkpt lat="45.78712" lon="4.89238">
        <ele>224.29887</ele>
        <time>2023-08-27T13:29:22.000Z</time>
      </trkpt>
      <trkpt lat="45.78709" lon="4.89242">
        <ele>224.3835</ele>
        <time>2023-08-27T13:29:23.000Z</time>
      </trkpt>
      <trkpt lat="45.78707" lon="4.89244">
        <ele>224.42851</ele>
        <time>2023-08-27T13:29:24.000Z</time>
      </trkpt>
      <trkpt lat="45.78705" lon="4.89246">
        <ele>224.46013</ele>
        <time>2023-08-27T13:29:25.000Z</time>
      </trkpt>
      <trkpt lat="45.78702" lon="4.89249">
        <ele>224.49333</ele>
        <time>2023-08-27T13:29:26.000Z</time>
      </trkpt>
      <trkpt lat="45.78699" lon="4.89251">
        <ele>224.4393</ele>
        <time>2023-08-27T13:29:27.000Z</time>
      </trkpt>
      <trkpt lat="45.78696" lon="4.89253">
        <ele>224.46497</ele>
        <time>2023-08-27T13:29:28.000Z</time>
      </trkpt>
      <trkpt lat="45.78694" lon="4.89255">
        <ele>224.44231</ele>
        <time>2023-08-27T13:29:29.000Z</time>
      </trkpt>
      <trkpt lat="45.78691" lon="4.89257">
        <ele>224.34241</ele>
        <time>2023-08-27T13:29:30.000Z</time>
      </trkpt>
      <trkpt lat="45.78688" lon="4.8926">
        <ele>224.23019</ele>
        <time>2023-08-27T13:29:31.000Z</time>
      </trkpt>
      <trkpt lat="45.78685" lon="4.89262">
        <ele>224.11353</ele>
        <time>2023-08-27T13:29:32.000Z</time>
      </trkpt>
      <trkpt lat="45.78683" lon="4.89265">
        <ele>224.11296</ele>
        <time>2023-08-27T13:29:33.000Z</time>
      </trkpt>
      <trkpt lat="45.7868" lon="4.89267">
        <ele>224.10571</ele>
        <time>2023-08-27T13:29:34.000Z</time>
      </trkpt>
      <trkpt lat="45.78678" lon="4.89269">
        <ele>224.14194</ele>
        <time>2023-08-27T13:29:35.000Z</time>
      </trkpt>
      <trkpt lat="45.78675" lon="4.89271">
        <ele>224.20576</ele>
        <time>2023-08-27T13:29:36.000Z</time>
      </trkpt>
      <trkpt lat="45.78672" lon="4.89272">
        <ele>224.25272</ele>
        <time>2023-08-27T13:29:37.000Z</time>
      </trkpt>
      <trkpt lat="45.7867" lon="4.89274">
        <ele>224.29248</ele>
        <time>2023-08-27T13:29:38.000Z</time>
      </trkpt>
      <trkpt lat="45.78667" lon="4.89276">
        <ele>224.39426</ele>
        <time>2023-08-27T13:29:39.000Z</time>
      </trkpt>
      <trkpt lat="45.78664" lon="4.89278">
        <ele>224.42081</ele>
        <time>2023-08-27T13:29:40.000Z</time>
      </trkpt>
      <trkpt lat="45.78661" lon="4.8928">
        <ele>224.44746</ele>
        <time>2023-08-27T13:29:41.000Z</time>
      </trkpt>
      <trkpt lat="45.78659" lon="4.89282">
        <ele>224.43718</ele>
        <time>2023-08-27T13:29:42.000Z</time>
      </trkpt>
      <trkpt lat="45.78656" lon="4.89283">
        <ele>224.40752</ele>
        <time>2023-08-27T13:29:43.000Z</time>
      </trkpt>
      <trkpt lat="45.78654" lon="4.89284">
        <ele>224.37534</ele>
        <time>2023-08-27T13:29:44.000Z</time>
      </trkpt>
      <trkpt lat="45.78652" lon="4.89285">
        <ele>224.39218</ele>
        <time>2023-08-27T13:29:45.000Z</time>
      </trkpt>
      <trkpt lat="45.78649" lon="4.89287">
        <ele>224.39969</ele>
        <time>2023-08-27T13:29:46.000Z</time>
      </trkpt>
      <trkpt lat="45.78647" lon="4.89289">
        <ele>224.54805</ele>
        <time>2023-08-27T13:29:47.000Z</time>
      </trkpt>
      <trkpt lat="45.78644" lon="4.89291">
        <ele>224.64954</ele>
        <time>2023-08-27T13:29:48.000Z</time>
      </trkpt>
      <trkpt lat="45.78642" lon="4.89293">
        <ele>224.77994</ele>
        <time>2023-08-27T13:29:49.000Z</time>
      </trkpt>
      <trkpt lat="45.7864" lon="4.89296">
        <ele>224.78296</ele>
        <time>2023-08-27T13:29:50.000Z</time>
      </trkpt>
      <trkpt lat="45.78637" lon="4.89299">
        <ele>224.77676</ele>
        <time>2023-08-27T13:29:51.000Z</time>
      </trkpt>
      <trkpt lat="45.78635" lon="4.89302">
        <ele>224.73349</ele>
        <time>2023-08-27T13:29:52.000Z</time>
      </trkpt>
      <trkpt lat="45.78632" lon="4.89305">
        <ele>224.66666</ele>
        <time>2023-08-27T13:29:53.000Z</time>
      </trkpt>
      <trkpt lat="45.78629" lon="4.89309">
        <ele>224.62817</ele>
        <time>2023-08-27T13:29:54.000Z</time>
      </trkpt>
      <trkpt lat="45.78626" lon="4.89311">
        <ele>224.59094</ele>
        <time>2023-08-27T13:29:55.000Z</time>
      </trkpt>
      <trkpt lat="45.78622" lon="4.89314">
        <ele>224.44807</ele>
        <time>2023-08-27T13:29:56.000Z</time>
      </trkpt>
      <trkpt lat="45.78618" lon="4.89317">
        <ele>224.36377</ele>
        <time>2023-08-27T13:29:57.000Z</time>
      </trkpt>
      <trkpt lat="45.78613" lon="4.89319">
        <ele>224.28915</ele>
        <time>2023-08-27T13:29:58.000Z</time>
      </trkpt>
      <trkpt lat="45.78609" lon="4.89321">
        <ele>224.18672</ele>
        <time>2023-08-27T13:29:59.000Z</time>
      </trkpt>
      <trkpt lat="45.78605" lon="4.89324">
        <ele>224.09026</ele>
        <time>2023-08-27T13:30:00.000Z</time>
      </trkpt>
      <trkpt lat="45.78601" lon="4.89327">
        <ele>223.99088</ele>
        <time>2023-08-27T13:30:01.000Z</time>
      </trkpt>
      <trkpt lat="45.78597" lon="4.89329">
        <ele>223.87854</ele>
        <time>2023-08-27T13:30:02.000Z</time>
      </trkpt>
      <trkpt lat="45.78593" lon="4.89332">
        <ele>223.87857</ele>
        <time>2023-08-27T13:30:03.000Z</time>
      </trkpt>
      <trkpt lat="45.78589" lon="4.89334">
        <ele>223.82715</ele>
        <time>2023-08-27T13:30:04.000Z</time>
      </trkpt>
      <trkpt lat="45.78585" lon="4.89336">
        <ele>223.72461</ele>
        <time>2023-08-27T13:30:05.000Z</time>
      </trkpt>
      <trkpt lat="45.78581" lon="4.89338">
        <ele>223.68013</ele>
        <time>2023-08-27T13:30:06.000Z</time>
      </trkpt>
      <trkpt lat="45.78577" lon="4.8934">
        <ele>223.60898</ele>
        <time>2023-08-27T13:30:07.000Z</time>
      </trkpt>
      <trkpt lat="45.78573" lon="4.89343">
        <ele>223.49124</ele>
        <time>2023-08-27T13:30:08.000Z</time>
      </trkpt>
      <trkpt lat="45.78569" lon="4.89345">
        <ele>223.4045</ele>
        <time>2023-08-27T13:30:09.000Z</time>
      </trkpt>
      <trkpt lat="45.78565" lon="4.89347">
        <ele>223.46048</ele>
        <time>2023-08-27T13:30:10.000Z</time>
      </trkpt>
      <trkpt lat="45.78561" lon="4.89349">
        <ele>223.51871</ele>
        <time>2023-08-27T13:30:11.000Z</time>
      </trkpt>
      <trkpt lat="45.78557" lon="4.89351">
        <ele>223.68584</ele>
        <time>2023-08-27T13:30:12.000Z</time>
      </trkpt>
      <trkpt lat="45.78553" lon="4.89354">
        <ele>223.84634</ele>
        <time>2023-08-27T13:30:13.000Z</time>
      </trkpt>
      <trkpt lat="45.78549" lon="4.89356">
        <ele>223.94247</ele>
        <time>2023-08-27T13:30:14.000Z</time>
      </trkpt>
      <trkpt lat="45.78544" lon="4.89358">
        <ele>224.01526</ele>
        <time>2023-08-27T13:30:15.000Z</time>
      </trkpt>
      <trkpt lat="45.7854" lon="4.89361">
        <ele>224.16943</ele>
        <time>2023-08-27T13:30:16.000Z</time>
      </trkpt>
      <trkpt lat="45.78536" lon="4.89363">
        <ele>224.29301</ele>
        <time>2023-08-27T13:30:17.000Z</time>
      </trkpt>
      <trkpt lat="45.78531" lon="4.89366">
        <ele>224.44453</ele>
        <time>2023-08-27T13:30:18.000Z</time>
      </trkpt>
      <trkpt lat="45.78527" lon="4.89368">
        <ele>224.58884</ele>
        <time>2023-08-27T13:30:19.000Z</time>
      </trkpt>
      <trkpt lat="45.78523" lon="4.89371">
        <ele>224.75659</ele>
        <time>2023-08-27T13:30:20.000Z</time>
      </trkpt>
      <trkpt lat="45.78519" lon="4.89372">
        <ele>224.8439</ele>
        <time>2023-08-27T13:30:21.000Z</time>
      </trkpt>
      <trkpt lat="45.78516" lon="4.89374">
        <ele>224.92273</ele>
        <time>2023-08-27T13:30:22.000Z</time>
      </trkpt>
      <trkpt lat="45.78513" lon="4.89376">
        <ele>224.91782</ele>
        <time>2023-08-27T13:30:23.000Z</time>
      </trkpt>
      <trkpt lat="45.78511" lon="4.89376">
        <ele>224.99507</ele>
        <time>2023-08-27T13:30:24.000Z</time>
      </trkpt>
      <trkpt lat="45.78508" lon="4.89377">
        <ele>225.05093</ele>
        <time>2023-08-27T13:30:25.000Z</time>
      </trkpt>
      <trkpt lat="45.78506" lon="4.89378">
        <ele>225.0699</ele>
        <time>2023-08-27T13:30:26.000Z</time>
      </trkpt>
      <trkpt lat="45.78504" lon="4.8938">
        <ele>225.04407</ele>
        <time>2023-08-27T13:30:27.000Z</time>
      </trkpt>
      <trkpt lat="45.78503" lon="4.89382">
        <ele>225.05716</ele>
        <time>2023-08-27T13:30:30.000Z</time>
      </trkpt>
      <trkpt lat="45.78501" lon="4.89384">
        <ele>225.08223</ele>
        <time>2023-08-27T13:30:32.000Z</time>
      </trkpt>
      <trkpt lat="45.78497" lon="4.89384">
        <ele>225.12383</ele>
        <time>2023-08-27T13:30:34.000Z</time>
      </trkpt>
      <trkpt lat="45.78495" lon="4.89384">
        <ele>225.19443</ele>
        <time>2023-08-27T13:30:35.000Z</time>
      </trkpt>
      <trkpt lat="45.78493" lon="4.89384">
        <ele>225.17717</ele>
        <time>2023-08-27T13:30:36.000Z</time>
      </trkpt>
      <trkpt lat="45.7849" lon="4.89385">
        <ele>225.14542</ele>
        <time>2023-08-27T13:30:38.000Z</time>
      </trkpt>
      <trkpt lat="45.78488" lon="4.89386">
        <ele>225.14246</ele>
        <time>2023-08-27T13:30:39.000Z</time>
      </trkpt>
      <trkpt lat="45.78485" lon="4.89387">
        <ele>225.1451</ele>
        <time>2023-08-27T13:30:41.000Z</time>
      </trkpt>
      <trkpt lat="45.78482" lon="4.89388">
        <ele>225.14388</ele>
        <time>2023-08-27T13:30:43.000Z</time>
      </trkpt>
      <trkpt lat="45.7848" lon="4.89389">
        <ele>225.16594</ele>
        <time>2023-08-27T13:30:44.000Z</time>
      </trkpt>
      <trkpt lat="45.78477" lon="4.89391">
        <ele>225.08557</ele>
        <time>2023-08-27T13:30:46.000Z</time>
      </trkpt>
      <trkpt lat="45.78475" lon="4.89392">
        <ele>224.99243</ele>
        <time>2023-08-27T13:30:48.000Z</time>
      </trkpt>
      <trkpt lat="45.78472" lon="4.89393">
        <ele>224.87149</ele>
        <time>2023-08-27T13:30:50.000Z</time>
      </trkpt>
      <trkpt lat="45.78468" lon="4.89393">
        <ele>224.87866</ele>
        <time>2023-08-27T13:30:52.000Z</time>
      </trkpt>
      <trkpt lat="45.78466" lon="4.89394">
        <ele>224.87781</ele>
        <time>2023-08-27T13:30:53.000Z</time>
      </trkpt>
      <trkpt lat="45.78463" lon="4.89396">
        <ele>224.87076</ele>
        <time>2023-08-27T13:30:54.000Z</time>
      </trkpt>
      <trkpt lat="45.7846" lon="4.89399">
        <ele>224.91142</ele>
        <time>2023-08-27T13:30:55.000Z</time>
      </trkpt>
      <trkpt lat="45.78458" lon="4.894">
        <ele>225.02441</ele>
        <time>2023-08-27T13:30:56.000Z</time>
      </trkpt>
      <trkpt lat="45.78455" lon="4.89402">
        <ele>225.14719</ele>
        <time>2023-08-27T13:30:57.000Z</time>
      </trkpt>
      <trkpt lat="45.78452" lon="4.89404">
        <ele>225.29472</ele>
        <time>2023-08-27T13:30:58.000Z</time>
      </trkpt>
      <trkpt lat="45.78448" lon="4.89406">
        <ele>225.47824</ele>
        <time>2023-08-27T13:30:59.000Z</time>
      </trkpt>
      <trkpt lat="45.78444" lon="4.89408">
        <ele>225.59763</ele>
        <time>2023-08-27T13:31:00.000Z</time>
      </trkpt>
      <trkpt lat="45.7844" lon="4.89409">
        <ele>225.73247</ele>
        <time>2023-08-27T13:31:01.000Z</time>
      </trkpt>
      <trkpt lat="45.78436" lon="4.89411">
        <ele>225.80997</ele>
        <time>2023-08-27T13:31:02.000Z</time>
      </trkpt>
      <trkpt lat="45.78432" lon="4.89413">
        <ele>225.90337</ele>
        <time>2023-08-27T13:31:03.000Z</time>
      </trkpt>
      <trkpt lat="45.78428" lon="4.89415">
        <ele>226.05161</ele>
        <time>2023-08-27T13:31:04.000Z</time>
      </trkpt>
      <trkpt lat="45.78424" lon="4.89418">
        <ele>226.13835</ele>
        <time>2023-08-27T13:31:05.000Z</time>
      </trkpt>
      <trkpt lat="45.7842" lon="4.89423">
        <ele>226.23271</ele>
        <time>2023-08-27T13:31:06.000Z</time>
      </trkpt>
      <trkpt lat="45.78418" lon="4.89428">
        <ele>226.3455</ele>
        <time>2023-08-27T13:31:07.000Z</time>
      </trkpt>
      <trkpt lat="45.78415" lon="4.89432">
        <ele>226.42032</ele>
        <time>2023-08-27T13:31:08.000Z</time>
      </trkpt>
      <trkpt lat="45.78417" lon="4.89438">
        <ele>226.5679</ele>
        <time>2023-08-27T13:31:09.000Z</time>
      </trkpt>
      <trkpt lat="45.78418" lon="4.89443">
        <ele>226.71005</ele>
        <time>2023-08-27T13:31:10.000Z</time>
      </trkpt>
      <trkpt lat="45.78419" lon="4.89448">
        <ele>226.84062</ele>
        <time>2023-08-27T13:31:11.000Z</time>
      </trkpt>
      <trkpt lat="45.78421" lon="4.89453">
        <ele>226.96016</ele>
        <time>2023-08-27T13:31:12.000Z</time>
      </trkpt>
      <trkpt lat="45.78422" lon="4.89458">
        <ele>227.09261</ele>
        <time>2023-08-27T13:31:13.000Z</time>
      </trkpt>
      <trkpt lat="45.78424" lon="4.89464">
        <ele>227.16751</ele>
        <time>2023-08-27T13:31:14.000Z</time>
      </trkpt>
      <trkpt lat="45.78425" lon="4.8947">
        <ele>227.21036</ele>
        <time>2023-08-27T13:31:15.000Z</time>
      </trkpt>
      <trkpt lat="45.78427" lon="4.89475">
        <ele>227.18692</ele>
        <time>2023-08-27T13:31:16.000Z</time>
      </trkpt>
      <trkpt lat="45.78428" lon="4.89481">
        <ele>227.12732</ele>
        <time>2023-08-27T13:31:17.000Z</time>
      </trkpt>
      <trkpt lat="45.7843" lon="4.89485">
        <ele>227.04163</ele>
        <time>2023-08-27T13:31:18.000Z</time>
      </trkpt>
      <trkpt lat="45.78432" lon="4.8949">
        <ele>226.90781</ele>
        <time>2023-08-27T13:31:19.000Z</time>
      </trkpt>
      <trkpt lat="45.78434" lon="4.89494">
        <ele>226.84138</ele>
        <time>2023-08-27T13:31:20.000Z</time>
      </trkpt>
      <trkpt lat="45.78436" lon="4.89498">
        <ele>226.69656</ele>
        <time>2023-08-27T13:31:21.000Z</time>
      </trkpt>
      <trkpt lat="45.78438" lon="4.89501">
        <ele>226.56262</ele>
        <time>2023-08-27T13:31:22.000Z</time>
      </trkpt>
      <trkpt lat="45.78439" lon="4.89505">
        <ele>226.41121</ele>
        <time>2023-08-27T13:31:23.000Z</time>
      </trkpt>
      <trkpt lat="45.78439" lon="4.89509">
        <ele>226.24393</ele>
        <time>2023-08-27T13:31:24.000Z</time>
      </trkpt>
      <trkpt lat="45.78439" lon="4.89513">
        <ele>226.10567</ele>
        <time>2023-08-27T13:31:25.000Z</time>
      </trkpt>
      <trkpt lat="45.78439" lon="4.89517">
        <ele>225.96114</ele>
        <time>2023-08-27T13:31:26.000Z</time>
      </trkpt>
      <trkpt lat="45.78439" lon="4.89522">
        <ele>225.79741</ele>
        <time>2023-08-27T13:31:27.000Z</time>
      </trkpt>
      <trkpt lat="45.7844" lon="4.89525">
        <ele>225.64546</ele>
        <time>2023-08-27T13:31:28.000Z</time>
      </trkpt>
      <trkpt lat="45.78441" lon="4.89529">
        <ele>225.52048</ele>
        <time>2023-08-27T13:31:29.000Z</time>
      </trkpt>
      <trkpt lat="45.78442" lon="4.89532">
        <ele>225.42366</ele>
        <time>2023-08-27T13:31:30.000Z</time>
      </trkpt>
      <trkpt lat="45.78444" lon="4.89534">
        <ele>225.37442</ele>
        <time>2023-08-27T13:31:31.000Z</time>
      </trkpt>
      <trkpt lat="45.78445" lon="4.89536">
        <ele>225.28381</ele>
        <time>2023-08-27T13:31:32.000Z</time>
      </trkpt>
      <trkpt lat="45.78446" lon="4.8954">
        <ele>225.16714</ele>
        <time>2023-08-27T13:31:33.000Z</time>
      </trkpt>
      <trkpt lat="45.78445" lon="4.89543">
        <ele>225.12923</ele>
        <time>2023-08-27T13:31:34.000Z</time>
      </trkpt>
      <trkpt lat="45.78442" lon="4.89545">
        <ele>225.08945</ele>
        <time>2023-08-27T13:31:35.000Z</time>
      </trkpt>
      <trkpt lat="45.7844" lon="4.89543">
        <ele>225.07364</ele>
        <time>2023-08-27T13:31:36.000Z</time>
      </trkpt>
      <trkpt lat="45.78438" lon="4.8954">
        <ele>225.06665</ele>
        <time>2023-08-27T13:31:37.000Z</time>
      </trkpt>
      <trkpt lat="45.78436" lon="4.89536">
        <ele>225.08919</ele>
        <time>2023-08-27T13:31:38.000Z</time>
      </trkpt>
      <trkpt lat="45.78435" lon="4.89532">
        <ele>225.18767</ele>
        <time>2023-08-27T13:31:39.000Z</time>
      </trkpt>
      <trkpt lat="45.78433" lon="4.89529">
        <ele>225.27087</ele>
        <time>2023-08-27T13:31:40.000Z</time>
      </trkpt>
      <trkpt lat="45.78431" lon="4.89526">
        <ele>225.42387</ele>
        <time>2023-08-27T13:31:41.000Z</time>
      </trkpt>
      <trkpt lat="45.78429" lon="4.89523">
        <ele>225.5739</ele>
        <time>2023-08-27T13:31:42.000Z</time>
      </trkpt>
      <trkpt lat="45.78427" lon="4.89519">
        <ele>225.72058</ele>
        <time>2023-08-27T13:31:43.000Z</time>
      </trkpt>
      <trkpt lat="45.78426" lon="4.89515">
        <ele>225.86726</ele>
        <time>2023-08-27T13:31:44.000Z</time>
      </trkpt>
      <trkpt lat="45.78425" lon="4.89511">
        <ele>225.99234</ele>
        <time>2023-08-27T13:31:45.000Z</time>
      </trkpt>
      <trkpt lat="45.78424" lon="4.89508">
        <ele>226.12851</ele>
        <time>2023-08-27T13:31:46.000Z</time>
      </trkpt>
      <trkpt lat="45.78422" lon="4.89504">
        <ele>226.28577</ele>
        <time>2023-08-27T13:31:47.000Z</time>
      </trkpt>
      <trkpt lat="45.78421" lon="4.89501">
        <ele>226.38228</ele>
        <time>2023-08-27T13:31:48.000Z</time>
      </trkpt>
      <trkpt lat="45.78419" lon="4.89497">
        <ele>226.49283</ele>
        <time>2023-08-27T13:31:49.000Z</time>
      </trkpt>
      <trkpt lat="45.78418" lon="4.89494">
        <ele>226.60103</ele>
        <time>2023-08-27T13:31:50.000Z</time>
      </trkpt>
      <trkpt lat="45.78417" lon="4.89491">
        <ele>226.6722</ele>
        <time>2023-08-27T13:31:51.000Z</time>
      </trkpt>
      <trkpt lat="45.78415" lon="4.89487">
        <ele>226.75981</ele>
        <time>2023-08-27T13:31:52.000Z</time>
      </trkpt>
      <trkpt lat="45.78414" lon="4.89483">
        <ele>226.8835</ele>
        <time>2023-08-27T13:31:53.000Z</time>
      </trkpt>
      <trkpt lat="45.78413" lon="4.89479">
        <ele>226.96384</ele>
        <time>2023-08-27T13:31:54.000Z</time>
      </trkpt>
      <trkpt lat="45.78412" lon="4.89476">
        <ele>227.02202</ele>
        <time>2023-08-27T13:31:55.000Z</time>
      </trkpt>
      <trkpt lat="45.7841" lon="4.89472">
        <ele>227.08521</ele>
        <time>2023-08-27T13:31:56.000Z</time>
      </trkpt>
      <trkpt lat="45.78409" lon="4.89467">
        <ele>227.17058</ele>
        <time>2023-08-27T13:31:57.000Z</time>
      </trkpt>
      <trkpt lat="45.78407" lon="4.89464">
        <ele>227.26416</ele>
        <time>2023-08-27T13:31:58.000Z</time>
      </trkpt>
      <trkpt lat="45.78406" lon="4.8946">
        <ele>227.31697</ele>
        <time>2023-08-27T13:31:59.000Z</time>
      </trkpt>
      <trkpt lat="45.78405" lon="4.89456">
        <ele>227.38266</ele>
        <time>2023-08-27T13:32:00.000Z</time>
      </trkpt>
      <trkpt lat="45.78404" lon="4.89451">
        <ele>227.3968</ele>
        <time>2023-08-27T13:32:01.000Z</time>
      </trkpt>
      <trkpt lat="45.78403" lon="4.89446">
        <ele>227.45125</ele>
        <time>2023-08-27T13:32:02.000Z</time>
      </trkpt>
      <trkpt lat="45.78401" lon="4.89441">
        <ele>227.52718</ele>
        <time>2023-08-27T13:32:03.000Z</time>
      </trkpt>
      <trkpt lat="45.784" lon="4.89437">
        <ele>227.61307</ele>
        <time>2023-08-27T13:32:04.000Z</time>
      </trkpt>
      <trkpt lat="45.78398" lon="4.89432">
        <ele>227.74423</ele>
        <time>2023-08-27T13:32:05.000Z</time>
      </trkpt>
      <trkpt lat="45.78397" lon="4.89428">
        <ele>227.86032</ele>
        <time>2023-08-27T13:32:06.000Z</time>
      </trkpt>
      <trkpt lat="45.78396" lon="4.89423">
        <ele>227.94785</ele>
        <time>2023-08-27T13:32:07.000Z</time>
      </trkpt>
      <trkpt lat="45.78395" lon="4.89419">
        <ele>228.09221</ele>
        <time>2023-08-27T13:32:08.000Z</time>
      </trkpt>
      <trkpt lat="45.78394" lon="4.89414">
        <ele>228.20984</ele>
        <time>2023-08-27T13:32:09.000Z</time>
      </trkpt>
      <trkpt lat="45.78393" lon="4.89409">
        <ele>228.31375</ele>
        <time>2023-08-27T13:32:10.000Z</time>
      </trkpt>
      <trkpt lat="45.78391" lon="4.89404">
        <ele>228.43364</ele>
        <time>2023-08-27T13:32:11.000Z</time>
      </trkpt>
      <trkpt lat="45.7839" lon="4.89398">
        <ele>228.58769</ele>
        <time>2023-08-27T13:32:12.000Z</time>
      </trkpt>
      <trkpt lat="45.78389" lon="4.89393">
        <ele>228.72177</ele>
        <time>2023-08-27T13:32:13.000Z</time>
      </trkpt>
      <trkpt lat="45.78387" lon="4.89388">
        <ele>228.90105</ele>
        <time>2023-08-27T13:32:14.000Z</time>
      </trkpt>
      <trkpt lat="45.78386" lon="4.89384">
        <ele>229.07256</ele>
        <time>2023-08-27T13:32:15.000Z</time>
      </trkpt>
      <trkpt lat="45.78385" lon="4.89379">
        <ele>229.22041</ele>
        <time>2023-08-27T13:32:16.000Z</time>
      </trkpt>
      <trkpt lat="45.78383" lon="4.89374">
        <ele>229.34949</ele>
        <time>2023-08-27T13:32:17.000Z</time>
      </trkpt>
      <trkpt lat="45.78382" lon="4.89369">
        <ele>229.46675</ele>
        <time>2023-08-27T13:32:18.000Z</time>
      </trkpt>
      <trkpt lat="45.78381" lon="4.89364">
        <ele>229.56503</ele>
        <time>2023-08-27T13:32:19.000Z</time>
      </trkpt>
      <trkpt lat="45.7838" lon="4.89359">
        <ele>229.64204</ele>
        <time>2023-08-27T13:32:20.000Z</time>
      </trkpt>
      <trkpt lat="45.78378" lon="4.89354">
        <ele>229.74988</ele>
        <time>2023-08-27T13:32:21.000Z</time>
      </trkpt>
      <trkpt lat="45.78377" lon="4.89349">
        <ele>229.81929</ele>
        <time>2023-08-27T13:32:22.000Z</time>
      </trkpt>
      <trkpt lat="45.78376" lon="4.89344">
        <ele>229.87068</ele>
        <time>2023-08-27T13:32:23.000Z</time>
      </trkpt>
      <trkpt lat="45.78374" lon="4.89339">
        <ele>229.89209</ele>
        <time>2023-08-27T13:32:24.000Z</time>
      </trkpt>
      <trkpt lat="45.78373" lon="4.89333">
        <ele>229.90079</ele>
        <time>2023-08-27T13:32:25.000Z</time>
      </trkpt>
      <trkpt lat="45.78372" lon="4.89328">
        <ele>229.90683</ele>
        <time>2023-08-27T13:32:26.000Z</time>
      </trkpt>
      <trkpt lat="45.78371" lon="4.89322">
        <ele>229.94339</ele>
        <time>2023-08-27T13:32:27.000Z</time>
      </trkpt>
      <trkpt lat="45.78369" lon="4.89316">
        <ele>229.97079</ele>
        <time>2023-08-27T13:32:28.000Z</time>
      </trkpt>
      <trkpt lat="45.78368" lon="4.89311">
        <ele>229.99094</ele>
        <time>2023-08-27T13:32:29.000Z</time>
      </trkpt>
      <trkpt lat="45.78367" lon="4.89304">
        <ele>230.01521</ele>
        <time>2023-08-27T13:32:30.000Z</time>
      </trkpt>
      <trkpt lat="45.78366" lon="4.89298">
        <ele>230.05354</ele>
        <time>2023-08-27T13:32:31.000Z</time>
      </trkpt>
      <trkpt lat="45.78364" lon="4.89292">
        <ele>230.05087</ele>
        <time>2023-08-27T13:32:32.000Z</time>
      </trkpt>
      <trkpt lat="45.78363" lon="4.89285">
        <ele>230.05942</ele>
        <time>2023-08-27T13:32:33.000Z</time>
      </trkpt>
      <trkpt lat="45.78362" lon="4.8928">
        <ele>230.0452</ele>
        <time>2023-08-27T13:32:34.000Z</time>
      </trkpt>
      <trkpt lat="45.7836" lon="4.89274">
        <ele>230.05692</ele>
        <time>2023-08-27T13:32:35.000Z</time>
      </trkpt>
      <trkpt lat="45.78359" lon="4.89268">
        <ele>230.0623</ele>
        <time>2023-08-27T13:32:36.000Z</time>
      </trkpt>
      <trkpt lat="45.78359" lon="4.89262">
        <ele>230.06441</ele>
        <time>2023-08-27T13:32:37.000Z</time>
      </trkpt>
      <trkpt lat="45.78358" lon="4.89255">
        <ele>230.05998</ele>
        <time>2023-08-27T13:32:38.000Z</time>
      </trkpt>
      <trkpt lat="45.78358" lon="4.89248">
        <ele>230.03653</ele>
        <time>2023-08-27T13:32:39.000Z</time>
      </trkpt>
      <trkpt lat="45.78358" lon="4.89242">
        <ele>230.01155</ele>
        <time>2023-08-27T13:32:40.000Z</time>
      </trkpt>
      <trkpt lat="45.78359" lon="4.89235">
        <ele>229.9437</ele>
        <time>2023-08-27T13:32:41.000Z</time>
      </trkpt>
      <trkpt lat="45.78361" lon="4.89228">
        <ele>229.89157</ele>
        <time>2023-08-27T13:32:42.000Z</time>
      </trkpt>
      <trkpt lat="45.78363" lon="4.89223">
        <ele>229.84531</ele>
        <time>2023-08-27T13:32:43.000Z</time>
      </trkpt>
      <trkpt lat="45.78365" lon="4.89217">
        <ele>229.83899</ele>
        <time>2023-08-27T13:32:44.000Z</time>
      </trkpt>
      <trkpt lat="45.78369" lon="4.89214">
        <ele>229.83064</ele>
        <time>2023-08-27T13:32:45.000Z</time>
      </trkpt>
      <trkpt lat="45.78372" lon="4.8921">
        <ele>229.84224</ele>
        <time>2023-08-27T13:32:46.000Z</time>
      </trkpt>
      <trkpt lat="45.78375" lon="4.89207">
        <ele>229.8494</ele>
        <time>2023-08-27T13:32:47.000Z</time>
      </trkpt>
      <trkpt lat="45.78378" lon="4.89204">
        <ele>229.85286</ele>
        <time>2023-08-27T13:32:48.000Z</time>
      </trkpt>
      <trkpt lat="45.78381" lon="4.89201">
        <ele>229.85295</ele>
        <time>2023-08-27T13:32:49.000Z</time>
      </trkpt>
      <trkpt lat="45.78384" lon="4.89198">
        <ele>229.87053</ele>
        <time>2023-08-27T13:32:50.000Z</time>
      </trkpt>
      <trkpt lat="45.78387" lon="4.89195">
        <ele>229.87961</ele>
        <time>2023-08-27T13:32:51.000Z</time>
      </trkpt>
      <trkpt lat="45.78389" lon="4.89192">
        <ele>229.88997</ele>
        <time>2023-08-27T13:32:52.000Z</time>
      </trkpt>
      <trkpt lat="45.78392" lon="4.89189">
        <ele>229.89774</ele>
        <time>2023-08-27T13:32:53.000Z</time>
      </trkpt>
      <trkpt lat="45.78394" lon="4.89185">
        <ele>229.91362</ele>
        <time>2023-08-27T13:32:54.000Z</time>
      </trkpt>
      <trkpt lat="45.78398" lon="4.89183">
        <ele>229.89621</ele>
        <time>2023-08-27T13:32:55.000Z</time>
      </trkpt>
      <trkpt lat="45.78401" lon="4.8918">
        <ele>229.86377</ele>
        <time>2023-08-27T13:32:56.000Z</time>
      </trkpt>
      <trkpt lat="45.78404" lon="4.89178">
        <ele>229.82268</ele>
        <time>2023-08-27T13:32:57.000Z</time>
      </trkpt>
      <trkpt lat="45.78407" lon="4.89174">
        <ele>229.78952</ele>
        <time>2023-08-27T13:32:58.000Z</time>
      </trkpt>
      <trkpt lat="45.7841" lon="4.89172">
        <ele>229.76331</ele>
        <time>2023-08-27T13:32:59.000Z</time>
      </trkpt>
      <trkpt lat="45.78413" lon="4.8917">
        <ele>229.74316</ele>
        <time>2023-08-27T13:33:00.000Z</time>
      </trkpt>
      <trkpt lat="45.78417" lon="4.8917">
        <ele>229.76274</ele>
        <time>2023-08-27T13:33:01.000Z</time>
      </trkpt>
      <trkpt lat="45.78419" lon="4.89173">
        <ele>229.78885</ele>
        <time>2023-08-27T13:33:02.000Z</time>
      </trkpt>
      <trkpt lat="45.78419" lon="4.89176">
        <ele>229.79691</ele>
        <time>2023-08-27T13:33:03.000Z</time>
      </trkpt>
      <trkpt lat="45.78418" lon="4.89179">
        <ele>229.79428</ele>
        <time>2023-08-27T13:33:04.000Z</time>
      </trkpt>
      <trkpt lat="45.78417" lon="4.89182">
        <ele>229.7677</ele>
        <time>2023-08-27T13:33:05.000Z</time>
      </trkpt>
      <trkpt lat="45.78415" lon="4.89185">
        <ele>229.71085</ele>
        <time>2023-08-27T13:33:06.000Z</time>
      </trkpt>
      <trkpt lat="45.78413" lon="4.89188">
        <ele>229.60921</ele>
        <time>2023-08-27T13:33:07.000Z</time>
      </trkpt>
      <trkpt lat="45.78412" lon="4.8919">
        <ele>229.4998</ele>
        <time>2023-08-27T13:33:08.000Z</time>
      </trkpt>
      <trkpt lat="45.78411" lon="4.89192">
        <ele>229.37129</ele>
        <time>2023-08-27T13:33:09.000Z</time>
      </trkpt>
      <trkpt lat="45.78408" lon="4.89194">
        <ele>229.21045</ele>
        <time>2023-08-27T13:33:10.000Z</time>
      </trkpt>
      <trkpt lat="45.78406" lon="4.89197">
        <ele>229.02922</ele>
        <time>2023-08-27T13:33:11.000Z</time>
      </trkpt>
      <trkpt lat="45.78403" lon="4.89201">
        <ele>228.84952</ele>
        <time>2023-08-27T13:33:12.000Z</time>
      </trkpt>
      <trkpt lat="45.78402" lon="4.89205">
        <ele>228.70108</ele>
        <time>2023-08-27T13:33:13.000Z</time>
      </trkpt>
      <trkpt lat="45.78402" lon="4.89209">
        <ele>228.56308</ele>
        <time>2023-08-27T13:33:14.000Z</time>
      </trkpt>
      <trkpt lat="45.78403" lon="4.89214">
        <ele>228.44339</ele>
        <time>2023-08-27T13:33:15.000Z</time>
      </trkpt>
      <trkpt lat="45.78404" lon="4.89217">
        <ele>228.35078</ele>
        <time>2023-08-27T13:33:16.000Z</time>
      </trkpt>
      <trkpt lat="45.78406" lon="4.89219">
        <ele>228.18198</ele>
        <time>2023-08-27T13:33:17.000Z</time>
      </trkpt>
      <trkpt lat="45.78407" lon="4.8922">
        <ele>228.0562</ele>
        <time>2023-08-27T13:33:18.000Z</time>
      </trkpt>
      <trkpt lat="45.78409" lon="4.89222">
        <ele>227.95967</ele>
        <time>2023-08-27T13:33:19.000Z</time>
      </trkpt>
      <trkpt lat="45.78411" lon="4.89224">
        <ele>227.87842</ele>
        <time>2023-08-27T13:33:20.000Z</time>
      </trkpt>
      <trkpt lat="45.78413" lon="4.89226">
        <ele>227.78365</ele>
        <time>2023-08-27T13:33:21.000Z</time>
      </trkpt>
      <trkpt lat="45.78415" lon="4.89228">
        <ele>227.68555</ele>
        <time>2023-08-27T13:33:22.000Z</time>
      </trkpt>
      <trkpt lat="45.78417" lon="4.89228">
        <ele>227.61333</ele>
        <time>2023-08-27T13:33:23.000Z</time>
      </trkpt>
      <trkpt lat="45.78419" lon="4.89226">
        <ele>227.5114</ele>
        <time>2023-08-27T13:33:25.000Z</time>
      </trkpt>
      <trkpt lat="45.78422" lon="4.89224">
        <ele>227.43111</ele>
        <time>2023-08-27T13:33:33.000Z</time>
      </trkpt>
      <trkpt lat="45.78424" lon="4.89222">
        <ele>227.35263</ele>
        <time>2023-08-27T13:33:34.000Z</time>
      </trkpt>
      <trkpt lat="45.78426" lon="4.89221">
        <ele>227.2961</ele>
        <time>2023-08-27T13:33:35.000Z</time>
      </trkpt>
      <trkpt lat="45.78428" lon="4.8922">
        <ele>227.26213</ele>
        <time>2023-08-27T13:33:36.000Z</time>
      </trkpt>
      <trkpt lat="45.7843" lon="4.89219">
        <ele>227.22571</ele>
        <time>2023-08-27T13:33:37.000Z</time>
      </trkpt>
      <trkpt lat="45.78432" lon="4.89217">
        <ele>227.2094</ele>
        <time>2023-08-27T13:33:38.000Z</time>
      </trkpt>
      <trkpt lat="45.78435" lon="4.89216">
        <ele>227.21098</ele>
        <time>2023-08-27T13:33:39.000Z</time>
      </trkpt>
      <trkpt lat="45.78437" lon="4.89216">
        <ele>227.21042</ele>
        <time>2023-08-27T13:33:40.000Z</time>
      </trkpt>
      <trkpt lat="45.78439" lon="4.89216">
        <ele>227.18904</ele>
        <time>2023-08-27T13:33:41.000Z</time>
      </trkpt>
      <trkpt lat="45.78442" lon="4.89218">
        <ele>227.15479</ele>
        <time>2023-08-27T13:33:43.000Z</time>
      </trkpt>
      <trkpt lat="45.78444" lon="4.89219">
        <ele>227.12711</ele>
        <time>2023-08-27T13:33:44.000Z</time>
      </trkpt>
      <trkpt lat="45.78446" lon="4.89221">
        <ele>227.10442</ele>
        <time>2023-08-27T13:33:45.000Z</time>
      </trkpt>
      <trkpt lat="45.78448" lon="4.89224">
        <ele>227.14339</ele>
        <time>2023-08-27T13:33:47.000Z</time>
      </trkpt>
      <trkpt lat="45.78448" lon="4.89229">
        <ele>227.18913</ele>
        <time>2023-08-27T13:33:49.000Z</time>
      </trkpt>
      <trkpt lat="45.78446" lon="4.89233">
        <ele>227.16956</ele>
        <time>2023-08-27T13:33:51.000Z</time>
      </trkpt>
      <trkpt lat="45.78446" lon="4.89235">
        <ele>227.16049</ele>
        <time>2023-08-27T13:33:52.000Z</time>
      </trkpt>
      <trkpt lat="45.78445" lon="4.89241">
        <ele>227.13217</ele>
        <time>2023-08-27T13:33:54.000Z</time>
      </trkpt>
      <trkpt lat="45.78445" lon="4.89245">
        <ele>227.07364</ele>
        <time>2023-08-27T13:33:55.000Z</time>
      </trkpt>
      <trkpt lat="45.78444" lon="4.8925">
        <ele>226.99268</ele>
        <time>2023-08-27T13:33:56.000Z</time>
      </trkpt>
      <trkpt lat="45.78443" lon="4.89255">
        <ele>226.92062</ele>
        <time>2023-08-27T13:33:57.000Z</time>
      </trkpt>
      <trkpt lat="45.7844" lon="4.8926">
        <ele>226.87515</ele>
        <time>2023-08-27T13:33:58.000Z</time>
      </trkpt>
      <trkpt lat="45.78437" lon="4.89263">
        <ele>226.79526</ele>
        <time>2023-08-27T13:33:59.000Z</time>
      </trkpt>
      <trkpt lat="45.78434" lon="4.89265">
        <ele>226.69666</ele>
        <time>2023-08-27T13:34:00.000Z</time>
      </trkpt>
      <trkpt lat="45.7843" lon="4.89267">
        <ele>226.57231</ele>
        <time>2023-08-27T13:34:01.000Z</time>
      </trkpt>
      <trkpt lat="45.78427" lon="4.89268">
        <ele>226.47798</ele>
        <time>2023-08-27T13:34:02.000Z</time>
      </trkpt>
      <trkpt lat="45.78424" lon="4.89269">
        <ele>226.35962</ele>
        <time>2023-08-27T13:34:03.000Z</time>
      </trkpt>
      <trkpt lat="45.7842" lon="4.89271">
        <ele>226.24252</ele>
        <time>2023-08-27T13:34:04.000Z</time>
      </trkpt>
      <trkpt lat="45.78417" lon="4.89272">
        <ele>226.13408</ele>
        <time>2023-08-27T13:34:05.000Z</time>
      </trkpt>
      <trkpt lat="45.78413" lon="4.89273">
        <ele>226.00064</ele>
        <time>2023-08-27T13:34:06.000Z</time>
      </trkpt>
      <trkpt lat="45.78409" lon="4.89275">
        <ele>225.86636</ele>
        <time>2023-08-27T13:34:07.000Z</time>
      </trkpt>
      <trkpt lat="45.78404" lon="4.89277">
        <ele>225.71109</ele>
        <time>2023-08-27T13:34:08.000Z</time>
      </trkpt>
      <trkpt lat="45.784" lon="4.89278">
        <ele>225.54834</ele>
        <time>2023-08-27T13:34:09.000Z</time>
      </trkpt>
      <trkpt lat="45.78396" lon="4.8928">
        <ele>225.4277</ele>
        <time>2023-08-27T13:34:10.000Z</time>
      </trkpt>
      <trkpt lat="45.78392" lon="4.89281">
        <ele>225.24014</ele>
        <time>2023-08-27T13:34:11.000Z</time>
      </trkpt>
      <trkpt lat="45.78389" lon="4.89283">
        <ele>225.1169</ele>
        <time>2023-08-27T13:34:12.000Z</time>
      </trkpt>
      <trkpt lat="45.78385" lon="4.89284">
        <ele>224.99475</ele>
        <time>2023-08-27T13:34:13.000Z</time>
      </trkpt>
      <trkpt lat="45.7838" lon="4.89287">
        <ele>224.8741</ele>
        <time>2023-08-27T13:34:14.000Z</time>
      </trkpt>
      <trkpt lat="45.78376" lon="4.89289">
        <ele>224.78947</ele>
        <time>2023-08-27T13:34:15.000Z</time>
      </trkpt>
      <trkpt lat="45.78372" lon="4.89291">
        <ele>224.70871</ele>
        <time>2023-08-27T13:34:16.000Z</time>
      </trkpt>
      <trkpt lat="45.78366" lon="4.89293">
        <ele>224.50032</ele>
        <time>2023-08-27T13:34:17.000Z</time>
      </trkpt>
      <trkpt lat="45.78362" lon="4.89292">
        <ele>224.34805</ele>
        <time>2023-08-27T13:34:18.000Z</time>
      </trkpt>
      <trkpt lat="45.78358" lon="4.89295">
        <ele>224.22795</ele>
        <time>2023-08-27T13:34:19.000Z</time>
      </trkpt>
      <trkpt lat="45.78353" lon="4.89298">
        <ele>224.1291</ele>
        <time>2023-08-27T13:34:20.000Z</time>
      </trkpt>
      <trkpt lat="45.78349" lon="4.893">
        <ele>224.0822</ele>
        <time>2023-08-27T13:34:21.000Z</time>
      </trkpt>
      <trkpt lat="45.78343" lon="4.89304">
        <ele>224.05179</ele>
        <time>2023-08-27T13:34:22.000Z</time>
      </trkpt>
      <trkpt lat="45.78338" lon="4.89302">
        <ele>224.05029</ele>
        <time>2023-08-27T13:34:23.000Z</time>
      </trkpt>
      <trkpt lat="45.78334" lon="4.89305">
        <ele>224.04533</ele>
        <time>2023-08-27T13:34:24.000Z</time>
      </trkpt>
      <trkpt lat="45.7833" lon="4.89308">
        <ele>224.00359</ele>
        <time>2023-08-27T13:34:25.000Z</time>
      </trkpt>
      <trkpt lat="45.78326" lon="4.8931">
        <ele>223.94327</ele>
        <time>2023-08-27T13:34:26.000Z</time>
      </trkpt>
      <trkpt lat="45.78322" lon="4.89312">
        <ele>223.8457</ele>
        <time>2023-08-27T13:34:27.000Z</time>
      </trkpt>
      <trkpt lat="45.78318" lon="4.89314">
        <ele>223.77805</ele>
        <time>2023-08-27T13:34:28.000Z</time>
      </trkpt>
      <trkpt lat="45.78313" lon="4.89316">
        <ele>223.74512</ele>
        <time>2023-08-27T13:34:29.000Z</time>
      </trkpt>
      <trkpt lat="45.78309" lon="4.89318">
        <ele>223.72266</ele>
        <time>2023-08-27T13:34:30.000Z</time>
      </trkpt>
      <trkpt lat="45.78305" lon="4.8932">
        <ele>223.72798</ele>
        <time>2023-08-27T13:34:31.000Z</time>
      </trkpt>
      <trkpt lat="45.78302" lon="4.89322">
        <ele>223.72649</ele>
        <time>2023-08-27T13:34:32.000Z</time>
      </trkpt>
      <trkpt lat="45.78297" lon="4.89323">
        <ele>223.70517</ele>
        <time>2023-08-27T13:34:33.000Z</time>
      </trkpt>
      <trkpt lat="45.78292" lon="4.89325">
        <ele>223.75874</ele>
        <time>2023-08-27T13:34:34.000Z</time>
      </trkpt>
      <trkpt lat="45.78288" lon="4.89327">
        <ele>223.79118</ele>
        <time>2023-08-27T13:34:35.000Z</time>
      </trkpt>
      <trkpt lat="45.78284" lon="4.89329">
        <ele>223.823</ele>
        <time>2023-08-27T13:34:36.000Z</time>
      </trkpt>
      <trkpt lat="45.78279" lon="4.8933">
        <ele>224.01933</ele>
        <time>2023-08-27T13:34:37.000Z</time>
      </trkpt>
      <trkpt lat="45.78275" lon="4.89329">
        <ele>224.20889</ele>
        <time>2023-08-27T13:34:38.000Z</time>
      </trkpt>
      <trkpt lat="45.7827" lon="4.89332">
        <ele>224.42618</ele>
        <time>2023-08-27T13:34:39.000Z</time>
      </trkpt>
      <trkpt lat="45.78266" lon="4.89334">
        <ele>224.62195</ele>
        <time>2023-08-27T13:34:40.000Z</time>
      </trkpt>
      <trkpt lat="45.78262" lon="4.89336">
        <ele>224.78471</ele>
        <time>2023-08-27T13:34:41.000Z</time>
      </trkpt>
      <trkpt lat="45.78258" lon="4.89339">
        <ele>224.91582</ele>
        <time>2023-08-27T13:34:42.000Z</time>
      </trkpt>
      <trkpt lat="45.78254" lon="4.89342">
        <ele>225.02959</ele>
        <time>2023-08-27T13:34:43.000Z</time>
      </trkpt>
      <trkpt lat="45.7825" lon="4.89345">
        <ele>225.15105</ele>
        <time>2023-08-27T13:34:44.000Z</time>
      </trkpt>
      <trkpt lat="45.78246" lon="4.89348">
        <ele>225.29253</ele>
        <time>2023-08-27T13:34:45.000Z</time>
      </trkpt>
      <trkpt lat="45.78243" lon="4.89351">
        <ele>225.49199</ele>
        <time>2023-08-27T13:34:46.000Z</time>
      </trkpt>
      <trkpt lat="45.78238" lon="4.89354">
        <ele>225.63765</ele>
        <time>2023-08-27T13:34:47.000Z</time>
      </trkpt>
      <trkpt lat="45.78234" lon="4.89356">
        <ele>225.77866</ele>
        <time>2023-08-27T13:34:48.000Z</time>
      </trkpt>
      <trkpt lat="45.7823" lon="4.89358">
        <ele>225.84978</ele>
        <time>2023-08-27T13:34:49.000Z</time>
      </trkpt>
      <trkpt lat="45.78226" lon="4.89361">
        <ele>225.90076</ele>
        <time>2023-08-27T13:34:50.000Z</time>
      </trkpt>
      <trkpt lat="45.78222" lon="4.89364">
        <ele>225.91467</ele>
        <time>2023-08-27T13:34:51.000Z</time>
      </trkpt>
      <trkpt lat="45.78217" lon="4.89366">
        <ele>225.90739</ele>
        <time>2023-08-27T13:34:52.000Z</time>
      </trkpt>
      <trkpt lat="45.78213" lon="4.89369">
        <ele>225.86934</ele>
        <time>2023-08-27T13:34:53.000Z</time>
      </trkpt>
      <trkpt lat="45.78209" lon="4.89372">
        <ele>225.75818</ele>
        <time>2023-08-27T13:34:54.000Z</time>
      </trkpt>
      <trkpt lat="45.78204" lon="4.89374">
        <ele>225.64473</ele>
        <time>2023-08-27T13:34:55.000Z</time>
      </trkpt>
      <trkpt lat="45.782" lon="4.89377">
        <ele>225.54007</ele>
        <time>2023-08-27T13:34:56.000Z</time>
      </trkpt>
      <trkpt lat="45.78195" lon="4.89379">
        <ele>225.39456</ele>
        <time>2023-08-27T13:34:57.000Z</time>
      </trkpt>
      <trkpt lat="45.78191" lon="4.89382">
        <ele>225.23999</ele>
        <time>2023-08-27T13:34:58.000Z</time>
      </trkpt>
      <trkpt lat="45.78186" lon="4.89384">
        <ele>225.05486</ele>
        <time>2023-08-27T13:34:59.000Z</time>
      </trkpt>
      <trkpt lat="45.78182" lon="4.89387">
        <ele>224.90881</ele>
        <time>2023-08-27T13:35:00.000Z</time>
      </trkpt>
      <trkpt lat="45.78177" lon="4.8939">
        <ele>224.76575</ele>
        <time>2023-08-27T13:35:01.000Z</time>
      </trkpt>
      <trkpt lat="45.78172" lon="4.89392">
        <ele>224.62788</ele>
        <time>2023-08-27T13:35:02.000Z</time>
      </trkpt>
      <trkpt lat="45.78167" lon="4.89394">
        <ele>224.49295</ele>
        <time>2023-08-27T13:35:03.000Z</time>
      </trkpt>
      <trkpt lat="45.78162" lon="4.89397">
        <ele>224.34494</ele>
        <time>2023-08-27T13:35:04.000Z</time>
      </trkpt>
      <trkpt lat="45.78158" lon="4.894">
        <ele>224.20593</ele>
        <time>2023-08-27T13:35:05.000Z</time>
      </trkpt>
      <trkpt lat="45.78153" lon="4.89402">
        <ele>224.07024</ele>
        <time>2023-08-27T13:35:06.000Z</time>
      </trkpt>
      <trkpt lat="45.78149" lon="4.89404">
        <ele>223.9838</ele>
        <time>2023-08-27T13:35:07.000Z</time>
      </trkpt>
      <trkpt lat="45.78144" lon="4.89407">
        <ele>223.8895</ele>
        <time>2023-08-27T13:35:08.000Z</time>
      </trkpt>
      <trkpt lat="45.78139" lon="4.8941">
        <ele>223.84799</ele>
        <time>2023-08-27T13:35:09.000Z</time>
      </trkpt>
      <trkpt lat="45.78135" lon="4.89412">
        <ele>223.8166</ele>
        <time>2023-08-27T13:35:10.000Z</time>
      </trkpt>
      <trkpt lat="45.78131" lon="4.89415">
        <ele>223.821</ele>
        <time>2023-08-27T13:35:11.000Z</time>
      </trkpt>
      <trkpt lat="45.78127" lon="4.89418">
        <ele>223.63864</ele>
        <time>2023-08-27T13:35:12.000Z</time>
      </trkpt>
      <trkpt lat="45.78123" lon="4.8942">
        <ele>223.48544</ele>
        <time>2023-08-27T13:35:13.000Z</time>
      </trkpt>
      <trkpt lat="45.78119" lon="4.89423">
        <ele>223.3614</ele>
        <time>2023-08-27T13:35:14.000Z</time>
      </trkpt>
      <trkpt lat="45.78114" lon="4.89426">
        <ele>223.257</ele>
        <time>2023-08-27T13:35:15.000Z</time>
      </trkpt>
      <trkpt lat="45.78109" lon="4.89428">
        <ele>223.18362</ele>
        <time>2023-08-27T13:35:16.000Z</time>
      </trkpt>
      <trkpt lat="45.78104" lon="4.8943">
        <ele>223.11502</ele>
        <time>2023-08-27T13:35:17.000Z</time>
      </trkpt>
      <trkpt lat="45.78099" lon="4.89434">
        <ele>222.98157</ele>
        <time>2023-08-27T13:35:18.000Z</time>
      </trkpt>
      <trkpt lat="45.78095" lon="4.89436">
        <ele>222.86638</ele>
        <time>2023-08-27T13:35:19.000Z</time>
      </trkpt>
      <trkpt lat="45.78091" lon="4.89438">
        <ele>222.74519</ele>
        <time>2023-08-27T13:35:20.000Z</time>
      </trkpt>
      <trkpt lat="45.78087" lon="4.89441">
        <ele>222.61971</ele>
        <time>2023-08-27T13:35:21.000Z</time>
      </trkpt>
      <trkpt lat="45.78083" lon="4.89443">
        <ele>222.52328</ele>
        <time>2023-08-27T13:35:22.000Z</time>
      </trkpt>
      <trkpt lat="45.78079" lon="4.89445">
        <ele>222.43298</ele>
        <time>2023-08-27T13:35:23.000Z</time>
      </trkpt>
      <trkpt lat="45.78075" lon="4.89448">
        <ele>222.36014</ele>
        <time>2023-08-27T13:35:24.000Z</time>
      </trkpt>
      <trkpt lat="45.78072" lon="4.89451">
        <ele>222.29485</ele>
        <time>2023-08-27T13:35:25.000Z</time>
      </trkpt>
      <trkpt lat="45.78068" lon="4.89453">
        <ele>222.16574</ele>
        <time>2023-08-27T13:35:26.000Z</time>
      </trkpt>
      <trkpt lat="45.78064" lon="4.89456">
        <ele>222.09122</ele>
        <time>2023-08-27T13:35:27.000Z</time>
      </trkpt>
      <trkpt lat="45.7806" lon="4.89459">
        <ele>222.01314</ele>
        <time>2023-08-27T13:35:28.000Z</time>
      </trkpt>
      <trkpt lat="45.78056" lon="4.89461">
        <ele>221.90279</ele>
        <time>2023-08-27T13:35:29.000Z</time>
      </trkpt>
      <trkpt lat="45.78053" lon="4.89463">
        <ele>221.79692</ele>
        <time>2023-08-27T13:35:30.000Z</time>
      </trkpt>
      <trkpt lat="45.7805" lon="4.89466">
        <ele>221.66853</ele>
        <time>2023-08-27T13:35:31.000Z</time>
      </trkpt>
      <trkpt lat="45.78047" lon="4.89468">
        <ele>221.75813</ele>
        <time>2023-08-27T13:35:32.000Z</time>
      </trkpt>
      <trkpt lat="45.78044" lon="4.89471">
        <ele>221.8967</ele>
        <time>2023-08-27T13:35:33.000Z</time>
      </trkpt>
      <trkpt lat="45.78041" lon="4.89474">
        <ele>222.00681</ele>
        <time>2023-08-27T13:35:34.000Z</time>
      </trkpt>
      <trkpt lat="45.78038" lon="4.89477">
        <ele>222.10547</ele>
        <time>2023-08-27T13:35:35.000Z</time>
      </trkpt>
      <trkpt lat="45.78034" lon="4.89479">
        <ele>222.18025</ele>
        <time>2023-08-27T13:35:36.000Z</time>
      </trkpt>
      <trkpt lat="45.7803" lon="4.89482">
        <ele>222.25346</ele>
        <time>2023-08-27T13:35:37.000Z</time>
      </trkpt>
      <trkpt lat="45.78027" lon="4.89484">
        <ele>222.34604</ele>
        <time>2023-08-27T13:35:38.000Z</time>
      </trkpt>
      <trkpt lat="45.78024" lon="4.89487">
        <ele>222.4427</ele>
        <time>2023-08-27T13:35:39.000Z</time>
      </trkpt>
      <trkpt lat="45.7802" lon="4.8949">
        <ele>222.5397</ele>
        <time>2023-08-27T13:35:40.000Z</time>
      </trkpt>
      <trkpt lat="45.78017" lon="4.89493">
        <ele>222.62227</ele>
        <time>2023-08-27T13:35:41.000Z</time>
      </trkpt>
      <trkpt lat="45.78013" lon="4.89497">
        <ele>222.6705</ele>
        <time>2023-08-27T13:35:42.000Z</time>
      </trkpt>
      <trkpt lat="45.78009" lon="4.89499">
        <ele>222.71704</ele>
        <time>2023-08-27T13:35:43.000Z</time>
      </trkpt>
      <trkpt lat="45.78006" lon="4.89502">
        <ele>222.74609</ele>
        <time>2023-08-27T13:35:44.000Z</time>
      </trkpt>
      <trkpt lat="45.78002" lon="4.89505">
        <ele>222.79477</ele>
        <time>2023-08-27T13:35:45.000Z</time>
      </trkpt>
      <trkpt lat="45.77998" lon="4.89508">
        <ele>222.89713</ele>
        <time>2023-08-27T13:35:46.000Z</time>
      </trkpt>
      <trkpt lat="45.77995" lon="4.89512">
        <ele>222.98499</ele>
        <time>2023-08-27T13:35:47.000Z</time>
      </trkpt>
      <trkpt lat="45.7799" lon="4.89516">
        <ele>223.07248</ele>
        <time>2023-08-27T13:35:48.000Z</time>
      </trkpt>
      <trkpt lat="45.77987" lon="4.89519">
        <ele>223.18582</ele>
        <time>2023-08-27T13:35:49.000Z</time>
      </trkpt>
      <trkpt lat="45.77982" lon="4.89521">
        <ele>223.26712</ele>
        <time>2023-08-27T13:35:50.000Z</time>
      </trkpt>
      <trkpt lat="45.77979" lon="4.89524">
        <ele>223.353</ele>
        <time>2023-08-27T13:35:51.000Z</time>
      </trkpt>
      <trkpt lat="45.77975" lon="4.89527">
        <ele>223.41484</ele>
        <time>2023-08-27T13:35:52.000Z</time>
      </trkpt>
      <trkpt lat="45.77972" lon="4.89531">
        <ele>223.4314</ele>
        <time>2023-08-27T13:35:53.000Z</time>
      </trkpt>
      <trkpt lat="45.77968" lon="4.89534">
        <ele>223.46973</ele>
        <time>2023-08-27T13:35:54.000Z</time>
      </trkpt>
      <trkpt lat="45.77964" lon="4.89537">
        <ele>223.49849</ele>
        <time>2023-08-27T13:35:55.000Z</time>
      </trkpt>
      <trkpt lat="45.7796" lon="4.89539">
        <ele>223.5083</ele>
        <time>2023-08-27T13:35:56.000Z</time>
      </trkpt>
      <trkpt lat="45.77957" lon="4.89542">
        <ele>223.5144</ele>
        <time>2023-08-27T13:35:57.000Z</time>
      </trkpt>
      <trkpt lat="45.77953" lon="4.89545">
        <ele>223.51352</ele>
        <time>2023-08-27T13:35:58.000Z</time>
      </trkpt>
      <trkpt lat="45.77949" lon="4.89548">
        <ele>223.51213</ele>
        <time>2023-08-27T13:35:59.000Z</time>
      </trkpt>
      <trkpt lat="45.77946" lon="4.89551">
        <ele>223.50288</ele>
        <time>2023-08-27T13:36:00.000Z</time>
      </trkpt>
      <trkpt lat="45.77942" lon="4.89554">
        <ele>223.4976</ele>
        <time>2023-08-27T13:36:01.000Z</time>
      </trkpt>
      <trkpt lat="45.77939" lon="4.89557">
        <ele>223.51762</ele>
        <time>2023-08-27T13:36:02.000Z</time>
      </trkpt>
      <trkpt lat="45.77934" lon="4.8956">
        <ele>223.52193</ele>
        <time>2023-08-27T13:36:03.000Z</time>
      </trkpt>
      <trkpt lat="45.7793" lon="4.89563">
        <ele>223.52939</ele>
        <time>2023-08-27T13:36:04.000Z</time>
      </trkpt>
      <trkpt lat="45.77926" lon="4.89566">
        <ele>223.50742</ele>
        <time>2023-08-27T13:36:05.000Z</time>
      </trkpt>
      <trkpt lat="45.77922" lon="4.8957">
        <ele>223.39294</ele>
        <time>2023-08-27T13:36:06.000Z</time>
      </trkpt>
      <trkpt lat="45.77918" lon="4.89573">
        <ele>223.27161</ele>
        <time>2023-08-27T13:36:07.000Z</time>
      </trkpt>
      <trkpt lat="45.77914" lon="4.89576">
        <ele>223.18433</ele>
        <time>2023-08-27T13:36:08.000Z</time>
      </trkpt>
      <trkpt lat="45.7791" lon="4.89579">
        <ele>223.08163</ele>
        <time>2023-08-27T13:36:09.000Z</time>
      </trkpt>
      <trkpt lat="45.77906" lon="4.89582">
        <ele>222.99455</ele>
        <time>2023-08-27T13:36:10.000Z</time>
      </trkpt>
      <trkpt lat="45.77901" lon="4.89585">
        <ele>222.9333</ele>
        <time>2023-08-27T13:36:11.000Z</time>
      </trkpt>
      <trkpt lat="45.77898" lon="4.89589">
        <ele>222.86703</ele>
        <time>2023-08-27T13:36:12.000Z</time>
      </trkpt>
      <trkpt lat="45.77894" lon="4.89592">
        <ele>222.78751</ele>
        <time>2023-08-27T13:36:13.000Z</time>
      </trkpt>
      <trkpt lat="45.77891" lon="4.89595">
        <ele>222.71455</ele>
        <time>2023-08-27T13:36:14.000Z</time>
      </trkpt>
      <trkpt lat="45.77887" lon="4.89597">
        <ele>222.63948</ele>
        <time>2023-08-27T13:36:15.000Z</time>
      </trkpt>
      <trkpt lat="45.77883" lon="4.896">
        <ele>222.58249</ele>
        <time>2023-08-27T13:36:16.000Z</time>
      </trkpt>
      <trkpt lat="45.77879" lon="4.89602">
        <ele>222.52177</ele>
        <time>2023-08-27T13:36:17.000Z</time>
      </trkpt>
      <trkpt lat="45.77875" lon="4.89605">
        <ele>222.45511</ele>
        <time>2023-08-27T13:36:18.000Z</time>
      </trkpt>
      <trkpt lat="45.77872" lon="4.89607">
        <ele>222.38908</ele>
        <time>2023-08-27T13:36:19.000Z</time>
      </trkpt>
      <trkpt lat="45.77869" lon="4.8961">
        <ele>222.41455</ele>
        <time>2023-08-27T13:36:20.000Z</time>
      </trkpt>
      <trkpt lat="45.77866" lon="4.89613">
        <ele>222.44299</ele>
        <time>2023-08-27T13:36:21.000Z</time>
      </trkpt>
      <trkpt lat="45.77863" lon="4.89615">
        <ele>222.45959</ele>
        <time>2023-08-27T13:36:22.000Z</time>
      </trkpt>
      <trkpt lat="45.7786" lon="4.89617">
        <ele>222.47958</ele>
        <time>2023-08-27T13:36:23.000Z</time>
      </trkpt>
      <trkpt lat="45.77857" lon="4.89619">
        <ele>222.48471</ele>
        <time>2023-08-27T13:36:24.000Z</time>
      </trkpt>
      <trkpt lat="45.77854" lon="4.89621">
        <ele>222.49878</ele>
        <time>2023-08-27T13:36:25.000Z</time>
      </trkpt>
      <trkpt lat="45.77851" lon="4.89624">
        <ele>222.59322</ele>
        <time>2023-08-27T13:36:26.000Z</time>
      </trkpt>
      <trkpt lat="45.77848" lon="4.89626">
        <ele>222.70537</ele>
        <time>2023-08-27T13:36:27.000Z</time>
      </trkpt>
      <trkpt lat="45.77845" lon="4.89629">
        <ele>222.81445</ele>
        <time>2023-08-27T13:36:28.000Z</time>
      </trkpt>
      <trkpt lat="45.77842" lon="4.89631">
        <ele>222.84468</ele>
        <time>2023-08-27T13:36:29.000Z</time>
      </trkpt>
      <trkpt lat="45.77839" lon="4.89634">
        <ele>222.83772</ele>
        <time>2023-08-27T13:36:30.000Z</time>
      </trkpt>
      <trkpt lat="45.77836" lon="4.89637">
        <ele>222.82344</ele>
        <time>2023-08-27T13:36:31.000Z</time>
      </trkpt>
      <trkpt lat="45.77832" lon="4.8964">
        <ele>222.79019</ele>
        <time>2023-08-27T13:36:32.000Z</time>
      </trkpt>
      <trkpt lat="45.77829" lon="4.89643">
        <ele>222.7847</ele>
        <time>2023-08-27T13:36:33.000Z</time>
      </trkpt>
      <trkpt lat="45.77825" lon="4.89646">
        <ele>222.77739</ele>
        <time>2023-08-27T13:36:34.000Z</time>
      </trkpt>
      <trkpt lat="45.77822" lon="4.89648">
        <ele>222.79086</ele>
        <time>2023-08-27T13:36:35.000Z</time>
      </trkpt>
      <trkpt lat="45.77818" lon="4.89651">
        <ele>222.79346</ele>
        <time>2023-08-27T13:36:36.000Z</time>
      </trkpt>
      <trkpt lat="45.77814" lon="4.89653">
        <ele>222.81436</ele>
        <time>2023-08-27T13:36:37.000Z</time>
      </trkpt>
      <trkpt lat="45.77811" lon="4.89656">
        <ele>222.82991</ele>
        <time>2023-08-27T13:36:38.000Z</time>
      </trkpt>
      <trkpt lat="45.77808" lon="4.89659">
        <ele>222.85713</ele>
        <time>2023-08-27T13:36:39.000Z</time>
      </trkpt>
      <trkpt lat="45.77805" lon="4.89661">
        <ele>222.77255</ele>
        <time>2023-08-27T13:36:40.000Z</time>
      </trkpt>
      <trkpt lat="45.77802" lon="4.89664">
        <ele>222.7067</ele>
        <time>2023-08-27T13:36:41.000Z</time>
      </trkpt>
      <trkpt lat="45.77799" lon="4.89667">
        <ele>222.62131</ele>
        <time>2023-08-27T13:36:42.000Z</time>
      </trkpt>
      <trkpt lat="45.77795" lon="4.89671">
        <ele>222.51572</ele>
        <time>2023-08-27T13:36:43.000Z</time>
      </trkpt>
      <trkpt lat="45.77792" lon="4.89674">
        <ele>222.42891</ele>
        <time>2023-08-27T13:36:44.000Z</time>
      </trkpt>
      <trkpt lat="45.77788" lon="4.89677">
        <ele>222.34187</ele>
        <time>2023-08-27T13:36:45.000Z</time>
      </trkpt>
      <trkpt lat="45.77785" lon="4.8968">
        <ele>222.25175</ele>
        <time>2023-08-27T13:36:46.000Z</time>
      </trkpt>
      <trkpt lat="45.77781" lon="4.89683">
        <ele>222.15356</ele>
        <time>2023-08-27T13:36:47.000Z</time>
      </trkpt>
      <trkpt lat="45.77778" lon="4.89686">
        <ele>222.03235</ele>
        <time>2023-08-27T13:36:48.000Z</time>
      </trkpt>
      <trkpt lat="45.77774" lon="4.89688">
        <ele>222.00264</ele>
        <time>2023-08-27T13:36:49.000Z</time>
      </trkpt>
      <trkpt lat="45.77771" lon="4.89691">
        <ele>222.02209</ele>
        <time>2023-08-27T13:36:50.000Z</time>
      </trkpt>
      <trkpt lat="45.77768" lon="4.89694">
        <ele>222.01462</ele>
        <time>2023-08-27T13:36:51.000Z</time>
      </trkpt>
      <trkpt lat="45.77765" lon="4.89697">
        <ele>222.00522</ele>
        <time>2023-08-27T13:36:52.000Z</time>
      </trkpt>
      <trkpt lat="45.77762" lon="4.897">
        <ele>221.96176</ele>
        <time>2023-08-27T13:36:53.000Z</time>
      </trkpt>
      <trkpt lat="45.77758" lon="4.89703">
        <ele>221.92081</ele>
        <time>2023-08-27T13:36:54.000Z</time>
      </trkpt>
      <trkpt lat="45.77755" lon="4.89706">
        <ele>221.85245</ele>
        <time>2023-08-27T13:36:55.000Z</time>
      </trkpt>
      <trkpt lat="45.77752" lon="4.89709">
        <ele>221.79715</ele>
        <time>2023-08-27T13:36:56.000Z</time>
      </trkpt>
      <trkpt lat="45.77749" lon="4.89712">
        <ele>221.73369</ele>
        <time>2023-08-27T13:36:57.000Z</time>
      </trkpt>
      <trkpt lat="45.77746" lon="4.89715">
        <ele>221.6705</ele>
        <time>2023-08-27T13:36:58.000Z</time>
      </trkpt>
      <trkpt lat="45.77742" lon="4.89718">
        <ele>221.59085</ele>
        <time>2023-08-27T13:36:59.000Z</time>
      </trkpt>
      <trkpt lat="45.77739" lon="4.8972">
        <ele>221.49776</ele>
        <time>2023-08-27T13:37:00.000Z</time>
      </trkpt>
      <trkpt lat="45.77736" lon="4.89723">
        <ele>221.4082</ele>
        <time>2023-08-27T13:37:01.000Z</time>
      </trkpt>
      <trkpt lat="45.77732" lon="4.89725">
        <ele>221.33139</ele>
        <time>2023-08-27T13:37:02.000Z</time>
      </trkpt>
      <trkpt lat="45.77729" lon="4.89728">
        <ele>221.26311</ele>
        <time>2023-08-27T13:37:03.000Z</time>
      </trkpt>
      <trkpt lat="45.77725" lon="4.89731">
        <ele>221.20671</ele>
        <time>2023-08-27T13:37:04.000Z</time>
      </trkpt>
      <trkpt lat="45.77721" lon="4.89734">
        <ele>221.15585</ele>
        <time>2023-08-27T13:37:05.000Z</time>
      </trkpt>
      <trkpt lat="45.77718" lon="4.89736">
        <ele>221.11368</ele>
        <time>2023-08-27T13:37:06.000Z</time>
      </trkpt>
      <trkpt lat="45.77715" lon="4.89738">
        <ele>221.05014</ele>
        <time>2023-08-27T13:37:07.000Z</time>
      </trkpt>
      <trkpt lat="45.77712" lon="4.89741">
        <ele>220.94778</ele>
        <time>2023-08-27T13:37:08.000Z</time>
      </trkpt>
      <trkpt lat="45.77709" lon="4.89744">
        <ele>220.83501</ele>
        <time>2023-08-27T13:37:09.000Z</time>
      </trkpt>
      <trkpt lat="45.77705" lon="4.89747">
        <ele>220.71912</ele>
        <time>2023-08-27T13:37:10.000Z</time>
      </trkpt>
      <trkpt lat="45.77702" lon="4.8975">
        <ele>220.62688</ele>
        <time>2023-08-27T13:37:11.000Z</time>
      </trkpt>
      <trkpt lat="45.77698" lon="4.89752">
        <ele>220.56534</ele>
        <time>2023-08-27T13:37:12.000Z</time>
      </trkpt>
      <trkpt lat="45.77694" lon="4.89755">
        <ele>220.53247</ele>
        <time>2023-08-27T13:37:13.000Z</time>
      </trkpt>
      <trkpt lat="45.77691" lon="4.89757">
        <ele>220.49593</ele>
        <time>2023-08-27T13:37:14.000Z</time>
      </trkpt>
      <trkpt lat="45.77687" lon="4.8976">
        <ele>220.49747</ele>
        <time>2023-08-27T13:37:15.000Z</time>
      </trkpt>
      <trkpt lat="45.77683" lon="4.89763">
        <ele>220.48186</ele>
        <time>2023-08-27T13:37:16.000Z</time>
      </trkpt>
      <trkpt lat="45.7768" lon="4.89765">
        <ele>220.46994</ele>
        <time>2023-08-27T13:37:17.000Z</time>
      </trkpt>
      <trkpt lat="45.77676" lon="4.89768">
        <ele>220.4679</ele>
        <time>2023-08-27T13:37:18.000Z</time>
      </trkpt>
      <trkpt lat="45.77673" lon="4.89771">
        <ele>220.4362</ele>
        <time>2023-08-27T13:37:19.000Z</time>
      </trkpt>
      <trkpt lat="45.7767" lon="4.89773">
        <ele>220.44585</ele>
        <time>2023-08-27T13:37:20.000Z</time>
      </trkpt>
      <trkpt lat="45.77666" lon="4.89776">
        <ele>220.45003</ele>
        <time>2023-08-27T13:37:21.000Z</time>
      </trkpt>
      <trkpt lat="45.77663" lon="4.89779">
        <ele>220.43355</ele>
        <time>2023-08-27T13:37:22.000Z</time>
      </trkpt>
      <trkpt lat="45.7766" lon="4.89782">
        <ele>220.45016</ele>
        <time>2023-08-27T13:37:23.000Z</time>
      </trkpt>
      <trkpt lat="45.77656" lon="4.89785">
        <ele>220.44902</ele>
        <time>2023-08-27T13:37:24.000Z</time>
      </trkpt>
      <trkpt lat="45.77653" lon="4.89789">
        <ele>220.43555</ele>
        <time>2023-08-27T13:37:25.000Z</time>
      </trkpt>
      <trkpt lat="45.77649" lon="4.89792">
        <ele>220.39412</ele>
        <time>2023-08-27T13:37:26.000Z</time>
      </trkpt>
      <trkpt lat="45.77646" lon="4.89795">
        <ele>220.37939</ele>
        <time>2023-08-27T13:37:27.000Z</time>
      </trkpt>
      <trkpt lat="45.77642" lon="4.89798">
        <ele>220.40482</ele>
        <time>2023-08-27T13:37:28.000Z</time>
      </trkpt>
      <trkpt lat="45.77639" lon="4.89801">
        <ele>220.4593</ele>
        <time>2023-08-27T13:37:29.000Z</time>
      </trkpt>
      <trkpt lat="45.77635" lon="4.89804">
        <ele>220.52873</ele>
        <time>2023-08-27T13:37:30.000Z</time>
      </trkpt>
      <trkpt lat="45.77632" lon="4.89806">
        <ele>220.60176</ele>
        <time>2023-08-27T13:37:31.000Z</time>
      </trkpt>
      <trkpt lat="45.77628" lon="4.89808">
        <ele>220.67839</ele>
        <time>2023-08-27T13:37:32.000Z</time>
      </trkpt>
      <trkpt lat="45.77624" lon="4.89811">
        <ele>220.74487</ele>
        <time>2023-08-27T13:37:33.000Z</time>
      </trkpt>
      <trkpt lat="45.77621" lon="4.89814">
        <ele>220.80331</ele>
        <time>2023-08-27T13:37:34.000Z</time>
      </trkpt>
      <trkpt lat="45.77617" lon="4.89816">
        <ele>220.84668</ele>
        <time>2023-08-27T13:37:35.000Z</time>
      </trkpt>
      <trkpt lat="45.77614" lon="4.89819">
        <ele>220.88449</ele>
        <time>2023-08-27T13:37:36.000Z</time>
      </trkpt>
      <trkpt lat="45.77611" lon="4.89822">
        <ele>220.90987</ele>
        <time>2023-08-27T13:37:37.000Z</time>
      </trkpt>
      <trkpt lat="45.77607" lon="4.89825">
        <ele>220.90446</ele>
        <time>2023-08-27T13:37:38.000Z</time>
      </trkpt>
      <trkpt lat="45.77604" lon="4.89828">
        <ele>220.90678</ele>
        <time>2023-08-27T13:37:39.000Z</time>
      </trkpt>
      <trkpt lat="45.77601" lon="4.89831">
        <ele>220.88741</ele>
        <time>2023-08-27T13:37:40.000Z</time>
      </trkpt>
      <trkpt lat="45.77597" lon="4.89835">
        <ele>220.84209</ele>
        <time>2023-08-27T13:37:41.000Z</time>
      </trkpt>
      <trkpt lat="45.77594" lon="4.89838">
        <ele>220.84355</ele>
        <time>2023-08-27T13:37:42.000Z</time>
      </trkpt>
      <trkpt lat="45.77589" lon="4.8984">
        <ele>220.80762</ele>
        <time>2023-08-27T13:37:43.000Z</time>
      </trkpt>
      <trkpt lat="45.77586" lon="4.89842">
        <ele>220.77463</ele>
        <time>2023-08-27T13:37:44.000Z</time>
      </trkpt>
      <trkpt lat="45.77582" lon="4.89845">
        <ele>220.75464</ele>
        <time>2023-08-27T13:37:45.000Z</time>
      </trkpt>
      <trkpt lat="45.77579" lon="4.89849">
        <ele>220.72246</ele>
        <time>2023-08-27T13:37:46.000Z</time>
      </trkpt>
      <trkpt lat="45.77576" lon="4.89853">
        <ele>220.69556</ele>
        <time>2023-08-27T13:37:47.000Z</time>
      </trkpt>
      <trkpt lat="45.77572" lon="4.89855">
        <ele>220.63972</ele>
        <time>2023-08-27T13:37:48.000Z</time>
      </trkpt>
      <trkpt lat="45.77569" lon="4.89859">
        <ele>220.59317</ele>
        <time>2023-08-27T13:37:49.000Z</time>
      </trkpt>
      <trkpt lat="45.77565" lon="4.89862">
        <ele>220.49614</ele>
        <time>2023-08-27T13:37:50.000Z</time>
      </trkpt>
      <trkpt lat="45.77561" lon="4.89865">
        <ele>220.37886</ele>
        <time>2023-08-27T13:37:51.000Z</time>
      </trkpt>
      <trkpt lat="45.77557" lon="4.89868">
        <ele>220.27353</ele>
        <time>2023-08-27T13:37:52.000Z</time>
      </trkpt>
      <trkpt lat="45.77554" lon="4.89871">
        <ele>220.16939</ele>
        <time>2023-08-27T13:37:53.000Z</time>
      </trkpt>
      <trkpt lat="45.7755" lon="4.89873">
        <ele>220.04375</ele>
        <time>2023-08-27T13:37:54.000Z</time>
      </trkpt>
      <trkpt lat="45.77547" lon="4.89876">
        <ele>219.93648</ele>
        <time>2023-08-27T13:37:55.000Z</time>
      </trkpt>
      <trkpt lat="45.77544" lon="4.89879">
        <ele>219.87456</ele>
        <time>2023-08-27T13:37:56.000Z</time>
      </trkpt>
      <trkpt lat="45.77542" lon="4.89883">
        <ele>219.83981</ele>
        <time>2023-08-27T13:37:57.000Z</time>
      </trkpt>
      <trkpt lat="45.77538" lon="4.89886">
        <ele>219.84175</ele>
        <time>2023-08-27T13:37:58.000Z</time>
      </trkpt>
      <trkpt lat="45.77534" lon="4.89889">
        <ele>219.88863</ele>
        <time>2023-08-27T13:37:59.000Z</time>
      </trkpt>
      <trkpt lat="45.7753" lon="4.89892">
        <ele>219.95786</ele>
        <time>2023-08-27T13:38:00.000Z</time>
      </trkpt>
      <trkpt lat="45.77526" lon="4.89894">
        <ele>220.04028</ele>
        <time>2023-08-27T13:38:01.000Z</time>
      </trkpt>
      <trkpt lat="45.77523" lon="4.89896">
        <ele>220.103</ele>
        <time>2023-08-27T13:38:02.000Z</time>
      </trkpt>
      <trkpt lat="45.77519" lon="4.89899">
        <ele>220.19254</ele>
        <time>2023-08-27T13:38:03.000Z</time>
      </trkpt>
      <trkpt lat="45.77516" lon="4.89902">
        <ele>220.28674</ele>
        <time>2023-08-27T13:38:04.000Z</time>
      </trkpt>
      <trkpt lat="45.77513" lon="4.89905">
        <ele>220.36182</ele>
        <time>2023-08-27T13:38:05.000Z</time>
      </trkpt>
      <trkpt lat="45.7751" lon="4.89907">
        <ele>220.48349</ele>
        <time>2023-08-27T13:38:06.000Z</time>
      </trkpt>
      <trkpt lat="45.77507" lon="4.8991">
        <ele>220.57755</ele>
        <time>2023-08-27T13:38:07.000Z</time>
      </trkpt>
      <trkpt lat="45.77503" lon="4.89913">
        <ele>220.70859</ele>
        <time>2023-08-27T13:38:08.000Z</time>
      </trkpt>
      <trkpt lat="45.775" lon="4.89916">
        <ele>220.81503</ele>
        <time>2023-08-27T13:38:09.000Z</time>
      </trkpt>
      <trkpt lat="45.77496" lon="4.89918">
        <ele>220.90207</ele>
        <time>2023-08-27T13:38:10.000Z</time>
      </trkpt>
      <trkpt lat="45.77493" lon="4.8992">
        <ele>221.00337</ele>
        <time>2023-08-27T13:38:11.000Z</time>
      </trkpt>
      <trkpt lat="45.77489" lon="4.89923">
        <ele>221.1044</ele>
        <time>2023-08-27T13:38:12.000Z</time>
      </trkpt>
      <trkpt lat="45.77485" lon="4.89926">
        <ele>221.17807</ele>
        <time>2023-08-27T13:38:13.000Z</time>
      </trkpt>
      <trkpt lat="45.7748" lon="4.89929">
        <ele>221.26437</ele>
        <time>2023-08-27T13:38:14.000Z</time>
      </trkpt>
      <trkpt lat="45.77477" lon="4.89932">
        <ele>221.35214</ele>
        <time>2023-08-27T13:38:15.000Z</time>
      </trkpt>
      <trkpt lat="45.77473" lon="4.89934">
        <ele>221.42155</ele>
        <time>2023-08-27T13:38:16.000Z</time>
      </trkpt>
      <trkpt lat="45.7747" lon="4.89937">
        <ele>221.46028</ele>
        <time>2023-08-27T13:38:17.000Z</time>
      </trkpt>
      <trkpt lat="45.77466" lon="4.8994">
        <ele>221.51218</ele>
        <time>2023-08-27T13:38:18.000Z</time>
      </trkpt>
      <trkpt lat="45.77462" lon="4.89943">
        <ele>221.5383</ele>
        <time>2023-08-27T13:38:19.000Z</time>
      </trkpt>
      <trkpt lat="45.77458" lon="4.89945">
        <ele>221.54697</ele>
        <time>2023-08-27T13:38:20.000Z</time>
      </trkpt>
      <trkpt lat="45.77454" lon="4.89948">
        <ele>221.56509</ele>
        <time>2023-08-27T13:38:21.000Z</time>
      </trkpt>
      <trkpt lat="45.7745" lon="4.89952">
        <ele>221.55991</ele>
        <time>2023-08-27T13:38:22.000Z</time>
      </trkpt>
      <trkpt lat="45.77446" lon="4.89955">
        <ele>221.53262</ele>
        <time>2023-08-27T13:38:23.000Z</time>
      </trkpt>
      <trkpt lat="45.77442" lon="4.89958">
        <ele>221.49881</ele>
        <time>2023-08-27T13:38:24.000Z</time>
      </trkpt>
      <trkpt lat="45.77438" lon="4.8996">
        <ele>221.46133</ele>
        <time>2023-08-27T13:38:25.000Z</time>
      </trkpt>
      <trkpt lat="45.77435" lon="4.89963">
        <ele>221.42807</ele>
        <time>2023-08-27T13:38:26.000Z</time>
      </trkpt>
      <trkpt lat="45.77432" lon="4.89966">
        <ele>221.41167</ele>
        <time>2023-08-27T13:38:27.000Z</time>
      </trkpt>
      <trkpt lat="45.77428" lon="4.89969">
        <ele>221.43921</ele>
        <time>2023-08-27T13:38:28.000Z</time>
      </trkpt>
      <trkpt lat="45.77425" lon="4.89972">
        <ele>221.49397</ele>
        <time>2023-08-27T13:38:29.000Z</time>
      </trkpt>
      <trkpt lat="45.77421" lon="4.89975">
        <ele>221.58414</ele>
        <time>2023-08-27T13:38:30.000Z</time>
      </trkpt>
      <trkpt lat="45.77417" lon="4.89978">
        <ele>221.65445</ele>
        <time>2023-08-27T13:38:31.000Z</time>
      </trkpt>
      <trkpt lat="45.77413" lon="4.89981">
        <ele>221.71855</ele>
        <time>2023-08-27T13:38:32.000Z</time>
      </trkpt>
      <trkpt lat="45.7741" lon="4.89983">
        <ele>221.77097</ele>
        <time>2023-08-27T13:38:33.000Z</time>
      </trkpt>
      <trkpt lat="45.77406" lon="4.89988">
        <ele>221.80298</ele>
        <time>2023-08-27T13:38:34.000Z</time>
      </trkpt>
      <trkpt lat="45.77402" lon="4.89991">
        <ele>221.80782</ele>
        <time>2023-08-27T13:38:35.000Z</time>
      </trkpt>
      <trkpt lat="45.77399" lon="4.89995">
        <ele>221.76811</ele>
        <time>2023-08-27T13:38:36.000Z</time>
      </trkpt>
      <trkpt lat="45.77396" lon="4.89998">
        <ele>221.75406</ele>
        <time>2023-08-27T13:38:37.000Z</time>
      </trkpt>
      <trkpt lat="45.77391" lon="4.9">
        <ele>221.6951</ele>
        <time>2023-08-27T13:38:38.000Z</time>
      </trkpt>
      <trkpt lat="45.77387" lon="4.90004">
        <ele>221.65486</ele>
        <time>2023-08-27T13:38:39.000Z</time>
      </trkpt>
      <trkpt lat="45.77384" lon="4.90007">
        <ele>221.65421</ele>
        <time>2023-08-27T13:38:40.000Z</time>
      </trkpt>
      <trkpt lat="45.77381" lon="4.9001">
        <ele>221.66501</ele>
        <time>2023-08-27T13:38:41.000Z</time>
      </trkpt>
      <trkpt lat="45.77378" lon="4.90014">
        <ele>221.6748</ele>
        <time>2023-08-27T13:38:42.000Z</time>
      </trkpt>
      <trkpt lat="45.77374" lon="4.90017">
        <ele>221.69514</ele>
        <time>2023-08-27T13:38:43.000Z</time>
      </trkpt>
      <trkpt lat="45.7737" lon="4.90022">
        <ele>221.7242</ele>
        <time>2023-08-27T13:38:44.000Z</time>
      </trkpt>
      <trkpt lat="45.77367" lon="4.90024">
        <ele>221.7876</ele>
        <time>2023-08-27T13:38:45.000Z</time>
      </trkpt>
      <trkpt lat="45.77364" lon="4.90027">
        <ele>221.82153</ele>
        <time>2023-08-27T13:38:46.000Z</time>
      </trkpt>
      <trkpt lat="45.7736" lon="4.9003">
        <ele>221.84238</ele>
        <time>2023-08-27T13:38:47.000Z</time>
      </trkpt>
      <trkpt lat="45.77358" lon="4.90032">
        <ele>221.79221</ele>
        <time>2023-08-27T13:38:48.000Z</time>
      </trkpt>
      <trkpt lat="45.77355" lon="4.90034">
        <ele>221.71587</ele>
        <time>2023-08-27T13:38:49.000Z</time>
      </trkpt>
      <trkpt lat="45.77353" lon="4.90036">
        <ele>221.66362</ele>
        <time>2023-08-27T13:38:50.000Z</time>
      </trkpt>
      <trkpt lat="45.77351" lon="4.90038">
        <ele>221.62285</ele>
        <time>2023-08-27T13:38:51.000Z</time>
      </trkpt>
      <trkpt lat="45.77349" lon="4.90039">
        <ele>221.58159</ele>
        <time>2023-08-27T13:38:52.000Z</time>
      </trkpt>
      <trkpt lat="45.77347" lon="4.90041">
        <ele>221.58965</ele>
        <time>2023-08-27T13:38:53.000Z</time>
      </trkpt>
      <trkpt lat="45.77344" lon="4.90043">
        <ele>221.63997</ele>
        <time>2023-08-27T13:38:54.000Z</time>
      </trkpt>
      <trkpt lat="45.77341" lon="4.90044">
        <ele>221.71101</ele>
        <time>2023-08-27T13:38:55.000Z</time>
      </trkpt>
      <trkpt lat="45.77338" lon="4.90046">
        <ele>221.79565</ele>
        <time>2023-08-27T13:38:56.000Z</time>
      </trkpt>
      <trkpt lat="45.77335" lon="4.90047">
        <ele>221.82951</ele>
        <time>2023-08-27T13:38:57.000Z</time>
      </trkpt>
      <trkpt lat="45.77332" lon="4.90049">
        <ele>221.88335</ele>
        <time>2023-08-27T13:38:58.000Z</time>
      </trkpt>
      <trkpt lat="45.77328" lon="4.90051">
        <ele>221.94894</ele>
        <time>2023-08-27T13:38:59.000Z</time>
      </trkpt>
      <trkpt lat="45.77325" lon="4.90053">
        <ele>221.99873</ele>
        <time>2023-08-27T13:39:00.000Z</time>
      </trkpt>
      <trkpt lat="45.77322" lon="4.90055">
        <ele>222.03799</ele>
        <time>2023-08-27T13:39:01.000Z</time>
      </trkpt>
      <trkpt lat="45.7732" lon="4.90057">
        <ele>222.09392</ele>
        <time>2023-08-27T13:39:02.000Z</time>
      </trkpt>
      <trkpt lat="45.77318" lon="4.90058">
        <ele>222.18417</ele>
        <time>2023-08-27T13:39:03.000Z</time>
      </trkpt>
      <trkpt lat="45.77315" lon="4.90059">
        <ele>222.29575</ele>
        <time>2023-08-27T13:39:04.000Z</time>
      </trkpt>
      <trkpt lat="45.77312" lon="4.90061">
        <ele>222.37851</ele>
        <time>2023-08-27T13:39:05.000Z</time>
      </trkpt>
      <trkpt lat="45.77309" lon="4.90063">
        <ele>222.48625</ele>
        <time>2023-08-27T13:39:06.000Z</time>
      </trkpt>
      <trkpt lat="45.77306" lon="4.90066">
        <ele>222.58157</ele>
        <time>2023-08-27T13:39:07.000Z</time>
      </trkpt>
      <trkpt lat="45.77303" lon="4.90069">
        <ele>222.70313</ele>
        <time>2023-08-27T13:39:08.000Z</time>
      </trkpt>
      <trkpt lat="45.773" lon="4.90072">
        <ele>222.78433</ele>
        <time>2023-08-27T13:39:09.000Z</time>
      </trkpt>
      <trkpt lat="45.77298" lon="4.90075">
        <ele>222.879</ele>
        <time>2023-08-27T13:39:10.000Z</time>
      </trkpt>
      <trkpt lat="45.77295" lon="4.90077">
        <ele>222.94742</ele>
        <time>2023-08-27T13:39:11.000Z</time>
      </trkpt>
      <trkpt lat="45.77292" lon="4.9008">
        <ele>223.00366</ele>
        <time>2023-08-27T13:39:12.000Z</time>
      </trkpt>
      <trkpt lat="45.77289" lon="4.90083">
        <ele>223.0352</ele>
        <time>2023-08-27T13:39:13.000Z</time>
      </trkpt>
      <trkpt lat="45.77286" lon="4.90086">
        <ele>223.05429</ele>
        <time>2023-08-27T13:39:14.000Z</time>
      </trkpt>
      <trkpt lat="45.77283" lon="4.90088">
        <ele>223.06697</ele>
        <time>2023-08-27T13:39:15.000Z</time>
      </trkpt>
      <trkpt lat="45.77281" lon="4.90091">
        <ele>223.06111</ele>
        <time>2023-08-27T13:39:16.000Z</time>
      </trkpt>
      <trkpt lat="45.77278" lon="4.90093">
        <ele>223.10042</ele>
        <time>2023-08-27T13:39:17.000Z</time>
      </trkpt>
      <trkpt lat="45.77275" lon="4.90095">
        <ele>223.17322</ele>
        <time>2023-08-27T13:39:18.000Z</time>
      </trkpt>
      <trkpt lat="45.77273" lon="4.90098">
        <ele>223.22531</ele>
        <time>2023-08-27T13:39:19.000Z</time>
      </trkpt>
      <trkpt lat="45.7727" lon="4.90101">
        <ele>223.2753</ele>
        <time>2023-08-27T13:39:20.000Z</time>
      </trkpt>
      <trkpt lat="45.77267" lon="4.90104">
        <ele>223.28938</ele>
        <time>2023-08-27T13:39:21.000Z</time>
      </trkpt>
      <trkpt lat="45.77264" lon="4.90107">
        <ele>223.27652</ele>
        <time>2023-08-27T13:39:22.000Z</time>
      </trkpt>
      <trkpt lat="45.77261" lon="4.90109">
        <ele>223.24101</ele>
        <time>2023-08-27T13:39:23.000Z</time>
      </trkpt>
      <trkpt lat="45.77258" lon="4.90111">
        <ele>223.1597</ele>
        <time>2023-08-27T13:39:24.000Z</time>
      </trkpt>
      <trkpt lat="45.77255" lon="4.90114">
        <ele>223.13693</ele>
        <time>2023-08-27T13:39:25.000Z</time>
      </trkpt>
      <trkpt lat="45.77252" lon="4.90116">
        <ele>223.11601</ele>
        <time>2023-08-27T13:39:26.000Z</time>
      </trkpt>
      <trkpt lat="45.7725" lon="4.90119">
        <ele>223.12387</ele>
        <time>2023-08-27T13:39:27.000Z</time>
      </trkpt>
      <trkpt lat="45.77247" lon="4.90122">
        <ele>223.14542</ele>
        <time>2023-08-27T13:39:28.000Z</time>
      </trkpt>
      <trkpt lat="45.77245" lon="4.90124">
        <ele>223.17966</ele>
        <time>2023-08-27T13:39:29.000Z</time>
      </trkpt>
      <trkpt lat="45.77242" lon="4.90126">
        <ele>223.16948</ele>
        <time>2023-08-27T13:39:30.000Z</time>
      </trkpt>
      <trkpt lat="45.77239" lon="4.90127">
        <ele>223.21402</ele>
        <time>2023-08-27T13:39:31.000Z</time>
      </trkpt>
      <trkpt lat="45.77237" lon="4.90129">
        <ele>223.27213</ele>
        <time>2023-08-27T13:39:32.000Z</time>
      </trkpt>
      <trkpt lat="45.77234" lon="4.90131">
        <ele>223.34212</ele>
        <time>2023-08-27T13:39:33.000Z</time>
      </trkpt>
      <trkpt lat="45.77231" lon="4.90134">
        <ele>223.4008</ele>
        <time>2023-08-27T13:39:34.000Z</time>
      </trkpt>
      <trkpt lat="45.77227" lon="4.90136">
        <ele>223.42949</ele>
        <time>2023-08-27T13:39:35.000Z</time>
      </trkpt>
      <trkpt lat="45.77224" lon="4.90138">
        <ele>223.46135</ele>
        <time>2023-08-27T13:39:36.000Z</time>
      </trkpt>
      <trkpt lat="45.77221" lon="4.9014">
        <ele>223.44351</ele>
        <time>2023-08-27T13:39:37.000Z</time>
      </trkpt>
      <trkpt lat="45.77218" lon="4.90141">
        <ele>223.37378</ele>
        <time>2023-08-27T13:39:38.000Z</time>
      </trkpt>
      <trkpt lat="45.77215" lon="4.90144">
        <ele>223.29294</ele>
        <time>2023-08-27T13:39:39.000Z</time>
      </trkpt>
      <trkpt lat="45.77212" lon="4.90147">
        <ele>223.19165</ele>
        <time>2023-08-27T13:39:40.000Z</time>
      </trkpt>
      <trkpt lat="45.77208" lon="4.9015">
        <ele>223.10909</ele>
        <time>2023-08-27T13:39:41.000Z</time>
      </trkpt>
      <trkpt lat="45.77205" lon="4.90152">
        <ele>223.04251</ele>
        <time>2023-08-27T13:39:42.000Z</time>
      </trkpt>
      <trkpt lat="45.77202" lon="4.90155">
        <ele>222.99942</ele>
        <time>2023-08-27T13:39:43.000Z</time>
      </trkpt>
      <trkpt lat="45.77198" lon="4.90158">
        <ele>222.98813</ele>
        <time>2023-08-27T13:39:44.000Z</time>
      </trkpt>
      <trkpt lat="45.77195" lon="4.90161">
        <ele>222.93306</ele>
        <time>2023-08-27T13:39:45.000Z</time>
      </trkpt>
      <trkpt lat="45.77192" lon="4.90164">
        <ele>222.86743</ele>
        <time>2023-08-27T13:39:46.000Z</time>
      </trkpt>
      <trkpt lat="45.77189" lon="4.90167">
        <ele>222.8046</ele>
        <time>2023-08-27T13:39:47.000Z</time>
      </trkpt>
      <trkpt lat="45.77186" lon="4.9017">
        <ele>222.74118</ele>
        <time>2023-08-27T13:39:48.000Z</time>
      </trkpt>
      <trkpt lat="45.77183" lon="4.90174">
        <ele>222.6855</ele>
        <time>2023-08-27T13:39:49.000Z</time>
      </trkpt>
      <trkpt lat="45.7718" lon="4.90177">
        <ele>222.64717</ele>
        <time>2023-08-27T13:39:50.000Z</time>
      </trkpt>
      <trkpt lat="45.77177" lon="4.9018">
        <ele>222.57761</ele>
        <time>2023-08-27T13:39:51.000Z</time>
      </trkpt>
      <trkpt lat="45.77174" lon="4.90183">
        <ele>222.5029</ele>
        <time>2023-08-27T13:39:52.000Z</time>
      </trkpt>
      <trkpt lat="45.77171" lon="4.90186">
        <ele>222.41611</ele>
        <time>2023-08-27T13:39:53.000Z</time>
      </trkpt>
      <trkpt lat="45.77167" lon="4.90189">
        <ele>222.35796</ele>
        <time>2023-08-27T13:39:54.000Z</time>
      </trkpt>
      <trkpt lat="45.77164" lon="4.90192">
        <ele>222.26485</ele>
        <time>2023-08-27T13:39:55.000Z</time>
      </trkpt>
      <trkpt lat="45.77161" lon="4.90195">
        <ele>222.20792</ele>
        <time>2023-08-27T13:39:56.000Z</time>
      </trkpt>
      <trkpt lat="45.77156" lon="4.90198">
        <ele>222.17154</ele>
        <time>2023-08-27T13:39:57.000Z</time>
      </trkpt>
      <trkpt lat="45.77152" lon="4.90199">
        <ele>222.16577</ele>
        <time>2023-08-27T13:39:58.000Z</time>
      </trkpt>
      <trkpt lat="45.77148" lon="4.90202">
        <ele>222.17542</ele>
        <time>2023-08-27T13:39:59.000Z</time>
      </trkpt>
      <trkpt lat="45.77144" lon="4.90204">
        <ele>222.20413</ele>
        <time>2023-08-27T13:40:00.000Z</time>
      </trkpt>
      <trkpt lat="45.77141" lon="4.90206">
        <ele>222.21342</ele>
        <time>2023-08-27T13:40:01.000Z</time>
      </trkpt>
      <trkpt lat="45.77138" lon="4.90209">
        <ele>222.22424</ele>
        <time>2023-08-27T13:40:02.000Z</time>
      </trkpt>
      <trkpt lat="45.77135" lon="4.9021">
        <ele>222.22733</ele>
        <time>2023-08-27T13:40:03.000Z</time>
      </trkpt>
      <trkpt lat="45.77132" lon="4.90214">
        <ele>222.25851</ele>
        <time>2023-08-27T13:40:04.000Z</time>
      </trkpt>
      <trkpt lat="45.77129" lon="4.90217">
        <ele>222.3418</ele>
        <time>2023-08-27T13:40:05.000Z</time>
      </trkpt>
      <trkpt lat="45.77126" lon="4.9022">
        <ele>222.41313</ele>
        <time>2023-08-27T13:40:06.000Z</time>
      </trkpt>
      <trkpt lat="45.77122" lon="4.90223">
        <ele>222.48921</ele>
        <time>2023-08-27T13:40:07.000Z</time>
      </trkpt>
      <trkpt lat="45.77119" lon="4.90226">
        <ele>222.54379</ele>
        <time>2023-08-27T13:40:08.000Z</time>
      </trkpt>
      <trkpt lat="45.77116" lon="4.90229">
        <ele>222.64543</ele>
        <time>2023-08-27T13:40:09.000Z</time>
      </trkpt>
      <trkpt lat="45.77112" lon="4.90232">
        <ele>222.7122</ele>
        <time>2023-08-27T13:40:10.000Z</time>
      </trkpt>
      <trkpt lat="45.77109" lon="4.90234">
        <ele>222.79448</ele>
        <time>2023-08-27T13:40:11.000Z</time>
      </trkpt>
      <trkpt lat="45.77105" lon="4.90237">
        <ele>222.86118</ele>
        <time>2023-08-27T13:40:12.000Z</time>
      </trkpt>
      <trkpt lat="45.77101" lon="4.90239">
        <ele>222.95186</ele>
        <time>2023-08-27T13:40:13.000Z</time>
      </trkpt>
      <trkpt lat="45.77097" lon="4.90241">
        <ele>223.0273</ele>
        <time>2023-08-27T13:40:14.000Z</time>
      </trkpt>
      <trkpt lat="45.77094" lon="4.90244">
        <ele>223.15849</ele>
        <time>2023-08-27T13:40:15.000Z</time>
      </trkpt>
      <trkpt lat="45.77092" lon="4.90247">
        <ele>223.29092</ele>
        <time>2023-08-27T13:40:16.000Z</time>
      </trkpt>
      <trkpt lat="45.77088" lon="4.90249">
        <ele>223.43108</ele>
        <time>2023-08-27T13:40:17.000Z</time>
      </trkpt>
      <trkpt lat="45.77084" lon="4.90252">
        <ele>223.58672</ele>
        <time>2023-08-27T13:40:18.000Z</time>
      </trkpt>
      <trkpt lat="45.77081" lon="4.90255">
        <ele>223.71968</ele>
        <time>2023-08-27T13:40:19.000Z</time>
      </trkpt>
      <trkpt lat="45.77077" lon="4.90257">
        <ele>223.85405</ele>
        <time>2023-08-27T13:40:20.000Z</time>
      </trkpt>
      <trkpt lat="45.77073" lon="4.90259">
        <ele>224.02946</ele>
        <time>2023-08-27T13:40:21.000Z</time>
      </trkpt>
      <trkpt lat="45.7707" lon="4.90261">
        <ele>224.2283</ele>
        <time>2023-08-27T13:40:22.000Z</time>
      </trkpt>
      <trkpt lat="45.77066" lon="4.90264">
        <ele>224.39067</ele>
        <time>2023-08-27T13:40:23.000Z</time>
      </trkpt>
      <trkpt lat="45.77062" lon="4.90267">
        <ele>224.50528</ele>
        <time>2023-08-27T13:40:24.000Z</time>
      </trkpt>
      <trkpt lat="45.77058" lon="4.90269">
        <ele>224.55215</ele>
        <time>2023-08-27T13:40:25.000Z</time>
      </trkpt>
      <trkpt lat="45.77054" lon="4.90272">
        <ele>224.6167</ele>
        <time>2023-08-27T13:40:26.000Z</time>
      </trkpt>
      <trkpt lat="45.77051" lon="4.90274">
        <ele>224.66328</ele>
        <time>2023-08-27T13:40:27.000Z</time>
      </trkpt>
      <trkpt lat="45.77047" lon="4.90277">
        <ele>224.71944</ele>
        <time>2023-08-27T13:40:28.000Z</time>
      </trkpt>
      <trkpt lat="45.77044" lon="4.9028">
        <ele>224.74423</ele>
        <time>2023-08-27T13:40:29.000Z</time>
      </trkpt>
      <trkpt lat="45.7704" lon="4.90283">
        <ele>224.81076</ele>
        <time>2023-08-27T13:40:30.000Z</time>
      </trkpt>
      <trkpt lat="45.77037" lon="4.90286">
        <ele>224.86612</ele>
        <time>2023-08-27T13:40:31.000Z</time>
      </trkpt>
      <trkpt lat="45.77034" lon="4.90289">
        <ele>224.89542</ele>
        <time>2023-08-27T13:40:32.000Z</time>
      </trkpt>
      <trkpt lat="45.7703" lon="4.90292">
        <ele>224.8914</ele>
        <time>2023-08-27T13:40:33.000Z</time>
      </trkpt>
      <trkpt lat="45.77027" lon="4.90295">
        <ele>224.89021</ele>
        <time>2023-08-27T13:40:34.000Z</time>
      </trkpt>
      <trkpt lat="45.77023" lon="4.90299">
        <ele>224.88647</ele>
        <time>2023-08-27T13:40:35.000Z</time>
      </trkpt>
      <trkpt lat="45.7702" lon="4.90302">
        <ele>224.85356</ele>
        <time>2023-08-27T13:40:36.000Z</time>
      </trkpt>
      <trkpt lat="45.77016" lon="4.90305">
        <ele>224.83647</ele>
        <time>2023-08-27T13:40:37.000Z</time>
      </trkpt>
      <trkpt lat="45.77012" lon="4.90309">
        <ele>224.78467</ele>
        <time>2023-08-27T13:40:38.000Z</time>
      </trkpt>
      <trkpt lat="45.77009" lon="4.90312">
        <ele>224.72249</ele>
        <time>2023-08-27T13:40:39.000Z</time>
      </trkpt>
      <trkpt lat="45.77005" lon="4.90315">
        <ele>224.64009</ele>
        <time>2023-08-27T13:40:40.000Z</time>
      </trkpt>
      <trkpt lat="45.77002" lon="4.90318">
        <ele>224.55327</ele>
        <time>2023-08-27T13:40:41.000Z</time>
      </trkpt>
      <trkpt lat="45.76999" lon="4.90322">
        <ele>224.45073</ele>
        <time>2023-08-27T13:40:42.000Z</time>
      </trkpt>
      <trkpt lat="45.76995" lon="4.90326">
        <ele>224.37686</ele>
        <time>2023-08-27T13:40:43.000Z</time>
      </trkpt>
      <trkpt lat="45.76991" lon="4.90329">
        <ele>224.3378</ele>
        <time>2023-08-27T13:40:44.000Z</time>
      </trkpt>
      <trkpt lat="45.76988" lon="4.90332">
        <ele>224.28996</ele>
        <time>2023-08-27T13:40:45.000Z</time>
      </trkpt>
      <trkpt lat="45.76985" lon="4.90335">
        <ele>224.22266</ele>
        <time>2023-08-27T13:40:46.000Z</time>
      </trkpt>
      <trkpt lat="45.76981" lon="4.90339">
        <ele>224.1412</ele>
        <time>2023-08-27T13:40:47.000Z</time>
      </trkpt>
      <trkpt lat="45.76977" lon="4.90342">
        <ele>224.09326</ele>
        <time>2023-08-27T13:40:48.000Z</time>
      </trkpt>
      <trkpt lat="45.76974" lon="4.90346">
        <ele>224.03435</ele>
        <time>2023-08-27T13:40:49.000Z</time>
      </trkpt>
      <trkpt lat="45.7697" lon="4.90349">
        <ele>223.95865</ele>
        <time>2023-08-27T13:40:50.000Z</time>
      </trkpt>
      <trkpt lat="45.76966" lon="4.90352">
        <ele>223.89029</ele>
        <time>2023-08-27T13:40:51.000Z</time>
      </trkpt>
      <trkpt lat="45.76962" lon="4.90356">
        <ele>223.85454</ele>
        <time>2023-08-27T13:40:52.000Z</time>
      </trkpt>
      <trkpt lat="45.76959" lon="4.9036">
        <ele>223.8333</ele>
        <time>2023-08-27T13:40:53.000Z</time>
      </trkpt>
      <trkpt lat="45.76955" lon="4.90364">
        <ele>223.79488</ele>
        <time>2023-08-27T13:40:54.000Z</time>
      </trkpt>
      <trkpt lat="45.76951" lon="4.90368">
        <ele>223.76546</ele>
        <time>2023-08-27T13:40:55.000Z</time>
      </trkpt>
      <trkpt lat="45.76948" lon="4.90372">
        <ele>223.79341</ele>
        <time>2023-08-27T13:40:56.000Z</time>
      </trkpt>
      <trkpt lat="45.76943" lon="4.90376">
        <ele>223.81274</ele>
        <time>2023-08-27T13:40:57.000Z</time>
      </trkpt>
      <trkpt lat="45.76939" lon="4.90381">
        <ele>223.85898</ele>
        <time>2023-08-27T13:40:58.000Z</time>
      </trkpt>
      <trkpt lat="45.76936" lon="4.90385">
        <ele>223.93179</ele>
        <time>2023-08-27T13:40:59.000Z</time>
      </trkpt>
      <trkpt lat="45.76933" lon="4.90389">
        <ele>223.99907</ele>
        <time>2023-08-27T13:41:00.000Z</time>
      </trkpt>
      <trkpt lat="45.76929" lon="4.90393">
        <ele>224.04939</ele>
        <time>2023-08-27T13:41:01.000Z</time>
      </trkpt>
      <trkpt lat="45.76926" lon="4.90397">
        <ele>224.10307</ele>
        <time>2023-08-27T13:41:02.000Z</time>
      </trkpt>
      <trkpt lat="45.76923" lon="4.90402">
        <ele>224.14592</ele>
        <time>2023-08-27T13:41:03.000Z</time>
      </trkpt>
      <trkpt lat="45.7692" lon="4.90407">
        <ele>224.15604</ele>
        <time>2023-08-27T13:41:04.000Z</time>
      </trkpt>
      <trkpt lat="45.76916" lon="4.90411">
        <ele>224.1877</ele>
        <time>2023-08-27T13:41:05.000Z</time>
      </trkpt>
      <trkpt lat="45.76913" lon="4.90416">
        <ele>224.22742</ele>
        <time>2023-08-27T13:41:06.000Z</time>
      </trkpt>
      <trkpt lat="45.76911" lon="4.90422">
        <ele>224.27054</ele>
        <time>2023-08-27T13:41:07.000Z</time>
      </trkpt>
      <trkpt lat="45.76908" lon="4.90427">
        <ele>224.28726</ele>
        <time>2023-08-27T13:41:08.000Z</time>
      </trkpt>
      <trkpt lat="45.76905" lon="4.90432">
        <ele>224.30063</ele>
        <time>2023-08-27T13:41:09.000Z</time>
      </trkpt>
      <trkpt lat="45.76902" lon="4.90437">
        <ele>224.34602</ele>
        <time>2023-08-27T13:41:10.000Z</time>
      </trkpt>
      <trkpt lat="45.76899" lon="4.90441">
        <ele>224.40572</ele>
        <time>2023-08-27T13:41:11.000Z</time>
      </trkpt>
      <trkpt lat="45.76895" lon="4.90446">
        <ele>224.44968</ele>
        <time>2023-08-27T13:41:12.000Z</time>
      </trkpt>
      <trkpt lat="45.76892" lon="4.90451">
        <ele>224.50581</ele>
        <time>2023-08-27T13:41:13.000Z</time>
      </trkpt>
      <trkpt lat="45.76889" lon="4.90456">
        <ele>224.57634</ele>
        <time>2023-08-27T13:41:14.000Z</time>
      </trkpt>
      <trkpt lat="45.76887" lon="4.9046">
        <ele>224.64722</ele>
        <time>2023-08-27T13:41:15.000Z</time>
      </trkpt>
      <trkpt lat="45.76884" lon="4.90465">
        <ele>224.69243</ele>
        <time>2023-08-27T13:41:16.000Z</time>
      </trkpt>
      <trkpt lat="45.76882" lon="4.90471">
        <ele>224.73445</ele>
        <time>2023-08-27T13:41:17.000Z</time>
      </trkpt>
      <trkpt lat="45.7688" lon="4.90475">
        <ele>224.73706</ele>
        <time>2023-08-27T13:41:18.000Z</time>
      </trkpt>
      <trkpt lat="45.76877" lon="4.9048">
        <ele>224.7841</ele>
        <time>2023-08-27T13:41:19.000Z</time>
      </trkpt>
      <trkpt lat="45.76875" lon="4.90485">
        <ele>224.83618</ele>
        <time>2023-08-27T13:41:20.000Z</time>
      </trkpt>
      <trkpt lat="45.76873" lon="4.90489">
        <ele>224.88986</ele>
        <time>2023-08-27T13:41:21.000Z</time>
      </trkpt>
      <trkpt lat="45.76872" lon="4.90494">
        <ele>224.96201</ele>
        <time>2023-08-27T13:41:22.000Z</time>
      </trkpt>
      <trkpt lat="45.76869" lon="4.90498">
        <ele>225.00244</ele>
        <time>2023-08-27T13:41:23.000Z</time>
      </trkpt>
      <trkpt lat="45.76868" lon="4.90504">
        <ele>225.03975</ele>
        <time>2023-08-27T13:41:24.000Z</time>
      </trkpt>
      <trkpt lat="45.76866" lon="4.90509">
        <ele>225.08379</ele>
        <time>2023-08-27T13:41:25.000Z</time>
      </trkpt>
      <trkpt lat="45.76864" lon="4.90515">
        <ele>225.15649</ele>
        <time>2023-08-27T13:41:26.000Z</time>
      </trkpt>
      <trkpt lat="45.76862" lon="4.90521">
        <ele>225.24503</ele>
        <time>2023-08-27T13:41:27.000Z</time>
      </trkpt>
      <trkpt lat="45.76859" lon="4.90526">
        <ele>225.32358</ele>
        <time>2023-08-27T13:41:28.000Z</time>
      </trkpt>
      <trkpt lat="45.76857" lon="4.90531">
        <ele>225.39206</ele>
        <time>2023-08-27T13:41:29.000Z</time>
      </trkpt>
      <trkpt lat="45.76856" lon="4.90539">
        <ele>225.43579</ele>
        <time>2023-08-27T13:41:30.000Z</time>
      </trkpt>
      <trkpt lat="45.76855" lon="4.90545">
        <ele>225.45886</ele>
        <time>2023-08-27T13:41:31.000Z</time>
      </trkpt>
      <trkpt lat="45.76851" lon="4.9055">
        <ele>225.4783</ele>
        <time>2023-08-27T13:41:32.000Z</time>
      </trkpt>
      <trkpt lat="45.76848" lon="4.90554">
        <ele>225.4731</ele>
        <time>2023-08-27T13:41:33.000Z</time>
      </trkpt>
      <trkpt lat="45.76845" lon="4.90559">
        <ele>225.45007</ele>
        <time>2023-08-27T13:41:34.000Z</time>
      </trkpt>
      <trkpt lat="45.76842" lon="4.90565">
        <ele>225.43994</ele>
        <time>2023-08-27T13:41:35.000Z</time>
      </trkpt>
      <trkpt lat="45.76839" lon="4.90569">
        <ele>225.42932</ele>
        <time>2023-08-27T13:41:36.000Z</time>
      </trkpt>
      <trkpt lat="45.76836" lon="4.90574">
        <ele>225.47449</ele>
        <time>2023-08-27T13:41:37.000Z</time>
      </trkpt>
      <trkpt lat="45.76834" lon="4.90579">
        <ele>225.54192</ele>
        <time>2023-08-27T13:41:38.000Z</time>
      </trkpt>
      <trkpt lat="45.76831" lon="4.90583">
        <ele>225.55356</ele>
        <time>2023-08-27T13:41:39.000Z</time>
      </trkpt>
      <trkpt lat="45.76828" lon="4.90588">
        <ele>225.5999</ele>
        <time>2023-08-27T13:41:40.000Z</time>
      </trkpt>
      <trkpt lat="45.76826" lon="4.90594">
        <ele>225.62273</ele>
        <time>2023-08-27T13:41:41.000Z</time>
      </trkpt>
      <trkpt lat="45.76824" lon="4.90598">
        <ele>225.62349</ele>
        <time>2023-08-27T13:41:42.000Z</time>
      </trkpt>
      <trkpt lat="45.76822" lon="4.90602">
        <ele>225.6678</ele>
        <time>2023-08-27T13:41:43.000Z</time>
      </trkpt>
      <trkpt lat="45.7682" lon="4.90607">
        <ele>225.70969</ele>
        <time>2023-08-27T13:41:44.000Z</time>
      </trkpt>
      <trkpt lat="45.76818" lon="4.90612">
        <ele>225.72966</ele>
        <time>2023-08-27T13:41:45.000Z</time>
      </trkpt>
      <trkpt lat="45.76817" lon="4.90617">
        <ele>225.70113</ele>
        <time>2023-08-27T13:41:46.000Z</time>
      </trkpt>
      <trkpt lat="45.76817" lon="4.90623">
        <ele>225.68716</ele>
        <time>2023-08-27T13:41:47.000Z</time>
      </trkpt>
      <trkpt lat="45.76816" lon="4.90629">
        <ele>225.67578</ele>
        <time>2023-08-27T13:41:48.000Z</time>
      </trkpt>
      <trkpt lat="45.76816" lon="4.90634">
        <ele>225.70419</ele>
        <time>2023-08-27T13:41:49.000Z</time>
      </trkpt>
      <trkpt lat="45.76815" lon="4.9064">
        <ele>225.72836</ele>
        <time>2023-08-27T13:41:50.000Z</time>
      </trkpt>
      <trkpt lat="45.76815" lon="4.90645">
        <ele>225.73662</ele>
        <time>2023-08-27T13:41:51.000Z</time>
      </trkpt>
      <trkpt lat="45.76813" lon="4.90651">
        <ele>225.75874</ele>
        <time>2023-08-27T13:41:52.000Z</time>
      </trkpt>
      <trkpt lat="45.76812" lon="4.90656">
        <ele>225.79919</ele>
        <time>2023-08-27T13:41:53.000Z</time>
      </trkpt>
      <trkpt lat="45.7681" lon="4.90662">
        <ele>225.83977</ele>
        <time>2023-08-27T13:41:54.000Z</time>
      </trkpt>
      <trkpt lat="45.76809" lon="4.90668">
        <ele>225.85918</ele>
        <time>2023-08-27T13:41:55.000Z</time>
      </trkpt>
      <trkpt lat="45.76808" lon="4.90673">
        <ele>225.87524</ele>
        <time>2023-08-27T13:41:56.000Z</time>
      </trkpt>
      <trkpt lat="45.76807" lon="4.9068">
        <ele>225.83408</ele>
        <time>2023-08-27T13:41:57.000Z</time>
      </trkpt>
      <trkpt lat="45.76807" lon="4.90686">
        <ele>225.77898</ele>
        <time>2023-08-27T13:41:58.000Z</time>
      </trkpt>
      <trkpt lat="45.76806" lon="4.90692">
        <ele>225.71228</ele>
        <time>2023-08-27T13:41:59.000Z</time>
      </trkpt>
      <trkpt lat="45.76805" lon="4.90698">
        <ele>225.65471</ele>
        <time>2023-08-27T13:42:00.000Z</time>
      </trkpt>
      <trkpt lat="45.76804" lon="4.90704">
        <ele>225.61862</ele>
        <time>2023-08-27T13:42:01.000Z</time>
      </trkpt>
      <trkpt lat="45.76803" lon="4.90711">
        <ele>225.57991</ele>
        <time>2023-08-27T13:42:02.000Z</time>
      </trkpt>
      <trkpt lat="45.76802" lon="4.90717">
        <ele>225.51749</ele>
        <time>2023-08-27T13:42:03.000Z</time>
      </trkpt>
      <trkpt lat="45.76802" lon="4.90723">
        <ele>225.45483</ele>
        <time>2023-08-27T13:42:04.000Z</time>
      </trkpt>
      <trkpt lat="45.76801" lon="4.90729">
        <ele>225.39844</ele>
        <time>2023-08-27T13:42:05.000Z</time>
      </trkpt>
      <trkpt lat="45.768" lon="4.90735">
        <ele>225.34534</ele>
        <time>2023-08-27T13:42:06.000Z</time>
      </trkpt>
      <trkpt lat="45.76799" lon="4.90742">
        <ele>225.2924</ele>
        <time>2023-08-27T13:42:07.000Z</time>
      </trkpt>
      <trkpt lat="45.76799" lon="4.90747">
        <ele>225.23885</ele>
        <time>2023-08-27T13:42:08.000Z</time>
      </trkpt>
      <trkpt lat="45.76798" lon="4.90753">
        <ele>225.1741</ele>
        <time>2023-08-27T13:42:09.000Z</time>
      </trkpt>
      <trkpt lat="45.76797" lon="4.90758">
        <ele>225.10176</ele>
        <time>2023-08-27T13:42:10.000Z</time>
      </trkpt>
      <trkpt lat="45.76797" lon="4.90764">
        <ele>225.01436</ele>
        <time>2023-08-27T13:42:11.000Z</time>
      </trkpt>
      <trkpt lat="45.76796" lon="4.9077">
        <ele>224.9213</ele>
        <time>2023-08-27T13:42:12.000Z</time>
      </trkpt>
      <trkpt lat="45.76795" lon="4.90776">
        <ele>224.77786</ele>
        <time>2023-08-27T13:42:13.000Z</time>
      </trkpt>
      <trkpt lat="45.76795" lon="4.90781">
        <ele>224.65706</ele>
        <time>2023-08-27T13:42:14.000Z</time>
      </trkpt>
      <trkpt lat="45.76794" lon="4.90787">
        <ele>224.54001</ele>
        <time>2023-08-27T13:42:15.000Z</time>
      </trkpt>
      <trkpt lat="45.76792" lon="4.90792">
        <ele>224.40952</ele>
        <time>2023-08-27T13:42:16.000Z</time>
      </trkpt>
      <trkpt lat="45.76791" lon="4.90798">
        <ele>224.25835</ele>
        <time>2023-08-27T13:42:17.000Z</time>
      </trkpt>
      <trkpt lat="45.7679" lon="4.90803">
        <ele>224.09209</ele>
        <time>2023-08-27T13:42:18.000Z</time>
      </trkpt>
      <trkpt lat="45.76788" lon="4.90808">
        <ele>223.94536</ele>
        <time>2023-08-27T13:42:19.000Z</time>
      </trkpt>
      <trkpt lat="45.76787" lon="4.90813">
        <ele>223.8176</ele>
        <time>2023-08-27T13:42:20.000Z</time>
      </trkpt>
      <trkpt lat="45.76786" lon="4.90818">
        <ele>223.71622</ele>
        <time>2023-08-27T13:42:21.000Z</time>
      </trkpt>
      <trkpt lat="45.76785" lon="4.90822">
        <ele>223.66895</ele>
        <time>2023-08-27T13:42:22.000Z</time>
      </trkpt>
      <trkpt lat="45.76783" lon="4.90827">
        <ele>223.66055</ele>
        <time>2023-08-27T13:42:23.000Z</time>
      </trkpt>
      <trkpt lat="45.76781" lon="4.90833">
        <ele>223.67117</ele>
        <time>2023-08-27T13:42:24.000Z</time>
      </trkpt>
      <trkpt lat="45.76779" lon="4.90838">
        <ele>223.69727</ele>
        <time>2023-08-27T13:42:25.000Z</time>
      </trkpt>
      <trkpt lat="45.76777" lon="4.90843">
        <ele>223.72176</ele>
        <time>2023-08-27T13:42:26.000Z</time>
      </trkpt>
      <trkpt lat="45.76776" lon="4.90849">
        <ele>223.72498</ele>
        <time>2023-08-27T13:42:27.000Z</time>
      </trkpt>
      <trkpt lat="45.76774" lon="4.90854">
        <ele>223.73238</ele>
        <time>2023-08-27T13:42:28.000Z</time>
      </trkpt>
      <trkpt lat="45.76772" lon="4.9086">
        <ele>223.71948</ele>
        <time>2023-08-27T13:42:29.000Z</time>
      </trkpt>
      <trkpt lat="45.7677" lon="4.90865">
        <ele>223.74118</ele>
        <time>2023-08-27T13:42:30.000Z</time>
      </trkpt>
      <trkpt lat="45.76768" lon="4.9087">
        <ele>223.78494</ele>
        <time>2023-08-27T13:42:31.000Z</time>
      </trkpt>
      <trkpt lat="45.76766" lon="4.90875">
        <ele>223.83211</ele>
        <time>2023-08-27T13:42:32.000Z</time>
      </trkpt>
      <trkpt lat="45.76764" lon="4.9088">
        <ele>223.93376</ele>
        <time>2023-08-27T13:42:33.000Z</time>
      </trkpt>
      <trkpt lat="45.76762" lon="4.90885">
        <ele>224.00407</ele>
        <time>2023-08-27T13:42:34.000Z</time>
      </trkpt>
      <trkpt lat="45.7676" lon="4.9089">
        <ele>224.06917</ele>
        <time>2023-08-27T13:42:35.000Z</time>
      </trkpt>
      <trkpt lat="45.76757" lon="4.90895">
        <ele>224.15182</ele>
        <time>2023-08-27T13:42:36.000Z</time>
      </trkpt>
      <trkpt lat="45.76756" lon="4.90901">
        <ele>224.27373</ele>
        <time>2023-08-27T13:42:37.000Z</time>
      </trkpt>
      <trkpt lat="45.76753" lon="4.90906">
        <ele>224.41489</ele>
        <time>2023-08-27T13:42:38.000Z</time>
      </trkpt>
      <trkpt lat="45.7675" lon="4.90912">
        <ele>224.53964</ele>
        <time>2023-08-27T13:42:39.000Z</time>
      </trkpt>
      <trkpt lat="45.76748" lon="4.90917">
        <ele>224.61995</ele>
        <time>2023-08-27T13:42:40.000Z</time>
      </trkpt>
      <trkpt lat="45.76746" lon="4.90922">
        <ele>224.68155</ele>
        <time>2023-08-27T13:42:41.000Z</time>
      </trkpt>
      <trkpt lat="45.76744" lon="4.90927">
        <ele>224.71524</ele>
        <time>2023-08-27T13:42:42.000Z</time>
      </trkpt>
      <trkpt lat="45.76742" lon="4.90932">
        <ele>224.74409</ele>
        <time>2023-08-27T13:42:43.000Z</time>
      </trkpt>
      <trkpt lat="45.7674" lon="4.90937">
        <ele>224.78008</ele>
        <time>2023-08-27T13:42:44.000Z</time>
      </trkpt>
      <trkpt lat="45.76738" lon="4.90942">
        <ele>224.80188</ele>
        <time>2023-08-27T13:42:45.000Z</time>
      </trkpt>
      <trkpt lat="45.76736" lon="4.90947">
        <ele>224.87442</ele>
        <time>2023-08-27T13:42:46.000Z</time>
      </trkpt>
      <trkpt lat="45.76733" lon="4.90952">
        <ele>224.93173</ele>
        <time>2023-08-27T13:42:47.000Z</time>
      </trkpt>
      <trkpt lat="45.76731" lon="4.90957">
        <ele>224.96951</ele>
        <time>2023-08-27T13:42:48.000Z</time>
      </trkpt>
      <trkpt lat="45.76728" lon="4.90961">
        <ele>224.99951</ele>
        <time>2023-08-27T13:42:49.000Z</time>
      </trkpt>
      <trkpt lat="45.76726" lon="4.90966">
        <ele>224.99435</ele>
        <time>2023-08-27T13:42:50.000Z</time>
      </trkpt>
      <trkpt lat="45.76724" lon="4.90971">
        <ele>224.995</ele>
        <time>2023-08-27T13:42:51.000Z</time>
      </trkpt>
      <trkpt lat="45.76721" lon="4.90977">
        <ele>224.98303</ele>
        <time>2023-08-27T13:42:52.000Z</time>
      </trkpt>
      <trkpt lat="45.76719" lon="4.90982">
        <ele>224.95468</ele>
        <time>2023-08-27T13:42:53.000Z</time>
      </trkpt>
      <trkpt lat="45.76717" lon="4.90986">
        <ele>224.95346</ele>
        <time>2023-08-27T13:42:54.000Z</time>
      </trkpt>
      <trkpt lat="45.76714" lon="4.90991">
        <ele>224.9646</ele>
        <time>2023-08-27T13:42:55.000Z</time>
      </trkpt>
      <trkpt lat="45.76712" lon="4.90996">
        <ele>224.9884</ele>
        <time>2023-08-27T13:42:56.000Z</time>
      </trkpt>
      <trkpt lat="45.7671" lon="4.91002">
        <ele>225.01782</ele>
        <time>2023-08-27T13:42:57.000Z</time>
      </trkpt>
      <trkpt lat="45.76708" lon="4.91007">
        <ele>225.05692</ele>
        <time>2023-08-27T13:42:58.000Z</time>
      </trkpt>
      <trkpt lat="45.76706" lon="4.91012">
        <ele>225.13577</ele>
        <time>2023-08-27T13:42:59.000Z</time>
      </trkpt>
      <trkpt lat="45.76705" lon="4.91017">
        <ele>225.21472</ele>
        <time>2023-08-27T13:43:00.000Z</time>
      </trkpt>
      <trkpt lat="45.76704" lon="4.91023">
        <ele>225.30412</ele>
        <time>2023-08-27T13:43:01.000Z</time>
      </trkpt>
      <trkpt lat="45.76702" lon="4.91029">
        <ele>225.37492</ele>
        <time>2023-08-27T13:43:02.000Z</time>
      </trkpt>
      <trkpt lat="45.76701" lon="4.91034">
        <ele>225.41415</ele>
        <time>2023-08-27T13:43:03.000Z</time>
      </trkpt>
      <trkpt lat="45.76699" lon="4.9104">
        <ele>225.41748</ele>
        <time>2023-08-27T13:43:04.000Z</time>
      </trkpt>
      <trkpt lat="45.76697" lon="4.91046">
        <ele>225.44174</ele>
        <time>2023-08-27T13:43:05.000Z</time>
      </trkpt>
      <trkpt lat="45.76695" lon="4.91051">
        <ele>225.43845</ele>
        <time>2023-08-27T13:43:06.000Z</time>
      </trkpt>
      <trkpt lat="45.76694" lon="4.91057">
        <ele>225.42691</ele>
        <time>2023-08-27T13:43:07.000Z</time>
      </trkpt>
      <trkpt lat="45.76692" lon="4.91062">
        <ele>225.42688</ele>
        <time>2023-08-27T13:43:08.000Z</time>
      </trkpt>
      <trkpt lat="45.7669" lon="4.91068">
        <ele>225.47983</ele>
        <time>2023-08-27T13:43:09.000Z</time>
      </trkpt>
      <trkpt lat="45.76689" lon="4.91073">
        <ele>225.55591</ele>
        <time>2023-08-27T13:43:10.000Z</time>
      </trkpt>
      <trkpt lat="45.76687" lon="4.91078">
        <ele>225.61487</ele>
        <time>2023-08-27T13:43:11.000Z</time>
      </trkpt>
      <trkpt lat="45.76685" lon="4.91084">
        <ele>225.6969</ele>
        <time>2023-08-27T13:43:12.000Z</time>
      </trkpt>
      <trkpt lat="45.76684" lon="4.91089">
        <ele>225.769</ele>
        <time>2023-08-27T13:43:13.000Z</time>
      </trkpt>
      <trkpt lat="45.76682" lon="4.91094">
        <ele>225.83476</ele>
        <time>2023-08-27T13:43:14.000Z</time>
      </trkpt>
      <trkpt lat="45.76681" lon="4.911">
        <ele>225.88223</ele>
        <time>2023-08-27T13:43:15.000Z</time>
      </trkpt>
      <trkpt lat="45.7668" lon="4.91106">
        <ele>225.92085</ele>
        <time>2023-08-27T13:43:16.000Z</time>
      </trkpt>
      <trkpt lat="45.76679" lon="4.91111">
        <ele>225.97705</ele>
        <time>2023-08-27T13:43:17.000Z</time>
      </trkpt>
      <trkpt lat="45.76678" lon="4.91117">
        <ele>226.04868</ele>
        <time>2023-08-27T13:43:18.000Z</time>
      </trkpt>
      <trkpt lat="45.76677" lon="4.91122">
        <ele>226.09171</ele>
        <time>2023-08-27T13:43:19.000Z</time>
      </trkpt>
      <trkpt lat="45.76675" lon="4.91126">
        <ele>226.12529</ele>
        <time>2023-08-27T13:43:20.000Z</time>
      </trkpt>
      <trkpt lat="45.76674" lon="4.91131">
        <ele>226.13785</ele>
        <time>2023-08-27T13:43:21.000Z</time>
      </trkpt>
      <trkpt lat="45.76673" lon="4.91136">
        <ele>226.13065</ele>
        <time>2023-08-27T13:43:22.000Z</time>
      </trkpt>
      <trkpt lat="45.76673" lon="4.9114">
        <ele>226.13895</ele>
        <time>2023-08-27T13:43:23.000Z</time>
      </trkpt>
      <trkpt lat="45.76672" lon="4.91145">
        <ele>226.1748</ele>
        <time>2023-08-27T13:43:24.000Z</time>
      </trkpt>
      <trkpt lat="45.76672" lon="4.91149">
        <ele>226.21086</ele>
        <time>2023-08-27T13:43:25.000Z</time>
      </trkpt>
      <trkpt lat="45.76672" lon="4.91153">
        <ele>226.26497</ele>
        <time>2023-08-27T13:43:26.000Z</time>
      </trkpt>
      <trkpt lat="45.76672" lon="4.91158">
        <ele>226.36003</ele>
        <time>2023-08-27T13:43:27.000Z</time>
      </trkpt>
      <trkpt lat="45.76671" lon="4.91163">
        <ele>226.4292</ele>
        <time>2023-08-27T13:43:28.000Z</time>
      </trkpt>
      <trkpt lat="45.76671" lon="4.91168">
        <ele>226.45981</ele>
        <time>2023-08-27T13:43:29.000Z</time>
      </trkpt>
      <trkpt lat="45.76671" lon="4.91173">
        <ele>226.48238</ele>
        <time>2023-08-27T13:43:30.000Z</time>
      </trkpt>
      <trkpt lat="45.76671" lon="4.91177">
        <ele>226.53011</ele>
        <time>2023-08-27T13:43:31.000Z</time>
      </trkpt>
      <trkpt lat="45.76672" lon="4.91182">
        <ele>226.56848</ele>
        <time>2023-08-27T13:43:32.000Z</time>
      </trkpt>
      <trkpt lat="45.76672" lon="4.91187">
        <ele>226.64163</ele>
        <time>2023-08-27T13:43:33.000Z</time>
      </trkpt>
      <trkpt lat="45.76673" lon="4.91191">
        <ele>226.70663</ele>
        <time>2023-08-27T13:43:34.000Z</time>
      </trkpt>
      <trkpt lat="45.76673" lon="4.91196">
        <ele>226.79041</ele>
        <time>2023-08-27T13:43:35.000Z</time>
      </trkpt>
      <trkpt lat="45.76673" lon="4.91201">
        <ele>226.82417</ele>
        <time>2023-08-27T13:43:36.000Z</time>
      </trkpt>
      <trkpt lat="45.76673" lon="4.91205">
        <ele>226.84187</ele>
        <time>2023-08-27T13:43:37.000Z</time>
      </trkpt>
      <trkpt lat="45.76673" lon="4.91208">
        <ele>226.84392</ele>
        <time>2023-08-27T13:43:38.000Z</time>
      </trkpt>
      <trkpt lat="45.76673" lon="4.91212">
        <ele>226.82532</ele>
        <time>2023-08-27T13:43:39.000Z</time>
      </trkpt>
      <trkpt lat="45.76673" lon="4.91216">
        <ele>226.78548</ele>
        <time>2023-08-27T13:43:40.000Z</time>
      </trkpt>
      <trkpt lat="45.76674" lon="4.91219">
        <ele>226.74222</ele>
        <time>2023-08-27T13:43:41.000Z</time>
      </trkpt>
      <trkpt lat="45.76674" lon="4.91222">
        <ele>226.72488</ele>
        <time>2023-08-27T13:43:42.000Z</time>
      </trkpt>
      <trkpt lat="45.76674" lon="4.91225">
        <ele>226.71989</ele>
        <time>2023-08-27T13:43:43.000Z</time>
      </trkpt>
      <trkpt lat="45.76674" lon="4.91228">
        <ele>226.71805</ele>
        <time>2023-08-27T13:43:44.000Z</time>
      </trkpt>
      <trkpt lat="45.76674" lon="4.91231">
        <ele>226.72054</ele>
        <time>2023-08-27T13:43:45.000Z</time>
      </trkpt>
      <trkpt lat="45.76673" lon="4.91233">
        <ele>226.7103</ele>
        <time>2023-08-27T13:43:46.000Z</time>
      </trkpt>
      <trkpt lat="45.76672" lon="4.91235">
        <ele>226.70358</ele>
        <time>2023-08-27T13:43:47.000Z</time>
      </trkpt>
      <trkpt lat="45.76671" lon="4.91237">
        <ele>226.70438</ele>
        <time>2023-08-27T13:43:48.000Z</time>
      </trkpt>
      <trkpt lat="45.76669" lon="4.9124">
        <ele>226.68579</ele>
        <time>2023-08-27T13:43:49.000Z</time>
      </trkpt>
      <trkpt lat="45.76668" lon="4.91241">
        <ele>226.66495</ele>
        <time>2023-08-27T13:43:50.000Z</time>
      </trkpt>
      <trkpt lat="45.76666" lon="4.91244">
        <ele>226.63699</ele>
        <time>2023-08-27T13:43:51.000Z</time>
      </trkpt>
      <trkpt lat="45.76665" lon="4.91247">
        <ele>226.63046</ele>
        <time>2023-08-27T13:43:52.000Z</time>
      </trkpt>
      <trkpt lat="45.76665" lon="4.91251">
        <ele>226.64522</ele>
        <time>2023-08-27T13:43:53.000Z</time>
      </trkpt>
      <trkpt lat="45.76665" lon="4.91254">
        <ele>226.69409</ele>
        <time>2023-08-27T13:43:54.000Z</time>
      </trkpt>
      <trkpt lat="45.76666" lon="4.91256">
        <ele>226.74214</ele>
        <time>2023-08-27T13:43:55.000Z</time>
      </trkpt>
      <trkpt lat="45.76666" lon="4.91259">
        <ele>226.85547</ele>
        <time>2023-08-27T13:43:56.000Z</time>
      </trkpt>
      <trkpt lat="45.76667" lon="4.91262">
        <ele>226.94991</ele>
        <time>2023-08-27T13:43:57.000Z</time>
      </trkpt>
      <trkpt lat="45.76667" lon="4.91265">
        <ele>227.05803</ele>
        <time>2023-08-27T13:43:58.000Z</time>
      </trkpt>
      <trkpt lat="45.76667" lon="4.9127">
        <ele>227.19052</ele>
        <time>2023-08-27T13:44:00.000Z</time>
      </trkpt>
      <trkpt lat="45.76667" lon="4.91276">
        <ele>227.38896</ele>
        <time>2023-08-27T13:44:02.000Z</time>
      </trkpt>
      <trkpt lat="45.76668" lon="4.91279">
        <ele>227.58589</ele>
        <time>2023-08-27T13:44:03.000Z</time>
      </trkpt>
      <trkpt lat="45.76669" lon="4.91283">
        <ele>227.78003</ele>
        <time>2023-08-27T13:44:04.000Z</time>
      </trkpt>
      <trkpt lat="45.76669" lon="4.91287">
        <ele>227.95667</ele>
        <time>2023-08-27T13:44:05.000Z</time>
      </trkpt>
      <trkpt lat="45.7667" lon="4.9129">
        <ele>228.13472</ele>
        <time>2023-08-27T13:44:06.000Z</time>
      </trkpt>
      <trkpt lat="45.7667" lon="4.91293">
        <ele>228.28732</ele>
        <time>2023-08-27T13:44:07.000Z</time>
      </trkpt>
      <trkpt lat="45.76671" lon="4.91296">
        <ele>228.41887</ele>
        <time>2023-08-27T13:44:08.000Z</time>
      </trkpt>
      <trkpt lat="45.76673" lon="4.913">
        <ele>228.54033</ele>
        <time>2023-08-27T13:44:10.000Z</time>
      </trkpt>
      <trkpt lat="45.76674" lon="4.91303">
        <ele>228.68523</ele>
        <time>2023-08-27T13:44:11.000Z</time>
      </trkpt>
      <trkpt lat="45.76675" lon="4.91306">
        <ele>228.86108</ele>
        <time>2023-08-27T13:44:12.000Z</time>
      </trkpt>
      <trkpt lat="45.76676" lon="4.91309">
        <ele>229.04524</ele>
        <time>2023-08-27T13:44:13.000Z</time>
      </trkpt>
      <trkpt lat="45.76677" lon="4.91313">
        <ele>229.22708</ele>
        <time>2023-08-27T13:44:14.000Z</time>
      </trkpt>
      <trkpt lat="45.76678" lon="4.91316">
        <ele>229.38806</ele>
        <time>2023-08-27T13:44:15.000Z</time>
      </trkpt>
      <trkpt lat="45.76678" lon="4.9132">
        <ele>229.52505</ele>
        <time>2023-08-27T13:44:16.000Z</time>
      </trkpt>
      <trkpt lat="45.76678" lon="4.91324">
        <ele>229.65649</ele>
        <time>2023-08-27T13:44:17.000Z</time>
      </trkpt>
      <trkpt lat="45.76678" lon="4.91328">
        <ele>229.77881</ele>
        <time>2023-08-27T13:44:18.000Z</time>
      </trkpt>
      <trkpt lat="45.76678" lon="4.91331">
        <ele>229.88286</ele>
        <time>2023-08-27T13:44:19.000Z</time>
      </trkpt>
      <trkpt lat="45.76677" lon="4.91334">
        <ele>229.98457</ele>
        <time>2023-08-27T13:44:20.000Z</time>
      </trkpt>
      <trkpt lat="45.76675" lon="4.9134">
        <ele>230.05237</ele>
        <time>2023-08-27T13:44:22.000Z</time>
      </trkpt>
      <trkpt lat="45.76674" lon="4.91343">
        <ele>230.11397</ele>
        <time>2023-08-27T13:44:23.000Z</time>
      </trkpt>
      <trkpt lat="45.76672" lon="4.91347">
        <ele>230.13107</ele>
        <time>2023-08-27T13:44:24.000Z</time>
      </trkpt>
      <trkpt lat="45.76671" lon="4.9135">
        <ele>230.16914</ele>
        <time>2023-08-27T13:44:25.000Z</time>
      </trkpt>
      <trkpt lat="45.7667" lon="4.91353">
        <ele>230.19492</ele>
        <time>2023-08-27T13:44:26.000Z</time>
      </trkpt>
      <trkpt lat="45.7667" lon="4.91356">
        <ele>230.21028</ele>
        <time>2023-08-27T13:44:27.000Z</time>
      </trkpt>
      <trkpt lat="45.7667" lon="4.91359">
        <ele>230.23303</ele>
        <time>2023-08-27T13:44:28.000Z</time>
      </trkpt>
      <trkpt lat="45.7667" lon="4.91364">
        <ele>230.22551</ele>
        <time>2023-08-27T13:44:30.000Z</time>
      </trkpt>
      <trkpt lat="45.76671" lon="4.91366">
        <ele>230.23618</ele>
        <time>2023-08-27T13:44:31.000Z</time>
      </trkpt>
      <trkpt lat="45.76671" lon="4.91371">
        <ele>230.23975</ele>
        <time>2023-08-27T13:44:33.000Z</time>
      </trkpt>
      <trkpt lat="45.76671" lon="4.91375">
        <ele>230.22502</ele>
        <time>2023-08-27T13:44:34.000Z</time>
      </trkpt>
      <trkpt lat="45.76671" lon="4.91378">
        <ele>230.17378</ele>
        <time>2023-08-27T13:44:35.000Z</time>
      </trkpt>
      <trkpt lat="45.76671" lon="4.91381">
        <ele>230.11673</ele>
        <time>2023-08-27T13:44:36.000Z</time>
      </trkpt>
      <trkpt lat="45.76671" lon="4.91385">
        <ele>230.04956</ele>
        <time>2023-08-27T13:44:37.000Z</time>
      </trkpt>
      <trkpt lat="45.76671" lon="4.91388">
        <ele>229.974</ele>
        <time>2023-08-27T13:44:38.000Z</time>
      </trkpt>
      <trkpt lat="45.76671" lon="4.91391">
        <ele>229.87906</ele>
        <time>2023-08-27T13:44:39.000Z</time>
      </trkpt>
      <trkpt lat="45.76671" lon="4.91395">
        <ele>229.78764</ele>
        <time>2023-08-27T13:44:40.000Z</time>
      </trkpt>
      <trkpt lat="45.76671" lon="4.91398">
        <ele>229.69453</ele>
        <time>2023-08-27T13:44:41.000Z</time>
      </trkpt>
      <trkpt lat="45.76671" lon="4.91402">
        <ele>229.59993</ele>
        <time>2023-08-27T13:44:42.000Z</time>
      </trkpt>
      <trkpt lat="45.76671" lon="4.91405">
        <ele>229.51363</ele>
        <time>2023-08-27T13:44:43.000Z</time>
      </trkpt>
      <trkpt lat="45.76672" lon="4.91408">
        <ele>229.44902</ele>
        <time>2023-08-27T13:44:44.000Z</time>
      </trkpt>
      <trkpt lat="45.76672" lon="4.91412">
        <ele>229.40347</ele>
        <time>2023-08-27T13:44:45.000Z</time>
      </trkpt>
      <trkpt lat="45.76672" lon="4.91416">
        <ele>229.35161</ele>
        <time>2023-08-27T13:44:46.000Z</time>
      </trkpt>
      <trkpt lat="45.76672" lon="4.91419">
        <ele>229.356</ele>
        <time>2023-08-27T13:44:47.000Z</time>
      </trkpt>
      <trkpt lat="45.76672" lon="4.91423">
        <ele>229.35547</ele>
        <time>2023-08-27T13:44:48.000Z</time>
      </trkpt>
      <trkpt lat="45.76672" lon="4.91427">
        <ele>229.35347</ele>
        <time>2023-08-27T13:44:49.000Z</time>
      </trkpt>
      <trkpt lat="45.76672" lon="4.91431">
        <ele>229.33218</ele>
        <time>2023-08-27T13:44:50.000Z</time>
      </trkpt>
      <trkpt lat="45.76672" lon="4.91435">
        <ele>229.36043</ele>
        <time>2023-08-27T13:44:51.000Z</time>
      </trkpt>
      <trkpt lat="45.76672" lon="4.91439">
        <ele>229.38864</ele>
        <time>2023-08-27T13:44:52.000Z</time>
      </trkpt>
      <trkpt lat="45.76672" lon="4.91443">
        <ele>229.43697</ele>
        <time>2023-08-27T13:44:53.000Z</time>
      </trkpt>
      <trkpt lat="45.76672" lon="4.91447">
        <ele>229.50688</ele>
        <time>2023-08-27T13:44:54.000Z</time>
      </trkpt>
      <trkpt lat="45.76672" lon="4.9145">
        <ele>229.58989</ele>
        <time>2023-08-27T13:44:55.000Z</time>
      </trkpt>
      <trkpt lat="45.76673" lon="4.91454">
        <ele>229.70598</ele>
        <time>2023-08-27T13:44:56.000Z</time>
      </trkpt>
      <trkpt lat="45.76673" lon="4.91458">
        <ele>229.83467</ele>
        <time>2023-08-27T13:44:57.000Z</time>
      </trkpt>
      <trkpt lat="45.76673" lon="4.91462">
        <ele>229.93198</ele>
        <time>2023-08-27T13:44:58.000Z</time>
      </trkpt>
      <trkpt lat="45.76673" lon="4.91466">
        <ele>230.06046</ele>
        <time>2023-08-27T13:44:59.000Z</time>
      </trkpt>
      <trkpt lat="45.76674" lon="4.9147">
        <ele>230.17114</ele>
        <time>2023-08-27T13:45:00.000Z</time>
      </trkpt>
      <trkpt lat="45.76674" lon="4.91474">
        <ele>230.28545</ele>
        <time>2023-08-27T13:45:01.000Z</time>
      </trkpt>
      <trkpt lat="45.76674" lon="4.91474">
        <ele>230.28545</ele>
        <time>2023-08-27T13:45:01.000Z</time>
      </trkpt>
      <trkpt lat="45.76709" lon="4.9189">
        <ele>230.47282</ele>
        <time>2023-08-27T13:46:40.000Z</time>
      </trkpt>
      <trkpt lat="45.76709" lon="4.9189">
        <ele>230.47282</ele>
        <time>2023-08-27T13:46:40.000Z</time>
      </trkpt>
      <trkpt lat="45.7671" lon="4.91894">
        <ele>230.67268</ele>
        <time>2023-08-27T13:46:41.000Z</time>
      </trkpt>
      <trkpt lat="45.76711" lon="4.91899">
        <ele>230.88228</ele>
        <time>2023-08-27T13:46:42.000Z</time>
      </trkpt>
      <trkpt lat="45.76712" lon="4.91905">
        <ele>231.07207</ele>
        <time>2023-08-27T13:46:43.000Z</time>
      </trkpt>
      <trkpt lat="45.76713" lon="4.9191">
        <ele>231.28963</ele>
        <time>2023-08-27T13:46:44.000Z</time>
      </trkpt>
      <trkpt lat="45.76713" lon="4.91916">
        <ele>231.43457</ele>
        <time>2023-08-27T13:46:45.000Z</time>
      </trkpt>
      <trkpt lat="45.76714" lon="4.91921">
        <ele>231.61447</ele>
        <time>2023-08-27T13:46:46.000Z</time>
      </trkpt>
      <trkpt lat="45.76715" lon="4.91927">
        <ele>231.79912</ele>
        <time>2023-08-27T13:46:47.000Z</time>
      </trkpt>
      <trkpt lat="45.76716" lon="4.91933">
        <ele>232.00552</ele>
        <time>2023-08-27T13:46:48.000Z</time>
      </trkpt>
      <trkpt lat="45.76717" lon="4.91938">
        <ele>232.22566</ele>
        <time>2023-08-27T13:46:49.000Z</time>
      </trkpt>
      <trkpt lat="45.76718" lon="4.91944">
        <ele>232.4689</ele>
        <time>2023-08-27T13:46:50.000Z</time>
      </trkpt>
      <trkpt lat="45.76719" lon="4.91949">
        <ele>232.67325</ele>
        <time>2023-08-27T13:46:51.000Z</time>
      </trkpt>
      <trkpt lat="45.76719" lon="4.91954">
        <ele>232.86816</ele>
        <time>2023-08-27T13:46:52.000Z</time>
      </trkpt>
      <trkpt lat="45.7672" lon="4.91959">
        <ele>233.06999</ele>
        <time>2023-08-27T13:46:53.000Z</time>
      </trkpt>
      <trkpt lat="45.7672" lon="4.91964">
        <ele>233.25565</ele>
        <time>2023-08-27T13:46:54.000Z</time>
      </trkpt>
      <trkpt lat="45.76721" lon="4.91969">
        <ele>233.41129</ele>
        <time>2023-08-27T13:46:55.000Z</time>
      </trkpt>
      <trkpt lat="45.76721" lon="4.91974">
        <ele>233.57024</ele>
        <time>2023-08-27T13:46:56.000Z</time>
      </trkpt>
      <trkpt lat="45.76722" lon="4.9198">
        <ele>233.71623</ele>
        <time>2023-08-27T13:46:57.000Z</time>
      </trkpt>
      <trkpt lat="45.76723" lon="4.91985">
        <ele>233.84656</ele>
        <time>2023-08-27T13:46:58.000Z</time>
      </trkpt>
      <trkpt lat="45.76724" lon="4.9199">
        <ele>233.99075</ele>
        <time>2023-08-27T13:46:59.000Z</time>
      </trkpt>
      <trkpt lat="45.76725" lon="4.91995">
        <ele>234.06902</ele>
        <time>2023-08-27T13:47:00.000Z</time>
      </trkpt>
      <trkpt lat="45.76725" lon="4.92">
        <ele>234.1364</ele>
        <time>2023-08-27T13:47:01.000Z</time>
      </trkpt>
      <trkpt lat="45.76726" lon="4.92005">
        <ele>234.20187</ele>
        <time>2023-08-27T13:47:02.000Z</time>
      </trkpt>
      <trkpt lat="45.76727" lon="4.92011">
        <ele>234.28671</ele>
        <time>2023-08-27T13:47:03.000Z</time>
      </trkpt>
      <trkpt lat="45.76728" lon="4.92016">
        <ele>234.36179</ele>
        <time>2023-08-27T13:47:04.000Z</time>
      </trkpt>
      <trkpt lat="45.76729" lon="4.92022">
        <ele>234.43204</ele>
        <time>2023-08-27T13:47:05.000Z</time>
      </trkpt>
      <trkpt lat="45.7673" lon="4.92027">
        <ele>234.4782</ele>
        <time>2023-08-27T13:47:06.000Z</time>
      </trkpt>
      <trkpt lat="45.76731" lon="4.92031">
        <ele>234.53081</ele>
        <time>2023-08-27T13:47:07.000Z</time>
      </trkpt>
      <trkpt lat="45.76733" lon="4.92036">
        <ele>234.57617</ele>
        <time>2023-08-27T13:47:08.000Z</time>
      </trkpt>
      <trkpt lat="45.76734" lon="4.92041">
        <ele>234.59615</ele>
        <time>2023-08-27T13:47:09.000Z</time>
      </trkpt>
      <trkpt lat="45.76734" lon="4.92047">
        <ele>234.60173</ele>
        <time>2023-08-27T13:47:10.000Z</time>
      </trkpt>
      <trkpt lat="45.76734" lon="4.92053">
        <ele>234.64804</ele>
        <time>2023-08-27T13:47:11.000Z</time>
      </trkpt>
      <trkpt lat="45.76735" lon="4.92058">
        <ele>234.65512</ele>
        <time>2023-08-27T13:47:12.000Z</time>
      </trkpt>
      <trkpt lat="45.76735" lon="4.92065">
        <ele>234.68925</ele>
        <time>2023-08-27T13:47:13.000Z</time>
      </trkpt>
      <trkpt lat="45.76736" lon="4.92071">
        <ele>234.70601</ele>
        <time>2023-08-27T13:47:14.000Z</time>
      </trkpt>
      <trkpt lat="45.76737" lon="4.92076">
        <ele>234.76309</ele>
        <time>2023-08-27T13:47:15.000Z</time>
      </trkpt>
      <trkpt lat="45.76738" lon="4.92082">
        <ele>234.87024</ele>
        <time>2023-08-27T13:47:16.000Z</time>
      </trkpt>
      <trkpt lat="45.76739" lon="4.92088">
        <ele>234.95898</ele>
        <time>2023-08-27T13:47:17.000Z</time>
      </trkpt>
      <trkpt lat="45.7674" lon="4.92094">
        <ele>235.05014</ele>
        <time>2023-08-27T13:47:18.000Z</time>
      </trkpt>
      <trkpt lat="45.76742" lon="4.921">
        <ele>235.09387</ele>
        <time>2023-08-27T13:47:19.000Z</time>
      </trkpt>
      <trkpt lat="45.76743" lon="4.92105">
        <ele>235.12849</ele>
        <time>2023-08-27T13:47:20.000Z</time>
      </trkpt>
      <trkpt lat="45.76744" lon="4.92111">
        <ele>235.18613</ele>
        <time>2023-08-27T13:47:21.000Z</time>
      </trkpt>
      <trkpt lat="45.76745" lon="4.92116">
        <ele>235.24802</ele>
        <time>2023-08-27T13:47:22.000Z</time>
      </trkpt>
      <trkpt lat="45.76746" lon="4.92122">
        <ele>235.29309</ele>
        <time>2023-08-27T13:47:23.000Z</time>
      </trkpt>
      <trkpt lat="45.76747" lon="4.92127">
        <ele>235.32581</ele>
        <time>2023-08-27T13:47:24.000Z</time>
      </trkpt>
      <trkpt lat="45.76749" lon="4.92132">
        <ele>235.37595</ele>
        <time>2023-08-27T13:47:25.000Z</time>
      </trkpt>
      <trkpt lat="45.76751" lon="4.92137">
        <ele>235.4377</ele>
        <time>2023-08-27T13:47:26.000Z</time>
      </trkpt>
      <trkpt lat="45.76753" lon="4.92143">
        <ele>235.5024</ele>
        <time>2023-08-27T13:47:27.000Z</time>
      </trkpt>
      <trkpt lat="45.76754" lon="4.92148">
        <ele>235.51004</ele>
        <time>2023-08-27T13:47:28.000Z</time>
      </trkpt>
      <trkpt lat="45.76755" lon="4.92153">
        <ele>235.49121</ele>
        <time>2023-08-27T13:47:29.000Z</time>
      </trkpt>
      <trkpt lat="45.76756" lon="4.92158">
        <ele>235.44597</ele>
        <time>2023-08-27T13:47:30.000Z</time>
      </trkpt>
      <trkpt lat="45.76757" lon="4.92163">
        <ele>235.38693</ele>
        <time>2023-08-27T13:47:31.000Z</time>
      </trkpt>
      <trkpt lat="45.76758" lon="4.92168">
        <ele>235.39697</ele>
        <time>2023-08-27T13:47:32.000Z</time>
      </trkpt>
      <trkpt lat="45.76759" lon="4.92172">
        <ele>235.35684</ele>
        <time>2023-08-27T13:47:33.000Z</time>
      </trkpt>
      <trkpt lat="45.76761" lon="4.92177">
        <ele>235.29082</ele>
        <time>2023-08-27T13:47:34.000Z</time>
      </trkpt>
      <trkpt lat="45.76763" lon="4.92182">
        <ele>235.23355</ele>
        <time>2023-08-27T13:47:35.000Z</time>
      </trkpt>
      <trkpt lat="45.76764" lon="4.92187">
        <ele>235.17078</ele>
        <time>2023-08-27T13:47:36.000Z</time>
      </trkpt>
      <trkpt lat="45.76766" lon="4.92192">
        <ele>235.09497</ele>
        <time>2023-08-27T13:47:37.000Z</time>
      </trkpt>
      <trkpt lat="45.76767" lon="4.92198">
        <ele>235.0135</ele>
        <time>2023-08-27T13:47:38.000Z</time>
      </trkpt>
      <trkpt lat="45.76768" lon="4.92203">
        <ele>234.94482</ele>
        <time>2023-08-27T13:47:39.000Z</time>
      </trkpt>
      <trkpt lat="45.7677" lon="4.92209">
        <ele>234.84561</ele>
        <time>2023-08-27T13:47:40.000Z</time>
      </trkpt>
      <trkpt lat="45.76771" lon="4.92214">
        <ele>234.74686</ele>
        <time>2023-08-27T13:47:41.000Z</time>
      </trkpt>
      <trkpt lat="45.76773" lon="4.9222">
        <ele>234.6375</ele>
        <time>2023-08-27T13:47:42.000Z</time>
      </trkpt>
      <trkpt lat="45.76774" lon="4.92225">
        <ele>234.57431</ele>
        <time>2023-08-27T13:47:43.000Z</time>
      </trkpt>
      <trkpt lat="45.76775" lon="4.9223">
        <ele>234.48589</ele>
        <time>2023-08-27T13:47:44.000Z</time>
      </trkpt>
      <trkpt lat="45.76776" lon="4.92235">
        <ele>234.39365</ele>
        <time>2023-08-27T13:47:45.000Z</time>
      </trkpt>
      <trkpt lat="45.76777" lon="4.9224">
        <ele>234.3107</ele>
        <time>2023-08-27T13:47:46.000Z</time>
      </trkpt>
      <trkpt lat="45.76778" lon="4.92245">
        <ele>234.26933</ele>
        <time>2023-08-27T13:47:47.000Z</time>
      </trkpt>
      <trkpt lat="45.7678" lon="4.9225">
        <ele>234.21707</ele>
        <time>2023-08-27T13:47:48.000Z</time>
      </trkpt>
      <trkpt lat="45.76781" lon="4.92256">
        <ele>234.20744</ele>
        <time>2023-08-27T13:47:49.000Z</time>
      </trkpt>
      <trkpt lat="45.76782" lon="4.9226">
        <ele>234.21672</ele>
        <time>2023-08-27T13:47:50.000Z</time>
      </trkpt>
      <trkpt lat="45.76783" lon="4.92264">
        <ele>234.20882</ele>
        <time>2023-08-27T13:47:51.000Z</time>
      </trkpt>
      <trkpt lat="45.76784" lon="4.9227">
        <ele>234.16216</ele>
        <time>2023-08-27T13:47:52.000Z</time>
      </trkpt>
      <trkpt lat="45.76785" lon="4.92275">
        <ele>234.10538</ele>
        <time>2023-08-27T13:47:53.000Z</time>
      </trkpt>
      <trkpt lat="45.76786" lon="4.92281">
        <ele>234.09575</ele>
        <time>2023-08-27T13:47:54.000Z</time>
      </trkpt>
      <trkpt lat="45.76788" lon="4.92287">
        <ele>234.03535</ele>
        <time>2023-08-27T13:47:55.000Z</time>
      </trkpt>
      <trkpt lat="45.76789" lon="4.92293">
        <ele>233.96196</ele>
        <time>2023-08-27T13:47:56.000Z</time>
      </trkpt>
      <trkpt lat="45.7679" lon="4.92299">
        <ele>233.91714</ele>
        <time>2023-08-27T13:47:57.000Z</time>
      </trkpt>
      <trkpt lat="45.76791" lon="4.92302">
        <ele>233.84175</ele>
        <time>2023-08-27T13:47:58.000Z</time>
      </trkpt>
      <trkpt lat="45.76792" lon="4.92305">
        <ele>233.76656</ele>
        <time>2023-08-27T13:47:59.000Z</time>
      </trkpt>
      <trkpt lat="45.76794" lon="4.92309">
        <ele>233.71835</ele>
        <time>2023-08-27T13:48:00.000Z</time>
      </trkpt>
      <trkpt lat="45.76795" lon="4.92313">
        <ele>233.64897</ele>
        <time>2023-08-27T13:48:01.000Z</time>
      </trkpt>
      <trkpt lat="45.76796" lon="4.92318">
        <ele>233.58171</ele>
        <time>2023-08-27T13:48:02.000Z</time>
      </trkpt>
      <trkpt lat="45.76797" lon="4.92322">
        <ele>233.46623</ele>
        <time>2023-08-27T13:48:03.000Z</time>
      </trkpt>
      <trkpt lat="45.76798" lon="4.92326">
        <ele>233.35532</ele>
        <time>2023-08-27T13:48:04.000Z</time>
      </trkpt>
      <trkpt lat="45.768" lon="4.9233">
        <ele>233.20049</ele>
        <time>2023-08-27T13:48:05.000Z</time>
      </trkpt>
      <trkpt lat="45.76802" lon="4.92334">
        <ele>232.87943</ele>
        <time>2023-08-27T13:48:06.000Z</time>
      </trkpt>
      <trkpt lat="45.76805" lon="4.92338">
        <ele>232.65495</ele>
        <time>2023-08-27T13:48:07.000Z</time>
      </trkpt>
      <trkpt lat="45.76807" lon="4.92344">
        <ele>232.50333</ele>
        <time>2023-08-27T13:48:08.000Z</time>
      </trkpt>
      <trkpt lat="45.76809" lon="4.92349">
        <ele>232.354</ele>
        <time>2023-08-27T13:48:09.000Z</time>
      </trkpt>
      <trkpt lat="45.7681" lon="4.92355">
        <ele>232.174</ele>
        <time>2023-08-27T13:48:10.000Z</time>
      </trkpt>
      <trkpt lat="45.76811" lon="4.92361">
        <ele>232.02498</ele>
        <time>2023-08-27T13:48:11.000Z</time>
      </trkpt>
      <trkpt lat="45.76813" lon="4.92366">
        <ele>231.8999</ele>
        <time>2023-08-27T13:48:12.000Z</time>
      </trkpt>
      <trkpt lat="45.76815" lon="4.92371">
        <ele>231.90178</ele>
        <time>2023-08-27T13:48:13.000Z</time>
      </trkpt>
      <trkpt lat="45.76817" lon="4.92376">
        <ele>231.91618</ele>
        <time>2023-08-27T13:48:14.000Z</time>
      </trkpt>
      <trkpt lat="45.7682" lon="4.92382">
        <ele>231.97408</ele>
        <time>2023-08-27T13:48:15.000Z</time>
      </trkpt>
      <trkpt lat="45.76822" lon="4.92388">
        <ele>232.05119</ele>
        <time>2023-08-27T13:48:16.000Z</time>
      </trkpt>
      <trkpt lat="45.76824" lon="4.92393">
        <ele>232.06499</ele>
        <time>2023-08-27T13:48:17.000Z</time>
      </trkpt>
      <trkpt lat="45.76826" lon="4.92399">
        <ele>232.11511</ele>
        <time>2023-08-27T13:48:18.000Z</time>
      </trkpt>
      <trkpt lat="45.76829" lon="4.92409">
        <ele>232.1748</ele>
        <time>2023-08-27T13:48:19.000Z</time>
      </trkpt>
      <trkpt lat="45.7683" lon="4.92415">
        <ele>232.25919</ele>
        <time>2023-08-27T13:48:20.000Z</time>
      </trkpt>
      <trkpt lat="45.76832" lon="4.92421">
        <ele>232.33994</ele>
        <time>2023-08-27T13:48:21.000Z</time>
      </trkpt>
      <trkpt lat="45.76833" lon="4.92427">
        <ele>232.40218</ele>
        <time>2023-08-27T13:48:22.000Z</time>
      </trkpt>
      <trkpt lat="45.76834" lon="4.92433">
        <ele>232.46346</ele>
        <time>2023-08-27T13:48:23.000Z</time>
      </trkpt>
      <trkpt lat="45.76835" lon="4.9244">
        <ele>232.5632</ele>
        <time>2023-08-27T13:48:24.000Z</time>
      </trkpt>
      <trkpt lat="45.76836" lon="4.92446">
        <ele>232.68388</ele>
        <time>2023-08-27T13:48:25.000Z</time>
      </trkpt>
      <trkpt lat="45.76837" lon="4.9245">
        <ele>232.98035</ele>
        <time>2023-08-27T13:48:26.000Z</time>
      </trkpt>
      <trkpt lat="45.76838" lon="4.92455">
        <ele>233.10672</ele>
        <time>2023-08-27T13:48:27.000Z</time>
      </trkpt>
      <trkpt lat="45.76839" lon="4.92461">
        <ele>233.22395</ele>
        <time>2023-08-27T13:48:28.000Z</time>
      </trkpt>
      <trkpt lat="45.7684" lon="4.92466">
        <ele>233.33707</ele>
        <time>2023-08-27T13:48:29.000Z</time>
      </trkpt>
      <trkpt lat="45.76841" lon="4.92471">
        <ele>233.5011</ele>
        <time>2023-08-27T13:48:30.000Z</time>
      </trkpt>
      <trkpt lat="45.76842" lon="4.92476">
        <ele>233.61674</ele>
        <time>2023-08-27T13:48:31.000Z</time>
      </trkpt>
      <trkpt lat="45.76843" lon="4.92482">
        <ele>233.71387</ele>
        <time>2023-08-27T13:48:32.000Z</time>
      </trkpt>
      <trkpt lat="45.76844" lon="4.92487">
        <ele>233.70596</ele>
        <time>2023-08-27T13:48:33.000Z</time>
      </trkpt>
      <trkpt lat="45.76845" lon="4.92492">
        <ele>233.644</ele>
        <time>2023-08-27T13:48:34.000Z</time>
      </trkpt>
      <trkpt lat="45.76846" lon="4.92497">
        <ele>233.55386</ele>
        <time>2023-08-27T13:48:35.000Z</time>
      </trkpt>
      <trkpt lat="45.76846" lon="4.92502">
        <ele>233.47665</ele>
        <time>2023-08-27T13:48:36.000Z</time>
      </trkpt>
      <trkpt lat="45.76847" lon="4.92508">
        <ele>233.42728</ele>
        <time>2023-08-27T13:48:37.000Z</time>
      </trkpt>
      <trkpt lat="45.76848" lon="4.92514">
        <ele>233.40556</ele>
        <time>2023-08-27T13:48:38.000Z</time>
      </trkpt>
      <trkpt lat="45.76848" lon="4.9252">
        <ele>233.38997</ele>
        <time>2023-08-27T13:48:39.000Z</time>
      </trkpt>
      <trkpt lat="45.76849" lon="4.92525">
        <ele>233.32854</ele>
        <time>2023-08-27T13:48:40.000Z</time>
      </trkpt>
      <trkpt lat="45.76851" lon="4.92531">
        <ele>233.28873</ele>
        <time>2023-08-27T13:48:41.000Z</time>
      </trkpt>
      <trkpt lat="45.76852" lon="4.92536">
        <ele>233.24223</ele>
        <time>2023-08-27T13:48:42.000Z</time>
      </trkpt>
      <trkpt lat="45.76853" lon="4.92541">
        <ele>233.21086</ele>
        <time>2023-08-27T13:48:43.000Z</time>
      </trkpt>
      <trkpt lat="45.76854" lon="4.92547">
        <ele>233.17184</ele>
        <time>2023-08-27T13:48:44.000Z</time>
      </trkpt>
      <trkpt lat="45.76855" lon="4.92553">
        <ele>233.12173</ele>
        <time>2023-08-27T13:48:45.000Z</time>
      </trkpt>
      <trkpt lat="45.76856" lon="4.92558">
        <ele>233.04428</ele>
        <time>2023-08-27T13:48:46.000Z</time>
      </trkpt>
      <trkpt lat="45.76857" lon="4.92564">
        <ele>232.99646</ele>
        <time>2023-08-27T13:48:47.000Z</time>
      </trkpt>
      <trkpt lat="45.76858" lon="4.92569">
        <ele>232.94353</ele>
        <time>2023-08-27T13:48:48.000Z</time>
      </trkpt>
      <trkpt lat="45.76859" lon="4.92575">
        <ele>232.89285</ele>
        <time>2023-08-27T13:48:49.000Z</time>
      </trkpt>
      <trkpt lat="45.7686" lon="4.92581">
        <ele>232.80891</ele>
        <time>2023-08-27T13:48:50.000Z</time>
      </trkpt>
      <trkpt lat="45.7686" lon="4.92588">
        <ele>232.75049</ele>
        <time>2023-08-27T13:48:51.000Z</time>
      </trkpt>
      <trkpt lat="45.7686" lon="4.92593">
        <ele>232.71738</ele>
        <time>2023-08-27T13:48:52.000Z</time>
      </trkpt>
      <trkpt lat="45.76861" lon="4.92599">
        <ele>232.70183</ele>
        <time>2023-08-27T13:48:53.000Z</time>
      </trkpt>
      <trkpt lat="45.76862" lon="4.92605">
        <ele>232.72095</ele>
        <time>2023-08-27T13:48:54.000Z</time>
      </trkpt>
      <trkpt lat="45.76863" lon="4.92611">
        <ele>232.77798</ele>
        <time>2023-08-27T13:48:55.000Z</time>
      </trkpt>
      <trkpt lat="45.76863" lon="4.92617">
        <ele>232.71152</ele>
        <time>2023-08-27T13:48:56.000Z</time>
      </trkpt>
      <trkpt lat="45.76864" lon="4.92622">
        <ele>232.63264</ele>
        <time>2023-08-27T13:48:57.000Z</time>
      </trkpt>
      <trkpt lat="45.76865" lon="4.92628">
        <ele>232.61899</ele>
        <time>2023-08-27T13:48:58.000Z</time>
      </trkpt>
      <trkpt lat="45.76866" lon="4.92634">
        <ele>232.63779</ele>
        <time>2023-08-27T13:48:59.000Z</time>
      </trkpt>
      <trkpt lat="45.76867" lon="4.92639">
        <ele>232.58188</ele>
        <time>2023-08-27T13:49:00.000Z</time>
      </trkpt>
      <trkpt lat="45.76868" lon="4.92645">
        <ele>232.49821</ele>
        <time>2023-08-27T13:49:01.000Z</time>
      </trkpt>
      <trkpt lat="45.76869" lon="4.9265">
        <ele>232.41733</ele>
        <time>2023-08-27T13:49:02.000Z</time>
      </trkpt>
      <trkpt lat="45.76869" lon="4.92656">
        <ele>232.36243</ele>
        <time>2023-08-27T13:49:03.000Z</time>
      </trkpt>
      <trkpt lat="45.7687" lon="4.92661">
        <ele>232.35078</ele>
        <time>2023-08-27T13:49:04.000Z</time>
      </trkpt>
      <trkpt lat="45.76871" lon="4.92665">
        <ele>232.33423</ele>
        <time>2023-08-27T13:49:05.000Z</time>
      </trkpt>
      <trkpt lat="45.76872" lon="4.92669">
        <ele>232.32016</ele>
        <time>2023-08-27T13:49:06.000Z</time>
      </trkpt>
      <trkpt lat="45.76872" lon="4.92673">
        <ele>232.38542</ele>
        <time>2023-08-27T13:49:07.000Z</time>
      </trkpt>
      <trkpt lat="45.76873" lon="4.92676">
        <ele>232.4344</ele>
        <time>2023-08-27T13:49:08.000Z</time>
      </trkpt>
      <trkpt lat="45.76874" lon="4.9268">
        <ele>232.44707</ele>
        <time>2023-08-27T13:49:09.000Z</time>
      </trkpt>
      <trkpt lat="45.76876" lon="4.92684">
        <ele>232.47195</ele>
        <time>2023-08-27T13:49:10.000Z</time>
      </trkpt>
      <trkpt lat="45.76877" lon="4.92688">
        <ele>232.50455</ele>
        <time>2023-08-27T13:49:11.000Z</time>
      </trkpt>
      <trkpt lat="45.76877" lon="4.92693">
        <ele>232.51352</ele>
        <time>2023-08-27T13:49:12.000Z</time>
      </trkpt>
      <trkpt lat="45.76877" lon="4.92699">
        <ele>232.4919</ele>
        <time>2023-08-27T13:49:13.000Z</time>
      </trkpt>
      <trkpt lat="45.76877" lon="4.92705">
        <ele>232.46159</ele>
        <time>2023-08-27T13:49:14.000Z</time>
      </trkpt>
      <trkpt lat="45.76877" lon="4.92712">
        <ele>232.42094</ele>
        <time>2023-08-27T13:49:15.000Z</time>
      </trkpt>
      <trkpt lat="45.76878" lon="4.92717">
        <ele>232.47205</ele>
        <time>2023-08-27T13:49:16.000Z</time>
      </trkpt>
      <trkpt lat="45.76878" lon="4.92723">
        <ele>232.56734</ele>
        <time>2023-08-27T13:49:17.000Z</time>
      </trkpt>
      <trkpt lat="45.76879" lon="4.9273">
        <ele>232.56543</ele>
        <time>2023-08-27T13:49:18.000Z</time>
      </trkpt>
      <trkpt lat="45.76879" lon="4.92735">
        <ele>232.51572</ele>
        <time>2023-08-27T13:49:19.000Z</time>
      </trkpt>
      <trkpt lat="45.7688" lon="4.92741">
        <ele>232.57199</ele>
        <time>2023-08-27T13:49:20.000Z</time>
      </trkpt>
      <trkpt lat="45.76881" lon="4.92746">
        <ele>232.63985</ele>
        <time>2023-08-27T13:49:21.000Z</time>
      </trkpt>
      <trkpt lat="45.76881" lon="4.92752">
        <ele>232.69714</ele>
        <time>2023-08-27T13:49:22.000Z</time>
      </trkpt>
      <trkpt lat="45.76882" lon="4.92758">
        <ele>232.73076</ele>
        <time>2023-08-27T13:49:23.000Z</time>
      </trkpt>
      <trkpt lat="45.76883" lon="4.92764">
        <ele>232.71579</ele>
        <time>2023-08-27T13:49:24.000Z</time>
      </trkpt>
      <trkpt lat="45.76883" lon="4.9277">
        <ele>232.73621</ele>
        <time>2023-08-27T13:49:25.000Z</time>
      </trkpt>
      <trkpt lat="45.76884" lon="4.92775">
        <ele>232.77112</ele>
        <time>2023-08-27T13:49:26.000Z</time>
      </trkpt>
      <trkpt lat="45.76884" lon="4.92781">
        <ele>232.73257</ele>
        <time>2023-08-27T13:49:27.000Z</time>
      </trkpt>
      <trkpt lat="45.76885" lon="4.92786">
        <ele>232.69333</ele>
        <time>2023-08-27T13:49:28.000Z</time>
      </trkpt>
      <trkpt lat="45.76886" lon="4.92792">
        <ele>232.67349</ele>
        <time>2023-08-27T13:49:29.000Z</time>
      </trkpt>
      <trkpt lat="45.76887" lon="4.92797">
        <ele>232.64267</ele>
        <time>2023-08-27T13:49:30.000Z</time>
      </trkpt>
      <trkpt lat="45.76887" lon="4.92803">
        <ele>232.60454</ele>
        <time>2023-08-27T13:49:31.000Z</time>
      </trkpt>
      <trkpt lat="45.76888" lon="4.92808">
        <ele>232.56046</ele>
        <time>2023-08-27T13:49:32.000Z</time>
      </trkpt>
      <trkpt lat="45.76888" lon="4.92813">
        <ele>232.54187</ele>
        <time>2023-08-27T13:49:33.000Z</time>
      </trkpt>
      <trkpt lat="45.76889" lon="4.92817">
        <ele>232.52747</ele>
        <time>2023-08-27T13:49:34.000Z</time>
      </trkpt>
      <trkpt lat="45.76891" lon="4.92822">
        <ele>232.52689</ele>
        <time>2023-08-27T13:49:35.000Z</time>
      </trkpt>
      <trkpt lat="45.76892" lon="4.92827">
        <ele>232.54257</ele>
        <time>2023-08-27T13:49:36.000Z</time>
      </trkpt>
      <trkpt lat="45.76893" lon="4.92831">
        <ele>232.51758</ele>
        <time>2023-08-27T13:49:37.000Z</time>
      </trkpt>
      <trkpt lat="45.76894" lon="4.92835">
        <ele>232.47331</ele>
        <time>2023-08-27T13:49:38.000Z</time>
      </trkpt>
      <trkpt lat="45.76894" lon="4.92839">
        <ele>232.44283</ele>
        <time>2023-08-27T13:49:39.000Z</time>
      </trkpt>
      <trkpt lat="45.76895" lon="4.92844">
        <ele>232.40088</ele>
        <time>2023-08-27T13:49:40.000Z</time>
      </trkpt>
      <trkpt lat="45.76896" lon="4.92847">
        <ele>232.3437</ele>
        <time>2023-08-27T13:49:41.000Z</time>
      </trkpt>
      <trkpt lat="45.76897" lon="4.92852">
        <ele>232.29495</ele>
        <time>2023-08-27T13:49:42.000Z</time>
      </trkpt>
      <trkpt lat="45.76898" lon="4.92857">
        <ele>232.2937</ele>
        <time>2023-08-27T13:49:43.000Z</time>
      </trkpt>
      <trkpt lat="45.769" lon="4.9286">
        <ele>232.31665</ele>
        <time>2023-08-27T13:49:44.000Z</time>
      </trkpt>
      <trkpt lat="45.76901" lon="4.92864">
        <ele>232.36154</ele>
        <time>2023-08-27T13:49:45.000Z</time>
      </trkpt>
      <trkpt lat="45.76902" lon="4.92869">
        <ele>232.3586</ele>
        <time>2023-08-27T13:49:46.000Z</time>
      </trkpt>
      <trkpt lat="45.76902" lon="4.92874">
        <ele>232.33965</ele>
        <time>2023-08-27T13:49:47.000Z</time>
      </trkpt>
      <trkpt lat="45.76903" lon="4.92879">
        <ele>232.28564</ele>
        <time>2023-08-27T13:49:48.000Z</time>
      </trkpt>
      <trkpt lat="45.76904" lon="4.92883">
        <ele>232.23898</ele>
        <time>2023-08-27T13:49:49.000Z</time>
      </trkpt>
      <trkpt lat="45.76906" lon="4.92888">
        <ele>232.20859</ele>
        <time>2023-08-27T13:49:50.000Z</time>
      </trkpt>
      <trkpt lat="45.76907" lon="4.92894">
        <ele>232.16153</ele>
        <time>2023-08-27T13:49:51.000Z</time>
      </trkpt>
      <trkpt lat="45.76907" lon="4.92899">
        <ele>232.11113</ele>
        <time>2023-08-27T13:49:52.000Z</time>
      </trkpt>
      <trkpt lat="45.76908" lon="4.92904">
        <ele>232.12289</ele>
        <time>2023-08-27T13:49:53.000Z</time>
      </trkpt>
      <trkpt lat="45.76909" lon="4.92909">
        <ele>232.08923</ele>
        <time>2023-08-27T13:49:54.000Z</time>
      </trkpt>
      <trkpt lat="45.7691" lon="4.92912">
        <ele>232.01314</ele>
        <time>2023-08-27T13:49:55.000Z</time>
      </trkpt>
      <trkpt lat="45.7691" lon="4.92916">
        <ele>231.92868</ele>
        <time>2023-08-27T13:49:56.000Z</time>
      </trkpt>
      <trkpt lat="45.76911" lon="4.92919">
        <ele>231.90079</ele>
        <time>2023-08-27T13:49:57.000Z</time>
      </trkpt>
      <trkpt lat="45.76912" lon="4.92921">
        <ele>231.9631</ele>
        <time>2023-08-27T13:49:58.000Z</time>
      </trkpt>
      <trkpt lat="45.76913" lon="4.92924">
        <ele>232.04341</ele>
        <time>2023-08-27T13:49:59.000Z</time>
      </trkpt>
      <trkpt lat="45.76914" lon="4.92927">
        <ele>232.14883</ele>
        <time>2023-08-27T13:50:00.000Z</time>
      </trkpt>
      <trkpt lat="45.76915" lon="4.92929">
        <ele>232.26016</ele>
        <time>2023-08-27T13:50:01.000Z</time>
      </trkpt>
      <trkpt lat="45.76915" lon="4.92934">
        <ele>232.37332</ele>
        <time>2023-08-27T13:50:03.000Z</time>
      </trkpt>
      <trkpt lat="45.76916" lon="4.92937">
        <ele>232.4108</ele>
        <time>2023-08-27T13:50:04.000Z</time>
      </trkpt>
      <trkpt lat="45.76916" lon="4.92941">
        <ele>232.37405</ele>
        <time>2023-08-27T13:50:05.000Z</time>
      </trkpt>
      <trkpt lat="45.76916" lon="4.92945">
        <ele>232.32852</ele>
        <time>2023-08-27T13:50:06.000Z</time>
      </trkpt>
      <trkpt lat="45.76917" lon="4.92948">
        <ele>232.28854</ele>
        <time>2023-08-27T13:50:07.000Z</time>
      </trkpt>
      <trkpt lat="45.76918" lon="4.92951">
        <ele>232.26065</ele>
        <time>2023-08-27T13:50:08.000Z</time>
      </trkpt>
      <trkpt lat="45.76919" lon="4.92954">
        <ele>232.31689</ele>
        <time>2023-08-27T13:50:09.000Z</time>
      </trkpt>
      <trkpt lat="45.7692" lon="4.92957">
        <ele>232.3772</ele>
        <time>2023-08-27T13:50:10.000Z</time>
      </trkpt>
      <trkpt lat="45.7692" lon="4.9296">
        <ele>232.43355</ele>
        <time>2023-08-27T13:50:11.000Z</time>
      </trkpt>
      <trkpt lat="45.76921" lon="4.92963">
        <ele>232.53189</ele>
        <time>2023-08-27T13:50:12.000Z</time>
      </trkpt>
      <trkpt lat="45.76921" lon="4.92967">
        <ele>232.61992</ele>
        <time>2023-08-27T13:50:13.000Z</time>
      </trkpt>
      <trkpt lat="45.76921" lon="4.92972">
        <ele>232.67131</ele>
        <time>2023-08-27T13:50:14.000Z</time>
      </trkpt>
      <trkpt lat="45.76921" lon="4.92976">
        <ele>232.7623</ele>
        <time>2023-08-27T13:50:15.000Z</time>
      </trkpt>
      <trkpt lat="45.76922" lon="4.9298">
        <ele>232.85945</ele>
        <time>2023-08-27T13:50:16.000Z</time>
      </trkpt>
      <trkpt lat="45.76925" lon="4.9299">
        <ele>232.9687</ele>
        <time>2023-08-27T13:50:17.000Z</time>
      </trkpt>
      <trkpt lat="45.76926" lon="4.92996">
        <ele>233.02803</ele>
        <time>2023-08-27T13:50:18.000Z</time>
      </trkpt>
      <trkpt lat="45.76928" lon="4.93001">
        <ele>233.01938</ele>
        <time>2023-08-27T13:50:19.000Z</time>
      </trkpt>
      <trkpt lat="45.76928" lon="4.93005">
        <ele>233.01054</ele>
        <time>2023-08-27T13:50:20.000Z</time>
      </trkpt>
      <trkpt lat="45.76928" lon="4.93011">
        <ele>232.92143</ele>
        <time>2023-08-27T13:50:21.000Z</time>
      </trkpt>
      <trkpt lat="45.76929" lon="4.93016">
        <ele>232.8997</ele>
        <time>2023-08-27T13:50:22.000Z</time>
      </trkpt>
      <trkpt lat="45.7693" lon="4.93021">
        <ele>232.89883</ele>
        <time>2023-08-27T13:50:23.000Z</time>
      </trkpt>
      <trkpt lat="45.76931" lon="4.93026">
        <ele>232.93428</ele>
        <time>2023-08-27T13:50:24.000Z</time>
      </trkpt>
      <trkpt lat="45.76931" lon="4.93033">
        <ele>233.0627</ele>
        <time>2023-08-27T13:50:25.000Z</time>
      </trkpt>
      <trkpt lat="45.76931" lon="4.93038">
        <ele>233.21085</ele>
        <time>2023-08-27T13:50:26.000Z</time>
      </trkpt>
      <trkpt lat="45.76932" lon="4.93044">
        <ele>233.40056</ele>
        <time>2023-08-27T13:50:27.000Z</time>
      </trkpt>
      <trkpt lat="45.76933" lon="4.93048">
        <ele>233.70757</ele>
        <time>2023-08-27T13:50:28.000Z</time>
      </trkpt>
      <trkpt lat="45.76933" lon="4.93051">
        <ele>233.96188</ele>
        <time>2023-08-27T13:50:29.000Z</time>
      </trkpt>
      <trkpt lat="45.76934" lon="4.93055">
        <ele>234.19632</ele>
        <time>2023-08-27T13:50:30.000Z</time>
      </trkpt>
      <trkpt lat="45.76935" lon="4.9306">
        <ele>234.45316</ele>
        <time>2023-08-27T13:50:31.000Z</time>
      </trkpt>
      <trkpt lat="45.76936" lon="4.93066">
        <ele>234.66475</ele>
        <time>2023-08-27T13:50:32.000Z</time>
      </trkpt>
      <trkpt lat="45.76937" lon="4.9307">
        <ele>234.88071</ele>
        <time>2023-08-27T13:50:33.000Z</time>
      </trkpt>
      <trkpt lat="45.76938" lon="4.93075">
        <ele>235.05173</ele>
        <time>2023-08-27T13:50:34.000Z</time>
      </trkpt>
      <trkpt lat="45.76939" lon="4.93082">
        <ele>235.17099</ele>
        <time>2023-08-27T13:50:35.000Z</time>
      </trkpt>
      <trkpt lat="45.7694" lon="4.93089">
        <ele>235.27493</ele>
        <time>2023-08-27T13:50:36.000Z</time>
      </trkpt>
      <trkpt lat="45.76941" lon="4.93095">
        <ele>235.37102</ele>
        <time>2023-08-27T13:50:37.000Z</time>
      </trkpt>
      <trkpt lat="45.76942" lon="4.931">
        <ele>235.50864</ele>
        <time>2023-08-27T13:50:38.000Z</time>
      </trkpt>
      <trkpt lat="45.76943" lon="4.93106">
        <ele>235.66663</ele>
        <time>2023-08-27T13:50:39.000Z</time>
      </trkpt>
      <trkpt lat="45.76943" lon="4.93112">
        <ele>235.80717</ele>
        <time>2023-08-27T13:50:40.000Z</time>
      </trkpt>
      <trkpt lat="45.76944" lon="4.93118">
        <ele>236.0076</ele>
        <time>2023-08-27T13:50:41.000Z</time>
      </trkpt>
      <trkpt lat="45.76944" lon="4.93124">
        <ele>236.14474</ele>
        <time>2023-08-27T13:50:42.000Z</time>
      </trkpt>
      <trkpt lat="45.76945" lon="4.93129">
        <ele>236.27007</ele>
        <time>2023-08-27T13:50:43.000Z</time>
      </trkpt>
      <trkpt lat="45.76946" lon="4.93135">
        <ele>236.3967</ele>
        <time>2023-08-27T13:50:44.000Z</time>
      </trkpt>
      <trkpt lat="45.76946" lon="4.93141">
        <ele>236.50545</ele>
        <time>2023-08-27T13:50:45.000Z</time>
      </trkpt>
      <trkpt lat="45.76947" lon="4.93147">
        <ele>236.57076</ele>
        <time>2023-08-27T13:50:46.000Z</time>
      </trkpt>
      <trkpt lat="45.76946" lon="4.93153">
        <ele>236.60416</ele>
        <time>2023-08-27T13:50:47.000Z</time>
      </trkpt>
      <trkpt lat="45.76946" lon="4.93159">
        <ele>236.44019</ele>
        <time>2023-08-27T13:50:48.000Z</time>
      </trkpt>
      <trkpt lat="45.76946" lon="4.93163">
        <ele>236.25972</ele>
        <time>2023-08-27T13:50:49.000Z</time>
      </trkpt>
      <trkpt lat="45.76946" lon="4.93168">
        <ele>236.01169</ele>
        <time>2023-08-27T13:50:50.000Z</time>
      </trkpt>
      <trkpt lat="45.76946" lon="4.93173">
        <ele>235.7314</ele>
        <time>2023-08-27T13:50:51.000Z</time>
      </trkpt>
      <trkpt lat="45.76946" lon="4.93178">
        <ele>235.45618</ele>
        <time>2023-08-27T13:50:52.000Z</time>
      </trkpt>
      <trkpt lat="45.76945" lon="4.93183">
        <ele>235.20456</ele>
        <time>2023-08-27T13:50:53.000Z</time>
      </trkpt>
      <trkpt lat="45.76945" lon="4.93188">
        <ele>234.97525</ele>
        <time>2023-08-27T13:50:54.000Z</time>
      </trkpt>
      <trkpt lat="45.76945" lon="4.93194">
        <ele>234.78214</ele>
        <time>2023-08-27T13:50:55.000Z</time>
      </trkpt>
      <trkpt lat="45.76946" lon="4.932">
        <ele>234.64621</ele>
        <time>2023-08-27T13:50:56.000Z</time>
      </trkpt>
      <trkpt lat="45.76946" lon="4.93206">
        <ele>234.52361</ele>
        <time>2023-08-27T13:50:57.000Z</time>
      </trkpt>
      <trkpt lat="45.76947" lon="4.93212">
        <ele>234.4126</ele>
        <time>2023-08-27T13:50:58.000Z</time>
      </trkpt>
      <trkpt lat="45.76948" lon="4.93218">
        <ele>234.31233</ele>
        <time>2023-08-27T13:50:59.000Z</time>
      </trkpt>
      <trkpt lat="45.76948" lon="4.93227">
        <ele>234.20874</ele>
        <time>2023-08-27T13:51:00.000Z</time>
      </trkpt>
      <trkpt lat="45.76948" lon="4.93233">
        <ele>234.06787</ele>
        <time>2023-08-27T13:51:01.000Z</time>
      </trkpt>
      <trkpt lat="45.76948" lon="4.9324">
        <ele>233.93484</ele>
        <time>2023-08-27T13:51:02.000Z</time>
      </trkpt>
      <trkpt lat="45.76946" lon="4.93248">
        <ele>233.80074</ele>
        <time>2023-08-27T13:51:03.000Z</time>
      </trkpt>
      <trkpt lat="45.76946" lon="4.93254">
        <ele>233.61832</ele>
        <time>2023-08-27T13:51:04.000Z</time>
      </trkpt>
      <trkpt lat="45.76946" lon="4.9326">
        <ele>233.38716</ele>
        <time>2023-08-27T13:51:05.000Z</time>
      </trkpt>
      <trkpt lat="45.76946" lon="4.93268">
        <ele>233.17966</ele>
        <time>2023-08-27T13:51:06.000Z</time>
      </trkpt>
      <trkpt lat="45.76947" lon="4.93276">
        <ele>232.9895</ele>
        <time>2023-08-27T13:51:07.000Z</time>
      </trkpt>
      <trkpt lat="45.76947" lon="4.93282">
        <ele>232.87285</ele>
        <time>2023-08-27T13:51:08.000Z</time>
      </trkpt>
      <trkpt lat="45.76948" lon="4.93289">
        <ele>232.80209</ele>
        <time>2023-08-27T13:51:09.000Z</time>
      </trkpt>
      <trkpt lat="45.76948" lon="4.93294">
        <ele>232.81339</ele>
        <time>2023-08-27T13:51:10.000Z</time>
      </trkpt>
      <trkpt lat="45.76949" lon="4.933">
        <ele>232.83858</ele>
        <time>2023-08-27T13:51:11.000Z</time>
      </trkpt>
      <trkpt lat="45.7695" lon="4.93305">
        <ele>232.87134</ele>
        <time>2023-08-27T13:51:12.000Z</time>
      </trkpt>
      <trkpt lat="45.7695" lon="4.9331">
        <ele>232.8862</ele>
        <time>2023-08-27T13:51:13.000Z</time>
      </trkpt>
      <trkpt lat="45.76951" lon="4.93316">
        <ele>232.9014</ele>
        <time>2023-08-27T13:51:14.000Z</time>
      </trkpt>
      <trkpt lat="45.76951" lon="4.9332">
        <ele>232.9135</ele>
        <time>2023-08-27T13:51:15.000Z</time>
      </trkpt>
      <trkpt lat="45.76951" lon="4.93325">
        <ele>232.94011</ele>
        <time>2023-08-27T13:51:16.000Z</time>
      </trkpt>
      <trkpt lat="45.76952" lon="4.9333">
        <ele>232.95105</ele>
        <time>2023-08-27T13:51:17.000Z</time>
      </trkpt>
      <trkpt lat="45.76953" lon="4.93335">
        <ele>232.9427</ele>
        <time>2023-08-27T13:51:18.000Z</time>
      </trkpt>
      <trkpt lat="45.76954" lon="4.93339">
        <ele>232.90335</ele>
        <time>2023-08-27T13:51:19.000Z</time>
      </trkpt>
      <trkpt lat="45.76955" lon="4.93343">
        <ele>232.89156</ele>
        <time>2023-08-27T13:51:20.000Z</time>
      </trkpt>
      <trkpt lat="45.76956" lon="4.93347">
        <ele>232.90982</ele>
        <time>2023-08-27T13:51:21.000Z</time>
      </trkpt>
      <trkpt lat="45.76957" lon="4.93351">
        <ele>232.93135</ele>
        <time>2023-08-27T13:51:22.000Z</time>
      </trkpt>
      <trkpt lat="45.76959" lon="4.93355">
        <ele>232.95932</ele>
        <time>2023-08-27T13:51:23.000Z</time>
      </trkpt>
      <trkpt lat="45.76962" lon="4.93358">
        <ele>233.00826</ele>
        <time>2023-08-27T13:51:24.000Z</time>
      </trkpt>
      <trkpt lat="45.76965" lon="4.93362">
        <ele>233.0657</ele>
        <time>2023-08-27T13:51:25.000Z</time>
      </trkpt>
      <trkpt lat="45.76968" lon="4.93366">
        <ele>233.14127</ele>
        <time>2023-08-27T13:51:26.000Z</time>
      </trkpt>
      <trkpt lat="45.76971" lon="4.93369">
        <ele>233.23593</ele>
        <time>2023-08-27T13:51:27.000Z</time>
      </trkpt>
      <trkpt lat="45.76973" lon="4.93373">
        <ele>233.33891</ele>
        <time>2023-08-27T13:51:28.000Z</time>
      </trkpt>
      <trkpt lat="45.76976" lon="4.93376">
        <ele>233.41882</ele>
        <time>2023-08-27T13:51:29.000Z</time>
      </trkpt>
      <trkpt lat="45.76979" lon="4.9338">
        <ele>233.47018</ele>
        <time>2023-08-27T13:51:30.000Z</time>
      </trkpt>
      <trkpt lat="45.76981" lon="4.93384">
        <ele>233.51196</ele>
        <time>2023-08-27T13:51:31.000Z</time>
      </trkpt>
      <trkpt lat="45.76984" lon="4.93388">
        <ele>233.56412</ele>
        <time>2023-08-27T13:51:32.000Z</time>
      </trkpt>
      <trkpt lat="45.76986" lon="4.93392">
        <ele>233.63335</ele>
        <time>2023-08-27T13:51:33.000Z</time>
      </trkpt>
      <trkpt lat="45.76989" lon="4.93396">
        <ele>233.71432</ele>
        <time>2023-08-27T13:51:34.000Z</time>
      </trkpt>
      <trkpt lat="45.76991" lon="4.934">
        <ele>233.79781</ele>
        <time>2023-08-27T13:51:35.000Z</time>
      </trkpt>
      <trkpt lat="45.76993" lon="4.93403">
        <ele>233.81107</ele>
        <time>2023-08-27T13:51:36.000Z</time>
      </trkpt>
      <trkpt lat="45.76995" lon="4.93407">
        <ele>233.83459</ele>
        <time>2023-08-27T13:51:37.000Z</time>
      </trkpt>
      <trkpt lat="45.76998" lon="4.93411">
        <ele>233.88028</ele>
        <time>2023-08-27T13:51:38.000Z</time>
      </trkpt>
      <trkpt lat="45.77" lon="4.93416">
        <ele>233.92844</ele>
        <time>2023-08-27T13:51:39.000Z</time>
      </trkpt>
      <trkpt lat="45.77002" lon="4.9342">
        <ele>233.95178</ele>
        <time>2023-08-27T13:51:40.000Z</time>
      </trkpt>
      <trkpt lat="45.77004" lon="4.93425">
        <ele>233.97798</ele>
        <time>2023-08-27T13:51:41.000Z</time>
      </trkpt>
      <trkpt lat="45.77006" lon="4.93429">
        <ele>233.98694</ele>
        <time>2023-08-27T13:51:42.000Z</time>
      </trkpt>
      <trkpt lat="45.77008" lon="4.93434">
        <ele>234.01274</ele>
        <time>2023-08-27T13:51:43.000Z</time>
      </trkpt>
      <trkpt lat="45.7701" lon="4.93438">
        <ele>234.02397</ele>
        <time>2023-08-27T13:51:44.000Z</time>
      </trkpt>
      <trkpt lat="45.77012" lon="4.93442">
        <ele>234.03023</ele>
        <time>2023-08-27T13:51:45.000Z</time>
      </trkpt>
      <trkpt lat="45.77014" lon="4.93447">
        <ele>233.96797</ele>
        <time>2023-08-27T13:51:46.000Z</time>
      </trkpt>
      <trkpt lat="45.77015" lon="4.93451">
        <ele>233.89153</ele>
        <time>2023-08-27T13:51:47.000Z</time>
      </trkpt>
      <trkpt lat="45.77017" lon="4.93455">
        <ele>233.82596</ele>
        <time>2023-08-27T13:51:48.000Z</time>
      </trkpt>
      <trkpt lat="45.77019" lon="4.9346">
        <ele>233.75937</ele>
        <time>2023-08-27T13:51:49.000Z</time>
      </trkpt>
      <trkpt lat="45.77021" lon="4.93465">
        <ele>233.67532</ele>
        <time>2023-08-27T13:51:50.000Z</time>
      </trkpt>
      <trkpt lat="45.77023" lon="4.9347">
        <ele>233.60373</ele>
        <time>2023-08-27T13:51:51.000Z</time>
      </trkpt>
      <trkpt lat="45.77025" lon="4.93475">
        <ele>233.54114</ele>
        <time>2023-08-27T13:51:52.000Z</time>
      </trkpt>
      <trkpt lat="45.77028" lon="4.9348">
        <ele>233.49158</ele>
        <time>2023-08-27T13:51:53.000Z</time>
      </trkpt>
      <trkpt lat="45.77029" lon="4.93484">
        <ele>233.42923</ele>
        <time>2023-08-27T13:51:54.000Z</time>
      </trkpt>
      <trkpt lat="45.77031" lon="4.93489">
        <ele>233.39163</ele>
        <time>2023-08-27T13:51:55.000Z</time>
      </trkpt>
      <trkpt lat="45.77033" lon="4.93493">
        <ele>233.39554</ele>
        <time>2023-08-27T13:51:56.000Z</time>
      </trkpt>
      <trkpt lat="45.77035" lon="4.93498">
        <ele>233.39148</ele>
        <time>2023-08-27T13:51:57.000Z</time>
      </trkpt>
      <trkpt lat="45.77037" lon="4.93502">
        <ele>233.32393</ele>
        <time>2023-08-27T13:51:58.000Z</time>
      </trkpt>
      <trkpt lat="45.77039" lon="4.93507">
        <ele>233.26433</ele>
        <time>2023-08-27T13:51:59.000Z</time>
      </trkpt>
      <trkpt lat="45.7704" lon="4.93511">
        <ele>233.20703</ele>
        <time>2023-08-27T13:52:00.000Z</time>
      </trkpt>
      <trkpt lat="45.77041" lon="4.93515">
        <ele>233.18033</ele>
        <time>2023-08-27T13:52:01.000Z</time>
      </trkpt>
      <trkpt lat="45.77043" lon="4.93519">
        <ele>233.17679</ele>
        <time>2023-08-27T13:52:02.000Z</time>
      </trkpt>
      <trkpt lat="45.77044" lon="4.93523">
        <ele>233.1313</ele>
        <time>2023-08-27T13:52:03.000Z</time>
      </trkpt>
      <trkpt lat="45.77045" lon="4.93526">
        <ele>233.12444</ele>
        <time>2023-08-27T13:52:04.000Z</time>
      </trkpt>
      <trkpt lat="45.77047" lon="4.93529">
        <ele>233.12778</ele>
        <time>2023-08-27T13:52:05.000Z</time>
      </trkpt>
      <trkpt lat="45.77048" lon="4.93531">
        <ele>233.21594</ele>
        <time>2023-08-27T13:52:06.000Z</time>
      </trkpt>
      <trkpt lat="45.7705" lon="4.93533">
        <ele>233.29427</ele>
        <time>2023-08-27T13:52:07.000Z</time>
      </trkpt>
      <trkpt lat="45.77051" lon="4.93537">
        <ele>233.35909</ele>
        <time>2023-08-27T13:52:08.000Z</time>
      </trkpt>
      <trkpt lat="45.77052" lon="4.93541">
        <ele>233.44121</ele>
        <time>2023-08-27T13:52:09.000Z</time>
      </trkpt>
      <trkpt lat="45.77054" lon="4.93545">
        <ele>233.5573</ele>
        <time>2023-08-27T13:52:10.000Z</time>
      </trkpt>
      <trkpt lat="45.77055" lon="4.93549">
        <ele>233.63069</ele>
        <time>2023-08-27T13:52:11.000Z</time>
      </trkpt>
      <trkpt lat="45.77056" lon="4.93554">
        <ele>233.67825</ele>
        <time>2023-08-27T13:52:12.000Z</time>
      </trkpt>
      <trkpt lat="45.77058" lon="4.93559">
        <ele>233.70596</ele>
        <time>2023-08-27T13:52:13.000Z</time>
      </trkpt>
      <trkpt lat="45.77059" lon="4.93564">
        <ele>233.7341</ele>
        <time>2023-08-27T13:52:14.000Z</time>
      </trkpt>
      <trkpt lat="45.77061" lon="4.93569">
        <ele>233.73486</ele>
        <time>2023-08-27T13:52:15.000Z</time>
      </trkpt>
      <trkpt lat="45.77063" lon="4.93574">
        <ele>233.7189</ele>
        <time>2023-08-27T13:52:16.000Z</time>
      </trkpt>
      <trkpt lat="45.77064" lon="4.9358">
        <ele>233.70093</ele>
        <time>2023-08-27T13:52:17.000Z</time>
      </trkpt>
      <trkpt lat="45.77067" lon="4.93586">
        <ele>233.7428</ele>
        <time>2023-08-27T13:52:18.000Z</time>
      </trkpt>
      <trkpt lat="45.77067" lon="4.93591">
        <ele>233.76958</ele>
        <time>2023-08-27T13:52:19.000Z</time>
      </trkpt>
      <trkpt lat="45.77069" lon="4.93596">
        <ele>233.86707</ele>
        <time>2023-08-27T13:52:20.000Z</time>
      </trkpt>
      <trkpt lat="45.77071" lon="4.93599">
        <ele>233.94717</ele>
        <time>2023-08-27T13:52:21.000Z</time>
      </trkpt>
      <trkpt lat="45.77072" lon="4.93603">
        <ele>234.00357</ele>
        <time>2023-08-27T13:52:22.000Z</time>
      </trkpt>
      <trkpt lat="45.77074" lon="4.9361">
        <ele>234.12708</ele>
        <time>2023-08-27T13:52:23.000Z</time>
      </trkpt>
      <trkpt lat="45.77074" lon="4.93615">
        <ele>234.2314</ele>
        <time>2023-08-27T13:52:24.000Z</time>
      </trkpt>
      <trkpt lat="45.77075" lon="4.9362">
        <ele>234.3822</ele>
        <time>2023-08-27T13:52:25.000Z</time>
      </trkpt>
      <trkpt lat="45.77075" lon="4.93625">
        <ele>234.50919</ele>
        <time>2023-08-27T13:52:26.000Z</time>
      </trkpt>
      <trkpt lat="45.77076" lon="4.93629">
        <ele>234.60889</ele>
        <time>2023-08-27T13:52:27.000Z</time>
      </trkpt>
      <trkpt lat="45.77076" lon="4.93635">
        <ele>234.69675</ele>
        <time>2023-08-27T13:52:28.000Z</time>
      </trkpt>
      <trkpt lat="45.77076" lon="4.93639">
        <ele>234.78149</ele>
        <time>2023-08-27T13:52:29.000Z</time>
      </trkpt>
      <trkpt lat="45.77075" lon="4.93643">
        <ele>234.87202</ele>
        <time>2023-08-27T13:52:30.000Z</time>
      </trkpt>
      <trkpt lat="45.77074" lon="4.93647">
        <ele>234.97847</ele>
        <time>2023-08-27T13:52:31.000Z</time>
      </trkpt>
      <trkpt lat="45.77073" lon="4.93652">
        <ele>235.09309</ele>
        <time>2023-08-27T13:52:32.000Z</time>
      </trkpt>
      <trkpt lat="45.77076" lon="4.93658">
        <ele>235.20386</ele>
        <time>2023-08-27T13:52:33.000Z</time>
      </trkpt>
      <trkpt lat="45.77079" lon="4.93663">
        <ele>235.38297</ele>
        <time>2023-08-27T13:52:34.000Z</time>
      </trkpt>
      <trkpt lat="45.77082" lon="4.9367">
        <ele>235.52466</ele>
        <time>2023-08-27T13:52:35.000Z</time>
      </trkpt>
      <trkpt lat="45.77085" lon="4.93676">
        <ele>235.67586</ele>
        <time>2023-08-27T13:52:36.000Z</time>
      </trkpt>
      <trkpt lat="45.77088" lon="4.93682">
        <ele>235.8343</ele>
        <time>2023-08-27T13:52:37.000Z</time>
      </trkpt>
      <trkpt lat="45.7709" lon="4.93689">
        <ele>235.95744</ele>
        <time>2023-08-27T13:52:38.000Z</time>
      </trkpt>
      <trkpt lat="45.77093" lon="4.93696">
        <ele>236.06706</ele>
        <time>2023-08-27T13:52:39.000Z</time>
      </trkpt>
      <trkpt lat="45.77095" lon="4.93702">
        <ele>236.07748</ele>
        <time>2023-08-27T13:52:40.000Z</time>
      </trkpt>
      <trkpt lat="45.77098" lon="4.93709">
        <ele>236.0686</ele>
        <time>2023-08-27T13:52:41.000Z</time>
      </trkpt>
      <trkpt lat="45.77101" lon="4.93715">
        <ele>236.08292</ele>
        <time>2023-08-27T13:52:42.000Z</time>
      </trkpt>
      <trkpt lat="45.77104" lon="4.9372">
        <ele>236.02417</ele>
        <time>2023-08-27T13:52:43.000Z</time>
      </trkpt>
      <trkpt lat="45.77107" lon="4.93726">
        <ele>235.96802</ele>
        <time>2023-08-27T13:52:44.000Z</time>
      </trkpt>
      <trkpt lat="45.77109" lon="4.93732">
        <ele>235.87949</ele>
        <time>2023-08-27T13:52:45.000Z</time>
      </trkpt>
      <trkpt lat="45.77112" lon="4.93738">
        <ele>235.77505</ele>
        <time>2023-08-27T13:52:46.000Z</time>
      </trkpt>
      <trkpt lat="45.77115" lon="4.93744">
        <ele>235.70157</ele>
        <time>2023-08-27T13:52:47.000Z</time>
      </trkpt>
      <trkpt lat="45.77117" lon="4.9375">
        <ele>235.6187</ele>
        <time>2023-08-27T13:52:48.000Z</time>
      </trkpt>
      <trkpt lat="45.77119" lon="4.93755">
        <ele>235.50955</ele>
        <time>2023-08-27T13:52:49.000Z</time>
      </trkpt>
      <trkpt lat="45.77122" lon="4.93761">
        <ele>235.39774</ele>
        <time>2023-08-27T13:52:50.000Z</time>
      </trkpt>
      <trkpt lat="45.77124" lon="4.93766">
        <ele>235.30954</ele>
        <time>2023-08-27T13:52:51.000Z</time>
      </trkpt>
      <trkpt lat="45.77127" lon="4.93772">
        <ele>235.19321</ele>
        <time>2023-08-27T13:52:52.000Z</time>
      </trkpt>
      <trkpt lat="45.7713" lon="4.93777">
        <ele>235.07829</ele>
        <time>2023-08-27T13:52:53.000Z</time>
      </trkpt>
      <trkpt lat="45.77133" lon="4.93783">
        <ele>234.89217</ele>
        <time>2023-08-27T13:52:54.000Z</time>
      </trkpt>
      <trkpt lat="45.77136" lon="4.93789">
        <ele>234.75139</ele>
        <time>2023-08-27T13:52:55.000Z</time>
      </trkpt>
      <trkpt lat="45.77139" lon="4.93795">
        <ele>234.62424</ele>
        <time>2023-08-27T13:52:56.000Z</time>
      </trkpt>
      <trkpt lat="45.77142" lon="4.93801">
        <ele>234.48328</ele>
        <time>2023-08-27T13:52:57.000Z</time>
      </trkpt>
      <trkpt lat="45.77145" lon="4.93807">
        <ele>234.3623</ele>
        <time>2023-08-27T13:52:58.000Z</time>
      </trkpt>
      <trkpt lat="45.77148" lon="4.93812">
        <ele>234.25627</ele>
        <time>2023-08-27T13:52:59.000Z</time>
      </trkpt>
      <trkpt lat="45.77151" lon="4.93818">
        <ele>234.16499</ele>
        <time>2023-08-27T13:53:00.000Z</time>
      </trkpt>
      <trkpt lat="45.77153" lon="4.93823">
        <ele>234.10129</ele>
        <time>2023-08-27T13:53:01.000Z</time>
      </trkpt>
      <trkpt lat="45.77157" lon="4.93829">
        <ele>234.01314</ele>
        <time>2023-08-27T13:53:02.000Z</time>
      </trkpt>
      <trkpt lat="45.77159" lon="4.93835">
        <ele>233.96631</ele>
        <time>2023-08-27T13:53:03.000Z</time>
      </trkpt>
      <trkpt lat="45.77162" lon="4.93839">
        <ele>233.92192</ele>
        <time>2023-08-27T13:53:04.000Z</time>
      </trkpt>
      <trkpt lat="45.77164" lon="4.93844">
        <ele>233.87509</ele>
        <time>2023-08-27T13:53:05.000Z</time>
      </trkpt>
      <trkpt lat="45.77167" lon="4.93849">
        <ele>233.84671</ele>
        <time>2023-08-27T13:53:06.000Z</time>
      </trkpt>
      <trkpt lat="45.7717" lon="4.93854">
        <ele>233.832</ele>
        <time>2023-08-27T13:53:07.000Z</time>
      </trkpt>
      <trkpt lat="45.77172" lon="4.93859">
        <ele>233.81027</ele>
        <time>2023-08-27T13:53:08.000Z</time>
      </trkpt>
      <trkpt lat="45.77174" lon="4.93865">
        <ele>233.82034</ele>
        <time>2023-08-27T13:53:09.000Z</time>
      </trkpt>
      <trkpt lat="45.77178" lon="4.93871">
        <ele>233.78682</ele>
        <time>2023-08-27T13:53:10.000Z</time>
      </trkpt>
      <trkpt lat="45.7718" lon="4.93877">
        <ele>233.75481</ele>
        <time>2023-08-27T13:53:11.000Z</time>
      </trkpt>
      <trkpt lat="45.77183" lon="4.93883">
        <ele>233.72964</ele>
        <time>2023-08-27T13:53:12.000Z</time>
      </trkpt>
      <trkpt lat="45.77185" lon="4.93889">
        <ele>233.69421</ele>
        <time>2023-08-27T13:53:13.000Z</time>
      </trkpt>
      <trkpt lat="45.77188" lon="4.93895">
        <ele>233.71211</ele>
        <time>2023-08-27T13:53:14.000Z</time>
      </trkpt>
      <trkpt lat="45.77191" lon="4.93901">
        <ele>233.75752</ele>
        <time>2023-08-27T13:53:15.000Z</time>
      </trkpt>
      <trkpt lat="45.77195" lon="4.93907">
        <ele>233.79826</ele>
        <time>2023-08-27T13:53:16.000Z</time>
      </trkpt>
      <trkpt lat="45.77198" lon="4.93913">
        <ele>233.81119</ele>
        <time>2023-08-27T13:53:17.000Z</time>
      </trkpt>
      <trkpt lat="45.77201" lon="4.93919">
        <ele>233.8042</ele>
        <time>2023-08-27T13:53:18.000Z</time>
      </trkpt>
      <trkpt lat="45.77204" lon="4.93925">
        <ele>233.82593</ele>
        <time>2023-08-27T13:53:19.000Z</time>
      </trkpt>
      <trkpt lat="45.77208" lon="4.9393">
        <ele>233.85559</ele>
        <time>2023-08-27T13:53:20.000Z</time>
      </trkpt>
      <trkpt lat="45.7721" lon="4.93936">
        <ele>233.87297</ele>
        <time>2023-08-27T13:53:21.000Z</time>
      </trkpt>
      <trkpt lat="45.77213" lon="4.93941">
        <ele>233.87016</ele>
        <time>2023-08-27T13:53:22.000Z</time>
      </trkpt>
      <trkpt lat="45.77215" lon="4.93947">
        <ele>233.80611</ele>
        <time>2023-08-27T13:53:23.000Z</time>
      </trkpt>
      <trkpt lat="45.77218" lon="4.93952">
        <ele>233.74036</ele>
        <time>2023-08-27T13:53:24.000Z</time>
      </trkpt>
      <trkpt lat="45.7722" lon="4.93958">
        <ele>233.65996</ele>
        <time>2023-08-27T13:53:25.000Z</time>
      </trkpt>
      <trkpt lat="45.77223" lon="4.93963">
        <ele>233.55789</ele>
        <time>2023-08-27T13:53:26.000Z</time>
      </trkpt>
      <trkpt lat="45.77226" lon="4.93968">
        <ele>233.45427</ele>
        <time>2023-08-27T13:53:27.000Z</time>
      </trkpt>
      <trkpt lat="45.77229" lon="4.93974">
        <ele>233.38008</ele>
        <time>2023-08-27T13:53:28.000Z</time>
      </trkpt>
      <trkpt lat="45.77232" lon="4.93979">
        <ele>233.30193</ele>
        <time>2023-08-27T13:53:29.000Z</time>
      </trkpt>
      <trkpt lat="45.77234" lon="4.93984">
        <ele>233.23312</ele>
        <time>2023-08-27T13:53:30.000Z</time>
      </trkpt>
      <trkpt lat="45.77236" lon="4.93989">
        <ele>233.15442</ele>
        <time>2023-08-27T13:53:31.000Z</time>
      </trkpt>
      <trkpt lat="45.77239" lon="4.93995">
        <ele>233.09219</ele>
        <time>2023-08-27T13:53:32.000Z</time>
      </trkpt>
      <trkpt lat="45.77242" lon="4.94001">
        <ele>233.05948</ele>
        <time>2023-08-27T13:53:33.000Z</time>
      </trkpt>
      <trkpt lat="45.77244" lon="4.94007">
        <ele>232.96822</ele>
        <time>2023-08-27T13:53:34.000Z</time>
      </trkpt>
      <trkpt lat="45.77247" lon="4.94013">
        <ele>232.84676</ele>
        <time>2023-08-27T13:53:35.000Z</time>
      </trkpt>
      <trkpt lat="45.77249" lon="4.94018">
        <ele>232.73196</ele>
        <time>2023-08-27T13:53:36.000Z</time>
      </trkpt>
      <trkpt lat="45.77252" lon="4.94024">
        <ele>232.60107</ele>
        <time>2023-08-27T13:53:37.000Z</time>
      </trkpt>
      <trkpt lat="45.77255" lon="4.9403">
        <ele>232.495</ele>
        <time>2023-08-27T13:53:38.000Z</time>
      </trkpt>
      <trkpt lat="45.77258" lon="4.94036">
        <ele>232.35555</ele>
        <time>2023-08-27T13:53:39.000Z</time>
      </trkpt>
      <trkpt lat="45.77261" lon="4.94042">
        <ele>232.21638</ele>
        <time>2023-08-27T13:53:40.000Z</time>
      </trkpt>
      <trkpt lat="45.77263" lon="4.94047">
        <ele>232.05136</ele>
        <time>2023-08-27T13:53:41.000Z</time>
      </trkpt>
      <trkpt lat="45.77266" lon="4.94052">
        <ele>231.92363</ele>
        <time>2023-08-27T13:53:42.000Z</time>
      </trkpt>
      <trkpt lat="45.77268" lon="4.94057">
        <ele>231.80869</ele>
        <time>2023-08-27T13:53:43.000Z</time>
      </trkpt>
      <trkpt lat="45.7727" lon="4.94063">
        <ele>231.71988</ele>
        <time>2023-08-27T13:53:44.000Z</time>
      </trkpt>
      <trkpt lat="45.77273" lon="4.94069">
        <ele>231.64236</ele>
        <time>2023-08-27T13:53:45.000Z</time>
      </trkpt>
      <trkpt lat="45.77275" lon="4.94074">
        <ele>231.56804</ele>
        <time>2023-08-27T13:53:46.000Z</time>
      </trkpt>
      <trkpt lat="45.77278" lon="4.9408">
        <ele>231.47427</ele>
        <time>2023-08-27T13:53:47.000Z</time>
      </trkpt>
      <trkpt lat="45.77281" lon="4.94085">
        <ele>231.36316</ele>
        <time>2023-08-27T13:53:48.000Z</time>
      </trkpt>
      <trkpt lat="45.77284" lon="4.94091">
        <ele>231.24922</ele>
        <time>2023-08-27T13:53:49.000Z</time>
      </trkpt>
      <trkpt lat="45.77287" lon="4.94098">
        <ele>231.1833</ele>
        <time>2023-08-27T13:53:50.000Z</time>
      </trkpt>
      <trkpt lat="45.7729" lon="4.94103">
        <ele>231.12466</ele>
        <time>2023-08-27T13:53:51.000Z</time>
      </trkpt>
      <trkpt lat="45.77293" lon="4.94109">
        <ele>231.05981</ele>
        <time>2023-08-27T13:53:52.000Z</time>
      </trkpt>
      <trkpt lat="45.77296" lon="4.94114">
        <ele>230.96956</ele>
        <time>2023-08-27T13:53:53.000Z</time>
      </trkpt>
      <trkpt lat="45.77298" lon="4.9412">
        <ele>230.87456</ele>
        <time>2023-08-27T13:53:54.000Z</time>
      </trkpt>
      <trkpt lat="45.77301" lon="4.94125">
        <ele>230.78262</ele>
        <time>2023-08-27T13:53:55.000Z</time>
      </trkpt>
      <trkpt lat="45.77304" lon="4.9413">
        <ele>230.69824</ele>
        <time>2023-08-27T13:53:56.000Z</time>
      </trkpt>
      <trkpt lat="45.77307" lon="4.94136">
        <ele>230.67036</ele>
        <time>2023-08-27T13:53:57.000Z</time>
      </trkpt>
      <trkpt lat="45.7731" lon="4.94141">
        <ele>230.64925</ele>
        <time>2023-08-27T13:53:58.000Z</time>
      </trkpt>
      <trkpt lat="45.77313" lon="4.94147">
        <ele>230.61719</ele>
        <time>2023-08-27T13:53:59.000Z</time>
      </trkpt>
      <trkpt lat="45.77315" lon="4.94152">
        <ele>230.61166</ele>
        <time>2023-08-27T13:54:00.000Z</time>
      </trkpt>
      <trkpt lat="45.77319" lon="4.94158">
        <ele>230.65462</ele>
        <time>2023-08-27T13:54:01.000Z</time>
      </trkpt>
      <trkpt lat="45.77322" lon="4.94163">
        <ele>230.74265</ele>
        <time>2023-08-27T13:54:02.000Z</time>
      </trkpt>
      <trkpt lat="45.77325" lon="4.94169">
        <ele>230.88</ele>
        <time>2023-08-27T13:54:03.000Z</time>
      </trkpt>
      <trkpt lat="45.77327" lon="4.94174">
        <ele>230.9565</ele>
        <time>2023-08-27T13:54:04.000Z</time>
      </trkpt>
      <trkpt lat="45.7733" lon="4.9418">
        <ele>231.04712</ele>
        <time>2023-08-27T13:54:05.000Z</time>
      </trkpt>
      <trkpt lat="45.77333" lon="4.94186">
        <ele>231.1246</ele>
        <time>2023-08-27T13:54:06.000Z</time>
      </trkpt>
      <trkpt lat="45.77336" lon="4.94193">
        <ele>231.2395</ele>
        <time>2023-08-27T13:54:07.000Z</time>
      </trkpt>
      <trkpt lat="45.77339" lon="4.942">
        <ele>231.37187</ele>
        <time>2023-08-27T13:54:08.000Z</time>
      </trkpt>
      <trkpt lat="45.77342" lon="4.94206">
        <ele>231.52747</ele>
        <time>2023-08-27T13:54:09.000Z</time>
      </trkpt>
      <trkpt lat="45.77344" lon="4.94212">
        <ele>231.64478</ele>
        <time>2023-08-27T13:54:10.000Z</time>
      </trkpt>
      <trkpt lat="45.77346" lon="4.94219">
        <ele>231.74158</ele>
        <time>2023-08-27T13:54:11.000Z</time>
      </trkpt>
      <trkpt lat="45.77349" lon="4.94226">
        <ele>231.83086</ele>
        <time>2023-08-27T13:54:12.000Z</time>
      </trkpt>
      <trkpt lat="45.77352" lon="4.94233">
        <ele>231.88565</ele>
        <time>2023-08-27T13:54:13.000Z</time>
      </trkpt>
      <trkpt lat="45.77354" lon="4.9424">
        <ele>231.94576</ele>
        <time>2023-08-27T13:54:14.000Z</time>
      </trkpt>
      <trkpt lat="45.77357" lon="4.94246">
        <ele>232.01714</ele>
        <time>2023-08-27T13:54:15.000Z</time>
      </trkpt>
      <trkpt lat="45.7736" lon="4.94253">
        <ele>232.08521</ele>
        <time>2023-08-27T13:54:16.000Z</time>
      </trkpt>
      <trkpt lat="45.77361" lon="4.94259">
        <ele>232.16031</ele>
        <time>2023-08-27T13:54:17.000Z</time>
      </trkpt>
      <trkpt lat="45.77364" lon="4.94266">
        <ele>232.1855</ele>
        <time>2023-08-27T13:54:18.000Z</time>
      </trkpt>
      <trkpt lat="45.77366" lon="4.94273">
        <ele>232.22002</ele>
        <time>2023-08-27T13:54:19.000Z</time>
      </trkpt>
      <trkpt lat="45.77369" lon="4.9428">
        <ele>232.311</ele>
        <time>2023-08-27T13:54:20.000Z</time>
      </trkpt>
      <trkpt lat="45.77371" lon="4.94287">
        <ele>232.35124</ele>
        <time>2023-08-27T13:54:21.000Z</time>
      </trkpt>
      <trkpt lat="45.77373" lon="4.94293">
        <ele>232.34042</ele>
        <time>2023-08-27T13:54:22.000Z</time>
      </trkpt>
      <trkpt lat="45.77374" lon="4.943">
        <ele>232.3389</ele>
        <time>2023-08-27T13:54:23.000Z</time>
      </trkpt>
      <trkpt lat="45.77376" lon="4.94306">
        <ele>232.3969</ele>
        <time>2023-08-27T13:54:24.000Z</time>
      </trkpt>
      <trkpt lat="45.77377" lon="4.94312">
        <ele>232.49008</ele>
        <time>2023-08-27T13:54:25.000Z</time>
      </trkpt>
      <trkpt lat="45.77379" lon="4.94317">
        <ele>232.61096</ele>
        <time>2023-08-27T13:54:26.000Z</time>
      </trkpt>
      <trkpt lat="45.7738" lon="4.94325">
        <ele>232.61255</ele>
        <time>2023-08-27T13:54:27.000Z</time>
      </trkpt>
      <trkpt lat="45.7738" lon="4.94332">
        <ele>232.62195</ele>
        <time>2023-08-27T13:54:28.000Z</time>
      </trkpt>
      <trkpt lat="45.77381" lon="4.94339">
        <ele>232.63948</ele>
        <time>2023-08-27T13:54:29.000Z</time>
      </trkpt>
      <trkpt lat="45.77382" lon="4.94346">
        <ele>232.65401</ele>
        <time>2023-08-27T13:54:30.000Z</time>
      </trkpt>
      <trkpt lat="45.77382" lon="4.94353">
        <ele>232.69572</ele>
        <time>2023-08-27T13:54:31.000Z</time>
      </trkpt>
      <trkpt lat="45.77382" lon="4.94361">
        <ele>232.73108</ele>
        <time>2023-08-27T13:54:32.000Z</time>
      </trkpt>
      <trkpt lat="45.77383" lon="4.94369">
        <ele>232.78391</ele>
        <time>2023-08-27T13:54:33.000Z</time>
      </trkpt>
      <trkpt lat="45.77383" lon="4.94376">
        <ele>232.86604</ele>
        <time>2023-08-27T13:54:34.000Z</time>
      </trkpt>
      <trkpt lat="45.77383" lon="4.94383">
        <ele>232.98579</ele>
        <time>2023-08-27T13:54:35.000Z</time>
      </trkpt>
      <trkpt lat="45.77382" lon="4.94391">
        <ele>233.08772</ele>
        <time>2023-08-27T13:54:36.000Z</time>
      </trkpt>
      <trkpt lat="45.77382" lon="4.94398">
        <ele>233.19356</ele>
        <time>2023-08-27T13:54:37.000Z</time>
      </trkpt>
      <trkpt lat="45.7738" lon="4.94406">
        <ele>233.30029</ele>
        <time>2023-08-27T13:54:38.000Z</time>
      </trkpt>
      <trkpt lat="45.77378" lon="4.94414">
        <ele>233.45427</ele>
        <time>2023-08-27T13:54:39.000Z</time>
      </trkpt>
      <trkpt lat="45.77377" lon="4.94421">
        <ele>233.53658</ele>
        <time>2023-08-27T13:54:40.000Z</time>
      </trkpt>
      <trkpt lat="45.77374" lon="4.94428">
        <ele>233.65376</ele>
        <time>2023-08-27T13:54:41.000Z</time>
      </trkpt>
      <trkpt lat="45.77373" lon="4.94435">
        <ele>233.74258</ele>
        <time>2023-08-27T13:54:42.000Z</time>
      </trkpt>
      <trkpt lat="45.77372" lon="4.94442">
        <ele>233.81523</ele>
        <time>2023-08-27T13:54:43.000Z</time>
      </trkpt>
      <trkpt lat="45.7737" lon="4.94449">
        <ele>233.87289</ele>
        <time>2023-08-27T13:54:44.000Z</time>
      </trkpt>
      <trkpt lat="45.77369" lon="4.94457">
        <ele>233.89185</ele>
        <time>2023-08-27T13:54:45.000Z</time>
      </trkpt>
      <trkpt lat="45.77367" lon="4.94464">
        <ele>233.88045</ele>
        <time>2023-08-27T13:54:46.000Z</time>
      </trkpt>
      <trkpt lat="45.77365" lon="4.9447">
        <ele>233.95584</ele>
        <time>2023-08-27T13:54:47.000Z</time>
      </trkpt>
      <trkpt lat="45.77363" lon="4.94477">
        <ele>234.01228</ele>
        <time>2023-08-27T13:54:48.000Z</time>
      </trkpt>
      <trkpt lat="45.77362" lon="4.94484">
        <ele>234.0417</ele>
        <time>2023-08-27T13:54:49.000Z</time>
      </trkpt>
      <trkpt lat="45.7736" lon="4.94491">
        <ele>234.08003</ele>
        <time>2023-08-27T13:54:50.000Z</time>
      </trkpt>
      <trkpt lat="45.77358" lon="4.94497">
        <ele>234.11067</ele>
        <time>2023-08-27T13:54:51.000Z</time>
      </trkpt>
      <trkpt lat="45.77357" lon="4.94505">
        <ele>234.20096</ele>
        <time>2023-08-27T13:54:52.000Z</time>
      </trkpt>
      <trkpt lat="45.77356" lon="4.94512">
        <ele>234.31247</ele>
        <time>2023-08-27T13:54:53.000Z</time>
      </trkpt>
      <trkpt lat="45.77355" lon="4.94519">
        <ele>234.39468</ele>
        <time>2023-08-27T13:54:54.000Z</time>
      </trkpt>
      <trkpt lat="45.77354" lon="4.94525">
        <ele>234.44418</ele>
        <time>2023-08-27T13:54:55.000Z</time>
      </trkpt>
      <trkpt lat="45.77353" lon="4.94532">
        <ele>234.49495</ele>
        <time>2023-08-27T13:54:56.000Z</time>
      </trkpt>
      <trkpt lat="45.77351" lon="4.94539">
        <ele>234.51987</ele>
        <time>2023-08-27T13:54:57.000Z</time>
      </trkpt>
      <trkpt lat="45.7735" lon="4.94545">
        <ele>234.5488</ele>
        <time>2023-08-27T13:54:58.000Z</time>
      </trkpt>
      <trkpt lat="45.77349" lon="4.94551">
        <ele>234.57053</ele>
        <time>2023-08-27T13:54:59.000Z</time>
      </trkpt>
      <trkpt lat="45.77348" lon="4.94558">
        <ele>234.55632</ele>
        <time>2023-08-27T13:55:00.000Z</time>
      </trkpt>
      <trkpt lat="45.77347" lon="4.94563">
        <ele>234.51543</ele>
        <time>2023-08-27T13:55:01.000Z</time>
      </trkpt>
      <trkpt lat="45.77346" lon="4.94569">
        <ele>234.46298</ele>
        <time>2023-08-27T13:55:02.000Z</time>
      </trkpt>
      <trkpt lat="45.77346" lon="4.94574">
        <ele>234.43213</ele>
        <time>2023-08-27T13:55:03.000Z</time>
      </trkpt>
      <trkpt lat="45.77345" lon="4.94579">
        <ele>234.42534</ele>
        <time>2023-08-27T13:55:04.000Z</time>
      </trkpt>
      <trkpt lat="45.77344" lon="4.94584">
        <ele>234.43692</ele>
        <time>2023-08-27T13:55:05.000Z</time>
      </trkpt>
      <trkpt lat="45.77343" lon="4.94589">
        <ele>234.44739</ele>
        <time>2023-08-27T13:55:06.000Z</time>
      </trkpt>
      <trkpt lat="45.77343" lon="4.94593">
        <ele>234.47925</ele>
        <time>2023-08-27T13:55:07.000Z</time>
      </trkpt>
      <trkpt lat="45.77342" lon="4.94598">
        <ele>234.51167</ele>
        <time>2023-08-27T13:55:08.000Z</time>
      </trkpt>
      <trkpt lat="45.77342" lon="4.94602">
        <ele>234.55986</ele>
        <time>2023-08-27T13:55:09.000Z</time>
      </trkpt>
      <trkpt lat="45.77341" lon="4.94607">
        <ele>234.60239</ele>
        <time>2023-08-27T13:55:10.000Z</time>
      </trkpt>
      <trkpt lat="45.77341" lon="4.94612">
        <ele>234.67041</ele>
        <time>2023-08-27T13:55:11.000Z</time>
      </trkpt>
      <trkpt lat="45.7734" lon="4.94618">
        <ele>234.69124</ele>
        <time>2023-08-27T13:55:12.000Z</time>
      </trkpt>
      <trkpt lat="45.77339" lon="4.94624">
        <ele>234.72098</ele>
        <time>2023-08-27T13:55:13.000Z</time>
      </trkpt>
      <trkpt lat="45.77336" lon="4.94629">
        <ele>234.75562</ele>
        <time>2023-08-27T13:55:14.000Z</time>
      </trkpt>
      <trkpt lat="45.77334" lon="4.94636">
        <ele>234.75928</ele>
        <time>2023-08-27T13:55:15.000Z</time>
      </trkpt>
      <trkpt lat="45.77333" lon="4.94642">
        <ele>234.74951</ele>
        <time>2023-08-27T13:55:16.000Z</time>
      </trkpt>
      <trkpt lat="45.77332" lon="4.9465">
        <ele>234.75374</ele>
        <time>2023-08-27T13:55:17.000Z</time>
      </trkpt>
      <trkpt lat="45.77331" lon="4.94656">
        <ele>234.77222</ele>
        <time>2023-08-27T13:55:18.000Z</time>
      </trkpt>
      <trkpt lat="45.77329" lon="4.94664">
        <ele>234.77304</ele>
        <time>2023-08-27T13:55:19.000Z</time>
      </trkpt>
      <trkpt lat="45.77328" lon="4.9467">
        <ele>234.80896</ele>
        <time>2023-08-27T13:55:20.000Z</time>
      </trkpt>
      <trkpt lat="45.77327" lon="4.94677">
        <ele>234.85518</ele>
        <time>2023-08-27T13:55:21.000Z</time>
      </trkpt>
      <trkpt lat="45.77326" lon="4.94684">
        <ele>234.94946</ele>
        <time>2023-08-27T13:55:22.000Z</time>
      </trkpt>
      <trkpt lat="45.77327" lon="4.94691">
        <ele>235.02425</ele>
        <time>2023-08-27T13:55:23.000Z</time>
      </trkpt>
      <trkpt lat="45.77326" lon="4.94699">
        <ele>235.04477</ele>
        <time>2023-08-27T13:55:24.000Z</time>
      </trkpt>
      <trkpt lat="45.77325" lon="4.94706">
        <ele>235.0416</ele>
        <time>2023-08-27T13:55:25.000Z</time>
      </trkpt>
      <trkpt lat="45.77324" lon="4.94714">
        <ele>235.03691</ele>
        <time>2023-08-27T13:55:26.000Z</time>
      </trkpt>
      <trkpt lat="45.77323" lon="4.94722">
        <ele>235.00778</ele>
        <time>2023-08-27T13:55:27.000Z</time>
      </trkpt>
      <trkpt lat="45.77323" lon="4.9473">
        <ele>234.99057</ele>
        <time>2023-08-27T13:55:28.000Z</time>
      </trkpt>
      <trkpt lat="45.77323" lon="4.94737">
        <ele>234.97189</ele>
        <time>2023-08-27T13:55:29.000Z</time>
      </trkpt>
      <trkpt lat="45.77323" lon="4.94744">
        <ele>234.95889</ele>
        <time>2023-08-27T13:55:30.000Z</time>
      </trkpt>
      <trkpt lat="45.77322" lon="4.9475">
        <ele>234.92062</ele>
        <time>2023-08-27T13:55:31.000Z</time>
      </trkpt>
      <trkpt lat="45.77322" lon="4.94757">
        <ele>234.87631</ele>
        <time>2023-08-27T13:55:32.000Z</time>
      </trkpt>
      <trkpt lat="45.77321" lon="4.94763">
        <ele>234.84921</ele>
        <time>2023-08-27T13:55:33.000Z</time>
      </trkpt>
      <trkpt lat="45.7732" lon="4.9477">
        <ele>234.79492</ele>
        <time>2023-08-27T13:55:34.000Z</time>
      </trkpt>
      <trkpt lat="45.77321" lon="4.94776">
        <ele>234.7692</ele>
        <time>2023-08-27T13:55:35.000Z</time>
      </trkpt>
      <trkpt lat="45.77322" lon="4.94782">
        <ele>234.72359</ele>
        <time>2023-08-27T13:55:36.000Z</time>
      </trkpt>
      <trkpt lat="45.77322" lon="4.94788">
        <ele>234.74019</ele>
        <time>2023-08-27T13:55:37.000Z</time>
      </trkpt>
      <trkpt lat="45.77322" lon="4.94793">
        <ele>234.74084</ele>
        <time>2023-08-27T13:55:38.000Z</time>
      </trkpt>
      <trkpt lat="45.77322" lon="4.948">
        <ele>234.76059</ele>
        <time>2023-08-27T13:55:39.000Z</time>
      </trkpt>
      <trkpt lat="45.77321" lon="4.94808">
        <ele>234.73112</ele>
        <time>2023-08-27T13:55:40.000Z</time>
      </trkpt>
      <trkpt lat="45.77321" lon="4.94816">
        <ele>234.69502</ele>
        <time>2023-08-27T13:55:41.000Z</time>
      </trkpt>
      <trkpt lat="45.77321" lon="4.94823">
        <ele>234.62773</ele>
        <time>2023-08-27T13:55:42.000Z</time>
      </trkpt>
      <trkpt lat="45.7732" lon="4.9483">
        <ele>234.55344</ele>
        <time>2023-08-27T13:55:43.000Z</time>
      </trkpt>
      <trkpt lat="45.77321" lon="4.94837">
        <ele>234.48457</ele>
        <time>2023-08-27T13:55:44.000Z</time>
      </trkpt>
      <trkpt lat="45.77321" lon="4.94844">
        <ele>234.41653</ele>
        <time>2023-08-27T13:55:45.000Z</time>
      </trkpt>
      <trkpt lat="45.77321" lon="4.9485">
        <ele>234.35442</ele>
        <time>2023-08-27T13:55:46.000Z</time>
      </trkpt>
      <trkpt lat="45.77321" lon="4.94857">
        <ele>234.26749</ele>
        <time>2023-08-27T13:55:47.000Z</time>
      </trkpt>
      <trkpt lat="45.7732" lon="4.94864">
        <ele>234.17888</ele>
        <time>2023-08-27T13:55:48.000Z</time>
      </trkpt>
      <trkpt lat="45.7732" lon="4.9487">
        <ele>234.0621</ele>
        <time>2023-08-27T13:55:49.000Z</time>
      </trkpt>
      <trkpt lat="45.7732" lon="4.94876">
        <ele>233.91475</ele>
        <time>2023-08-27T13:55:50.000Z</time>
      </trkpt>
      <trkpt lat="45.7732" lon="4.94882">
        <ele>233.76602</ele>
        <time>2023-08-27T13:55:51.000Z</time>
      </trkpt>
      <trkpt lat="45.7732" lon="4.94889">
        <ele>233.66277</ele>
        <time>2023-08-27T13:55:52.000Z</time>
      </trkpt>
      <trkpt lat="45.77321" lon="4.94896">
        <ele>233.5135</ele>
        <time>2023-08-27T13:55:53.000Z</time>
      </trkpt>
      <trkpt lat="45.77322" lon="4.94902">
        <ele>233.40799</ele>
        <time>2023-08-27T13:55:54.000Z</time>
      </trkpt>
      <trkpt lat="45.77323" lon="4.94907">
        <ele>233.2664</ele>
        <time>2023-08-27T13:55:55.000Z</time>
      </trkpt>
      <trkpt lat="45.77325" lon="4.94911">
        <ele>233.15744</ele>
        <time>2023-08-27T13:55:56.000Z</time>
      </trkpt>
      <trkpt lat="45.77326" lon="4.94914">
        <ele>232.98618</ele>
        <time>2023-08-27T13:55:57.000Z</time>
      </trkpt>
      <trkpt lat="45.77327" lon="4.94918">
        <ele>232.84143</ele>
        <time>2023-08-27T13:55:58.000Z</time>
      </trkpt>
      <trkpt lat="45.77327" lon="4.94923">
        <ele>232.67386</ele>
        <time>2023-08-27T13:55:59.000Z</time>
      </trkpt>
      <trkpt lat="45.77327" lon="4.94931">
        <ele>232.58736</ele>
        <time>2023-08-27T13:56:00.000Z</time>
      </trkpt>
      <trkpt lat="45.77328" lon="4.94937">
        <ele>232.53381</ele>
        <time>2023-08-27T13:56:01.000Z</time>
      </trkpt>
      <trkpt lat="45.7733" lon="4.94944">
        <ele>232.52039</ele>
        <time>2023-08-27T13:56:02.000Z</time>
      </trkpt>
      <trkpt lat="45.7733" lon="4.9495">
        <ele>232.51389</ele>
        <time>2023-08-27T13:56:03.000Z</time>
      </trkpt>
      <trkpt lat="45.77332" lon="4.94958">
        <ele>232.52486</ele>
        <time>2023-08-27T13:56:04.000Z</time>
      </trkpt>
      <trkpt lat="45.77332" lon="4.94963">
        <ele>232.55496</ele>
        <time>2023-08-27T13:56:05.000Z</time>
      </trkpt>
      <trkpt lat="45.77333" lon="4.9497">
        <ele>232.53525</ele>
        <time>2023-08-27T13:56:06.000Z</time>
      </trkpt>
      <trkpt lat="45.77336" lon="4.94978">
        <ele>232.54854</ele>
        <time>2023-08-27T13:56:07.000Z</time>
      </trkpt>
      <trkpt lat="45.77337" lon="4.94986">
        <ele>232.53642</ele>
        <time>2023-08-27T13:56:08.000Z</time>
      </trkpt>
      <trkpt lat="45.77339" lon="4.94993">
        <ele>232.57597</ele>
        <time>2023-08-27T13:56:09.000Z</time>
      </trkpt>
      <trkpt lat="45.7734" lon="4.95">
        <ele>232.6729</ele>
        <time>2023-08-27T13:56:10.000Z</time>
      </trkpt>
      <trkpt lat="45.77342" lon="4.95008">
        <ele>232.77969</ele>
        <time>2023-08-27T13:56:11.000Z</time>
      </trkpt>
      <trkpt lat="45.77343" lon="4.95016">
        <ele>232.84659</ele>
        <time>2023-08-27T13:56:12.000Z</time>
      </trkpt>
      <trkpt lat="45.77345" lon="4.95025">
        <ele>232.94316</ele>
        <time>2023-08-27T13:56:13.000Z</time>
      </trkpt>
      <trkpt lat="45.77346" lon="4.95032">
        <ele>233.0706</ele>
        <time>2023-08-27T13:56:14.000Z</time>
      </trkpt>
      <trkpt lat="45.77348" lon="4.95039">
        <ele>233.22383</ele>
        <time>2023-08-27T13:56:15.000Z</time>
      </trkpt>
      <trkpt lat="45.7735" lon="4.95046">
        <ele>233.33914</ele>
        <time>2023-08-27T13:56:16.000Z</time>
      </trkpt>
      <trkpt lat="45.77351" lon="4.95053">
        <ele>233.4473</ele>
        <time>2023-08-27T13:56:17.000Z</time>
      </trkpt>
      <trkpt lat="45.77352" lon="4.9506">
        <ele>233.55241</ele>
        <time>2023-08-27T13:56:18.000Z</time>
      </trkpt>
      <trkpt lat="45.77353" lon="4.95066">
        <ele>233.68974</ele>
        <time>2023-08-27T13:56:19.000Z</time>
      </trkpt>
      <trkpt lat="45.77354" lon="4.95072">
        <ele>233.80722</ele>
        <time>2023-08-27T13:56:20.000Z</time>
      </trkpt>
      <trkpt lat="45.77356" lon="4.95078">
        <ele>233.90483</ele>
        <time>2023-08-27T13:56:21.000Z</time>
      </trkpt>
      <trkpt lat="45.77358" lon="4.95085">
        <ele>233.97905</ele>
        <time>2023-08-27T13:56:22.000Z</time>
      </trkpt>
      <trkpt lat="45.77359" lon="4.95091">
        <ele>234.04301</ele>
        <time>2023-08-27T13:56:23.000Z</time>
      </trkpt>
      <trkpt lat="45.7736" lon="4.95098">
        <ele>234.08469</ele>
        <time>2023-08-27T13:56:24.000Z</time>
      </trkpt>
      <trkpt lat="45.77362" lon="4.95105">
        <ele>234.08687</ele>
        <time>2023-08-27T13:56:25.000Z</time>
      </trkpt>
      <trkpt lat="45.77364" lon="4.95113">
        <ele>234.12228</ele>
        <time>2023-08-27T13:56:26.000Z</time>
      </trkpt>
      <trkpt lat="45.77366" lon="4.9512">
        <ele>234.14375</ele>
        <time>2023-08-27T13:56:27.000Z</time>
      </trkpt>
      <trkpt lat="45.77368" lon="4.9513">
        <ele>234.16666</ele>
        <time>2023-08-27T13:56:28.000Z</time>
      </trkpt>
      <trkpt lat="45.7737" lon="4.95137">
        <ele>234.11739</ele>
        <time>2023-08-27T13:56:29.000Z</time>
      </trkpt>
      <trkpt lat="45.77373" lon="4.95144">
        <ele>234.0654</ele>
        <time>2023-08-27T13:56:30.000Z</time>
      </trkpt>
      <trkpt lat="45.77376" lon="4.9515">
        <ele>234.04556</ele>
        <time>2023-08-27T13:56:31.000Z</time>
      </trkpt>
      <trkpt lat="45.77379" lon="4.95157">
        <ele>234.03967</ele>
        <time>2023-08-27T13:56:32.000Z</time>
      </trkpt>
      <trkpt lat="45.77379" lon="4.95163">
        <ele>234.02405</ele>
        <time>2023-08-27T13:56:33.000Z</time>
      </trkpt>
      <trkpt lat="45.77381" lon="4.95171">
        <ele>233.95889</ele>
        <time>2023-08-27T13:56:34.000Z</time>
      </trkpt>
      <trkpt lat="45.77382" lon="4.95178">
        <ele>233.89812</ele>
        <time>2023-08-27T13:56:35.000Z</time>
      </trkpt>
      <trkpt lat="45.77385" lon="4.95184">
        <ele>233.85913</ele>
        <time>2023-08-27T13:56:36.000Z</time>
      </trkpt>
      <trkpt lat="45.77387" lon="4.95191">
        <ele>233.82181</ele>
        <time>2023-08-27T13:56:37.000Z</time>
      </trkpt>
      <trkpt lat="45.7739" lon="4.95197">
        <ele>233.7876</ele>
        <time>2023-08-27T13:56:38.000Z</time>
      </trkpt>
      <trkpt lat="45.77393" lon="4.95203">
        <ele>233.72513</ele>
        <time>2023-08-27T13:56:39.000Z</time>
      </trkpt>
      <trkpt lat="45.77396" lon="4.9521">
        <ele>233.64214</ele>
        <time>2023-08-27T13:56:40.000Z</time>
      </trkpt>
      <trkpt lat="45.77398" lon="4.95218">
        <ele>233.53047</ele>
        <time>2023-08-27T13:56:41.000Z</time>
      </trkpt>
      <trkpt lat="45.774" lon="4.95225">
        <ele>233.40063</ele>
        <time>2023-08-27T13:56:42.000Z</time>
      </trkpt>
      <trkpt lat="45.77403" lon="4.95231">
        <ele>233.27328</ele>
        <time>2023-08-27T13:56:43.000Z</time>
      </trkpt>
      <trkpt lat="45.77406" lon="4.95238">
        <ele>233.18723</ele>
        <time>2023-08-27T13:56:44.000Z</time>
      </trkpt>
      <trkpt lat="45.77408" lon="4.95245">
        <ele>233.0896</ele>
        <time>2023-08-27T13:56:45.000Z</time>
      </trkpt>
      <trkpt lat="45.7741" lon="4.95251">
        <ele>232.95508</ele>
        <time>2023-08-27T13:56:46.000Z</time>
      </trkpt>
      <trkpt lat="45.77412" lon="4.95258">
        <ele>232.847</ele>
        <time>2023-08-27T13:56:47.000Z</time>
      </trkpt>
      <trkpt lat="45.77415" lon="4.95265">
        <ele>232.76974</ele>
        <time>2023-08-27T13:56:48.000Z</time>
      </trkpt>
      <trkpt lat="45.77419" lon="4.95271">
        <ele>232.73022</ele>
        <time>2023-08-27T13:56:49.000Z</time>
      </trkpt>
      <trkpt lat="45.77421" lon="4.95278">
        <ele>232.69292</ele>
        <time>2023-08-27T13:56:50.000Z</time>
      </trkpt>
      <trkpt lat="45.77424" lon="4.95285">
        <ele>232.61201</ele>
        <time>2023-08-27T13:56:51.000Z</time>
      </trkpt>
      <trkpt lat="45.77426" lon="4.95291">
        <ele>232.52637</ele>
        <time>2023-08-27T13:56:52.000Z</time>
      </trkpt>
      <trkpt lat="45.77429" lon="4.95297">
        <ele>232.44389</ele>
        <time>2023-08-27T13:56:53.000Z</time>
      </trkpt>
      <trkpt lat="45.77432" lon="4.95303">
        <ele>232.38065</ele>
        <time>2023-08-27T13:56:54.000Z</time>
      </trkpt>
      <trkpt lat="45.77434" lon="4.95308">
        <ele>232.32024</ele>
        <time>2023-08-27T13:56:55.000Z</time>
      </trkpt>
      <trkpt lat="45.77436" lon="4.95314">
        <ele>232.22305</ele>
        <time>2023-08-27T13:56:56.000Z</time>
      </trkpt>
      <trkpt lat="45.77439" lon="4.9532">
        <ele>232.13835</ele>
        <time>2023-08-27T13:56:57.000Z</time>
      </trkpt>
      <trkpt lat="45.77441" lon="4.95326">
        <ele>232.09729</ele>
        <time>2023-08-27T13:56:58.000Z</time>
      </trkpt>
      <trkpt lat="45.77442" lon="4.95331">
        <ele>232.10381</ele>
        <time>2023-08-27T13:56:59.000Z</time>
      </trkpt>
      <trkpt lat="45.77444" lon="4.95337">
        <ele>232.07925</ele>
        <time>2023-08-27T13:57:00.000Z</time>
      </trkpt>
      <trkpt lat="45.77446" lon="4.95341">
        <ele>232.10532</ele>
        <time>2023-08-27T13:57:01.000Z</time>
      </trkpt>
      <trkpt lat="45.77448" lon="4.95345">
        <ele>232.14218</ele>
        <time>2023-08-27T13:57:02.000Z</time>
      </trkpt>
      <trkpt lat="45.7745" lon="4.9535">
        <ele>232.21277</ele>
        <time>2023-08-27T13:57:03.000Z</time>
      </trkpt>
      <trkpt lat="45.77452" lon="4.95353">
        <ele>232.28398</ele>
        <time>2023-08-27T13:57:04.000Z</time>
      </trkpt>
      <trkpt lat="45.77454" lon="4.95357">
        <ele>232.39534</ele>
        <time>2023-08-27T13:57:05.000Z</time>
      </trkpt>
      <trkpt lat="45.77456" lon="4.9536">
        <ele>232.54402</ele>
        <time>2023-08-27T13:57:06.000Z</time>
      </trkpt>
      <trkpt lat="45.77459" lon="4.95364">
        <ele>232.6503</ele>
        <time>2023-08-27T13:57:07.000Z</time>
      </trkpt>
      <trkpt lat="45.77462" lon="4.95368">
        <ele>232.71973</ele>
        <time>2023-08-27T13:57:08.000Z</time>
      </trkpt>
      <trkpt lat="45.77464" lon="4.95373">
        <ele>232.73335</ele>
        <time>2023-08-27T13:57:09.000Z</time>
      </trkpt>
      <trkpt lat="45.77467" lon="4.95377">
        <ele>232.73926</ele>
        <time>2023-08-27T13:57:10.000Z</time>
      </trkpt>
      <trkpt lat="45.7747" lon="4.9538">
        <ele>232.72339</ele>
        <time>2023-08-27T13:57:11.000Z</time>
      </trkpt>
      <trkpt lat="45.77474" lon="4.95385">
        <ele>232.71335</ele>
        <time>2023-08-27T13:57:12.000Z</time>
      </trkpt>
      <trkpt lat="45.77476" lon="4.95389">
        <ele>232.73347</ele>
        <time>2023-08-27T13:57:13.000Z</time>
      </trkpt>
      <trkpt lat="45.7748" lon="4.95393">
        <ele>232.76733</ele>
        <time>2023-08-27T13:57:14.000Z</time>
      </trkpt>
      <trkpt lat="45.77482" lon="4.95397">
        <ele>232.81815</ele>
        <time>2023-08-27T13:57:15.000Z</time>
      </trkpt>
      <trkpt lat="45.77484" lon="4.95402">
        <ele>232.86943</ele>
        <time>2023-08-27T13:57:16.000Z</time>
      </trkpt>
      <trkpt lat="45.77486" lon="4.95408">
        <ele>232.86897</ele>
        <time>2023-08-27T13:57:17.000Z</time>
      </trkpt>
      <trkpt lat="45.77488" lon="4.95411">
        <ele>232.79953</ele>
        <time>2023-08-27T13:57:18.000Z</time>
      </trkpt>
      <trkpt lat="45.77489" lon="4.95416">
        <ele>232.67612</ele>
        <time>2023-08-27T13:57:19.000Z</time>
      </trkpt>
      <trkpt lat="45.77488" lon="4.95418">
        <ele>232.56241</ele>
        <time>2023-08-27T13:57:20.000Z</time>
      </trkpt>
      <trkpt lat="45.77489" lon="4.95423">
        <ele>232.46367</ele>
        <time>2023-08-27T13:57:21.000Z</time>
      </trkpt>
      <trkpt lat="45.7749" lon="4.95429">
        <ele>232.36653</ele>
        <time>2023-08-27T13:57:22.000Z</time>
      </trkpt>
      <trkpt lat="45.77491" lon="4.95435">
        <ele>232.17696</ele>
        <time>2023-08-27T13:57:23.000Z</time>
      </trkpt>
      <trkpt lat="45.77493" lon="4.95442">
        <ele>231.95576</ele>
        <time>2023-08-27T13:57:24.000Z</time>
      </trkpt>
      <trkpt lat="45.77495" lon="4.95448">
        <ele>231.72464</ele>
        <time>2023-08-27T13:57:25.000Z</time>
      </trkpt>
      <trkpt lat="45.77498" lon="4.95454">
        <ele>231.56584</ele>
        <time>2023-08-27T13:57:26.000Z</time>
      </trkpt>
      <trkpt lat="45.77501" lon="4.95459">
        <ele>231.42737</ele>
        <time>2023-08-27T13:57:27.000Z</time>
      </trkpt>
      <trkpt lat="45.77503" lon="4.95466">
        <ele>231.32498</ele>
        <time>2023-08-27T13:57:28.000Z</time>
      </trkpt>
      <trkpt lat="45.77505" lon="4.95473">
        <ele>231.26169</ele>
        <time>2023-08-27T13:57:29.000Z</time>
      </trkpt>
      <trkpt lat="45.77506" lon="4.95478">
        <ele>231.20976</ele>
        <time>2023-08-27T13:57:30.000Z</time>
      </trkpt>
      <trkpt lat="45.77507" lon="4.95485">
        <ele>231.16245</ele>
        <time>2023-08-27T13:57:31.000Z</time>
      </trkpt>
      <trkpt lat="45.77508" lon="4.95491">
        <ele>231.11824</ele>
        <time>2023-08-27T13:57:32.000Z</time>
      </trkpt>
      <trkpt lat="45.77509" lon="4.95497">
        <ele>231.0457</ele>
        <time>2023-08-27T13:57:33.000Z</time>
      </trkpt>
      <trkpt lat="45.77511" lon="4.95503">
        <ele>230.97639</ele>
        <time>2023-08-27T13:57:34.000Z</time>
      </trkpt>
      <trkpt lat="45.77512" lon="4.95509">
        <ele>230.88391</ele>
        <time>2023-08-27T13:57:35.000Z</time>
      </trkpt>
      <trkpt lat="45.77514" lon="4.95516">
        <ele>230.82207</ele>
        <time>2023-08-27T13:57:36.000Z</time>
      </trkpt>
      <trkpt lat="45.77515" lon="4.95521">
        <ele>230.79105</ele>
        <time>2023-08-27T13:57:37.000Z</time>
      </trkpt>
      <trkpt lat="45.77516" lon="4.95527">
        <ele>230.79008</ele>
        <time>2023-08-27T13:57:38.000Z</time>
      </trkpt>
      <trkpt lat="45.77518" lon="4.95533">
        <ele>230.79611</ele>
        <time>2023-08-27T13:57:39.000Z</time>
      </trkpt>
      <trkpt lat="45.77519" lon="4.95539">
        <ele>230.82202</ele>
        <time>2023-08-27T13:57:40.000Z</time>
      </trkpt>
      <trkpt lat="45.7752" lon="4.95545">
        <ele>230.80864</ele>
        <time>2023-08-27T13:57:41.000Z</time>
      </trkpt>
      <trkpt lat="45.77522" lon="4.95551">
        <ele>230.80032</ele>
        <time>2023-08-27T13:57:42.000Z</time>
      </trkpt>
      <trkpt lat="45.77524" lon="4.95557">
        <ele>230.85075</ele>
        <time>2023-08-27T13:57:43.000Z</time>
      </trkpt>
      <trkpt lat="45.77526" lon="4.95563">
        <ele>230.91605</ele>
        <time>2023-08-27T13:57:44.000Z</time>
      </trkpt>
      <trkpt lat="45.77528" lon="4.95569">
        <ele>230.99065</ele>
        <time>2023-08-27T13:57:45.000Z</time>
      </trkpt>
      <trkpt lat="45.77529" lon="4.95575">
        <ele>231.01138</ele>
        <time>2023-08-27T13:57:46.000Z</time>
      </trkpt>
      <trkpt lat="45.77531" lon="4.95581">
        <ele>231.02434</ele>
        <time>2023-08-27T13:57:47.000Z</time>
      </trkpt>
      <trkpt lat="45.77533" lon="4.95588">
        <ele>231.02554</ele>
        <time>2023-08-27T13:57:48.000Z</time>
      </trkpt>
      <trkpt lat="45.77535" lon="4.95594">
        <ele>231.04355</ele>
        <time>2023-08-27T13:57:49.000Z</time>
      </trkpt>
      <trkpt lat="45.77538" lon="4.956">
        <ele>231.0562</ele>
        <time>2023-08-27T13:57:50.000Z</time>
      </trkpt>
      <trkpt lat="45.7754" lon="4.95606">
        <ele>231.08394</ele>
        <time>2023-08-27T13:57:51.000Z</time>
      </trkpt>
      <trkpt lat="45.77542" lon="4.95611">
        <ele>231.1132</ele>
        <time>2023-08-27T13:57:52.000Z</time>
      </trkpt>
      <trkpt lat="45.77544" lon="4.95617">
        <ele>231.13615</ele>
        <time>2023-08-27T13:57:53.000Z</time>
      </trkpt>
      <trkpt lat="45.77546" lon="4.95622">
        <ele>231.12627</ele>
        <time>2023-08-27T13:57:54.000Z</time>
      </trkpt>
      <trkpt lat="45.77548" lon="4.95627">
        <ele>231.11072</ele>
        <time>2023-08-27T13:57:55.000Z</time>
      </trkpt>
      <trkpt lat="45.7755" lon="4.95631">
        <ele>231.1252</ele>
        <time>2023-08-27T13:57:56.000Z</time>
      </trkpt>
      <trkpt lat="45.77551" lon="4.95635">
        <ele>231.17603</ele>
        <time>2023-08-27T13:57:57.000Z</time>
      </trkpt>
      <trkpt lat="45.77553" lon="4.95639">
        <ele>231.21709</ele>
        <time>2023-08-27T13:57:58.000Z</time>
      </trkpt>
      <trkpt lat="45.77555" lon="4.95643">
        <ele>231.27031</ele>
        <time>2023-08-27T13:57:59.000Z</time>
      </trkpt>
      <trkpt lat="45.77557" lon="4.95649">
        <ele>231.32324</ele>
        <time>2023-08-27T13:58:00.000Z</time>
      </trkpt>
      <trkpt lat="45.77559" lon="4.95654">
        <ele>231.34512</ele>
        <time>2023-08-27T13:58:01.000Z</time>
      </trkpt>
      <trkpt lat="45.77562" lon="4.95659">
        <ele>231.36287</ele>
        <time>2023-08-27T13:58:02.000Z</time>
      </trkpt>
      <trkpt lat="45.77565" lon="4.95664">
        <ele>231.39949</ele>
        <time>2023-08-27T13:58:03.000Z</time>
      </trkpt>
      <trkpt lat="45.77568" lon="4.9567">
        <ele>231.42558</ele>
        <time>2023-08-27T13:58:04.000Z</time>
      </trkpt>
      <trkpt lat="45.77571" lon="4.95674">
        <ele>231.4368</ele>
        <time>2023-08-27T13:58:05.000Z</time>
      </trkpt>
      <trkpt lat="45.77575" lon="4.95678">
        <ele>231.44353</ele>
        <time>2023-08-27T13:58:06.000Z</time>
      </trkpt>
      <trkpt lat="45.77578" lon="4.95683">
        <ele>231.45992</ele>
        <time>2023-08-27T13:58:07.000Z</time>
      </trkpt>
      <trkpt lat="45.77581" lon="4.95689">
        <ele>231.46233</ele>
        <time>2023-08-27T13:58:08.000Z</time>
      </trkpt>
      <trkpt lat="45.77584" lon="4.95695">
        <ele>231.43393</ele>
        <time>2023-08-27T13:58:09.000Z</time>
      </trkpt>
      <trkpt lat="45.77586" lon="4.95702">
        <ele>231.41187</ele>
        <time>2023-08-27T13:58:10.000Z</time>
      </trkpt>
      <trkpt lat="45.77589" lon="4.95708">
        <ele>231.39522</ele>
        <time>2023-08-27T13:58:11.000Z</time>
      </trkpt>
      <trkpt lat="45.77592" lon="4.95713">
        <ele>231.38899</ele>
        <time>2023-08-27T13:58:12.000Z</time>
      </trkpt>
      <trkpt lat="45.77594" lon="4.9572">
        <ele>231.35738</ele>
        <time>2023-08-27T13:58:13.000Z</time>
      </trkpt>
      <trkpt lat="45.77596" lon="4.95725">
        <ele>231.34245</ele>
        <time>2023-08-27T13:58:14.000Z</time>
      </trkpt>
      <trkpt lat="45.77598" lon="4.95731">
        <ele>231.33797</ele>
        <time>2023-08-27T13:58:15.000Z</time>
      </trkpt>
      <trkpt lat="45.77601" lon="4.95736">
        <ele>231.33382</ele>
        <time>2023-08-27T13:58:16.000Z</time>
      </trkpt>
      <trkpt lat="45.77603" lon="4.95742">
        <ele>231.30649</ele>
        <time>2023-08-27T13:58:17.000Z</time>
      </trkpt>
      <trkpt lat="45.77606" lon="4.95749">
        <ele>231.28911</ele>
        <time>2023-08-27T13:58:18.000Z</time>
      </trkpt>
      <trkpt lat="45.77609" lon="4.95755">
        <ele>231.26106</ele>
        <time>2023-08-27T13:58:19.000Z</time>
      </trkpt>
      <trkpt lat="45.77611" lon="4.95761">
        <ele>231.22925</ele>
        <time>2023-08-27T13:58:20.000Z</time>
      </trkpt>
      <trkpt lat="45.77613" lon="4.95766">
        <ele>231.22391</ele>
        <time>2023-08-27T13:58:21.000Z</time>
      </trkpt>
      <trkpt lat="45.77616" lon="4.95773">
        <ele>231.20341</ele>
        <time>2023-08-27T13:58:22.000Z</time>
      </trkpt>
      <trkpt lat="45.77618" lon="4.95779">
        <ele>231.1523</ele>
        <time>2023-08-27T13:58:23.000Z</time>
      </trkpt>
      <trkpt lat="45.7762" lon="4.95785">
        <ele>231.09207</ele>
        <time>2023-08-27T13:58:24.000Z</time>
      </trkpt>
      <trkpt lat="45.77623" lon="4.95791">
        <ele>231.0386</ele>
        <time>2023-08-27T13:58:25.000Z</time>
      </trkpt>
      <trkpt lat="45.77625" lon="4.95797">
        <ele>230.97823</ele>
        <time>2023-08-27T13:58:26.000Z</time>
      </trkpt>
      <trkpt lat="45.77627" lon="4.95803">
        <ele>230.92867</ele>
        <time>2023-08-27T13:58:27.000Z</time>
      </trkpt>
      <trkpt lat="45.77629" lon="4.95809">
        <ele>230.89063</ele>
        <time>2023-08-27T13:58:28.000Z</time>
      </trkpt>
      <trkpt lat="45.77631" lon="4.95815">
        <ele>230.89034</ele>
        <time>2023-08-27T13:58:29.000Z</time>
      </trkpt>
      <trkpt lat="45.77633" lon="4.95821">
        <ele>230.84676</ele>
        <time>2023-08-27T13:58:30.000Z</time>
      </trkpt>
      <trkpt lat="45.77635" lon="4.95827">
        <ele>230.80269</ele>
        <time>2023-08-27T13:58:31.000Z</time>
      </trkpt>
      <trkpt lat="45.77637" lon="4.95833">
        <ele>230.73367</ele>
        <time>2023-08-27T13:58:32.000Z</time>
      </trkpt>
      <trkpt lat="45.7764" lon="4.9584">
        <ele>230.69742</ele>
        <time>2023-08-27T13:58:33.000Z</time>
      </trkpt>
      <trkpt lat="45.77642" lon="4.95847">
        <ele>230.65201</ele>
        <time>2023-08-27T13:58:34.000Z</time>
      </trkpt>
      <trkpt lat="45.77644" lon="4.95853">
        <ele>230.60864</ele>
        <time>2023-08-27T13:58:35.000Z</time>
      </trkpt>
      <trkpt lat="45.77646" lon="4.95859">
        <ele>230.54874</ele>
        <time>2023-08-27T13:58:36.000Z</time>
      </trkpt>
      <trkpt lat="45.77648" lon="4.95865">
        <ele>230.48132</ele>
        <time>2023-08-27T13:58:37.000Z</time>
      </trkpt>
      <trkpt lat="45.7765" lon="4.95871">
        <ele>230.40622</ele>
        <time>2023-08-27T13:58:38.000Z</time>
      </trkpt>
      <trkpt lat="45.77652" lon="4.95878">
        <ele>230.34648</ele>
        <time>2023-08-27T13:58:39.000Z</time>
      </trkpt>
      <trkpt lat="45.77653" lon="4.95883">
        <ele>230.30936</ele>
        <time>2023-08-27T13:58:40.000Z</time>
      </trkpt>
      <trkpt lat="45.77655" lon="4.95889">
        <ele>230.28622</ele>
        <time>2023-08-27T13:58:41.000Z</time>
      </trkpt>
      <trkpt lat="45.77658" lon="4.95896">
        <ele>230.30103</ele>
        <time>2023-08-27T13:58:42.000Z</time>
      </trkpt>
      <trkpt lat="45.7766" lon="4.95901">
        <ele>230.34366</ele>
        <time>2023-08-27T13:58:43.000Z</time>
      </trkpt>
      <trkpt lat="45.77662" lon="4.95907">
        <ele>230.42256</ele>
        <time>2023-08-27T13:58:44.000Z</time>
      </trkpt>
      <trkpt lat="45.77664" lon="4.95914">
        <ele>230.4847</ele>
        <time>2023-08-27T13:58:45.000Z</time>
      </trkpt>
      <trkpt lat="45.77667" lon="4.95919">
        <ele>230.60007</ele>
        <time>2023-08-27T13:58:46.000Z</time>
      </trkpt>
      <trkpt lat="45.77669" lon="4.95926">
        <ele>230.69919</ele>
        <time>2023-08-27T13:58:47.000Z</time>
      </trkpt>
      <trkpt lat="45.77672" lon="4.95931">
        <ele>230.82561</ele>
        <time>2023-08-27T13:58:48.000Z</time>
      </trkpt>
      <trkpt lat="45.77674" lon="4.95937">
        <ele>230.95767</ele>
        <time>2023-08-27T13:58:49.000Z</time>
      </trkpt>
      <trkpt lat="45.77676" lon="4.95944">
        <ele>231.12878</ele>
        <time>2023-08-27T13:58:50.000Z</time>
      </trkpt>
      <trkpt lat="45.77677" lon="4.9595">
        <ele>231.22934</ele>
        <time>2023-08-27T13:58:51.000Z</time>
      </trkpt>
      <trkpt lat="45.77678" lon="4.95956">
        <ele>231.33406</ele>
        <time>2023-08-27T13:58:52.000Z</time>
      </trkpt>
      <trkpt lat="45.7768" lon="4.95961">
        <ele>231.41171</ele>
        <time>2023-08-27T13:58:53.000Z</time>
      </trkpt>
      <trkpt lat="45.77682" lon="4.95967">
        <ele>231.50581</ele>
        <time>2023-08-27T13:58:54.000Z</time>
      </trkpt>
      <trkpt lat="45.77684" lon="4.95973">
        <ele>231.56099</ele>
        <time>2023-08-27T13:58:55.000Z</time>
      </trkpt>
      <trkpt lat="45.77687" lon="4.95979">
        <ele>231.66377</ele>
        <time>2023-08-27T13:58:56.000Z</time>
      </trkpt>
      <trkpt lat="45.7769" lon="4.95986">
        <ele>231.75638</ele>
        <time>2023-08-27T13:58:57.000Z</time>
      </trkpt>
      <trkpt lat="45.77692" lon="4.95991">
        <ele>231.86821</ele>
        <time>2023-08-27T13:58:58.000Z</time>
      </trkpt>
      <trkpt lat="45.77694" lon="4.95996">
        <ele>231.9128</ele>
        <time>2023-08-27T13:58:59.000Z</time>
      </trkpt>
      <trkpt lat="45.77697" lon="4.96003">
        <ele>231.91805</ele>
        <time>2023-08-27T13:59:00.000Z</time>
      </trkpt>
      <trkpt lat="45.77698" lon="4.96007">
        <ele>231.91263</ele>
        <time>2023-08-27T13:59:01.000Z</time>
      </trkpt>
      <trkpt lat="45.77699" lon="4.96011">
        <ele>231.89497</ele>
        <time>2023-08-27T13:59:02.000Z</time>
      </trkpt>
      <trkpt lat="45.77702" lon="4.96018">
        <ele>231.89522</ele>
        <time>2023-08-27T13:59:03.000Z</time>
      </trkpt>
      <trkpt lat="45.77704" lon="4.96021">
        <ele>231.94414</ele>
        <time>2023-08-27T13:59:04.000Z</time>
      </trkpt>
      <trkpt lat="45.77707" lon="4.96025">
        <ele>232.06113</ele>
        <time>2023-08-27T13:59:05.000Z</time>
      </trkpt>
      <trkpt lat="45.77709" lon="4.96031">
        <ele>232.15451</ele>
        <time>2023-08-27T13:59:06.000Z</time>
      </trkpt>
      <trkpt lat="45.77712" lon="4.96036">
        <ele>232.27983</ele>
        <time>2023-08-27T13:59:07.000Z</time>
      </trkpt>
      <trkpt lat="45.77715" lon="4.96041">
        <ele>232.41106</ele>
        <time>2023-08-27T13:59:08.000Z</time>
      </trkpt>
      <trkpt lat="45.77716" lon="4.96046">
        <ele>232.4863</ele>
        <time>2023-08-27T13:59:09.000Z</time>
      </trkpt>
      <trkpt lat="45.77717" lon="4.9605">
        <ele>232.53964</ele>
        <time>2023-08-27T13:59:10.000Z</time>
      </trkpt>
      <trkpt lat="45.77718" lon="4.96054">
        <ele>232.64973</ele>
        <time>2023-08-27T13:59:11.000Z</time>
      </trkpt>
      <trkpt lat="45.7772" lon="4.9606">
        <ele>232.76254</ele>
        <time>2023-08-27T13:59:12.000Z</time>
      </trkpt>
      <trkpt lat="45.77723" lon="4.96064">
        <ele>232.93735</ele>
        <time>2023-08-27T13:59:13.000Z</time>
      </trkpt>
      <trkpt lat="45.77726" lon="4.96069">
        <ele>233.09077</ele>
        <time>2023-08-27T13:59:14.000Z</time>
      </trkpt>
      <trkpt lat="45.77728" lon="4.96073">
        <ele>233.27425</ele>
        <time>2023-08-27T13:59:15.000Z</time>
      </trkpt>
      <trkpt lat="45.7773" lon="4.96077">
        <ele>233.40215</ele>
        <time>2023-08-27T13:59:16.000Z</time>
      </trkpt>
      <trkpt lat="45.77732" lon="4.96082">
        <ele>233.55087</ele>
        <time>2023-08-27T13:59:17.000Z</time>
      </trkpt>
      <trkpt lat="45.77734" lon="4.96085">
        <ele>233.69815</ele>
        <time>2023-08-27T13:59:18.000Z</time>
      </trkpt>
      <trkpt lat="45.77735" lon="4.96089">
        <ele>233.89969</ele>
        <time>2023-08-27T13:59:20.000Z</time>
      </trkpt>
      <trkpt lat="45.77737" lon="4.96093">
        <ele>234.1167</ele>
        <time>2023-08-27T13:59:21.000Z</time>
      </trkpt>
      <trkpt lat="45.77739" lon="4.96096">
        <ele>234.3582</ele>
        <time>2023-08-27T13:59:22.000Z</time>
      </trkpt>
      <trkpt lat="45.77741" lon="4.961">
        <ele>234.58115</ele>
        <time>2023-08-27T13:59:23.000Z</time>
      </trkpt>
      <trkpt lat="45.77744" lon="4.96102">
        <ele>234.74759</ele>
        <time>2023-08-27T13:59:24.000Z</time>
      </trkpt>
      <trkpt lat="45.7775" lon="4.96111">
        <ele>234.84653</ele>
        <time>2023-08-27T13:59:25.000Z</time>
      </trkpt>
      <trkpt lat="45.77752" lon="4.96117">
        <ele>234.89285</ele>
        <time>2023-08-27T13:59:26.000Z</time>
      </trkpt>
      <trkpt lat="45.77753" lon="4.96124">
        <ele>234.92773</ele>
        <time>2023-08-27T13:59:27.000Z</time>
      </trkpt>
      <trkpt lat="45.77755" lon="4.96133">
        <ele>234.93819</ele>
        <time>2023-08-27T13:59:28.000Z</time>
      </trkpt>
      <trkpt lat="45.77757" lon="4.96139">
        <ele>234.93924</ele>
        <time>2023-08-27T13:59:29.000Z</time>
      </trkpt>
      <trkpt lat="45.7776" lon="4.96145">
        <ele>234.93835</ele>
        <time>2023-08-27T13:59:30.000Z</time>
      </trkpt>
      <trkpt lat="45.77763" lon="4.96151">
        <ele>234.97009</ele>
        <time>2023-08-27T13:59:31.000Z</time>
      </trkpt>
      <trkpt lat="45.77765" lon="4.96156">
        <ele>235.00374</ele>
        <time>2023-08-27T13:59:32.000Z</time>
      </trkpt>
      <trkpt lat="45.77768" lon="4.96161">
        <ele>235.0087</ele>
        <time>2023-08-27T13:59:33.000Z</time>
      </trkpt>
      <trkpt lat="45.7777" lon="4.96166">
        <ele>234.96545</ele>
        <time>2023-08-27T13:59:34.000Z</time>
      </trkpt>
      <trkpt lat="45.77774" lon="4.96172">
        <ele>234.89873</ele>
        <time>2023-08-27T13:59:35.000Z</time>
      </trkpt>
      <trkpt lat="45.77775" lon="4.96177">
        <ele>234.86899</ele>
        <time>2023-08-27T13:59:36.000Z</time>
      </trkpt>
      <trkpt lat="45.77777" lon="4.96185">
        <ele>234.79065</ele>
        <time>2023-08-27T13:59:37.000Z</time>
      </trkpt>
      <trkpt lat="45.77779" lon="4.9619">
        <ele>234.68855</ele>
        <time>2023-08-27T13:59:38.000Z</time>
      </trkpt>
      <trkpt lat="45.77781" lon="4.96194">
        <ele>234.61072</ele>
        <time>2023-08-27T13:59:39.000Z</time>
      </trkpt>
      <trkpt lat="45.77782" lon="4.962">
        <ele>234.46085</ele>
        <time>2023-08-27T13:59:40.000Z</time>
      </trkpt>
      <trkpt lat="45.77784" lon="4.96206">
        <ele>234.31021</ele>
        <time>2023-08-27T13:59:41.000Z</time>
      </trkpt>
      <trkpt lat="45.77786" lon="4.96213">
        <ele>234.14761</ele>
        <time>2023-08-27T13:59:42.000Z</time>
      </trkpt>
      <trkpt lat="45.77789" lon="4.9622">
        <ele>233.98267</ele>
        <time>2023-08-27T13:59:43.000Z</time>
      </trkpt>
      <trkpt lat="45.77791" lon="4.96227">
        <ele>233.8542</ele>
        <time>2023-08-27T13:59:44.000Z</time>
      </trkpt>
      <trkpt lat="45.77794" lon="4.96233">
        <ele>233.73947</ele>
        <time>2023-08-27T13:59:45.000Z</time>
      </trkpt>
      <trkpt lat="45.77796" lon="4.9624">
        <ele>233.65012</ele>
        <time>2023-08-27T13:59:46.000Z</time>
      </trkpt>
      <trkpt lat="45.77799" lon="4.96246">
        <ele>233.60757</ele>
        <time>2023-08-27T13:59:47.000Z</time>
      </trkpt>
      <trkpt lat="45.77801" lon="4.96253">
        <ele>233.55632</ele>
        <time>2023-08-27T13:59:48.000Z</time>
      </trkpt>
      <trkpt lat="45.77804" lon="4.96259">
        <ele>233.52707</ele>
        <time>2023-08-27T13:59:49.000Z</time>
      </trkpt>
      <trkpt lat="45.77805" lon="4.96265">
        <ele>233.54788</ele>
        <time>2023-08-27T13:59:50.000Z</time>
      </trkpt>
      <trkpt lat="45.77807" lon="4.9627">
        <ele>233.51663</ele>
        <time>2023-08-27T13:59:51.000Z</time>
      </trkpt>
      <trkpt lat="45.77809" lon="4.96276">
        <ele>233.49561</ele>
        <time>2023-08-27T13:59:52.000Z</time>
      </trkpt>
      <trkpt lat="45.77812" lon="4.96283">
        <ele>233.47421</ele>
        <time>2023-08-27T13:59:53.000Z</time>
      </trkpt>
      <trkpt lat="45.77814" lon="4.96289">
        <ele>233.61626</ele>
        <time>2023-08-27T13:59:54.000Z</time>
      </trkpt>
      <trkpt lat="45.77816" lon="4.96296">
        <ele>233.78113</ele>
        <time>2023-08-27T13:59:55.000Z</time>
      </trkpt>
      <trkpt lat="45.77819" lon="4.96302">
        <ele>233.95126</ele>
        <time>2023-08-27T13:59:56.000Z</time>
      </trkpt>
      <trkpt lat="45.77823" lon="4.96308">
        <ele>234.17805</ele>
        <time>2023-08-27T13:59:57.000Z</time>
      </trkpt>
      <trkpt lat="45.77826" lon="4.96314">
        <ele>234.43057</ele>
        <time>2023-08-27T13:59:58.000Z</time>
      </trkpt>
      <trkpt lat="45.77829" lon="4.96319">
        <ele>234.63501</ele>
        <time>2023-08-27T13:59:59.000Z</time>
      </trkpt>
      <trkpt lat="45.77832" lon="4.96325">
        <ele>234.88779</ele>
        <time>2023-08-27T14:00:00.000Z</time>
      </trkpt>
      <trkpt lat="45.77835" lon="4.9633">
        <ele>235.15186</ele>
        <time>2023-08-27T14:00:01.000Z</time>
      </trkpt>
      <trkpt lat="45.77839" lon="4.96336">
        <ele>235.39624</ele>
        <time>2023-08-27T14:00:02.000Z</time>
      </trkpt>
      <trkpt lat="45.77841" lon="4.96341">
        <ele>235.65561</ele>
        <time>2023-08-27T14:00:03.000Z</time>
      </trkpt>
      <trkpt lat="45.7784" lon="4.96346">
        <ele>235.92697</ele>
        <time>2023-08-27T14:00:04.000Z</time>
      </trkpt>
      <trkpt lat="45.7784" lon="4.9635">
        <ele>235.98801</ele>
        <time>2023-08-27T14:00:05.000Z</time>
      </trkpt>
      <trkpt lat="45.77842" lon="4.96353">
        <ele>236.01456</ele>
        <time>2023-08-27T14:00:06.000Z</time>
      </trkpt>
      <trkpt lat="45.77844" lon="4.96357">
        <ele>235.92783</ele>
        <time>2023-08-27T14:00:07.000Z</time>
      </trkpt>
      <trkpt lat="45.77846" lon="4.96359">
        <ele>235.80148</ele>
        <time>2023-08-27T14:00:08.000Z</time>
      </trkpt>
      <trkpt lat="45.77847" lon="4.96364">
        <ele>235.63118</ele>
        <time>2023-08-27T14:00:09.000Z</time>
      </trkpt>
      <trkpt lat="45.7785" lon="4.9637">
        <ele>235.4281</ele>
        <time>2023-08-27T14:00:10.000Z</time>
      </trkpt>
      <trkpt lat="45.77852" lon="4.96377">
        <ele>235.28299</ele>
        <time>2023-08-27T14:00:11.000Z</time>
      </trkpt>
      <trkpt lat="45.77855" lon="4.96384">
        <ele>235.14185</ele>
        <time>2023-08-27T14:00:12.000Z</time>
      </trkpt>
      <trkpt lat="45.77858" lon="4.9639">
        <ele>235.04305</ele>
        <time>2023-08-27T14:00:13.000Z</time>
      </trkpt>
      <trkpt lat="45.7786" lon="4.96396">
        <ele>234.77408</ele>
        <time>2023-08-27T14:00:14.000Z</time>
      </trkpt>
      <trkpt lat="45.77862" lon="4.96401">
        <ele>234.50261</ele>
        <time>2023-08-27T14:00:15.000Z</time>
      </trkpt>
      <trkpt lat="45.77864" lon="4.96406">
        <ele>234.1893</ele>
        <time>2023-08-27T14:00:16.000Z</time>
      </trkpt>
      <trkpt lat="45.77865" lon="4.96411">
        <ele>233.88086</ele>
        <time>2023-08-27T14:00:17.000Z</time>
      </trkpt>
      <trkpt lat="45.77866" lon="4.96416">
        <ele>233.59038</ele>
        <time>2023-08-27T14:00:18.000Z</time>
      </trkpt>
      <trkpt lat="45.77867" lon="4.9642">
        <ele>233.36868</ele>
        <time>2023-08-27T14:00:19.000Z</time>
      </trkpt>
      <trkpt lat="45.77868" lon="4.96425">
        <ele>233.19633</ele>
        <time>2023-08-27T14:00:21.000Z</time>
      </trkpt>
      <trkpt lat="45.77869" lon="4.96428">
        <ele>233.00113</ele>
        <time>2023-08-27T14:00:22.000Z</time>
      </trkpt>
      <trkpt lat="45.77869" lon="4.96434">
        <ele>232.79565</ele>
        <time>2023-08-27T14:00:23.000Z</time>
      </trkpt>
      <trkpt lat="45.7787" lon="4.9644">
        <ele>232.57877</ele>
        <time>2023-08-27T14:00:24.000Z</time>
      </trkpt>
      <trkpt lat="45.77871" lon="4.96447">
        <ele>232.32504</ele>
        <time>2023-08-27T14:00:25.000Z</time>
      </trkpt>
      <trkpt lat="45.77872" lon="4.96453">
        <ele>232.25259</ele>
        <time>2023-08-27T14:00:26.000Z</time>
      </trkpt>
      <trkpt lat="45.77873" lon="4.9646">
        <ele>232.18704</ele>
        <time>2023-08-27T14:00:27.000Z</time>
      </trkpt>
      <trkpt lat="45.77873" lon="4.96467">
        <ele>232.18047</ele>
        <time>2023-08-27T14:00:28.000Z</time>
      </trkpt>
      <trkpt lat="45.77874" lon="4.96473">
        <ele>232.24043</ele>
        <time>2023-08-27T14:00:29.000Z</time>
      </trkpt>
      <trkpt lat="45.77874" lon="4.96481">
        <ele>232.33797</ele>
        <time>2023-08-27T14:00:30.000Z</time>
      </trkpt>
      <trkpt lat="45.77875" lon="4.96489">
        <ele>232.44064</ele>
        <time>2023-08-27T14:00:31.000Z</time>
      </trkpt>
      <trkpt lat="45.77875" lon="4.96496">
        <ele>232.48042</ele>
        <time>2023-08-27T14:00:32.000Z</time>
      </trkpt>
      <trkpt lat="45.77875" lon="4.96502">
        <ele>232.61763</ele>
        <time>2023-08-27T14:00:33.000Z</time>
      </trkpt>
      <trkpt lat="45.77875" lon="4.96508">
        <ele>232.75186</ele>
        <time>2023-08-27T14:00:34.000Z</time>
      </trkpt>
      <trkpt lat="45.77876" lon="4.96515">
        <ele>232.7803</ele>
        <time>2023-08-27T14:00:35.000Z</time>
      </trkpt>
      <trkpt lat="45.77877" lon="4.96522">
        <ele>232.8046</ele>
        <time>2023-08-27T14:00:36.000Z</time>
      </trkpt>
      <trkpt lat="45.77877" lon="4.96528">
        <ele>232.88065</ele>
        <time>2023-08-27T14:00:37.000Z</time>
      </trkpt>
      <trkpt lat="45.77877" lon="4.96533">
        <ele>232.96887</ele>
        <time>2023-08-27T14:00:38.000Z</time>
      </trkpt>
      <trkpt lat="45.77878" lon="4.96539">
        <ele>232.99902</ele>
        <time>2023-08-27T14:00:39.000Z</time>
      </trkpt>
      <trkpt lat="45.77877" lon="4.96545">
        <ele>232.97836</ele>
        <time>2023-08-27T14:00:40.000Z</time>
      </trkpt>
      <trkpt lat="45.77876" lon="4.96552">
        <ele>232.91861</ele>
        <time>2023-08-27T14:00:41.000Z</time>
      </trkpt>
      <trkpt lat="45.77877" lon="4.96558">
        <ele>232.85483</ele>
        <time>2023-08-27T14:00:42.000Z</time>
      </trkpt>
      <trkpt lat="45.77878" lon="4.96566">
        <ele>232.77129</ele>
        <time>2023-08-27T14:00:43.000Z</time>
      </trkpt>
      <trkpt lat="45.77878" lon="4.96572">
        <ele>232.76099</ele>
        <time>2023-08-27T14:00:44.000Z</time>
      </trkpt>
      <trkpt lat="45.77878" lon="4.96578">
        <ele>232.73935</ele>
        <time>2023-08-27T14:00:45.000Z</time>
      </trkpt>
      <trkpt lat="45.77878" lon="4.96586">
        <ele>232.73531</ele>
        <time>2023-08-27T14:00:46.000Z</time>
      </trkpt>
      <trkpt lat="45.77877" lon="4.96593">
        <ele>232.6669</ele>
        <time>2023-08-27T14:00:47.000Z</time>
      </trkpt>
      <trkpt lat="45.77876" lon="4.96599">
        <ele>232.74577</ele>
        <time>2023-08-27T14:00:48.000Z</time>
      </trkpt>
      <trkpt lat="45.77875" lon="4.96605">
        <ele>232.77475</ele>
        <time>2023-08-27T14:00:49.000Z</time>
      </trkpt>
      <trkpt lat="45.77875" lon="4.96609">
        <ele>232.79158</ele>
        <time>2023-08-27T14:00:50.000Z</time>
      </trkpt>
      <trkpt lat="45.77876" lon="4.96615">
        <ele>232.86935</ele>
        <time>2023-08-27T14:00:51.000Z</time>
      </trkpt>
      <trkpt lat="45.77875" lon="4.96621">
        <ele>233.02483</ele>
        <time>2023-08-27T14:00:52.000Z</time>
      </trkpt>
      <trkpt lat="45.77874" lon="4.96628">
        <ele>232.99979</ele>
        <time>2023-08-27T14:00:53.000Z</time>
      </trkpt>
      <trkpt lat="45.77873" lon="4.96634">
        <ele>232.98393</ele>
        <time>2023-08-27T14:00:54.000Z</time>
      </trkpt>
      <trkpt lat="45.7787" lon="4.96641">
        <ele>233.09827</ele>
        <time>2023-08-27T14:00:55.000Z</time>
      </trkpt>
      <trkpt lat="45.77869" lon="4.96648">
        <ele>233.23843</ele>
        <time>2023-08-27T14:00:56.000Z</time>
      </trkpt>
      <trkpt lat="45.77868" lon="4.96654">
        <ele>233.30901</ele>
        <time>2023-08-27T14:00:57.000Z</time>
      </trkpt>
      <trkpt lat="45.77868" lon="4.9666">
        <ele>233.39107</ele>
        <time>2023-08-27T14:00:58.000Z</time>
      </trkpt>
      <trkpt lat="45.77869" lon="4.96664">
        <ele>233.51262</ele>
        <time>2023-08-27T14:00:59.000Z</time>
      </trkpt>
      <trkpt lat="45.77867" lon="4.96671">
        <ele>233.62878</ele>
        <time>2023-08-27T14:01:00.000Z</time>
      </trkpt>
      <trkpt lat="45.77866" lon="4.96676">
        <ele>233.76167</ele>
        <time>2023-08-27T14:01:01.000Z</time>
      </trkpt>
      <trkpt lat="45.77865" lon="4.96682">
        <ele>233.85661</ele>
        <time>2023-08-27T14:01:02.000Z</time>
      </trkpt>
      <trkpt lat="45.77862" lon="4.96688">
        <ele>233.99411</ele>
        <time>2023-08-27T14:01:03.000Z</time>
      </trkpt>
      <trkpt lat="45.7786" lon="4.96694">
        <ele>234.04276</ele>
        <time>2023-08-27T14:01:04.000Z</time>
      </trkpt>
      <trkpt lat="45.77858" lon="4.96701">
        <ele>234.1301</ele>
        <time>2023-08-27T14:01:05.000Z</time>
      </trkpt>
      <trkpt lat="45.77856" lon="4.96706">
        <ele>234.26363</ele>
        <time>2023-08-27T14:01:06.000Z</time>
      </trkpt>
      <trkpt lat="45.77855" lon="4.96712">
        <ele>234.49239</ele>
        <time>2023-08-27T14:01:07.000Z</time>
      </trkpt>
      <trkpt lat="45.77853" lon="4.96716">
        <ele>234.58008</ele>
        <time>2023-08-27T14:01:08.000Z</time>
      </trkpt>
      <trkpt lat="45.77853" lon="4.9672">
        <ele>234.70432</ele>
        <time>2023-08-27T14:01:09.000Z</time>
      </trkpt>
      <trkpt lat="45.77852" lon="4.96724">
        <ele>234.79471</ele>
        <time>2023-08-27T14:01:10.000Z</time>
      </trkpt>
      <trkpt lat="45.77852" lon="4.96728">
        <ele>234.84055</ele>
        <time>2023-08-27T14:01:11.000Z</time>
      </trkpt>
      <trkpt lat="45.7785" lon="4.96733">
        <ele>234.84302</ele>
        <time>2023-08-27T14:01:12.000Z</time>
      </trkpt>
      <trkpt lat="45.77847" lon="4.96736">
        <ele>234.92508</ele>
        <time>2023-08-27T14:01:13.000Z</time>
      </trkpt>
      <trkpt lat="45.77844" lon="4.9674">
        <ele>235.01761</ele>
        <time>2023-08-27T14:01:14.000Z</time>
      </trkpt>
      <trkpt lat="45.77842" lon="4.96746">
        <ele>235.12651</ele>
        <time>2023-08-27T14:01:15.000Z</time>
      </trkpt>
      <trkpt lat="45.7784" lon="4.96752">
        <ele>235.20341</ele>
        <time>2023-08-27T14:01:16.000Z</time>
      </trkpt>
      <trkpt lat="45.77839" lon="4.96759">
        <ele>235.27518</ele>
        <time>2023-08-27T14:01:17.000Z</time>
      </trkpt>
      <trkpt lat="45.77836" lon="4.96765">
        <ele>235.35452</ele>
        <time>2023-08-27T14:01:18.000Z</time>
      </trkpt>
      <trkpt lat="45.77833" lon="4.96771">
        <ele>235.40536</ele>
        <time>2023-08-27T14:01:19.000Z</time>
      </trkpt>
      <trkpt lat="45.7783" lon="4.96777">
        <ele>235.45511</ele>
        <time>2023-08-27T14:01:20.000Z</time>
      </trkpt>
      <trkpt lat="45.77828" lon="4.96783">
        <ele>235.49515</ele>
        <time>2023-08-27T14:01:21.000Z</time>
      </trkpt>
      <trkpt lat="45.77827" lon="4.9679">
        <ele>235.62515</ele>
        <time>2023-08-27T14:01:22.000Z</time>
      </trkpt>
      <trkpt lat="45.77825" lon="4.96796">
        <ele>235.7524</ele>
        <time>2023-08-27T14:01:23.000Z</time>
      </trkpt>
      <trkpt lat="45.77823" lon="4.96803">
        <ele>235.87973</ele>
        <time>2023-08-27T14:01:24.000Z</time>
      </trkpt>
      <trkpt lat="45.77821" lon="4.96809">
        <ele>236.0123</ele>
        <time>2023-08-27T14:01:25.000Z</time>
      </trkpt>
      <trkpt lat="45.77819" lon="4.96815">
        <ele>236.11356</ele>
        <time>2023-08-27T14:01:26.000Z</time>
      </trkpt>
      <trkpt lat="45.77817" lon="4.96821">
        <ele>236.2148</ele>
        <time>2023-08-27T14:01:27.000Z</time>
      </trkpt>
      <trkpt lat="45.77815" lon="4.96827">
        <ele>236.28581</ele>
        <time>2023-08-27T14:01:28.000Z</time>
      </trkpt>
      <trkpt lat="45.77813" lon="4.96832">
        <ele>236.34616</ele>
        <time>2023-08-27T14:01:29.000Z</time>
      </trkpt>
      <trkpt lat="45.77814" lon="4.96839">
        <ele>236.42038</ele>
        <time>2023-08-27T14:01:30.000Z</time>
      </trkpt>
      <trkpt lat="45.77814" lon="4.96846">
        <ele>236.44441</ele>
        <time>2023-08-27T14:01:31.000Z</time>
      </trkpt>
      <trkpt lat="45.77815" lon="4.96852">
        <ele>236.43356</ele>
        <time>2023-08-27T14:01:32.000Z</time>
      </trkpt>
      <trkpt lat="45.77815" lon="4.96859">
        <ele>236.39026</ele>
        <time>2023-08-27T14:01:33.000Z</time>
      </trkpt>
      <trkpt lat="45.77815" lon="4.96865">
        <ele>236.29793</ele>
        <time>2023-08-27T14:01:34.000Z</time>
      </trkpt>
      <trkpt lat="45.77816" lon="4.96871">
        <ele>236.15854</ele>
        <time>2023-08-27T14:01:35.000Z</time>
      </trkpt>
      <trkpt lat="45.77816" lon="4.96877">
        <ele>236.01997</ele>
        <time>2023-08-27T14:01:36.000Z</time>
      </trkpt>
      <trkpt lat="45.77817" lon="4.96883">
        <ele>235.89799</ele>
        <time>2023-08-27T14:01:37.000Z</time>
      </trkpt>
      <trkpt lat="45.77816" lon="4.96889">
        <ele>235.72749</ele>
        <time>2023-08-27T14:01:38.000Z</time>
      </trkpt>
      <trkpt lat="45.77815" lon="4.96896">
        <ele>235.56812</ele>
        <time>2023-08-27T14:01:39.000Z</time>
      </trkpt>
      <trkpt lat="45.77814" lon="4.96902">
        <ele>235.39331</ele>
        <time>2023-08-27T14:01:40.000Z</time>
      </trkpt>
      <trkpt lat="45.77812" lon="4.96909">
        <ele>235.18619</ele>
        <time>2023-08-27T14:01:41.000Z</time>
      </trkpt>
      <trkpt lat="45.77811" lon="4.96915">
        <ele>234.94722</ele>
        <time>2023-08-27T14:01:42.000Z</time>
      </trkpt>
      <trkpt lat="45.7781" lon="4.96922">
        <ele>234.73148</ele>
        <time>2023-08-27T14:01:43.000Z</time>
      </trkpt>
      <trkpt lat="45.7781" lon="4.96928">
        <ele>234.5463</ele>
        <time>2023-08-27T14:01:44.000Z</time>
      </trkpt>
      <trkpt lat="45.77809" lon="4.96935">
        <ele>234.34932</ele>
        <time>2023-08-27T14:01:45.000Z</time>
      </trkpt>
      <trkpt lat="45.77808" lon="4.96942">
        <ele>234.13675</ele>
        <time>2023-08-27T14:01:46.000Z</time>
      </trkpt>
      <trkpt lat="45.77808" lon="4.96947">
        <ele>233.9003</ele>
        <time>2023-08-27T14:01:47.000Z</time>
      </trkpt>
      <trkpt lat="45.77807" lon="4.96954">
        <ele>233.70024</ele>
        <time>2023-08-27T14:01:48.000Z</time>
      </trkpt>
      <trkpt lat="45.77806" lon="4.96959">
        <ele>233.49971</ele>
        <time>2023-08-27T14:01:49.000Z</time>
      </trkpt>
      <trkpt lat="45.77805" lon="4.96964">
        <ele>233.30659</ele>
        <time>2023-08-27T14:01:50.000Z</time>
      </trkpt>
      <trkpt lat="45.77804" lon="4.9697">
        <ele>233.15718</ele>
        <time>2023-08-27T14:01:51.000Z</time>
      </trkpt>
      <trkpt lat="45.77803" lon="4.96975">
        <ele>233.05415</ele>
        <time>2023-08-27T14:01:52.000Z</time>
      </trkpt>
      <trkpt lat="45.77802" lon="4.96981">
        <ele>232.93648</ele>
        <time>2023-08-27T14:01:53.000Z</time>
      </trkpt>
      <trkpt lat="45.77801" lon="4.96988">
        <ele>232.85898</ele>
        <time>2023-08-27T14:01:54.000Z</time>
      </trkpt>
      <trkpt lat="45.778" lon="4.96993">
        <ele>232.8064</ele>
        <time>2023-08-27T14:01:55.000Z</time>
      </trkpt>
      <trkpt lat="45.778" lon="4.97">
        <ele>232.78101</ele>
        <time>2023-08-27T14:01:56.000Z</time>
      </trkpt>
      <trkpt lat="45.77799" lon="4.97007">
        <ele>232.76289</ele>
        <time>2023-08-27T14:01:57.000Z</time>
      </trkpt>
      <trkpt lat="45.77797" lon="4.97013">
        <ele>232.75505</ele>
        <time>2023-08-27T14:01:58.000Z</time>
      </trkpt>
      <trkpt lat="45.77797" lon="4.97018">
        <ele>232.79089</ele>
        <time>2023-08-27T14:01:59.000Z</time>
      </trkpt>
      <trkpt lat="45.77796" lon="4.97023">
        <ele>232.77461</ele>
        <time>2023-08-27T14:02:00.000Z</time>
      </trkpt>
      <trkpt lat="45.77795" lon="4.97028">
        <ele>232.81079</ele>
        <time>2023-08-27T14:02:01.000Z</time>
      </trkpt>
      <trkpt lat="45.77794" lon="4.97034">
        <ele>232.84818</ele>
        <time>2023-08-27T14:02:02.000Z</time>
      </trkpt>
      <trkpt lat="45.77794" lon="4.97039">
        <ele>232.88034</ele>
        <time>2023-08-27T14:02:03.000Z</time>
      </trkpt>
      <trkpt lat="45.77793" lon="4.97045">
        <ele>232.92368</ele>
        <time>2023-08-27T14:02:04.000Z</time>
      </trkpt>
      <trkpt lat="45.77793" lon="4.9705">
        <ele>233.00217</ele>
        <time>2023-08-27T14:02:05.000Z</time>
      </trkpt>
      <trkpt lat="45.77793" lon="4.97056">
        <ele>233.09424</ele>
        <time>2023-08-27T14:02:06.000Z</time>
      </trkpt>
      <trkpt lat="45.77793" lon="4.97062">
        <ele>233.17216</ele>
        <time>2023-08-27T14:02:07.000Z</time>
      </trkpt>
      <trkpt lat="45.77793" lon="4.97068">
        <ele>233.27036</ele>
        <time>2023-08-27T14:02:08.000Z</time>
      </trkpt>
      <trkpt lat="45.77792" lon="4.97074">
        <ele>233.38687</ele>
        <time>2023-08-27T14:02:09.000Z</time>
      </trkpt>
      <trkpt lat="45.77791" lon="4.9708">
        <ele>233.51697</ele>
        <time>2023-08-27T14:02:10.000Z</time>
      </trkpt>
      <trkpt lat="45.7779" lon="4.97086">
        <ele>233.66809</ele>
        <time>2023-08-27T14:02:11.000Z</time>
      </trkpt>
      <trkpt lat="45.7779" lon="4.97091">
        <ele>233.84094</ele>
        <time>2023-08-27T14:02:12.000Z</time>
      </trkpt>
      <trkpt lat="45.77789" lon="4.97097">
        <ele>234.04814</ele>
        <time>2023-08-27T14:02:13.000Z</time>
      </trkpt>
      <trkpt lat="45.77789" lon="4.97102">
        <ele>234.18582</ele>
        <time>2023-08-27T14:02:14.000Z</time>
      </trkpt>
      <trkpt lat="45.77788" lon="4.97107">
        <ele>234.30412</ele>
        <time>2023-08-27T14:02:15.000Z</time>
      </trkpt>
      <trkpt lat="45.77787" lon="4.97112">
        <ele>234.3708</ele>
        <time>2023-08-27T14:02:16.000Z</time>
      </trkpt>
      <trkpt lat="45.77787" lon="4.97117">
        <ele>234.39926</ele>
        <time>2023-08-27T14:02:17.000Z</time>
      </trkpt>
      <trkpt lat="45.77786" lon="4.97122">
        <ele>234.45544</ele>
        <time>2023-08-27T14:02:18.000Z</time>
      </trkpt>
      <trkpt lat="45.77786" lon="4.97128">
        <ele>234.49467</ele>
        <time>2023-08-27T14:02:19.000Z</time>
      </trkpt>
      <trkpt lat="45.77785" lon="4.97133">
        <ele>234.58072</ele>
        <time>2023-08-27T14:02:20.000Z</time>
      </trkpt>
      <trkpt lat="45.77783" lon="4.97139">
        <ele>234.64999</ele>
        <time>2023-08-27T14:02:21.000Z</time>
      </trkpt>
      <trkpt lat="45.77782" lon="4.97144">
        <ele>234.71477</ele>
        <time>2023-08-27T14:02:22.000Z</time>
      </trkpt>
      <trkpt lat="45.77781" lon="4.97149">
        <ele>234.74019</ele>
        <time>2023-08-27T14:02:23.000Z</time>
      </trkpt>
      <trkpt lat="45.7778" lon="4.97154">
        <ele>234.69327</ele>
        <time>2023-08-27T14:02:24.000Z</time>
      </trkpt>
      <trkpt lat="45.77779" lon="4.97159">
        <ele>234.60916</ele>
        <time>2023-08-27T14:02:25.000Z</time>
      </trkpt>
      <trkpt lat="45.77778" lon="4.97165">
        <ele>234.51192</ele>
        <time>2023-08-27T14:02:26.000Z</time>
      </trkpt>
      <trkpt lat="45.77776" lon="4.9717">
        <ele>234.43314</ele>
        <time>2023-08-27T14:02:27.000Z</time>
      </trkpt>
      <trkpt lat="45.77775" lon="4.97176">
        <ele>234.33432</ele>
        <time>2023-08-27T14:02:28.000Z</time>
      </trkpt>
      <trkpt lat="45.77774" lon="4.97182">
        <ele>234.24146</ele>
        <time>2023-08-27T14:02:29.000Z</time>
      </trkpt>
      <trkpt lat="45.77773" lon="4.97188">
        <ele>234.12454</ele>
        <time>2023-08-27T14:02:30.000Z</time>
      </trkpt>
      <trkpt lat="45.77772" lon="4.97193">
        <ele>233.98923</ele>
        <time>2023-08-27T14:02:31.000Z</time>
      </trkpt>
      <trkpt lat="45.77771" lon="4.97199">
        <ele>233.82207</ele>
        <time>2023-08-27T14:02:32.000Z</time>
      </trkpt>
      <trkpt lat="45.77771" lon="4.97205">
        <ele>233.6628</ele>
        <time>2023-08-27T14:02:33.000Z</time>
      </trkpt>
      <trkpt lat="45.7777" lon="4.97211">
        <ele>233.55582</ele>
        <time>2023-08-27T14:02:34.000Z</time>
      </trkpt>
      <trkpt lat="45.7777" lon="4.97217">
        <ele>233.49837</ele>
        <time>2023-08-27T14:02:35.000Z</time>
      </trkpt>
      <trkpt lat="45.77771" lon="4.97223">
        <ele>233.46533</ele>
        <time>2023-08-27T14:02:36.000Z</time>
      </trkpt>
      <trkpt lat="45.77771" lon="4.97228">
        <ele>233.48796</ele>
        <time>2023-08-27T14:02:37.000Z</time>
      </trkpt>
      <trkpt lat="45.77772" lon="4.97235">
        <ele>233.51028</ele>
        <time>2023-08-27T14:02:38.000Z</time>
      </trkpt>
      <trkpt lat="45.77773" lon="4.97241">
        <ele>233.5314</ele>
        <time>2023-08-27T14:02:39.000Z</time>
      </trkpt>
      <trkpt lat="45.77774" lon="4.97247">
        <ele>233.53775</ele>
        <time>2023-08-27T14:02:40.000Z</time>
      </trkpt>
      <trkpt lat="45.77774" lon="4.97253">
        <ele>233.56401</ele>
        <time>2023-08-27T14:02:41.000Z</time>
      </trkpt>
      <trkpt lat="45.77774" lon="4.97259">
        <ele>233.58443</ele>
        <time>2023-08-27T14:02:42.000Z</time>
      </trkpt>
      <trkpt lat="45.77773" lon="4.97265">
        <ele>233.61958</ele>
        <time>2023-08-27T14:02:43.000Z</time>
      </trkpt>
      <trkpt lat="45.77773" lon="4.97271">
        <ele>233.70012</ele>
        <time>2023-08-27T14:02:44.000Z</time>
      </trkpt>
      <trkpt lat="45.77773" lon="4.97277">
        <ele>233.77405</ele>
        <time>2023-08-27T14:02:45.000Z</time>
      </trkpt>
      <trkpt lat="45.77772" lon="4.97284">
        <ele>233.849</ele>
        <time>2023-08-27T14:02:46.000Z</time>
      </trkpt>
      <trkpt lat="45.77771" lon="4.9729">
        <ele>233.87808</ele>
        <time>2023-08-27T14:02:47.000Z</time>
      </trkpt>
      <trkpt lat="45.77771" lon="4.97295">
        <ele>233.88786</ele>
        <time>2023-08-27T14:02:48.000Z</time>
      </trkpt>
      <trkpt lat="45.7777" lon="4.97301">
        <ele>233.88753</ele>
        <time>2023-08-27T14:02:49.000Z</time>
      </trkpt>
      <trkpt lat="45.77768" lon="4.97307">
        <ele>233.87231</ele>
        <time>2023-08-27T14:02:50.000Z</time>
      </trkpt>
      <trkpt lat="45.77767" lon="4.97314">
        <ele>233.8486</ele>
        <time>2023-08-27T14:02:51.000Z</time>
      </trkpt>
      <trkpt lat="45.77767" lon="4.97319">
        <ele>233.83286</ele>
        <time>2023-08-27T14:02:52.000Z</time>
      </trkpt>
      <trkpt lat="45.77766" lon="4.97325">
        <ele>233.81772</ele>
        <time>2023-08-27T14:02:53.000Z</time>
      </trkpt>
      <trkpt lat="45.77765" lon="4.97332">
        <ele>233.82895</ele>
        <time>2023-08-27T14:02:54.000Z</time>
      </trkpt>
      <trkpt lat="45.77764" lon="4.97338">
        <ele>233.81538</ele>
        <time>2023-08-27T14:02:55.000Z</time>
      </trkpt>
      <trkpt lat="45.77765" lon="4.97343">
        <ele>233.83147</ele>
        <time>2023-08-27T14:02:56.000Z</time>
      </trkpt>
      <trkpt lat="45.77764" lon="4.97349">
        <ele>233.748</ele>
        <time>2023-08-27T14:02:57.000Z</time>
      </trkpt>
      <trkpt lat="45.77763" lon="4.97355">
        <ele>233.66338</ele>
        <time>2023-08-27T14:02:58.000Z</time>
      </trkpt>
      <trkpt lat="45.77762" lon="4.9736">
        <ele>233.58064</ele>
        <time>2023-08-27T14:02:59.000Z</time>
      </trkpt>
      <trkpt lat="45.77761" lon="4.97366">
        <ele>233.55156</ele>
        <time>2023-08-27T14:03:00.000Z</time>
      </trkpt>
      <trkpt lat="45.77762" lon="4.97373">
        <ele>233.48471</ele>
        <time>2023-08-27T14:03:01.000Z</time>
      </trkpt>
      <trkpt lat="45.77762" lon="4.97379">
        <ele>233.42957</ele>
        <time>2023-08-27T14:03:02.000Z</time>
      </trkpt>
      <trkpt lat="45.77762" lon="4.97387">
        <ele>233.38618</ele>
        <time>2023-08-27T14:03:03.000Z</time>
      </trkpt>
      <trkpt lat="45.77763" lon="4.97393">
        <ele>233.3555</ele>
        <time>2023-08-27T14:03:04.000Z</time>
      </trkpt>
      <trkpt lat="45.77763" lon="4.97401">
        <ele>233.38664</ele>
        <time>2023-08-27T14:03:05.000Z</time>
      </trkpt>
      <trkpt lat="45.77764" lon="4.97408">
        <ele>233.38037</ele>
        <time>2023-08-27T14:03:06.000Z</time>
      </trkpt>
      <trkpt lat="45.77763" lon="4.97414">
        <ele>233.37617</ele>
        <time>2023-08-27T14:03:07.000Z</time>
      </trkpt>
      <trkpt lat="45.77764" lon="4.97421">
        <ele>233.37776</ele>
        <time>2023-08-27T14:03:08.000Z</time>
      </trkpt>
      <trkpt lat="45.77765" lon="4.97428">
        <ele>233.39847</ele>
        <time>2023-08-27T14:03:09.000Z</time>
      </trkpt>
      <trkpt lat="45.77765" lon="4.97435">
        <ele>233.40909</ele>
        <time>2023-08-27T14:03:10.000Z</time>
      </trkpt>
      <trkpt lat="45.77766" lon="4.97441">
        <ele>233.4545</ele>
        <time>2023-08-27T14:03:11.000Z</time>
      </trkpt>
      <trkpt lat="45.77766" lon="4.97447">
        <ele>233.47668</ele>
        <time>2023-08-27T14:03:12.000Z</time>
      </trkpt>
      <trkpt lat="45.77766" lon="4.97452">
        <ele>233.46371</ele>
        <time>2023-08-27T14:03:13.000Z</time>
      </trkpt>
      <trkpt lat="45.77767" lon="4.97458">
        <ele>233.39128</ele>
        <time>2023-08-27T14:03:14.000Z</time>
      </trkpt>
      <trkpt lat="45.77768" lon="4.97463">
        <ele>233.33784</ele>
        <time>2023-08-27T14:03:15.000Z</time>
      </trkpt>
      <trkpt lat="45.77768" lon="4.97468">
        <ele>233.27698</ele>
        <time>2023-08-27T14:03:16.000Z</time>
      </trkpt>
      <trkpt lat="45.77769" lon="4.97473">
        <ele>233.30022</ele>
        <time>2023-08-27T14:03:17.000Z</time>
      </trkpt>
      <trkpt lat="45.77769" lon="4.97479">
        <ele>233.28165</ele>
        <time>2023-08-27T14:03:18.000Z</time>
      </trkpt>
      <trkpt lat="45.77769" lon="4.97484">
        <ele>233.25505</ele>
        <time>2023-08-27T14:03:19.000Z</time>
      </trkpt>
      <trkpt lat="45.7777" lon="4.9749">
        <ele>233.17815</ele>
        <time>2023-08-27T14:03:20.000Z</time>
      </trkpt>
      <trkpt lat="45.7777" lon="4.97493">
        <ele>233.01897</ele>
        <time>2023-08-27T14:03:21.000Z</time>
      </trkpt>
      <trkpt lat="45.77771" lon="4.97497">
        <ele>232.81924</ele>
        <time>2023-08-27T14:03:22.000Z</time>
      </trkpt>
      <trkpt lat="45.77771" lon="4.97502">
        <ele>232.79117</ele>
        <time>2023-08-27T14:03:23.000Z</time>
      </trkpt>
      <trkpt lat="45.77772" lon="4.97507">
        <ele>232.66769</ele>
        <time>2023-08-27T14:03:24.000Z</time>
      </trkpt>
      <trkpt lat="45.77773" lon="4.97511">
        <ele>232.49214</ele>
        <time>2023-08-27T14:03:25.000Z</time>
      </trkpt>
      <trkpt lat="45.77774" lon="4.97514">
        <ele>232.30782</ele>
        <time>2023-08-27T14:03:26.000Z</time>
      </trkpt>
      <trkpt lat="45.77774" lon="4.97518">
        <ele>232.08774</ele>
        <time>2023-08-27T14:03:27.000Z</time>
      </trkpt>
      <trkpt lat="45.77775" lon="4.97521">
        <ele>231.83879</ele>
        <time>2023-08-27T14:03:28.000Z</time>
      </trkpt>
      <trkpt lat="45.77775" lon="4.97525">
        <ele>231.58614</ele>
        <time>2023-08-27T14:03:29.000Z</time>
      </trkpt>
      <trkpt lat="45.77776" lon="4.9753">
        <ele>231.39091</ele>
        <time>2023-08-27T14:03:30.000Z</time>
      </trkpt>
      <trkpt lat="45.77776" lon="4.97534">
        <ele>231.27344</ele>
        <time>2023-08-27T14:03:31.000Z</time>
      </trkpt>
      <trkpt lat="45.77777" lon="4.97537">
        <ele>231.08269</ele>
        <time>2023-08-27T14:03:32.000Z</time>
      </trkpt>
      <trkpt lat="45.77778" lon="4.97542">
        <ele>230.93474</ele>
        <time>2023-08-27T14:03:33.000Z</time>
      </trkpt>
      <trkpt lat="45.77779" lon="4.97547">
        <ele>230.86331</ele>
        <time>2023-08-27T14:03:34.000Z</time>
      </trkpt>
      <trkpt lat="45.7778" lon="4.97552">
        <ele>230.75278</ele>
        <time>2023-08-27T14:03:35.000Z</time>
      </trkpt>
      <trkpt lat="45.77781" lon="4.97557">
        <ele>230.64413</ele>
        <time>2023-08-27T14:03:36.000Z</time>
      </trkpt>
      <trkpt lat="45.77781" lon="4.97562">
        <ele>230.54538</ele>
        <time>2023-08-27T14:03:37.000Z</time>
      </trkpt>
      <trkpt lat="45.77782" lon="4.97567">
        <ele>230.53943</ele>
        <time>2023-08-27T14:03:38.000Z</time>
      </trkpt>
      <trkpt lat="45.77781" lon="4.97573">
        <ele>230.51868</ele>
        <time>2023-08-27T14:03:39.000Z</time>
      </trkpt>
      <trkpt lat="45.77781" lon="4.97578">
        <ele>230.57166</ele>
        <time>2023-08-27T14:03:40.000Z</time>
      </trkpt>
      <trkpt lat="45.77781" lon="4.97583">
        <ele>230.59538</ele>
        <time>2023-08-27T14:03:41.000Z</time>
      </trkpt>
      <trkpt lat="45.77782" lon="4.97587">
        <ele>230.66914</ele>
        <time>2023-08-27T14:03:42.000Z</time>
      </trkpt>
      <trkpt lat="45.77783" lon="4.97591">
        <ele>230.52408</ele>
        <time>2023-08-27T14:03:43.000Z</time>
      </trkpt>
      <trkpt lat="45.77784" lon="4.97595">
        <ele>230.46101</ele>
        <time>2023-08-27T14:03:44.000Z</time>
      </trkpt>
      <trkpt lat="45.77785" lon="4.97599">
        <ele>230.4032</ele>
        <time>2023-08-27T14:03:45.000Z</time>
      </trkpt>
      <trkpt lat="45.77786" lon="4.97604">
        <ele>230.37939</ele>
        <time>2023-08-27T14:03:46.000Z</time>
      </trkpt>
      <trkpt lat="45.77787" lon="4.97609">
        <ele>230.43909</ele>
        <time>2023-08-27T14:03:47.000Z</time>
      </trkpt>
      <trkpt lat="45.77788" lon="4.97614">
        <ele>230.52536</ele>
        <time>2023-08-27T14:03:48.000Z</time>
      </trkpt>
      <trkpt lat="45.7779" lon="4.9762">
        <ele>230.57922</ele>
        <time>2023-08-27T14:03:49.000Z</time>
      </trkpt>
      <trkpt lat="45.77792" lon="4.97625">
        <ele>230.60039</ele>
        <time>2023-08-27T14:03:50.000Z</time>
      </trkpt>
      <trkpt lat="45.77795" lon="4.9763">
        <ele>230.50549</ele>
        <time>2023-08-27T14:03:51.000Z</time>
      </trkpt>
      <trkpt lat="45.77797" lon="4.97636">
        <ele>230.50151</ele>
        <time>2023-08-27T14:03:52.000Z</time>
      </trkpt>
      <trkpt lat="45.77799" lon="4.97641">
        <ele>230.46631</ele>
        <time>2023-08-27T14:03:53.000Z</time>
      </trkpt>
      <trkpt lat="45.77802" lon="4.97647">
        <ele>230.40439</ele>
        <time>2023-08-27T14:03:54.000Z</time>
      </trkpt>
      <trkpt lat="45.77804" lon="4.97652">
        <ele>230.33853</ele>
        <time>2023-08-27T14:03:55.000Z</time>
      </trkpt>
      <trkpt lat="45.77806" lon="4.97657">
        <ele>230.35205</ele>
        <time>2023-08-27T14:03:56.000Z</time>
      </trkpt>
      <trkpt lat="45.77808" lon="4.97662">
        <ele>230.35088</ele>
        <time>2023-08-27T14:03:57.000Z</time>
      </trkpt>
      <trkpt lat="45.7781" lon="4.97668">
        <ele>230.26949</ele>
        <time>2023-08-27T14:03:58.000Z</time>
      </trkpt>
      <trkpt lat="45.77813" lon="4.97673">
        <ele>230.17757</ele>
        <time>2023-08-27T14:03:59.000Z</time>
      </trkpt>
      <trkpt lat="45.77815" lon="4.97678">
        <ele>230.00908</ele>
        <time>2023-08-27T14:04:00.000Z</time>
      </trkpt>
      <trkpt lat="45.77819" lon="4.97683">
        <ele>229.94901</ele>
        <time>2023-08-27T14:04:01.000Z</time>
      </trkpt>
      <trkpt lat="45.77822" lon="4.97688">
        <ele>229.90584</ele>
        <time>2023-08-27T14:04:02.000Z</time>
      </trkpt>
      <trkpt lat="45.77826" lon="4.97693">
        <ele>229.9395</ele>
        <time>2023-08-27T14:04:03.000Z</time>
      </trkpt>
      <trkpt lat="45.77828" lon="4.97697">
        <ele>230.01913</ele>
        <time>2023-08-27T14:04:04.000Z</time>
      </trkpt>
      <trkpt lat="45.77831" lon="4.97702">
        <ele>230.12009</ele>
        <time>2023-08-27T14:04:05.000Z</time>
      </trkpt>
      <trkpt lat="45.77834" lon="4.97708">
        <ele>230.18526</ele>
        <time>2023-08-27T14:04:06.000Z</time>
      </trkpt>
      <trkpt lat="45.77837" lon="4.97713">
        <ele>230.25301</ele>
        <time>2023-08-27T14:04:07.000Z</time>
      </trkpt>
      <trkpt lat="45.7784" lon="4.97717">
        <ele>230.33871</ele>
        <time>2023-08-27T14:04:08.000Z</time>
      </trkpt>
      <trkpt lat="45.77842" lon="4.97721">
        <ele>230.44327</ele>
        <time>2023-08-27T14:04:09.000Z</time>
      </trkpt>
      <trkpt lat="45.77844" lon="4.97725">
        <ele>230.54231</ele>
        <time>2023-08-27T14:04:10.000Z</time>
      </trkpt>
      <trkpt lat="45.77847" lon="4.97729">
        <ele>230.65117</ele>
        <time>2023-08-27T14:04:11.000Z</time>
      </trkpt>
      <trkpt lat="45.77849" lon="4.97734">
        <ele>230.76331</ele>
        <time>2023-08-27T14:04:12.000Z</time>
      </trkpt>
      <trkpt lat="45.77851" lon="4.97738">
        <ele>230.90034</ele>
        <time>2023-08-27T14:04:13.000Z</time>
      </trkpt>
      <trkpt lat="45.77854" lon="4.97742">
        <ele>231.06351</ele>
        <time>2023-08-27T14:04:14.000Z</time>
      </trkpt>
      <trkpt lat="45.77856" lon="4.97745">
        <ele>231.29871</ele>
        <time>2023-08-27T14:04:15.000Z</time>
      </trkpt>
      <trkpt lat="45.77858" lon="4.97749">
        <ele>231.46164</ele>
        <time>2023-08-27T14:04:16.000Z</time>
      </trkpt>
      <trkpt lat="45.77861" lon="4.97753">
        <ele>231.54129</ele>
        <time>2023-08-27T14:04:17.000Z</time>
      </trkpt>
      <trkpt lat="45.77864" lon="4.97757">
        <ele>231.62851</ele>
        <time>2023-08-27T14:04:18.000Z</time>
      </trkpt>
      <trkpt lat="45.77866" lon="4.97761">
        <ele>231.73816</ele>
        <time>2023-08-27T14:04:19.000Z</time>
      </trkpt>
      <trkpt lat="45.77868" lon="4.97766">
        <ele>231.88297</ele>
        <time>2023-08-27T14:04:20.000Z</time>
      </trkpt>
      <trkpt lat="45.77871" lon="4.9777">
        <ele>232.04379</ele>
        <time>2023-08-27T14:04:21.000Z</time>
      </trkpt>
      <trkpt lat="45.77873" lon="4.97774">
        <ele>232.17305</ele>
        <time>2023-08-27T14:04:22.000Z</time>
      </trkpt>
      <trkpt lat="45.77875" lon="4.97776">
        <ele>232.23457</ele>
        <time>2023-08-27T14:04:23.000Z</time>
      </trkpt>
      <trkpt lat="45.77876" lon="4.97781">
        <ele>232.23396</ele>
        <time>2023-08-27T14:04:25.000Z</time>
      </trkpt>
      <trkpt lat="45.77878" lon="4.97785">
        <ele>232.22498</ele>
        <time>2023-08-27T14:04:26.000Z</time>
      </trkpt>
      <trkpt lat="45.77882" lon="4.9779">
        <ele>232.24475</ele>
        <time>2023-08-27T14:04:27.000Z</time>
      </trkpt>
      <trkpt lat="45.77885" lon="4.97794">
        <ele>232.22617</ele>
        <time>2023-08-27T14:04:28.000Z</time>
      </trkpt>
      <trkpt lat="45.77889" lon="4.97797">
        <ele>232.20956</ele>
        <time>2023-08-27T14:04:29.000Z</time>
      </trkpt>
      <trkpt lat="45.77892" lon="4.97802">
        <ele>232.2092</ele>
        <time>2023-08-27T14:04:30.000Z</time>
      </trkpt>
      <trkpt lat="45.77896" lon="4.97807">
        <ele>232.21391</ele>
        <time>2023-08-27T14:04:31.000Z</time>
      </trkpt>
      <trkpt lat="45.77898" lon="4.97811">
        <ele>232.2496</ele>
        <time>2023-08-27T14:04:32.000Z</time>
      </trkpt>
      <trkpt lat="45.77901" lon="4.97815">
        <ele>232.26241</ele>
        <time>2023-08-27T14:04:33.000Z</time>
      </trkpt>
      <trkpt lat="45.77904" lon="4.9782">
        <ele>232.30551</ele>
        <time>2023-08-27T14:04:34.000Z</time>
      </trkpt>
      <trkpt lat="45.77906" lon="4.97824">
        <ele>232.28215</ele>
        <time>2023-08-27T14:04:35.000Z</time>
      </trkpt>
      <trkpt lat="45.77908" lon="4.97828">
        <ele>232.18742</ele>
        <time>2023-08-27T14:04:36.000Z</time>
      </trkpt>
      <trkpt lat="45.77911" lon="4.97834">
        <ele>232.06526</ele>
        <time>2023-08-27T14:04:37.000Z</time>
      </trkpt>
      <trkpt lat="45.77914" lon="4.97839">
        <ele>232.04529</ele>
        <time>2023-08-27T14:04:38.000Z</time>
      </trkpt>
      <trkpt lat="45.77916" lon="4.97844">
        <ele>232.03323</ele>
        <time>2023-08-27T14:04:39.000Z</time>
      </trkpt>
      <trkpt lat="45.77918" lon="4.9785">
        <ele>232.03189</ele>
        <time>2023-08-27T14:04:40.000Z</time>
      </trkpt>
      <trkpt lat="45.7792" lon="4.97856">
        <ele>232.05539</ele>
        <time>2023-08-27T14:04:41.000Z</time>
      </trkpt>
      <trkpt lat="45.77922" lon="4.97863">
        <ele>232.15036</ele>
        <time>2023-08-27T14:04:42.000Z</time>
      </trkpt>
      <trkpt lat="45.77923" lon="4.97869">
        <ele>232.2301</ele>
        <time>2023-08-27T14:04:43.000Z</time>
      </trkpt>
      <trkpt lat="45.77924" lon="4.97876">
        <ele>232.36392</ele>
        <time>2023-08-27T14:04:44.000Z</time>
      </trkpt>
      <trkpt lat="45.77925" lon="4.97883">
        <ele>232.53279</ele>
        <time>2023-08-27T14:04:45.000Z</time>
      </trkpt>
      <trkpt lat="45.77925" lon="4.97889">
        <ele>232.67387</ele>
        <time>2023-08-27T14:04:46.000Z</time>
      </trkpt>
      <trkpt lat="45.77926" lon="4.97895">
        <ele>232.8167</ele>
        <time>2023-08-27T14:04:47.000Z</time>
      </trkpt>
      <trkpt lat="45.77927" lon="4.97902">
        <ele>233.00183</ele>
        <time>2023-08-27T14:04:48.000Z</time>
      </trkpt>
      <trkpt lat="45.77927" lon="4.97908">
        <ele>233.19099</ele>
        <time>2023-08-27T14:04:49.000Z</time>
      </trkpt>
      <trkpt lat="45.77927" lon="4.97913">
        <ele>233.37564</ele>
        <time>2023-08-27T14:04:50.000Z</time>
      </trkpt>
      <trkpt lat="45.77927" lon="4.9792">
        <ele>233.55722</ele>
        <time>2023-08-27T14:04:51.000Z</time>
      </trkpt>
      <trkpt lat="45.77927" lon="4.97925">
        <ele>233.71245</ele>
        <time>2023-08-27T14:04:52.000Z</time>
      </trkpt>
      <trkpt lat="45.77927" lon="4.97932">
        <ele>233.86646</ele>
        <time>2023-08-27T14:04:53.000Z</time>
      </trkpt>
      <trkpt lat="45.77927" lon="4.97938">
        <ele>233.9917</ele>
        <time>2023-08-27T14:04:54.000Z</time>
      </trkpt>
      <trkpt lat="45.77927" lon="4.97943">
        <ele>234.14905</ele>
        <time>2023-08-27T14:04:55.000Z</time>
      </trkpt>
      <trkpt lat="45.77928" lon="4.97952">
        <ele>234.2858</ele>
        <time>2023-08-27T14:04:56.000Z</time>
      </trkpt>
      <trkpt lat="45.77929" lon="4.97958">
        <ele>234.42416</ele>
        <time>2023-08-27T14:04:57.000Z</time>
      </trkpt>
      <trkpt lat="45.77929" lon="4.97964">
        <ele>234.54829</ele>
        <time>2023-08-27T14:04:58.000Z</time>
      </trkpt>
      <trkpt lat="45.7793" lon="4.9797">
        <ele>234.70105</ele>
        <time>2023-08-27T14:04:59.000Z</time>
      </trkpt>
      <trkpt lat="45.7793" lon="4.97975">
        <ele>234.84946</ele>
        <time>2023-08-27T14:05:00.000Z</time>
      </trkpt>
      <trkpt lat="45.77929" lon="4.97982">
        <ele>234.93295</ele>
        <time>2023-08-27T14:05:01.000Z</time>
      </trkpt>
      <trkpt lat="45.77928" lon="4.97987">
        <ele>234.90259</ele>
        <time>2023-08-27T14:05:02.000Z</time>
      </trkpt>
      <trkpt lat="45.77928" lon="4.97993">
        <ele>234.88721</ele>
        <time>2023-08-27T14:05:03.000Z</time>
      </trkpt>
      <trkpt lat="45.77927" lon="4.97998">
        <ele>234.83878</ele>
        <time>2023-08-27T14:05:04.000Z</time>
      </trkpt>
      <trkpt lat="45.77926" lon="4.98003">
        <ele>234.76492</ele>
        <time>2023-08-27T14:05:05.000Z</time>
      </trkpt>
      <trkpt lat="45.77925" lon="4.98009">
        <ele>234.72812</ele>
        <time>2023-08-27T14:05:06.000Z</time>
      </trkpt>
      <trkpt lat="45.77923" lon="4.98013">
        <ele>234.6927</ele>
        <time>2023-08-27T14:05:07.000Z</time>
      </trkpt>
      <trkpt lat="45.77921" lon="4.98019">
        <ele>234.64644</ele>
        <time>2023-08-27T14:05:08.000Z</time>
      </trkpt>
      <trkpt lat="45.77919" lon="4.98023">
        <ele>234.56699</ele>
        <time>2023-08-27T14:05:09.000Z</time>
      </trkpt>
      <trkpt lat="45.77918" lon="4.98028">
        <ele>234.46733</ele>
        <time>2023-08-27T14:05:10.000Z</time>
      </trkpt>
      <trkpt lat="45.77917" lon="4.98033">
        <ele>234.35347</ele>
        <time>2023-08-27T14:05:11.000Z</time>
      </trkpt>
      <trkpt lat="45.77917" lon="4.98038">
        <ele>234.26917</ele>
        <time>2023-08-27T14:05:12.000Z</time>
      </trkpt>
      <trkpt lat="45.77916" lon="4.98043">
        <ele>234.19392</ele>
        <time>2023-08-27T14:05:13.000Z</time>
      </trkpt>
      <trkpt lat="45.77915" lon="4.98047">
        <ele>234.11499</ele>
        <time>2023-08-27T14:05:14.000Z</time>
      </trkpt>
      <trkpt lat="45.77913" lon="4.98052">
        <ele>233.98227</ele>
        <time>2023-08-27T14:05:15.000Z</time>
      </trkpt>
      <trkpt lat="45.77912" lon="4.98056">
        <ele>233.89421</ele>
        <time>2023-08-27T14:05:16.000Z</time>
      </trkpt>
      <trkpt lat="45.77911" lon="4.9806">
        <ele>233.81978</ele>
        <time>2023-08-27T14:05:17.000Z</time>
      </trkpt>
      <trkpt lat="45.77911" lon="4.98064">
        <ele>233.74104</ele>
        <time>2023-08-27T14:05:18.000Z</time>
      </trkpt>
      <trkpt lat="45.7791" lon="4.98068">
        <ele>233.61624</ele>
        <time>2023-08-27T14:05:19.000Z</time>
      </trkpt>
      <trkpt lat="45.7791" lon="4.98072">
        <ele>233.47836</ele>
        <time>2023-08-27T14:05:20.000Z</time>
      </trkpt>
      <trkpt lat="45.7791" lon="4.98076">
        <ele>233.38921</ele>
        <time>2023-08-27T14:05:21.000Z</time>
      </trkpt>
      <trkpt lat="45.7791" lon="4.9808">
        <ele>233.35791</ele>
        <time>2023-08-27T14:05:22.000Z</time>
      </trkpt>
      <trkpt lat="45.77911" lon="4.98085">
        <ele>233.30635</ele>
        <time>2023-08-27T14:05:23.000Z</time>
      </trkpt>
      <trkpt lat="45.77912" lon="4.98088">
        <ele>233.28093</ele>
        <time>2023-08-27T14:05:24.000Z</time>
      </trkpt>
      <trkpt lat="45.77914" lon="4.98092">
        <ele>233.27425</ele>
        <time>2023-08-27T14:05:25.000Z</time>
      </trkpt>
      <trkpt lat="45.77914" lon="4.98096">
        <ele>233.26132</ele>
        <time>2023-08-27T14:05:26.000Z</time>
      </trkpt>
      <trkpt lat="45.77914" lon="4.98099">
        <ele>233.27164</ele>
        <time>2023-08-27T14:05:27.000Z</time>
      </trkpt>
      <trkpt lat="45.77913" lon="4.98103">
        <ele>233.28833</ele>
        <time>2023-08-27T14:05:28.000Z</time>
      </trkpt>
      <trkpt lat="45.77912" lon="4.98106">
        <ele>233.34721</ele>
        <time>2023-08-27T14:05:29.000Z</time>
      </trkpt>
      <trkpt lat="45.77912" lon="4.98109">
        <ele>233.42847</ele>
        <time>2023-08-27T14:05:30.000Z</time>
      </trkpt>
      <trkpt lat="45.77912" lon="4.98113">
        <ele>233.53767</ele>
        <time>2023-08-27T14:05:31.000Z</time>
      </trkpt>
      <trkpt lat="45.77912" lon="4.98117">
        <ele>233.60791</ele>
        <time>2023-08-27T14:05:32.000Z</time>
      </trkpt>
      <trkpt lat="45.77912" lon="4.9812">
        <ele>233.71233</ele>
        <time>2023-08-27T14:05:33.000Z</time>
      </trkpt>
      <trkpt lat="45.77912" lon="4.98124">
        <ele>233.8018</ele>
        <time>2023-08-27T14:05:34.000Z</time>
      </trkpt>
      <trkpt lat="45.77912" lon="4.98128">
        <ele>233.92021</ele>
        <time>2023-08-27T14:05:35.000Z</time>
      </trkpt>
      <trkpt lat="45.77912" lon="4.98132">
        <ele>234.03711</ele>
        <time>2023-08-27T14:05:36.000Z</time>
      </trkpt>
      <trkpt lat="45.77912" lon="4.98137">
        <ele>234.16898</ele>
        <time>2023-08-27T14:05:37.000Z</time>
      </trkpt>
      <trkpt lat="45.77912" lon="4.98142">
        <ele>234.3269</ele>
        <time>2023-08-27T14:05:38.000Z</time>
      </trkpt>
      <trkpt lat="45.77911" lon="4.98146">
        <ele>234.47319</ele>
        <time>2023-08-27T14:05:39.000Z</time>
      </trkpt>
      <trkpt lat="45.77911" lon="4.98149">
        <ele>234.62378</ele>
        <time>2023-08-27T14:05:40.000Z</time>
      </trkpt>
      <trkpt lat="45.77911" lon="4.98152">
        <ele>234.74887</ele>
        <time>2023-08-27T14:05:41.000Z</time>
      </trkpt>
      <trkpt lat="45.7791" lon="4.98155">
        <ele>234.89438</ele>
        <time>2023-08-27T14:05:42.000Z</time>
      </trkpt>
      <trkpt lat="45.7791" lon="4.9816">
        <ele>235.06755</ele>
        <time>2023-08-27T14:05:43.000Z</time>
      </trkpt>
      <trkpt lat="45.7791" lon="4.98165">
        <ele>235.23889</ele>
        <time>2023-08-27T14:05:44.000Z</time>
      </trkpt>
      <trkpt lat="45.7791" lon="4.98171">
        <ele>235.43095</ele>
        <time>2023-08-27T14:05:45.000Z</time>
      </trkpt>
      <trkpt lat="45.7791" lon="4.98176">
        <ele>235.60307</ele>
        <time>2023-08-27T14:05:46.000Z</time>
      </trkpt>
      <trkpt lat="45.7791" lon="4.98181">
        <ele>235.73848</ele>
        <time>2023-08-27T14:05:47.000Z</time>
      </trkpt>
      <trkpt lat="45.7791" lon="4.98185">
        <ele>235.849</ele>
        <time>2023-08-27T14:05:48.000Z</time>
      </trkpt>
      <trkpt lat="45.7791" lon="4.9819">
        <ele>235.91898</ele>
        <time>2023-08-27T14:05:49.000Z</time>
      </trkpt>
      <trkpt lat="45.7791" lon="4.98194">
        <ele>235.97656</ele>
        <time>2023-08-27T14:05:50.000Z</time>
      </trkpt>
      <trkpt lat="45.7791" lon="4.98198">
        <ele>236.06754</ele>
        <time>2023-08-27T14:05:51.000Z</time>
      </trkpt>
      <trkpt lat="45.7791" lon="4.98202">
        <ele>236.19931</ele>
        <time>2023-08-27T14:05:52.000Z</time>
      </trkpt>
      <trkpt lat="45.7791" lon="4.98206">
        <ele>236.32764</ele>
        <time>2023-08-27T14:05:53.000Z</time>
      </trkpt>
      <trkpt lat="45.7791" lon="4.98211">
        <ele>236.43301</ele>
        <time>2023-08-27T14:05:54.000Z</time>
      </trkpt>
      <trkpt lat="45.77909" lon="4.98215">
        <ele>236.56506</ele>
        <time>2023-08-27T14:05:55.000Z</time>
      </trkpt>
      <trkpt lat="45.7791" lon="4.9822">
        <ele>236.68491</ele>
        <time>2023-08-27T14:05:56.000Z</time>
      </trkpt>
      <trkpt lat="45.7791" lon="4.98224">
        <ele>236.75896</ele>
        <time>2023-08-27T14:05:57.000Z</time>
      </trkpt>
      <trkpt lat="45.7791" lon="4.98228">
        <ele>236.82402</ele>
        <time>2023-08-27T14:05:58.000Z</time>
      </trkpt>
      <trkpt lat="45.7791" lon="4.98232">
        <ele>236.88033</ele>
        <time>2023-08-27T14:05:59.000Z</time>
      </trkpt>
      <trkpt lat="45.7791" lon="4.98235">
        <ele>236.90288</ele>
        <time>2023-08-27T14:06:00.000Z</time>
      </trkpt>
      <trkpt lat="45.7791" lon="4.98239">
        <ele>236.96016</ele>
        <time>2023-08-27T14:06:01.000Z</time>
      </trkpt>
      <trkpt lat="45.7791" lon="4.98242">
        <ele>236.98264</ele>
        <time>2023-08-27T14:06:02.000Z</time>
      </trkpt>
      <trkpt lat="45.77911" lon="4.98248">
        <ele>237.05339</ele>
        <time>2023-08-27T14:06:04.000Z</time>
      </trkpt>
      <trkpt lat="45.77911" lon="4.98252">
        <ele>237.1167</ele>
        <time>2023-08-27T14:06:05.000Z</time>
      </trkpt>
      <trkpt lat="45.77911" lon="4.98255">
        <ele>237.14888</ele>
        <time>2023-08-27T14:06:06.000Z</time>
      </trkpt>
      <trkpt lat="45.77911" lon="4.98259">
        <ele>237.19479</ele>
        <time>2023-08-27T14:06:07.000Z</time>
      </trkpt>
      <trkpt lat="45.77911" lon="4.98263">
        <ele>237.21167</ele>
        <time>2023-08-27T14:06:08.000Z</time>
      </trkpt>
      <trkpt lat="45.77911" lon="4.98267">
        <ele>237.27071</ele>
        <time>2023-08-27T14:06:09.000Z</time>
      </trkpt>
      <trkpt lat="45.77911" lon="4.98272">
        <ele>237.35544</ele>
        <time>2023-08-27T14:06:10.000Z</time>
      </trkpt>
      <trkpt lat="45.77911" lon="4.98277">
        <ele>237.40427</ele>
        <time>2023-08-27T14:06:11.000Z</time>
      </trkpt>
      <trkpt lat="45.77912" lon="4.98282">
        <ele>237.45309</ele>
        <time>2023-08-27T14:06:12.000Z</time>
      </trkpt>
      <trkpt lat="45.77912" lon="4.98287">
        <ele>237.46152</ele>
        <time>2023-08-27T14:06:13.000Z</time>
      </trkpt>
      <trkpt lat="45.77912" lon="4.98291">
        <ele>237.46085</ele>
        <time>2023-08-27T14:06:14.000Z</time>
      </trkpt>
      <trkpt lat="45.77912" lon="4.98295">
        <ele>237.48759</ele>
        <time>2023-08-27T14:06:15.000Z</time>
      </trkpt>
      <trkpt lat="45.77912" lon="4.98299">
        <ele>237.49593</ele>
        <time>2023-08-27T14:06:16.000Z</time>
      </trkpt>
      <trkpt lat="45.77912" lon="4.98302">
        <ele>237.50957</ele>
        <time>2023-08-27T14:06:17.000Z</time>
      </trkpt>
      <trkpt lat="45.77912" lon="4.98306">
        <ele>237.55074</ele>
        <time>2023-08-27T14:06:18.000Z</time>
      </trkpt>
      <trkpt lat="45.77912" lon="4.9831">
        <ele>237.57675</ele>
        <time>2023-08-27T14:06:19.000Z</time>
      </trkpt>
      <trkpt lat="45.77912" lon="4.98315">
        <ele>237.6362</ele>
        <time>2023-08-27T14:06:20.000Z</time>
      </trkpt>
      <trkpt lat="45.77912" lon="4.9832">
        <ele>237.73262</ele>
        <time>2023-08-27T14:06:21.000Z</time>
      </trkpt>
      <trkpt lat="45.77912" lon="4.98325">
        <ele>237.78992</ele>
        <time>2023-08-27T14:06:22.000Z</time>
      </trkpt>
      <trkpt lat="45.77912" lon="4.9833">
        <ele>237.79985</ele>
        <time>2023-08-27T14:06:23.000Z</time>
      </trkpt>
      <trkpt lat="45.77912" lon="4.98335">
        <ele>237.75052</ele>
        <time>2023-08-27T14:06:24.000Z</time>
      </trkpt>
      <trkpt lat="45.77912" lon="4.9834">
        <ele>237.69083</ele>
        <time>2023-08-27T14:06:25.000Z</time>
      </trkpt>
      <trkpt lat="45.77912" lon="4.98345">
        <ele>237.65039</ele>
        <time>2023-08-27T14:06:26.000Z</time>
      </trkpt>
      <trkpt lat="45.77913" lon="4.9835">
        <ele>237.59302</ele>
        <time>2023-08-27T14:06:27.000Z</time>
      </trkpt>
      <trkpt lat="45.77914" lon="4.98354">
        <ele>237.63713</ele>
        <time>2023-08-27T14:06:28.000Z</time>
      </trkpt>
      <trkpt lat="45.77916" lon="4.98359">
        <ele>237.64365</ele>
        <time>2023-08-27T14:06:29.000Z</time>
      </trkpt>
      <trkpt lat="45.77918" lon="4.98363">
        <ele>237.62996</ele>
        <time>2023-08-27T14:06:30.000Z</time>
      </trkpt>
      <trkpt lat="45.77919" lon="4.98367">
        <ele>237.63184</ele>
        <time>2023-08-27T14:06:31.000Z</time>
      </trkpt>
      <trkpt lat="45.77921" lon="4.98372">
        <ele>237.6075</ele>
        <time>2023-08-27T14:06:32.000Z</time>
      </trkpt>
      <trkpt lat="45.77923" lon="4.98377">
        <ele>237.57048</ele>
        <time>2023-08-27T14:06:33.000Z</time>
      </trkpt>
      <trkpt lat="45.77925" lon="4.98382">
        <ele>237.54659</ele>
        <time>2023-08-27T14:06:34.000Z</time>
      </trkpt>
      <trkpt lat="45.77927" lon="4.98388">
        <ele>237.51631</ele>
        <time>2023-08-27T14:06:35.000Z</time>
      </trkpt>
      <trkpt lat="45.77929" lon="4.98396">
        <ele>237.49077</ele>
        <time>2023-08-27T14:06:36.000Z</time>
      </trkpt>
      <trkpt lat="45.77931" lon="4.98404">
        <ele>237.45332</ele>
        <time>2023-08-27T14:06:37.000Z</time>
      </trkpt>
      <trkpt lat="45.77933" lon="4.98411">
        <ele>237.42204</ele>
        <time>2023-08-27T14:06:38.000Z</time>
      </trkpt>
      <trkpt lat="45.77936" lon="4.98416">
        <ele>237.38083</ele>
        <time>2023-08-27T14:06:39.000Z</time>
      </trkpt>
      <trkpt lat="45.77938" lon="4.98423">
        <ele>237.32935</ele>
        <time>2023-08-27T14:06:40.000Z</time>
      </trkpt>
      <trkpt lat="45.77939" lon="4.9843">
        <ele>237.26718</ele>
        <time>2023-08-27T14:06:41.000Z</time>
      </trkpt>
      <trkpt lat="45.7794" lon="4.98436">
        <ele>237.18132</ele>
        <time>2023-08-27T14:06:42.000Z</time>
      </trkpt>
      <trkpt lat="45.77942" lon="4.98444">
        <ele>237.16516</ele>
        <time>2023-08-27T14:06:43.000Z</time>
      </trkpt>
      <trkpt lat="45.77943" lon="4.98451">
        <ele>237.13232</ele>
        <time>2023-08-27T14:06:44.000Z</time>
      </trkpt>
      <trkpt lat="45.77944" lon="4.98459">
        <ele>237.09795</ele>
        <time>2023-08-27T14:06:45.000Z</time>
      </trkpt>
      <trkpt lat="45.77945" lon="4.98467">
        <ele>237.04597</ele>
        <time>2023-08-27T14:06:46.000Z</time>
      </trkpt>
      <trkpt lat="45.77944" lon="4.98474">
        <ele>236.9794</ele>
        <time>2023-08-27T14:06:47.000Z</time>
      </trkpt>
      <trkpt lat="45.77944" lon="4.98481">
        <ele>236.78996</ele>
        <time>2023-08-27T14:06:48.000Z</time>
      </trkpt>
      <trkpt lat="45.77942" lon="4.98488">
        <ele>236.62424</ele>
        <time>2023-08-27T14:06:49.000Z</time>
      </trkpt>
      <trkpt lat="45.7794" lon="4.98494">
        <ele>236.4556</ele>
        <time>2023-08-27T14:06:50.000Z</time>
      </trkpt>
      <trkpt lat="45.77939" lon="4.985">
        <ele>236.38892</ele>
        <time>2023-08-27T14:06:51.000Z</time>
      </trkpt>
      <trkpt lat="45.77939" lon="4.98506">
        <ele>236.3309</ele>
        <time>2023-08-27T14:06:52.000Z</time>
      </trkpt>
      <trkpt lat="45.7794" lon="4.98511">
        <ele>236.31599</ele>
        <time>2023-08-27T14:06:53.000Z</time>
      </trkpt>
      <trkpt lat="45.7794" lon="4.98516">
        <ele>236.27408</ele>
        <time>2023-08-27T14:06:54.000Z</time>
      </trkpt>
      <trkpt lat="45.77943" lon="4.98521">
        <ele>236.24263</ele>
        <time>2023-08-27T14:06:55.000Z</time>
      </trkpt>
      <trkpt lat="45.77947" lon="4.98524">
        <ele>236.19646</ele>
        <time>2023-08-27T14:06:56.000Z</time>
      </trkpt>
      <trkpt lat="45.77951" lon="4.98527">
        <ele>236.1031</ele>
        <time>2023-08-27T14:06:57.000Z</time>
      </trkpt>
      <trkpt lat="45.77956" lon="4.98528">
        <ele>236.02164</ele>
        <time>2023-08-27T14:06:58.000Z</time>
      </trkpt>
      <trkpt lat="45.7796" lon="4.9853">
        <ele>235.98552</ele>
        <time>2023-08-27T14:06:59.000Z</time>
      </trkpt>
      <trkpt lat="45.77963" lon="4.98532">
        <ele>235.94914</ele>
        <time>2023-08-27T14:07:00.000Z</time>
      </trkpt>
      <trkpt lat="45.77966" lon="4.98533">
        <ele>235.91682</ele>
        <time>2023-08-27T14:07:01.000Z</time>
      </trkpt>
      <trkpt lat="45.77968" lon="4.98534">
        <ele>235.92143</ele>
        <time>2023-08-27T14:07:02.000Z</time>
      </trkpt>
      <trkpt lat="45.7797" lon="4.98538">
        <ele>235.98917</ele>
        <time>2023-08-27T14:07:03.000Z</time>
      </trkpt>
      <trkpt lat="45.77972" lon="4.98541">
        <ele>236.03166</ele>
        <time>2023-08-27T14:07:04.000Z</time>
      </trkpt>
      <trkpt lat="45.77972" lon="4.98544">
        <ele>236.1344</ele>
        <time>2023-08-27T14:07:05.000Z</time>
      </trkpt>
      <trkpt lat="45.77973" lon="4.98548">
        <ele>236.2579</ele>
        <time>2023-08-27T14:07:06.000Z</time>
      </trkpt>
      <trkpt lat="45.77974" lon="4.98551">
        <ele>236.41138</ele>
        <time>2023-08-27T14:07:07.000Z</time>
      </trkpt>
      <trkpt lat="45.77975" lon="4.98555">
        <ele>236.66428</ele>
        <time>2023-08-27T14:07:08.000Z</time>
      </trkpt>
      <trkpt lat="45.77976" lon="4.9856">
        <ele>236.90701</ele>
        <time>2023-08-27T14:07:09.000Z</time>
      </trkpt>
      <trkpt lat="45.77978" lon="4.98565">
        <ele>237.15939</ele>
        <time>2023-08-27T14:07:10.000Z</time>
      </trkpt>
      <trkpt lat="45.77979" lon="4.9857">
        <ele>237.3103</ele>
        <time>2023-08-27T14:07:11.000Z</time>
      </trkpt>
      <trkpt lat="45.7798" lon="4.98575">
        <ele>237.42139</ele>
        <time>2023-08-27T14:07:12.000Z</time>
      </trkpt>
      <trkpt lat="45.77981" lon="4.9858">
        <ele>237.49277</ele>
        <time>2023-08-27T14:07:13.000Z</time>
      </trkpt>
      <trkpt lat="45.77982" lon="4.98585">
        <ele>237.56332</ele>
        <time>2023-08-27T14:07:14.000Z</time>
      </trkpt>
      <trkpt lat="45.77983" lon="4.98589">
        <ele>237.62263</ele>
        <time>2023-08-27T14:07:15.000Z</time>
      </trkpt>
      <trkpt lat="45.77985" lon="4.98594">
        <ele>237.67578</ele>
        <time>2023-08-27T14:07:16.000Z</time>
      </trkpt>
      <trkpt lat="45.77986" lon="4.98599">
        <ele>237.82011</ele>
        <time>2023-08-27T14:07:17.000Z</time>
      </trkpt>
      <trkpt lat="45.77988" lon="4.98604">
        <ele>237.96313</ele>
        <time>2023-08-27T14:07:18.000Z</time>
      </trkpt>
      <trkpt lat="45.7799" lon="4.98609">
        <ele>238.04721</ele>
        <time>2023-08-27T14:07:19.000Z</time>
      </trkpt>
      <trkpt lat="45.77992" lon="4.98614">
        <ele>238.14877</ele>
        <time>2023-08-27T14:07:20.000Z</time>
      </trkpt>
      <trkpt lat="45.77995" lon="4.98618">
        <ele>238.23531</ele>
        <time>2023-08-27T14:07:21.000Z</time>
      </trkpt>
      <trkpt lat="45.77998" lon="4.98622">
        <ele>238.32964</ele>
        <time>2023-08-27T14:07:22.000Z</time>
      </trkpt>
      <trkpt lat="45.78001" lon="4.98626">
        <ele>238.34668</ele>
        <time>2023-08-27T14:07:23.000Z</time>
      </trkpt>
      <trkpt lat="45.78004" lon="4.9863">
        <ele>238.43404</ele>
        <time>2023-08-27T14:07:24.000Z</time>
      </trkpt>
      <trkpt lat="45.78007" lon="4.98633">
        <ele>238.45625</ele>
        <time>2023-08-27T14:07:25.000Z</time>
      </trkpt>
      <trkpt lat="45.7801" lon="4.98636">
        <ele>238.4758</ele>
        <time>2023-08-27T14:07:26.000Z</time>
      </trkpt>
      <trkpt lat="45.78013" lon="4.98639">
        <ele>238.48055</ele>
        <time>2023-08-27T14:07:27.000Z</time>
      </trkpt>
      <trkpt lat="45.78015" lon="4.98642">
        <ele>238.46591</ele>
        <time>2023-08-27T14:07:28.000Z</time>
      </trkpt>
      <trkpt lat="45.78017" lon="4.98645">
        <ele>238.43289</ele>
        <time>2023-08-27T14:07:29.000Z</time>
      </trkpt>
      <trkpt lat="45.78019" lon="4.98649">
        <ele>238.41255</ele>
        <time>2023-08-27T14:07:30.000Z</time>
      </trkpt>
      <trkpt lat="45.78021" lon="4.98652">
        <ele>238.40176</ele>
        <time>2023-08-27T14:07:31.000Z</time>
      </trkpt>
      <trkpt lat="45.78023" lon="4.98655">
        <ele>238.33614</ele>
        <time>2023-08-27T14:07:32.000Z</time>
      </trkpt>
      <trkpt lat="45.78025" lon="4.98658">
        <ele>238.29395</ele>
        <time>2023-08-27T14:07:33.000Z</time>
      </trkpt>
      <trkpt lat="45.78027" lon="4.9866">
        <ele>238.27042</ele>
        <time>2023-08-27T14:07:34.000Z</time>
      </trkpt>
      <trkpt lat="45.78029" lon="4.98663">
        <ele>238.25256</ele>
        <time>2023-08-27T14:07:35.000Z</time>
      </trkpt>
      <trkpt lat="45.78031" lon="4.98665">
        <ele>238.25638</ele>
        <time>2023-08-27T14:07:36.000Z</time>
      </trkpt>
      <trkpt lat="45.78033" lon="4.98667">
        <ele>238.22945</ele>
        <time>2023-08-27T14:07:37.000Z</time>
      </trkpt>
      <trkpt lat="45.78034" lon="4.98669">
        <ele>238.1823</ele>
        <time>2023-08-27T14:07:38.000Z</time>
      </trkpt>
      <trkpt lat="45.78036" lon="4.98673">
        <ele>238.15988</ele>
        <time>2023-08-27T14:07:40.000Z</time>
      </trkpt>
      <trkpt lat="45.78038" lon="4.98676">
        <ele>238.09436</ele>
        <time>2023-08-27T14:07:42.000Z</time>
      </trkpt>
      <trkpt lat="45.78039" lon="4.98678">
        <ele>238.04492</ele>
        <time>2023-08-27T14:07:43.000Z</time>
      </trkpt>
      <trkpt lat="45.78041" lon="4.9868">
        <ele>237.98209</ele>
        <time>2023-08-27T14:07:44.000Z</time>
      </trkpt>
      <trkpt lat="45.78042" lon="4.98682">
        <ele>237.89029</ele>
        <time>2023-08-27T14:07:45.000Z</time>
      </trkpt>
      <trkpt lat="45.78044" lon="4.98684">
        <ele>237.78633</ele>
        <time>2023-08-27T14:07:46.000Z</time>
      </trkpt>
      <trkpt lat="45.78046" lon="4.98685">
        <ele>237.74414</ele>
        <time>2023-08-27T14:07:47.000Z</time>
      </trkpt>
      <trkpt lat="45.78047" lon="4.98687">
        <ele>237.68607</ele>
        <time>2023-08-27T14:07:48.000Z</time>
      </trkpt>
      <trkpt lat="45.78048" lon="4.98689">
        <ele>237.62154</ele>
        <time>2023-08-27T14:07:49.000Z</time>
      </trkpt>
      <trkpt lat="45.7805" lon="4.98692">
        <ele>237.54993</ele>
        <time>2023-08-27T14:07:50.000Z</time>
      </trkpt>
      <trkpt lat="45.78052" lon="4.98694">
        <ele>237.48824</ele>
        <time>2023-08-27T14:07:51.000Z</time>
      </trkpt>
      <trkpt lat="45.78054" lon="4.98698">
        <ele>237.4155</ele>
        <time>2023-08-27T14:07:52.000Z</time>
      </trkpt>
      <trkpt lat="45.78056" lon="4.98701">
        <ele>237.3425</ele>
        <time>2023-08-27T14:07:53.000Z</time>
      </trkpt>
      <trkpt lat="45.78057" lon="4.98705">
        <ele>237.33884</ele>
        <time>2023-08-27T14:07:54.000Z</time>
      </trkpt>
      <trkpt lat="45.78059" lon="4.98709">
        <ele>237.32793</ele>
        <time>2023-08-27T14:07:55.000Z</time>
      </trkpt>
      <trkpt lat="45.78062" lon="4.98713">
        <ele>237.29277</ele>
        <time>2023-08-27T14:07:56.000Z</time>
      </trkpt>
      <trkpt lat="45.78064" lon="4.98716">
        <ele>237.24663</ele>
        <time>2023-08-27T14:07:57.000Z</time>
      </trkpt>
      <trkpt lat="45.78067" lon="4.98719">
        <ele>237.1873</ele>
        <time>2023-08-27T14:07:58.000Z</time>
      </trkpt>
      <trkpt lat="45.7807" lon="4.98722">
        <ele>237.11459</ele>
        <time>2023-08-27T14:07:59.000Z</time>
      </trkpt>
      <trkpt lat="45.78073" lon="4.98726">
        <ele>237.028</ele>
        <time>2023-08-27T14:08:00.000Z</time>
      </trkpt>
      <trkpt lat="45.78076" lon="4.9873">
        <ele>236.9281</ele>
        <time>2023-08-27T14:08:01.000Z</time>
      </trkpt>
      <trkpt lat="45.78079" lon="4.98734">
        <ele>236.84167</ele>
        <time>2023-08-27T14:08:02.000Z</time>
      </trkpt>
      <trkpt lat="45.78083" lon="4.98738">
        <ele>236.73709</ele>
        <time>2023-08-27T14:08:03.000Z</time>
      </trkpt>
      <trkpt lat="45.78088" lon="4.98743">
        <ele>236.66092</ele>
        <time>2023-08-27T14:08:04.000Z</time>
      </trkpt>
      <trkpt lat="45.78092" lon="4.98746">
        <ele>236.59311</ele>
        <time>2023-08-27T14:08:05.000Z</time>
      </trkpt>
      <trkpt lat="45.78095" lon="4.9875">
        <ele>236.48653</ele>
        <time>2023-08-27T14:08:06.000Z</time>
      </trkpt>
      <trkpt lat="45.781" lon="4.98755">
        <ele>236.3158</ele>
        <time>2023-08-27T14:08:07.000Z</time>
      </trkpt>
      <trkpt lat="45.78104" lon="4.98759">
        <ele>236.11629</ele>
        <time>2023-08-27T14:08:08.000Z</time>
      </trkpt>
      <trkpt lat="45.78108" lon="4.98763">
        <ele>235.95438</ele>
        <time>2023-08-27T14:08:09.000Z</time>
      </trkpt>
      <trkpt lat="45.78112" lon="4.98768">
        <ele>235.67195</ele>
        <time>2023-08-27T14:08:10.000Z</time>
      </trkpt>
      <trkpt lat="45.78117" lon="4.98772">
        <ele>235.37314</ele>
        <time>2023-08-27T14:08:11.000Z</time>
      </trkpt>
      <trkpt lat="45.78121" lon="4.98775">
        <ele>235.04013</ele>
        <time>2023-08-27T14:08:12.000Z</time>
      </trkpt>
      <trkpt lat="45.78127" lon="4.98778">
        <ele>234.77255</ele>
        <time>2023-08-27T14:08:13.000Z</time>
      </trkpt>
      <trkpt lat="45.78131" lon="4.98782">
        <ele>234.49683</ele>
        <time>2023-08-27T14:08:14.000Z</time>
      </trkpt>
      <trkpt lat="45.78136" lon="4.98785">
        <ele>234.21048</ele>
        <time>2023-08-27T14:08:15.000Z</time>
      </trkpt>
      <trkpt lat="45.78141" lon="4.98788">
        <ele>233.94333</ele>
        <time>2023-08-27T14:08:16.000Z</time>
      </trkpt>
      <trkpt lat="45.78146" lon="4.98789">
        <ele>233.71786</ele>
        <time>2023-08-27T14:08:17.000Z</time>
      </trkpt>
      <trkpt lat="45.78151" lon="4.98793">
        <ele>233.46504</ele>
        <time>2023-08-27T14:08:18.000Z</time>
      </trkpt>
      <trkpt lat="45.78156" lon="4.98796">
        <ele>233.18872</ele>
        <time>2023-08-27T14:08:19.000Z</time>
      </trkpt>
      <trkpt lat="45.7816" lon="4.98799">
        <ele>232.94722</ele>
        <time>2023-08-27T14:08:20.000Z</time>
      </trkpt>
      <trkpt lat="45.78164" lon="4.98802">
        <ele>232.71524</ele>
        <time>2023-08-27T14:08:21.000Z</time>
      </trkpt>
      <trkpt lat="45.78168" lon="4.98804">
        <ele>232.51299</ele>
        <time>2023-08-27T14:08:22.000Z</time>
      </trkpt>
      <trkpt lat="45.78171" lon="4.98806">
        <ele>232.32512</ele>
        <time>2023-08-27T14:08:23.000Z</time>
      </trkpt>
      <trkpt lat="45.78175" lon="4.98807">
        <ele>232.12143</ele>
        <time>2023-08-27T14:08:24.000Z</time>
      </trkpt>
      <trkpt lat="45.78179" lon="4.98811">
        <ele>231.93425</ele>
        <time>2023-08-27T14:08:25.000Z</time>
      </trkpt>
      <trkpt lat="45.78183" lon="4.98815">
        <ele>231.86511</ele>
        <time>2023-08-27T14:08:26.000Z</time>
      </trkpt>
      <trkpt lat="45.78185" lon="4.98818">
        <ele>231.80522</ele>
        <time>2023-08-27T14:08:27.000Z</time>
      </trkpt>
      <trkpt lat="45.78187" lon="4.98819">
        <ele>231.77946</ele>
        <time>2023-08-27T14:08:28.000Z</time>
      </trkpt>
      <trkpt lat="45.78189" lon="4.98821">
        <ele>231.55891</ele>
        <time>2023-08-27T14:08:29.000Z</time>
      </trkpt>
      <trkpt lat="45.78193" lon="4.98821">
        <ele>231.58028</ele>
        <time>2023-08-27T14:08:30.000Z</time>
      </trkpt>
      <trkpt lat="45.78198" lon="4.98823">
        <ele>231.57047</ele>
        <time>2023-08-27T14:08:31.000Z</time>
      </trkpt>
      <trkpt lat="45.78202" lon="4.98826">
        <ele>231.54277</ele>
        <time>2023-08-27T14:08:32.000Z</time>
      </trkpt>
      <trkpt lat="45.78205" lon="4.98828">
        <ele>231.45004</ele>
        <time>2023-08-27T14:08:33.000Z</time>
      </trkpt>
      <trkpt lat="45.7821" lon="4.98831">
        <ele>231.29037</ele>
        <time>2023-08-27T14:08:34.000Z</time>
      </trkpt>
      <trkpt lat="45.78214" lon="4.98834">
        <ele>231.20242</ele>
        <time>2023-08-27T14:08:35.000Z</time>
      </trkpt>
      <trkpt lat="45.78217" lon="4.98835">
        <ele>231.12236</ele>
        <time>2023-08-27T14:08:36.000Z</time>
      </trkpt>
      <trkpt lat="45.7822" lon="4.98838">
        <ele>231.06343</ele>
        <time>2023-08-27T14:08:38.000Z</time>
      </trkpt>
      <trkpt lat="45.78223" lon="4.9884">
        <ele>231.12349</ele>
        <time>2023-08-27T14:08:39.000Z</time>
      </trkpt>
      <trkpt lat="45.78227" lon="4.98841">
        <ele>231.21577</ele>
        <time>2023-08-27T14:08:40.000Z</time>
      </trkpt>
      <trkpt lat="45.78231" lon="4.98842">
        <ele>231.31123</ele>
        <time>2023-08-27T14:08:41.000Z</time>
      </trkpt>
      <trkpt lat="45.78234" lon="4.98844">
        <ele>231.43961</ele>
        <time>2023-08-27T14:08:42.000Z</time>
      </trkpt>
      <trkpt lat="45.78237" lon="4.98846">
        <ele>231.54248</ele>
        <time>2023-08-27T14:08:43.000Z</time>
      </trkpt>
      <trkpt lat="45.7824" lon="4.98849">
        <ele>231.60896</ele>
        <time>2023-08-27T14:08:44.000Z</time>
      </trkpt>
      <trkpt lat="45.78243" lon="4.98852">
        <ele>231.63562</ele>
        <time>2023-08-27T14:08:45.000Z</time>
      </trkpt>
      <trkpt lat="45.78246" lon="4.98855">
        <ele>231.7717</ele>
        <time>2023-08-27T14:08:46.000Z</time>
      </trkpt>
      <trkpt lat="45.78249" lon="4.98858">
        <ele>231.84262</ele>
        <time>2023-08-27T14:08:47.000Z</time>
      </trkpt>
      <trkpt lat="45.78252" lon="4.9886">
        <ele>231.96048</ele>
        <time>2023-08-27T14:08:48.000Z</time>
      </trkpt>
      <trkpt lat="45.78255" lon="4.98862">
        <ele>232.0878</ele>
        <time>2023-08-27T14:08:49.000Z</time>
      </trkpt>
      <trkpt lat="45.78257" lon="4.98865">
        <ele>232.32048</ele>
        <time>2023-08-27T14:08:50.000Z</time>
      </trkpt>
      <trkpt lat="45.78259" lon="4.98867">
        <ele>232.35596</ele>
        <time>2023-08-27T14:08:51.000Z</time>
      </trkpt>
      <trkpt lat="45.78261" lon="4.98869">
        <ele>232.41451</ele>
        <time>2023-08-27T14:08:52.000Z</time>
      </trkpt>
      <trkpt lat="45.78263" lon="4.98871">
        <ele>232.47958</ele>
        <time>2023-08-27T14:08:53.000Z</time>
      </trkpt>
      <trkpt lat="45.78265" lon="4.98875">
        <ele>232.54907</ele>
        <time>2023-08-27T14:08:55.000Z</time>
      </trkpt>
      <trkpt lat="45.78267" lon="4.98877">
        <ele>232.71509</ele>
        <time>2023-08-27T14:08:56.000Z</time>
      </trkpt>
      <trkpt lat="45.78269" lon="4.98879">
        <ele>232.84338</ele>
        <time>2023-08-27T14:08:57.000Z</time>
      </trkpt>
      <trkpt lat="45.7827" lon="4.98881">
        <ele>232.96919</ele>
        <time>2023-08-27T14:08:58.000Z</time>
      </trkpt>
      <trkpt lat="45.78272" lon="4.98882">
        <ele>233.07698</ele>
        <time>2023-08-27T14:08:59.000Z</time>
      </trkpt>
      <trkpt lat="45.78273" lon="4.98884">
        <ele>233.12473</ele>
        <time>2023-08-27T14:09:00.000Z</time>
      </trkpt>
      <trkpt lat="45.78276" lon="4.98885">
        <ele>233.20419</ele>
        <time>2023-08-27T14:09:01.000Z</time>
      </trkpt>
      <trkpt lat="45.78278" lon="4.98887">
        <ele>233.26895</ele>
        <time>2023-08-27T14:09:02.000Z</time>
      </trkpt>
      <trkpt lat="45.7828" lon="4.98889">
        <ele>233.28059</ele>
        <time>2023-08-27T14:09:03.000Z</time>
      </trkpt>
      <trkpt lat="45.78282" lon="4.98891">
        <ele>233.26384</ele>
        <time>2023-08-27T14:09:04.000Z</time>
      </trkpt>
      <trkpt lat="45.78284" lon="4.98894">
        <ele>233.28743</ele>
        <time>2023-08-27T14:09:05.000Z</time>
      </trkpt>
      <trkpt lat="45.78286" lon="4.98896">
        <ele>233.35376</ele>
        <time>2023-08-27T14:09:06.000Z</time>
      </trkpt>
      <trkpt lat="45.78288" lon="4.98898">
        <ele>233.31967</ele>
        <time>2023-08-27T14:09:07.000Z</time>
      </trkpt>
      <trkpt lat="45.7829" lon="4.98901">
        <ele>233.1899</ele>
        <time>2023-08-27T14:09:08.000Z</time>
      </trkpt>
      <trkpt lat="45.78292" lon="4.98903">
        <ele>233.02115</ele>
        <time>2023-08-27T14:09:09.000Z</time>
      </trkpt>
      <trkpt lat="45.78294" lon="4.98904">
        <ele>232.87183</ele>
        <time>2023-08-27T14:09:10.000Z</time>
      </trkpt>
      <trkpt lat="45.78296" lon="4.98905">
        <ele>232.7657</ele>
        <time>2023-08-27T14:09:11.000Z</time>
      </trkpt>
      <trkpt lat="45.78298" lon="4.98907">
        <ele>232.74911</ele>
        <time>2023-08-27T14:09:12.000Z</time>
      </trkpt>
      <trkpt lat="45.783" lon="4.98908">
        <ele>232.7524</ele>
        <time>2023-08-27T14:09:13.000Z</time>
      </trkpt>
      <trkpt lat="45.78302" lon="4.9891">
        <ele>232.79416</ele>
        <time>2023-08-27T14:09:14.000Z</time>
      </trkpt>
      <trkpt lat="45.78304" lon="4.98911">
        <ele>232.81064</ele>
        <time>2023-08-27T14:09:15.000Z</time>
      </trkpt>
      <trkpt lat="45.78307" lon="4.98913">
        <ele>232.81369</ele>
        <time>2023-08-27T14:09:16.000Z</time>
      </trkpt>
      <trkpt lat="45.78309" lon="4.98915">
        <ele>232.80234</ele>
        <time>2023-08-27T14:09:17.000Z</time>
      </trkpt>
      <trkpt lat="45.78312" lon="4.98917">
        <ele>232.75591</ele>
        <time>2023-08-27T14:09:18.000Z</time>
      </trkpt>
      <trkpt lat="45.78314" lon="4.98919">
        <ele>232.68607</ele>
        <time>2023-08-27T14:09:19.000Z</time>
      </trkpt>
      <trkpt lat="45.78317" lon="4.98921">
        <ele>232.58792</ele>
        <time>2023-08-27T14:09:20.000Z</time>
      </trkpt>
      <trkpt lat="45.78319" lon="4.98923">
        <ele>232.45593</ele>
        <time>2023-08-27T14:09:21.000Z</time>
      </trkpt>
      <trkpt lat="45.78321" lon="4.98925">
        <ele>232.29996</ele>
        <time>2023-08-27T14:09:22.000Z</time>
      </trkpt>
      <trkpt lat="45.78324" lon="4.98928">
        <ele>232.17935</ele>
        <time>2023-08-27T14:09:23.000Z</time>
      </trkpt>
      <trkpt lat="45.78326" lon="4.9893">
        <ele>232.09135</ele>
        <time>2023-08-27T14:09:24.000Z</time>
      </trkpt>
      <trkpt lat="45.78328" lon="4.98933">
        <ele>232.00644</ele>
        <time>2023-08-27T14:09:25.000Z</time>
      </trkpt>
      <trkpt lat="45.7833" lon="4.98937">
        <ele>231.90581</ele>
        <time>2023-08-27T14:09:26.000Z</time>
      </trkpt>
      <trkpt lat="45.7833" lon="4.98942">
        <ele>231.80571</ele>
        <time>2023-08-27T14:09:27.000Z</time>
      </trkpt>
      <trkpt lat="45.7833" lon="4.98946">
        <ele>231.78545</ele>
        <time>2023-08-27T14:09:28.000Z</time>
      </trkpt>
      <trkpt lat="45.78328" lon="4.9895">
        <ele>231.77634</ele>
        <time>2023-08-27T14:09:29.000Z</time>
      </trkpt>
      <trkpt lat="45.78326" lon="4.98954">
        <ele>231.74617</ele>
        <time>2023-08-27T14:09:30.000Z</time>
      </trkpt>
      <trkpt lat="45.78324" lon="4.98958">
        <ele>231.73868</ele>
        <time>2023-08-27T14:09:31.000Z</time>
      </trkpt>
      <trkpt lat="45.78322" lon="4.98961">
        <ele>231.71526</ele>
        <time>2023-08-27T14:09:32.000Z</time>
      </trkpt>
      <trkpt lat="45.7832" lon="4.98964">
        <ele>231.69209</ele>
        <time>2023-08-27T14:09:33.000Z</time>
      </trkpt>
      <trkpt lat="45.78319" lon="4.98966">
        <ele>231.64902</ele>
        <time>2023-08-27T14:09:34.000Z</time>
      </trkpt>
      <trkpt lat="45.78317" lon="4.98967">
        <ele>231.62759</ele>
        <time>2023-08-27T14:09:36.000Z</time>
      </trkpt>
      <trkpt lat="45.78318" lon="4.98974">
        <ele>231.60312</ele>
        <time>2023-08-27T14:09:38.000Z</time>
      </trkpt>
      <trkpt lat="45.7832" lon="4.98977">
        <ele>231.55264</ele>
        <time>2023-08-27T14:09:39.000Z</time>
      </trkpt>
      <trkpt lat="45.78322" lon="4.98979">
        <ele>231.49667</ele>
        <time>2023-08-27T14:09:40.000Z</time>
      </trkpt>
      <trkpt lat="45.78324" lon="4.98982">
        <ele>231.43887</ele>
        <time>2023-08-27T14:09:41.000Z</time>
      </trkpt>
      <trkpt lat="45.78327" lon="4.98984">
        <ele>231.41011</ele>
        <time>2023-08-27T14:09:42.000Z</time>
      </trkpt>
      <trkpt lat="45.78329" lon="4.98987">
        <ele>231.396</ele>
        <time>2023-08-27T14:09:43.000Z</time>
      </trkpt>
      <trkpt lat="45.78332" lon="4.9899">
        <ele>231.4043</ele>
        <time>2023-08-27T14:09:44.000Z</time>
      </trkpt>
      <trkpt lat="45.78334" lon="4.98992">
        <ele>231.38843</ele>
        <time>2023-08-27T14:09:45.000Z</time>
      </trkpt>
      <trkpt lat="45.78337" lon="4.98995">
        <ele>231.36922</ele>
        <time>2023-08-27T14:09:46.000Z</time>
      </trkpt>
      <trkpt lat="45.7834" lon="4.98998">
        <ele>231.31949</ele>
        <time>2023-08-27T14:09:47.000Z</time>
      </trkpt>
      <trkpt lat="45.78343" lon="4.99001">
        <ele>231.28793</ele>
        <time>2023-08-27T14:09:48.000Z</time>
      </trkpt>
      <trkpt lat="45.78346" lon="4.99003">
        <ele>231.24634</ele>
        <time>2023-08-27T14:09:49.000Z</time>
      </trkpt>
      <trkpt lat="45.78348" lon="4.99006">
        <ele>231.21152</ele>
        <time>2023-08-27T14:09:50.000Z</time>
      </trkpt>
      <trkpt lat="45.78351" lon="4.99009">
        <ele>231.16536</ele>
        <time>2023-08-27T14:09:51.000Z</time>
      </trkpt>
      <trkpt lat="45.78355" lon="4.99011">
        <ele>231.10617</ele>
        <time>2023-08-27T14:09:52.000Z</time>
      </trkpt>
      <trkpt lat="45.78358" lon="4.99014">
        <ele>231.05542</ele>
        <time>2023-08-27T14:09:53.000Z</time>
      </trkpt>
      <trkpt lat="45.78362" lon="4.99015">
        <ele>231.01147</ele>
        <time>2023-08-27T14:09:54.000Z</time>
      </trkpt>
      <trkpt lat="45.78366" lon="4.99017">
        <ele>230.95496</ele>
        <time>2023-08-27T14:09:55.000Z</time>
      </trkpt>
      <trkpt lat="45.78369" lon="4.99019">
        <ele>230.93994</ele>
        <time>2023-08-27T14:09:56.000Z</time>
      </trkpt>
      <trkpt lat="45.78372" lon="4.99022">
        <ele>230.88138</ele>
        <time>2023-08-27T14:09:57.000Z</time>
      </trkpt>
      <trkpt lat="45.78376" lon="4.99025">
        <ele>230.83313</ele>
        <time>2023-08-27T14:09:58.000Z</time>
      </trkpt>
      <trkpt lat="45.78379" lon="4.99027">
        <ele>230.78247</ele>
        <time>2023-08-27T14:09:59.000Z</time>
      </trkpt>
      <trkpt lat="45.78383" lon="4.99029">
        <ele>230.79012</ele>
        <time>2023-08-27T14:10:00.000Z</time>
      </trkpt>
      <trkpt lat="45.78387" lon="4.9903">
        <ele>230.82007</ele>
        <time>2023-08-27T14:10:01.000Z</time>
      </trkpt>
      <trkpt lat="45.78391" lon="4.99031">
        <ele>230.86382</ele>
        <time>2023-08-27T14:10:02.000Z</time>
      </trkpt>
      <trkpt lat="45.78394" lon="4.99033">
        <ele>230.9028</ele>
        <time>2023-08-27T14:10:03.000Z</time>
      </trkpt>
      <trkpt lat="45.78397" lon="4.99034">
        <ele>230.94116</ele>
        <time>2023-08-27T14:10:04.000Z</time>
      </trkpt>
      <trkpt lat="45.784" lon="4.99035">
        <ele>230.9969</ele>
        <time>2023-08-27T14:10:05.000Z</time>
      </trkpt>
      <trkpt lat="45.78403" lon="4.99036">
        <ele>231.12015</ele>
        <time>2023-08-27T14:10:06.000Z</time>
      </trkpt>
      <trkpt lat="45.78407" lon="4.99037">
        <ele>231.26318</ele>
        <time>2023-08-27T14:10:07.000Z</time>
      </trkpt>
      <trkpt lat="45.78412" lon="4.99038">
        <ele>231.40164</ele>
        <time>2023-08-27T14:10:08.000Z</time>
      </trkpt>
      <trkpt lat="45.78416" lon="4.9904">
        <ele>231.52829</ele>
        <time>2023-08-27T14:10:09.000Z</time>
      </trkpt>
      <trkpt lat="45.78421" lon="4.99042">
        <ele>231.64262</ele>
        <time>2023-08-27T14:10:10.000Z</time>
      </trkpt>
      <trkpt lat="45.78425" lon="4.99044">
        <ele>231.75581</ele>
        <time>2023-08-27T14:10:11.000Z</time>
      </trkpt>
      <trkpt lat="45.78428" lon="4.99047">
        <ele>231.8748</ele>
        <time>2023-08-27T14:10:12.000Z</time>
      </trkpt>
      <trkpt lat="45.78432" lon="4.99048">
        <ele>231.96016</ele>
        <time>2023-08-27T14:10:13.000Z</time>
      </trkpt>
      <trkpt lat="45.78436" lon="4.9905">
        <ele>232.03987</ele>
        <time>2023-08-27T14:10:14.000Z</time>
      </trkpt>
      <trkpt lat="45.7844" lon="4.99053">
        <ele>232.12695</ele>
        <time>2023-08-27T14:10:15.000Z</time>
      </trkpt>
      <trkpt lat="45.78443" lon="4.99055">
        <ele>232.20906</ele>
        <time>2023-08-27T14:10:16.000Z</time>
      </trkpt>
      <trkpt lat="45.78447" lon="4.99056">
        <ele>232.34538</ele>
        <time>2023-08-27T14:10:17.000Z</time>
      </trkpt>
      <trkpt lat="45.7845" lon="4.99058">
        <ele>232.47464</ele>
        <time>2023-08-27T14:10:18.000Z</time>
      </trkpt>
      <trkpt lat="45.78454" lon="4.99061">
        <ele>232.6254</ele>
        <time>2023-08-27T14:10:19.000Z</time>
      </trkpt>
      <trkpt lat="45.78458" lon="4.99062">
        <ele>232.75452</ele>
        <time>2023-08-27T14:10:20.000Z</time>
      </trkpt>
      <trkpt lat="45.78462" lon="4.99064">
        <ele>232.85909</ele>
        <time>2023-08-27T14:10:21.000Z</time>
      </trkpt>
      <trkpt lat="45.78465" lon="4.99066">
        <ele>232.93301</ele>
        <time>2023-08-27T14:10:22.000Z</time>
      </trkpt>
      <trkpt lat="45.78469" lon="4.99068">
        <ele>233.08316</ele>
        <time>2023-08-27T14:10:23.000Z</time>
      </trkpt>
      <trkpt lat="45.78474" lon="4.99069">
        <ele>233.22673</ele>
        <time>2023-08-27T14:10:24.000Z</time>
      </trkpt>
      <trkpt lat="45.78478" lon="4.9907">
        <ele>233.27983</ele>
        <time>2023-08-27T14:10:25.000Z</time>
      </trkpt>
      <trkpt lat="45.78482" lon="4.99071">
        <ele>233.30791</ele>
        <time>2023-08-27T14:10:26.000Z</time>
      </trkpt>
      <trkpt lat="45.78486" lon="4.9907">
        <ele>233.319</ele>
        <time>2023-08-27T14:10:27.000Z</time>
      </trkpt>
      <trkpt lat="45.7849" lon="4.9907">
        <ele>233.27454</ele>
        <time>2023-08-27T14:10:28.000Z</time>
      </trkpt>
      <trkpt lat="45.78494" lon="4.99069">
        <ele>233.24341</ele>
        <time>2023-08-27T14:10:29.000Z</time>
      </trkpt>
      <trkpt lat="45.78499" lon="4.99069">
        <ele>233.16672</ele>
        <time>2023-08-27T14:10:30.000Z</time>
      </trkpt>
      <trkpt lat="45.78503" lon="4.99069">
        <ele>233.06577</ele>
        <time>2023-08-27T14:10:31.000Z</time>
      </trkpt>
      <trkpt lat="45.78508" lon="4.9907">
        <ele>232.91904</ele>
        <time>2023-08-27T14:10:32.000Z</time>
      </trkpt>
      <trkpt lat="45.78512" lon="4.99069">
        <ele>232.78593</ele>
        <time>2023-08-27T14:10:33.000Z</time>
      </trkpt>
      <trkpt lat="45.78517" lon="4.99068">
        <ele>232.68941</ele>
        <time>2023-08-27T14:10:34.000Z</time>
      </trkpt>
      <trkpt lat="45.78521" lon="4.99067">
        <ele>232.60974</ele>
        <time>2023-08-27T14:10:35.000Z</time>
      </trkpt>
      <trkpt lat="45.78525" lon="4.99066">
        <ele>232.53056</ele>
        <time>2023-08-27T14:10:36.000Z</time>
      </trkpt>
      <trkpt lat="45.7853" lon="4.99065">
        <ele>232.4572</ele>
        <time>2023-08-27T14:10:37.000Z</time>
      </trkpt>
      <trkpt lat="45.78533" lon="4.99064">
        <ele>232.3643</ele>
        <time>2023-08-27T14:10:38.000Z</time>
      </trkpt>
      <trkpt lat="45.78538" lon="4.99063">
        <ele>232.29045</ele>
        <time>2023-08-27T14:10:39.000Z</time>
      </trkpt>
      <trkpt lat="45.78542" lon="4.99061">
        <ele>232.21756</ele>
        <time>2023-08-27T14:10:40.000Z</time>
      </trkpt>
      <trkpt lat="45.78545" lon="4.99061">
        <ele>232.14282</ele>
        <time>2023-08-27T14:10:41.000Z</time>
      </trkpt>
      <trkpt lat="45.78548" lon="4.99059">
        <ele>232.04773</ele>
        <time>2023-08-27T14:10:42.000Z</time>
      </trkpt>
      <trkpt lat="45.78552" lon="4.99058">
        <ele>231.81699</ele>
        <time>2023-08-27T14:10:43.000Z</time>
      </trkpt>
      <trkpt lat="45.78556" lon="4.99056">
        <ele>231.60486</ele>
        <time>2023-08-27T14:10:44.000Z</time>
      </trkpt>
      <trkpt lat="45.7856" lon="4.99055">
        <ele>231.47697</ele>
        <time>2023-08-27T14:10:45.000Z</time>
      </trkpt>
      <trkpt lat="45.78564" lon="4.99053">
        <ele>231.31503</ele>
        <time>2023-08-27T14:10:46.000Z</time>
      </trkpt>
      <trkpt lat="45.78569" lon="4.99052">
        <ele>231.16397</ele>
        <time>2023-08-27T14:10:47.000Z</time>
      </trkpt>
      <trkpt lat="45.78573" lon="4.99052">
        <ele>231.05203</ele>
        <time>2023-08-27T14:10:48.000Z</time>
      </trkpt>
      <trkpt lat="45.78576" lon="4.9905">
        <ele>230.91631</ele>
        <time>2023-08-27T14:10:49.000Z</time>
      </trkpt>
      <trkpt lat="45.7858" lon="4.99049">
        <ele>230.84396</ele>
        <time>2023-08-27T14:10:50.000Z</time>
      </trkpt>
      <trkpt lat="45.78584" lon="4.99048">
        <ele>230.80856</ele>
        <time>2023-08-27T14:10:51.000Z</time>
      </trkpt>
      <trkpt lat="45.78587" lon="4.99046">
        <ele>230.84384</ele>
        <time>2023-08-27T14:10:52.000Z</time>
      </trkpt>
      <trkpt lat="45.78591" lon="4.99045">
        <ele>230.99121</ele>
        <time>2023-08-27T14:10:53.000Z</time>
      </trkpt>
      <trkpt lat="45.78594" lon="4.99044">
        <ele>231.11783</ele>
        <time>2023-08-27T14:10:54.000Z</time>
      </trkpt>
      <trkpt lat="45.78598" lon="4.99043">
        <ele>231.25607</ele>
        <time>2023-08-27T14:10:55.000Z</time>
      </trkpt>
      <trkpt lat="45.78601" lon="4.99042">
        <ele>231.35873</ele>
        <time>2023-08-27T14:10:56.000Z</time>
      </trkpt>
      <trkpt lat="45.78604" lon="4.99041">
        <ele>231.38838</ele>
        <time>2023-08-27T14:10:57.000Z</time>
      </trkpt>
      <trkpt lat="45.78607" lon="4.9904">
        <ele>231.43535</ele>
        <time>2023-08-27T14:10:58.000Z</time>
      </trkpt>
      <trkpt lat="45.7861" lon="4.99038">
        <ele>231.44302</ele>
        <time>2023-08-27T14:10:59.000Z</time>
      </trkpt>
      <trkpt lat="45.78613" lon="4.99037">
        <ele>231.40591</ele>
        <time>2023-08-27T14:11:00.000Z</time>
      </trkpt>
      <trkpt lat="45.78615" lon="4.99035">
        <ele>231.37329</ele>
        <time>2023-08-27T14:11:01.000Z</time>
      </trkpt>
      <trkpt lat="45.78618" lon="4.99034">
        <ele>231.3186</ele>
        <time>2023-08-27T14:11:02.000Z</time>
      </trkpt>
      <trkpt lat="45.78621" lon="4.99032">
        <ele>231.3147</ele>
        <time>2023-08-27T14:11:03.000Z</time>
      </trkpt>
      <trkpt lat="45.78624" lon="4.99031">
        <ele>231.28177</ele>
        <time>2023-08-27T14:11:04.000Z</time>
      </trkpt>
      <trkpt lat="45.78627" lon="4.9903">
        <ele>231.29167</ele>
        <time>2023-08-27T14:11:05.000Z</time>
      </trkpt>
      <trkpt lat="45.7863" lon="4.99028">
        <ele>231.30542</ele>
        <time>2023-08-27T14:11:06.000Z</time>
      </trkpt>
      <trkpt lat="45.78632" lon="4.99025">
        <ele>231.33472</ele>
        <time>2023-08-27T14:11:07.000Z</time>
      </trkpt>
      <trkpt lat="45.78635" lon="4.99023">
        <ele>231.35971</ele>
        <time>2023-08-27T14:11:08.000Z</time>
      </trkpt>
      <trkpt lat="45.78638" lon="4.9902">
        <ele>231.39023</ele>
        <time>2023-08-27T14:11:09.000Z</time>
      </trkpt>
      <trkpt lat="45.78641" lon="4.99017">
        <ele>231.37981</ele>
        <time>2023-08-27T14:11:10.000Z</time>
      </trkpt>
      <trkpt lat="45.78644" lon="4.99015">
        <ele>231.3389</ele>
        <time>2023-08-27T14:11:11.000Z</time>
      </trkpt>
      <trkpt lat="45.78646" lon="4.99013">
        <ele>231.29807</ele>
        <time>2023-08-27T14:11:12.000Z</time>
      </trkpt>
      <trkpt lat="45.78649" lon="4.99011">
        <ele>231.15933</ele>
        <time>2023-08-27T14:11:13.000Z</time>
      </trkpt>
      <trkpt lat="45.78652" lon="4.99009">
        <ele>231.06522</ele>
        <time>2023-08-27T14:11:14.000Z</time>
      </trkpt>
      <trkpt lat="45.78655" lon="4.99007">
        <ele>230.97404</ele>
        <time>2023-08-27T14:11:15.000Z</time>
      </trkpt>
      <trkpt lat="45.78657" lon="4.99004">
        <ele>230.91985</ele>
        <time>2023-08-27T14:11:16.000Z</time>
      </trkpt>
      <trkpt lat="45.78659" lon="4.99001">
        <ele>230.95667</ele>
        <time>2023-08-27T14:11:17.000Z</time>
      </trkpt>
      <trkpt lat="45.78662" lon="4.98998">
        <ele>230.91731</ele>
        <time>2023-08-27T14:11:18.000Z</time>
      </trkpt>
      <trkpt lat="45.78664" lon="4.98996">
        <ele>231.11507</ele>
        <time>2023-08-27T14:11:19.000Z</time>
      </trkpt>
      <trkpt lat="45.78666" lon="4.98994">
        <ele>231.35889</ele>
        <time>2023-08-27T14:11:20.000Z</time>
      </trkpt>
      <trkpt lat="45.78668" lon="4.98992">
        <ele>231.58997</ele>
        <time>2023-08-27T14:11:21.000Z</time>
      </trkpt>
      <trkpt lat="45.7867" lon="4.9899">
        <ele>231.89278</ele>
        <time>2023-08-27T14:11:23.000Z</time>
      </trkpt>
      <trkpt lat="45.78673" lon="4.98989">
        <ele>232.21855</ele>
        <time>2023-08-27T14:11:25.000Z</time>
      </trkpt>
      <trkpt lat="45.78675" lon="4.98987">
        <ele>232.54146</ele>
        <time>2023-08-27T14:11:27.000Z</time>
      </trkpt>
      <trkpt lat="45.78677" lon="4.98989">
        <ele>232.79407</ele>
        <time>2023-08-27T14:11:31.000Z</time>
      </trkpt>
      <trkpt lat="45.78678" lon="4.98987">
        <ele>232.85918</ele>
        <time>2023-08-27T14:11:38.000Z</time>
      </trkpt>
      <trkpt lat="45.7868" lon="4.98985">
        <ele>233.06506</ele>
        <time>2023-08-27T14:11:40.000Z</time>
      </trkpt>
      <trkpt lat="45.78682" lon="4.98985">
        <ele>233.34262</ele>
        <time>2023-08-27T14:11:46.000Z</time>
      </trkpt>
      <trkpt lat="45.78682" lon="4.98983">
        <ele>233.67632</ele>
        <time>2023-08-27T14:11:58.000Z</time>
      </trkpt>
      <trkpt lat="45.78684" lon="4.98981">
        <ele>233.99385</ele>
        <time>2023-08-27T14:14:32.000Z</time>
      </trkpt>
      <trkpt lat="45.78687" lon="4.9898">
        <ele>234.32565</ele>
        <time>2023-08-27T14:14:33.000Z</time>
      </trkpt>
      <trkpt lat="45.78689" lon="4.98979">
        <ele>234.65137</ele>
        <time>2023-08-27T14:14:34.000Z</time>
      </trkpt>
      <trkpt lat="45.78691" lon="4.98978">
        <ele>234.99744</ele>
        <time>2023-08-27T14:14:35.000Z</time>
      </trkpt>
      <trkpt lat="45.78694" lon="4.98977">
        <ele>235.30862</ele>
        <time>2023-08-27T14:14:36.000Z</time>
      </trkpt>
      <trkpt lat="45.78696" lon="4.98975">
        <ele>235.58748</ele>
        <time>2023-08-27T14:14:37.000Z</time>
      </trkpt>
      <trkpt lat="45.78699" lon="4.98973">
        <ele>235.90657</ele>
        <time>2023-08-27T14:14:38.000Z</time>
      </trkpt>
      <trkpt lat="45.78701" lon="4.98972">
        <ele>236.20187</ele>
        <time>2023-08-27T14:14:39.000Z</time>
      </trkpt>
      <trkpt lat="45.78704" lon="4.98971">
        <ele>236.54634</ele>
        <time>2023-08-27T14:14:40.000Z</time>
      </trkpt>
      <trkpt lat="45.78707" lon="4.98969">
        <ele>236.67363</ele>
        <time>2023-08-27T14:14:41.000Z</time>
      </trkpt>
      <trkpt lat="45.78711" lon="4.98968">
        <ele>236.75481</ele>
        <time>2023-08-27T14:14:42.000Z</time>
      </trkpt>
      <trkpt lat="45.78715" lon="4.98967">
        <ele>236.91008</ele>
        <time>2023-08-27T14:14:43.000Z</time>
      </trkpt>
      <trkpt lat="45.7872" lon="4.98966">
        <ele>236.89189</ele>
        <time>2023-08-27T14:14:44.000Z</time>
      </trkpt>
      <trkpt lat="45.78726" lon="4.98968">
        <ele>236.8721</ele>
        <time>2023-08-27T14:14:45.000Z</time>
      </trkpt>
      <trkpt lat="45.78731" lon="4.98966">
        <ele>236.88791</ele>
        <time>2023-08-27T14:14:46.000Z</time>
      </trkpt>
      <trkpt lat="45.78737" lon="4.98963">
        <ele>236.80122</ele>
        <time>2023-08-27T14:14:47.000Z</time>
      </trkpt>
      <trkpt lat="45.78741" lon="4.98959">
        <ele>236.89371</ele>
        <time>2023-08-27T14:14:48.000Z</time>
      </trkpt>
      <trkpt lat="45.78745" lon="4.98955">
        <ele>236.88322</ele>
        <time>2023-08-27T14:14:49.000Z</time>
      </trkpt>
      <trkpt lat="45.78748" lon="4.9895">
        <ele>236.82047</ele>
        <time>2023-08-27T14:14:50.000Z</time>
      </trkpt>
      <trkpt lat="45.78751" lon="4.98947">
        <ele>236.7303</ele>
        <time>2023-08-27T14:14:51.000Z</time>
      </trkpt>
      <trkpt lat="45.78755" lon="4.98944">
        <ele>236.74805</ele>
        <time>2023-08-27T14:14:52.000Z</time>
      </trkpt>
      <trkpt lat="45.78758" lon="4.98941">
        <ele>236.7775</ele>
        <time>2023-08-27T14:14:53.000Z</time>
      </trkpt>
      <trkpt lat="45.7876" lon="4.98936">
        <ele>236.79716</ele>
        <time>2023-08-27T14:14:54.000Z</time>
      </trkpt>
      <trkpt lat="45.78761" lon="4.98934">
        <ele>236.79855</ele>
        <time>2023-08-27T14:14:55.000Z</time>
      </trkpt>
      <trkpt lat="45.78763" lon="4.98932">
        <ele>236.84921</ele>
        <time>2023-08-27T14:14:56.000Z</time>
      </trkpt>
      <trkpt lat="45.78765" lon="4.9893">
        <ele>236.87827</ele>
        <time>2023-08-27T14:14:57.000Z</time>
      </trkpt>
      <trkpt lat="45.78768" lon="4.98928">
        <ele>236.84802</ele>
        <time>2023-08-27T14:14:59.000Z</time>
      </trkpt>
      <trkpt lat="45.78771" lon="4.98927">
        <ele>236.8179</ele>
        <time>2023-08-27T14:15:00.000Z</time>
      </trkpt>
      <trkpt lat="45.78776" lon="4.98927">
        <ele>236.86031</ele>
        <time>2023-08-27T14:15:01.000Z</time>
      </trkpt>
      <trkpt lat="45.7878" lon="4.98927">
        <ele>236.90195</ele>
        <time>2023-08-27T14:15:02.000Z</time>
      </trkpt>
      <trkpt lat="45.78784" lon="4.98927">
        <ele>236.97217</ele>
        <time>2023-08-27T14:15:03.000Z</time>
      </trkpt>
      <trkpt lat="45.78788" lon="4.98927">
        <ele>236.94461</ele>
        <time>2023-08-27T14:15:04.000Z</time>
      </trkpt>
      <trkpt lat="45.78792" lon="4.98927">
        <ele>237.06279</ele>
        <time>2023-08-27T14:15:05.000Z</time>
      </trkpt>
      <trkpt lat="45.78796" lon="4.98927">
        <ele>237.13358</ele>
        <time>2023-08-27T14:15:06.000Z</time>
      </trkpt>
      <trkpt lat="45.78801" lon="4.98927">
        <ele>237.08952</ele>
        <time>2023-08-27T14:15:07.000Z</time>
      </trkpt>
      <trkpt lat="45.78805" lon="4.98927">
        <ele>237.14139</ele>
        <time>2023-08-27T14:15:08.000Z</time>
      </trkpt>
      <trkpt lat="45.7881" lon="4.98926">
        <ele>237.19492</ele>
        <time>2023-08-27T14:15:09.000Z</time>
      </trkpt>
      <trkpt lat="45.78814" lon="4.98926">
        <ele>237.23323</ele>
        <time>2023-08-27T14:15:10.000Z</time>
      </trkpt>
      <trkpt lat="45.78819" lon="4.98926">
        <ele>237.28348</ele>
        <time>2023-08-27T14:15:11.000Z</time>
      </trkpt>
      <trkpt lat="45.78824" lon="4.98926">
        <ele>237.28372</ele>
        <time>2023-08-27T14:15:12.000Z</time>
      </trkpt>
      <trkpt lat="45.78829" lon="4.98926">
        <ele>237.21143</ele>
        <time>2023-08-27T14:15:13.000Z</time>
      </trkpt>
      <trkpt lat="45.78834" lon="4.98925">
        <ele>237.09167</ele>
        <time>2023-08-27T14:15:14.000Z</time>
      </trkpt>
      <trkpt lat="45.78839" lon="4.98923">
        <ele>236.92224</ele>
        <time>2023-08-27T14:15:15.000Z</time>
      </trkpt>
      <trkpt lat="45.78845" lon="4.98921">
        <ele>236.71216</ele>
        <time>2023-08-27T14:15:16.000Z</time>
      </trkpt>
      <trkpt lat="45.7885" lon="4.98921">
        <ele>236.39168</ele>
        <time>2023-08-27T14:15:17.000Z</time>
      </trkpt>
      <trkpt lat="45.78857" lon="4.98919">
        <ele>236.10538</ele>
        <time>2023-08-27T14:15:18.000Z</time>
      </trkpt>
      <trkpt lat="45.78863" lon="4.98917">
        <ele>235.80791</ele>
        <time>2023-08-27T14:15:19.000Z</time>
      </trkpt>
      <trkpt lat="45.78868" lon="4.98916">
        <ele>235.54639</ele>
        <time>2023-08-27T14:15:20.000Z</time>
      </trkpt>
      <trkpt lat="45.78872" lon="4.98915">
        <ele>235.21176</ele>
        <time>2023-08-27T14:15:21.000Z</time>
      </trkpt>
      <trkpt lat="45.78876" lon="4.98915">
        <ele>234.88831</ele>
        <time>2023-08-27T14:15:22.000Z</time>
      </trkpt>
      <trkpt lat="45.7888" lon="4.98916">
        <ele>234.59045</ele>
        <time>2023-08-27T14:15:23.000Z</time>
      </trkpt>
      <trkpt lat="45.78883" lon="4.98917">
        <ele>234.30582</ele>
        <time>2023-08-27T14:15:24.000Z</time>
      </trkpt>
      <trkpt lat="45.78887" lon="4.98918">
        <ele>234.02661</ele>
        <time>2023-08-27T14:15:25.000Z</time>
      </trkpt>
      <trkpt lat="45.7889" lon="4.98918">
        <ele>233.79919</ele>
        <time>2023-08-27T14:15:26.000Z</time>
      </trkpt>
      <trkpt lat="45.78894" lon="4.98918">
        <ele>233.65298</ele>
        <time>2023-08-27T14:15:27.000Z</time>
      </trkpt>
      <trkpt lat="45.78898" lon="4.98917">
        <ele>233.53018</ele>
        <time>2023-08-27T14:15:28.000Z</time>
      </trkpt>
      <trkpt lat="45.78901" lon="4.98918">
        <ele>233.43611</ele>
        <time>2023-08-27T14:15:29.000Z</time>
      </trkpt>
      <trkpt lat="45.78905" lon="4.98918">
        <ele>233.33928</ele>
        <time>2023-08-27T14:15:30.000Z</time>
      </trkpt>
      <trkpt lat="45.78908" lon="4.98919">
        <ele>233.24844</ele>
        <time>2023-08-27T14:15:31.000Z</time>
      </trkpt>
      <trkpt lat="45.78912" lon="4.9892">
        <ele>233.14104</ele>
        <time>2023-08-27T14:15:32.000Z</time>
      </trkpt>
      <trkpt lat="45.78915" lon="4.98921">
        <ele>233.07556</ele>
        <time>2023-08-27T14:15:33.000Z</time>
      </trkpt>
      <trkpt lat="45.78919" lon="4.98922">
        <ele>233.03857</ele>
        <time>2023-08-27T14:15:34.000Z</time>
      </trkpt>
      <trkpt lat="45.78922" lon="4.98923">
        <ele>233.0488</ele>
        <time>2023-08-27T14:15:35.000Z</time>
      </trkpt>
      <trkpt lat="45.78925" lon="4.98924">
        <ele>233.08138</ele>
        <time>2023-08-27T14:15:36.000Z</time>
      </trkpt>
      <trkpt lat="45.78928" lon="4.98926">
        <ele>233.11836</ele>
        <time>2023-08-27T14:15:37.000Z</time>
      </trkpt>
      <trkpt lat="45.78931" lon="4.98926">
        <ele>233.16667</ele>
        <time>2023-08-27T14:15:38.000Z</time>
      </trkpt>
      <trkpt lat="45.78934" lon="4.98927">
        <ele>233.24313</ele>
        <time>2023-08-27T14:15:39.000Z</time>
      </trkpt>
      <trkpt lat="45.78938" lon="4.98927">
        <ele>233.25992</ele>
        <time>2023-08-27T14:15:40.000Z</time>
      </trkpt>
      <trkpt lat="45.78941" lon="4.98928">
        <ele>233.36096</ele>
        <time>2023-08-27T14:15:41.000Z</time>
      </trkpt>
      <trkpt lat="45.78944" lon="4.98929">
        <ele>233.47214</ele>
        <time>2023-08-27T14:15:42.000Z</time>
      </trkpt>
      <trkpt lat="45.78947" lon="4.98931">
        <ele>233.59868</ele>
        <time>2023-08-27T14:15:43.000Z</time>
      </trkpt>
      <trkpt lat="45.7895" lon="4.98933">
        <ele>233.68108</ele>
        <time>2023-08-27T14:15:44.000Z</time>
      </trkpt>
      <trkpt lat="45.78953" lon="4.98935">
        <ele>233.74519</ele>
        <time>2023-08-27T14:15:45.000Z</time>
      </trkpt>
      <trkpt lat="45.78956" lon="4.98936">
        <ele>233.79288</ele>
        <time>2023-08-27T14:15:46.000Z</time>
      </trkpt>
      <trkpt lat="45.7896" lon="4.98938">
        <ele>233.84091</ele>
        <time>2023-08-27T14:15:47.000Z</time>
      </trkpt>
      <trkpt lat="45.78963" lon="4.98939">
        <ele>233.92339</ele>
        <time>2023-08-27T14:15:48.000Z</time>
      </trkpt>
      <trkpt lat="45.78966" lon="4.9894">
        <ele>233.97395</ele>
        <time>2023-08-27T14:15:49.000Z</time>
      </trkpt>
      <trkpt lat="45.7897" lon="4.98941">
        <ele>233.97388</ele>
        <time>2023-08-27T14:15:50.000Z</time>
      </trkpt>
      <trkpt lat="45.78973" lon="4.98941">
        <ele>233.94511</ele>
        <time>2023-08-27T14:15:51.000Z</time>
      </trkpt>
      <trkpt lat="45.78977" lon="4.9894">
        <ele>233.97375</ele>
        <time>2023-08-27T14:15:52.000Z</time>
      </trkpt>
      <trkpt lat="45.78981" lon="4.9894">
        <ele>233.98441</ele>
        <time>2023-08-27T14:15:53.000Z</time>
      </trkpt>
      <trkpt lat="45.78985" lon="4.98941">
        <ele>233.97266</ele>
        <time>2023-08-27T14:15:54.000Z</time>
      </trkpt>
      <trkpt lat="45.78989" lon="4.98941">
        <ele>233.95694</ele>
        <time>2023-08-27T14:15:55.000Z</time>
      </trkpt>
      <trkpt lat="45.78993" lon="4.98942">
        <ele>233.94653</ele>
        <time>2023-08-27T14:15:56.000Z</time>
      </trkpt>
      <trkpt lat="45.78997" lon="4.98942">
        <ele>233.96899</ele>
        <time>2023-08-27T14:15:57.000Z</time>
      </trkpt>
      <trkpt lat="45.79001" lon="4.98942">
        <ele>233.97141</ele>
        <time>2023-08-27T14:15:58.000Z</time>
      </trkpt>
      <trkpt lat="45.79006" lon="4.98942">
        <ele>233.94658</ele>
        <time>2023-08-27T14:15:59.000Z</time>
      </trkpt>
      <trkpt lat="45.7901" lon="4.98942">
        <ele>233.93814</ele>
        <time>2023-08-27T14:16:00.000Z</time>
      </trkpt>
      <trkpt lat="45.79013" lon="4.98944">
        <ele>233.87471</ele>
        <time>2023-08-27T14:16:01.000Z</time>
      </trkpt>
      <trkpt lat="45.79016" lon="4.98945">
        <ele>233.78154</ele>
        <time>2023-08-27T14:16:02.000Z</time>
      </trkpt>
      <trkpt lat="45.7902" lon="4.98947">
        <ele>233.67648</ele>
        <time>2023-08-27T14:16:03.000Z</time>
      </trkpt>
      <trkpt lat="45.79024" lon="4.98948">
        <ele>233.64258</ele>
        <time>2023-08-27T14:16:04.000Z</time>
      </trkpt>
      <trkpt lat="45.79027" lon="4.98949">
        <ele>233.60928</ele>
        <time>2023-08-27T14:16:05.000Z</time>
      </trkpt>
      <trkpt lat="45.79031" lon="4.9895">
        <ele>233.5883</ele>
        <time>2023-08-27T14:16:06.000Z</time>
      </trkpt>
      <trkpt lat="45.79035" lon="4.98951">
        <ele>233.58008</ele>
        <time>2023-08-27T14:16:07.000Z</time>
      </trkpt>
      <trkpt lat="45.79038" lon="4.98952">
        <ele>233.55745</ele>
        <time>2023-08-27T14:16:08.000Z</time>
      </trkpt>
      <trkpt lat="45.79042" lon="4.98953">
        <ele>233.54533</ele>
        <time>2023-08-27T14:16:09.000Z</time>
      </trkpt>
      <trkpt lat="45.79045" lon="4.98954">
        <ele>233.57236</ele>
        <time>2023-08-27T14:16:10.000Z</time>
      </trkpt>
      <trkpt lat="45.79049" lon="4.98956">
        <ele>233.6387</ele>
        <time>2023-08-27T14:16:11.000Z</time>
      </trkpt>
      <trkpt lat="45.79052" lon="4.98958">
        <ele>233.6667</ele>
        <time>2023-08-27T14:16:12.000Z</time>
      </trkpt>
      <trkpt lat="45.79055" lon="4.98959">
        <ele>233.6812</ele>
        <time>2023-08-27T14:16:13.000Z</time>
      </trkpt>
      <trkpt lat="45.79058" lon="4.98961">
        <ele>233.73466</ele>
        <time>2023-08-27T14:16:14.000Z</time>
      </trkpt>
      <trkpt lat="45.79061" lon="4.98962">
        <ele>233.79195</ele>
        <time>2023-08-27T14:16:15.000Z</time>
      </trkpt>
      <trkpt lat="45.79064" lon="4.98964">
        <ele>233.74834</ele>
        <time>2023-08-27T14:16:16.000Z</time>
      </trkpt>
      <trkpt lat="45.79068" lon="4.98965">
        <ele>233.71558</ele>
        <time>2023-08-27T14:16:17.000Z</time>
      </trkpt>
      <trkpt lat="45.79071" lon="4.98966">
        <ele>233.69026</ele>
        <time>2023-08-27T14:16:18.000Z</time>
      </trkpt>
      <trkpt lat="45.79075" lon="4.98968">
        <ele>233.7789</ele>
        <time>2023-08-27T14:16:19.000Z</time>
      </trkpt>
      <trkpt lat="45.79078" lon="4.98969">
        <ele>233.85739</ele>
        <time>2023-08-27T14:16:20.000Z</time>
      </trkpt>
      <trkpt lat="45.79081" lon="4.98971">
        <ele>233.91394</ele>
        <time>2023-08-27T14:16:21.000Z</time>
      </trkpt>
      <trkpt lat="45.79084" lon="4.98972">
        <ele>233.97957</ele>
        <time>2023-08-27T14:16:22.000Z</time>
      </trkpt>
      <trkpt lat="45.79088" lon="4.98973">
        <ele>233.91972</ele>
        <time>2023-08-27T14:16:23.000Z</time>
      </trkpt>
      <trkpt lat="45.79091" lon="4.98975">
        <ele>233.85991</ele>
        <time>2023-08-27T14:16:24.000Z</time>
      </trkpt>
      <trkpt lat="45.79094" lon="4.98976">
        <ele>233.80582</ele>
        <time>2023-08-27T14:16:25.000Z</time>
      </trkpt>
      <trkpt lat="45.79098" lon="4.98978">
        <ele>233.72769</ele>
        <time>2023-08-27T14:16:26.000Z</time>
      </trkpt>
      <trkpt lat="45.79101" lon="4.98979">
        <ele>233.6467</ele>
        <time>2023-08-27T14:16:27.000Z</time>
      </trkpt>
      <trkpt lat="45.79104" lon="4.9898">
        <ele>233.54224</ele>
        <time>2023-08-27T14:16:28.000Z</time>
      </trkpt>
      <trkpt lat="45.79107" lon="4.98981">
        <ele>233.43013</ele>
        <time>2023-08-27T14:16:29.000Z</time>
      </trkpt>
      <trkpt lat="45.7911" lon="4.98982">
        <ele>233.30875</ele>
        <time>2023-08-27T14:16:30.000Z</time>
      </trkpt>
      <trkpt lat="45.79113" lon="4.98983">
        <ele>233.17422</ele>
        <time>2023-08-27T14:16:31.000Z</time>
      </trkpt>
      <trkpt lat="45.79116" lon="4.98984">
        <ele>233.07571</ele>
        <time>2023-08-27T14:16:32.000Z</time>
      </trkpt>
      <trkpt lat="45.79119" lon="4.98985">
        <ele>232.94925</ele>
        <time>2023-08-27T14:16:33.000Z</time>
      </trkpt>
      <trkpt lat="45.79122" lon="4.98986">
        <ele>232.80225</ele>
        <time>2023-08-27T14:16:34.000Z</time>
      </trkpt>
      <trkpt lat="45.79125" lon="4.98987">
        <ele>232.62753</ele>
        <time>2023-08-27T14:16:35.000Z</time>
      </trkpt>
      <trkpt lat="45.79127" lon="4.98988">
        <ele>232.5323</ele>
        <time>2023-08-27T14:16:36.000Z</time>
      </trkpt>
      <trkpt lat="45.7913" lon="4.98989">
        <ele>232.45647</ele>
        <time>2023-08-27T14:16:37.000Z</time>
      </trkpt>
      <trkpt lat="45.79132" lon="4.98989">
        <ele>232.40218</ele>
        <time>2023-08-27T14:16:38.000Z</time>
      </trkpt>
      <trkpt lat="45.79135" lon="4.98991">
        <ele>232.22905</ele>
        <time>2023-08-27T14:16:39.000Z</time>
      </trkpt>
      <trkpt lat="45.79137" lon="4.98992">
        <ele>232.05835</ele>
        <time>2023-08-27T14:16:40.000Z</time>
      </trkpt>
      <trkpt lat="45.7914" lon="4.98993">
        <ele>231.90665</ele>
        <time>2023-08-27T14:16:41.000Z</time>
      </trkpt>
      <trkpt lat="45.79142" lon="4.98994">
        <ele>231.76419</ele>
        <time>2023-08-27T14:16:42.000Z</time>
      </trkpt>
      <trkpt lat="45.79145" lon="4.98994">
        <ele>231.73746</ele>
        <time>2023-08-27T14:16:43.000Z</time>
      </trkpt>
      <trkpt lat="45.79148" lon="4.98995">
        <ele>231.70512</ele>
        <time>2023-08-27T14:16:44.000Z</time>
      </trkpt>
      <trkpt lat="45.79151" lon="4.98995">
        <ele>231.67256</ele>
        <time>2023-08-27T14:16:45.000Z</time>
      </trkpt>
      <trkpt lat="45.79153" lon="4.98996">
        <ele>231.67053</ele>
        <time>2023-08-27T14:16:46.000Z</time>
      </trkpt>
      <trkpt lat="45.79156" lon="4.98997">
        <ele>231.66817</ele>
        <time>2023-08-27T14:16:47.000Z</time>
      </trkpt>
      <trkpt lat="45.79159" lon="4.98998">
        <ele>231.67712</ele>
        <time>2023-08-27T14:16:48.000Z</time>
      </trkpt>
      <trkpt lat="45.79162" lon="4.98999">
        <ele>231.69849</ele>
        <time>2023-08-27T14:16:49.000Z</time>
      </trkpt>
      <trkpt lat="45.79164" lon="4.99">
        <ele>231.69492</ele>
        <time>2023-08-27T14:16:50.000Z</time>
      </trkpt>
      <trkpt lat="45.79167" lon="4.99002">
        <ele>231.68697</ele>
        <time>2023-08-27T14:16:51.000Z</time>
      </trkpt>
      <trkpt lat="45.7917" lon="4.99003">
        <ele>231.69084</ele>
        <time>2023-08-27T14:16:52.000Z</time>
      </trkpt>
      <trkpt lat="45.79172" lon="4.99004">
        <ele>231.71262</ele>
        <time>2023-08-27T14:16:53.000Z</time>
      </trkpt>
      <trkpt lat="45.79175" lon="4.99004">
        <ele>231.76241</ele>
        <time>2023-08-27T14:16:54.000Z</time>
      </trkpt>
      <trkpt lat="45.79178" lon="4.99006">
        <ele>231.85957</ele>
        <time>2023-08-27T14:16:55.000Z</time>
      </trkpt>
      <trkpt lat="45.79181" lon="4.99007">
        <ele>231.93669</ele>
        <time>2023-08-27T14:16:56.000Z</time>
      </trkpt>
      <trkpt lat="45.79183" lon="4.9901">
        <ele>231.92436</ele>
        <time>2023-08-27T14:16:57.000Z</time>
      </trkpt>
      <trkpt lat="45.79185" lon="4.99014">
        <ele>231.89397</ele>
        <time>2023-08-27T14:16:58.000Z</time>
      </trkpt>
      <trkpt lat="45.79187" lon="4.99017">
        <ele>231.88655</ele>
        <time>2023-08-27T14:16:59.000Z</time>
      </trkpt>
      <trkpt lat="45.79188" lon="4.9902">
        <ele>231.89424</ele>
        <time>2023-08-27T14:17:00.000Z</time>
      </trkpt>
      <trkpt lat="45.79189" lon="4.99023">
        <ele>231.90195</ele>
        <time>2023-08-27T14:17:01.000Z</time>
      </trkpt>
      <trkpt lat="45.79191" lon="4.99025">
        <ele>231.90396</ele>
        <time>2023-08-27T14:17:02.000Z</time>
      </trkpt>
      <trkpt lat="45.79192" lon="4.99027">
        <ele>231.90918</ele>
        <time>2023-08-27T14:17:03.000Z</time>
      </trkpt>
      <trkpt lat="45.79194" lon="4.99029">
        <ele>231.91032</ele>
        <time>2023-08-27T14:17:04.000Z</time>
      </trkpt>
      <trkpt lat="45.79196" lon="4.99031">
        <ele>231.89091</ele>
        <time>2023-08-27T14:17:05.000Z</time>
      </trkpt>
      <trkpt lat="45.79198" lon="4.99034">
        <ele>231.83968</ele>
        <time>2023-08-27T14:17:06.000Z</time>
      </trkpt>
      <trkpt lat="45.792" lon="4.99036">
        <ele>231.81992</ele>
        <time>2023-08-27T14:17:07.000Z</time>
      </trkpt>
      <trkpt lat="45.79201" lon="4.99038">
        <ele>231.80338</ele>
        <time>2023-08-27T14:17:08.000Z</time>
      </trkpt>
      <trkpt lat="45.79203" lon="4.99039">
        <ele>231.78836</ele>
        <time>2023-08-27T14:17:09.000Z</time>
      </trkpt>
      <trkpt lat="45.79205" lon="4.99042">
        <ele>231.79524</ele>
        <time>2023-08-27T14:17:10.000Z</time>
      </trkpt>
      <trkpt lat="45.79207" lon="4.99044">
        <ele>231.82285</ele>
        <time>2023-08-27T14:17:11.000Z</time>
      </trkpt>
      <trkpt lat="45.79209" lon="4.99047">
        <ele>231.82584</ele>
        <time>2023-08-27T14:17:12.000Z</time>
      </trkpt>
      <trkpt lat="45.79212" lon="4.9905">
        <ele>231.86633</ele>
        <time>2023-08-27T14:17:13.000Z</time>
      </trkpt>
      <trkpt lat="45.79215" lon="4.99054">
        <ele>231.92509</ele>
        <time>2023-08-27T14:17:14.000Z</time>
      </trkpt>
      <trkpt lat="45.79217" lon="4.99057">
        <ele>231.97456</ele>
        <time>2023-08-27T14:17:15.000Z</time>
      </trkpt>
      <trkpt lat="45.79219" lon="4.99061">
        <ele>232.04984</ele>
        <time>2023-08-27T14:17:16.000Z</time>
      </trkpt>
      <trkpt lat="45.79221" lon="4.99065">
        <ele>232.18521</ele>
        <time>2023-08-27T14:17:17.000Z</time>
      </trkpt>
      <trkpt lat="45.79222" lon="4.99068">
        <ele>232.31802</ele>
        <time>2023-08-27T14:17:18.000Z</time>
      </trkpt>
      <trkpt lat="45.79224" lon="4.99071">
        <ele>232.47372</ele>
        <time>2023-08-27T14:17:19.000Z</time>
      </trkpt>
      <trkpt lat="45.79226" lon="4.99074">
        <ele>232.62329</ele>
        <time>2023-08-27T14:17:20.000Z</time>
      </trkpt>
      <trkpt lat="45.79229" lon="4.99077">
        <ele>232.78122</ele>
        <time>2023-08-27T14:17:21.000Z</time>
      </trkpt>
      <trkpt lat="45.79232" lon="4.9908">
        <ele>232.90254</ele>
        <time>2023-08-27T14:17:22.000Z</time>
      </trkpt>
      <trkpt lat="45.79234" lon="4.99083">
        <ele>233.01176</ele>
        <time>2023-08-27T14:17:23.000Z</time>
      </trkpt>
      <trkpt lat="45.79237" lon="4.99086">
        <ele>233.08284</ele>
        <time>2023-08-27T14:17:24.000Z</time>
      </trkpt>
      <trkpt lat="45.79241" lon="4.99089">
        <ele>233.17754</ele>
        <time>2023-08-27T14:17:25.000Z</time>
      </trkpt>
      <trkpt lat="45.79244" lon="4.99092">
        <ele>233.25162</ele>
        <time>2023-08-27T14:17:26.000Z</time>
      </trkpt>
      <trkpt lat="45.79248" lon="4.99095">
        <ele>233.28833</ele>
        <time>2023-08-27T14:17:27.000Z</time>
      </trkpt>
      <trkpt lat="45.79252" lon="4.99097">
        <ele>233.32173</ele>
        <time>2023-08-27T14:17:28.000Z</time>
      </trkpt>
      <trkpt lat="45.79257" lon="4.99099">
        <ele>233.32962</ele>
        <time>2023-08-27T14:17:29.000Z</time>
      </trkpt>
      <trkpt lat="45.7926" lon="4.99102">
        <ele>233.30856</ele>
        <time>2023-08-27T14:17:30.000Z</time>
      </trkpt>
      <trkpt lat="45.79264" lon="4.99105">
        <ele>233.24191</ele>
        <time>2023-08-27T14:17:31.000Z</time>
      </trkpt>
      <trkpt lat="45.79268" lon="4.99107">
        <ele>233.17392</ele>
        <time>2023-08-27T14:17:32.000Z</time>
      </trkpt>
      <trkpt lat="45.79272" lon="4.99109">
        <ele>233.04878</ele>
        <time>2023-08-27T14:17:33.000Z</time>
      </trkpt>
      <trkpt lat="45.79275" lon="4.99111">
        <ele>232.87122</ele>
        <time>2023-08-27T14:17:34.000Z</time>
      </trkpt>
      <trkpt lat="45.79279" lon="4.99113">
        <ele>232.67563</ele>
        <time>2023-08-27T14:17:35.000Z</time>
      </trkpt>
      <trkpt lat="45.79284" lon="4.99115">
        <ele>232.50327</ele>
        <time>2023-08-27T14:17:36.000Z</time>
      </trkpt>
      <trkpt lat="45.79287" lon="4.99117">
        <ele>232.3353</ele>
        <time>2023-08-27T14:17:37.000Z</time>
      </trkpt>
      <trkpt lat="45.79291" lon="4.99119">
        <ele>232.16772</ele>
        <time>2023-08-27T14:17:38.000Z</time>
      </trkpt>
      <trkpt lat="45.79295" lon="4.99121">
        <ele>231.95683</ele>
        <time>2023-08-27T14:17:39.000Z</time>
      </trkpt>
      <trkpt lat="45.79299" lon="4.99123">
        <ele>231.75383</ele>
        <time>2023-08-27T14:17:40.000Z</time>
      </trkpt>
      <trkpt lat="45.79302" lon="4.99124">
        <ele>231.55545</ele>
        <time>2023-08-27T14:17:41.000Z</time>
      </trkpt>
      <trkpt lat="45.79306" lon="4.99126">
        <ele>231.38443</ele>
        <time>2023-08-27T14:17:42.000Z</time>
      </trkpt>
      <trkpt lat="45.79309" lon="4.99128">
        <ele>231.20943</ele>
        <time>2023-08-27T14:17:43.000Z</time>
      </trkpt>
      <trkpt lat="45.79313" lon="4.99129">
        <ele>231.05595</ele>
        <time>2023-08-27T14:17:44.000Z</time>
      </trkpt>
      <trkpt lat="45.79317" lon="4.9913">
        <ele>230.91458</ele>
        <time>2023-08-27T14:17:45.000Z</time>
      </trkpt>
      <trkpt lat="45.7932" lon="4.99131">
        <ele>230.81241</ele>
        <time>2023-08-27T14:17:46.000Z</time>
      </trkpt>
      <trkpt lat="45.79324" lon="4.99132">
        <ele>230.7374</ele>
        <time>2023-08-27T14:17:47.000Z</time>
      </trkpt>
      <trkpt lat="45.79328" lon="4.99132">
        <ele>230.63969</ele>
        <time>2023-08-27T14:17:48.000Z</time>
      </trkpt>
      <trkpt lat="45.79331" lon="4.99132">
        <ele>230.58847</ele>
        <time>2023-08-27T14:17:49.000Z</time>
      </trkpt>
      <trkpt lat="45.79334" lon="4.99132">
        <ele>230.55789</ele>
        <time>2023-08-27T14:17:50.000Z</time>
      </trkpt>
      <trkpt lat="45.79337" lon="4.99132">
        <ele>230.54497</ele>
        <time>2023-08-27T14:17:51.000Z</time>
      </trkpt>
      <trkpt lat="45.79341" lon="4.99133">
        <ele>230.54817</ele>
        <time>2023-08-27T14:17:52.000Z</time>
      </trkpt>
      <trkpt lat="45.79344" lon="4.99135">
        <ele>230.60599</ele>
        <time>2023-08-27T14:17:53.000Z</time>
      </trkpt>
      <trkpt lat="45.79347" lon="4.99136">
        <ele>230.67281</ele>
        <time>2023-08-27T14:17:54.000Z</time>
      </trkpt>
      <trkpt lat="45.79351" lon="4.99137">
        <ele>230.72672</ele>
        <time>2023-08-27T14:17:55.000Z</time>
      </trkpt>
      <trkpt lat="45.79355" lon="4.99137">
        <ele>230.75851</ele>
        <time>2023-08-27T14:17:56.000Z</time>
      </trkpt>
      <trkpt lat="45.79358" lon="4.99137">
        <ele>230.78609</ele>
        <time>2023-08-27T14:17:57.000Z</time>
      </trkpt>
      <trkpt lat="45.79362" lon="4.99138">
        <ele>230.75589</ele>
        <time>2023-08-27T14:17:58.000Z</time>
      </trkpt>
      <trkpt lat="45.79365" lon="4.99138">
        <ele>230.71138</ele>
        <time>2023-08-27T14:17:59.000Z</time>
      </trkpt>
      <trkpt lat="45.79368" lon="4.99138">
        <ele>230.65909</ele>
        <time>2023-08-27T14:18:00.000Z</time>
      </trkpt>
      <trkpt lat="45.7937" lon="4.9914">
        <ele>230.61142</ele>
        <time>2023-08-27T14:18:01.000Z</time>
      </trkpt>
      <trkpt lat="45.79372" lon="4.99141">
        <ele>230.56596</ele>
        <time>2023-08-27T14:18:02.000Z</time>
      </trkpt>
      <trkpt lat="45.79375" lon="4.99145">
        <ele>230.5336</ele>
        <time>2023-08-27T14:18:04.000Z</time>
      </trkpt>
      <trkpt lat="45.79377" lon="4.99147">
        <ele>230.56673</ele>
        <time>2023-08-27T14:18:05.000Z</time>
      </trkpt>
      <trkpt lat="45.79379" lon="4.99147">
        <ele>230.60132</ele>
        <time>2023-08-27T14:18:06.000Z</time>
      </trkpt>
      <trkpt lat="45.79382" lon="4.99147">
        <ele>230.5887</ele>
        <time>2023-08-27T14:18:07.000Z</time>
      </trkpt>
      <trkpt lat="45.79385" lon="4.99146">
        <ele>230.54068</ele>
        <time>2023-08-27T14:18:08.000Z</time>
      </trkpt>
      <trkpt lat="45.79388" lon="4.99145">
        <ele>230.48015</ele>
        <time>2023-08-27T14:18:09.000Z</time>
      </trkpt>
      <trkpt lat="45.79391" lon="4.99146">
        <ele>230.3541</ele>
        <time>2023-08-27T14:18:10.000Z</time>
      </trkpt>
      <trkpt lat="45.79394" lon="4.99147">
        <ele>230.23039</ele>
        <time>2023-08-27T14:18:11.000Z</time>
      </trkpt>
      <trkpt lat="45.79397" lon="4.99149">
        <ele>230.11409</ele>
        <time>2023-08-27T14:18:12.000Z</time>
      </trkpt>
      <trkpt lat="45.794" lon="4.9915">
        <ele>230.00162</ele>
        <time>2023-08-27T14:18:13.000Z</time>
      </trkpt>
      <trkpt lat="45.79404" lon="4.99152">
        <ele>229.85571</ele>
        <time>2023-08-27T14:18:14.000Z</time>
      </trkpt>
      <trkpt lat="45.79407" lon="4.99154">
        <ele>229.78845</ele>
        <time>2023-08-27T14:18:15.000Z</time>
      </trkpt>
      <trkpt lat="45.7941" lon="4.99155">
        <ele>229.78386</ele>
        <time>2023-08-27T14:18:16.000Z</time>
      </trkpt>
      <trkpt lat="45.79414" lon="4.99156">
        <ele>229.81641</ele>
        <time>2023-08-27T14:18:17.000Z</time>
      </trkpt>
      <trkpt lat="45.79417" lon="4.99156">
        <ele>229.73959</ele>
        <time>2023-08-27T14:18:18.000Z</time>
      </trkpt>
      <trkpt lat="45.79421" lon="4.99155">
        <ele>229.76022</ele>
        <time>2023-08-27T14:18:19.000Z</time>
      </trkpt>
      <trkpt lat="45.79424" lon="4.99154">
        <ele>229.79541</ele>
        <time>2023-08-27T14:18:20.000Z</time>
      </trkpt>
      <trkpt lat="45.79428" lon="4.99152">
        <ele>229.88118</ele>
        <time>2023-08-27T14:18:21.000Z</time>
      </trkpt>
      <trkpt lat="45.79431" lon="4.99151">
        <ele>229.93887</ele>
        <time>2023-08-27T14:18:22.000Z</time>
      </trkpt>
      <trkpt lat="45.79435" lon="4.99149">
        <ele>230.00874</ele>
        <time>2023-08-27T14:18:23.000Z</time>
      </trkpt>
      <trkpt lat="45.79439" lon="4.99147">
        <ele>230.01945</ele>
        <time>2023-08-27T14:18:24.000Z</time>
      </trkpt>
      <trkpt lat="45.79442" lon="4.99146">
        <ele>229.98621</ele>
        <time>2023-08-27T14:18:25.000Z</time>
      </trkpt>
      <trkpt lat="45.79445" lon="4.99145">
        <ele>229.9718</ele>
        <time>2023-08-27T14:18:26.000Z</time>
      </trkpt>
      <trkpt lat="45.79448" lon="4.99146">
        <ele>229.98837</ele>
        <time>2023-08-27T14:18:27.000Z</time>
      </trkpt>
      <trkpt lat="45.79451" lon="4.99147">
        <ele>229.97897</ele>
        <time>2023-08-27T14:18:28.000Z</time>
      </trkpt>
      <trkpt lat="45.79453" lon="4.99149">
        <ele>229.96797</ele>
        <time>2023-08-27T14:18:29.000Z</time>
      </trkpt>
      <trkpt lat="45.79455" lon="4.99152">
        <ele>230.01358</ele>
        <time>2023-08-27T14:18:30.000Z</time>
      </trkpt>
      <trkpt lat="45.79458" lon="4.99156">
        <ele>230.01692</ele>
        <time>2023-08-27T14:18:31.000Z</time>
      </trkpt>
      <trkpt lat="45.7946" lon="4.9916">
        <ele>230.01123</ele>
        <time>2023-08-27T14:18:32.000Z</time>
      </trkpt>
      <trkpt lat="45.79463" lon="4.99164">
        <ele>230.01497</ele>
        <time>2023-08-27T14:18:33.000Z</time>
      </trkpt>
      <trkpt lat="45.79464" lon="4.99169">
        <ele>230.035</ele>
        <time>2023-08-27T14:18:34.000Z</time>
      </trkpt>
      <trkpt lat="45.79464" lon="4.99174">
        <ele>229.9382</ele>
        <time>2023-08-27T14:18:35.000Z</time>
      </trkpt>
      <trkpt lat="45.79464" lon="4.9918">
        <ele>229.84988</ele>
        <time>2023-08-27T14:18:36.000Z</time>
      </trkpt>
      <trkpt lat="45.79463" lon="4.99185">
        <ele>229.72324</ele>
        <time>2023-08-27T14:18:37.000Z</time>
      </trkpt>
      <trkpt lat="45.79462" lon="4.9919">
        <ele>229.72757</ele>
        <time>2023-08-27T14:18:38.000Z</time>
      </trkpt>
      <trkpt lat="45.79461" lon="4.99199">
        <ele>229.70679</ele>
        <time>2023-08-27T14:18:39.000Z</time>
      </trkpt>
      <trkpt lat="45.79461" lon="4.99203">
        <ele>229.62712</ele>
        <time>2023-08-27T14:18:40.000Z</time>
      </trkpt>
      <trkpt lat="45.7946" lon="4.99209">
        <ele>229.50774</ele>
        <time>2023-08-27T14:18:41.000Z</time>
      </trkpt>
      <trkpt lat="45.79459" lon="4.99216">
        <ele>229.41492</ele>
        <time>2023-08-27T14:18:42.000Z</time>
      </trkpt>
      <trkpt lat="45.79458" lon="4.99222">
        <ele>229.26889</ele>
        <time>2023-08-27T14:18:43.000Z</time>
      </trkpt>
      <trkpt lat="45.79458" lon="4.99228">
        <ele>229.19638</ele>
        <time>2023-08-27T14:18:44.000Z</time>
      </trkpt>
      <trkpt lat="45.79456" lon="4.99234">
        <ele>229.13492</ele>
        <time>2023-08-27T14:18:45.000Z</time>
      </trkpt>
      <trkpt lat="45.79455" lon="4.9924">
        <ele>229.03203</ele>
        <time>2023-08-27T14:18:46.000Z</time>
      </trkpt>
      <trkpt lat="45.79454" lon="4.99248">
        <ele>228.90547</ele>
        <time>2023-08-27T14:18:47.000Z</time>
      </trkpt>
      <trkpt lat="45.79453" lon="4.99253">
        <ele>228.81119</ele>
        <time>2023-08-27T14:18:48.000Z</time>
      </trkpt>
      <trkpt lat="45.79453" lon="4.9926">
        <ele>228.75345</ele>
        <time>2023-08-27T14:18:49.000Z</time>
      </trkpt>
      <trkpt lat="45.79452" lon="4.99267">
        <ele>228.65544</ele>
        <time>2023-08-27T14:18:50.000Z</time>
      </trkpt>
      <trkpt lat="45.79452" lon="4.99275">
        <ele>228.69771</ele>
        <time>2023-08-27T14:18:51.000Z</time>
      </trkpt>
      <trkpt lat="45.79452" lon="4.9928">
        <ele>228.74683</ele>
        <time>2023-08-27T14:18:52.000Z</time>
      </trkpt>
      <trkpt lat="45.79451" lon="4.99286">
        <ele>228.80484</ele>
        <time>2023-08-27T14:18:53.000Z</time>
      </trkpt>
      <trkpt lat="45.79451" lon="4.99292">
        <ele>228.87112</ele>
        <time>2023-08-27T14:18:54.000Z</time>
      </trkpt>
      <trkpt lat="45.7945" lon="4.99298">
        <ele>229.00815</ele>
        <time>2023-08-27T14:18:55.000Z</time>
      </trkpt>
      <trkpt lat="45.79448" lon="4.99304">
        <ele>229.05664</ele>
        <time>2023-08-27T14:18:56.000Z</time>
      </trkpt>
      <trkpt lat="45.79446" lon="4.99309">
        <ele>229.11841</ele>
        <time>2023-08-27T14:18:57.000Z</time>
      </trkpt>
      <trkpt lat="45.79445" lon="4.99315">
        <ele>229.15279</ele>
        <time>2023-08-27T14:18:58.000Z</time>
      </trkpt>
      <trkpt lat="45.79443" lon="4.99321">
        <ele>229.18111</ele>
        <time>2023-08-27T14:18:59.000Z</time>
      </trkpt>
      <trkpt lat="45.79442" lon="4.99328">
        <ele>229.28719</ele>
        <time>2023-08-27T14:19:00.000Z</time>
      </trkpt>
      <trkpt lat="45.79441" lon="4.99332">
        <ele>229.36052</ele>
        <time>2023-08-27T14:19:01.000Z</time>
      </trkpt>
      <trkpt lat="45.7944" lon="4.99337">
        <ele>229.42307</ele>
        <time>2023-08-27T14:19:02.000Z</time>
      </trkpt>
      <trkpt lat="45.79439" lon="4.99342">
        <ele>229.53323</ele>
        <time>2023-08-27T14:19:03.000Z</time>
      </trkpt>
      <trkpt lat="45.79438" lon="4.99347">
        <ele>229.64067</ele>
        <time>2023-08-27T14:19:04.000Z</time>
      </trkpt>
      <trkpt lat="45.79437" lon="4.99353">
        <ele>229.75485</ele>
        <time>2023-08-27T14:19:05.000Z</time>
      </trkpt>
      <trkpt lat="45.79436" lon="4.99358">
        <ele>229.95699</ele>
        <time>2023-08-27T14:19:06.000Z</time>
      </trkpt>
      <trkpt lat="45.79434" lon="4.99364">
        <ele>230.20972</ele>
        <time>2023-08-27T14:19:07.000Z</time>
      </trkpt>
      <trkpt lat="45.79432" lon="4.99369">
        <ele>230.45694</ele>
        <time>2023-08-27T14:19:08.000Z</time>
      </trkpt>
      <trkpt lat="45.7943" lon="4.99375">
        <ele>230.70544</ele>
        <time>2023-08-27T14:19:09.000Z</time>
      </trkpt>
      <trkpt lat="45.79428" lon="4.9938">
        <ele>230.99268</ele>
        <time>2023-08-27T14:19:10.000Z</time>
      </trkpt>
      <trkpt lat="45.79425" lon="4.99385">
        <ele>231.22128</ele>
        <time>2023-08-27T14:19:11.000Z</time>
      </trkpt>
      <trkpt lat="45.79421" lon="4.9939">
        <ele>231.44238</ele>
        <time>2023-08-27T14:19:12.000Z</time>
      </trkpt>
      <trkpt lat="45.79419" lon="4.99394">
        <ele>231.57768</ele>
        <time>2023-08-27T14:19:13.000Z</time>
      </trkpt>
      <trkpt lat="45.79415" lon="4.99399">
        <ele>231.70064</ele>
        <time>2023-08-27T14:19:14.000Z</time>
      </trkpt>
      <trkpt lat="45.79411" lon="4.99402">
        <ele>231.79492</ele>
        <time>2023-08-27T14:19:15.000Z</time>
      </trkpt>
      <trkpt lat="45.79408" lon="4.99405">
        <ele>231.94893</ele>
        <time>2023-08-27T14:19:16.000Z</time>
      </trkpt>
      <trkpt lat="45.79406" lon="4.99408">
        <ele>232.15393</ele>
        <time>2023-08-27T14:19:17.000Z</time>
      </trkpt>
      <trkpt lat="45.79402" lon="4.99411">
        <ele>232.34631</ele>
        <time>2023-08-27T14:19:18.000Z</time>
      </trkpt>
      <trkpt lat="45.794" lon="4.99413">
        <ele>232.52336</ele>
        <time>2023-08-27T14:19:19.000Z</time>
      </trkpt>
      <trkpt lat="45.79396" lon="4.99416">
        <ele>232.70554</ele>
        <time>2023-08-27T14:19:20.000Z</time>
      </trkpt>
      <trkpt lat="45.79392" lon="4.99418">
        <ele>232.89177</ele>
        <time>2023-08-27T14:19:21.000Z</time>
      </trkpt>
      <trkpt lat="45.79388" lon="4.99421">
        <ele>233.0679</ele>
        <time>2023-08-27T14:19:22.000Z</time>
      </trkpt>
      <trkpt lat="45.79384" lon="4.99424">
        <ele>233.2122</ele>
        <time>2023-08-27T14:19:23.000Z</time>
      </trkpt>
      <trkpt lat="45.7938" lon="4.99427">
        <ele>233.34216</ele>
        <time>2023-08-27T14:19:24.000Z</time>
      </trkpt>
      <trkpt lat="45.79377" lon="4.9943">
        <ele>233.44022</ele>
        <time>2023-08-27T14:19:25.000Z</time>
      </trkpt>
      <trkpt lat="45.79373" lon="4.99433">
        <ele>233.41113</ele>
        <time>2023-08-27T14:19:26.000Z</time>
      </trkpt>
      <trkpt lat="45.7937" lon="4.99435">
        <ele>233.37544</ele>
        <time>2023-08-27T14:19:27.000Z</time>
      </trkpt>
      <trkpt lat="45.79367" lon="4.99437">
        <ele>233.3101</ele>
        <time>2023-08-27T14:19:28.000Z</time>
      </trkpt>
      <trkpt lat="45.79365" lon="4.99439">
        <ele>233.27029</ele>
        <time>2023-08-27T14:19:29.000Z</time>
      </trkpt>
      <trkpt lat="45.79362" lon="4.99442">
        <ele>233.12639</ele>
        <time>2023-08-27T14:19:30.000Z</time>
      </trkpt>
      <trkpt lat="45.79359" lon="4.99445">
        <ele>232.96616</ele>
        <time>2023-08-27T14:19:31.000Z</time>
      </trkpt>
      <trkpt lat="45.79356" lon="4.99447">
        <ele>232.80905</ele>
        <time>2023-08-27T14:19:32.000Z</time>
      </trkpt>
      <trkpt lat="45.79353" lon="4.9945">
        <ele>232.71687</ele>
        <time>2023-08-27T14:19:33.000Z</time>
      </trkpt>
      <trkpt lat="45.7935" lon="4.99451">
        <ele>232.66951</ele>
        <time>2023-08-27T14:19:34.000Z</time>
      </trkpt>
      <trkpt lat="45.79347" lon="4.99453">
        <ele>232.64352</ele>
        <time>2023-08-27T14:19:35.000Z</time>
      </trkpt>
      <trkpt lat="45.79344" lon="4.99455">
        <ele>232.59586</ele>
        <time>2023-08-27T14:19:36.000Z</time>
      </trkpt>
      <trkpt lat="45.79341" lon="4.99457">
        <ele>232.52634</ele>
        <time>2023-08-27T14:19:37.000Z</time>
      </trkpt>
      <trkpt lat="45.79337" lon="4.9946">
        <ele>232.49272</ele>
        <time>2023-08-27T14:19:38.000Z</time>
      </trkpt>
      <trkpt lat="45.79334" lon="4.99464">
        <ele>232.4893</ele>
        <time>2023-08-27T14:19:39.000Z</time>
      </trkpt>
      <trkpt lat="45.7933" lon="4.99467">
        <ele>232.43472</ele>
        <time>2023-08-27T14:19:40.000Z</time>
      </trkpt>
      <trkpt lat="45.79327" lon="4.99469">
        <ele>232.3959</ele>
        <time>2023-08-27T14:19:41.000Z</time>
      </trkpt>
      <trkpt lat="45.79325" lon="4.99472">
        <ele>232.37593</ele>
        <time>2023-08-27T14:19:42.000Z</time>
      </trkpt>
      <trkpt lat="45.79321" lon="4.99475">
        <ele>232.39656</ele>
        <time>2023-08-27T14:19:43.000Z</time>
      </trkpt>
      <trkpt lat="45.79318" lon="4.99478">
        <ele>232.38467</ele>
        <time>2023-08-27T14:19:44.000Z</time>
      </trkpt>
      <trkpt lat="45.79315" lon="4.99481">
        <ele>232.38354</ele>
        <time>2023-08-27T14:19:45.000Z</time>
      </trkpt>
      <trkpt lat="45.79311" lon="4.99483">
        <ele>232.43604</ele>
        <time>2023-08-27T14:19:46.000Z</time>
      </trkpt>
      <trkpt lat="45.79308" lon="4.99485">
        <ele>232.49326</ele>
        <time>2023-08-27T14:19:47.000Z</time>
      </trkpt>
      <trkpt lat="45.79304" lon="4.99488">
        <ele>232.57101</ele>
        <time>2023-08-27T14:19:48.000Z</time>
      </trkpt>
      <trkpt lat="45.793" lon="4.9949">
        <ele>232.63293</ele>
        <time>2023-08-27T14:19:49.000Z</time>
      </trkpt>
      <trkpt lat="45.79296" lon="4.99492">
        <ele>232.80168</ele>
        <time>2023-08-27T14:19:50.000Z</time>
      </trkpt>
      <trkpt lat="45.79292" lon="4.99493">
        <ele>232.92587</ele>
        <time>2023-08-27T14:19:51.000Z</time>
      </trkpt>
      <trkpt lat="45.79288" lon="4.99495">
        <ele>233.06267</ele>
        <time>2023-08-27T14:19:52.000Z</time>
      </trkpt>
      <trkpt lat="45.79284" lon="4.99498">
        <ele>233.19055</ele>
        <time>2023-08-27T14:19:53.000Z</time>
      </trkpt>
      <trkpt lat="45.7928" lon="4.995">
        <ele>233.24478</ele>
        <time>2023-08-27T14:19:54.000Z</time>
      </trkpt>
      <trkpt lat="45.79276" lon="4.99502">
        <ele>233.31079</ele>
        <time>2023-08-27T14:19:55.000Z</time>
      </trkpt>
      <trkpt lat="45.79272" lon="4.99505">
        <ele>233.35458</ele>
        <time>2023-08-27T14:19:56.000Z</time>
      </trkpt>
      <trkpt lat="45.79268" lon="4.99507">
        <ele>233.32307</ele>
        <time>2023-08-27T14:19:57.000Z</time>
      </trkpt>
      <trkpt lat="45.79265" lon="4.99511">
        <ele>233.3024</ele>
        <time>2023-08-27T14:19:58.000Z</time>
      </trkpt>
      <trkpt lat="45.79261" lon="4.99514">
        <ele>233.26358</ele>
        <time>2023-08-27T14:19:59.000Z</time>
      </trkpt>
      <trkpt lat="45.79258" lon="4.99518">
        <ele>233.27005</ele>
        <time>2023-08-27T14:20:00.000Z</time>
      </trkpt>
      <trkpt lat="45.79254" lon="4.99522">
        <ele>233.2605</ele>
        <time>2023-08-27T14:20:01.000Z</time>
      </trkpt>
      <trkpt lat="45.7925" lon="4.99525">
        <ele>233.2637</ele>
        <time>2023-08-27T14:20:02.000Z</time>
      </trkpt>
      <trkpt lat="45.79246" lon="4.99529">
        <ele>233.22722</ele>
        <time>2023-08-27T14:20:03.000Z</time>
      </trkpt>
      <trkpt lat="45.79243" lon="4.99533">
        <ele>233.21713</ele>
        <time>2023-08-27T14:20:04.000Z</time>
      </trkpt>
      <trkpt lat="45.79239" lon="4.99537">
        <ele>233.21819</ele>
        <time>2023-08-27T14:20:05.000Z</time>
      </trkpt>
      <trkpt lat="45.79235" lon="4.99544">
        <ele>233.23698</ele>
        <time>2023-08-27T14:20:06.000Z</time>
      </trkpt>
      <trkpt lat="45.79232" lon="4.99548">
        <ele>233.22348</ele>
        <time>2023-08-27T14:20:07.000Z</time>
      </trkpt>
      <trkpt lat="45.79229" lon="4.99553">
        <ele>233.24658</ele>
        <time>2023-08-27T14:20:08.000Z</time>
      </trkpt>
      <trkpt lat="45.79225" lon="4.99557">
        <ele>233.26982</ele>
        <time>2023-08-27T14:20:09.000Z</time>
      </trkpt>
      <trkpt lat="45.79222" lon="4.99561">
        <ele>233.27625</ele>
        <time>2023-08-27T14:20:10.000Z</time>
      </trkpt>
      <trkpt lat="45.79218" lon="4.99564">
        <ele>233.29594</ele>
        <time>2023-08-27T14:20:11.000Z</time>
      </trkpt>
      <trkpt lat="45.79215" lon="4.99567">
        <ele>233.29305</ele>
        <time>2023-08-27T14:20:12.000Z</time>
      </trkpt>
      <trkpt lat="45.79211" lon="4.9957">
        <ele>233.28438</ele>
        <time>2023-08-27T14:20:13.000Z</time>
      </trkpt>
      <trkpt lat="45.79207" lon="4.99574">
        <ele>233.30176</ele>
        <time>2023-08-27T14:20:14.000Z</time>
      </trkpt>
      <trkpt lat="45.79203" lon="4.99578">
        <ele>233.27634</ele>
        <time>2023-08-27T14:20:15.000Z</time>
      </trkpt>
      <trkpt lat="45.79199" lon="4.9958">
        <ele>233.25919</ele>
        <time>2023-08-27T14:20:16.000Z</time>
      </trkpt>
      <trkpt lat="45.79195" lon="4.99583">
        <ele>233.28299</ele>
        <time>2023-08-27T14:20:17.000Z</time>
      </trkpt>
      <trkpt lat="45.79191" lon="4.99585">
        <ele>233.26791</ele>
        <time>2023-08-27T14:20:18.000Z</time>
      </trkpt>
      <trkpt lat="45.79187" lon="4.99587">
        <ele>233.24541</ele>
        <time>2023-08-27T14:20:19.000Z</time>
      </trkpt>
      <trkpt lat="45.79184" lon="4.9959">
        <ele>233.16382</ele>
        <time>2023-08-27T14:20:20.000Z</time>
      </trkpt>
      <trkpt lat="45.7918" lon="4.99592">
        <ele>233.12021</ele>
        <time>2023-08-27T14:20:21.000Z</time>
      </trkpt>
      <trkpt lat="45.79176" lon="4.99594">
        <ele>233.04294</ele>
        <time>2023-08-27T14:20:22.000Z</time>
      </trkpt>
      <trkpt lat="45.79172" lon="4.99596">
        <ele>233.00105</ele>
        <time>2023-08-27T14:20:23.000Z</time>
      </trkpt>
      <trkpt lat="45.79168" lon="4.99598">
        <ele>232.94162</ele>
        <time>2023-08-27T14:20:24.000Z</time>
      </trkpt>
      <trkpt lat="45.79164" lon="4.996">
        <ele>232.85994</ele>
        <time>2023-08-27T14:20:25.000Z</time>
      </trkpt>
      <trkpt lat="45.79158" lon="4.99602">
        <ele>232.74353</ele>
        <time>2023-08-27T14:20:26.000Z</time>
      </trkpt>
      <trkpt lat="45.79155" lon="4.99605">
        <ele>232.69417</ele>
        <time>2023-08-27T14:20:27.000Z</time>
      </trkpt>
      <trkpt lat="45.79151" lon="4.99607">
        <ele>232.60564</ele>
        <time>2023-08-27T14:20:28.000Z</time>
      </trkpt>
      <trkpt lat="45.79148" lon="4.99609">
        <ele>232.55972</ele>
        <time>2023-08-27T14:20:29.000Z</time>
      </trkpt>
      <trkpt lat="45.79145" lon="4.99611">
        <ele>232.52893</ele>
        <time>2023-08-27T14:20:30.000Z</time>
      </trkpt>
      <trkpt lat="45.79142" lon="4.99613">
        <ele>232.56136</ele>
        <time>2023-08-27T14:20:31.000Z</time>
      </trkpt>
      <trkpt lat="45.7914" lon="4.99616">
        <ele>232.59993</ele>
        <time>2023-08-27T14:20:32.000Z</time>
      </trkpt>
      <trkpt lat="45.79135" lon="4.99617">
        <ele>232.6425</ele>
        <time>2023-08-27T14:20:33.000Z</time>
      </trkpt>
      <trkpt lat="45.79133" lon="4.9962">
        <ele>232.65781</ele>
        <time>2023-08-27T14:20:34.000Z</time>
      </trkpt>
      <trkpt lat="45.7913" lon="4.99623">
        <ele>232.71167</ele>
        <time>2023-08-27T14:20:35.000Z</time>
      </trkpt>
      <trkpt lat="45.79128" lon="4.99627">
        <ele>232.77185</ele>
        <time>2023-08-27T14:20:36.000Z</time>
      </trkpt>
      <trkpt lat="45.79125" lon="4.9963">
        <ele>232.84399</ele>
        <time>2023-08-27T14:20:37.000Z</time>
      </trkpt>
      <trkpt lat="45.79123" lon="4.99633">
        <ele>232.86548</ele>
        <time>2023-08-27T14:20:38.000Z</time>
      </trkpt>
      <trkpt lat="45.79121" lon="4.99636">
        <ele>232.85945</ele>
        <time>2023-08-27T14:20:39.000Z</time>
      </trkpt>
      <trkpt lat="45.79118" lon="4.9964">
        <ele>232.95395</ele>
        <time>2023-08-27T14:20:40.000Z</time>
      </trkpt>
      <trkpt lat="45.79116" lon="4.99643">
        <ele>233.00993</ele>
        <time>2023-08-27T14:20:41.000Z</time>
      </trkpt>
      <trkpt lat="45.79113" lon="4.99647">
        <ele>233.06387</ele>
        <time>2023-08-27T14:20:42.000Z</time>
      </trkpt>
      <trkpt lat="45.79111" lon="4.9965">
        <ele>233.14014</ele>
        <time>2023-08-27T14:20:43.000Z</time>
      </trkpt>
      <trkpt lat="45.79109" lon="4.99654">
        <ele>233.25655</ele>
        <time>2023-08-27T14:20:44.000Z</time>
      </trkpt>
      <trkpt lat="45.79107" lon="4.99657">
        <ele>233.35185</ele>
        <time>2023-08-27T14:20:45.000Z</time>
      </trkpt>
      <trkpt lat="45.79106" lon="4.99661">
        <ele>233.44014</ele>
        <time>2023-08-27T14:20:46.000Z</time>
      </trkpt>
      <trkpt lat="45.79104" lon="4.99665">
        <ele>233.53049</ele>
        <time>2023-08-27T14:20:47.000Z</time>
      </trkpt>
      <trkpt lat="45.79102" lon="4.99669">
        <ele>233.64169</ele>
        <time>2023-08-27T14:20:48.000Z</time>
      </trkpt>
      <trkpt lat="45.791" lon="4.99673">
        <ele>233.7225</ele>
        <time>2023-08-27T14:20:49.000Z</time>
      </trkpt>
      <trkpt lat="45.79098" lon="4.99677">
        <ele>233.78757</ele>
        <time>2023-08-27T14:20:50.000Z</time>
      </trkpt>
      <trkpt lat="45.79096" lon="4.99681">
        <ele>233.83896</ele>
        <time>2023-08-27T14:20:51.000Z</time>
      </trkpt>
      <trkpt lat="45.79094" lon="4.99685">
        <ele>233.90714</ele>
        <time>2023-08-27T14:20:52.000Z</time>
      </trkpt>
      <trkpt lat="45.79091" lon="4.9969">
        <ele>234.00894</ele>
        <time>2023-08-27T14:20:53.000Z</time>
      </trkpt>
      <trkpt lat="45.79089" lon="4.99695">
        <ele>234.1281</ele>
        <time>2023-08-27T14:20:54.000Z</time>
      </trkpt>
      <trkpt lat="45.79087" lon="4.99701">
        <ele>234.14282</ele>
        <time>2023-08-27T14:20:55.000Z</time>
      </trkpt>
      <trkpt lat="45.79085" lon="4.99705">
        <ele>234.15137</ele>
        <time>2023-08-27T14:20:56.000Z</time>
      </trkpt>
      <trkpt lat="45.79082" lon="4.9971">
        <ele>234.18599</ele>
        <time>2023-08-27T14:20:57.000Z</time>
      </trkpt>
      <trkpt lat="45.7908" lon="4.99715">
        <ele>234.26807</ele>
        <time>2023-08-27T14:20:58.000Z</time>
      </trkpt>
      <trkpt lat="45.79078" lon="4.9972">
        <ele>234.40439</ele>
        <time>2023-08-27T14:20:59.000Z</time>
      </trkpt>
      <trkpt lat="45.79076" lon="4.99726">
        <ele>234.5455</ele>
        <time>2023-08-27T14:21:00.000Z</time>
      </trkpt>
      <trkpt lat="45.79074" lon="4.9973">
        <ele>234.72159</ele>
        <time>2023-08-27T14:21:01.000Z</time>
      </trkpt>
      <trkpt lat="45.79072" lon="4.99734">
        <ele>234.92236</ele>
        <time>2023-08-27T14:21:02.000Z</time>
      </trkpt>
      <trkpt lat="45.79071" lon="4.99738">
        <ele>235.08733</ele>
        <time>2023-08-27T14:21:03.000Z</time>
      </trkpt>
      <trkpt lat="45.79069" lon="4.99742">
        <ele>235.19595</ele>
        <time>2023-08-27T14:21:04.000Z</time>
      </trkpt>
      <trkpt lat="45.79068" lon="4.99746">
        <ele>235.38411</ele>
        <time>2023-08-27T14:21:05.000Z</time>
      </trkpt>
      <trkpt lat="45.79067" lon="4.99749">
        <ele>235.59468</ele>
        <time>2023-08-27T14:21:06.000Z</time>
      </trkpt>
      <trkpt lat="45.79065" lon="4.99753">
        <ele>235.76314</ele>
        <time>2023-08-27T14:21:07.000Z</time>
      </trkpt>
      <trkpt lat="45.79064" lon="4.99757">
        <ele>235.85527</ele>
        <time>2023-08-27T14:21:08.000Z</time>
      </trkpt>
      <trkpt lat="45.79062" lon="4.99761">
        <ele>235.89673</ele>
        <time>2023-08-27T14:21:09.000Z</time>
      </trkpt>
      <trkpt lat="45.7906" lon="4.99765">
        <ele>235.91817</ele>
        <time>2023-08-27T14:21:10.000Z</time>
      </trkpt>
      <trkpt lat="45.79057" lon="4.9977">
        <ele>235.88484</ele>
        <time>2023-08-27T14:21:11.000Z</time>
      </trkpt>
      <trkpt lat="45.79054" lon="4.99775">
        <ele>235.79854</ele>
        <time>2023-08-27T14:21:12.000Z</time>
      </trkpt>
      <trkpt lat="45.79052" lon="4.99779">
        <ele>235.74748</ele>
        <time>2023-08-27T14:21:13.000Z</time>
      </trkpt>
      <trkpt lat="45.79049" lon="4.99784">
        <ele>235.69846</ele>
        <time>2023-08-27T14:21:14.000Z</time>
      </trkpt>
      <trkpt lat="45.79046" lon="4.99788">
        <ele>235.70694</ele>
        <time>2023-08-27T14:21:15.000Z</time>
      </trkpt>
      <trkpt lat="45.79043" lon="4.99792">
        <ele>235.6794</ele>
        <time>2023-08-27T14:21:16.000Z</time>
      </trkpt>
      <trkpt lat="45.79039" lon="4.99796">
        <ele>235.65437</ele>
        <time>2023-08-27T14:21:17.000Z</time>
      </trkpt>
      <trkpt lat="45.79035" lon="4.99799">
        <ele>235.60782</ele>
        <time>2023-08-27T14:21:18.000Z</time>
      </trkpt>
      <trkpt lat="45.79032" lon="4.99803">
        <ele>235.55644</ele>
        <time>2023-08-27T14:21:19.000Z</time>
      </trkpt>
      <trkpt lat="45.79027" lon="4.99807">
        <ele>235.44971</ele>
        <time>2023-08-27T14:21:20.000Z</time>
      </trkpt>
      <trkpt lat="45.79024" lon="4.99812">
        <ele>235.35678</ele>
        <time>2023-08-27T14:21:21.000Z</time>
      </trkpt>
      <trkpt lat="45.7902" lon="4.99816">
        <ele>235.24243</ele>
        <time>2023-08-27T14:21:22.000Z</time>
      </trkpt>
      <trkpt lat="45.79017" lon="4.9982">
        <ele>235.09538</ele>
        <time>2023-08-27T14:21:23.000Z</time>
      </trkpt>
      <trkpt lat="45.79014" lon="4.99823">
        <ele>235.00986</ele>
        <time>2023-08-27T14:21:24.000Z</time>
      </trkpt>
      <trkpt lat="45.7901" lon="4.99827">
        <ele>234.82759</ele>
        <time>2023-08-27T14:21:25.000Z</time>
      </trkpt>
      <trkpt lat="45.79006" lon="4.99831">
        <ele>234.65291</ele>
        <time>2023-08-27T14:21:26.000Z</time>
      </trkpt>
      <trkpt lat="45.79003" lon="4.99834">
        <ele>234.48056</ele>
        <time>2023-08-27T14:21:27.000Z</time>
      </trkpt>
      <trkpt lat="45.79" lon="4.99838">
        <ele>234.3812</ele>
        <time>2023-08-27T14:21:28.000Z</time>
      </trkpt>
      <trkpt lat="45.78997" lon="4.99841">
        <ele>234.31192</ele>
        <time>2023-08-27T14:21:29.000Z</time>
      </trkpt>
      <trkpt lat="45.78994" lon="4.99845">
        <ele>234.28152</ele>
        <time>2023-08-27T14:21:30.000Z</time>
      </trkpt>
      <trkpt lat="45.7899" lon="4.99848">
        <ele>234.24362</ele>
        <time>2023-08-27T14:21:31.000Z</time>
      </trkpt>
      <trkpt lat="45.78987" lon="4.99852">
        <ele>234.22543</ele>
        <time>2023-08-27T14:21:32.000Z</time>
      </trkpt>
      <trkpt lat="45.78984" lon="4.99855">
        <ele>234.08871</ele>
        <time>2023-08-27T14:21:33.000Z</time>
      </trkpt>
      <trkpt lat="45.78979" lon="4.99859">
        <ele>233.99089</ele>
        <time>2023-08-27T14:21:34.000Z</time>
      </trkpt>
      <trkpt lat="45.78975" lon="4.99861">
        <ele>233.90642</ele>
        <time>2023-08-27T14:21:35.000Z</time>
      </trkpt>
      <trkpt lat="45.78971" lon="4.99865">
        <ele>233.89839</ele>
        <time>2023-08-27T14:21:36.000Z</time>
      </trkpt>
      <trkpt lat="45.78967" lon="4.99867">
        <ele>233.84465</ele>
        <time>2023-08-27T14:21:37.000Z</time>
      </trkpt>
      <trkpt lat="45.78963" lon="4.9987">
        <ele>233.823</ele>
        <time>2023-08-27T14:21:38.000Z</time>
      </trkpt>
      <trkpt lat="45.78959" lon="4.99872">
        <ele>233.76559</ele>
        <time>2023-08-27T14:21:39.000Z</time>
      </trkpt>
      <trkpt lat="45.78955" lon="4.99875">
        <ele>233.72617</ele>
        <time>2023-08-27T14:21:40.000Z</time>
      </trkpt>
      <trkpt lat="45.78951" lon="4.99877">
        <ele>233.63779</ele>
        <time>2023-08-27T14:21:41.000Z</time>
      </trkpt>
      <trkpt lat="45.78946" lon="4.9988">
        <ele>233.55241</ele>
        <time>2023-08-27T14:21:42.000Z</time>
      </trkpt>
      <trkpt lat="45.78942" lon="4.99883">
        <ele>233.5192</ele>
        <time>2023-08-27T14:21:43.000Z</time>
      </trkpt>
      <trkpt lat="45.78938" lon="4.99884">
        <ele>233.39453</ele>
        <time>2023-08-27T14:21:44.000Z</time>
      </trkpt>
      <trkpt lat="45.78935" lon="4.99887">
        <ele>233.36649</ele>
        <time>2023-08-27T14:21:45.000Z</time>
      </trkpt>
      <trkpt lat="45.78931" lon="4.99889">
        <ele>233.30688</ele>
        <time>2023-08-27T14:21:46.000Z</time>
      </trkpt>
      <trkpt lat="45.78928" lon="4.99892">
        <ele>233.31474</ele>
        <time>2023-08-27T14:21:47.000Z</time>
      </trkpt>
      <trkpt lat="45.78926" lon="4.99894">
        <ele>233.36064</ele>
        <time>2023-08-27T14:21:48.000Z</time>
      </trkpt>
      <trkpt lat="45.78923" lon="4.99897">
        <ele>233.43523</ele>
        <time>2023-08-27T14:21:49.000Z</time>
      </trkpt>
      <trkpt lat="45.7892" lon="4.99899">
        <ele>233.50388</ele>
        <time>2023-08-27T14:21:50.000Z</time>
      </trkpt>
      <trkpt lat="45.78916" lon="4.99902">
        <ele>233.5701</ele>
        <time>2023-08-27T14:21:51.000Z</time>
      </trkpt>
      <trkpt lat="45.78912" lon="4.99906">
        <ele>233.81454</ele>
        <time>2023-08-27T14:21:52.000Z</time>
      </trkpt>
      <trkpt lat="45.7891" lon="4.99909">
        <ele>234.11162</ele>
        <time>2023-08-27T14:21:53.000Z</time>
      </trkpt>
      <trkpt lat="45.78905" lon="4.99912">
        <ele>234.36728</ele>
        <time>2023-08-27T14:21:54.000Z</time>
      </trkpt>
      <trkpt lat="45.78902" lon="4.99916">
        <ele>234.65471</ele>
        <time>2023-08-27T14:21:55.000Z</time>
      </trkpt>
      <trkpt lat="45.78898" lon="4.99919">
        <ele>234.91023</ele>
        <time>2023-08-27T14:21:56.000Z</time>
      </trkpt>
      <trkpt lat="45.78896" lon="4.99921">
        <ele>235.11942</ele>
        <time>2023-08-27T14:21:57.000Z</time>
      </trkpt>
      <trkpt lat="45.78892" lon="4.99924">
        <ele>235.36687</ele>
        <time>2023-08-27T14:21:58.000Z</time>
      </trkpt>
      <trkpt lat="45.78889" lon="4.99927">
        <ele>235.64746</ele>
        <time>2023-08-27T14:21:59.000Z</time>
      </trkpt>
      <trkpt lat="45.78886" lon="4.99931">
        <ele>235.91496</ele>
        <time>2023-08-27T14:22:00.000Z</time>
      </trkpt>
      <trkpt lat="45.78882" lon="4.99934">
        <ele>236.18233</ele>
        <time>2023-08-27T14:22:01.000Z</time>
      </trkpt>
      <trkpt lat="45.78878" lon="4.99936">
        <ele>236.41386</ele>
        <time>2023-08-27T14:22:02.000Z</time>
      </trkpt>
      <trkpt lat="45.78874" lon="4.99939">
        <ele>236.61194</ele>
        <time>2023-08-27T14:22:03.000Z</time>
      </trkpt>
      <trkpt lat="45.7887" lon="4.99944">
        <ele>236.92233</ele>
        <time>2023-08-27T14:22:04.000Z</time>
      </trkpt>
      <trkpt lat="45.78867" lon="4.99948">
        <ele>237.19344</ele>
        <time>2023-08-27T14:22:05.000Z</time>
      </trkpt>
      <trkpt lat="45.78862" lon="4.99951">
        <ele>237.4532</ele>
        <time>2023-08-27T14:22:06.000Z</time>
      </trkpt>
      <trkpt lat="45.78858" lon="4.99955">
        <ele>237.63383</ele>
        <time>2023-08-27T14:22:07.000Z</time>
      </trkpt>
      <trkpt lat="45.78853" lon="4.99961">
        <ele>237.76091</ele>
        <time>2023-08-27T14:22:08.000Z</time>
      </trkpt>
      <trkpt lat="45.78848" lon="4.99965">
        <ele>237.78862</ele>
        <time>2023-08-27T14:22:09.000Z</time>
      </trkpt>
      <trkpt lat="45.78844" lon="4.99968">
        <ele>237.93022</ele>
        <time>2023-08-27T14:22:10.000Z</time>
      </trkpt>
      <trkpt lat="45.7884" lon="4.99974">
        <ele>238.10568</ele>
        <time>2023-08-27T14:22:11.000Z</time>
      </trkpt>
      <trkpt lat="45.78836" lon="4.99979">
        <ele>238.13858</ele>
        <time>2023-08-27T14:22:12.000Z</time>
      </trkpt>
      <trkpt lat="45.78832" lon="4.99984">
        <ele>238.16458</ele>
        <time>2023-08-27T14:22:13.000Z</time>
      </trkpt>
      <trkpt lat="45.78827" lon="4.99988">
        <ele>238.18909</ele>
        <time>2023-08-27T14:22:14.000Z</time>
      </trkpt>
      <trkpt lat="45.78822" lon="4.99993">
        <ele>238.19376</ele>
        <time>2023-08-27T14:22:15.000Z</time>
      </trkpt>
      <trkpt lat="45.78817" lon="5">
        <ele>238.19711</ele>
        <time>2023-08-27T14:22:16.000Z</time>
      </trkpt>
      <trkpt lat="45.78813" lon="5.00007">
        <ele>238.25569</ele>
        <time>2023-08-27T14:22:17.000Z</time>
      </trkpt>
      <trkpt lat="45.78808" lon="5.00013">
        <ele>238.2822</ele>
        <time>2023-08-27T14:22:18.000Z</time>
      </trkpt>
      <trkpt lat="45.78801" lon="5.00017">
        <ele>238.26892</ele>
        <time>2023-08-27T14:22:19.000Z</time>
      </trkpt>
      <trkpt lat="45.78797" lon="5.00022">
        <ele>238.24268</ele>
        <time>2023-08-27T14:22:20.000Z</time>
      </trkpt>
      <trkpt lat="45.78793" lon="5.00028">
        <ele>238.25159</ele>
        <time>2023-08-27T14:22:21.000Z</time>
      </trkpt>
      <trkpt lat="45.78788" lon="5.00034">
        <ele>238.29362</ele>
        <time>2023-08-27T14:22:22.000Z</time>
      </trkpt>
      <trkpt lat="45.78785" lon="5.0004">
        <ele>238.36111</ele>
        <time>2023-08-27T14:22:23.000Z</time>
      </trkpt>
      <trkpt lat="45.78785" lon="5.00046">
        <ele>238.37112</ele>
        <time>2023-08-27T14:22:24.000Z</time>
      </trkpt>
      <trkpt lat="45.78783" lon="5.0005">
        <ele>238.39417</ele>
        <time>2023-08-27T14:22:25.000Z</time>
      </trkpt>
      <trkpt lat="45.78784" lon="5.00053">
        <ele>238.478</ele>
        <time>2023-08-27T14:22:26.000Z</time>
      </trkpt>
      <trkpt lat="45.78782" lon="5.00057">
        <ele>238.55411</ele>
        <time>2023-08-27T14:22:27.000Z</time>
      </trkpt>
      <trkpt lat="45.78777" lon="5.00063">
        <ele>238.6396</ele>
        <time>2023-08-27T14:22:28.000Z</time>
      </trkpt>
      <trkpt lat="45.78773" lon="5.00067">
        <ele>238.82439</ele>
        <time>2023-08-27T14:22:29.000Z</time>
      </trkpt>
      <trkpt lat="45.78771" lon="5.00072">
        <ele>238.88403</ele>
        <time>2023-08-27T14:22:30.000Z</time>
      </trkpt>
      <trkpt lat="45.78768" lon="5.00076">
        <ele>238.93295</ele>
        <time>2023-08-27T14:22:31.000Z</time>
      </trkpt>
      <trkpt lat="45.78767" lon="5.0008">
        <ele>238.81284</ele>
        <time>2023-08-27T14:22:32.000Z</time>
      </trkpt>
      <trkpt lat="45.78767" lon="5.00083">
        <ele>238.70474</ele>
        <time>2023-08-27T14:22:33.000Z</time>
      </trkpt>
      <trkpt lat="45.78763" lon="5.00087">
        <ele>238.59314</ele>
        <time>2023-08-27T14:22:34.000Z</time>
      </trkpt>
      <trkpt lat="45.7876" lon="5.00092">
        <ele>238.53549</ele>
        <time>2023-08-27T14:22:35.000Z</time>
      </trkpt>
      <trkpt lat="45.78757" lon="5.00096">
        <ele>238.45854</ele>
        <time>2023-08-27T14:22:36.000Z</time>
      </trkpt>
      <trkpt lat="45.78754" lon="5.001">
        <ele>238.30391</ele>
        <time>2023-08-27T14:22:37.000Z</time>
      </trkpt>
      <trkpt lat="45.7875" lon="5.00105">
        <ele>238.16402</ele>
        <time>2023-08-27T14:22:38.000Z</time>
      </trkpt>
      <trkpt lat="45.78748" lon="5.00109">
        <ele>238.10941</ele>
        <time>2023-08-27T14:22:39.000Z</time>
      </trkpt>
      <trkpt lat="45.78745" lon="5.00115">
        <ele>238.05917</ele>
        <time>2023-08-27T14:22:40.000Z</time>
      </trkpt>
      <trkpt lat="45.78742" lon="5.0012">
        <ele>237.97934</ele>
        <time>2023-08-27T14:22:41.000Z</time>
      </trkpt>
      <trkpt lat="45.7874" lon="5.00125">
        <ele>237.9521</ele>
        <time>2023-08-27T14:22:42.000Z</time>
      </trkpt>
      <trkpt lat="45.78737" lon="5.0013">
        <ele>237.87984</ele>
        <time>2023-08-27T14:22:43.000Z</time>
      </trkpt>
      <trkpt lat="45.78735" lon="5.00136">
        <ele>237.81453</ele>
        <time>2023-08-27T14:22:44.000Z</time>
      </trkpt>
      <trkpt lat="45.78732" lon="5.00141">
        <ele>237.75212</ele>
        <time>2023-08-27T14:22:45.000Z</time>
      </trkpt>
      <trkpt lat="45.78729" lon="5.00147">
        <ele>237.64371</ele>
        <time>2023-08-27T14:22:46.000Z</time>
      </trkpt>
      <trkpt lat="45.78726" lon="5.00152">
        <ele>237.54373</ele>
        <time>2023-08-27T14:22:47.000Z</time>
      </trkpt>
      <trkpt lat="45.78724" lon="5.00158">
        <ele>237.46855</ele>
        <time>2023-08-27T14:22:48.000Z</time>
      </trkpt>
      <trkpt lat="45.78721" lon="5.00164">
        <ele>237.37338</ele>
        <time>2023-08-27T14:22:49.000Z</time>
      </trkpt>
      <trkpt lat="45.78718" lon="5.00169">
        <ele>237.35811</ele>
        <time>2023-08-27T14:22:50.000Z</time>
      </trkpt>
      <trkpt lat="45.78716" lon="5.00174">
        <ele>237.33806</ele>
        <time>2023-08-27T14:22:51.000Z</time>
      </trkpt>
      <trkpt lat="45.78714" lon="5.00178">
        <ele>237.46567</ele>
        <time>2023-08-27T14:22:52.000Z</time>
      </trkpt>
      <trkpt lat="45.78712" lon="5.00182">
        <ele>237.6282</ele>
        <time>2023-08-27T14:22:53.000Z</time>
      </trkpt>
      <trkpt lat="45.7871" lon="5.00186">
        <ele>237.7865</ele>
        <time>2023-08-27T14:22:54.000Z</time>
      </trkpt>
      <trkpt lat="45.78709" lon="5.0019">
        <ele>237.73721</ele>
        <time>2023-08-27T14:22:55.000Z</time>
      </trkpt>
      <trkpt lat="45.78707" lon="5.00194">
        <ele>237.72173</ele>
        <time>2023-08-27T14:22:56.000Z</time>
      </trkpt>
      <trkpt lat="45.78705" lon="5.00197">
        <ele>237.81416</ele>
        <time>2023-08-27T14:22:57.000Z</time>
      </trkpt>
      <trkpt lat="45.78705" lon="5.00201">
        <ele>237.90776</ele>
        <time>2023-08-27T14:22:58.000Z</time>
      </trkpt>
      <trkpt lat="45.78703" lon="5.00204">
        <ele>238.05923</ele>
        <time>2023-08-27T14:22:59.000Z</time>
      </trkpt>
      <trkpt lat="45.78702" lon="5.00208">
        <ele>238.27144</ele>
        <time>2023-08-27T14:23:00.000Z</time>
      </trkpt>
      <trkpt lat="45.78701" lon="5.0021">
        <ele>238.49402</ele>
        <time>2023-08-27T14:23:01.000Z</time>
      </trkpt>
      <trkpt lat="45.78699" lon="5.00214">
        <ele>238.64063</ele>
        <time>2023-08-27T14:23:03.000Z</time>
      </trkpt>
      <trkpt lat="45.78698" lon="5.00216">
        <ele>238.65157</ele>
        <time>2023-08-27T14:23:04.000Z</time>
      </trkpt>
      <trkpt lat="45.78697" lon="5.00218">
        <ele>238.69299</ele>
        <time>2023-08-27T14:23:05.000Z</time>
      </trkpt>
      <trkpt lat="45.78696" lon="5.00221">
        <ele>238.71733</ele>
        <time>2023-08-27T14:23:06.000Z</time>
      </trkpt>
      <trkpt lat="45.78694" lon="5.00224">
        <ele>238.82388</ele>
        <time>2023-08-27T14:23:08.000Z</time>
      </trkpt>
      <trkpt lat="45.78696" lon="5.00226">
        <ele>239.03882</ele>
        <time>2023-08-27T14:23:11.000Z</time>
      </trkpt>
      <trkpt lat="45.78698" lon="5.00222">
        <ele>239.20132</ele>
        <time>2023-08-27T14:23:13.000Z</time>
      </trkpt>
      <trkpt lat="45.787" lon="5.00217">
        <ele>239.39197</ele>
        <time>2023-08-27T14:23:15.000Z</time>
      </trkpt>
      <trkpt lat="45.78701" lon="5.00213">
        <ele>239.44986</ele>
        <time>2023-08-27T14:23:16.000Z</time>
      </trkpt>
      <trkpt lat="45.78701" lon="5.00208">
        <ele>239.58524</ele>
        <time>2023-08-27T14:23:17.000Z</time>
      </trkpt>
      <trkpt lat="45.787" lon="5.00205">
        <ele>239.72087</ele>
        <time>2023-08-27T14:23:18.000Z</time>
      </trkpt>
      <trkpt lat="45.78699" lon="5.00202">
        <ele>239.57803</ele>
        <time>2023-08-27T14:23:19.000Z</time>
      </trkpt>
      <trkpt lat="45.78696" lon="5.002">
        <ele>239.47983</ele>
        <time>2023-08-27T14:23:20.000Z</time>
      </trkpt>
      <trkpt lat="45.78694" lon="5.00199">
        <ele>239.51889</ele>
        <time>2023-08-27T14:23:21.000Z</time>
      </trkpt>
      <trkpt lat="45.78692" lon="5.00198">
        <ele>239.6967</ele>
        <time>2023-08-27T14:23:22.000Z</time>
      </trkpt>
      <trkpt lat="45.7869" lon="5.00197">
        <ele>239.90247</ele>
        <time>2023-08-27T14:23:24.000Z</time>
      </trkpt>
      <trkpt lat="45.78688" lon="5.00197">
        <ele>240.08562</ele>
        <time>2023-08-27T14:23:30.000Z</time>
      </trkpt>
      <trkpt lat="45.78686" lon="5.00195">
        <ele>240.14343</ele>
        <time>2023-08-27T14:23:32.000Z</time>
      </trkpt>
      <trkpt lat="45.78684" lon="5.00194">
        <ele>240.03818</ele>
        <time>2023-08-27T14:23:38.000Z</time>
      </trkpt>
      <trkpt lat="45.78682" lon="5.00193">
        <ele>239.93991</ele>
        <time>2023-08-27T14:23:41.000Z</time>
      </trkpt>
      <trkpt lat="45.7868" lon="5.00194">
        <ele>239.94864</ele>
        <time>2023-08-27T14:23:45.000Z</time>
      </trkpt>
      <trkpt lat="45.78678" lon="5.00195">
        <ele>240.13196</ele>
        <time>2023-08-27T14:23:46.000Z</time>
      </trkpt>
      <trkpt lat="45.78675" lon="5.00196">
        <ele>240.29997</ele>
        <time>2023-08-27T14:23:48.000Z</time>
      </trkpt>
      <trkpt lat="45.78673" lon="5.00194">
        <ele>240.35274</ele>
        <time>2023-08-27T14:23:53.000Z</time>
      </trkpt>
      <trkpt lat="45.78672" lon="5.00192">
        <ele>240.58415</ele>
        <time>2023-08-27T14:23:58.000Z</time>
      </trkpt>
      <trkpt lat="45.7867" lon="5.00191">
        <ele>240.69467</ele>
        <time>2023-08-27T14:24:02.000Z</time>
      </trkpt>
      <trkpt lat="45.78666" lon="5.0019">
        <ele>240.74541</ele>
        <time>2023-08-27T14:24:07.000Z</time>
      </trkpt>
      <trkpt lat="45.78663" lon="5.00189">
        <ele>240.72495</ele>
        <time>2023-08-27T14:24:08.000Z</time>
      </trkpt>
      <trkpt lat="45.78661" lon="5.00188">
        <ele>240.77957</ele>
        <time>2023-08-27T14:24:09.000Z</time>
      </trkpt>
      <trkpt lat="45.78659" lon="5.00186">
        <ele>240.80563</ele>
        <time>2023-08-27T14:24:10.000Z</time>
      </trkpt>
      <trkpt lat="45.78658" lon="5.00182">
        <ele>240.83638</ele>
        <time>2023-08-27T14:24:11.000Z</time>
      </trkpt>
      <trkpt lat="45.78658" lon="5.00178">
        <ele>241.12082</ele>
        <time>2023-08-27T14:24:12.000Z</time>
      </trkpt>
      <trkpt lat="45.78658" lon="5.00174">
        <ele>241.42143</ele>
        <time>2023-08-27T14:24:14.000Z</time>
      </trkpt>
      <trkpt lat="45.78658" lon="5.00177">
        <ele>241.86165</ele>
        <time>2023-08-27T14:24:31.000Z</time>
      </trkpt>
      <trkpt lat="45.7866" lon="5.00182">
        <ele>242.11577</ele>
        <time>2023-08-27T14:24:33.000Z</time>
      </trkpt>
      <trkpt lat="45.78662" lon="5.00186">
        <ele>242.298</ele>
        <time>2023-08-27T14:24:34.000Z</time>
      </trkpt>
      <trkpt lat="45.78664" lon="5.00187">
        <ele>242.43515</ele>
        <time>2023-08-27T14:24:35.000Z</time>
      </trkpt>
      <trkpt lat="45.78666" lon="5.00189">
        <ele>242.57324</ele>
        <time>2023-08-27T14:24:36.000Z</time>
      </trkpt>
      <trkpt lat="45.78668" lon="5.0019">
        <ele>242.83028</ele>
        <time>2023-08-27T14:24:37.000Z</time>
      </trkpt>
      <trkpt lat="45.7867" lon="5.00193">
        <ele>243.12321</ele>
        <time>2023-08-27T14:24:39.000Z</time>
      </trkpt>
      <trkpt lat="45.78672" lon="5.00196">
        <ele>243.30045</ele>
        <time>2023-08-27T14:24:41.000Z</time>
      </trkpt>
      <trkpt lat="45.78675" lon="5.00196">
        <ele>243.49353</ele>
        <time>2023-08-27T14:24:42.000Z</time>
      </trkpt>
      <trkpt lat="45.78678" lon="5.00196">
        <ele>243.65121</ele>
        <time>2023-08-27T14:24:43.000Z</time>
      </trkpt>
      <trkpt lat="45.7868" lon="5.00195">
        <ele>243.93265</ele>
        <time>2023-08-27T14:24:44.000Z</time>
      </trkpt>
      <trkpt lat="45.78682" lon="5.00194">
        <ele>243.97673</ele>
        <time>2023-08-27T14:24:45.000Z</time>
      </trkpt>
      <trkpt lat="45.78684" lon="5.00195">
        <ele>244.0218</ele>
        <time>2023-08-27T14:24:46.000Z</time>
      </trkpt>
      <trkpt lat="45.78686" lon="5.00198">
        <ele>244.01595</ele>
        <time>2023-08-27T14:24:48.000Z</time>
      </trkpt>
      <trkpt lat="45.78688" lon="5.002">
        <ele>243.99068</ele>
        <time>2023-08-27T14:24:50.000Z</time>
      </trkpt>
      <trkpt lat="45.78689" lon="5.00202">
        <ele>243.86911</ele>
        <time>2023-08-27T14:24:51.000Z</time>
      </trkpt>
      <trkpt lat="45.78691" lon="5.00204">
        <ele>243.69241</ele>
        <time>2023-08-27T14:24:52.000Z</time>
      </trkpt>
      <trkpt lat="45.78693" lon="5.00206">
        <ele>243.52853</ele>
        <time>2023-08-27T14:24:53.000Z</time>
      </trkpt>
      <trkpt lat="45.78695" lon="5.00208">
        <ele>243.36972</ele>
        <time>2023-08-27T14:24:54.000Z</time>
      </trkpt>
      <trkpt lat="45.78696" lon="5.00212">
        <ele>243.17464</ele>
        <time>2023-08-27T14:24:56.000Z</time>
      </trkpt>
      <trkpt lat="45.78696" lon="5.00214">
        <ele>242.83261</ele>
        <time>2023-08-27T14:24:57.000Z</time>
      </trkpt>
      <trkpt lat="45.78695" lon="5.00217">
        <ele>242.5417</ele>
        <time>2023-08-27T14:24:58.000Z</time>
      </trkpt>
      <trkpt lat="45.78694" lon="5.00219">
        <ele>242.28458</ele>
        <time>2023-08-27T14:24:59.000Z</time>
      </trkpt>
      <trkpt lat="45.78691" lon="5.0022">
        <ele>242.13217</ele>
        <time>2023-08-27T14:25:01.000Z</time>
      </trkpt>
      <trkpt lat="45.78688" lon="5.00222">
        <ele>241.94353</ele>
        <time>2023-08-27T14:25:03.000Z</time>
      </trkpt>
      <trkpt lat="45.78686" lon="5.00225">
        <ele>241.71907</ele>
        <time>2023-08-27T14:25:05.000Z</time>
      </trkpt>
      <trkpt lat="45.78688" lon="5.00225">
        <ele>241.32266</ele>
        <time>2023-08-27T14:25:09.000Z</time>
      </trkpt>
      <trkpt lat="45.78691" lon="5.00224">
        <ele>241.07175</ele>
        <time>2023-08-27T14:25:17.000Z</time>
      </trkpt>
      <trkpt lat="45.78694" lon="5.00223">
        <ele>240.56783</ele>
        <time>2023-08-27T14:25:20.000Z</time>
      </trkpt>
      <trkpt lat="45.78695" lon="5.0022">
        <ele>240.12793</ele>
        <time>2023-08-27T14:25:21.000Z</time>
      </trkpt>
      <trkpt lat="45.78696" lon="5.00217">
        <ele>239.70047</ele>
        <time>2023-08-27T14:25:22.000Z</time>
      </trkpt>
      <trkpt lat="45.78697" lon="5.00215">
        <ele>239.31047</ele>
        <time>2023-08-27T14:25:23.000Z</time>
      </trkpt>
      <trkpt lat="45.78697" lon="5.00212">
        <ele>238.92583</ele>
        <time>2023-08-27T14:25:24.000Z</time>
      </trkpt>
      <trkpt lat="45.78697" lon="5.00209">
        <ele>238.61551</ele>
        <time>2023-08-27T14:25:25.000Z</time>
      </trkpt>
      <trkpt lat="45.78696" lon="5.00207">
        <ele>238.37894</ele>
        <time>2023-08-27T14:25:26.000Z</time>
      </trkpt>
      <trkpt lat="45.78695" lon="5.00204">
        <ele>238.28598</ele>
        <time>2023-08-27T14:25:29.000Z</time>
      </trkpt>
      <trkpt lat="45.78697" lon="5.00205">
        <ele>238.19148</ele>
        <time>2023-08-27T14:25:31.000Z</time>
      </trkpt>
      <trkpt lat="45.78697" lon="5.00208">
        <ele>238.13432</ele>
        <time>2023-08-27T14:25:32.000Z</time>
      </trkpt>
      <trkpt lat="45.78697" lon="5.00211">
        <ele>238.21577</ele>
        <time>2023-08-27T14:25:34.000Z</time>
      </trkpt>
      <trkpt lat="45.78695" lon="5.00214">
        <ele>238.23723</ele>
        <time>2023-08-27T14:25:39.000Z</time>
      </trkpt>
      <trkpt lat="45.78693" lon="5.00217">
        <ele>238.14519</ele>
        <time>2023-08-27T14:25:41.000Z</time>
      </trkpt>
      <trkpt lat="45.78691" lon="5.00218">
        <ele>238.06473</ele>
        <time>2023-08-27T14:25:42.000Z</time>
      </trkpt>
      <trkpt lat="45.78689" lon="5.0022">
        <ele>237.97134</ele>
        <time>2023-08-27T14:25:43.000Z</time>
      </trkpt>
      <trkpt lat="45.78691" lon="5.00223">
        <ele>237.62918</ele>
        <time>2023-08-27T14:25:45.000Z</time>
      </trkpt>
      <trkpt lat="45.78693" lon="5.00222">
        <ele>237.27922</ele>
        <time>2023-08-27T14:25:46.000Z</time>
      </trkpt>
      <trkpt lat="45.78695" lon="5.00218">
        <ele>236.95137</ele>
        <time>2023-08-27T14:25:47.000Z</time>
      </trkpt>
      <trkpt lat="45.78696" lon="5.00214">
        <ele>236.74332</ele>
        <time>2023-08-27T14:25:48.000Z</time>
      </trkpt>
      <trkpt lat="45.78697" lon="5.0021">
        <ele>236.40799</ele>
        <time>2023-08-27T14:25:49.000Z</time>
      </trkpt>
      <trkpt lat="45.78697" lon="5.00206">
        <ele>236.37032</ele>
        <time>2023-08-27T14:25:50.000Z</time>
      </trkpt>
      <trkpt lat="45.78696" lon="5.00204">
        <ele>236.35075</ele>
        <time>2023-08-27T14:25:51.000Z</time>
      </trkpt>
      <trkpt lat="45.78694" lon="5.00202">
        <ele>236.37094</ele>
        <time>2023-08-27T14:25:52.000Z</time>
      </trkpt>
      <trkpt lat="45.78692" lon="5.00199">
        <ele>236.32124</ele>
        <time>2023-08-27T14:25:53.000Z</time>
      </trkpt>
      <trkpt lat="45.78691" lon="5.00198">
        <ele>236.34726</ele>
        <time>2023-08-27T14:25:55.000Z</time>
      </trkpt>
      <trkpt lat="45.78689" lon="5.00197">
        <ele>236.35593</ele>
        <time>2023-08-27T14:26:01.000Z</time>
      </trkpt>
      <trkpt lat="45.78688" lon="5.00194">
        <ele>236.57133</ele>
        <time>2023-08-27T14:26:10.000Z</time>
      </trkpt>
      <trkpt lat="45.78686" lon="5.00193">
        <ele>236.73169</ele>
        <time>2023-08-27T14:26:11.000Z</time>
      </trkpt>
      <trkpt lat="45.78683" lon="5.00193">
        <ele>236.9147</ele>
        <time>2023-08-27T14:26:12.000Z</time>
      </trkpt>
      <trkpt lat="45.78681" lon="5.00194">
        <ele>237.08406</ele>
        <time>2023-08-27T14:26:13.000Z</time>
      </trkpt>
      <trkpt lat="45.78678" lon="5.00195">
        <ele>237.11751</ele>
        <time>2023-08-27T14:26:14.000Z</time>
      </trkpt>
      <trkpt lat="45.78675" lon="5.00195">
        <ele>237.05127</ele>
        <time>2023-08-27T14:26:15.000Z</time>
      </trkpt>
      <trkpt lat="45.78673" lon="5.00195">
        <ele>237.14836</ele>
        <time>2023-08-27T14:26:16.000Z</time>
      </trkpt>
      <trkpt lat="45.78671" lon="5.00194">
        <ele>237.28012</ele>
        <time>2023-08-27T14:26:18.000Z</time>
      </trkpt>
      <trkpt lat="45.7867" lon="5.00191">
        <ele>237.52481</ele>
        <time>2023-08-27T14:26:30.000Z</time>
      </trkpt>
      <trkpt lat="45.78668" lon="5.00188">
        <ele>237.99472</ele>
        <time>2023-08-27T14:26:33.000Z</time>
      </trkpt>
      <trkpt lat="45.78667" lon="5.00186">
        <ele>238.43127</ele>
        <time>2023-08-27T14:26:41.000Z</time>
      </trkpt>
      <trkpt lat="45.78664" lon="5.00183">
        <ele>238.70862</ele>
        <time>2023-08-27T14:26:43.000Z</time>
      </trkpt>
      <trkpt lat="45.78661" lon="5.0018">
        <ele>239.04868</ele>
        <time>2023-08-27T14:26:44.000Z</time>
      </trkpt>
      <trkpt lat="45.7866" lon="5.00178">
        <ele>239.41611</ele>
        <time>2023-08-27T14:26:45.000Z</time>
      </trkpt>
      <trkpt lat="45.78659" lon="5.00175">
        <ele>239.72136</ele>
        <time>2023-08-27T14:26:46.000Z</time>
      </trkpt>
      <trkpt lat="45.78659" lon="5.00171">
        <ele>240.05074</ele>
        <time>2023-08-27T14:26:48.000Z</time>
      </trkpt>
      <trkpt lat="45.78659" lon="5.00168">
        <ele>240.32024</ele>
        <time>2023-08-27T14:26:50.000Z</time>
      </trkpt>
      <trkpt lat="45.78659" lon="5.00164">
        <ele>240.61182</ele>
        <time>2023-08-27T14:26:52.000Z</time>
      </trkpt>
      <trkpt lat="45.78657" lon="5.00161">
        <ele>240.85591</ele>
        <time>2023-08-27T14:26:54.000Z</time>
      </trkpt>
      <trkpt lat="45.78657" lon="5.00165">
        <ele>241.18271</ele>
        <time>2023-08-27T14:27:47.000Z</time>
      </trkpt>
      <trkpt lat="45.78659" lon="5.00167">
        <ele>241.33469</ele>
        <time>2023-08-27T14:27:49.000Z</time>
      </trkpt>
      <trkpt lat="45.7866" lon="5.00169">
        <ele>241.45438</ele>
        <time>2023-08-27T14:27:50.000Z</time>
      </trkpt>
      <trkpt lat="45.78661" lon="5.00172">
        <ele>241.58646</ele>
        <time>2023-08-27T14:27:51.000Z</time>
      </trkpt>
      <trkpt lat="45.78661" lon="5.00175">
        <ele>241.75488</ele>
        <time>2023-08-27T14:27:52.000Z</time>
      </trkpt>
      <trkpt lat="45.78663" lon="5.00178">
        <ele>241.91354</ele>
        <time>2023-08-27T14:27:53.000Z</time>
      </trkpt>
      <trkpt lat="45.78664" lon="5.00181">
        <ele>242.25296</ele>
        <time>2023-08-27T14:27:54.000Z</time>
      </trkpt>
      <trkpt lat="45.78666" lon="5.00182">
        <ele>242.59109</ele>
        <time>2023-08-27T14:27:55.000Z</time>
      </trkpt>
      <trkpt lat="45.78668" lon="5.00185">
        <ele>242.81839</ele>
        <time>2023-08-27T14:27:57.000Z</time>
      </trkpt>
      <trkpt lat="45.7867" lon="5.00188">
        <ele>242.93423</ele>
        <time>2023-08-27T14:27:59.000Z</time>
      </trkpt>
      <trkpt lat="45.78672" lon="5.00191">
        <ele>243.0675</ele>
        <time>2023-08-27T14:28:01.000Z</time>
      </trkpt>
      <trkpt lat="45.78674" lon="5.00191">
        <ele>243.24527</ele>
        <time>2023-08-27T14:28:02.000Z</time>
      </trkpt>
      <trkpt lat="45.78677" lon="5.00191">
        <ele>243.55338</ele>
        <time>2023-08-27T14:28:03.000Z</time>
      </trkpt>
      <trkpt lat="45.7868" lon="5.0019">
        <ele>243.74377</ele>
        <time>2023-08-27T14:28:04.000Z</time>
      </trkpt>
      <trkpt lat="45.78683" lon="5.00189">
        <ele>243.77502</ele>
        <time>2023-08-27T14:28:05.000Z</time>
      </trkpt>
      <trkpt lat="45.78686" lon="5.00189">
        <ele>243.87032</ele>
        <time>2023-08-27T14:28:06.000Z</time>
      </trkpt>
      <trkpt lat="45.78688" lon="5.00192">
        <ele>243.80818</ele>
        <time>2023-08-27T14:28:07.000Z</time>
      </trkpt>
      <trkpt lat="45.7869" lon="5.00196">
        <ele>243.69946</ele>
        <time>2023-08-27T14:28:08.000Z</time>
      </trkpt>
      <trkpt lat="45.78692" lon="5.002">
        <ele>243.54507</ele>
        <time>2023-08-27T14:28:10.000Z</time>
      </trkpt>
      <trkpt lat="45.78694" lon="5.00201">
        <ele>243.28935</ele>
        <time>2023-08-27T14:28:11.000Z</time>
      </trkpt>
      <trkpt lat="45.78695" lon="5.00203">
        <ele>243.1124</ele>
        <time>2023-08-27T14:28:12.000Z</time>
      </trkpt>
      <trkpt lat="45.78696" lon="5.00207">
        <ele>242.89978</ele>
        <time>2023-08-27T14:28:13.000Z</time>
      </trkpt>
      <trkpt lat="45.78697" lon="5.00211">
        <ele>242.67484</ele>
        <time>2023-08-27T14:28:14.000Z</time>
      </trkpt>
      <trkpt lat="45.78696" lon="5.00214">
        <ele>242.50122</ele>
        <time>2023-08-27T14:28:15.000Z</time>
      </trkpt>
      <trkpt lat="45.78695" lon="5.00217">
        <ele>242.33548</ele>
        <time>2023-08-27T14:28:16.000Z</time>
      </trkpt>
      <trkpt lat="45.78693" lon="5.00221">
        <ele>242.17244</ele>
        <time>2023-08-27T14:28:17.000Z</time>
      </trkpt>
      <trkpt lat="45.78692" lon="5.00224">
        <ele>241.81775</ele>
        <time>2023-08-27T14:28:18.000Z</time>
      </trkpt>
      <trkpt lat="45.78691" lon="5.0023">
        <ele>241.47054</ele>
        <time>2023-08-27T14:28:19.000Z</time>
      </trkpt>
      <trkpt lat="45.78689" lon="5.00236">
        <ele>241.15157</ele>
        <time>2023-08-27T14:28:20.000Z</time>
      </trkpt>
      <trkpt lat="45.78687" lon="5.00242">
        <ele>240.81863</ele>
        <time>2023-08-27T14:28:21.000Z</time>
      </trkpt>
      <trkpt lat="45.78685" lon="5.00248">
        <ele>240.47758</ele>
        <time>2023-08-27T14:28:22.000Z</time>
      </trkpt>
      <trkpt lat="45.78684" lon="5.00255">
        <ele>240.22466</ele>
        <time>2023-08-27T14:28:23.000Z</time>
      </trkpt>
      <trkpt lat="45.78682" lon="5.00261">
        <ele>239.97339</ele>
        <time>2023-08-27T14:28:24.000Z</time>
      </trkpt>
      <trkpt lat="45.78681" lon="5.00268">
        <ele>239.88742</ele>
        <time>2023-08-27T14:28:25.000Z</time>
      </trkpt>
      <trkpt lat="45.78679" lon="5.00274">
        <ele>240.00391</ele>
        <time>2023-08-27T14:28:26.000Z</time>
      </trkpt>
      <trkpt lat="45.78678" lon="5.00281">
        <ele>240.04465</ele>
        <time>2023-08-27T14:28:27.000Z</time>
      </trkpt>
      <trkpt lat="45.78676" lon="5.00287">
        <ele>239.98499</ele>
        <time>2023-08-27T14:28:28.000Z</time>
      </trkpt>
      <trkpt lat="45.78675" lon="5.00292">
        <ele>239.97578</ele>
        <time>2023-08-27T14:28:29.000Z</time>
      </trkpt>
      <trkpt lat="45.78674" lon="5.00297">
        <ele>240.01028</ele>
        <time>2023-08-27T14:28:30.000Z</time>
      </trkpt>
      <trkpt lat="45.78671" lon="5.00304">
        <ele>240.10503</ele>
        <time>2023-08-27T14:28:31.000Z</time>
      </trkpt>
      <trkpt lat="45.78669" lon="5.0031">
        <ele>240.20081</ele>
        <time>2023-08-27T14:28:32.000Z</time>
      </trkpt>
      <trkpt lat="45.78668" lon="5.00316">
        <ele>240.30484</ele>
        <time>2023-08-27T14:28:33.000Z</time>
      </trkpt>
      <trkpt lat="45.78667" lon="5.00322">
        <ele>240.44466</ele>
        <time>2023-08-27T14:28:34.000Z</time>
      </trkpt>
      <trkpt lat="45.78663" lon="5.00328">
        <ele>240.45724</ele>
        <time>2023-08-27T14:28:35.000Z</time>
      </trkpt>
      <trkpt lat="45.7866" lon="5.00334">
        <ele>240.36087</ele>
        <time>2023-08-27T14:28:36.000Z</time>
      </trkpt>
      <trkpt lat="45.78658" lon="5.00341">
        <ele>240.24814</ele>
        <time>2023-08-27T14:28:37.000Z</time>
      </trkpt>
      <trkpt lat="45.78656" lon="5.00347">
        <ele>240.27446</ele>
        <time>2023-08-27T14:28:38.000Z</time>
      </trkpt>
      <trkpt lat="45.78653" lon="5.00355">
        <ele>240.25069</ele>
        <time>2023-08-27T14:28:39.000Z</time>
      </trkpt>
      <trkpt lat="45.78652" lon="5.00361">
        <ele>240.29414</ele>
        <time>2023-08-27T14:28:40.000Z</time>
      </trkpt>
      <trkpt lat="45.78651" lon="5.00367">
        <ele>240.36772</ele>
        <time>2023-08-27T14:28:41.000Z</time>
      </trkpt>
      <trkpt lat="45.78649" lon="5.00376">
        <ele>240.46651</ele>
        <time>2023-08-27T14:28:42.000Z</time>
      </trkpt>
      <trkpt lat="45.78646" lon="5.00384">
        <ele>240.52209</ele>
        <time>2023-08-27T14:28:43.000Z</time>
      </trkpt>
      <trkpt lat="45.78644" lon="5.00392">
        <ele>240.64717</ele>
        <time>2023-08-27T14:28:44.000Z</time>
      </trkpt>
      <trkpt lat="45.78642" lon="5.004">
        <ele>240.65503</ele>
        <time>2023-08-27T14:28:45.000Z</time>
      </trkpt>
      <trkpt lat="45.7864" lon="5.00407">
        <ele>240.58032</ele>
        <time>2023-08-27T14:28:46.000Z</time>
      </trkpt>
      <trkpt lat="45.78638" lon="5.00414">
        <ele>240.59465</ele>
        <time>2023-08-27T14:28:47.000Z</time>
      </trkpt>
      <trkpt lat="45.78638" lon="5.00421">
        <ele>240.80075</ele>
        <time>2023-08-27T14:28:48.000Z</time>
      </trkpt>
      <trkpt lat="45.78637" lon="5.00429">
        <ele>240.98857</ele>
        <time>2023-08-27T14:28:49.000Z</time>
      </trkpt>
      <trkpt lat="45.78634" lon="5.00436">
        <ele>241.18083</ele>
        <time>2023-08-27T14:28:50.000Z</time>
      </trkpt>
      <trkpt lat="45.78631" lon="5.00446">
        <ele>241.30005</ele>
        <time>2023-08-27T14:28:51.000Z</time>
      </trkpt>
      <trkpt lat="45.7863" lon="5.00456">
        <ele>241.11685</ele>
        <time>2023-08-27T14:28:52.000Z</time>
      </trkpt>
      <trkpt lat="45.78628" lon="5.00465">
        <ele>241.05283</ele>
        <time>2023-08-27T14:28:53.000Z</time>
      </trkpt>
      <trkpt lat="45.78627" lon="5.00474">
        <ele>240.94112</ele>
        <time>2023-08-27T14:28:54.000Z</time>
      </trkpt>
      <trkpt lat="45.78625" lon="5.00482">
        <ele>240.88541</ele>
        <time>2023-08-27T14:28:55.000Z</time>
      </trkpt>
      <trkpt lat="45.78622" lon="5.00491">
        <ele>240.77214</ele>
        <time>2023-08-27T14:28:56.000Z</time>
      </trkpt>
      <trkpt lat="45.78621" lon="5.00501">
        <ele>240.67459</ele>
        <time>2023-08-27T14:28:57.000Z</time>
      </trkpt>
      <trkpt lat="45.78619" lon="5.00509">
        <ele>240.58867</ele>
        <time>2023-08-27T14:28:58.000Z</time>
      </trkpt>
      <trkpt lat="45.78617" lon="5.0052">
        <ele>240.51299</ele>
        <time>2023-08-27T14:28:59.000Z</time>
      </trkpt>
      <trkpt lat="45.78615" lon="5.00528">
        <ele>240.37802</ele>
        <time>2023-08-27T14:29:00.000Z</time>
      </trkpt>
      <trkpt lat="45.78613" lon="5.00537">
        <ele>240.20198</ele>
        <time>2023-08-27T14:29:01.000Z</time>
      </trkpt>
      <trkpt lat="45.78612" lon="5.00546">
        <ele>239.94199</ele>
        <time>2023-08-27T14:29:02.000Z</time>
      </trkpt>
      <trkpt lat="45.7861" lon="5.00553">
        <ele>239.64445</ele>
        <time>2023-08-27T14:29:03.000Z</time>
      </trkpt>
      <trkpt lat="45.78609" lon="5.00562">
        <ele>239.4285</ele>
        <time>2023-08-27T14:29:04.000Z</time>
      </trkpt>
      <trkpt lat="45.78606" lon="5.00571">
        <ele>239.27719</ele>
        <time>2023-08-27T14:29:05.000Z</time>
      </trkpt>
      <trkpt lat="45.78605" lon="5.0058">
        <ele>239.17114</ele>
        <time>2023-08-27T14:29:06.000Z</time>
      </trkpt>
      <trkpt lat="45.78605" lon="5.00588">
        <ele>239.04439</ele>
        <time>2023-08-27T14:29:07.000Z</time>
      </trkpt>
      <trkpt lat="45.78604" lon="5.00596">
        <ele>238.90866</ele>
        <time>2023-08-27T14:29:08.000Z</time>
      </trkpt>
      <trkpt lat="45.78603" lon="5.00603">
        <ele>238.80363</ele>
        <time>2023-08-27T14:29:09.000Z</time>
      </trkpt>
      <trkpt lat="45.78602" lon="5.00612">
        <ele>238.71225</ele>
        <time>2023-08-27T14:29:10.000Z</time>
      </trkpt>
      <trkpt lat="45.78601" lon="5.0062">
        <ele>238.68416</ele>
        <time>2023-08-27T14:29:11.000Z</time>
      </trkpt>
      <trkpt lat="45.78602" lon="5.00627">
        <ele>238.90105</ele>
        <time>2023-08-27T14:29:12.000Z</time>
      </trkpt>
      <trkpt lat="45.78601" lon="5.00635">
        <ele>239.07104</ele>
        <time>2023-08-27T14:29:13.000Z</time>
      </trkpt>
      <trkpt lat="45.78599" lon="5.00644">
        <ele>239.30058</ele>
        <time>2023-08-27T14:29:14.000Z</time>
      </trkpt>
      <trkpt lat="45.78598" lon="5.00651">
        <ele>239.35201</ele>
        <time>2023-08-27T14:29:15.000Z</time>
      </trkpt>
      <trkpt lat="45.78595" lon="5.00658">
        <ele>239.46228</ele>
        <time>2023-08-27T14:29:16.000Z</time>
      </trkpt>
      <trkpt lat="45.78593" lon="5.00667">
        <ele>239.54228</ele>
        <time>2023-08-27T14:29:17.000Z</time>
      </trkpt>
      <trkpt lat="45.78592" lon="5.00675">
        <ele>239.59151</ele>
        <time>2023-08-27T14:29:18.000Z</time>
      </trkpt>
      <trkpt lat="45.78592" lon="5.00684">
        <ele>239.67671</ele>
        <time>2023-08-27T14:29:19.000Z</time>
      </trkpt>
      <trkpt lat="45.7859" lon="5.00692">
        <ele>239.76314</ele>
        <time>2023-08-27T14:29:20.000Z</time>
      </trkpt>
      <trkpt lat="45.78589" lon="5.00701">
        <ele>239.85164</ele>
        <time>2023-08-27T14:29:21.000Z</time>
      </trkpt>
      <trkpt lat="45.78588" lon="5.00709">
        <ele>239.9397</ele>
        <time>2023-08-27T14:29:22.000Z</time>
      </trkpt>
      <trkpt lat="45.78587" lon="5.00718">
        <ele>240.07011</ele>
        <time>2023-08-27T14:29:23.000Z</time>
      </trkpt>
      <trkpt lat="45.78586" lon="5.00726">
        <ele>240.04301</ele>
        <time>2023-08-27T14:29:24.000Z</time>
      </trkpt>
      <trkpt lat="45.78585" lon="5.00737">
        <ele>239.96419</ele>
        <time>2023-08-27T14:29:25.000Z</time>
      </trkpt>
      <trkpt lat="45.78583" lon="5.00746">
        <ele>239.92448</ele>
        <time>2023-08-27T14:29:26.000Z</time>
      </trkpt>
      <trkpt lat="45.78583" lon="5.00756">
        <ele>239.81648</ele>
        <time>2023-08-27T14:29:27.000Z</time>
      </trkpt>
      <trkpt lat="45.78583" lon="5.00763">
        <ele>239.66602</ele>
        <time>2023-08-27T14:29:28.000Z</time>
      </trkpt>
      <trkpt lat="45.78585" lon="5.00773">
        <ele>239.61523</ele>
        <time>2023-08-27T14:29:29.000Z</time>
      </trkpt>
      <trkpt lat="45.78586" lon="5.00783">
        <ele>239.57053</ele>
        <time>2023-08-27T14:29:30.000Z</time>
      </trkpt>
      <trkpt lat="45.78586" lon="5.00792">
        <ele>239.59293</ele>
        <time>2023-08-27T14:29:31.000Z</time>
      </trkpt>
      <trkpt lat="45.78586" lon="5.00801">
        <ele>239.59029</ele>
        <time>2023-08-27T14:29:32.000Z</time>
      </trkpt>
      <trkpt lat="45.78587" lon="5.0081">
        <ele>239.58037</ele>
        <time>2023-08-27T14:29:33.000Z</time>
      </trkpt>
      <trkpt lat="45.78587" lon="5.00819">
        <ele>239.57918</ele>
        <time>2023-08-27T14:29:34.000Z</time>
      </trkpt>
      <trkpt lat="45.78587" lon="5.00827">
        <ele>239.55908</ele>
        <time>2023-08-27T14:29:35.000Z</time>
      </trkpt>
      <trkpt lat="45.78587" lon="5.00835">
        <ele>239.62553</ele>
        <time>2023-08-27T14:29:36.000Z</time>
      </trkpt>
      <trkpt lat="45.78587" lon="5.00844">
        <ele>239.6331</ele>
        <time>2023-08-27T14:29:37.000Z</time>
      </trkpt>
      <trkpt lat="45.78587" lon="5.00853">
        <ele>239.68633</ele>
        <time>2023-08-27T14:29:38.000Z</time>
      </trkpt>
      <trkpt lat="45.78588" lon="5.00861">
        <ele>239.6958</ele>
        <time>2023-08-27T14:29:39.000Z</time>
      </trkpt>
      <trkpt lat="45.78588" lon="5.0087">
        <ele>239.67513</ele>
        <time>2023-08-27T14:29:40.000Z</time>
      </trkpt>
      <trkpt lat="45.78589" lon="5.00877">
        <ele>239.80704</ele>
        <time>2023-08-27T14:29:41.000Z</time>
      </trkpt>
      <trkpt lat="45.7859" lon="5.00885">
        <ele>239.98067</ele>
        <time>2023-08-27T14:29:42.000Z</time>
      </trkpt>
      <trkpt lat="45.78589" lon="5.00894">
        <ele>240.11934</ele>
        <time>2023-08-27T14:29:43.000Z</time>
      </trkpt>
      <trkpt lat="45.78589" lon="5.00902">
        <ele>240.09964</ele>
        <time>2023-08-27T14:29:44.000Z</time>
      </trkpt>
      <trkpt lat="45.78589" lon="5.00912">
        <ele>240.13931</ele>
        <time>2023-08-27T14:29:45.000Z</time>
      </trkpt>
      <trkpt lat="45.7859" lon="5.00921">
        <ele>240.11494</ele>
        <time>2023-08-27T14:29:46.000Z</time>
      </trkpt>
      <trkpt lat="45.78592" lon="5.00931">
        <ele>240.23978</ele>
        <time>2023-08-27T14:29:47.000Z</time>
      </trkpt>
      <trkpt lat="45.78593" lon="5.00939">
        <ele>240.46655</ele>
        <time>2023-08-27T14:29:48.000Z</time>
      </trkpt>
      <trkpt lat="45.78594" lon="5.00947">
        <ele>240.37614</ele>
        <time>2023-08-27T14:29:49.000Z</time>
      </trkpt>
      <trkpt lat="45.78595" lon="5.00956">
        <ele>240.26462</ele>
        <time>2023-08-27T14:29:50.000Z</time>
      </trkpt>
      <trkpt lat="45.78597" lon="5.00965">
        <ele>240.15178</ele>
        <time>2023-08-27T14:29:51.000Z</time>
      </trkpt>
      <trkpt lat="45.78598" lon="5.00974">
        <ele>240.04744</ele>
        <time>2023-08-27T14:29:52.000Z</time>
      </trkpt>
      <trkpt lat="45.78599" lon="5.00983">
        <ele>239.72163</ele>
        <time>2023-08-27T14:29:53.000Z</time>
      </trkpt>
      <trkpt lat="45.78601" lon="5.00991">
        <ele>239.43051</ele>
        <time>2023-08-27T14:29:54.000Z</time>
      </trkpt>
      <trkpt lat="45.78603" lon="5.01">
        <ele>239.37112</ele>
        <time>2023-08-27T14:29:55.000Z</time>
      </trkpt>
      <trkpt lat="45.78605" lon="5.01009">
        <ele>239.22942</ele>
        <time>2023-08-27T14:29:56.000Z</time>
      </trkpt>
      <trkpt lat="45.78606" lon="5.01016">
        <ele>239.15227</ele>
        <time>2023-08-27T14:29:57.000Z</time>
      </trkpt>
      <trkpt lat="45.78608" lon="5.01025">
        <ele>239.08447</ele>
        <time>2023-08-27T14:29:58.000Z</time>
      </trkpt>
      <trkpt lat="45.78609" lon="5.01032">
        <ele>239.14204</ele>
        <time>2023-08-27T14:29:59.000Z</time>
      </trkpt>
      <trkpt lat="45.78611" lon="5.0104">
        <ele>239.30649</ele>
        <time>2023-08-27T14:30:00.000Z</time>
      </trkpt>
      <trkpt lat="45.78614" lon="5.01047">
        <ele>239.30093</ele>
        <time>2023-08-27T14:30:01.000Z</time>
      </trkpt>
      <trkpt lat="45.78617" lon="5.01054">
        <ele>239.05441</ele>
        <time>2023-08-27T14:30:02.000Z</time>
      </trkpt>
      <trkpt lat="45.7862" lon="5.01061">
        <ele>238.83652</ele>
        <time>2023-08-27T14:30:03.000Z</time>
      </trkpt>
      <trkpt lat="45.78623" lon="5.01066">
        <ele>238.78508</ele>
        <time>2023-08-27T14:30:04.000Z</time>
      </trkpt>
      <trkpt lat="45.78626" lon="5.01071">
        <ele>238.69446</ele>
        <time>2023-08-27T14:30:05.000Z</time>
      </trkpt>
      <trkpt lat="45.7863" lon="5.01075">
        <ele>238.63541</ele>
        <time>2023-08-27T14:30:06.000Z</time>
      </trkpt>
      <trkpt lat="45.78633" lon="5.0108">
        <ele>238.41675</ele>
        <time>2023-08-27T14:30:07.000Z</time>
      </trkpt>
      <trkpt lat="45.78636" lon="5.01084">
        <ele>238.10059</ele>
        <time>2023-08-27T14:30:08.000Z</time>
      </trkpt>
      <trkpt lat="45.78639" lon="5.01088">
        <ele>238.08517</ele>
        <time>2023-08-27T14:30:09.000Z</time>
      </trkpt>
      <trkpt lat="45.78641" lon="5.0109">
        <ele>238.13814</ele>
        <time>2023-08-27T14:30:10.000Z</time>
      </trkpt>
      <trkpt lat="45.78644" lon="5.01093">
        <ele>238.19551</ele>
        <time>2023-08-27T14:30:11.000Z</time>
      </trkpt>
      <trkpt lat="45.78646" lon="5.01095">
        <ele>238.07097</ele>
        <time>2023-08-27T14:30:12.000Z</time>
      </trkpt>
      <trkpt lat="45.78646" lon="5.01099">
        <ele>238.09531</ele>
        <time>2023-08-27T14:30:13.000Z</time>
      </trkpt>
      <trkpt lat="45.78645" lon="5.01102">
        <ele>238.02959</ele>
        <time>2023-08-27T14:30:14.000Z</time>
      </trkpt>
      <trkpt lat="45.78642" lon="5.01104">
        <ele>237.94536</ele>
        <time>2023-08-27T14:30:15.000Z</time>
      </trkpt>
      <trkpt lat="45.78638" lon="5.01105">
        <ele>237.93494</ele>
        <time>2023-08-27T14:30:16.000Z</time>
      </trkpt>
      <trkpt lat="45.78634" lon="5.01106">
        <ele>237.90906</ele>
        <time>2023-08-27T14:30:17.000Z</time>
      </trkpt>
      <trkpt lat="45.7863" lon="5.01106">
        <ele>237.89053</ele>
        <time>2023-08-27T14:30:18.000Z</time>
      </trkpt>
      <trkpt lat="45.78625" lon="5.01107">
        <ele>237.73959</ele>
        <time>2023-08-27T14:30:19.000Z</time>
      </trkpt>
      <trkpt lat="45.78621" lon="5.01108">
        <ele>237.53934</ele>
        <time>2023-08-27T14:30:20.000Z</time>
      </trkpt>
      <trkpt lat="45.78615" lon="5.01108">
        <ele>237.46736</ele>
        <time>2023-08-27T14:30:21.000Z</time>
      </trkpt>
      <trkpt lat="45.7861" lon="5.01108">
        <ele>237.68111</ele>
        <time>2023-08-27T14:30:22.000Z</time>
      </trkpt>
      <trkpt lat="45.78604" lon="5.01106">
        <ele>237.89688</ele>
        <time>2023-08-27T14:30:23.000Z</time>
      </trkpt>
      <trkpt lat="45.78597" lon="5.01103">
        <ele>237.97049</ele>
        <time>2023-08-27T14:30:24.000Z</time>
      </trkpt>
      <trkpt lat="45.78592" lon="5.01097">
        <ele>238.06808</ele>
        <time>2023-08-27T14:30:25.000Z</time>
      </trkpt>
      <trkpt lat="45.78587" lon="5.01093">
        <ele>238.15149</ele>
        <time>2023-08-27T14:30:26.000Z</time>
      </trkpt>
      <trkpt lat="45.78582" lon="5.01089">
        <ele>238.25082</ele>
        <time>2023-08-27T14:30:27.000Z</time>
      </trkpt>
      <trkpt lat="45.78576" lon="5.01086">
        <ele>238.457</ele>
        <time>2023-08-27T14:30:28.000Z</time>
      </trkpt>
      <trkpt lat="45.78571" lon="5.01083">
        <ele>238.62521</ele>
        <time>2023-08-27T14:30:29.000Z</time>
      </trkpt>
      <trkpt lat="45.78564" lon="5.0108">
        <ele>238.70166</ele>
        <time>2023-08-27T14:30:30.000Z</time>
      </trkpt>
      <trkpt lat="45.78559" lon="5.01077">
        <ele>238.74504</ele>
        <time>2023-08-27T14:30:31.000Z</time>
      </trkpt>
      <trkpt lat="45.78552" lon="5.01072">
        <ele>239.00867</ele>
        <time>2023-08-27T14:30:32.000Z</time>
      </trkpt>
      <trkpt lat="45.78547" lon="5.01072">
        <ele>239.23274</ele>
        <time>2023-08-27T14:30:33.000Z</time>
      </trkpt>
      <trkpt lat="45.7854" lon="5.01069">
        <ele>239.49446</ele>
        <time>2023-08-27T14:30:34.000Z</time>
      </trkpt>
      <trkpt lat="45.78534" lon="5.01066">
        <ele>239.80103</ele>
        <time>2023-08-27T14:30:35.000Z</time>
      </trkpt>
      <trkpt lat="45.78528" lon="5.01063">
        <ele>239.9086</ele>
        <time>2023-08-27T14:30:36.000Z</time>
      </trkpt>
      <trkpt lat="45.78521" lon="5.01059">
        <ele>240.14047</ele>
        <time>2023-08-27T14:30:37.000Z</time>
      </trkpt>
      <trkpt lat="45.78516" lon="5.01055">
        <ele>240.26389</ele>
        <time>2023-08-27T14:30:38.000Z</time>
      </trkpt>
      <trkpt lat="45.7851" lon="5.01051">
        <ele>240.38513</ele>
        <time>2023-08-27T14:30:39.000Z</time>
      </trkpt>
      <trkpt lat="45.78504" lon="5.01048">
        <ele>240.48901</ele>
        <time>2023-08-27T14:30:40.000Z</time>
      </trkpt>
      <trkpt lat="45.78498" lon="5.01044">
        <ele>240.50577</ele>
        <time>2023-08-27T14:30:41.000Z</time>
      </trkpt>
      <trkpt lat="45.78492" lon="5.0104">
        <ele>240.47592</ele>
        <time>2023-08-27T14:30:42.000Z</time>
      </trkpt>
      <trkpt lat="45.78487" lon="5.01037">
        <ele>240.48218</ele>
        <time>2023-08-27T14:30:43.000Z</time>
      </trkpt>
      <trkpt lat="45.78481" lon="5.01035">
        <ele>240.69637</ele>
        <time>2023-08-27T14:30:44.000Z</time>
      </trkpt>
      <trkpt lat="45.78475" lon="5.01032">
        <ele>240.89291</ele>
        <time>2023-08-27T14:30:45.000Z</time>
      </trkpt>
      <trkpt lat="45.7847" lon="5.01029">
        <ele>241.14249</ele>
        <time>2023-08-27T14:30:46.000Z</time>
      </trkpt>
      <trkpt lat="45.78464" lon="5.01026">
        <ele>241.41885</ele>
        <time>2023-08-27T14:30:47.000Z</time>
      </trkpt>
      <trkpt lat="45.78458" lon="5.01023">
        <ele>241.52213</ele>
        <time>2023-08-27T14:30:48.000Z</time>
      </trkpt>
      <trkpt lat="45.78452" lon="5.01019">
        <ele>241.60164</ele>
        <time>2023-08-27T14:30:49.000Z</time>
      </trkpt>
      <trkpt lat="45.78446" lon="5.01017">
        <ele>241.7083</ele>
        <time>2023-08-27T14:30:50.000Z</time>
      </trkpt>
      <trkpt lat="45.7844" lon="5.01013">
        <ele>241.79683</ele>
        <time>2023-08-27T14:30:51.000Z</time>
      </trkpt>
      <trkpt lat="45.78435" lon="5.01011">
        <ele>241.91556</ele>
        <time>2023-08-27T14:30:52.000Z</time>
      </trkpt>
      <trkpt lat="45.78429" lon="5.01007">
        <ele>242.05334</ele>
        <time>2023-08-27T14:30:53.000Z</time>
      </trkpt>
      <trkpt lat="45.78423" lon="5.01003">
        <ele>242.16211</ele>
        <time>2023-08-27T14:30:54.000Z</time>
      </trkpt>
      <trkpt lat="45.78417" lon="5.01">
        <ele>242.25806</ele>
        <time>2023-08-27T14:30:55.000Z</time>
      </trkpt>
      <trkpt lat="45.78411" lon="5.00997">
        <ele>242.51616</ele>
        <time>2023-08-27T14:30:56.000Z</time>
      </trkpt>
      <trkpt lat="45.78405" lon="5.00994">
        <ele>242.65869</ele>
        <time>2023-08-27T14:30:57.000Z</time>
      </trkpt>
      <trkpt lat="45.784" lon="5.00991">
        <ele>242.93916</ele>
        <time>2023-08-27T14:30:58.000Z</time>
      </trkpt>
      <trkpt lat="45.78394" lon="5.00987">
        <ele>243.13676</ele>
        <time>2023-08-27T14:30:59.000Z</time>
      </trkpt>
      <trkpt lat="45.78389" lon="5.00985">
        <ele>243.33847</ele>
        <time>2023-08-27T14:31:00.000Z</time>
      </trkpt>
      <trkpt lat="45.78382" lon="5.00981">
        <ele>243.48579</ele>
        <time>2023-08-27T14:31:01.000Z</time>
      </trkpt>
      <trkpt lat="45.78376" lon="5.00979">
        <ele>243.61816</ele>
        <time>2023-08-27T14:31:02.000Z</time>
      </trkpt>
      <trkpt lat="45.78371" lon="5.00975">
        <ele>243.71619</ele>
        <time>2023-08-27T14:31:03.000Z</time>
      </trkpt>
      <trkpt lat="45.78365" lon="5.00972">
        <ele>243.77531</ele>
        <time>2023-08-27T14:31:04.000Z</time>
      </trkpt>
      <trkpt lat="45.78359" lon="5.00969">
        <ele>243.81778</ele>
        <time>2023-08-27T14:31:05.000Z</time>
      </trkpt>
      <trkpt lat="45.78354" lon="5.00966">
        <ele>243.81743</ele>
        <time>2023-08-27T14:31:06.000Z</time>
      </trkpt>
      <trkpt lat="45.78348" lon="5.00963">
        <ele>243.78821</ele>
        <time>2023-08-27T14:31:07.000Z</time>
      </trkpt>
      <trkpt lat="45.78342" lon="5.00961">
        <ele>243.86099</ele>
        <time>2023-08-27T14:31:08.000Z</time>
      </trkpt>
      <trkpt lat="45.78337" lon="5.00957">
        <ele>243.90466</ele>
        <time>2023-08-27T14:31:09.000Z</time>
      </trkpt>
      <trkpt lat="45.78332" lon="5.00953">
        <ele>243.90842</ele>
        <time>2023-08-27T14:31:10.000Z</time>
      </trkpt>
      <trkpt lat="45.78326" lon="5.00949">
        <ele>243.90852</ele>
        <time>2023-08-27T14:31:11.000Z</time>
      </trkpt>
      <trkpt lat="45.7832" lon="5.00947">
        <ele>243.86214</ele>
        <time>2023-08-27T14:31:12.000Z</time>
      </trkpt>
      <trkpt lat="45.78316" lon="5.00944">
        <ele>243.82755</ele>
        <time>2023-08-27T14:31:13.000Z</time>
      </trkpt>
      <trkpt lat="45.78311" lon="5.00942">
        <ele>243.83154</ele>
        <time>2023-08-27T14:31:14.000Z</time>
      </trkpt>
      <trkpt lat="45.78306" lon="5.0094">
        <ele>243.81628</ele>
        <time>2023-08-27T14:31:15.000Z</time>
      </trkpt>
      <trkpt lat="45.78302" lon="5.00938">
        <ele>243.79517</ele>
        <time>2023-08-27T14:31:16.000Z</time>
      </trkpt>
      <trkpt lat="45.78297" lon="5.00936">
        <ele>243.79733</ele>
        <time>2023-08-27T14:31:17.000Z</time>
      </trkpt>
      <trkpt lat="45.78293" lon="5.00933">
        <ele>243.75122</ele>
        <time>2023-08-27T14:31:18.000Z</time>
      </trkpt>
      <trkpt lat="45.78289" lon="5.00931">
        <ele>243.83891</ele>
        <time>2023-08-27T14:31:19.000Z</time>
      </trkpt>
      <trkpt lat="45.78285" lon="5.00928">
        <ele>243.94307</ele>
        <time>2023-08-27T14:31:20.000Z</time>
      </trkpt>
      <trkpt lat="45.7828" lon="5.00926">
        <ele>244.09428</ele>
        <time>2023-08-27T14:31:21.000Z</time>
      </trkpt>
      <trkpt lat="45.78277" lon="5.00925">
        <ele>244.24658</ele>
        <time>2023-08-27T14:31:22.000Z</time>
      </trkpt>
      <trkpt lat="45.78274" lon="5.00922">
        <ele>244.39665</ele>
        <time>2023-08-27T14:31:23.000Z</time>
      </trkpt>
      <trkpt lat="45.7827" lon="5.00919">
        <ele>244.56804</ele>
        <time>2023-08-27T14:31:24.000Z</time>
      </trkpt>
      <trkpt lat="45.78266" lon="5.00917">
        <ele>244.73747</ele>
        <time>2023-08-27T14:31:25.000Z</time>
      </trkpt>
      <trkpt lat="45.78263" lon="5.00915">
        <ele>244.84424</ele>
        <time>2023-08-27T14:31:26.000Z</time>
      </trkpt>
      <trkpt lat="45.78261" lon="5.00913">
        <ele>244.97038</ele>
        <time>2023-08-27T14:31:27.000Z</time>
      </trkpt>
      <trkpt lat="45.78258" lon="5.00912">
        <ele>245.0806</ele>
        <time>2023-08-27T14:31:28.000Z</time>
      </trkpt>
      <trkpt lat="45.78256" lon="5.00911">
        <ele>245.19177</ele>
        <time>2023-08-27T14:31:29.000Z</time>
      </trkpt>
      <trkpt lat="45.78253" lon="5.00912">
        <ele>245.29965</ele>
        <time>2023-08-27T14:31:30.000Z</time>
      </trkpt>
      <trkpt lat="45.78251" lon="5.00913">
        <ele>245.40337</ele>
        <time>2023-08-27T14:31:31.000Z</time>
      </trkpt>
      <trkpt lat="45.7825" lon="5.00915">
        <ele>245.47348</ele>
        <time>2023-08-27T14:31:32.000Z</time>
      </trkpt>
      <trkpt lat="45.78248" lon="5.00917">
        <ele>245.52922</ele>
        <time>2023-08-27T14:31:33.000Z</time>
      </trkpt>
      <trkpt lat="45.78246" lon="5.0092">
        <ele>245.56294</ele>
        <time>2023-08-27T14:31:34.000Z</time>
      </trkpt>
      <trkpt lat="45.78245" lon="5.00923">
        <ele>245.56055</ele>
        <time>2023-08-27T14:31:35.000Z</time>
      </trkpt>
      <trkpt lat="45.78244" lon="5.00926">
        <ele>245.45613</ele>
        <time>2023-08-27T14:31:36.000Z</time>
      </trkpt>
      <trkpt lat="45.78243" lon="5.00933">
        <ele>245.33826</ele>
        <time>2023-08-27T14:31:37.000Z</time>
      </trkpt>
      <trkpt lat="45.78241" lon="5.00939">
        <ele>245.24178</ele>
        <time>2023-08-27T14:31:38.000Z</time>
      </trkpt>
      <trkpt lat="45.78239" lon="5.00945">
        <ele>245.14481</ele>
        <time>2023-08-27T14:31:39.000Z</time>
      </trkpt>
      <trkpt lat="45.78238" lon="5.00951">
        <ele>245.02567</ele>
        <time>2023-08-27T14:31:40.000Z</time>
      </trkpt>
      <trkpt lat="45.78237" lon="5.00958">
        <ele>244.95679</ele>
        <time>2023-08-27T14:31:41.000Z</time>
      </trkpt>
      <trkpt lat="45.78235" lon="5.00965">
        <ele>244.88652</ele>
        <time>2023-08-27T14:31:42.000Z</time>
      </trkpt>
      <trkpt lat="45.78231" lon="5.0097">
        <ele>244.78889</ele>
        <time>2023-08-27T14:31:43.000Z</time>
      </trkpt>
      <trkpt lat="45.78226" lon="5.00971">
        <ele>244.73007</ele>
        <time>2023-08-27T14:31:44.000Z</time>
      </trkpt>
      <trkpt lat="45.78221" lon="5.0097">
        <ele>244.66824</ele>
        <time>2023-08-27T14:31:45.000Z</time>
      </trkpt>
      <trkpt lat="45.78216" lon="5.00969">
        <ele>244.62735</ele>
        <time>2023-08-27T14:31:46.000Z</time>
      </trkpt>
      <trkpt lat="45.7821" lon="5.00969">
        <ele>244.54988</ele>
        <time>2023-08-27T14:31:47.000Z</time>
      </trkpt>
      <trkpt lat="45.78205" lon="5.00969">
        <ele>244.49136</ele>
        <time>2023-08-27T14:31:48.000Z</time>
      </trkpt>
      <trkpt lat="45.78199" lon="5.00969">
        <ele>244.43233</ele>
        <time>2023-08-27T14:31:49.000Z</time>
      </trkpt>
      <trkpt lat="45.78193" lon="5.0097">
        <ele>244.38037</ele>
        <time>2023-08-27T14:31:50.000Z</time>
      </trkpt>
      <trkpt lat="45.78187" lon="5.0097">
        <ele>244.34506</ele>
        <time>2023-08-27T14:31:51.000Z</time>
      </trkpt>
      <trkpt lat="45.78181" lon="5.0097">
        <ele>244.34558</ele>
        <time>2023-08-27T14:31:52.000Z</time>
      </trkpt>
      <trkpt lat="45.78175" lon="5.0097">
        <ele>244.34387</ele>
        <time>2023-08-27T14:31:53.000Z</time>
      </trkpt>
      <trkpt lat="45.78169" lon="5.0097">
        <ele>244.35242</ele>
        <time>2023-08-27T14:31:54.000Z</time>
      </trkpt>
      <trkpt lat="45.78164" lon="5.0097">
        <ele>244.37248</ele>
        <time>2023-08-27T14:31:55.000Z</time>
      </trkpt>
      <trkpt lat="45.78158" lon="5.00971">
        <ele>244.50066</ele>
        <time>2023-08-27T14:31:56.000Z</time>
      </trkpt>
      <trkpt lat="45.78153" lon="5.0097">
        <ele>244.65793</ele>
        <time>2023-08-27T14:31:57.000Z</time>
      </trkpt>
      <trkpt lat="45.78147" lon="5.0097">
        <ele>244.79196</ele>
        <time>2023-08-27T14:31:58.000Z</time>
      </trkpt>
      <trkpt lat="45.78141" lon="5.00971">
        <ele>244.87198</ele>
        <time>2023-08-27T14:31:59.000Z</time>
      </trkpt>
      <trkpt lat="45.78136" lon="5.0097">
        <ele>244.95581</ele>
        <time>2023-08-27T14:32:00.000Z</time>
      </trkpt>
      <trkpt lat="45.7813" lon="5.0097">
        <ele>245.00839</ele>
        <time>2023-08-27T14:32:01.000Z</time>
      </trkpt>
      <trkpt lat="45.78125" lon="5.0097">
        <ele>245.07451</ele>
        <time>2023-08-27T14:32:02.000Z</time>
      </trkpt>
      <trkpt lat="45.7812" lon="5.0097">
        <ele>245.1097</ele>
        <time>2023-08-27T14:32:03.000Z</time>
      </trkpt>
      <trkpt lat="45.78115" lon="5.0097">
        <ele>245.10283</ele>
        <time>2023-08-27T14:32:04.000Z</time>
      </trkpt>
      <trkpt lat="45.78111" lon="5.0097">
        <ele>245.10422</ele>
        <time>2023-08-27T14:32:05.000Z</time>
      </trkpt>
      <trkpt lat="45.78108" lon="5.00969">
        <ele>245.11221</ele>
        <time>2023-08-27T14:32:06.000Z</time>
      </trkpt>
      <trkpt lat="45.78106" lon="5.00969">
        <ele>245.13791</ele>
        <time>2023-08-27T14:32:07.000Z</time>
      </trkpt>
      <trkpt lat="45.78103" lon="5.00968">
        <ele>245.13937</ele>
        <time>2023-08-27T14:32:08.000Z</time>
      </trkpt>
      <trkpt lat="45.781" lon="5.00968">
        <ele>245.09724</ele>
        <time>2023-08-27T14:32:09.000Z</time>
      </trkpt>
      <trkpt lat="45.78097" lon="5.00968">
        <ele>245.12631</ele>
        <time>2023-08-27T14:32:10.000Z</time>
      </trkpt>
      <trkpt lat="45.78093" lon="5.00969">
        <ele>245.16202</ele>
        <time>2023-08-27T14:32:11.000Z</time>
      </trkpt>
      <trkpt lat="45.7809" lon="5.00969">
        <ele>245.17619</ele>
        <time>2023-08-27T14:32:12.000Z</time>
      </trkpt>
      <trkpt lat="45.78085" lon="5.00969">
        <ele>245.19527</ele>
        <time>2023-08-27T14:32:13.000Z</time>
      </trkpt>
      <trkpt lat="45.78081" lon="5.00969">
        <ele>245.22488</ele>
        <time>2023-08-27T14:32:14.000Z</time>
      </trkpt>
      <trkpt lat="45.78076" lon="5.00969">
        <ele>245.25854</ele>
        <time>2023-08-27T14:32:15.000Z</time>
      </trkpt>
      <trkpt lat="45.78072" lon="5.00968">
        <ele>245.28271</ele>
        <time>2023-08-27T14:32:16.000Z</time>
      </trkpt>
      <trkpt lat="45.78068" lon="5.00968">
        <ele>245.30771</ele>
        <time>2023-08-27T14:32:17.000Z</time>
      </trkpt>
      <trkpt lat="45.78063" lon="5.00969">
        <ele>245.27139</ele>
        <time>2023-08-27T14:32:18.000Z</time>
      </trkpt>
      <trkpt lat="45.78059" lon="5.0097">
        <ele>245.27737</ele>
        <time>2023-08-27T14:32:19.000Z</time>
      </trkpt>
      <trkpt lat="45.78055" lon="5.00971">
        <ele>245.28836</ele>
        <time>2023-08-27T14:32:20.000Z</time>
      </trkpt>
      <trkpt lat="45.78052" lon="5.0097">
        <ele>245.28545</ele>
        <time>2023-08-27T14:32:21.000Z</time>
      </trkpt>
      <trkpt lat="45.78049" lon="5.0097">
        <ele>245.23674</ele>
        <time>2023-08-27T14:32:22.000Z</time>
      </trkpt>
      <trkpt lat="45.78047" lon="5.00971">
        <ele>245.23987</ele>
        <time>2023-08-27T14:32:23.000Z</time>
      </trkpt>
      <trkpt lat="45.78045" lon="5.00971">
        <ele>245.21623</ele>
        <time>2023-08-27T14:32:24.000Z</time>
      </trkpt>
      <trkpt lat="45.78043" lon="5.00971">
        <ele>245.20406</ele>
        <time>2023-08-27T14:32:25.000Z</time>
      </trkpt>
      <trkpt lat="45.78041" lon="5.00971">
        <ele>245.25821</ele>
        <time>2023-08-27T14:32:26.000Z</time>
      </trkpt>
      <trkpt lat="45.78039" lon="5.00975">
        <ele>245.31653</ele>
        <time>2023-08-27T14:32:28.000Z</time>
      </trkpt>
      <trkpt lat="45.78038" lon="5.00978">
        <ele>245.39975</ele>
        <time>2023-08-27T14:32:29.000Z</time>
      </trkpt>
      <trkpt lat="45.78038" lon="5.00982">
        <ele>245.5405</ele>
        <time>2023-08-27T14:32:30.000Z</time>
      </trkpt>
      <trkpt lat="45.78038" lon="5.00986">
        <ele>245.30806</ele>
        <time>2023-08-27T14:32:31.000Z</time>
      </trkpt>
      <trkpt lat="45.78038" lon="5.0099">
        <ele>245.06238</ele>
        <time>2023-08-27T14:32:32.000Z</time>
      </trkpt>
      <trkpt lat="45.78039" lon="5.00993">
        <ele>244.90654</ele>
        <time>2023-08-27T14:32:33.000Z</time>
      </trkpt>
      <trkpt lat="45.78039" lon="5.00997">
        <ele>244.70979</ele>
        <time>2023-08-27T14:32:34.000Z</time>
      </trkpt>
      <trkpt lat="45.78039" lon="5.01">
        <ele>244.4854</ele>
        <time>2023-08-27T14:32:35.000Z</time>
      </trkpt>
      <trkpt lat="45.78039" lon="5.01004">
        <ele>244.29221</ele>
        <time>2023-08-27T14:32:36.000Z</time>
      </trkpt>
      <trkpt lat="45.78038" lon="5.01007">
        <ele>244.05782</ele>
        <time>2023-08-27T14:32:37.000Z</time>
      </trkpt>
      <trkpt lat="45.78038" lon="5.0101">
        <ele>244.108</ele>
        <time>2023-08-27T14:32:38.000Z</time>
      </trkpt>
      <trkpt lat="45.7804" lon="5.01012">
        <ele>244.18729</ele>
        <time>2023-08-27T14:32:39.000Z</time>
      </trkpt>
      <trkpt lat="45.78042" lon="5.01013">
        <ele>244.23294</ele>
        <time>2023-08-27T14:32:40.000Z</time>
      </trkpt>
      <trkpt lat="45.78044" lon="5.01012">
        <ele>244.36502</ele>
        <time>2023-08-27T14:32:41.000Z</time>
      </trkpt>
      <trkpt lat="45.78045" lon="5.0101">
        <ele>244.60269</ele>
        <time>2023-08-27T14:32:42.000Z</time>
      </trkpt>
      <trkpt lat="45.78046" lon="5.01008">
        <ele>244.90552</ele>
        <time>2023-08-27T14:32:43.000Z</time>
      </trkpt>
      <trkpt lat="45.78046" lon="5.01005">
        <ele>245.24471</ele>
        <time>2023-08-27T14:32:45.000Z</time>
      </trkpt>
    </trkseg>
  </trk>
</gpx>